<?xml version="1.0" encoding="UTF-8"?>
<gpx version="1.1" creator="https://www.youtrack.es" xsi:schemaLocation="http://www.topografix.com/GPX/1/1 http://www.topografix.com/GPX/1/1/gpx.xsd http://www.garmin.com/xmlschemas/GpxExtensions/v3 http://www.garmin.com/xmlschemas/GpxExtensionsv3.xsd http://www.garmin.com/xmlschemas/TrackPointExtension/v1 http://www.garmin.com/xmlschemas/TrackPointExtensionv1.xsd" xmlns:gpxtpx="http://www.garmin.com/xmlschemas/TrackPointExtension/v1" xmlns:gpxx="http://www.garmin.com/xmlschemas/GpxExtensions/v3" xmlns:xsi="http://www.w3.org/2001/XMLSchema-instance">
  <metadata>
    <author>
      <name>David Bueno</name>
      <email id="davidbuenocarrillo" domain="gmail.com"/>
    </author>
    <link href="https://www.youtrack.es">
      <text>YouTrack.es</text>
    </link>
    <time>2026-05-08T06:41:27Z</time>
  </metadata>
  <trk>
    <src>https://www.youtrack.es</src>
    <link href="https://www.youtrack.es/ruta/38027-salida-por-la-calderona">
      <text>YouTrack.es</text>
    </link>
    <trkseg>
      <trkpt lat="39.6464260" lon="-0.4301430">
        <ele>177.3</ele>
        <time>2022-11-06T06:03:51Z</time>
      </trkpt>
      <trkpt lat="39.6464260" lon="-0.4301430">
        <ele>177.3</ele>
        <time>2022-11-06T06:03:52Z</time>
      </trkpt>
      <trkpt lat="39.6464260" lon="-0.4301430">
        <ele>177.3</ele>
        <time>2022-11-06T06:03:53Z</time>
      </trkpt>
      <trkpt lat="39.6464500" lon="-0.4301520">
        <ele>177.3</ele>
        <time>2022-11-06T06:03:54Z</time>
      </trkpt>
      <trkpt lat="39.6464610" lon="-0.4301520">
        <ele>177.3</ele>
        <time>2022-11-06T06:03:55Z</time>
      </trkpt>
      <trkpt lat="39.6464720" lon="-0.4301530">
        <ele>177.2</ele>
        <time>2022-11-06T06:03:56Z</time>
      </trkpt>
      <trkpt lat="39.6464880" lon="-0.4301530">
        <ele>177.2</ele>
        <time>2022-11-06T06:03:57Z</time>
      </trkpt>
      <trkpt lat="39.6465040" lon="-0.4301520">
        <ele>177.2</ele>
        <time>2022-11-06T06:03:58Z</time>
      </trkpt>
      <trkpt lat="39.6465310" lon="-0.4301550">
        <ele>177.1</ele>
        <time>2022-11-06T06:03:59Z</time>
      </trkpt>
      <trkpt lat="39.6465500" lon="-0.4301530">
        <ele>177.1</ele>
        <time>2022-11-06T06:04:00Z</time>
      </trkpt>
      <trkpt lat="39.6465790" lon="-0.4301530">
        <ele>177.0</ele>
        <time>2022-11-06T06:04:01Z</time>
      </trkpt>
      <trkpt lat="39.6466410" lon="-0.4301530">
        <ele>176.9</ele>
        <time>2022-11-06T06:04:02Z</time>
      </trkpt>
      <trkpt lat="39.6466410" lon="-0.4301530">
        <ele>176.9</ele>
        <time>2022-11-06T06:04:03Z</time>
      </trkpt>
      <trkpt lat="39.6466760" lon="-0.4301550">
        <ele>176.8</ele>
        <time>2022-11-06T06:04:04Z</time>
      </trkpt>
      <trkpt lat="39.6467130" lon="-0.4301550">
        <ele>176.8</ele>
        <time>2022-11-06T06:04:05Z</time>
      </trkpt>
      <trkpt lat="39.6467510" lon="-0.4301580">
        <ele>176.7</ele>
        <time>2022-11-06T06:04:06Z</time>
      </trkpt>
      <trkpt lat="39.6467880" lon="-0.4301620">
        <ele>176.6</ele>
        <time>2022-11-06T06:04:07Z</time>
      </trkpt>
      <trkpt lat="39.6468280" lon="-0.4301680">
        <ele>176.6</ele>
        <time>2022-11-06T06:04:08Z</time>
      </trkpt>
      <trkpt lat="39.6468660" lon="-0.4301780">
        <ele>176.5</ele>
        <time>2022-11-06T06:04:09Z</time>
      </trkpt>
      <trkpt lat="39.6469090" lon="-0.4301880">
        <ele>176.5</ele>
        <time>2022-11-06T06:04:10Z</time>
      </trkpt>
      <trkpt lat="39.6469460" lon="-0.4301980">
        <ele>176.4</ele>
        <time>2022-11-06T06:04:11Z</time>
      </trkpt>
      <trkpt lat="39.6469460" lon="-0.4301980">
        <ele>176.4</ele>
        <time>2022-11-06T06:04:12Z</time>
      </trkpt>
      <trkpt lat="39.6469460" lon="-0.4301980">
        <ele>176.4</ele>
        <time>2022-11-06T06:04:13Z</time>
      </trkpt>
      <trkpt lat="39.6470750" lon="-0.4302350">
        <ele>176.2</ele>
        <time>2022-11-06T06:04:14Z</time>
      </trkpt>
      <trkpt lat="39.6471130" lon="-0.4302500">
        <ele>176.2</ele>
        <time>2022-11-06T06:04:15Z</time>
      </trkpt>
      <trkpt lat="39.6471530" lon="-0.4302650">
        <ele>176.1</ele>
        <time>2022-11-06T06:04:16Z</time>
      </trkpt>
      <trkpt lat="39.6471910" lon="-0.4302830">
        <ele>176.1</ele>
        <time>2022-11-06T06:04:17Z</time>
      </trkpt>
      <trkpt lat="39.6472360" lon="-0.4303020">
        <ele>176.0</ele>
        <time>2022-11-06T06:04:18Z</time>
      </trkpt>
      <trkpt lat="39.6472740" lon="-0.4303230">
        <ele>176.0</ele>
        <time>2022-11-06T06:04:19Z</time>
      </trkpt>
      <trkpt lat="39.6473170" lon="-0.4303420">
        <ele>175.9</ele>
        <time>2022-11-06T06:04:20Z</time>
      </trkpt>
      <trkpt lat="39.6473540" lon="-0.4303670">
        <ele>175.9</ele>
        <time>2022-11-06T06:04:21Z</time>
      </trkpt>
      <trkpt lat="39.6473540" lon="-0.4303670">
        <ele>175.9</ele>
        <time>2022-11-06T06:04:22Z</time>
      </trkpt>
      <trkpt lat="39.6474610" lon="-0.4304650">
        <ele>175.7</ele>
        <time>2022-11-06T06:04:23Z</time>
      </trkpt>
      <trkpt lat="39.6474610" lon="-0.4304650">
        <ele>175.7</ele>
        <time>2022-11-06T06:04:24Z</time>
      </trkpt>
      <trkpt lat="39.6474910" lon="-0.4305030">
        <ele>175.6</ele>
        <time>2022-11-06T06:04:25Z</time>
      </trkpt>
      <trkpt lat="39.6475260" lon="-0.4305430">
        <ele>175.6</ele>
        <time>2022-11-06T06:04:26Z</time>
      </trkpt>
      <trkpt lat="39.6475550" lon="-0.4305850">
        <ele>175.5</ele>
        <time>2022-11-06T06:04:27Z</time>
      </trkpt>
      <trkpt lat="39.6475880" lon="-0.4306250">
        <ele>175.5</ele>
        <time>2022-11-06T06:04:28Z</time>
      </trkpt>
      <trkpt lat="39.6476140" lon="-0.4306670">
        <ele>175.4</ele>
        <time>2022-11-06T06:04:29Z</time>
      </trkpt>
      <trkpt lat="39.6476440" lon="-0.4307050">
        <ele>175.4</ele>
        <time>2022-11-06T06:04:30Z</time>
      </trkpt>
      <trkpt lat="39.6476730" lon="-0.4307480">
        <ele>175.3</ele>
        <time>2022-11-06T06:04:31Z</time>
      </trkpt>
      <trkpt lat="39.6477000" lon="-0.4307850">
        <ele>175.3</ele>
        <time>2022-11-06T06:04:32Z</time>
      </trkpt>
      <trkpt lat="39.6477000" lon="-0.4307850">
        <ele>175.3</ele>
        <time>2022-11-06T06:04:33Z</time>
      </trkpt>
      <trkpt lat="39.6477000" lon="-0.4307850">
        <ele>175.3</ele>
        <time>2022-11-06T06:04:34Z</time>
      </trkpt>
      <trkpt lat="39.6477860" lon="-0.4309020">
        <ele>175.2</ele>
        <time>2022-11-06T06:04:35Z</time>
      </trkpt>
      <trkpt lat="39.6478130" lon="-0.4309420">
        <ele>175.1</ele>
        <time>2022-11-06T06:04:36Z</time>
      </trkpt>
      <trkpt lat="39.6478420" lon="-0.4309820">
        <ele>175.1</ele>
        <time>2022-11-06T06:04:37Z</time>
      </trkpt>
      <trkpt lat="39.6478690" lon="-0.4310250">
        <ele>175.1</ele>
        <time>2022-11-06T06:04:38Z</time>
      </trkpt>
      <trkpt lat="39.6478960" lon="-0.4310680">
        <ele>175.1</ele>
        <time>2022-11-06T06:04:39Z</time>
      </trkpt>
      <trkpt lat="39.6479250" lon="-0.4311120">
        <ele>175.1</ele>
        <time>2022-11-06T06:04:40Z</time>
      </trkpt>
      <trkpt lat="39.6479520" lon="-0.4311550">
        <ele>175.1</ele>
        <time>2022-11-06T06:04:41Z</time>
      </trkpt>
      <trkpt lat="39.6479790" lon="-0.4311980">
        <ele>175.1</ele>
        <time>2022-11-06T06:04:42Z</time>
      </trkpt>
      <trkpt lat="39.6480330" lon="-0.4312820">
        <ele>175.2</ele>
        <time>2022-11-06T06:04:43Z</time>
      </trkpt>
      <trkpt lat="39.6480570" lon="-0.4313220">
        <ele>175.3</ele>
        <time>2022-11-06T06:04:44Z</time>
      </trkpt>
      <trkpt lat="39.6480570" lon="-0.4313220">
        <ele>175.3</ele>
        <time>2022-11-06T06:04:45Z</time>
      </trkpt>
      <trkpt lat="39.6480860" lon="-0.4313580">
        <ele>175.4</ele>
        <time>2022-11-06T06:04:46Z</time>
      </trkpt>
      <trkpt lat="39.6481160" lon="-0.4313770">
        <ele>175.4</ele>
        <time>2022-11-06T06:04:47Z</time>
      </trkpt>
      <trkpt lat="39.6481560" lon="-0.4313800">
        <ele>175.7</ele>
        <time>2022-11-06T06:04:48Z</time>
      </trkpt>
      <trkpt lat="39.6481880" lon="-0.4313720">
        <ele>175.8</ele>
        <time>2022-11-06T06:04:49Z</time>
      </trkpt>
      <trkpt lat="39.6482230" lon="-0.4313650">
        <ele>175.9</ele>
        <time>2022-11-06T06:04:50Z</time>
      </trkpt>
      <trkpt lat="39.6482580" lon="-0.4313570">
        <ele>176.0</ele>
        <time>2022-11-06T06:04:51Z</time>
      </trkpt>
      <trkpt lat="39.6482880" lon="-0.4313520">
        <ele>176.2</ele>
        <time>2022-11-06T06:04:52Z</time>
      </trkpt>
      <trkpt lat="39.6483200" lon="-0.4313500">
        <ele>176.3</ele>
        <time>2022-11-06T06:04:53Z</time>
      </trkpt>
      <trkpt lat="39.6483760" lon="-0.4313570">
        <ele>176.6</ele>
        <time>2022-11-06T06:04:54Z</time>
      </trkpt>
      <trkpt lat="39.6483760" lon="-0.4313570">
        <ele>176.6</ele>
        <time>2022-11-06T06:04:55Z</time>
      </trkpt>
      <trkpt lat="39.6484030" lon="-0.4313670">
        <ele>176.8</ele>
        <time>2022-11-06T06:04:56Z</time>
      </trkpt>
      <trkpt lat="39.6484270" lon="-0.4313850">
        <ele>176.9</ele>
        <time>2022-11-06T06:04:57Z</time>
      </trkpt>
      <trkpt lat="39.6484540" lon="-0.4314000">
        <ele>177.1</ele>
        <time>2022-11-06T06:04:58Z</time>
      </trkpt>
      <trkpt lat="39.6484810" lon="-0.4314120">
        <ele>177.2</ele>
        <time>2022-11-06T06:04:59Z</time>
      </trkpt>
      <trkpt lat="39.6485050" lon="-0.4314250">
        <ele>177.4</ele>
        <time>2022-11-06T06:05:00Z</time>
      </trkpt>
      <trkpt lat="39.6485320" lon="-0.4314400">
        <ele>177.5</ele>
        <time>2022-11-06T06:05:01Z</time>
      </trkpt>
      <trkpt lat="39.6485640" lon="-0.4314530">
        <ele>177.7</ele>
        <time>2022-11-06T06:05:02Z</time>
      </trkpt>
      <trkpt lat="39.6485640" lon="-0.4314530">
        <ele>177.7</ele>
        <time>2022-11-06T06:05:03Z</time>
      </trkpt>
      <trkpt lat="39.6486470" lon="-0.4314970">
        <ele>178.2</ele>
        <time>2022-11-06T06:05:04Z</time>
      </trkpt>
      <trkpt lat="39.6486820" lon="-0.4315100">
        <ele>178.4</ele>
        <time>2022-11-06T06:05:05Z</time>
      </trkpt>
      <trkpt lat="39.6486820" lon="-0.4315100">
        <ele>178.4</ele>
        <time>2022-11-06T06:05:06Z</time>
      </trkpt>
      <trkpt lat="39.6487090" lon="-0.4315250">
        <ele>178.6</ele>
        <time>2022-11-06T06:05:07Z</time>
      </trkpt>
      <trkpt lat="39.6487360" lon="-0.4315380">
        <ele>178.8</ele>
        <time>2022-11-06T06:05:08Z</time>
      </trkpt>
      <trkpt lat="39.6487650" lon="-0.4315550">
        <ele>179.0</ele>
        <time>2022-11-06T06:05:09Z</time>
      </trkpt>
      <trkpt lat="39.6487920" lon="-0.4315720">
        <ele>179.2</ele>
        <time>2022-11-06T06:05:10Z</time>
      </trkpt>
      <trkpt lat="39.6488190" lon="-0.4315870">
        <ele>179.4</ele>
        <time>2022-11-06T06:05:11Z</time>
      </trkpt>
      <trkpt lat="39.6488450" lon="-0.4316000">
        <ele>179.5</ele>
        <time>2022-11-06T06:05:12Z</time>
      </trkpt>
      <trkpt lat="39.6488750" lon="-0.4316120">
        <ele>179.7</ele>
        <time>2022-11-06T06:05:13Z</time>
      </trkpt>
      <trkpt lat="39.6488750" lon="-0.4316120">
        <ele>179.7</ele>
        <time>2022-11-06T06:05:14Z</time>
      </trkpt>
      <trkpt lat="39.6489640" lon="-0.4316370">
        <ele>180.3</ele>
        <time>2022-11-06T06:05:15Z</time>
      </trkpt>
      <trkpt lat="39.6489640" lon="-0.4316370">
        <ele>180.3</ele>
        <time>2022-11-06T06:05:16Z</time>
      </trkpt>
      <trkpt lat="39.6489960" lon="-0.4316370">
        <ele>180.5</ele>
        <time>2022-11-06T06:05:17Z</time>
      </trkpt>
      <trkpt lat="39.6490250" lon="-0.4316320">
        <ele>180.7</ele>
        <time>2022-11-06T06:05:18Z</time>
      </trkpt>
      <trkpt lat="39.6490520" lon="-0.4316220">
        <ele>180.9</ele>
        <time>2022-11-06T06:05:19Z</time>
      </trkpt>
      <trkpt lat="39.6490790" lon="-0.4316100">
        <ele>181.1</ele>
        <time>2022-11-06T06:05:20Z</time>
      </trkpt>
      <trkpt lat="39.6491060" lon="-0.4315970">
        <ele>181.3</ele>
        <time>2022-11-06T06:05:21Z</time>
      </trkpt>
      <trkpt lat="39.6491270" lon="-0.4315880">
        <ele>181.5</ele>
        <time>2022-11-06T06:05:22Z</time>
      </trkpt>
      <trkpt lat="39.6491460" lon="-0.4315730">
        <ele>181.7</ele>
        <time>2022-11-06T06:05:23Z</time>
      </trkpt>
      <trkpt lat="39.6491890" lon="-0.4315330">
        <ele>182.2</ele>
        <time>2022-11-06T06:05:24Z</time>
      </trkpt>
      <trkpt lat="39.6492130" lon="-0.4315050">
        <ele>182.4</ele>
        <time>2022-11-06T06:05:25Z</time>
      </trkpt>
      <trkpt lat="39.6492320" lon="-0.4314800">
        <ele>182.7</ele>
        <time>2022-11-06T06:05:26Z</time>
      </trkpt>
      <trkpt lat="39.6492320" lon="-0.4314800">
        <ele>182.7</ele>
        <time>2022-11-06T06:05:27Z</time>
      </trkpt>
      <trkpt lat="39.6492510" lon="-0.4314530">
        <ele>182.9</ele>
        <time>2022-11-06T06:05:28Z</time>
      </trkpt>
      <trkpt lat="39.6492690" lon="-0.4314300">
        <ele>183.2</ele>
        <time>2022-11-06T06:05:29Z</time>
      </trkpt>
      <trkpt lat="39.6492880" lon="-0.4314100">
        <ele>183.4</ele>
        <time>2022-11-06T06:05:30Z</time>
      </trkpt>
      <trkpt lat="39.6493120" lon="-0.4313920">
        <ele>183.6</ele>
        <time>2022-11-06T06:05:31Z</time>
      </trkpt>
      <trkpt lat="39.6493340" lon="-0.4313850">
        <ele>184.3</ele>
        <time>2022-11-06T06:05:32Z</time>
      </trkpt>
      <trkpt lat="39.6493580" lon="-0.4313880">
        <ele>184.3</ele>
        <time>2022-11-06T06:05:33Z</time>
      </trkpt>
      <trkpt lat="39.6493790" lon="-0.4314030">
        <ele>184.2</ele>
        <time>2022-11-06T06:05:34Z</time>
      </trkpt>
      <trkpt lat="39.6494170" lon="-0.4314580">
        <ele>184.0</ele>
        <time>2022-11-06T06:05:35Z</time>
      </trkpt>
      <trkpt lat="39.6494330" lon="-0.4314950">
        <ele>183.9</ele>
        <time>2022-11-06T06:05:36Z</time>
      </trkpt>
      <trkpt lat="39.6494330" lon="-0.4314950">
        <ele>183.9</ele>
        <time>2022-11-06T06:05:37Z</time>
      </trkpt>
      <trkpt lat="39.6494520" lon="-0.4315350">
        <ele>183.8</ele>
        <time>2022-11-06T06:05:38Z</time>
      </trkpt>
      <trkpt lat="39.6494700" lon="-0.4315800">
        <ele>183.7</ele>
        <time>2022-11-06T06:05:39Z</time>
      </trkpt>
      <trkpt lat="39.6494890" lon="-0.4316220">
        <ele>183.6</ele>
        <time>2022-11-06T06:05:40Z</time>
      </trkpt>
      <trkpt lat="39.6495130" lon="-0.4316650">
        <ele>183.5</ele>
        <time>2022-11-06T06:05:41Z</time>
      </trkpt>
      <trkpt lat="39.6495320" lon="-0.4317080">
        <ele>183.4</ele>
        <time>2022-11-06T06:05:42Z</time>
      </trkpt>
      <trkpt lat="39.6495560" lon="-0.4317520">
        <ele>183.3</ele>
        <time>2022-11-06T06:05:43Z</time>
      </trkpt>
      <trkpt lat="39.6495560" lon="-0.4317520">
        <ele>183.3</ele>
        <time>2022-11-06T06:05:44Z</time>
      </trkpt>
      <trkpt lat="39.6496150" lon="-0.4318730">
        <ele>183.0</ele>
        <time>2022-11-06T06:05:45Z</time>
      </trkpt>
      <trkpt lat="39.6496340" lon="-0.4319170">
        <ele>182.9</ele>
        <time>2022-11-06T06:05:46Z</time>
      </trkpt>
      <trkpt lat="39.6496580" lon="-0.4319620">
        <ele>182.9</ele>
        <time>2022-11-06T06:05:47Z</time>
      </trkpt>
      <trkpt lat="39.6496580" lon="-0.4319620">
        <ele>182.9</ele>
        <time>2022-11-06T06:05:48Z</time>
      </trkpt>
      <trkpt lat="39.6496770" lon="-0.4320100">
        <ele>182.8</ele>
        <time>2022-11-06T06:05:49Z</time>
      </trkpt>
      <trkpt lat="39.6496960" lon="-0.4320600">
        <ele>182.7</ele>
        <time>2022-11-06T06:05:50Z</time>
      </trkpt>
      <trkpt lat="39.6497200" lon="-0.4321100">
        <ele>182.5</ele>
        <time>2022-11-06T06:05:51Z</time>
      </trkpt>
      <trkpt lat="39.6497390" lon="-0.4321600">
        <ele>182.4</ele>
        <time>2022-11-06T06:05:52Z</time>
      </trkpt>
      <trkpt lat="39.6497600" lon="-0.4322100">
        <ele>182.3</ele>
        <time>2022-11-06T06:05:53Z</time>
      </trkpt>
      <trkpt lat="39.6497840" lon="-0.4322550">
        <ele>182.1</ele>
        <time>2022-11-06T06:05:54Z</time>
      </trkpt>
      <trkpt lat="39.6497840" lon="-0.4322550">
        <ele>182.1</ele>
        <time>2022-11-06T06:05:55Z</time>
      </trkpt>
      <trkpt lat="39.6498590" lon="-0.4324080">
        <ele>181.6</ele>
        <time>2022-11-06T06:05:56Z</time>
      </trkpt>
      <trkpt lat="39.6498920" lon="-0.4324630">
        <ele>181.4</ele>
        <time>2022-11-06T06:05:57Z</time>
      </trkpt>
      <trkpt lat="39.6498920" lon="-0.4324630">
        <ele>181.4</ele>
        <time>2022-11-06T06:05:58Z</time>
      </trkpt>
      <trkpt lat="39.6499260" lon="-0.4325180">
        <ele>181.2</ele>
        <time>2022-11-06T06:05:59Z</time>
      </trkpt>
      <trkpt lat="39.6499640" lon="-0.4325720">
        <ele>181.0</ele>
        <time>2022-11-06T06:06:00Z</time>
      </trkpt>
      <trkpt lat="39.6500020" lon="-0.4326200">
        <ele>180.7</ele>
        <time>2022-11-06T06:06:01Z</time>
      </trkpt>
      <trkpt lat="39.6500470" lon="-0.4326420">
        <ele>180.5</ele>
        <time>2022-11-06T06:06:02Z</time>
      </trkpt>
      <trkpt lat="39.6501010" lon="-0.4326330">
        <ele>180.2</ele>
        <time>2022-11-06T06:06:03Z</time>
      </trkpt>
      <trkpt lat="39.6501490" lon="-0.4326100">
        <ele>179.9</ele>
        <time>2022-11-06T06:06:04Z</time>
      </trkpt>
      <trkpt lat="39.6502380" lon="-0.4325370">
        <ele>179.6</ele>
        <time>2022-11-06T06:06:05Z</time>
      </trkpt>
      <trkpt lat="39.6502700" lon="-0.4324830">
        <ele>179.5</ele>
        <time>2022-11-06T06:06:06Z</time>
      </trkpt>
      <trkpt lat="39.6502910" lon="-0.4324280">
        <ele>179.5</ele>
        <time>2022-11-06T06:06:07Z</time>
      </trkpt>
      <trkpt lat="39.6503180" lon="-0.4323780">
        <ele>179.5</ele>
        <time>2022-11-06T06:06:08Z</time>
      </trkpt>
      <trkpt lat="39.6503180" lon="-0.4323780">
        <ele>179.5</ele>
        <time>2022-11-06T06:06:09Z</time>
      </trkpt>
      <trkpt lat="39.6503450" lon="-0.4323330">
        <ele>179.6</ele>
        <time>2022-11-06T06:06:10Z</time>
      </trkpt>
      <trkpt lat="39.6503740" lon="-0.4322980">
        <ele>179.7</ele>
        <time>2022-11-06T06:06:11Z</time>
      </trkpt>
      <trkpt lat="39.6504090" lon="-0.4322770">
        <ele>179.8</ele>
        <time>2022-11-06T06:06:12Z</time>
      </trkpt>
      <trkpt lat="39.6504360" lon="-0.4322670">
        <ele>179.9</ele>
        <time>2022-11-06T06:06:13Z</time>
      </trkpt>
      <trkpt lat="39.6504710" lon="-0.4322600">
        <ele>180.1</ele>
        <time>2022-11-06T06:06:14Z</time>
      </trkpt>
      <trkpt lat="39.6505000" lon="-0.4322530">
        <ele>180.3</ele>
        <time>2022-11-06T06:06:15Z</time>
      </trkpt>
      <trkpt lat="39.6505590" lon="-0.4322450">
        <ele>180.7</ele>
        <time>2022-11-06T06:06:16Z</time>
      </trkpt>
      <trkpt lat="39.6505890" lon="-0.4322380">
        <ele>180.9</ele>
        <time>2022-11-06T06:06:17Z</time>
      </trkpt>
      <trkpt lat="39.6506180" lon="-0.4322330">
        <ele>181.1</ele>
        <time>2022-11-06T06:06:18Z</time>
      </trkpt>
      <trkpt lat="39.6506180" lon="-0.4322330">
        <ele>181.1</ele>
        <time>2022-11-06T06:06:19Z</time>
      </trkpt>
      <trkpt lat="39.6506430" lon="-0.4322270">
        <ele>181.3</ele>
        <time>2022-11-06T06:06:20Z</time>
      </trkpt>
      <trkpt lat="39.6506690" lon="-0.4322200">
        <ele>181.6</ele>
        <time>2022-11-06T06:06:21Z</time>
      </trkpt>
      <trkpt lat="39.6506960" lon="-0.4322170">
        <ele>181.8</ele>
        <time>2022-11-06T06:06:22Z</time>
      </trkpt>
      <trkpt lat="39.6507230" lon="-0.4322100">
        <ele>182.0</ele>
        <time>2022-11-06T06:06:23Z</time>
      </trkpt>
      <trkpt lat="39.6507530" lon="-0.4322050">
        <ele>182.3</ele>
        <time>2022-11-06T06:06:24Z</time>
      </trkpt>
      <trkpt lat="39.6507790" lon="-0.4322070">
        <ele>182.5</ele>
        <time>2022-11-06T06:06:25Z</time>
      </trkpt>
      <trkpt lat="39.6508300" lon="-0.4321970">
        <ele>183.0</ele>
        <time>2022-11-06T06:06:26Z</time>
      </trkpt>
      <trkpt lat="39.6508490" lon="-0.4321880">
        <ele>183.2</ele>
        <time>2022-11-06T06:06:27Z</time>
      </trkpt>
      <trkpt lat="39.6508710" lon="-0.4321800">
        <ele>183.5</ele>
        <time>2022-11-06T06:06:28Z</time>
      </trkpt>
      <trkpt lat="39.6508870" lon="-0.4321730">
        <ele>183.6</ele>
        <time>2022-11-06T06:06:29Z</time>
      </trkpt>
      <trkpt lat="39.6508870" lon="-0.4321730">
        <ele>183.6</ele>
        <time>2022-11-06T06:06:30Z</time>
      </trkpt>
      <trkpt lat="39.6509050" lon="-0.4321670">
        <ele>183.8</ele>
        <time>2022-11-06T06:06:31Z</time>
      </trkpt>
      <trkpt lat="39.6509240" lon="-0.4321600">
        <ele>184.1</ele>
        <time>2022-11-06T06:06:32Z</time>
      </trkpt>
      <trkpt lat="39.6509430" lon="-0.4321570">
        <ele>184.3</ele>
        <time>2022-11-06T06:06:33Z</time>
      </trkpt>
      <trkpt lat="39.6509620" lon="-0.4321600">
        <ele>184.5</ele>
        <time>2022-11-06T06:06:34Z</time>
      </trkpt>
      <trkpt lat="39.6509830" lon="-0.4321620">
        <ele>184.7</ele>
        <time>2022-11-06T06:06:35Z</time>
      </trkpt>
      <trkpt lat="39.6510020" lon="-0.4321650">
        <ele>185.0</ele>
        <time>2022-11-06T06:06:36Z</time>
      </trkpt>
      <trkpt lat="39.6510420" lon="-0.4321570">
        <ele>185.4</ele>
        <time>2022-11-06T06:06:37Z</time>
      </trkpt>
      <trkpt lat="39.6510580" lon="-0.4321500">
        <ele>185.6</ele>
        <time>2022-11-06T06:06:38Z</time>
      </trkpt>
      <trkpt lat="39.6510800" lon="-0.4321420">
        <ele>185.9</ele>
        <time>2022-11-06T06:06:39Z</time>
      </trkpt>
      <trkpt lat="39.6510800" lon="-0.4321420">
        <ele>185.9</ele>
        <time>2022-11-06T06:06:40Z</time>
      </trkpt>
      <trkpt lat="39.6511070" lon="-0.4321330">
        <ele>186.2</ele>
        <time>2022-11-06T06:06:41Z</time>
      </trkpt>
      <trkpt lat="39.6511310" lon="-0.4321270">
        <ele>186.4</ele>
        <time>2022-11-06T06:06:42Z</time>
      </trkpt>
      <trkpt lat="39.6511580" lon="-0.4321180">
        <ele>186.6</ele>
        <time>2022-11-06T06:06:43Z</time>
      </trkpt>
      <trkpt lat="39.6511870" lon="-0.4321130">
        <ele>186.9</ele>
        <time>2022-11-06T06:06:44Z</time>
      </trkpt>
      <trkpt lat="39.6512190" lon="-0.4321120">
        <ele>187.1</ele>
        <time>2022-11-06T06:06:45Z</time>
      </trkpt>
      <trkpt lat="39.6512190" lon="-0.4321120">
        <ele>187.1</ele>
        <time>2022-11-06T06:06:46Z</time>
      </trkpt>
      <trkpt lat="39.6513100" lon="-0.4321250">
        <ele>187.6</ele>
        <time>2022-11-06T06:06:47Z</time>
      </trkpt>
      <trkpt lat="39.6513400" lon="-0.4321380">
        <ele>187.8</ele>
        <time>2022-11-06T06:06:48Z</time>
      </trkpt>
      <trkpt lat="39.6513670" lon="-0.4321570">
        <ele>187.9</ele>
        <time>2022-11-06T06:06:49Z</time>
      </trkpt>
      <trkpt lat="39.6513910" lon="-0.4321780">
        <ele>188.1</ele>
        <time>2022-11-06T06:06:50Z</time>
      </trkpt>
      <trkpt lat="39.6513910" lon="-0.4321780">
        <ele>188.1</ele>
        <time>2022-11-06T06:06:51Z</time>
      </trkpt>
      <trkpt lat="39.6514120" lon="-0.4322020">
        <ele>188.2</ele>
        <time>2022-11-06T06:06:52Z</time>
      </trkpt>
      <trkpt lat="39.6514370" lon="-0.4322250">
        <ele>188.4</ele>
        <time>2022-11-06T06:06:53Z</time>
      </trkpt>
      <trkpt lat="39.6514580" lon="-0.4322480">
        <ele>188.6</ele>
        <time>2022-11-06T06:06:54Z</time>
      </trkpt>
      <trkpt lat="39.6514770" lon="-0.4322700">
        <ele>188.8</ele>
        <time>2022-11-06T06:06:55Z</time>
      </trkpt>
      <trkpt lat="39.6514980" lon="-0.4322870">
        <ele>188.9</ele>
        <time>2022-11-06T06:06:56Z</time>
      </trkpt>
      <trkpt lat="39.6514980" lon="-0.4322870">
        <ele>188.9</ele>
        <time>2022-11-06T06:06:57Z</time>
      </trkpt>
      <trkpt lat="39.6515460" lon="-0.4323400">
        <ele>189.4</ele>
        <time>2022-11-06T06:06:58Z</time>
      </trkpt>
      <trkpt lat="39.6515630" lon="-0.4323600">
        <ele>189.6</ele>
        <time>2022-11-06T06:06:59Z</time>
      </trkpt>
      <trkpt lat="39.6515810" lon="-0.4323780">
        <ele>189.8</ele>
        <time>2022-11-06T06:07:00Z</time>
      </trkpt>
      <trkpt lat="39.6515810" lon="-0.4323780">
        <ele>189.8</ele>
        <time>2022-11-06T06:07:01Z</time>
      </trkpt>
      <trkpt lat="39.6516000" lon="-0.4323980">
        <ele>190.0</ele>
        <time>2022-11-06T06:07:02Z</time>
      </trkpt>
      <trkpt lat="39.6516160" lon="-0.4324200">
        <ele>190.2</ele>
        <time>2022-11-06T06:07:03Z</time>
      </trkpt>
      <trkpt lat="39.6516350" lon="-0.4324430">
        <ele>190.4</ele>
        <time>2022-11-06T06:07:04Z</time>
      </trkpt>
      <trkpt lat="39.6516540" lon="-0.4324680">
        <ele>190.6</ele>
        <time>2022-11-06T06:07:05Z</time>
      </trkpt>
      <trkpt lat="39.6516730" lon="-0.4324950">
        <ele>190.8</ele>
        <time>2022-11-06T06:07:06Z</time>
      </trkpt>
      <trkpt lat="39.6517020" lon="-0.4325500">
        <ele>191.1</ele>
        <time>2022-11-06T06:07:07Z</time>
      </trkpt>
      <trkpt lat="39.6517180" lon="-0.4325800">
        <ele>191.3</ele>
        <time>2022-11-06T06:07:08Z</time>
      </trkpt>
      <trkpt lat="39.6517290" lon="-0.4326100">
        <ele>191.4</ele>
        <time>2022-11-06T06:07:09Z</time>
      </trkpt>
      <trkpt lat="39.6517420" lon="-0.4326400">
        <ele>191.6</ele>
        <time>2022-11-06T06:07:10Z</time>
      </trkpt>
      <trkpt lat="39.6517480" lon="-0.4326730">
        <ele>191.8</ele>
        <time>2022-11-06T06:07:11Z</time>
      </trkpt>
      <trkpt lat="39.6517480" lon="-0.4326730">
        <ele>191.8</ele>
        <time>2022-11-06T06:07:12Z</time>
      </trkpt>
      <trkpt lat="39.6517640" lon="-0.4327050">
        <ele>191.9</ele>
        <time>2022-11-06T06:07:13Z</time>
      </trkpt>
      <trkpt lat="39.6517800" lon="-0.4327350">
        <ele>192.1</ele>
        <time>2022-11-06T06:07:14Z</time>
      </trkpt>
      <trkpt lat="39.6517910" lon="-0.4327670">
        <ele>192.3</ele>
        <time>2022-11-06T06:07:15Z</time>
      </trkpt>
      <trkpt lat="39.6518070" lon="-0.4327950">
        <ele>192.5</ele>
        <time>2022-11-06T06:07:16Z</time>
      </trkpt>
      <trkpt lat="39.6518200" lon="-0.4328230">
        <ele>192.6</ele>
        <time>2022-11-06T06:07:17Z</time>
      </trkpt>
      <trkpt lat="39.6518520" lon="-0.4328850">
        <ele>193.0</ele>
        <time>2022-11-06T06:07:18Z</time>
      </trkpt>
      <trkpt lat="39.6518630" lon="-0.4329170">
        <ele>193.1</ele>
        <time>2022-11-06T06:07:19Z</time>
      </trkpt>
      <trkpt lat="39.6518790" lon="-0.4329480">
        <ele>193.3</ele>
        <time>2022-11-06T06:07:20Z</time>
      </trkpt>
      <trkpt lat="39.6518920" lon="-0.4329820">
        <ele>193.4</ele>
        <time>2022-11-06T06:07:21Z</time>
      </trkpt>
      <trkpt lat="39.6518920" lon="-0.4329820">
        <ele>193.4</ele>
        <time>2022-11-06T06:07:22Z</time>
      </trkpt>
      <trkpt lat="39.6519090" lon="-0.4330150">
        <ele>193.6</ele>
        <time>2022-11-06T06:07:23Z</time>
      </trkpt>
      <trkpt lat="39.6519250" lon="-0.4330500">
        <ele>193.8</ele>
        <time>2022-11-06T06:07:24Z</time>
      </trkpt>
      <trkpt lat="39.6519430" lon="-0.4330830">
        <ele>194.0</ele>
        <time>2022-11-06T06:07:25Z</time>
      </trkpt>
      <trkpt lat="39.6519600" lon="-0.4331180">
        <ele>194.2</ele>
        <time>2022-11-06T06:07:26Z</time>
      </trkpt>
      <trkpt lat="39.6519600" lon="-0.4331180">
        <ele>194.2</ele>
        <time>2022-11-06T06:07:27Z</time>
      </trkpt>
      <trkpt lat="39.6520130" lon="-0.4332150">
        <ele>194.7</ele>
        <time>2022-11-06T06:07:28Z</time>
      </trkpt>
      <trkpt lat="39.6520320" lon="-0.4332480">
        <ele>194.9</ele>
        <time>2022-11-06T06:07:29Z</time>
      </trkpt>
      <trkpt lat="39.6520510" lon="-0.4332830">
        <ele>195.1</ele>
        <time>2022-11-06T06:07:30Z</time>
      </trkpt>
      <trkpt lat="39.6520700" lon="-0.4333170">
        <ele>195.3</ele>
        <time>2022-11-06T06:07:31Z</time>
      </trkpt>
      <trkpt lat="39.6520880" lon="-0.4333520">
        <ele>195.5</ele>
        <time>2022-11-06T06:07:32Z</time>
      </trkpt>
      <trkpt lat="39.6520880" lon="-0.4333520">
        <ele>195.5</ele>
        <time>2022-11-06T06:07:33Z</time>
      </trkpt>
      <trkpt lat="39.6521100" lon="-0.4333850">
        <ele>195.7</ele>
        <time>2022-11-06T06:07:34Z</time>
      </trkpt>
      <trkpt lat="39.6521340" lon="-0.4334100">
        <ele>195.9</ele>
        <time>2022-11-06T06:07:35Z</time>
      </trkpt>
      <trkpt lat="39.6521580" lon="-0.4334330">
        <ele>196.1</ele>
        <time>2022-11-06T06:07:36Z</time>
      </trkpt>
      <trkpt lat="39.6521850" lon="-0.4334580">
        <ele>196.3</ele>
        <time>2022-11-06T06:07:37Z</time>
      </trkpt>
      <trkpt lat="39.6521850" lon="-0.4334580">
        <ele>196.3</ele>
        <time>2022-11-06T06:07:38Z</time>
      </trkpt>
      <trkpt lat="39.6522630" lon="-0.4335320">
        <ele>197.0</ele>
        <time>2022-11-06T06:07:39Z</time>
      </trkpt>
      <trkpt lat="39.6522890" lon="-0.4335550">
        <ele>197.2</ele>
        <time>2022-11-06T06:07:40Z</time>
      </trkpt>
      <trkpt lat="39.6523160" lon="-0.4335750">
        <ele>197.4</ele>
        <time>2022-11-06T06:07:41Z</time>
      </trkpt>
      <trkpt lat="39.6523480" lon="-0.4335950">
        <ele>197.7</ele>
        <time>2022-11-06T06:07:42Z</time>
      </trkpt>
      <trkpt lat="39.6523480" lon="-0.4335950">
        <ele>197.7</ele>
        <time>2022-11-06T06:07:43Z</time>
      </trkpt>
      <trkpt lat="39.6523750" lon="-0.4336150">
        <ele>198.0</ele>
        <time>2022-11-06T06:07:44Z</time>
      </trkpt>
      <trkpt lat="39.6524020" lon="-0.4336350">
        <ele>198.2</ele>
        <time>2022-11-06T06:07:45Z</time>
      </trkpt>
      <trkpt lat="39.6524290" lon="-0.4336530">
        <ele>198.5</ele>
        <time>2022-11-06T06:07:46Z</time>
      </trkpt>
      <trkpt lat="39.6524500" lon="-0.4336770">
        <ele>198.7</ele>
        <time>2022-11-06T06:07:47Z</time>
      </trkpt>
      <trkpt lat="39.6524930" lon="-0.4337300">
        <ele>199.3</ele>
        <time>2022-11-06T06:07:48Z</time>
      </trkpt>
      <trkpt lat="39.6525120" lon="-0.4337580">
        <ele>199.6</ele>
        <time>2022-11-06T06:07:49Z</time>
      </trkpt>
      <trkpt lat="39.6525280" lon="-0.4337880">
        <ele>199.9</ele>
        <time>2022-11-06T06:07:50Z</time>
      </trkpt>
      <trkpt lat="39.6525470" lon="-0.4338180">
        <ele>200.2</ele>
        <time>2022-11-06T06:07:51Z</time>
      </trkpt>
      <trkpt lat="39.6525580" lon="-0.4338500">
        <ele>200.5</ele>
        <time>2022-11-06T06:07:52Z</time>
      </trkpt>
      <trkpt lat="39.6525740" lon="-0.4338800">
        <ele>200.9</ele>
        <time>2022-11-06T06:07:53Z</time>
      </trkpt>
      <trkpt lat="39.6525740" lon="-0.4338800">
        <ele>200.9</ele>
        <time>2022-11-06T06:07:54Z</time>
      </trkpt>
      <trkpt lat="39.6525870" lon="-0.4339100">
        <ele>201.2</ele>
        <time>2022-11-06T06:07:55Z</time>
      </trkpt>
      <trkpt lat="39.6526010" lon="-0.4339400">
        <ele>201.5</ele>
        <time>2022-11-06T06:07:56Z</time>
      </trkpt>
      <trkpt lat="39.6526110" lon="-0.4339700">
        <ele>201.8</ele>
        <time>2022-11-06T06:07:57Z</time>
      </trkpt>
      <trkpt lat="39.6526220" lon="-0.4340000">
        <ele>202.2</ele>
        <time>2022-11-06T06:07:58Z</time>
      </trkpt>
      <trkpt lat="39.6526460" lon="-0.4340620">
        <ele>202.8</ele>
        <time>2022-11-06T06:07:59Z</time>
      </trkpt>
      <trkpt lat="39.6526520" lon="-0.4340920">
        <ele>203.2</ele>
        <time>2022-11-06T06:08:00Z</time>
      </trkpt>
      <trkpt lat="39.6526650" lon="-0.4341200">
        <ele>203.5</ele>
        <time>2022-11-06T06:08:01Z</time>
      </trkpt>
      <trkpt lat="39.6526760" lon="-0.4341480">
        <ele>203.8</ele>
        <time>2022-11-06T06:08:02Z</time>
      </trkpt>
      <trkpt lat="39.6526860" lon="-0.4341750">
        <ele>204.1</ele>
        <time>2022-11-06T06:08:03Z</time>
      </trkpt>
      <trkpt lat="39.6526860" lon="-0.4341750">
        <ele>204.1</ele>
        <time>2022-11-06T06:08:04Z</time>
      </trkpt>
      <trkpt lat="39.6527000" lon="-0.4342020">
        <ele>204.5</ele>
        <time>2022-11-06T06:08:05Z</time>
      </trkpt>
      <trkpt lat="39.6527130" lon="-0.4342280">
        <ele>204.8</ele>
        <time>2022-11-06T06:08:06Z</time>
      </trkpt>
      <trkpt lat="39.6527240" lon="-0.4342530">
        <ele>205.3</ele>
        <time>2022-11-06T06:08:07Z</time>
      </trkpt>
      <trkpt lat="39.6527450" lon="-0.4342770">
        <ele>205.6</ele>
        <time>2022-11-06T06:08:08Z</time>
      </trkpt>
      <trkpt lat="39.6527780" lon="-0.4343270">
        <ele>206.2</ele>
        <time>2022-11-06T06:08:09Z</time>
      </trkpt>
      <trkpt lat="39.6528020" lon="-0.4343480">
        <ele>206.5</ele>
        <time>2022-11-06T06:08:10Z</time>
      </trkpt>
      <trkpt lat="39.6528230" lon="-0.4343670">
        <ele>206.8</ele>
        <time>2022-11-06T06:08:11Z</time>
      </trkpt>
      <trkpt lat="39.6528470" lon="-0.4343850">
        <ele>207.0</ele>
        <time>2022-11-06T06:08:12Z</time>
      </trkpt>
      <trkpt lat="39.6528710" lon="-0.4344030">
        <ele>207.3</ele>
        <time>2022-11-06T06:08:13Z</time>
      </trkpt>
      <trkpt lat="39.6528930" lon="-0.4344220">
        <ele>207.5</ele>
        <time>2022-11-06T06:08:14Z</time>
      </trkpt>
      <trkpt lat="39.6528930" lon="-0.4344220">
        <ele>207.5</ele>
        <time>2022-11-06T06:08:15Z</time>
      </trkpt>
      <trkpt lat="39.6529200" lon="-0.4344380">
        <ele>207.8</ele>
        <time>2022-11-06T06:08:16Z</time>
      </trkpt>
      <trkpt lat="39.6529440" lon="-0.4344550">
        <ele>208.0</ele>
        <time>2022-11-06T06:08:17Z</time>
      </trkpt>
      <trkpt lat="39.6529680" lon="-0.4344720">
        <ele>208.2</ele>
        <time>2022-11-06T06:08:18Z</time>
      </trkpt>
      <trkpt lat="39.6529680" lon="-0.4344720">
        <ele>208.2</ele>
        <time>2022-11-06T06:08:19Z</time>
      </trkpt>
      <trkpt lat="39.6530430" lon="-0.4345250">
        <ele>208.8</ele>
        <time>2022-11-06T06:08:20Z</time>
      </trkpt>
      <trkpt lat="39.6530650" lon="-0.4345450">
        <ele>209.0</ele>
        <time>2022-11-06T06:08:21Z</time>
      </trkpt>
      <trkpt lat="39.6530890" lon="-0.4345670">
        <ele>209.3</ele>
        <time>2022-11-06T06:08:22Z</time>
      </trkpt>
      <trkpt lat="39.6531080" lon="-0.4345880">
        <ele>209.5</ele>
        <time>2022-11-06T06:08:23Z</time>
      </trkpt>
      <trkpt lat="39.6531260" lon="-0.4346120">
        <ele>209.7</ele>
        <time>2022-11-06T06:08:24Z</time>
      </trkpt>
      <trkpt lat="39.6531260" lon="-0.4346120">
        <ele>209.7</ele>
        <time>2022-11-06T06:08:25Z</time>
      </trkpt>
      <trkpt lat="39.6531450" lon="-0.4346330">
        <ele>210.0</ele>
        <time>2022-11-06T06:08:26Z</time>
      </trkpt>
      <trkpt lat="39.6531610" lon="-0.4346580">
        <ele>210.2</ele>
        <time>2022-11-06T06:08:27Z</time>
      </trkpt>
      <trkpt lat="39.6531720" lon="-0.4346870">
        <ele>210.5</ele>
        <time>2022-11-06T06:08:28Z</time>
      </trkpt>
      <trkpt lat="39.6531720" lon="-0.4346870">
        <ele>210.5</ele>
        <time>2022-11-06T06:08:29Z</time>
      </trkpt>
      <trkpt lat="39.6532150" lon="-0.4347580">
        <ele>211.2</ele>
        <time>2022-11-06T06:08:30Z</time>
      </trkpt>
      <trkpt lat="39.6532260" lon="-0.4347870">
        <ele>211.4</ele>
        <time>2022-11-06T06:08:31Z</time>
      </trkpt>
      <trkpt lat="39.6532390" lon="-0.4348150">
        <ele>211.7</ele>
        <time>2022-11-06T06:08:32Z</time>
      </trkpt>
      <trkpt lat="39.6532520" lon="-0.4348420">
        <ele>212.0</ele>
        <time>2022-11-06T06:08:33Z</time>
      </trkpt>
      <trkpt lat="39.6532660" lon="-0.4348700">
        <ele>212.2</ele>
        <time>2022-11-06T06:08:34Z</time>
      </trkpt>
      <trkpt lat="39.6532790" lon="-0.4349000">
        <ele>212.5</ele>
        <time>2022-11-06T06:08:35Z</time>
      </trkpt>
      <trkpt lat="39.6532790" lon="-0.4349000">
        <ele>212.5</ele>
        <time>2022-11-06T06:08:36Z</time>
      </trkpt>
      <trkpt lat="39.6532870" lon="-0.4349300">
        <ele>212.8</ele>
        <time>2022-11-06T06:08:37Z</time>
      </trkpt>
      <trkpt lat="39.6533010" lon="-0.4349580">
        <ele>213.0</ele>
        <time>2022-11-06T06:08:38Z</time>
      </trkpt>
      <trkpt lat="39.6533170" lon="-0.4349850">
        <ele>213.2</ele>
        <time>2022-11-06T06:08:39Z</time>
      </trkpt>
      <trkpt lat="39.6533460" lon="-0.4350350">
        <ele>213.7</ele>
        <time>2022-11-06T06:08:40Z</time>
      </trkpt>
      <trkpt lat="39.6533620" lon="-0.4350630">
        <ele>213.9</ele>
        <time>2022-11-06T06:08:41Z</time>
      </trkpt>
      <trkpt lat="39.6533780" lon="-0.4350930">
        <ele>214.1</ele>
        <time>2022-11-06T06:08:42Z</time>
      </trkpt>
      <trkpt lat="39.6533920" lon="-0.4351230">
        <ele>214.3</ele>
        <time>2022-11-06T06:08:43Z</time>
      </trkpt>
      <trkpt lat="39.6534080" lon="-0.4351550">
        <ele>214.5</ele>
        <time>2022-11-06T06:08:44Z</time>
      </trkpt>
      <trkpt lat="39.6534240" lon="-0.4351830">
        <ele>214.7</ele>
        <time>2022-11-06T06:08:45Z</time>
      </trkpt>
      <trkpt lat="39.6534240" lon="-0.4351830">
        <ele>214.7</ele>
        <time>2022-11-06T06:08:46Z</time>
      </trkpt>
      <trkpt lat="39.6534350" lon="-0.4352120">
        <ele>214.9</ele>
        <time>2022-11-06T06:08:47Z</time>
      </trkpt>
      <trkpt lat="39.6534510" lon="-0.4352400">
        <ele>215.0</ele>
        <time>2022-11-06T06:08:48Z</time>
      </trkpt>
      <trkpt lat="39.6534620" lon="-0.4352670">
        <ele>215.2</ele>
        <time>2022-11-06T06:08:49Z</time>
      </trkpt>
      <trkpt lat="39.6534830" lon="-0.4353300">
        <ele>215.4</ele>
        <time>2022-11-06T06:08:50Z</time>
      </trkpt>
      <trkpt lat="39.6534960" lon="-0.4353600">
        <ele>215.6</ele>
        <time>2022-11-06T06:08:51Z</time>
      </trkpt>
      <trkpt lat="39.6535070" lon="-0.4353880">
        <ele>215.7</ele>
        <time>2022-11-06T06:08:52Z</time>
      </trkpt>
      <trkpt lat="39.6535180" lon="-0.4354220">
        <ele>215.8</ele>
        <time>2022-11-06T06:08:53Z</time>
      </trkpt>
      <trkpt lat="39.6535310" lon="-0.4354530">
        <ele>215.9</ele>
        <time>2022-11-06T06:08:54Z</time>
      </trkpt>
      <trkpt lat="39.6535420" lon="-0.4354900">
        <ele>216.0</ele>
        <time>2022-11-06T06:08:55Z</time>
      </trkpt>
      <trkpt lat="39.6535530" lon="-0.4355180">
        <ele>216.1</ele>
        <time>2022-11-06T06:08:56Z</time>
      </trkpt>
      <trkpt lat="39.6535530" lon="-0.4355180">
        <ele>216.1</ele>
        <time>2022-11-06T06:08:57Z</time>
      </trkpt>
      <trkpt lat="39.6535630" lon="-0.4355550">
        <ele>216.1</ele>
        <time>2022-11-06T06:08:58Z</time>
      </trkpt>
      <trkpt lat="39.6535820" lon="-0.4355900">
        <ele>216.2</ele>
        <time>2022-11-06T06:08:59Z</time>
      </trkpt>
      <trkpt lat="39.6536040" lon="-0.4356270">
        <ele>216.2</ele>
        <time>2022-11-06T06:09:00Z</time>
      </trkpt>
      <trkpt lat="39.6536520" lon="-0.4356970">
        <ele>216.3</ele>
        <time>2022-11-06T06:09:01Z</time>
      </trkpt>
      <trkpt lat="39.6536790" lon="-0.4357280">
        <ele>216.3</ele>
        <time>2022-11-06T06:09:02Z</time>
      </trkpt>
      <trkpt lat="39.6537060" lon="-0.4357580">
        <ele>216.3</ele>
        <time>2022-11-06T06:09:03Z</time>
      </trkpt>
      <trkpt lat="39.6537320" lon="-0.4357920">
        <ele>216.4</ele>
        <time>2022-11-06T06:09:04Z</time>
      </trkpt>
      <trkpt lat="39.6537590" lon="-0.4358170">
        <ele>216.4</ele>
        <time>2022-11-06T06:09:05Z</time>
      </trkpt>
      <trkpt lat="39.6537890" lon="-0.4358420">
        <ele>216.5</ele>
        <time>2022-11-06T06:09:06Z</time>
      </trkpt>
      <trkpt lat="39.6537890" lon="-0.4358420">
        <ele>216.5</ele>
        <time>2022-11-06T06:09:07Z</time>
      </trkpt>
      <trkpt lat="39.6538160" lon="-0.4358620">
        <ele>216.5</ele>
        <time>2022-11-06T06:09:08Z</time>
      </trkpt>
      <trkpt lat="39.6538480" lon="-0.4358830">
        <ele>216.6</ele>
        <time>2022-11-06T06:09:09Z</time>
      </trkpt>
      <trkpt lat="39.6538480" lon="-0.4358830">
        <ele>216.6</ele>
        <time>2022-11-06T06:09:10Z</time>
      </trkpt>
      <trkpt lat="39.6539260" lon="-0.4359350">
        <ele>217.0</ele>
        <time>2022-11-06T06:09:11Z</time>
      </trkpt>
      <trkpt lat="39.6539520" lon="-0.4359500">
        <ele>217.2</ele>
        <time>2022-11-06T06:09:12Z</time>
      </trkpt>
      <trkpt lat="39.6539770" lon="-0.4359630">
        <ele>217.3</ele>
        <time>2022-11-06T06:09:13Z</time>
      </trkpt>
      <trkpt lat="39.6540030" lon="-0.4359750">
        <ele>217.5</ele>
        <time>2022-11-06T06:09:14Z</time>
      </trkpt>
      <trkpt lat="39.6540300" lon="-0.4359880">
        <ele>217.8</ele>
        <time>2022-11-06T06:09:15Z</time>
      </trkpt>
      <trkpt lat="39.6540520" lon="-0.4360000">
        <ele>218.0</ele>
        <time>2022-11-06T06:09:16Z</time>
      </trkpt>
      <trkpt lat="39.6540760" lon="-0.4360150">
        <ele>218.2</ele>
        <time>2022-11-06T06:09:17Z</time>
      </trkpt>
      <trkpt lat="39.6540760" lon="-0.4360150">
        <ele>218.2</ele>
        <time>2022-11-06T06:09:18Z</time>
      </trkpt>
      <trkpt lat="39.6540970" lon="-0.4360280">
        <ele>218.4</ele>
        <time>2022-11-06T06:09:19Z</time>
      </trkpt>
      <trkpt lat="39.6541210" lon="-0.4360420">
        <ele>218.6</ele>
        <time>2022-11-06T06:09:20Z</time>
      </trkpt>
      <trkpt lat="39.6541210" lon="-0.4360420">
        <ele>218.6</ele>
        <time>2022-11-06T06:09:21Z</time>
      </trkpt>
      <trkpt lat="39.6541910" lon="-0.4360800">
        <ele>219.4</ele>
        <time>2022-11-06T06:09:22Z</time>
      </trkpt>
      <trkpt lat="39.6542100" lon="-0.4360920">
        <ele>219.6</ele>
        <time>2022-11-06T06:09:23Z</time>
      </trkpt>
      <trkpt lat="39.6542290" lon="-0.4361030">
        <ele>219.8</ele>
        <time>2022-11-06T06:09:24Z</time>
      </trkpt>
      <trkpt lat="39.6542470" lon="-0.4361130">
        <ele>220.1</ele>
        <time>2022-11-06T06:09:25Z</time>
      </trkpt>
      <trkpt lat="39.6542690" lon="-0.4361230">
        <ele>220.3</ele>
        <time>2022-11-06T06:09:26Z</time>
      </trkpt>
      <trkpt lat="39.6542900" lon="-0.4361370">
        <ele>220.6</ele>
        <time>2022-11-06T06:09:27Z</time>
      </trkpt>
      <trkpt lat="39.6542900" lon="-0.4361370">
        <ele>220.6</ele>
        <time>2022-11-06T06:09:28Z</time>
      </trkpt>
      <trkpt lat="39.6543120" lon="-0.4361500">
        <ele>220.8</ele>
        <time>2022-11-06T06:09:29Z</time>
      </trkpt>
      <trkpt lat="39.6543360" lon="-0.4361650">
        <ele>221.1</ele>
        <time>2022-11-06T06:09:30Z</time>
      </trkpt>
      <trkpt lat="39.6543760" lon="-0.4362050">
        <ele>221.6</ele>
        <time>2022-11-06T06:09:31Z</time>
      </trkpt>
      <trkpt lat="39.6544000" lon="-0.4362250">
        <ele>221.9</ele>
        <time>2022-11-06T06:09:32Z</time>
      </trkpt>
      <trkpt lat="39.6544220" lon="-0.4362500">
        <ele>222.1</ele>
        <time>2022-11-06T06:09:33Z</time>
      </trkpt>
      <trkpt lat="39.6544460" lon="-0.4362730">
        <ele>222.3</ele>
        <time>2022-11-06T06:09:34Z</time>
      </trkpt>
      <trkpt lat="39.6544670" lon="-0.4363000">
        <ele>222.5</ele>
        <time>2022-11-06T06:09:35Z</time>
      </trkpt>
      <trkpt lat="39.6544920" lon="-0.4363250">
        <ele>222.7</ele>
        <time>2022-11-06T06:09:36Z</time>
      </trkpt>
      <trkpt lat="39.6545080" lon="-0.4363530">
        <ele>222.8</ele>
        <time>2022-11-06T06:09:37Z</time>
      </trkpt>
      <trkpt lat="39.6545340" lon="-0.4363820">
        <ele>223.0</ele>
        <time>2022-11-06T06:09:38Z</time>
      </trkpt>
      <trkpt lat="39.6545340" lon="-0.4363820">
        <ele>223.0</ele>
        <time>2022-11-06T06:09:39Z</time>
      </trkpt>
      <trkpt lat="39.6545530" lon="-0.4364130">
        <ele>223.1</ele>
        <time>2022-11-06T06:09:40Z</time>
      </trkpt>
      <trkpt lat="39.6545720" lon="-0.4364450">
        <ele>223.1</ele>
        <time>2022-11-06T06:09:41Z</time>
      </trkpt>
      <trkpt lat="39.6546100" lon="-0.4364830">
        <ele>223.2</ele>
        <time>2022-11-06T06:09:42Z</time>
      </trkpt>
      <trkpt lat="39.6546280" lon="-0.4365170">
        <ele>223.3</ele>
        <time>2022-11-06T06:09:43Z</time>
      </trkpt>
      <trkpt lat="39.6546520" lon="-0.4365420">
        <ele>223.3</ele>
        <time>2022-11-06T06:09:44Z</time>
      </trkpt>
      <trkpt lat="39.6546710" lon="-0.4365770">
        <ele>223.4</ele>
        <time>2022-11-06T06:09:45Z</time>
      </trkpt>
      <trkpt lat="39.6546900" lon="-0.4366050">
        <ele>223.4</ele>
        <time>2022-11-06T06:09:46Z</time>
      </trkpt>
      <trkpt lat="39.6547090" lon="-0.4366280">
        <ele>223.5</ele>
        <time>2022-11-06T06:09:47Z</time>
      </trkpt>
      <trkpt lat="39.6547330" lon="-0.4366600">
        <ele>223.5</ele>
        <time>2022-11-06T06:09:48Z</time>
      </trkpt>
      <trkpt lat="39.6547330" lon="-0.4366600">
        <ele>223.5</ele>
        <time>2022-11-06T06:09:49Z</time>
      </trkpt>
      <trkpt lat="39.6547520" lon="-0.4366750">
        <ele>223.6</ele>
        <time>2022-11-06T06:09:50Z</time>
      </trkpt>
      <trkpt lat="39.6547520" lon="-0.4366750">
        <ele>223.6</ele>
        <time>2022-11-06T06:09:51Z</time>
      </trkpt>
      <trkpt lat="39.6548080" lon="-0.4367800">
        <ele>223.7</ele>
        <time>2022-11-06T06:09:52Z</time>
      </trkpt>
      <trkpt lat="39.6548320" lon="-0.4368170">
        <ele>223.7</ele>
        <time>2022-11-06T06:09:53Z</time>
      </trkpt>
      <trkpt lat="39.6548540" lon="-0.4368550">
        <ele>223.8</ele>
        <time>2022-11-06T06:09:54Z</time>
      </trkpt>
      <trkpt lat="39.6548800" lon="-0.4368920">
        <ele>223.8</ele>
        <time>2022-11-06T06:09:55Z</time>
      </trkpt>
      <trkpt lat="39.6549050" lon="-0.4369220">
        <ele>223.8</ele>
        <time>2022-11-06T06:09:56Z</time>
      </trkpt>
      <trkpt lat="39.6549310" lon="-0.4369520">
        <ele>223.9</ele>
        <time>2022-11-06T06:09:57Z</time>
      </trkpt>
      <trkpt lat="39.6549610" lon="-0.4369780">
        <ele>224.0</ele>
        <time>2022-11-06T06:09:58Z</time>
      </trkpt>
      <trkpt lat="39.6549900" lon="-0.4370030">
        <ele>224.0</ele>
        <time>2022-11-06T06:09:59Z</time>
      </trkpt>
      <trkpt lat="39.6549900" lon="-0.4370030">
        <ele>224.0</ele>
        <time>2022-11-06T06:10:00Z</time>
      </trkpt>
      <trkpt lat="39.6550230" lon="-0.4370230">
        <ele>224.1</ele>
        <time>2022-11-06T06:10:01Z</time>
      </trkpt>
      <trkpt lat="39.6550230" lon="-0.4370230">
        <ele>224.1</ele>
        <time>2022-11-06T06:10:02Z</time>
      </trkpt>
      <trkpt lat="39.6551080" lon="-0.4371070">
        <ele>224.4</ele>
        <time>2022-11-06T06:10:03Z</time>
      </trkpt>
      <trkpt lat="39.6551410" lon="-0.4371400">
        <ele>224.5</ele>
        <time>2022-11-06T06:10:04Z</time>
      </trkpt>
      <trkpt lat="39.6551760" lon="-0.4371680">
        <ele>224.6</ele>
        <time>2022-11-06T06:10:05Z</time>
      </trkpt>
      <trkpt lat="39.6552000" lon="-0.4371950">
        <ele>224.7</ele>
        <time>2022-11-06T06:10:06Z</time>
      </trkpt>
      <trkpt lat="39.6552260" lon="-0.4372200">
        <ele>224.8</ele>
        <time>2022-11-06T06:10:07Z</time>
      </trkpt>
      <trkpt lat="39.6552530" lon="-0.4372500">
        <ele>224.9</ele>
        <time>2022-11-06T06:10:08Z</time>
      </trkpt>
      <trkpt lat="39.6552770" lon="-0.4372820">
        <ele>225.0</ele>
        <time>2022-11-06T06:10:09Z</time>
      </trkpt>
      <trkpt lat="39.6552770" lon="-0.4372820">
        <ele>225.0</ele>
        <time>2022-11-06T06:10:10Z</time>
      </trkpt>
      <trkpt lat="39.6553040" lon="-0.4373130">
        <ele>225.1</ele>
        <time>2022-11-06T06:10:11Z</time>
      </trkpt>
      <trkpt lat="39.6553530" lon="-0.4373730">
        <ele>225.4</ele>
        <time>2022-11-06T06:10:12Z</time>
      </trkpt>
      <trkpt lat="39.6553790" lon="-0.4374030">
        <ele>225.5</ele>
        <time>2022-11-06T06:10:13Z</time>
      </trkpt>
      <trkpt lat="39.6554030" lon="-0.4374370">
        <ele>225.7</ele>
        <time>2022-11-06T06:10:14Z</time>
      </trkpt>
      <trkpt lat="39.6554300" lon="-0.4374650">
        <ele>225.8</ele>
        <time>2022-11-06T06:10:15Z</time>
      </trkpt>
      <trkpt lat="39.6554520" lon="-0.4374970">
        <ele>225.9</ele>
        <time>2022-11-06T06:10:16Z</time>
      </trkpt>
      <trkpt lat="39.6554790" lon="-0.4375280">
        <ele>226.0</ele>
        <time>2022-11-06T06:10:17Z</time>
      </trkpt>
      <trkpt lat="39.6555030" lon="-0.4375620">
        <ele>226.2</ele>
        <time>2022-11-06T06:10:18Z</time>
      </trkpt>
      <trkpt lat="39.6555240" lon="-0.4375950">
        <ele>226.3</ele>
        <time>2022-11-06T06:10:19Z</time>
      </trkpt>
      <trkpt lat="39.6555480" lon="-0.4376280">
        <ele>226.4</ele>
        <time>2022-11-06T06:10:20Z</time>
      </trkpt>
      <trkpt lat="39.6555480" lon="-0.4376280">
        <ele>226.4</ele>
        <time>2022-11-06T06:10:21Z</time>
      </trkpt>
      <trkpt lat="39.6555700" lon="-0.4376620">
        <ele>226.5</ele>
        <time>2022-11-06T06:10:22Z</time>
      </trkpt>
      <trkpt lat="39.6556130" lon="-0.4377320">
        <ele>226.8</ele>
        <time>2022-11-06T06:10:23Z</time>
      </trkpt>
      <trkpt lat="39.6556310" lon="-0.4377650">
        <ele>226.9</ele>
        <time>2022-11-06T06:10:24Z</time>
      </trkpt>
      <trkpt lat="39.6556560" lon="-0.4377970">
        <ele>227.0</ele>
        <time>2022-11-06T06:10:25Z</time>
      </trkpt>
      <trkpt lat="39.6556770" lon="-0.4378300">
        <ele>227.1</ele>
        <time>2022-11-06T06:10:26Z</time>
      </trkpt>
      <trkpt lat="39.6556960" lon="-0.4378620">
        <ele>227.2</ele>
        <time>2022-11-06T06:10:27Z</time>
      </trkpt>
      <trkpt lat="39.6557200" lon="-0.4378970">
        <ele>227.2</ele>
        <time>2022-11-06T06:10:28Z</time>
      </trkpt>
      <trkpt lat="39.6557470" lon="-0.4379320">
        <ele>227.3</ele>
        <time>2022-11-06T06:10:29Z</time>
      </trkpt>
      <trkpt lat="39.6557680" lon="-0.4379650">
        <ele>227.4</ele>
        <time>2022-11-06T06:10:30Z</time>
      </trkpt>
      <trkpt lat="39.6557680" lon="-0.4379650">
        <ele>227.4</ele>
        <time>2022-11-06T06:10:31Z</time>
      </trkpt>
      <trkpt lat="39.6557950" lon="-0.4379970">
        <ele>227.5</ele>
        <time>2022-11-06T06:10:32Z</time>
      </trkpt>
      <trkpt lat="39.6558490" lon="-0.4380620">
        <ele>227.5</ele>
        <time>2022-11-06T06:10:33Z</time>
      </trkpt>
      <trkpt lat="39.6558760" lon="-0.4380930">
        <ele>227.6</ele>
        <time>2022-11-06T06:10:34Z</time>
      </trkpt>
      <trkpt lat="39.6559080" lon="-0.4381300">
        <ele>227.6</ele>
        <time>2022-11-06T06:10:35Z</time>
      </trkpt>
      <trkpt lat="39.6559350" lon="-0.4381650">
        <ele>227.6</ele>
        <time>2022-11-06T06:10:36Z</time>
      </trkpt>
      <trkpt lat="39.6559610" lon="-0.4382020">
        <ele>227.6</ele>
        <time>2022-11-06T06:10:37Z</time>
      </trkpt>
      <trkpt lat="39.6559860" lon="-0.4382370">
        <ele>227.6</ele>
        <time>2022-11-06T06:10:38Z</time>
      </trkpt>
      <trkpt lat="39.6560120" lon="-0.4382720">
        <ele>227.6</ele>
        <time>2022-11-06T06:10:39Z</time>
      </trkpt>
      <trkpt lat="39.6560390" lon="-0.4383070">
        <ele>227.6</ele>
        <time>2022-11-06T06:10:40Z</time>
      </trkpt>
      <trkpt lat="39.6560710" lon="-0.4383430">
        <ele>227.6</ele>
        <time>2022-11-06T06:10:41Z</time>
      </trkpt>
      <trkpt lat="39.6560710" lon="-0.4383430">
        <ele>227.6</ele>
        <time>2022-11-06T06:10:42Z</time>
      </trkpt>
      <trkpt lat="39.6560710" lon="-0.4383430">
        <ele>227.6</ele>
        <time>2022-11-06T06:10:43Z</time>
      </trkpt>
      <trkpt lat="39.6561460" lon="-0.4384400">
        <ele>227.7</ele>
        <time>2022-11-06T06:10:44Z</time>
      </trkpt>
      <trkpt lat="39.6561730" lon="-0.4384750">
        <ele>227.8</ele>
        <time>2022-11-06T06:10:45Z</time>
      </trkpt>
      <trkpt lat="39.6562000" lon="-0.4385100">
        <ele>227.8</ele>
        <time>2022-11-06T06:10:46Z</time>
      </trkpt>
      <trkpt lat="39.6562300" lon="-0.4385470">
        <ele>227.9</ele>
        <time>2022-11-06T06:10:47Z</time>
      </trkpt>
      <trkpt lat="39.6562560" lon="-0.4385780">
        <ele>227.9</ele>
        <time>2022-11-06T06:10:48Z</time>
      </trkpt>
      <trkpt lat="39.6562830" lon="-0.4386150">
        <ele>228.0</ele>
        <time>2022-11-06T06:10:49Z</time>
      </trkpt>
      <trkpt lat="39.6563150" lon="-0.4386470">
        <ele>228.1</ele>
        <time>2022-11-06T06:10:50Z</time>
      </trkpt>
      <trkpt lat="39.6563450" lon="-0.4386770">
        <ele>228.2</ele>
        <time>2022-11-06T06:10:51Z</time>
      </trkpt>
      <trkpt lat="39.6563450" lon="-0.4386770">
        <ele>228.2</ele>
        <time>2022-11-06T06:10:52Z</time>
      </trkpt>
      <trkpt lat="39.6563450" lon="-0.4386770">
        <ele>228.2</ele>
        <time>2022-11-06T06:10:53Z</time>
      </trkpt>
      <trkpt lat="39.6564330" lon="-0.4387730">
        <ele>228.4</ele>
        <time>2022-11-06T06:10:54Z</time>
      </trkpt>
      <trkpt lat="39.6564600" lon="-0.4388080">
        <ele>228.5</ele>
        <time>2022-11-06T06:10:55Z</time>
      </trkpt>
      <trkpt lat="39.6564900" lon="-0.4388420">
        <ele>228.5</ele>
        <time>2022-11-06T06:10:56Z</time>
      </trkpt>
      <trkpt lat="39.6565170" lon="-0.4388750">
        <ele>228.6</ele>
        <time>2022-11-06T06:10:57Z</time>
      </trkpt>
      <trkpt lat="39.6565430" lon="-0.4389080">
        <ele>228.7</ele>
        <time>2022-11-06T06:10:58Z</time>
      </trkpt>
      <trkpt lat="39.6565680" lon="-0.4389450">
        <ele>228.8</ele>
        <time>2022-11-06T06:10:59Z</time>
      </trkpt>
      <trkpt lat="39.6565890" lon="-0.4389800">
        <ele>228.9</ele>
        <time>2022-11-06T06:11:00Z</time>
      </trkpt>
      <trkpt lat="39.6566130" lon="-0.4390130">
        <ele>228.9</ele>
        <time>2022-11-06T06:11:01Z</time>
      </trkpt>
      <trkpt lat="39.6566320" lon="-0.4390480">
        <ele>229.0</ele>
        <time>2022-11-06T06:11:02Z</time>
      </trkpt>
      <trkpt lat="39.6566320" lon="-0.4390480">
        <ele>229.0</ele>
        <time>2022-11-06T06:11:03Z</time>
      </trkpt>
      <trkpt lat="39.6566800" lon="-0.4391200">
        <ele>229.2</ele>
        <time>2022-11-06T06:11:04Z</time>
      </trkpt>
      <trkpt lat="39.6567040" lon="-0.4391530">
        <ele>229.2</ele>
        <time>2022-11-06T06:11:05Z</time>
      </trkpt>
      <trkpt lat="39.6567260" lon="-0.4391900">
        <ele>229.3</ele>
        <time>2022-11-06T06:11:06Z</time>
      </trkpt>
      <trkpt lat="39.6567500" lon="-0.4392300">
        <ele>229.4</ele>
        <time>2022-11-06T06:11:07Z</time>
      </trkpt>
      <trkpt lat="39.6567710" lon="-0.4392800">
        <ele>229.4</ele>
        <time>2022-11-06T06:11:08Z</time>
      </trkpt>
      <trkpt lat="39.6567850" lon="-0.4393330">
        <ele>229.4</ele>
        <time>2022-11-06T06:11:09Z</time>
      </trkpt>
      <trkpt lat="39.6567930" lon="-0.4393820">
        <ele>229.4</ele>
        <time>2022-11-06T06:11:10Z</time>
      </trkpt>
      <trkpt lat="39.6567850" lon="-0.4394350">
        <ele>229.4</ele>
        <time>2022-11-06T06:11:11Z</time>
      </trkpt>
      <trkpt lat="39.6567710" lon="-0.4394850">
        <ele>229.4</ele>
        <time>2022-11-06T06:11:12Z</time>
      </trkpt>
      <trkpt lat="39.6567710" lon="-0.4394850">
        <ele>229.4</ele>
        <time>2022-11-06T06:11:13Z</time>
      </trkpt>
      <trkpt lat="39.6567450" lon="-0.4395850">
        <ele>229.4</ele>
        <time>2022-11-06T06:11:14Z</time>
      </trkpt>
      <trkpt lat="39.6567340" lon="-0.4396320">
        <ele>229.4</ele>
        <time>2022-11-06T06:11:15Z</time>
      </trkpt>
      <trkpt lat="39.6567200" lon="-0.4396750">
        <ele>229.4</ele>
        <time>2022-11-06T06:11:16Z</time>
      </trkpt>
      <trkpt lat="39.6567040" lon="-0.4397170">
        <ele>229.5</ele>
        <time>2022-11-06T06:11:17Z</time>
      </trkpt>
      <trkpt lat="39.6566940" lon="-0.4397580">
        <ele>229.5</ele>
        <time>2022-11-06T06:11:18Z</time>
      </trkpt>
      <trkpt lat="39.6566800" lon="-0.4398000">
        <ele>229.6</ele>
        <time>2022-11-06T06:11:19Z</time>
      </trkpt>
      <trkpt lat="39.6566690" lon="-0.4398400">
        <ele>229.7</ele>
        <time>2022-11-06T06:11:20Z</time>
      </trkpt>
      <trkpt lat="39.6566530" lon="-0.4398830">
        <ele>229.8</ele>
        <time>2022-11-06T06:11:21Z</time>
      </trkpt>
      <trkpt lat="39.6566430" lon="-0.4399270">
        <ele>229.9</ele>
        <time>2022-11-06T06:11:22Z</time>
      </trkpt>
      <trkpt lat="39.6566320" lon="-0.4399670">
        <ele>230.1</ele>
        <time>2022-11-06T06:11:23Z</time>
      </trkpt>
      <trkpt lat="39.6566320" lon="-0.4399670">
        <ele>230.1</ele>
        <time>2022-11-06T06:11:24Z</time>
      </trkpt>
      <trkpt lat="39.6566080" lon="-0.4400500">
        <ele>230.4</ele>
        <time>2022-11-06T06:11:25Z</time>
      </trkpt>
      <trkpt lat="39.6565940" lon="-0.4400900">
        <ele>230.5</ele>
        <time>2022-11-06T06:11:26Z</time>
      </trkpt>
      <trkpt lat="39.6565810" lon="-0.4401300">
        <ele>230.7</ele>
        <time>2022-11-06T06:11:27Z</time>
      </trkpt>
      <trkpt lat="39.6565700" lon="-0.4401700">
        <ele>230.8</ele>
        <time>2022-11-06T06:11:28Z</time>
      </trkpt>
      <trkpt lat="39.6565600" lon="-0.4402120">
        <ele>231.0</ele>
        <time>2022-11-06T06:11:29Z</time>
      </trkpt>
      <trkpt lat="39.6565490" lon="-0.4402500">
        <ele>231.1</ele>
        <time>2022-11-06T06:11:30Z</time>
      </trkpt>
      <trkpt lat="39.6565410" lon="-0.4402930">
        <ele>231.2</ele>
        <time>2022-11-06T06:11:31Z</time>
      </trkpt>
      <trkpt lat="39.6565270" lon="-0.4403350">
        <ele>231.3</ele>
        <time>2022-11-06T06:11:32Z</time>
      </trkpt>
      <trkpt lat="39.6565270" lon="-0.4403350">
        <ele>231.3</ele>
        <time>2022-11-06T06:11:33Z</time>
      </trkpt>
      <trkpt lat="39.6565270" lon="-0.4403350">
        <ele>231.3</ele>
        <time>2022-11-06T06:11:34Z</time>
      </trkpt>
      <trkpt lat="39.6564950" lon="-0.4404680">
        <ele>231.7</ele>
        <time>2022-11-06T06:11:35Z</time>
      </trkpt>
      <trkpt lat="39.6564760" lon="-0.4405130">
        <ele>231.8</ele>
        <time>2022-11-06T06:11:36Z</time>
      </trkpt>
      <trkpt lat="39.6564600" lon="-0.4405580">
        <ele>231.9</ele>
        <time>2022-11-06T06:11:37Z</time>
      </trkpt>
      <trkpt lat="39.6564440" lon="-0.4406050">
        <ele>231.9</ele>
        <time>2022-11-06T06:11:38Z</time>
      </trkpt>
      <trkpt lat="39.6564250" lon="-0.4406500">
        <ele>232.0</ele>
        <time>2022-11-06T06:11:39Z</time>
      </trkpt>
      <trkpt lat="39.6564070" lon="-0.4406970">
        <ele>232.0</ele>
        <time>2022-11-06T06:11:40Z</time>
      </trkpt>
      <trkpt lat="39.6563830" lon="-0.4407430">
        <ele>232.0</ele>
        <time>2022-11-06T06:11:41Z</time>
      </trkpt>
      <trkpt lat="39.6563640" lon="-0.4407870">
        <ele>232.0</ele>
        <time>2022-11-06T06:11:42Z</time>
      </trkpt>
      <trkpt lat="39.6563340" lon="-0.4408300">
        <ele>232.0</ele>
        <time>2022-11-06T06:11:43Z</time>
      </trkpt>
      <trkpt lat="39.6563340" lon="-0.4408300">
        <ele>232.0</ele>
        <time>2022-11-06T06:11:44Z</time>
      </trkpt>
      <trkpt lat="39.6563340" lon="-0.4408300">
        <ele>232.0</ele>
        <time>2022-11-06T06:11:45Z</time>
      </trkpt>
      <trkpt lat="39.6562540" lon="-0.4409630">
        <ele>231.9</ele>
        <time>2022-11-06T06:11:46Z</time>
      </trkpt>
      <trkpt lat="39.6562270" lon="-0.4410080">
        <ele>231.9</ele>
        <time>2022-11-06T06:11:47Z</time>
      </trkpt>
      <trkpt lat="39.6562000" lon="-0.4410520">
        <ele>231.9</ele>
        <time>2022-11-06T06:11:48Z</time>
      </trkpt>
      <trkpt lat="39.6561790" lon="-0.4410930">
        <ele>231.9</ele>
        <time>2022-11-06T06:11:49Z</time>
      </trkpt>
      <trkpt lat="39.6561520" lon="-0.4411320">
        <ele>232.0</ele>
        <time>2022-11-06T06:11:50Z</time>
      </trkpt>
      <trkpt lat="39.6561250" lon="-0.4411670">
        <ele>232.1</ele>
        <time>2022-11-06T06:11:51Z</time>
      </trkpt>
      <trkpt lat="39.6561060" lon="-0.4412000">
        <ele>232.1</ele>
        <time>2022-11-06T06:11:52Z</time>
      </trkpt>
      <trkpt lat="39.6560820" lon="-0.4412380">
        <ele>232.2</ele>
        <time>2022-11-06T06:11:53Z</time>
      </trkpt>
      <trkpt lat="39.6560820" lon="-0.4412380">
        <ele>232.2</ele>
        <time>2022-11-06T06:11:54Z</time>
      </trkpt>
      <trkpt lat="39.6560450" lon="-0.4413020">
        <ele>232.5</ele>
        <time>2022-11-06T06:11:55Z</time>
      </trkpt>
      <trkpt lat="39.6560260" lon="-0.4413320">
        <ele>232.6</ele>
        <time>2022-11-06T06:11:56Z</time>
      </trkpt>
      <trkpt lat="39.6560070" lon="-0.4413600">
        <ele>232.8</ele>
        <time>2022-11-06T06:11:57Z</time>
      </trkpt>
      <trkpt lat="39.6559860" lon="-0.4413900">
        <ele>233.0</ele>
        <time>2022-11-06T06:11:58Z</time>
      </trkpt>
      <trkpt lat="39.6559720" lon="-0.4414200">
        <ele>233.1</ele>
        <time>2022-11-06T06:11:59Z</time>
      </trkpt>
      <trkpt lat="39.6559560" lon="-0.4414500">
        <ele>233.3</ele>
        <time>2022-11-06T06:12:00Z</time>
      </trkpt>
      <trkpt lat="39.6559400" lon="-0.4414730">
        <ele>233.5</ele>
        <time>2022-11-06T06:12:01Z</time>
      </trkpt>
      <trkpt lat="39.6559210" lon="-0.4415000">
        <ele>233.7</ele>
        <time>2022-11-06T06:12:02Z</time>
      </trkpt>
      <trkpt lat="39.6559080" lon="-0.4415280">
        <ele>233.9</ele>
        <time>2022-11-06T06:12:03Z</time>
      </trkpt>
      <trkpt lat="39.6558860" lon="-0.4415580">
        <ele>234.2</ele>
        <time>2022-11-06T06:12:04Z</time>
      </trkpt>
      <trkpt lat="39.6558860" lon="-0.4415580">
        <ele>234.2</ele>
        <time>2022-11-06T06:12:05Z</time>
      </trkpt>
      <trkpt lat="39.6558540" lon="-0.4416100">
        <ele>234.6</ele>
        <time>2022-11-06T06:12:06Z</time>
      </trkpt>
      <trkpt lat="39.6558350" lon="-0.4416380">
        <ele>234.9</ele>
        <time>2022-11-06T06:12:07Z</time>
      </trkpt>
      <trkpt lat="39.6558140" lon="-0.4416650">
        <ele>235.2</ele>
        <time>2022-11-06T06:12:08Z</time>
      </trkpt>
      <trkpt lat="39.6558000" lon="-0.4416930">
        <ele>235.5</ele>
        <time>2022-11-06T06:12:09Z</time>
      </trkpt>
      <trkpt lat="39.6557840" lon="-0.4417220">
        <ele>235.8</ele>
        <time>2022-11-06T06:12:10Z</time>
      </trkpt>
      <trkpt lat="39.6557740" lon="-0.4417500">
        <ele>236.0</ele>
        <time>2022-11-06T06:12:11Z</time>
      </trkpt>
      <trkpt lat="39.6557550" lon="-0.4417770">
        <ele>236.3</ele>
        <time>2022-11-06T06:12:12Z</time>
      </trkpt>
      <trkpt lat="39.6557410" lon="-0.4418030">
        <ele>236.6</ele>
        <time>2022-11-06T06:12:13Z</time>
      </trkpt>
      <trkpt lat="39.6557310" lon="-0.4418300">
        <ele>236.9</ele>
        <time>2022-11-06T06:12:14Z</time>
      </trkpt>
      <trkpt lat="39.6557310" lon="-0.4418300">
        <ele>236.9</ele>
        <time>2022-11-06T06:12:15Z</time>
      </trkpt>
      <trkpt lat="39.6557090" lon="-0.4418880">
        <ele>237.4</ele>
        <time>2022-11-06T06:12:16Z</time>
      </trkpt>
      <trkpt lat="39.6556930" lon="-0.4419170">
        <ele>237.7</ele>
        <time>2022-11-06T06:12:17Z</time>
      </trkpt>
      <trkpt lat="39.6556820" lon="-0.4419470">
        <ele>238.0</ele>
        <time>2022-11-06T06:12:18Z</time>
      </trkpt>
      <trkpt lat="39.6556690" lon="-0.4419750">
        <ele>238.3</ele>
        <time>2022-11-06T06:12:19Z</time>
      </trkpt>
      <trkpt lat="39.6556580" lon="-0.4420050">
        <ele>238.6</ele>
        <time>2022-11-06T06:12:20Z</time>
      </trkpt>
      <trkpt lat="39.6556480" lon="-0.4420350">
        <ele>238.9</ele>
        <time>2022-11-06T06:12:21Z</time>
      </trkpt>
      <trkpt lat="39.6556370" lon="-0.4420670">
        <ele>239.2</ele>
        <time>2022-11-06T06:12:22Z</time>
      </trkpt>
      <trkpt lat="39.6556230" lon="-0.4420980">
        <ele>239.6</ele>
        <time>2022-11-06T06:12:23Z</time>
      </trkpt>
      <trkpt lat="39.6556180" lon="-0.4421300">
        <ele>239.9</ele>
        <time>2022-11-06T06:12:24Z</time>
      </trkpt>
      <trkpt lat="39.6556180" lon="-0.4421300">
        <ele>239.9</ele>
        <time>2022-11-06T06:12:25Z</time>
      </trkpt>
      <trkpt lat="39.6556180" lon="-0.4421300">
        <ele>239.9</ele>
        <time>2022-11-06T06:12:26Z</time>
      </trkpt>
      <trkpt lat="39.6555780" lon="-0.4422250">
        <ele>240.8</ele>
        <time>2022-11-06T06:12:27Z</time>
      </trkpt>
      <trkpt lat="39.6555670" lon="-0.4422570">
        <ele>241.1</ele>
        <time>2022-11-06T06:12:28Z</time>
      </trkpt>
      <trkpt lat="39.6555510" lon="-0.4422880">
        <ele>241.4</ele>
        <time>2022-11-06T06:12:29Z</time>
      </trkpt>
      <trkpt lat="39.6555380" lon="-0.4423220">
        <ele>241.7</ele>
        <time>2022-11-06T06:12:30Z</time>
      </trkpt>
      <trkpt lat="39.6555240" lon="-0.4423520">
        <ele>241.9</ele>
        <time>2022-11-06T06:12:31Z</time>
      </trkpt>
      <trkpt lat="39.6555110" lon="-0.4423830">
        <ele>242.1</ele>
        <time>2022-11-06T06:12:32Z</time>
      </trkpt>
      <trkpt lat="39.6554920" lon="-0.4424130">
        <ele>242.3</ele>
        <time>2022-11-06T06:12:33Z</time>
      </trkpt>
      <trkpt lat="39.6554710" lon="-0.4424470">
        <ele>242.6</ele>
        <time>2022-11-06T06:12:34Z</time>
      </trkpt>
      <trkpt lat="39.6554710" lon="-0.4424470">
        <ele>242.6</ele>
        <time>2022-11-06T06:12:35Z</time>
      </trkpt>
      <trkpt lat="39.6554330" lon="-0.4425200">
        <ele>242.9</ele>
        <time>2022-11-06T06:12:36Z</time>
      </trkpt>
      <trkpt lat="39.6554140" lon="-0.4425600">
        <ele>243.1</ele>
        <time>2022-11-06T06:12:37Z</time>
      </trkpt>
      <trkpt lat="39.6553980" lon="-0.4426020">
        <ele>243.2</ele>
        <time>2022-11-06T06:12:38Z</time>
      </trkpt>
      <trkpt lat="39.6553790" lon="-0.4426500">
        <ele>243.3</ele>
        <time>2022-11-06T06:12:39Z</time>
      </trkpt>
      <trkpt lat="39.6553770" lon="-0.4426950">
        <ele>243.3</ele>
        <time>2022-11-06T06:12:40Z</time>
      </trkpt>
      <trkpt lat="39.6553770" lon="-0.4427430">
        <ele>242.8</ele>
        <time>2022-11-06T06:12:41Z</time>
      </trkpt>
      <trkpt lat="39.6553850" lon="-0.4427930">
        <ele>242.6</ele>
        <time>2022-11-06T06:12:42Z</time>
      </trkpt>
      <trkpt lat="39.6553950" lon="-0.4428420">
        <ele>242.4</ele>
        <time>2022-11-06T06:12:43Z</time>
      </trkpt>
      <trkpt lat="39.6554140" lon="-0.4428900">
        <ele>242.2</ele>
        <time>2022-11-06T06:12:44Z</time>
      </trkpt>
      <trkpt lat="39.6554330" lon="-0.4429380">
        <ele>242.0</ele>
        <time>2022-11-06T06:12:45Z</time>
      </trkpt>
      <trkpt lat="39.6554330" lon="-0.4429380">
        <ele>242.0</ele>
        <time>2022-11-06T06:12:46Z</time>
      </trkpt>
      <trkpt lat="39.6554650" lon="-0.4430430">
        <ele>241.4</ele>
        <time>2022-11-06T06:12:47Z</time>
      </trkpt>
      <trkpt lat="39.6554760" lon="-0.4431120">
        <ele>241.1</ele>
        <time>2022-11-06T06:12:48Z</time>
      </trkpt>
      <trkpt lat="39.6554920" lon="-0.4431850">
        <ele>240.7</ele>
        <time>2022-11-06T06:12:49Z</time>
      </trkpt>
      <trkpt lat="39.6555050" lon="-0.4432620">
        <ele>240.2</ele>
        <time>2022-11-06T06:12:50Z</time>
      </trkpt>
      <trkpt lat="39.6555190" lon="-0.4433430">
        <ele>239.7</ele>
        <time>2022-11-06T06:12:51Z</time>
      </trkpt>
      <trkpt lat="39.6555320" lon="-0.4434280">
        <ele>239.1</ele>
        <time>2022-11-06T06:12:52Z</time>
      </trkpt>
      <trkpt lat="39.6555590" lon="-0.4435150">
        <ele>238.5</ele>
        <time>2022-11-06T06:12:53Z</time>
      </trkpt>
      <trkpt lat="39.6555940" lon="-0.4436030">
        <ele>237.8</ele>
        <time>2022-11-06T06:12:54Z</time>
      </trkpt>
      <trkpt lat="39.6556370" lon="-0.4436950">
        <ele>237.1</ele>
        <time>2022-11-06T06:12:55Z</time>
      </trkpt>
      <trkpt lat="39.6556370" lon="-0.4436950">
        <ele>237.1</ele>
        <time>2022-11-06T06:12:56Z</time>
      </trkpt>
      <trkpt lat="39.6556820" lon="-0.4439150">
        <ele>235.7</ele>
        <time>2022-11-06T06:12:57Z</time>
      </trkpt>
      <trkpt lat="39.6557090" lon="-0.4440270">
        <ele>235.1</ele>
        <time>2022-11-06T06:12:58Z</time>
      </trkpt>
      <trkpt lat="39.6557470" lon="-0.4441400">
        <ele>234.5</ele>
        <time>2022-11-06T06:12:59Z</time>
      </trkpt>
      <trkpt lat="39.6557920" lon="-0.4442450">
        <ele>234.1</ele>
        <time>2022-11-06T06:13:00Z</time>
      </trkpt>
      <trkpt lat="39.6558380" lon="-0.4443470">
        <ele>233.7</ele>
        <time>2022-11-06T06:13:01Z</time>
      </trkpt>
      <trkpt lat="39.6558860" lon="-0.4444470">
        <ele>233.3</ele>
        <time>2022-11-06T06:13:02Z</time>
      </trkpt>
      <trkpt lat="39.6559450" lon="-0.4445420">
        <ele>233.0</ele>
        <time>2022-11-06T06:13:03Z</time>
      </trkpt>
      <trkpt lat="39.6560020" lon="-0.4446300">
        <ele>232.7</ele>
        <time>2022-11-06T06:13:04Z</time>
      </trkpt>
      <trkpt lat="39.6560660" lon="-0.4447150">
        <ele>232.4</ele>
        <time>2022-11-06T06:13:05Z</time>
      </trkpt>
      <trkpt lat="39.6560660" lon="-0.4447150">
        <ele>232.4</ele>
        <time>2022-11-06T06:13:06Z</time>
      </trkpt>
      <trkpt lat="39.6560660" lon="-0.4447150">
        <ele>232.4</ele>
        <time>2022-11-06T06:13:07Z</time>
      </trkpt>
      <trkpt lat="39.6562510" lon="-0.4449630">
        <ele>232.1</ele>
        <time>2022-11-06T06:13:08Z</time>
      </trkpt>
      <trkpt lat="39.6563100" lon="-0.4450430">
        <ele>232.1</ele>
        <time>2022-11-06T06:13:09Z</time>
      </trkpt>
      <trkpt lat="39.6563690" lon="-0.4451220">
        <ele>232.0</ele>
        <time>2022-11-06T06:13:10Z</time>
      </trkpt>
      <trkpt lat="39.6564230" lon="-0.4451980">
        <ele>232.0</ele>
        <time>2022-11-06T06:13:11Z</time>
      </trkpt>
      <trkpt lat="39.6564760" lon="-0.4452770">
        <ele>231.9</ele>
        <time>2022-11-06T06:13:12Z</time>
      </trkpt>
      <trkpt lat="39.6565270" lon="-0.4453520">
        <ele>231.7</ele>
        <time>2022-11-06T06:13:13Z</time>
      </trkpt>
      <trkpt lat="39.6565890" lon="-0.4454200">
        <ele>231.4</ele>
        <time>2022-11-06T06:13:14Z</time>
      </trkpt>
      <trkpt lat="39.6566530" lon="-0.4454870">
        <ele>230.9</ele>
        <time>2022-11-06T06:13:15Z</time>
      </trkpt>
      <trkpt lat="39.6566530" lon="-0.4454870">
        <ele>230.9</ele>
        <time>2022-11-06T06:13:16Z</time>
      </trkpt>
      <trkpt lat="39.6566530" lon="-0.4454870">
        <ele>230.9</ele>
        <time>2022-11-06T06:13:17Z</time>
      </trkpt>
      <trkpt lat="39.6568950" lon="-0.4456280">
        <ele>229.2</ele>
        <time>2022-11-06T06:13:18Z</time>
      </trkpt>
      <trkpt lat="39.6569860" lon="-0.4456470">
        <ele>228.5</ele>
        <time>2022-11-06T06:13:19Z</time>
      </trkpt>
      <trkpt lat="39.6570830" lon="-0.4456520">
        <ele>227.8</ele>
        <time>2022-11-06T06:13:20Z</time>
      </trkpt>
      <trkpt lat="39.6571760" lon="-0.4456470">
        <ele>227.2</ele>
        <time>2022-11-06T06:13:21Z</time>
      </trkpt>
      <trkpt lat="39.6572730" lon="-0.4456380">
        <ele>226.6</ele>
        <time>2022-11-06T06:13:22Z</time>
      </trkpt>
      <trkpt lat="39.6573720" lon="-0.4456200">
        <ele>226.1</ele>
        <time>2022-11-06T06:13:23Z</time>
      </trkpt>
      <trkpt lat="39.6574660" lon="-0.4455900">
        <ele>225.6</ele>
        <time>2022-11-06T06:13:24Z</time>
      </trkpt>
      <trkpt lat="39.6575630" lon="-0.4455680">
        <ele>225.1</ele>
        <time>2022-11-06T06:13:25Z</time>
      </trkpt>
      <trkpt lat="39.6576620" lon="-0.4455630">
        <ele>224.6</ele>
        <time>2022-11-06T06:13:26Z</time>
      </trkpt>
      <trkpt lat="39.6576620" lon="-0.4455630">
        <ele>224.6</ele>
        <time>2022-11-06T06:13:27Z</time>
      </trkpt>
      <trkpt lat="39.6576620" lon="-0.4455630">
        <ele>224.6</ele>
        <time>2022-11-06T06:13:28Z</time>
      </trkpt>
      <trkpt lat="39.6578680" lon="-0.4457020">
        <ele>223.4</ele>
        <time>2022-11-06T06:13:29Z</time>
      </trkpt>
      <trkpt lat="39.6579360" lon="-0.4457670">
        <ele>222.9</ele>
        <time>2022-11-06T06:13:30Z</time>
      </trkpt>
      <trkpt lat="39.6579970" lon="-0.4458450">
        <ele>222.4</ele>
        <time>2022-11-06T06:13:31Z</time>
      </trkpt>
      <trkpt lat="39.6580670" lon="-0.4459200">
        <ele>221.8</ele>
        <time>2022-11-06T06:13:32Z</time>
      </trkpt>
      <trkpt lat="39.6581420" lon="-0.4459800">
        <ele>221.3</ele>
        <time>2022-11-06T06:13:33Z</time>
      </trkpt>
      <trkpt lat="39.6582250" lon="-0.4460250">
        <ele>220.9</ele>
        <time>2022-11-06T06:13:34Z</time>
      </trkpt>
      <trkpt lat="39.6583160" lon="-0.4460170">
        <ele>220.4</ele>
        <time>2022-11-06T06:13:35Z</time>
      </trkpt>
      <trkpt lat="39.6584020" lon="-0.4460020">
        <ele>220.0</ele>
        <time>2022-11-06T06:13:36Z</time>
      </trkpt>
      <trkpt lat="39.6584020" lon="-0.4460020">
        <ele>220.0</ele>
        <time>2022-11-06T06:13:37Z</time>
      </trkpt>
      <trkpt lat="39.6585850" lon="-0.4459470">
        <ele>219.5</ele>
        <time>2022-11-06T06:13:38Z</time>
      </trkpt>
      <trkpt lat="39.6586760" lon="-0.4459380">
        <ele>219.5</ele>
        <time>2022-11-06T06:13:39Z</time>
      </trkpt>
      <trkpt lat="39.6587590" lon="-0.4459550">
        <ele>219.6</ele>
        <time>2022-11-06T06:13:40Z</time>
      </trkpt>
      <trkpt lat="39.6588180" lon="-0.4459980">
        <ele>219.7</ele>
        <time>2022-11-06T06:13:41Z</time>
      </trkpt>
      <trkpt lat="39.6588740" lon="-0.4460700">
        <ele>220.0</ele>
        <time>2022-11-06T06:13:42Z</time>
      </trkpt>
      <trkpt lat="39.6589310" lon="-0.4461130">
        <ele>220.2</ele>
        <time>2022-11-06T06:13:43Z</time>
      </trkpt>
      <trkpt lat="39.6589980" lon="-0.4461500">
        <ele>220.4</ele>
        <time>2022-11-06T06:13:44Z</time>
      </trkpt>
      <trkpt lat="39.6590510" lon="-0.4461700">
        <ele>220.6</ele>
        <time>2022-11-06T06:13:45Z</time>
      </trkpt>
      <trkpt lat="39.6591100" lon="-0.4461820">
        <ele>220.8</ele>
        <time>2022-11-06T06:13:46Z</time>
      </trkpt>
      <trkpt lat="39.6591690" lon="-0.4461780">
        <ele>221.0</ele>
        <time>2022-11-06T06:13:47Z</time>
      </trkpt>
      <trkpt lat="39.6591690" lon="-0.4461780">
        <ele>221.0</ele>
        <time>2022-11-06T06:13:48Z</time>
      </trkpt>
      <trkpt lat="39.6592820" lon="-0.4461820">
        <ele>221.4</ele>
        <time>2022-11-06T06:13:49Z</time>
      </trkpt>
      <trkpt lat="39.6593440" lon="-0.4461830">
        <ele>221.6</ele>
        <time>2022-11-06T06:13:50Z</time>
      </trkpt>
      <trkpt lat="39.6594050" lon="-0.4461800">
        <ele>221.8</ele>
        <time>2022-11-06T06:13:51Z</time>
      </trkpt>
      <trkpt lat="39.6594620" lon="-0.4461850">
        <ele>222.0</ele>
        <time>2022-11-06T06:13:52Z</time>
      </trkpt>
      <trkpt lat="39.6595150" lon="-0.4461920">
        <ele>222.2</ele>
        <time>2022-11-06T06:13:53Z</time>
      </trkpt>
      <trkpt lat="39.6595610" lon="-0.4461920">
        <ele>222.5</ele>
        <time>2022-11-06T06:13:54Z</time>
      </trkpt>
      <trkpt lat="39.6595980" lon="-0.4461780">
        <ele>222.7</ele>
        <time>2022-11-06T06:13:55Z</time>
      </trkpt>
      <trkpt lat="39.6596330" lon="-0.4461580">
        <ele>222.9</ele>
        <time>2022-11-06T06:13:56Z</time>
      </trkpt>
      <trkpt lat="39.6596330" lon="-0.4461580">
        <ele>222.9</ele>
        <time>2022-11-06T06:13:57Z</time>
      </trkpt>
      <trkpt lat="39.6596330" lon="-0.4461580">
        <ele>222.9</ele>
        <time>2022-11-06T06:13:58Z</time>
      </trkpt>
      <trkpt lat="39.6597250" lon="-0.4460670">
        <ele>223.4</ele>
        <time>2022-11-06T06:13:59Z</time>
      </trkpt>
      <trkpt lat="39.6597570" lon="-0.4460250">
        <ele>223.5</ele>
        <time>2022-11-06T06:14:00Z</time>
      </trkpt>
      <trkpt lat="39.6597840" lon="-0.4459820">
        <ele>223.6</ele>
        <time>2022-11-06T06:14:01Z</time>
      </trkpt>
      <trkpt lat="39.6598100" lon="-0.4459350">
        <ele>223.7</ele>
        <time>2022-11-06T06:14:02Z</time>
      </trkpt>
      <trkpt lat="39.6598320" lon="-0.4458900">
        <ele>223.8</ele>
        <time>2022-11-06T06:14:03Z</time>
      </trkpt>
      <trkpt lat="39.6598560" lon="-0.4458400">
        <ele>224.0</ele>
        <time>2022-11-06T06:14:04Z</time>
      </trkpt>
      <trkpt lat="39.6598750" lon="-0.4457920">
        <ele>224.1</ele>
        <time>2022-11-06T06:14:05Z</time>
      </trkpt>
      <trkpt lat="39.6598850" lon="-0.4457430">
        <ele>224.2</ele>
        <time>2022-11-06T06:14:06Z</time>
      </trkpt>
      <trkpt lat="39.6598940" lon="-0.4456880">
        <ele>224.3</ele>
        <time>2022-11-06T06:14:07Z</time>
      </trkpt>
      <trkpt lat="39.6598940" lon="-0.4456880">
        <ele>224.3</ele>
        <time>2022-11-06T06:14:08Z</time>
      </trkpt>
      <trkpt lat="39.6598940" lon="-0.4456880">
        <ele>224.3</ele>
        <time>2022-11-06T06:14:09Z</time>
      </trkpt>
      <trkpt lat="39.6599150" lon="-0.4455150">
        <ele>224.7</ele>
        <time>2022-11-06T06:14:10Z</time>
      </trkpt>
      <trkpt lat="39.6599040" lon="-0.4454600">
        <ele>224.9</ele>
        <time>2022-11-06T06:14:11Z</time>
      </trkpt>
      <trkpt lat="39.6598940" lon="-0.4454050">
        <ele>225.0</ele>
        <time>2022-11-06T06:14:12Z</time>
      </trkpt>
      <trkpt lat="39.6598830" lon="-0.4453480">
        <ele>225.2</ele>
        <time>2022-11-06T06:14:13Z</time>
      </trkpt>
      <trkpt lat="39.6598750" lon="-0.4452880">
        <ele>225.3</ele>
        <time>2022-11-06T06:14:14Z</time>
      </trkpt>
      <trkpt lat="39.6598610" lon="-0.4452270">
        <ele>225.5</ele>
        <time>2022-11-06T06:14:15Z</time>
      </trkpt>
      <trkpt lat="39.6598510" lon="-0.4451630">
        <ele>225.6</ele>
        <time>2022-11-06T06:14:16Z</time>
      </trkpt>
      <trkpt lat="39.6598400" lon="-0.4450970">
        <ele>225.8</ele>
        <time>2022-11-06T06:14:17Z</time>
      </trkpt>
      <trkpt lat="39.6598400" lon="-0.4450970">
        <ele>225.8</ele>
        <time>2022-11-06T06:14:18Z</time>
      </trkpt>
      <trkpt lat="39.6598400" lon="-0.4450970">
        <ele>225.8</ele>
        <time>2022-11-06T06:14:19Z</time>
      </trkpt>
      <trkpt lat="39.6598320" lon="-0.4448930">
        <ele>226.1</ele>
        <time>2022-11-06T06:14:20Z</time>
      </trkpt>
      <trkpt lat="39.6598320" lon="-0.4448200">
        <ele>226.3</ele>
        <time>2022-11-06T06:14:21Z</time>
      </trkpt>
      <trkpt lat="39.6598400" lon="-0.4447470">
        <ele>226.4</ele>
        <time>2022-11-06T06:14:22Z</time>
      </trkpt>
      <trkpt lat="39.6598480" lon="-0.4446820">
        <ele>226.6</ele>
        <time>2022-11-06T06:14:23Z</time>
      </trkpt>
      <trkpt lat="39.6598590" lon="-0.4446230">
        <ele>226.8</ele>
        <time>2022-11-06T06:14:24Z</time>
      </trkpt>
      <trkpt lat="39.6598690" lon="-0.4445700">
        <ele>227.0</ele>
        <time>2022-11-06T06:14:25Z</time>
      </trkpt>
      <trkpt lat="39.6598880" lon="-0.4445220">
        <ele>227.2</ele>
        <time>2022-11-06T06:14:26Z</time>
      </trkpt>
      <trkpt lat="39.6599100" lon="-0.4444780">
        <ele>227.5</ele>
        <time>2022-11-06T06:14:27Z</time>
      </trkpt>
      <trkpt lat="39.6599280" lon="-0.4444400">
        <ele>227.7</ele>
        <time>2022-11-06T06:14:28Z</time>
      </trkpt>
      <trkpt lat="39.6599280" lon="-0.4444400">
        <ele>227.7</ele>
        <time>2022-11-06T06:14:29Z</time>
      </trkpt>
      <trkpt lat="39.6599740" lon="-0.4443600">
        <ele>228.2</ele>
        <time>2022-11-06T06:14:30Z</time>
      </trkpt>
      <trkpt lat="39.6599950" lon="-0.4443270">
        <ele>228.5</ele>
        <time>2022-11-06T06:14:31Z</time>
      </trkpt>
      <trkpt lat="39.6600220" lon="-0.4443000">
        <ele>228.7</ele>
        <time>2022-11-06T06:14:32Z</time>
      </trkpt>
      <trkpt lat="39.6600460" lon="-0.4442830">
        <ele>228.9</ele>
        <time>2022-11-06T06:14:33Z</time>
      </trkpt>
      <trkpt lat="39.6600730" lon="-0.4442720">
        <ele>229.1</ele>
        <time>2022-11-06T06:14:34Z</time>
      </trkpt>
      <trkpt lat="39.6601000" lon="-0.4442670">
        <ele>229.3</ele>
        <time>2022-11-06T06:14:35Z</time>
      </trkpt>
      <trkpt lat="39.6601270" lon="-0.4442620">
        <ele>229.5</ele>
        <time>2022-11-06T06:14:36Z</time>
      </trkpt>
      <trkpt lat="39.6601540" lon="-0.4442630">
        <ele>229.7</ele>
        <time>2022-11-06T06:14:37Z</time>
      </trkpt>
      <trkpt lat="39.6601540" lon="-0.4442630">
        <ele>229.7</ele>
        <time>2022-11-06T06:14:38Z</time>
      </trkpt>
      <trkpt lat="39.6601540" lon="-0.4442630">
        <ele>229.7</ele>
        <time>2022-11-06T06:14:39Z</time>
      </trkpt>
      <trkpt lat="39.6602450" lon="-0.4442780">
        <ele>230.3</ele>
        <time>2022-11-06T06:14:40Z</time>
      </trkpt>
      <trkpt lat="39.6602770" lon="-0.4442820">
        <ele>230.5</ele>
        <time>2022-11-06T06:14:41Z</time>
      </trkpt>
      <trkpt lat="39.6603120" lon="-0.4442820">
        <ele>230.6</ele>
        <time>2022-11-06T06:14:42Z</time>
      </trkpt>
      <trkpt lat="39.6603470" lon="-0.4442800">
        <ele>230.7</ele>
        <time>2022-11-06T06:14:43Z</time>
      </trkpt>
      <trkpt lat="39.6603820" lon="-0.4442800">
        <ele>230.8</ele>
        <time>2022-11-06T06:14:44Z</time>
      </trkpt>
      <trkpt lat="39.6604190" lon="-0.4442870">
        <ele>230.9</ele>
        <time>2022-11-06T06:14:45Z</time>
      </trkpt>
      <trkpt lat="39.6604540" lon="-0.4442950">
        <ele>231.0</ele>
        <time>2022-11-06T06:14:46Z</time>
      </trkpt>
      <trkpt lat="39.6604840" lon="-0.4443130">
        <ele>231.0</ele>
        <time>2022-11-06T06:14:47Z</time>
      </trkpt>
      <trkpt lat="39.6605160" lon="-0.4443330">
        <ele>231.1</ele>
        <time>2022-11-06T06:14:48Z</time>
      </trkpt>
      <trkpt lat="39.6605160" lon="-0.4443330">
        <ele>231.1</ele>
        <time>2022-11-06T06:14:49Z</time>
      </trkpt>
      <trkpt lat="39.6605160" lon="-0.4443330">
        <ele>231.1</ele>
        <time>2022-11-06T06:14:50Z</time>
      </trkpt>
      <trkpt lat="39.6606180" lon="-0.4444200">
        <ele>231.1</ele>
        <time>2022-11-06T06:14:51Z</time>
      </trkpt>
      <trkpt lat="39.6606470" lon="-0.4444520">
        <ele>231.2</ele>
        <time>2022-11-06T06:14:52Z</time>
      </trkpt>
      <trkpt lat="39.6606740" lon="-0.4444830">
        <ele>231.2</ele>
        <time>2022-11-06T06:14:53Z</time>
      </trkpt>
      <trkpt lat="39.6607060" lon="-0.4445120">
        <ele>231.3</ele>
        <time>2022-11-06T06:14:54Z</time>
      </trkpt>
      <trkpt lat="39.6607360" lon="-0.4445420">
        <ele>231.4</ele>
        <time>2022-11-06T06:14:55Z</time>
      </trkpt>
      <trkpt lat="39.6607600" lon="-0.4445680">
        <ele>231.4</ele>
        <time>2022-11-06T06:14:56Z</time>
      </trkpt>
      <trkpt lat="39.6607870" lon="-0.4445950">
        <ele>231.5</ele>
        <time>2022-11-06T06:14:57Z</time>
      </trkpt>
      <trkpt lat="39.6608190" lon="-0.4446250">
        <ele>231.6</ele>
        <time>2022-11-06T06:14:58Z</time>
      </trkpt>
      <trkpt lat="39.6608190" lon="-0.4446250">
        <ele>231.6</ele>
        <time>2022-11-06T06:14:59Z</time>
      </trkpt>
      <trkpt lat="39.6608810" lon="-0.4446820">
        <ele>231.8</ele>
        <time>2022-11-06T06:15:00Z</time>
      </trkpt>
      <trkpt lat="39.6609070" lon="-0.4447120">
        <ele>231.9</ele>
        <time>2022-11-06T06:15:01Z</time>
      </trkpt>
      <trkpt lat="39.6609340" lon="-0.4447450">
        <ele>232.0</ele>
        <time>2022-11-06T06:15:02Z</time>
      </trkpt>
      <trkpt lat="39.6609610" lon="-0.4447770">
        <ele>232.1</ele>
        <time>2022-11-06T06:15:03Z</time>
      </trkpt>
      <trkpt lat="39.6609850" lon="-0.4448080">
        <ele>232.2</ele>
        <time>2022-11-06T06:15:04Z</time>
      </trkpt>
      <trkpt lat="39.6610040" lon="-0.4448450">
        <ele>232.3</ele>
        <time>2022-11-06T06:15:05Z</time>
      </trkpt>
      <trkpt lat="39.6610310" lon="-0.4448820">
        <ele>232.4</ele>
        <time>2022-11-06T06:15:06Z</time>
      </trkpt>
      <trkpt lat="39.6610580" lon="-0.4449200">
        <ele>232.6</ele>
        <time>2022-11-06T06:15:07Z</time>
      </trkpt>
      <trkpt lat="39.6610840" lon="-0.4449570">
        <ele>232.7</ele>
        <time>2022-11-06T06:15:08Z</time>
      </trkpt>
      <trkpt lat="39.6611170" lon="-0.4449880">
        <ele>232.7</ele>
        <time>2022-11-06T06:15:09Z</time>
      </trkpt>
      <trkpt lat="39.6611170" lon="-0.4449880">
        <ele>232.7</ele>
        <time>2022-11-06T06:15:10Z</time>
      </trkpt>
      <trkpt lat="39.6611940" lon="-0.4450450">
        <ele>232.9</ele>
        <time>2022-11-06T06:15:11Z</time>
      </trkpt>
      <trkpt lat="39.6612320" lon="-0.4450630">
        <ele>232.9</ele>
        <time>2022-11-06T06:15:12Z</time>
      </trkpt>
      <trkpt lat="39.6612690" lon="-0.4450800">
        <ele>232.8</ele>
        <time>2022-11-06T06:15:13Z</time>
      </trkpt>
      <trkpt lat="39.6613070" lon="-0.4450920">
        <ele>232.8</ele>
        <time>2022-11-06T06:15:14Z</time>
      </trkpt>
      <trkpt lat="39.6613470" lon="-0.4450980">
        <ele>232.8</ele>
        <time>2022-11-06T06:15:15Z</time>
      </trkpt>
      <trkpt lat="39.6613850" lon="-0.4451000">
        <ele>232.7</ele>
        <time>2022-11-06T06:15:16Z</time>
      </trkpt>
      <trkpt lat="39.6614280" lon="-0.4450950">
        <ele>232.6</ele>
        <time>2022-11-06T06:15:17Z</time>
      </trkpt>
      <trkpt lat="39.6614760" lon="-0.4450850">
        <ele>232.5</ele>
        <time>2022-11-06T06:15:18Z</time>
      </trkpt>
      <trkpt lat="39.6615110" lon="-0.4450670">
        <ele>232.5</ele>
        <time>2022-11-06T06:15:19Z</time>
      </trkpt>
      <trkpt lat="39.6615110" lon="-0.4450670">
        <ele>232.5</ele>
        <time>2022-11-06T06:15:20Z</time>
      </trkpt>
      <trkpt lat="39.6615940" lon="-0.4450430">
        <ele>232.4</ele>
        <time>2022-11-06T06:15:21Z</time>
      </trkpt>
      <trkpt lat="39.6616260" lon="-0.4450330">
        <ele>232.4</ele>
        <time>2022-11-06T06:15:22Z</time>
      </trkpt>
      <trkpt lat="39.6616660" lon="-0.4450170">
        <ele>232.5</ele>
        <time>2022-11-06T06:15:23Z</time>
      </trkpt>
      <trkpt lat="39.6617090" lon="-0.4450130">
        <ele>232.6</ele>
        <time>2022-11-06T06:15:24Z</time>
      </trkpt>
      <trkpt lat="39.6617440" lon="-0.4450050">
        <ele>232.6</ele>
        <time>2022-11-06T06:15:25Z</time>
      </trkpt>
      <trkpt lat="39.6617760" lon="-0.4449970">
        <ele>232.7</ele>
        <time>2022-11-06T06:15:26Z</time>
      </trkpt>
      <trkpt lat="39.6618110" lon="-0.4449920">
        <ele>232.8</ele>
        <time>2022-11-06T06:15:27Z</time>
      </trkpt>
      <trkpt lat="39.6618490" lon="-0.4449870">
        <ele>232.8</ele>
        <time>2022-11-06T06:15:28Z</time>
      </trkpt>
      <trkpt lat="39.6618940" lon="-0.4449730">
        <ele>232.9</ele>
        <time>2022-11-06T06:15:29Z</time>
      </trkpt>
      <trkpt lat="39.6618940" lon="-0.4449730">
        <ele>232.9</ele>
        <time>2022-11-06T06:15:30Z</time>
      </trkpt>
      <trkpt lat="39.6618940" lon="-0.4449730">
        <ele>232.9</ele>
        <time>2022-11-06T06:15:31Z</time>
      </trkpt>
      <trkpt lat="39.6620340" lon="-0.4449480">
        <ele>233.0</ele>
        <time>2022-11-06T06:15:32Z</time>
      </trkpt>
      <trkpt lat="39.6620740" lon="-0.4449350">
        <ele>233.0</ele>
        <time>2022-11-06T06:15:33Z</time>
      </trkpt>
      <trkpt lat="39.6621090" lon="-0.4449250">
        <ele>233.0</ele>
        <time>2022-11-06T06:15:34Z</time>
      </trkpt>
      <trkpt lat="39.6621470" lon="-0.4449100">
        <ele>233.1</ele>
        <time>2022-11-06T06:15:35Z</time>
      </trkpt>
      <trkpt lat="39.6621810" lon="-0.4448970">
        <ele>233.1</ele>
        <time>2022-11-06T06:15:36Z</time>
      </trkpt>
      <trkpt lat="39.6622240" lon="-0.4448930">
        <ele>233.1</ele>
        <time>2022-11-06T06:15:37Z</time>
      </trkpt>
      <trkpt lat="39.6622620" lon="-0.4448900">
        <ele>233.1</ele>
        <time>2022-11-06T06:15:38Z</time>
      </trkpt>
      <trkpt lat="39.6623080" lon="-0.4448850">
        <ele>233.2</ele>
        <time>2022-11-06T06:15:39Z</time>
      </trkpt>
      <trkpt lat="39.6623080" lon="-0.4448850">
        <ele>233.2</ele>
        <time>2022-11-06T06:15:40Z</time>
      </trkpt>
      <trkpt lat="39.6623080" lon="-0.4448850">
        <ele>233.2</ele>
        <time>2022-11-06T06:15:41Z</time>
      </trkpt>
      <trkpt lat="39.6624440" lon="-0.4448570">
        <ele>233.3</ele>
        <time>2022-11-06T06:15:42Z</time>
      </trkpt>
      <trkpt lat="39.6624870" lon="-0.4448370">
        <ele>233.4</ele>
        <time>2022-11-06T06:15:43Z</time>
      </trkpt>
      <trkpt lat="39.6625300" lon="-0.4448300">
        <ele>233.6</ele>
        <time>2022-11-06T06:15:44Z</time>
      </trkpt>
      <trkpt lat="39.6625620" lon="-0.4448200">
        <ele>233.6</ele>
        <time>2022-11-06T06:15:45Z</time>
      </trkpt>
      <trkpt lat="39.6626130" lon="-0.4448070">
        <ele>233.8</ele>
        <time>2022-11-06T06:15:46Z</time>
      </trkpt>
      <trkpt lat="39.6626560" lon="-0.4448020">
        <ele>233.9</ele>
        <time>2022-11-06T06:15:47Z</time>
      </trkpt>
      <trkpt lat="39.6626860" lon="-0.4447980">
        <ele>234.1</ele>
        <time>2022-11-06T06:15:48Z</time>
      </trkpt>
      <trkpt lat="39.6627310" lon="-0.4447870">
        <ele>234.2</ele>
        <time>2022-11-06T06:15:49Z</time>
      </trkpt>
      <trkpt lat="39.6627850" lon="-0.4447680">
        <ele>234.5</ele>
        <time>2022-11-06T06:15:50Z</time>
      </trkpt>
      <trkpt lat="39.6627850" lon="-0.4447680">
        <ele>234.5</ele>
        <time>2022-11-06T06:15:51Z</time>
      </trkpt>
      <trkpt lat="39.6628680" lon="-0.4447670">
        <ele>234.8</ele>
        <time>2022-11-06T06:15:52Z</time>
      </trkpt>
      <trkpt lat="39.6630100" lon="-0.4447050">
        <ele>235.4</ele>
        <time>2022-11-06T06:15:53Z</time>
      </trkpt>
      <trkpt lat="39.6631090" lon="-0.4447020">
        <ele>235.8</ele>
        <time>2022-11-06T06:15:54Z</time>
      </trkpt>
      <trkpt lat="39.6631500" lon="-0.4447080">
        <ele>236.0</ele>
        <time>2022-11-06T06:15:55Z</time>
      </trkpt>
      <trkpt lat="39.6631740" lon="-0.4447230">
        <ele>236.2</ele>
        <time>2022-11-06T06:15:56Z</time>
      </trkpt>
      <trkpt lat="39.6632110" lon="-0.4447370">
        <ele>236.4</ele>
        <time>2022-11-06T06:15:57Z</time>
      </trkpt>
      <trkpt lat="39.6632360" lon="-0.4447570">
        <ele>236.5</ele>
        <time>2022-11-06T06:15:58Z</time>
      </trkpt>
      <trkpt lat="39.6632680" lon="-0.4447720">
        <ele>236.7</ele>
        <time>2022-11-06T06:15:59Z</time>
      </trkpt>
      <trkpt lat="39.6633030" lon="-0.4447920">
        <ele>236.9</ele>
        <time>2022-11-06T06:16:00Z</time>
      </trkpt>
      <trkpt lat="39.6633030" lon="-0.4447920">
        <ele>236.9</ele>
        <time>2022-11-06T06:16:01Z</time>
      </trkpt>
      <trkpt lat="39.6633880" lon="-0.4448320">
        <ele>237.4</ele>
        <time>2022-11-06T06:16:02Z</time>
      </trkpt>
      <trkpt lat="39.6634210" lon="-0.4448470">
        <ele>237.6</ele>
        <time>2022-11-06T06:16:03Z</time>
      </trkpt>
      <trkpt lat="39.6634530" lon="-0.4448620">
        <ele>237.8</ele>
        <time>2022-11-06T06:16:04Z</time>
      </trkpt>
      <trkpt lat="39.6634880" lon="-0.4448800">
        <ele>238.1</ele>
        <time>2022-11-06T06:16:05Z</time>
      </trkpt>
      <trkpt lat="39.6635280" lon="-0.4448930">
        <ele>238.3</ele>
        <time>2022-11-06T06:16:06Z</time>
      </trkpt>
      <trkpt lat="39.6635650" lon="-0.4449070">
        <ele>238.5</ele>
        <time>2022-11-06T06:16:07Z</time>
      </trkpt>
      <trkpt lat="39.6636060" lon="-0.4449270">
        <ele>238.8</ele>
        <time>2022-11-06T06:16:08Z</time>
      </trkpt>
      <trkpt lat="39.6636350" lon="-0.4449500">
        <ele>239.0</ele>
        <time>2022-11-06T06:16:09Z</time>
      </trkpt>
      <trkpt lat="39.6636590" lon="-0.4449800">
        <ele>239.3</ele>
        <time>2022-11-06T06:16:10Z</time>
      </trkpt>
      <trkpt lat="39.6636730" lon="-0.4450130">
        <ele>239.5</ele>
        <time>2022-11-06T06:16:11Z</time>
      </trkpt>
      <trkpt lat="39.6636730" lon="-0.4450130">
        <ele>239.9</ele>
        <time>2022-11-06T06:16:12Z</time>
      </trkpt>
      <trkpt lat="39.6637160" lon="-0.4450870">
        <ele>240.3</ele>
        <time>2022-11-06T06:16:13Z</time>
      </trkpt>
      <trkpt lat="39.6637340" lon="-0.4451200">
        <ele>240.5</ele>
        <time>2022-11-06T06:16:14Z</time>
      </trkpt>
      <trkpt lat="39.6637450" lon="-0.4451580">
        <ele>240.7</ele>
        <time>2022-11-06T06:16:15Z</time>
      </trkpt>
      <trkpt lat="39.6637590" lon="-0.4451980">
        <ele>240.9</ele>
        <time>2022-11-06T06:16:16Z</time>
      </trkpt>
      <trkpt lat="39.6637640" lon="-0.4452380">
        <ele>241.2</ele>
        <time>2022-11-06T06:16:17Z</time>
      </trkpt>
      <trkpt lat="39.6637640" lon="-0.4452780">
        <ele>241.4</ele>
        <time>2022-11-06T06:16:18Z</time>
      </trkpt>
      <trkpt lat="39.6637640" lon="-0.4453180">
        <ele>241.6</ele>
        <time>2022-11-06T06:16:19Z</time>
      </trkpt>
      <trkpt lat="39.6637610" lon="-0.4453600">
        <ele>241.8</ele>
        <time>2022-11-06T06:16:20Z</time>
      </trkpt>
      <trkpt lat="39.6637610" lon="-0.4453600">
        <ele>241.8</ele>
        <time>2022-11-06T06:16:21Z</time>
      </trkpt>
      <trkpt lat="39.6637610" lon="-0.4453600">
        <ele>241.8</ele>
        <time>2022-11-06T06:16:22Z</time>
      </trkpt>
      <trkpt lat="39.6637510" lon="-0.4454870">
        <ele>242.4</ele>
        <time>2022-11-06T06:16:23Z</time>
      </trkpt>
      <trkpt lat="39.6637530" lon="-0.4455300">
        <ele>242.6</ele>
        <time>2022-11-06T06:16:24Z</time>
      </trkpt>
      <trkpt lat="39.6637610" lon="-0.4455730">
        <ele>242.8</ele>
        <time>2022-11-06T06:16:25Z</time>
      </trkpt>
      <trkpt lat="39.6637770" lon="-0.4456150">
        <ele>243.0</ele>
        <time>2022-11-06T06:16:26Z</time>
      </trkpt>
      <trkpt lat="39.6637960" lon="-0.4456500">
        <ele>243.1</ele>
        <time>2022-11-06T06:16:27Z</time>
      </trkpt>
      <trkpt lat="39.6638230" lon="-0.4456800">
        <ele>243.3</ele>
        <time>2022-11-06T06:16:28Z</time>
      </trkpt>
      <trkpt lat="39.6638520" lon="-0.4457070">
        <ele>243.5</ele>
        <time>2022-11-06T06:16:29Z</time>
      </trkpt>
      <trkpt lat="39.6638870" lon="-0.4457280">
        <ele>243.7</ele>
        <time>2022-11-06T06:16:30Z</time>
      </trkpt>
      <trkpt lat="39.6639220" lon="-0.4457450">
        <ele>243.9</ele>
        <time>2022-11-06T06:16:31Z</time>
      </trkpt>
      <trkpt lat="39.6639220" lon="-0.4457450">
        <ele>243.9</ele>
        <time>2022-11-06T06:16:32Z</time>
      </trkpt>
      <trkpt lat="39.6639220" lon="-0.4457450">
        <ele>243.9</ele>
        <time>2022-11-06T06:16:33Z</time>
      </trkpt>
      <trkpt lat="39.6640160" lon="-0.4457520">
        <ele>244.6</ele>
        <time>2022-11-06T06:16:34Z</time>
      </trkpt>
      <trkpt lat="39.6640430" lon="-0.4457400">
        <ele>244.8</ele>
        <time>2022-11-06T06:16:35Z</time>
      </trkpt>
      <trkpt lat="39.6640700" lon="-0.4457270">
        <ele>245.0</ele>
        <time>2022-11-06T06:16:36Z</time>
      </trkpt>
      <trkpt lat="39.6640970" lon="-0.4457100">
        <ele>245.2</ele>
        <time>2022-11-06T06:16:37Z</time>
      </trkpt>
      <trkpt lat="39.6641130" lon="-0.4456950">
        <ele>245.4</ele>
        <time>2022-11-06T06:16:38Z</time>
      </trkpt>
      <trkpt lat="39.6641230" lon="-0.4456770">
        <ele>245.6</ele>
        <time>2022-11-06T06:16:39Z</time>
      </trkpt>
      <trkpt lat="39.6641390" lon="-0.4456570">
        <ele>245.7</ele>
        <time>2022-11-06T06:16:40Z</time>
      </trkpt>
      <trkpt lat="39.6641340" lon="-0.4456130">
        <ele>245.9</ele>
        <time>2022-11-06T06:16:41Z</time>
      </trkpt>
      <trkpt lat="39.6641340" lon="-0.4456130">
        <ele>245.9</ele>
        <time>2022-11-06T06:16:42Z</time>
      </trkpt>
      <trkpt lat="39.6641310" lon="-0.4455420">
        <ele>245.8</ele>
        <time>2022-11-06T06:16:43Z</time>
      </trkpt>
      <trkpt lat="39.6641210" lon="-0.4455020">
        <ele>245.7</ele>
        <time>2022-11-06T06:16:44Z</time>
      </trkpt>
      <trkpt lat="39.6641070" lon="-0.4454580">
        <ele>245.7</ele>
        <time>2022-11-06T06:16:45Z</time>
      </trkpt>
      <trkpt lat="39.6640880" lon="-0.4454150">
        <ele>245.7</ele>
        <time>2022-11-06T06:16:46Z</time>
      </trkpt>
      <trkpt lat="39.6640750" lon="-0.4453700">
        <ele>245.6</ele>
        <time>2022-11-06T06:16:47Z</time>
      </trkpt>
      <trkpt lat="39.6640590" lon="-0.4453250">
        <ele>245.6</ele>
        <time>2022-11-06T06:16:48Z</time>
      </trkpt>
      <trkpt lat="39.6640480" lon="-0.4452730">
        <ele>245.6</ele>
        <time>2022-11-06T06:16:49Z</time>
      </trkpt>
      <trkpt lat="39.6640400" lon="-0.4452220">
        <ele>245.5</ele>
        <time>2022-11-06T06:16:50Z</time>
      </trkpt>
      <trkpt lat="39.6640290" lon="-0.4451650">
        <ele>245.5</ele>
        <time>2022-11-06T06:16:51Z</time>
      </trkpt>
      <trkpt lat="39.6640290" lon="-0.4451080">
        <ele>245.4</ele>
        <time>2022-11-06T06:16:52Z</time>
      </trkpt>
      <trkpt lat="39.6640290" lon="-0.4451080">
        <ele>245.4</ele>
        <time>2022-11-06T06:16:53Z</time>
      </trkpt>
      <trkpt lat="39.6640540" lon="-0.4450070">
        <ele>245.3</ele>
        <time>2022-11-06T06:16:54Z</time>
      </trkpt>
      <trkpt lat="39.6640700" lon="-0.4449600">
        <ele>245.2</ele>
        <time>2022-11-06T06:16:55Z</time>
      </trkpt>
      <trkpt lat="39.6641020" lon="-0.4449320">
        <ele>245.1</ele>
        <time>2022-11-06T06:16:56Z</time>
      </trkpt>
      <trkpt lat="39.6641260" lon="-0.4448980">
        <ele>244.9</ele>
        <time>2022-11-06T06:16:57Z</time>
      </trkpt>
      <trkpt lat="39.6641610" lon="-0.4448700">
        <ele>244.8</ele>
        <time>2022-11-06T06:16:58Z</time>
      </trkpt>
      <trkpt lat="39.6642040" lon="-0.4448480">
        <ele>244.7</ele>
        <time>2022-11-06T06:16:59Z</time>
      </trkpt>
      <trkpt lat="39.6642390" lon="-0.4448120">
        <ele>244.5</ele>
        <time>2022-11-06T06:17:00Z</time>
      </trkpt>
      <trkpt lat="39.6642790" lon="-0.4447830">
        <ele>244.3</ele>
        <time>2022-11-06T06:17:01Z</time>
      </trkpt>
      <trkpt lat="39.6642790" lon="-0.4447830">
        <ele>244.3</ele>
        <time>2022-11-06T06:17:02Z</time>
      </trkpt>
      <trkpt lat="39.6642790" lon="-0.4447830">
        <ele>244.3</ele>
        <time>2022-11-06T06:17:03Z</time>
      </trkpt>
      <trkpt lat="39.6644240" lon="-0.4447000">
        <ele>243.8</ele>
        <time>2022-11-06T06:17:04Z</time>
      </trkpt>
      <trkpt lat="39.6644750" lon="-0.4446700">
        <ele>243.7</ele>
        <time>2022-11-06T06:17:05Z</time>
      </trkpt>
      <trkpt lat="39.6645280" lon="-0.4446370">
        <ele>243.6</ele>
        <time>2022-11-06T06:17:06Z</time>
      </trkpt>
      <trkpt lat="39.6645820" lon="-0.4446070">
        <ele>243.5</ele>
        <time>2022-11-06T06:17:07Z</time>
      </trkpt>
      <trkpt lat="39.6646360" lon="-0.4445730">
        <ele>243.5</ele>
        <time>2022-11-06T06:17:08Z</time>
      </trkpt>
      <trkpt lat="39.6646890" lon="-0.4445320">
        <ele>243.5</ele>
        <time>2022-11-06T06:17:09Z</time>
      </trkpt>
      <trkpt lat="39.6647400" lon="-0.4444930">
        <ele>243.5</ele>
        <time>2022-11-06T06:17:10Z</time>
      </trkpt>
      <trkpt lat="39.6647940" lon="-0.4444570">
        <ele>243.5</ele>
        <time>2022-11-06T06:17:11Z</time>
      </trkpt>
      <trkpt lat="39.6648450" lon="-0.4444230">
        <ele>243.5</ele>
        <time>2022-11-06T06:17:12Z</time>
      </trkpt>
      <trkpt lat="39.6648450" lon="-0.4444230">
        <ele>243.5</ele>
        <time>2022-11-06T06:17:13Z</time>
      </trkpt>
      <trkpt lat="39.6648450" lon="-0.4444230">
        <ele>243.5</ele>
        <time>2022-11-06T06:17:14Z</time>
      </trkpt>
      <trkpt lat="39.6649900" lon="-0.4443350">
        <ele>243.6</ele>
        <time>2022-11-06T06:17:15Z</time>
      </trkpt>
      <trkpt lat="39.6650330" lon="-0.4443070">
        <ele>243.6</ele>
        <time>2022-11-06T06:17:16Z</time>
      </trkpt>
      <trkpt lat="39.6650700" lon="-0.4442830">
        <ele>243.7</ele>
        <time>2022-11-06T06:17:17Z</time>
      </trkpt>
      <trkpt lat="39.6651100" lon="-0.4442620">
        <ele>243.7</ele>
        <time>2022-11-06T06:17:18Z</time>
      </trkpt>
      <trkpt lat="39.6651530" lon="-0.4442380">
        <ele>243.8</ele>
        <time>2022-11-06T06:17:19Z</time>
      </trkpt>
      <trkpt lat="39.6652040" lon="-0.4442150">
        <ele>243.9</ele>
        <time>2022-11-06T06:17:20Z</time>
      </trkpt>
      <trkpt lat="39.6652450" lon="-0.4441870">
        <ele>244.0</ele>
        <time>2022-11-06T06:17:21Z</time>
      </trkpt>
      <trkpt lat="39.6652900" lon="-0.4441580">
        <ele>244.2</ele>
        <time>2022-11-06T06:17:22Z</time>
      </trkpt>
      <trkpt lat="39.6652900" lon="-0.4441580">
        <ele>244.2</ele>
        <time>2022-11-06T06:17:23Z</time>
      </trkpt>
      <trkpt lat="39.6653890" lon="-0.4441230">
        <ele>244.5</ele>
        <time>2022-11-06T06:17:24Z</time>
      </trkpt>
      <trkpt lat="39.6654350" lon="-0.4441180">
        <ele>244.7</ele>
        <time>2022-11-06T06:17:25Z</time>
      </trkpt>
      <trkpt lat="39.6654810" lon="-0.4441250">
        <ele>244.9</ele>
        <time>2022-11-06T06:17:26Z</time>
      </trkpt>
      <trkpt lat="39.6655230" lon="-0.4441330">
        <ele>245.2</ele>
        <time>2022-11-06T06:17:27Z</time>
      </trkpt>
      <trkpt lat="39.6655660" lon="-0.4441450">
        <ele>245.4</ele>
        <time>2022-11-06T06:17:28Z</time>
      </trkpt>
      <trkpt lat="39.6655990" lon="-0.4441420">
        <ele>245.6</ele>
        <time>2022-11-06T06:17:29Z</time>
      </trkpt>
      <trkpt lat="39.6656410" lon="-0.4441450">
        <ele>245.9</ele>
        <time>2022-11-06T06:17:30Z</time>
      </trkpt>
      <trkpt lat="39.6656840" lon="-0.4441500">
        <ele>246.2</ele>
        <time>2022-11-06T06:17:31Z</time>
      </trkpt>
      <trkpt lat="39.6657220" lon="-0.4441430">
        <ele>246.4</ele>
        <time>2022-11-06T06:17:32Z</time>
      </trkpt>
      <trkpt lat="39.6657650" lon="-0.4441370">
        <ele>246.7</ele>
        <time>2022-11-06T06:17:33Z</time>
      </trkpt>
      <trkpt lat="39.6657650" lon="-0.4441370">
        <ele>246.7</ele>
        <time>2022-11-06T06:17:34Z</time>
      </trkpt>
      <trkpt lat="39.6658290" lon="-0.4440900">
        <ele>247.2</ele>
        <time>2022-11-06T06:17:35Z</time>
      </trkpt>
      <trkpt lat="39.6658670" lon="-0.4440620">
        <ele>247.5</ele>
        <time>2022-11-06T06:17:36Z</time>
      </trkpt>
      <trkpt lat="39.6658910" lon="-0.4440280">
        <ele>247.8</ele>
        <time>2022-11-06T06:17:37Z</time>
      </trkpt>
      <trkpt lat="39.6659180" lon="-0.4439930">
        <ele>248.0</ele>
        <time>2022-11-06T06:17:38Z</time>
      </trkpt>
      <trkpt lat="39.6659470" lon="-0.4439620">
        <ele>248.3</ele>
        <time>2022-11-06T06:17:39Z</time>
      </trkpt>
      <trkpt lat="39.6659770" lon="-0.4439330">
        <ele>248.5</ele>
        <time>2022-11-06T06:17:40Z</time>
      </trkpt>
      <trkpt lat="39.6660120" lon="-0.4438980">
        <ele>248.8</ele>
        <time>2022-11-06T06:17:41Z</time>
      </trkpt>
      <trkpt lat="39.6660380" lon="-0.4438720">
        <ele>249.1</ele>
        <time>2022-11-06T06:17:42Z</time>
      </trkpt>
      <trkpt lat="39.6660650" lon="-0.4438350">
        <ele>249.3</ele>
        <time>2022-11-06T06:17:43Z</time>
      </trkpt>
      <trkpt lat="39.6660650" lon="-0.4438350">
        <ele>249.3</ele>
        <time>2022-11-06T06:17:44Z</time>
      </trkpt>
      <trkpt lat="39.6661270" lon="-0.4437730">
        <ele>249.9</ele>
        <time>2022-11-06T06:17:45Z</time>
      </trkpt>
      <trkpt lat="39.6661560" lon="-0.4437430">
        <ele>250.2</ele>
        <time>2022-11-06T06:17:46Z</time>
      </trkpt>
      <trkpt lat="39.6661810" lon="-0.4437080">
        <ele>250.5</ele>
        <time>2022-11-06T06:17:47Z</time>
      </trkpt>
      <trkpt lat="39.6662020" lon="-0.4436720">
        <ele>250.7</ele>
        <time>2022-11-06T06:17:48Z</time>
      </trkpt>
      <trkpt lat="39.6662180" lon="-0.4436280">
        <ele>251.0</ele>
        <time>2022-11-06T06:17:49Z</time>
      </trkpt>
      <trkpt lat="39.6662260" lon="-0.4435900">
        <ele>251.2</ele>
        <time>2022-11-06T06:17:50Z</time>
      </trkpt>
      <trkpt lat="39.6662370" lon="-0.4435480">
        <ele>251.4</ele>
        <time>2022-11-06T06:17:51Z</time>
      </trkpt>
      <trkpt lat="39.6662290" lon="-0.4435030">
        <ele>251.5</ele>
        <time>2022-11-06T06:17:52Z</time>
      </trkpt>
      <trkpt lat="39.6662130" lon="-0.4434550">
        <ele>251.7</ele>
        <time>2022-11-06T06:17:53Z</time>
      </trkpt>
      <trkpt lat="39.6662130" lon="-0.4434550">
        <ele>251.7</ele>
        <time>2022-11-06T06:17:54Z</time>
      </trkpt>
      <trkpt lat="39.6662130" lon="-0.4434550">
        <ele>251.7</ele>
        <time>2022-11-06T06:17:55Z</time>
      </trkpt>
      <trkpt lat="39.6661560" lon="-0.4433620">
        <ele>252.0</ele>
        <time>2022-11-06T06:17:56Z</time>
      </trkpt>
      <trkpt lat="39.6661400" lon="-0.4433320">
        <ele>252.1</ele>
        <time>2022-11-06T06:17:57Z</time>
      </trkpt>
      <trkpt lat="39.6661220" lon="-0.4432970">
        <ele>252.1</ele>
        <time>2022-11-06T06:17:58Z</time>
      </trkpt>
      <trkpt lat="39.6661030" lon="-0.4432650">
        <ele>252.2</ele>
        <time>2022-11-06T06:17:59Z</time>
      </trkpt>
      <trkpt lat="39.6660760" lon="-0.4432330">
        <ele>252.2</ele>
        <time>2022-11-06T06:18:00Z</time>
      </trkpt>
      <trkpt lat="39.6660570" lon="-0.4431980">
        <ele>252.3</ele>
        <time>2022-11-06T06:18:01Z</time>
      </trkpt>
      <trkpt lat="39.6660360" lon="-0.4431600">
        <ele>252.3</ele>
        <time>2022-11-06T06:18:02Z</time>
      </trkpt>
      <trkpt lat="39.6660040" lon="-0.4431230">
        <ele>252.3</ele>
        <time>2022-11-06T06:18:03Z</time>
      </trkpt>
      <trkpt lat="39.6660040" lon="-0.4431230">
        <ele>252.3</ele>
        <time>2022-11-06T06:18:04Z</time>
      </trkpt>
      <trkpt lat="39.6660040" lon="-0.4431230">
        <ele>252.3</ele>
        <time>2022-11-06T06:18:05Z</time>
      </trkpt>
      <trkpt lat="39.6659310" lon="-0.4429920">
        <ele>252.3</ele>
        <time>2022-11-06T06:18:06Z</time>
      </trkpt>
      <trkpt lat="39.6659040" lon="-0.4429420">
        <ele>252.3</ele>
        <time>2022-11-06T06:18:07Z</time>
      </trkpt>
      <trkpt lat="39.6658830" lon="-0.4428870">
        <ele>252.4</ele>
        <time>2022-11-06T06:18:08Z</time>
      </trkpt>
      <trkpt lat="39.6658670" lon="-0.4428280">
        <ele>252.4</ele>
        <time>2022-11-06T06:18:09Z</time>
      </trkpt>
      <trkpt lat="39.6658430" lon="-0.4427680">
        <ele>252.5</ele>
        <time>2022-11-06T06:18:10Z</time>
      </trkpt>
      <trkpt lat="39.6658290" lon="-0.4427070">
        <ele>252.5</ele>
        <time>2022-11-06T06:18:11Z</time>
      </trkpt>
      <trkpt lat="39.6658190" lon="-0.4426530">
        <ele>252.6</ele>
        <time>2022-11-06T06:18:12Z</time>
      </trkpt>
      <trkpt lat="39.6658130" lon="-0.4425920">
        <ele>252.6</ele>
        <time>2022-11-06T06:18:13Z</time>
      </trkpt>
      <trkpt lat="39.6658130" lon="-0.4425250">
        <ele>252.7</ele>
        <time>2022-11-06T06:18:14Z</time>
      </trkpt>
      <trkpt lat="39.6658130" lon="-0.4425250">
        <ele>252.7</ele>
        <time>2022-11-06T06:18:15Z</time>
      </trkpt>
      <trkpt lat="39.6658190" lon="-0.4423920">
        <ele>252.8</ele>
        <time>2022-11-06T06:18:16Z</time>
      </trkpt>
      <trkpt lat="39.6658210" lon="-0.4423280">
        <ele>252.9</ele>
        <time>2022-11-06T06:18:17Z</time>
      </trkpt>
      <trkpt lat="39.6658240" lon="-0.4422700">
        <ele>252.9</ele>
        <time>2022-11-06T06:18:18Z</time>
      </trkpt>
      <trkpt lat="39.6658290" lon="-0.4422130">
        <ele>253.0</ele>
        <time>2022-11-06T06:18:19Z</time>
      </trkpt>
      <trkpt lat="39.6658370" lon="-0.4421580">
        <ele>253.1</ele>
        <time>2022-11-06T06:18:20Z</time>
      </trkpt>
      <trkpt lat="39.6658400" lon="-0.4421070">
        <ele>253.2</ele>
        <time>2022-11-06T06:18:21Z</time>
      </trkpt>
      <trkpt lat="39.6658480" lon="-0.4420570">
        <ele>253.4</ele>
        <time>2022-11-06T06:18:22Z</time>
      </trkpt>
      <trkpt lat="39.6658590" lon="-0.4420080">
        <ele>253.5</ele>
        <time>2022-11-06T06:18:23Z</time>
      </trkpt>
      <trkpt lat="39.6658750" lon="-0.4419620">
        <ele>253.7</ele>
        <time>2022-11-06T06:18:24Z</time>
      </trkpt>
      <trkpt lat="39.6658750" lon="-0.4419620">
        <ele>253.7</ele>
        <time>2022-11-06T06:18:25Z</time>
      </trkpt>
      <trkpt lat="39.6659040" lon="-0.4418750">
        <ele>254.0</ele>
        <time>2022-11-06T06:18:26Z</time>
      </trkpt>
      <trkpt lat="39.6659200" lon="-0.4418330">
        <ele>254.2</ele>
        <time>2022-11-06T06:18:27Z</time>
      </trkpt>
      <trkpt lat="39.6659390" lon="-0.4417930">
        <ele>254.4</ele>
        <time>2022-11-06T06:18:28Z</time>
      </trkpt>
      <trkpt lat="39.6659550" lon="-0.4417530">
        <ele>254.5</ele>
        <time>2022-11-06T06:18:29Z</time>
      </trkpt>
      <trkpt lat="39.6659740" lon="-0.4417150">
        <ele>254.7</ele>
        <time>2022-11-06T06:18:30Z</time>
      </trkpt>
      <trkpt lat="39.6659930" lon="-0.4416770">
        <ele>255.0</ele>
        <time>2022-11-06T06:18:31Z</time>
      </trkpt>
      <trkpt lat="39.6660120" lon="-0.4416400">
        <ele>255.2</ele>
        <time>2022-11-06T06:18:32Z</time>
      </trkpt>
      <trkpt lat="39.6660300" lon="-0.4416030">
        <ele>255.4</ele>
        <time>2022-11-06T06:18:33Z</time>
      </trkpt>
      <trkpt lat="39.6660470" lon="-0.4415670">
        <ele>255.6</ele>
        <time>2022-11-06T06:18:34Z</time>
      </trkpt>
      <trkpt lat="39.6660650" lon="-0.4415300">
        <ele>255.8</ele>
        <time>2022-11-06T06:18:35Z</time>
      </trkpt>
      <trkpt lat="39.6660650" lon="-0.4415300">
        <ele>255.8</ele>
        <time>2022-11-06T06:18:36Z</time>
      </trkpt>
      <trkpt lat="39.6661030" lon="-0.4414530">
        <ele>256.3</ele>
        <time>2022-11-06T06:18:37Z</time>
      </trkpt>
      <trkpt lat="39.6661220" lon="-0.4414180">
        <ele>256.5</ele>
        <time>2022-11-06T06:18:38Z</time>
      </trkpt>
      <trkpt lat="39.6661400" lon="-0.4413800">
        <ele>256.8</ele>
        <time>2022-11-06T06:18:39Z</time>
      </trkpt>
      <trkpt lat="39.6661560" lon="-0.4413430">
        <ele>257.0</ele>
        <time>2022-11-06T06:18:40Z</time>
      </trkpt>
      <trkpt lat="39.6661750" lon="-0.4413070">
        <ele>257.2</ele>
        <time>2022-11-06T06:18:41Z</time>
      </trkpt>
      <trkpt lat="39.6661940" lon="-0.4412700">
        <ele>257.5</ele>
        <time>2022-11-06T06:18:42Z</time>
      </trkpt>
      <trkpt lat="39.6662100" lon="-0.4412350">
        <ele>257.7</ele>
        <time>2022-11-06T06:18:43Z</time>
      </trkpt>
      <trkpt lat="39.6662290" lon="-0.4411980">
        <ele>257.9</ele>
        <time>2022-11-06T06:18:44Z</time>
      </trkpt>
      <trkpt lat="39.6662290" lon="-0.4411980">
        <ele>257.9</ele>
        <time>2022-11-06T06:18:45Z</time>
      </trkpt>
      <trkpt lat="39.6662290" lon="-0.4411980">
        <ele>257.9</ele>
        <time>2022-11-06T06:18:46Z</time>
      </trkpt>
      <trkpt lat="39.6662850" lon="-0.4410900">
        <ele>258.5</ele>
        <time>2022-11-06T06:18:47Z</time>
      </trkpt>
      <trkpt lat="39.6663010" lon="-0.4410530">
        <ele>258.7</ele>
        <time>2022-11-06T06:18:48Z</time>
      </trkpt>
      <trkpt lat="39.6663170" lon="-0.4410150">
        <ele>258.9</ele>
        <time>2022-11-06T06:18:49Z</time>
      </trkpt>
      <trkpt lat="39.6663280" lon="-0.4409730">
        <ele>259.1</ele>
        <time>2022-11-06T06:18:50Z</time>
      </trkpt>
      <trkpt lat="39.6663470" lon="-0.4409350">
        <ele>259.3</ele>
        <time>2022-11-06T06:18:51Z</time>
      </trkpt>
      <trkpt lat="39.6663580" lon="-0.4408970">
        <ele>259.5</ele>
        <time>2022-11-06T06:18:52Z</time>
      </trkpt>
      <trkpt lat="39.6663710" lon="-0.4408550">
        <ele>259.6</ele>
        <time>2022-11-06T06:18:53Z</time>
      </trkpt>
      <trkpt lat="39.6663840" lon="-0.4408130">
        <ele>259.8</ele>
        <time>2022-11-06T06:18:54Z</time>
      </trkpt>
      <trkpt lat="39.6663980" lon="-0.4407720">
        <ele>260.0</ele>
        <time>2022-11-06T06:18:55Z</time>
      </trkpt>
      <trkpt lat="39.6663980" lon="-0.4407720">
        <ele>260.0</ele>
        <time>2022-11-06T06:18:56Z</time>
      </trkpt>
      <trkpt lat="39.6663980" lon="-0.4407720">
        <ele>260.0</ele>
        <time>2022-11-06T06:18:57Z</time>
      </trkpt>
      <trkpt lat="39.6664430" lon="-0.4406470">
        <ele>260.3</ele>
        <time>2022-11-06T06:18:58Z</time>
      </trkpt>
      <trkpt lat="39.6664570" lon="-0.4406030">
        <ele>260.4</ele>
        <time>2022-11-06T06:18:59Z</time>
      </trkpt>
      <trkpt lat="39.6664780" lon="-0.4405600">
        <ele>260.5</ele>
        <time>2022-11-06T06:19:00Z</time>
      </trkpt>
      <trkpt lat="39.6665000" lon="-0.4405200">
        <ele>260.6</ele>
        <time>2022-11-06T06:19:01Z</time>
      </trkpt>
      <trkpt lat="39.6665240" lon="-0.4404820">
        <ele>260.7</ele>
        <time>2022-11-06T06:19:02Z</time>
      </trkpt>
      <trkpt lat="39.6665510" lon="-0.4404430">
        <ele>260.7</ele>
        <time>2022-11-06T06:19:03Z</time>
      </trkpt>
      <trkpt lat="39.6665780" lon="-0.4404050">
        <ele>260.8</ele>
        <time>2022-11-06T06:19:04Z</time>
      </trkpt>
      <trkpt lat="39.6666040" lon="-0.4403630">
        <ele>260.8</ele>
        <time>2022-11-06T06:19:05Z</time>
      </trkpt>
      <trkpt lat="39.6666040" lon="-0.4403630">
        <ele>260.8</ele>
        <time>2022-11-06T06:19:06Z</time>
      </trkpt>
      <trkpt lat="39.6666550" lon="-0.4402850">
        <ele>260.9</ele>
        <time>2022-11-06T06:19:07Z</time>
      </trkpt>
      <trkpt lat="39.6666820" lon="-0.4402480">
        <ele>260.9</ele>
        <time>2022-11-06T06:19:08Z</time>
      </trkpt>
      <trkpt lat="39.6667090" lon="-0.4402120">
        <ele>260.9</ele>
        <time>2022-11-06T06:19:09Z</time>
      </trkpt>
      <trkpt lat="39.6667410" lon="-0.4401720">
        <ele>260.9</ele>
        <time>2022-11-06T06:19:10Z</time>
      </trkpt>
      <trkpt lat="39.6667680" lon="-0.4401350">
        <ele>260.9</ele>
        <time>2022-11-06T06:19:11Z</time>
      </trkpt>
      <trkpt lat="39.6667950" lon="-0.4400930">
        <ele>261.0</ele>
        <time>2022-11-06T06:19:12Z</time>
      </trkpt>
      <trkpt lat="39.6668160" lon="-0.4400500">
        <ele>261.0</ele>
        <time>2022-11-06T06:19:13Z</time>
      </trkpt>
      <trkpt lat="39.6668430" lon="-0.4400070">
        <ele>261.0</ele>
        <time>2022-11-06T06:19:14Z</time>
      </trkpt>
      <trkpt lat="39.6668700" lon="-0.4399630">
        <ele>261.0</ele>
        <time>2022-11-06T06:19:15Z</time>
      </trkpt>
      <trkpt lat="39.6668970" lon="-0.4399230">
        <ele>261.1</ele>
        <time>2022-11-06T06:19:16Z</time>
      </trkpt>
      <trkpt lat="39.6668970" lon="-0.4399230">
        <ele>261.1</ele>
        <time>2022-11-06T06:19:17Z</time>
      </trkpt>
      <trkpt lat="39.6669480" lon="-0.4398380">
        <ele>261.2</ele>
        <time>2022-11-06T06:19:18Z</time>
      </trkpt>
      <trkpt lat="39.6669660" lon="-0.4397950">
        <ele>261.2</ele>
        <time>2022-11-06T06:19:19Z</time>
      </trkpt>
      <trkpt lat="39.6669880" lon="-0.4397500">
        <ele>261.2</ele>
        <time>2022-11-06T06:19:20Z</time>
      </trkpt>
      <trkpt lat="39.6670150" lon="-0.4397050">
        <ele>261.3</ele>
        <time>2022-11-06T06:19:21Z</time>
      </trkpt>
      <trkpt lat="39.6670390" lon="-0.4396600">
        <ele>261.3</ele>
        <time>2022-11-06T06:19:22Z</time>
      </trkpt>
      <trkpt lat="39.6670600" lon="-0.4396170">
        <ele>261.4</ele>
        <time>2022-11-06T06:19:23Z</time>
      </trkpt>
      <trkpt lat="39.6670790" lon="-0.4395730">
        <ele>261.4</ele>
        <time>2022-11-06T06:19:24Z</time>
      </trkpt>
      <trkpt lat="39.6671030" lon="-0.4395300">
        <ele>261.5</ele>
        <time>2022-11-06T06:19:25Z</time>
      </trkpt>
      <trkpt lat="39.6671030" lon="-0.4395300">
        <ele>261.5</ele>
        <time>2022-11-06T06:19:26Z</time>
      </trkpt>
      <trkpt lat="39.6671030" lon="-0.4395300">
        <ele>261.5</ele>
        <time>2022-11-06T06:19:27Z</time>
      </trkpt>
      <trkpt lat="39.6671840" lon="-0.4394100">
        <ele>261.6</ele>
        <time>2022-11-06T06:19:28Z</time>
      </trkpt>
      <trkpt lat="39.6672160" lon="-0.4393820">
        <ele>261.7</ele>
        <time>2022-11-06T06:19:29Z</time>
      </trkpt>
      <trkpt lat="39.6672510" lon="-0.4393620">
        <ele>261.7</ele>
        <time>2022-11-06T06:19:30Z</time>
      </trkpt>
      <trkpt lat="39.6672910" lon="-0.4393470">
        <ele>261.8</ele>
        <time>2022-11-06T06:19:31Z</time>
      </trkpt>
      <trkpt lat="39.6673290" lon="-0.4393350">
        <ele>261.8</ele>
        <time>2022-11-06T06:19:32Z</time>
      </trkpt>
      <trkpt lat="39.6673660" lon="-0.4393250">
        <ele>261.9</ele>
        <time>2022-11-06T06:19:33Z</time>
      </trkpt>
      <trkpt lat="39.6674040" lon="-0.4393170">
        <ele>262.0</ele>
        <time>2022-11-06T06:19:34Z</time>
      </trkpt>
      <trkpt lat="39.6674390" lon="-0.4393070">
        <ele>262.0</ele>
        <time>2022-11-06T06:19:35Z</time>
      </trkpt>
      <trkpt lat="39.6674810" lon="-0.4392980">
        <ele>262.1</ele>
        <time>2022-11-06T06:19:36Z</time>
      </trkpt>
      <trkpt lat="39.6674810" lon="-0.4392980">
        <ele>262.1</ele>
        <time>2022-11-06T06:19:37Z</time>
      </trkpt>
      <trkpt lat="39.6674810" lon="-0.4392980">
        <ele>262.1</ele>
        <time>2022-11-06T06:19:38Z</time>
      </trkpt>
      <trkpt lat="39.6675990" lon="-0.4392780">
        <ele>262.4</ele>
        <time>2022-11-06T06:19:39Z</time>
      </trkpt>
      <trkpt lat="39.6676370" lon="-0.4392700">
        <ele>262.4</ele>
        <time>2022-11-06T06:19:40Z</time>
      </trkpt>
      <trkpt lat="39.6676800" lon="-0.4392620">
        <ele>262.5</ele>
        <time>2022-11-06T06:19:41Z</time>
      </trkpt>
      <trkpt lat="39.6677180" lon="-0.4392530">
        <ele>262.6</ele>
        <time>2022-11-06T06:19:42Z</time>
      </trkpt>
      <trkpt lat="39.6677580" lon="-0.4392430">
        <ele>262.7</ele>
        <time>2022-11-06T06:19:43Z</time>
      </trkpt>
      <trkpt lat="39.6678010" lon="-0.4392370">
        <ele>262.8</ele>
        <time>2022-11-06T06:19:44Z</time>
      </trkpt>
      <trkpt lat="39.6678380" lon="-0.4392280">
        <ele>262.9</ele>
        <time>2022-11-06T06:19:45Z</time>
      </trkpt>
      <trkpt lat="39.6678810" lon="-0.4392200">
        <ele>263.0</ele>
        <time>2022-11-06T06:19:46Z</time>
      </trkpt>
      <trkpt lat="39.6679620" lon="-0.4392070">
        <ele>263.1</ele>
        <time>2022-11-06T06:19:47Z</time>
      </trkpt>
      <trkpt lat="39.6679620" lon="-0.4392070">
        <ele>263.1</ele>
        <time>2022-11-06T06:19:48Z</time>
      </trkpt>
      <trkpt lat="39.6680020" lon="-0.4392030">
        <ele>263.2</ele>
        <time>2022-11-06T06:19:49Z</time>
      </trkpt>
      <trkpt lat="39.6680420" lon="-0.4391950">
        <ele>263.3</ele>
        <time>2022-11-06T06:19:50Z</time>
      </trkpt>
      <trkpt lat="39.6680800" lon="-0.4391880">
        <ele>263.4</ele>
        <time>2022-11-06T06:19:51Z</time>
      </trkpt>
      <trkpt lat="39.6681170" lon="-0.4391820">
        <ele>263.4</ele>
        <time>2022-11-06T06:19:52Z</time>
      </trkpt>
      <trkpt lat="39.6681520" lon="-0.4391700">
        <ele>263.5</ele>
        <time>2022-11-06T06:19:53Z</time>
      </trkpt>
      <trkpt lat="39.6681900" lon="-0.4391580">
        <ele>263.6</ele>
        <time>2022-11-06T06:19:54Z</time>
      </trkpt>
      <trkpt lat="39.6682270" lon="-0.4391500">
        <ele>263.7</ele>
        <time>2022-11-06T06:19:55Z</time>
      </trkpt>
      <trkpt lat="39.6682620" lon="-0.4391430">
        <ele>263.7</ele>
        <time>2022-11-06T06:19:56Z</time>
      </trkpt>
      <trkpt lat="39.6682970" lon="-0.4391450">
        <ele>263.8</ele>
        <time>2022-11-06T06:19:57Z</time>
      </trkpt>
      <trkpt lat="39.6682970" lon="-0.4391450">
        <ele>263.8</ele>
        <time>2022-11-06T06:19:58Z</time>
      </trkpt>
      <trkpt lat="39.6683670" lon="-0.4391730">
        <ele>264.0</ele>
        <time>2022-11-06T06:19:59Z</time>
      </trkpt>
      <trkpt lat="39.6683960" lon="-0.4392000">
        <ele>264.5</ele>
        <time>2022-11-06T06:20:00Z</time>
      </trkpt>
      <trkpt lat="39.6684230" lon="-0.4392250">
        <ele>264.7</ele>
        <time>2022-11-06T06:20:01Z</time>
      </trkpt>
      <trkpt lat="39.6684500" lon="-0.4392480">
        <ele>264.9</ele>
        <time>2022-11-06T06:20:02Z</time>
      </trkpt>
      <trkpt lat="39.6684710" lon="-0.4392720">
        <ele>265.1</ele>
        <time>2022-11-06T06:20:03Z</time>
      </trkpt>
      <trkpt lat="39.6684980" lon="-0.4392900">
        <ele>265.4</ele>
        <time>2022-11-06T06:20:04Z</time>
      </trkpt>
      <trkpt lat="39.6685250" lon="-0.4393020">
        <ele>265.7</ele>
        <time>2022-11-06T06:20:05Z</time>
      </trkpt>
      <trkpt lat="39.6685600" lon="-0.4393080">
        <ele>266.0</ele>
        <time>2022-11-06T06:20:06Z</time>
      </trkpt>
      <trkpt lat="39.6685890" lon="-0.4393170">
        <ele>266.3</ele>
        <time>2022-11-06T06:20:07Z</time>
      </trkpt>
      <trkpt lat="39.6686510" lon="-0.4393200">
        <ele>266.9</ele>
        <time>2022-11-06T06:20:08Z</time>
      </trkpt>
      <trkpt lat="39.6686510" lon="-0.4393200">
        <ele>266.9</ele>
        <time>2022-11-06T06:20:09Z</time>
      </trkpt>
      <trkpt lat="39.6686830" lon="-0.4393230">
        <ele>267.3</ele>
        <time>2022-11-06T06:20:10Z</time>
      </trkpt>
      <trkpt lat="39.6687130" lon="-0.4393270">
        <ele>267.6</ele>
        <time>2022-11-06T06:20:11Z</time>
      </trkpt>
      <trkpt lat="39.6687420" lon="-0.4393330">
        <ele>267.9</ele>
        <time>2022-11-06T06:20:12Z</time>
      </trkpt>
      <trkpt lat="39.6687690" lon="-0.4393400">
        <ele>268.2</ele>
        <time>2022-11-06T06:20:13Z</time>
      </trkpt>
      <trkpt lat="39.6688010" lon="-0.4393450">
        <ele>268.5</ele>
        <time>2022-11-06T06:20:14Z</time>
      </trkpt>
      <trkpt lat="39.6688310" lon="-0.4393520">
        <ele>268.8</ele>
        <time>2022-11-06T06:20:15Z</time>
      </trkpt>
      <trkpt lat="39.6688600" lon="-0.4393580">
        <ele>269.1</ele>
        <time>2022-11-06T06:20:16Z</time>
      </trkpt>
      <trkpt lat="39.6688870" lon="-0.4393650">
        <ele>269.5</ele>
        <time>2022-11-06T06:20:17Z</time>
      </trkpt>
      <trkpt lat="39.6688870" lon="-0.4393650">
        <ele>269.5</ele>
        <time>2022-11-06T06:20:18Z</time>
      </trkpt>
      <trkpt lat="39.6688870" lon="-0.4393650">
        <ele>269.5</ele>
        <time>2022-11-06T06:20:19Z</time>
      </trkpt>
      <trkpt lat="39.6689650" lon="-0.4394000">
        <ele>270.5</ele>
        <time>2022-11-06T06:20:20Z</time>
      </trkpt>
      <trkpt lat="39.6689860" lon="-0.4394120">
        <ele>270.8</ele>
        <time>2022-11-06T06:20:21Z</time>
      </trkpt>
      <trkpt lat="39.6690100" lon="-0.4394230">
        <ele>271.1</ele>
        <time>2022-11-06T06:20:22Z</time>
      </trkpt>
      <trkpt lat="39.6690320" lon="-0.4394330">
        <ele>271.4</ele>
        <time>2022-11-06T06:20:23Z</time>
      </trkpt>
      <trkpt lat="39.6690560" lon="-0.4394430">
        <ele>271.8</ele>
        <time>2022-11-06T06:20:24Z</time>
      </trkpt>
      <trkpt lat="39.6690750" lon="-0.4394520">
        <ele>272.1</ele>
        <time>2022-11-06T06:20:25Z</time>
      </trkpt>
      <trkpt lat="39.6690990" lon="-0.4394580">
        <ele>272.4</ele>
        <time>2022-11-06T06:20:26Z</time>
      </trkpt>
      <trkpt lat="39.6691200" lon="-0.4394670">
        <ele>272.8</ele>
        <time>2022-11-06T06:20:27Z</time>
      </trkpt>
      <trkpt lat="39.6691200" lon="-0.4394670">
        <ele>272.8</ele>
        <time>2022-11-06T06:20:28Z</time>
      </trkpt>
      <trkpt lat="39.6691820" lon="-0.4394880">
        <ele>273.7</ele>
        <time>2022-11-06T06:20:29Z</time>
      </trkpt>
      <trkpt lat="39.6691820" lon="-0.4394880">
        <ele>273.7</ele>
        <time>2022-11-06T06:20:30Z</time>
      </trkpt>
      <trkpt lat="39.6692010" lon="-0.4394970">
        <ele>274.0</ele>
        <time>2022-11-06T06:20:31Z</time>
      </trkpt>
      <trkpt lat="39.6692200" lon="-0.4394980">
        <ele>274.3</ele>
        <time>2022-11-06T06:20:32Z</time>
      </trkpt>
      <trkpt lat="39.6692440" lon="-0.4394980">
        <ele>274.6</ele>
        <time>2022-11-06T06:20:33Z</time>
      </trkpt>
      <trkpt lat="39.6692650" lon="-0.4395000">
        <ele>274.9</ele>
        <time>2022-11-06T06:20:34Z</time>
      </trkpt>
      <trkpt lat="39.6692890" lon="-0.4395050">
        <ele>275.2</ele>
        <time>2022-11-06T06:20:35Z</time>
      </trkpt>
      <trkpt lat="39.6693110" lon="-0.4395050">
        <ele>275.5</ele>
        <time>2022-11-06T06:20:36Z</time>
      </trkpt>
      <trkpt lat="39.6693380" lon="-0.4395020">
        <ele>275.8</ele>
        <time>2022-11-06T06:20:37Z</time>
      </trkpt>
      <trkpt lat="39.6693620" lon="-0.4395030">
        <ele>276.1</ele>
        <time>2022-11-06T06:20:38Z</time>
      </trkpt>
      <trkpt lat="39.6694100" lon="-0.4395020">
        <ele>276.7</ele>
        <time>2022-11-06T06:20:39Z</time>
      </trkpt>
      <trkpt lat="39.6694100" lon="-0.4395020">
        <ele>276.7</ele>
        <time>2022-11-06T06:20:40Z</time>
      </trkpt>
      <trkpt lat="39.6694340" lon="-0.4395000">
        <ele>277.0</ele>
        <time>2022-11-06T06:20:41Z</time>
      </trkpt>
      <trkpt lat="39.6694610" lon="-0.4394950">
        <ele>277.3</ele>
        <time>2022-11-06T06:20:42Z</time>
      </trkpt>
      <trkpt lat="39.6694820" lon="-0.4394930">
        <ele>277.6</ele>
        <time>2022-11-06T06:20:43Z</time>
      </trkpt>
      <trkpt lat="39.6695090" lon="-0.4394920">
        <ele>277.9</ele>
        <time>2022-11-06T06:20:44Z</time>
      </trkpt>
      <trkpt lat="39.6695330" lon="-0.4394950">
        <ele>278.2</ele>
        <time>2022-11-06T06:20:45Z</time>
      </trkpt>
      <trkpt lat="39.6695550" lon="-0.4394950">
        <ele>278.4</ele>
        <time>2022-11-06T06:20:46Z</time>
      </trkpt>
      <trkpt lat="39.6695790" lon="-0.4394950">
        <ele>278.7</ele>
        <time>2022-11-06T06:20:47Z</time>
      </trkpt>
      <trkpt lat="39.6696000" lon="-0.4394920">
        <ele>279.0</ele>
        <time>2022-11-06T06:20:48Z</time>
      </trkpt>
      <trkpt lat="39.6696430" lon="-0.4394930">
        <ele>279.5</ele>
        <time>2022-11-06T06:20:49Z</time>
      </trkpt>
      <trkpt lat="39.6696670" lon="-0.4394970">
        <ele>279.8</ele>
        <time>2022-11-06T06:20:50Z</time>
      </trkpt>
      <trkpt lat="39.6696670" lon="-0.4394970">
        <ele>279.8</ele>
        <time>2022-11-06T06:20:51Z</time>
      </trkpt>
      <trkpt lat="39.6696860" lon="-0.4395030">
        <ele>280.0</ele>
        <time>2022-11-06T06:20:52Z</time>
      </trkpt>
      <trkpt lat="39.6697080" lon="-0.4395100">
        <ele>280.3</ele>
        <time>2022-11-06T06:20:53Z</time>
      </trkpt>
      <trkpt lat="39.6697350" lon="-0.4395130">
        <ele>280.6</ele>
        <time>2022-11-06T06:20:54Z</time>
      </trkpt>
      <trkpt lat="39.6697530" lon="-0.4395170">
        <ele>280.9</ele>
        <time>2022-11-06T06:20:55Z</time>
      </trkpt>
      <trkpt lat="39.6697770" lon="-0.4395200">
        <ele>281.2</ele>
        <time>2022-11-06T06:20:56Z</time>
      </trkpt>
      <trkpt lat="39.6697990" lon="-0.4395270">
        <ele>281.5</ele>
        <time>2022-11-06T06:20:57Z</time>
      </trkpt>
      <trkpt lat="39.6698230" lon="-0.4395330">
        <ele>281.8</ele>
        <time>2022-11-06T06:20:58Z</time>
      </trkpt>
      <trkpt lat="39.6698450" lon="-0.4395380">
        <ele>282.0</ele>
        <time>2022-11-06T06:20:59Z</time>
      </trkpt>
      <trkpt lat="39.6698900" lon="-0.4395480">
        <ele>282.6</ele>
        <time>2022-11-06T06:21:00Z</time>
      </trkpt>
      <trkpt lat="39.6698900" lon="-0.4395480">
        <ele>282.6</ele>
        <time>2022-11-06T06:21:01Z</time>
      </trkpt>
      <trkpt lat="39.6699140" lon="-0.4395480">
        <ele>282.9</ele>
        <time>2022-11-06T06:21:02Z</time>
      </trkpt>
      <trkpt lat="39.6699380" lon="-0.4395500">
        <ele>283.2</ele>
        <time>2022-11-06T06:21:03Z</time>
      </trkpt>
      <trkpt lat="39.6699600" lon="-0.4395550">
        <ele>283.4</ele>
        <time>2022-11-06T06:21:04Z</time>
      </trkpt>
      <trkpt lat="39.6699870" lon="-0.4395620">
        <ele>283.7</ele>
        <time>2022-11-06T06:21:05Z</time>
      </trkpt>
      <trkpt lat="39.6700050" lon="-0.4395680">
        <ele>283.9</ele>
        <time>2022-11-06T06:21:06Z</time>
      </trkpt>
      <trkpt lat="39.6700300" lon="-0.4395780">
        <ele>284.2</ele>
        <time>2022-11-06T06:21:07Z</time>
      </trkpt>
      <trkpt lat="39.6700510" lon="-0.4395880">
        <ele>284.4</ele>
        <time>2022-11-06T06:21:08Z</time>
      </trkpt>
      <trkpt lat="39.6700510" lon="-0.4395880">
        <ele>284.4</ele>
        <time>2022-11-06T06:21:09Z</time>
      </trkpt>
      <trkpt lat="39.6701290" lon="-0.4396150">
        <ele>285.1</ele>
        <time>2022-11-06T06:21:10Z</time>
      </trkpt>
      <trkpt lat="39.6701500" lon="-0.4396300">
        <ele>285.3</ele>
        <time>2022-11-06T06:21:11Z</time>
      </trkpt>
      <trkpt lat="39.6701500" lon="-0.4396300">
        <ele>285.3</ele>
        <time>2022-11-06T06:21:12Z</time>
      </trkpt>
      <trkpt lat="39.6701740" lon="-0.4396430">
        <ele>285.5</ele>
        <time>2022-11-06T06:21:13Z</time>
      </trkpt>
      <trkpt lat="39.6701960" lon="-0.4396580">
        <ele>285.7</ele>
        <time>2022-11-06T06:21:14Z</time>
      </trkpt>
      <trkpt lat="39.6702230" lon="-0.4396730">
        <ele>286.0</ele>
        <time>2022-11-06T06:21:15Z</time>
      </trkpt>
      <trkpt lat="39.6702470" lon="-0.4396870">
        <ele>286.2</ele>
        <time>2022-11-06T06:21:16Z</time>
      </trkpt>
      <trkpt lat="39.6702680" lon="-0.4397030">
        <ele>286.4</ele>
        <time>2022-11-06T06:21:17Z</time>
      </trkpt>
      <trkpt lat="39.6702870" lon="-0.4397220">
        <ele>286.6</ele>
        <time>2022-11-06T06:21:18Z</time>
      </trkpt>
      <trkpt lat="39.6703060" lon="-0.4397420">
        <ele>286.8</ele>
        <time>2022-11-06T06:21:19Z</time>
      </trkpt>
      <trkpt lat="39.6703060" lon="-0.4397420">
        <ele>286.8</ele>
        <time>2022-11-06T06:21:20Z</time>
      </trkpt>
      <trkpt lat="39.6703680" lon="-0.4398000">
        <ele>287.5</ele>
        <time>2022-11-06T06:21:21Z</time>
      </trkpt>
      <trkpt lat="39.6703680" lon="-0.4398000">
        <ele>287.5</ele>
        <time>2022-11-06T06:21:22Z</time>
      </trkpt>
      <trkpt lat="39.6703920" lon="-0.4398180">
        <ele>287.8</ele>
        <time>2022-11-06T06:21:23Z</time>
      </trkpt>
      <trkpt lat="39.6704100" lon="-0.4398380">
        <ele>288.0</ele>
        <time>2022-11-06T06:21:24Z</time>
      </trkpt>
      <trkpt lat="39.6704290" lon="-0.4398570">
        <ele>288.3</ele>
        <time>2022-11-06T06:21:25Z</time>
      </trkpt>
      <trkpt lat="39.6704480" lon="-0.4398770">
        <ele>288.5</ele>
        <time>2022-11-06T06:21:26Z</time>
      </trkpt>
      <trkpt lat="39.6704720" lon="-0.4399020">
        <ele>288.9</ele>
        <time>2022-11-06T06:21:27Z</time>
      </trkpt>
      <trkpt lat="39.6704860" lon="-0.4399250">
        <ele>289.1</ele>
        <time>2022-11-06T06:21:28Z</time>
      </trkpt>
      <trkpt lat="39.6705020" lon="-0.4399520">
        <ele>289.4</ele>
        <time>2022-11-06T06:21:29Z</time>
      </trkpt>
      <trkpt lat="39.6705310" lon="-0.4400000">
        <ele>289.9</ele>
        <time>2022-11-06T06:21:30Z</time>
      </trkpt>
      <trkpt lat="39.6705390" lon="-0.4400250">
        <ele>290.1</ele>
        <time>2022-11-06T06:21:31Z</time>
      </trkpt>
      <trkpt lat="39.6705530" lon="-0.4400520">
        <ele>290.3</ele>
        <time>2022-11-06T06:21:32Z</time>
      </trkpt>
      <trkpt lat="39.6705530" lon="-0.4400520">
        <ele>290.3</ele>
        <time>2022-11-06T06:21:33Z</time>
      </trkpt>
      <trkpt lat="39.6705580" lon="-0.4400800">
        <ele>290.5</ele>
        <time>2022-11-06T06:21:34Z</time>
      </trkpt>
      <trkpt lat="39.6705660" lon="-0.4401080">
        <ele>290.8</ele>
        <time>2022-11-06T06:21:35Z</time>
      </trkpt>
      <trkpt lat="39.6705770" lon="-0.4401380">
        <ele>291.0</ele>
        <time>2022-11-06T06:21:36Z</time>
      </trkpt>
      <trkpt lat="39.6705850" lon="-0.4401680">
        <ele>291.1</ele>
        <time>2022-11-06T06:21:37Z</time>
      </trkpt>
      <trkpt lat="39.6705930" lon="-0.4402020">
        <ele>291.4</ele>
        <time>2022-11-06T06:21:38Z</time>
      </trkpt>
      <trkpt lat="39.6706040" lon="-0.4402380">
        <ele>291.6</ele>
        <time>2022-11-06T06:21:39Z</time>
      </trkpt>
      <trkpt lat="39.6706120" lon="-0.4402730">
        <ele>291.7</ele>
        <time>2022-11-06T06:21:40Z</time>
      </trkpt>
      <trkpt lat="39.6706380" lon="-0.4403450">
        <ele>292.1</ele>
        <time>2022-11-06T06:21:41Z</time>
      </trkpt>
      <trkpt lat="39.6706490" lon="-0.4403800">
        <ele>292.3</ele>
        <time>2022-11-06T06:21:42Z</time>
      </trkpt>
      <trkpt lat="39.6706490" lon="-0.4403800">
        <ele>292.3</ele>
        <time>2022-11-06T06:21:43Z</time>
      </trkpt>
      <trkpt lat="39.6706710" lon="-0.4404130">
        <ele>292.5</ele>
        <time>2022-11-06T06:21:44Z</time>
      </trkpt>
      <trkpt lat="39.6706840" lon="-0.4404470">
        <ele>292.6</ele>
        <time>2022-11-06T06:21:45Z</time>
      </trkpt>
      <trkpt lat="39.6707030" lon="-0.4404770">
        <ele>292.8</ele>
        <time>2022-11-06T06:21:46Z</time>
      </trkpt>
      <trkpt lat="39.6707270" lon="-0.4405080">
        <ele>293.0</ele>
        <time>2022-11-06T06:21:47Z</time>
      </trkpt>
      <trkpt lat="39.6707480" lon="-0.4405400">
        <ele>293.2</ele>
        <time>2022-11-06T06:21:48Z</time>
      </trkpt>
      <trkpt lat="39.6707730" lon="-0.4405670">
        <ele>293.3</ele>
        <time>2022-11-06T06:21:49Z</time>
      </trkpt>
      <trkpt lat="39.6707730" lon="-0.4405670">
        <ele>293.3</ele>
        <time>2022-11-06T06:21:50Z</time>
      </trkpt>
      <trkpt lat="39.6708480" lon="-0.4406380">
        <ele>293.8</ele>
        <time>2022-11-06T06:21:51Z</time>
      </trkpt>
      <trkpt lat="39.6708740" lon="-0.4406600">
        <ele>294.0</ele>
        <time>2022-11-06T06:21:52Z</time>
      </trkpt>
      <trkpt lat="39.6709010" lon="-0.4406850">
        <ele>294.2</ele>
        <time>2022-11-06T06:21:53Z</time>
      </trkpt>
      <trkpt lat="39.6709010" lon="-0.4406850">
        <ele>294.2</ele>
        <time>2022-11-06T06:21:54Z</time>
      </trkpt>
      <trkpt lat="39.6709330" lon="-0.4407070">
        <ele>294.3</ele>
        <time>2022-11-06T06:21:55Z</time>
      </trkpt>
      <trkpt lat="39.6709630" lon="-0.4407270">
        <ele>294.5</ele>
        <time>2022-11-06T06:21:56Z</time>
      </trkpt>
      <trkpt lat="39.6709900" lon="-0.4407500">
        <ele>294.6</ele>
        <time>2022-11-06T06:21:57Z</time>
      </trkpt>
      <trkpt lat="39.6710190" lon="-0.4407720">
        <ele>294.8</ele>
        <time>2022-11-06T06:21:58Z</time>
      </trkpt>
      <trkpt lat="39.6710540" lon="-0.4407900">
        <ele>294.9</ele>
        <time>2022-11-06T06:21:59Z</time>
      </trkpt>
      <trkpt lat="39.6710860" lon="-0.4408050">
        <ele>295.1</ele>
        <time>2022-11-06T06:22:00Z</time>
      </trkpt>
      <trkpt lat="39.6710860" lon="-0.4408050">
        <ele>295.1</ele>
        <time>2022-11-06T06:22:01Z</time>
      </trkpt>
      <trkpt lat="39.6711880" lon="-0.4408380">
        <ele>295.5</ele>
        <time>2022-11-06T06:22:02Z</time>
      </trkpt>
      <trkpt lat="39.6712230" lon="-0.4408430">
        <ele>295.6</ele>
        <time>2022-11-06T06:22:03Z</time>
      </trkpt>
      <trkpt lat="39.6712230" lon="-0.4408430">
        <ele>295.6</ele>
        <time>2022-11-06T06:22:04Z</time>
      </trkpt>
      <trkpt lat="39.6712580" lon="-0.4408530">
        <ele>295.7</ele>
        <time>2022-11-06T06:22:05Z</time>
      </trkpt>
      <trkpt lat="39.6712960" lon="-0.4408630">
        <ele>295.9</ele>
        <time>2022-11-06T06:22:06Z</time>
      </trkpt>
      <trkpt lat="39.6713330" lon="-0.4408770">
        <ele>296.0</ele>
        <time>2022-11-06T06:22:07Z</time>
      </trkpt>
      <trkpt lat="39.6713680" lon="-0.4408930">
        <ele>296.2</ele>
        <time>2022-11-06T06:22:08Z</time>
      </trkpt>
      <trkpt lat="39.6714030" lon="-0.4409150">
        <ele>296.3</ele>
        <time>2022-11-06T06:22:09Z</time>
      </trkpt>
      <trkpt lat="39.6714350" lon="-0.4409380">
        <ele>296.5</ele>
        <time>2022-11-06T06:22:10Z</time>
      </trkpt>
      <trkpt lat="39.6714970" lon="-0.4409950">
        <ele>296.8</ele>
        <time>2022-11-06T06:22:11Z</time>
      </trkpt>
      <trkpt lat="39.6715290" lon="-0.4410270">
        <ele>296.9</ele>
        <time>2022-11-06T06:22:12Z</time>
      </trkpt>
      <trkpt lat="39.6715560" lon="-0.4410630">
        <ele>297.1</ele>
        <time>2022-11-06T06:22:13Z</time>
      </trkpt>
      <trkpt lat="39.6715830" lon="-0.4411020">
        <ele>297.2</ele>
        <time>2022-11-06T06:22:14Z</time>
      </trkpt>
      <trkpt lat="39.6715830" lon="-0.4411020">
        <ele>297.2</ele>
        <time>2022-11-06T06:22:15Z</time>
      </trkpt>
      <trkpt lat="39.6716040" lon="-0.4411420">
        <ele>297.4</ele>
        <time>2022-11-06T06:22:16Z</time>
      </trkpt>
      <trkpt lat="39.6716280" lon="-0.4411820">
        <ele>297.5</ele>
        <time>2022-11-06T06:22:17Z</time>
      </trkpt>
      <trkpt lat="39.6716500" lon="-0.4412230">
        <ele>297.7</ele>
        <time>2022-11-06T06:22:18Z</time>
      </trkpt>
      <trkpt lat="39.6716740" lon="-0.4412630">
        <ele>297.8</ele>
        <time>2022-11-06T06:22:19Z</time>
      </trkpt>
      <trkpt lat="39.6716950" lon="-0.4413050">
        <ele>298.0</ele>
        <time>2022-11-06T06:22:20Z</time>
      </trkpt>
      <trkpt lat="39.6717220" lon="-0.4413480">
        <ele>298.1</ele>
        <time>2022-11-06T06:22:21Z</time>
      </trkpt>
      <trkpt lat="39.6717730" lon="-0.4414330">
        <ele>298.4</ele>
        <time>2022-11-06T06:22:22Z</time>
      </trkpt>
      <trkpt lat="39.6717940" lon="-0.4414770">
        <ele>298.5</ele>
        <time>2022-11-06T06:22:23Z</time>
      </trkpt>
      <trkpt lat="39.6718190" lon="-0.4415250">
        <ele>298.7</ele>
        <time>2022-11-06T06:22:24Z</time>
      </trkpt>
      <trkpt lat="39.6718190" lon="-0.4415250">
        <ele>298.7</ele>
        <time>2022-11-06T06:22:25Z</time>
      </trkpt>
      <trkpt lat="39.6718400" lon="-0.4415750">
        <ele>298.8</ele>
        <time>2022-11-06T06:22:26Z</time>
      </trkpt>
      <trkpt lat="39.6718640" lon="-0.4416230">
        <ele>298.9</ele>
        <time>2022-11-06T06:22:27Z</time>
      </trkpt>
      <trkpt lat="39.6718910" lon="-0.4416700">
        <ele>299.0</ele>
        <time>2022-11-06T06:22:28Z</time>
      </trkpt>
      <trkpt lat="39.6719180" lon="-0.4417170">
        <ele>299.1</ele>
        <time>2022-11-06T06:22:29Z</time>
      </trkpt>
      <trkpt lat="39.6719390" lon="-0.4417650">
        <ele>299.2</ele>
        <time>2022-11-06T06:22:30Z</time>
      </trkpt>
      <trkpt lat="39.6719660" lon="-0.4418150">
        <ele>299.3</ele>
        <time>2022-11-06T06:22:31Z</time>
      </trkpt>
      <trkpt lat="39.6720200" lon="-0.4419170">
        <ele>299.5</ele>
        <time>2022-11-06T06:22:32Z</time>
      </trkpt>
      <trkpt lat="39.6720470" lon="-0.4419670">
        <ele>299.7</ele>
        <time>2022-11-06T06:22:33Z</time>
      </trkpt>
      <trkpt lat="39.6720760" lon="-0.4420150">
        <ele>299.8</ele>
        <time>2022-11-06T06:22:34Z</time>
      </trkpt>
      <trkpt lat="39.6721080" lon="-0.4420630">
        <ele>299.9</ele>
        <time>2022-11-06T06:22:35Z</time>
      </trkpt>
      <trkpt lat="39.6721080" lon="-0.4420630">
        <ele>299.9</ele>
        <time>2022-11-06T06:22:36Z</time>
      </trkpt>
      <trkpt lat="39.6721430" lon="-0.4421080">
        <ele>300.0</ele>
        <time>2022-11-06T06:22:37Z</time>
      </trkpt>
      <trkpt lat="39.6721750" lon="-0.4421530">
        <ele>300.2</ele>
        <time>2022-11-06T06:22:38Z</time>
      </trkpt>
      <trkpt lat="39.6722080" lon="-0.4421970">
        <ele>300.3</ele>
        <time>2022-11-06T06:22:39Z</time>
      </trkpt>
      <trkpt lat="39.6722370" lon="-0.4422350">
        <ele>300.5</ele>
        <time>2022-11-06T06:22:40Z</time>
      </trkpt>
      <trkpt lat="39.6722720" lon="-0.4422770">
        <ele>300.7</ele>
        <time>2022-11-06T06:22:41Z</time>
      </trkpt>
      <trkpt lat="39.6722720" lon="-0.4422770">
        <ele>300.7</ele>
        <time>2022-11-06T06:22:42Z</time>
      </trkpt>
      <trkpt lat="39.6723600" lon="-0.4424000">
        <ele>301.4</ele>
        <time>2022-11-06T06:22:43Z</time>
      </trkpt>
      <trkpt lat="39.6723900" lon="-0.4424400">
        <ele>301.6</ele>
        <time>2022-11-06T06:22:44Z</time>
      </trkpt>
      <trkpt lat="39.6724170" lon="-0.4424800">
        <ele>301.8</ele>
        <time>2022-11-06T06:22:45Z</time>
      </trkpt>
      <trkpt lat="39.6724170" lon="-0.4424800">
        <ele>301.8</ele>
        <time>2022-11-06T06:22:46Z</time>
      </trkpt>
      <trkpt lat="39.6724460" lon="-0.4425180">
        <ele>302.0</ele>
        <time>2022-11-06T06:22:47Z</time>
      </trkpt>
      <trkpt lat="39.6724780" lon="-0.4425580">
        <ele>302.2</ele>
        <time>2022-11-06T06:22:48Z</time>
      </trkpt>
      <trkpt lat="39.6725080" lon="-0.4425930">
        <ele>302.5</ele>
        <time>2022-11-06T06:22:49Z</time>
      </trkpt>
      <trkpt lat="39.6725430" lon="-0.4426270">
        <ele>302.6</ele>
        <time>2022-11-06T06:22:50Z</time>
      </trkpt>
      <trkpt lat="39.6725780" lon="-0.4426600">
        <ele>302.8</ele>
        <time>2022-11-06T06:22:51Z</time>
      </trkpt>
      <trkpt lat="39.6725780" lon="-0.4426600">
        <ele>302.8</ele>
        <time>2022-11-06T06:22:52Z</time>
      </trkpt>
      <trkpt lat="39.6726800" lon="-0.4427480">
        <ele>303.3</ele>
        <time>2022-11-06T06:22:53Z</time>
      </trkpt>
      <trkpt lat="39.6727140" lon="-0.4427770">
        <ele>303.5</ele>
        <time>2022-11-06T06:22:54Z</time>
      </trkpt>
      <trkpt lat="39.6727440" lon="-0.4428050">
        <ele>303.6</ele>
        <time>2022-11-06T06:22:55Z</time>
      </trkpt>
      <trkpt lat="39.6727840" lon="-0.4428320">
        <ele>303.8</ele>
        <time>2022-11-06T06:22:56Z</time>
      </trkpt>
      <trkpt lat="39.6727840" lon="-0.4428320">
        <ele>303.8</ele>
        <time>2022-11-06T06:22:57Z</time>
      </trkpt>
      <trkpt lat="39.6728140" lon="-0.4428580">
        <ele>304.0</ele>
        <time>2022-11-06T06:22:58Z</time>
      </trkpt>
      <trkpt lat="39.6728490" lon="-0.4428920">
        <ele>304.1</ele>
        <time>2022-11-06T06:22:59Z</time>
      </trkpt>
      <trkpt lat="39.6728780" lon="-0.4429250">
        <ele>304.3</ele>
        <time>2022-11-06T06:23:00Z</time>
      </trkpt>
      <trkpt lat="39.6729130" lon="-0.4429620">
        <ele>304.5</ele>
        <time>2022-11-06T06:23:01Z</time>
      </trkpt>
      <trkpt lat="39.6729420" lon="-0.4429950">
        <ele>304.6</ele>
        <time>2022-11-06T06:23:02Z</time>
      </trkpt>
      <trkpt lat="39.6729960" lon="-0.4430720">
        <ele>304.9</ele>
        <time>2022-11-06T06:23:03Z</time>
      </trkpt>
      <trkpt lat="39.6730230" lon="-0.4431150">
        <ele>305.1</ele>
        <time>2022-11-06T06:23:04Z</time>
      </trkpt>
      <trkpt lat="39.6730500" lon="-0.4431600">
        <ele>305.2</ele>
        <time>2022-11-06T06:23:05Z</time>
      </trkpt>
      <trkpt lat="39.6730740" lon="-0.4432050">
        <ele>305.3</ele>
        <time>2022-11-06T06:23:06Z</time>
      </trkpt>
      <trkpt lat="39.6730740" lon="-0.4432050">
        <ele>305.3</ele>
        <time>2022-11-06T06:23:07Z</time>
      </trkpt>
      <trkpt lat="39.6731010" lon="-0.4432550">
        <ele>305.4</ele>
        <time>2022-11-06T06:23:08Z</time>
      </trkpt>
      <trkpt lat="39.6731220" lon="-0.4433050">
        <ele>305.5</ele>
        <time>2022-11-06T06:23:09Z</time>
      </trkpt>
      <trkpt lat="39.6731460" lon="-0.4433570">
        <ele>305.6</ele>
        <time>2022-11-06T06:23:10Z</time>
      </trkpt>
      <trkpt lat="39.6731680" lon="-0.4434120">
        <ele>305.7</ele>
        <time>2022-11-06T06:23:11Z</time>
      </trkpt>
      <trkpt lat="39.6731920" lon="-0.4434650">
        <ele>305.7</ele>
        <time>2022-11-06T06:23:12Z</time>
      </trkpt>
      <trkpt lat="39.6732320" lon="-0.4435720">
        <ele>305.8</ele>
        <time>2022-11-06T06:23:13Z</time>
      </trkpt>
      <trkpt lat="39.6732510" lon="-0.4436270">
        <ele>305.8</ele>
        <time>2022-11-06T06:23:14Z</time>
      </trkpt>
      <trkpt lat="39.6732670" lon="-0.4436830">
        <ele>305.8</ele>
        <time>2022-11-06T06:23:15Z</time>
      </trkpt>
      <trkpt lat="39.6732860" lon="-0.4437450">
        <ele>305.8</ele>
        <time>2022-11-06T06:23:16Z</time>
      </trkpt>
      <trkpt lat="39.6733020" lon="-0.4438120">
        <ele>305.7</ele>
        <time>2022-11-06T06:23:17Z</time>
      </trkpt>
      <trkpt lat="39.6733020" lon="-0.4438120">
        <ele>305.7</ele>
        <time>2022-11-06T06:23:18Z</time>
      </trkpt>
      <trkpt lat="39.6733130" lon="-0.4438820">
        <ele>305.7</ele>
        <time>2022-11-06T06:23:19Z</time>
      </trkpt>
      <trkpt lat="39.6733310" lon="-0.4439550">
        <ele>305.6</ele>
        <time>2022-11-06T06:23:20Z</time>
      </trkpt>
      <trkpt lat="39.6733500" lon="-0.4440270">
        <ele>305.5</ele>
        <time>2022-11-06T06:23:21Z</time>
      </trkpt>
      <trkpt lat="39.6733720" lon="-0.4440950">
        <ele>305.6</ele>
        <time>2022-11-06T06:23:22Z</time>
      </trkpt>
      <trkpt lat="39.6734040" lon="-0.4441580">
        <ele>305.8</ele>
        <time>2022-11-06T06:23:23Z</time>
      </trkpt>
      <trkpt lat="39.6734630" lon="-0.4442700">
        <ele>306.2</ele>
        <time>2022-11-06T06:23:24Z</time>
      </trkpt>
      <trkpt lat="39.6734900" lon="-0.4443170">
        <ele>306.5</ele>
        <time>2022-11-06T06:23:25Z</time>
      </trkpt>
      <trkpt lat="39.6735160" lon="-0.4443570">
        <ele>306.7</ele>
        <time>2022-11-06T06:23:26Z</time>
      </trkpt>
      <trkpt lat="39.6735430" lon="-0.4443920">
        <ele>307.0</ele>
        <time>2022-11-06T06:23:27Z</time>
      </trkpt>
      <trkpt lat="39.6735430" lon="-0.4443920">
        <ele>307.0</ele>
        <time>2022-11-06T06:23:28Z</time>
      </trkpt>
      <trkpt lat="39.6735650" lon="-0.4444270">
        <ele>307.4</ele>
        <time>2022-11-06T06:23:29Z</time>
      </trkpt>
      <trkpt lat="39.6735840" lon="-0.4444580">
        <ele>307.7</ele>
        <time>2022-11-06T06:23:30Z</time>
      </trkpt>
      <trkpt lat="39.6736080" lon="-0.4444880">
        <ele>308.0</ele>
        <time>2022-11-06T06:23:31Z</time>
      </trkpt>
      <trkpt lat="39.6736180" lon="-0.4445220">
        <ele>308.4</ele>
        <time>2022-11-06T06:23:32Z</time>
      </trkpt>
      <trkpt lat="39.6736180" lon="-0.4445220">
        <ele>308.4</ele>
        <time>2022-11-06T06:23:33Z</time>
      </trkpt>
      <trkpt lat="39.6736640" lon="-0.4446000">
        <ele>309.4</ele>
        <time>2022-11-06T06:23:34Z</time>
      </trkpt>
      <trkpt lat="39.6736750" lon="-0.4446270">
        <ele>309.8</ele>
        <time>2022-11-06T06:23:35Z</time>
      </trkpt>
      <trkpt lat="39.6736880" lon="-0.4446530">
        <ele>310.1</ele>
        <time>2022-11-06T06:23:36Z</time>
      </trkpt>
      <trkpt lat="39.6736990" lon="-0.4446830">
        <ele>310.5</ele>
        <time>2022-11-06T06:23:37Z</time>
      </trkpt>
      <trkpt lat="39.6737070" lon="-0.4447100">
        <ele>310.8</ele>
        <time>2022-11-06T06:23:38Z</time>
      </trkpt>
      <trkpt lat="39.6737070" lon="-0.4447100">
        <ele>310.8</ele>
        <time>2022-11-06T06:23:39Z</time>
      </trkpt>
      <trkpt lat="39.6737150" lon="-0.4447350">
        <ele>311.1</ele>
        <time>2022-11-06T06:23:40Z</time>
      </trkpt>
      <trkpt lat="39.6737260" lon="-0.4447630">
        <ele>311.5</ele>
        <time>2022-11-06T06:23:41Z</time>
      </trkpt>
      <trkpt lat="39.6737440" lon="-0.4447820">
        <ele>311.8</ele>
        <time>2022-11-06T06:23:42Z</time>
      </trkpt>
      <trkpt lat="39.6737610" lon="-0.4448100">
        <ele>312.1</ele>
        <time>2022-11-06T06:23:43Z</time>
      </trkpt>
      <trkpt lat="39.6737610" lon="-0.4448100">
        <ele>312.1</ele>
        <time>2022-11-06T06:23:44Z</time>
      </trkpt>
      <trkpt lat="39.6737870" lon="-0.4449030">
        <ele>313.1</ele>
        <time>2022-11-06T06:23:45Z</time>
      </trkpt>
      <trkpt lat="39.6737980" lon="-0.4449350">
        <ele>313.4</ele>
        <time>2022-11-06T06:23:46Z</time>
      </trkpt>
      <trkpt lat="39.6738060" lon="-0.4449670">
        <ele>313.7</ele>
        <time>2022-11-06T06:23:47Z</time>
      </trkpt>
      <trkpt lat="39.6738170" lon="-0.4449970">
        <ele>313.9</ele>
        <time>2022-11-06T06:23:48Z</time>
      </trkpt>
      <trkpt lat="39.6738170" lon="-0.4449970">
        <ele>313.9</ele>
        <time>2022-11-06T06:23:49Z</time>
      </trkpt>
      <trkpt lat="39.6738280" lon="-0.4450270">
        <ele>314.2</ele>
        <time>2022-11-06T06:23:50Z</time>
      </trkpt>
      <trkpt lat="39.6738380" lon="-0.4450580">
        <ele>314.4</ele>
        <time>2022-11-06T06:23:51Z</time>
      </trkpt>
      <trkpt lat="39.6738440" lon="-0.4450900">
        <ele>314.7</ele>
        <time>2022-11-06T06:23:52Z</time>
      </trkpt>
      <trkpt lat="39.6738520" lon="-0.4451220">
        <ele>315.0</ele>
        <time>2022-11-06T06:23:53Z</time>
      </trkpt>
      <trkpt lat="39.6738650" lon="-0.4451870">
        <ele>315.4</ele>
        <time>2022-11-06T06:23:54Z</time>
      </trkpt>
      <trkpt lat="39.6738730" lon="-0.4452200">
        <ele>315.6</ele>
        <time>2022-11-06T06:23:55Z</time>
      </trkpt>
      <trkpt lat="39.6738810" lon="-0.4452570">
        <ele>315.8</ele>
        <time>2022-11-06T06:23:56Z</time>
      </trkpt>
      <trkpt lat="39.6738970" lon="-0.4452880">
        <ele>316.1</ele>
        <time>2022-11-06T06:23:57Z</time>
      </trkpt>
      <trkpt lat="39.6739050" lon="-0.4453200">
        <ele>316.3</ele>
        <time>2022-11-06T06:23:58Z</time>
      </trkpt>
      <trkpt lat="39.6739110" lon="-0.4453530">
        <ele>316.5</ele>
        <time>2022-11-06T06:23:59Z</time>
      </trkpt>
      <trkpt lat="39.6739110" lon="-0.4453530">
        <ele>316.5</ele>
        <time>2022-11-06T06:24:00Z</time>
      </trkpt>
      <trkpt lat="39.6739190" lon="-0.4453870">
        <ele>316.7</ele>
        <time>2022-11-06T06:24:01Z</time>
      </trkpt>
      <trkpt lat="39.6739320" lon="-0.4454180">
        <ele>316.9</ele>
        <time>2022-11-06T06:24:02Z</time>
      </trkpt>
      <trkpt lat="39.6739350" lon="-0.4454480">
        <ele>317.0</ele>
        <time>2022-11-06T06:24:03Z</time>
      </trkpt>
      <trkpt lat="39.6739430" lon="-0.4454800">
        <ele>317.2</ele>
        <time>2022-11-06T06:24:04Z</time>
      </trkpt>
      <trkpt lat="39.6739540" lon="-0.4455530">
        <ele>317.6</ele>
        <time>2022-11-06T06:24:05Z</time>
      </trkpt>
      <trkpt lat="39.6739590" lon="-0.4455920">
        <ele>317.8</ele>
        <time>2022-11-06T06:24:06Z</time>
      </trkpt>
      <trkpt lat="39.6739640" lon="-0.4456270">
        <ele>318.0</ele>
        <time>2022-11-06T06:24:07Z</time>
      </trkpt>
      <trkpt lat="39.6739720" lon="-0.4456670">
        <ele>318.1</ele>
        <time>2022-11-06T06:24:08Z</time>
      </trkpt>
      <trkpt lat="39.6739890" lon="-0.4457070">
        <ele>318.3</ele>
        <time>2022-11-06T06:24:09Z</time>
      </trkpt>
      <trkpt lat="39.6739890" lon="-0.4457070">
        <ele>318.3</ele>
        <time>2022-11-06T06:24:10Z</time>
      </trkpt>
      <trkpt lat="39.6739990" lon="-0.4457450">
        <ele>318.5</ele>
        <time>2022-11-06T06:24:11Z</time>
      </trkpt>
      <trkpt lat="39.6740180" lon="-0.4457820">
        <ele>318.6</ele>
        <time>2022-11-06T06:24:12Z</time>
      </trkpt>
      <trkpt lat="39.6740370" lon="-0.4458180">
        <ele>318.8</ele>
        <time>2022-11-06T06:24:13Z</time>
      </trkpt>
      <trkpt lat="39.6740370" lon="-0.4458180">
        <ele>318.8</ele>
        <time>2022-11-06T06:24:14Z</time>
      </trkpt>
      <trkpt lat="39.6740820" lon="-0.4459250">
        <ele>319.2</ele>
        <time>2022-11-06T06:24:15Z</time>
      </trkpt>
      <trkpt lat="39.6741070" lon="-0.4459580">
        <ele>319.4</ele>
        <time>2022-11-06T06:24:16Z</time>
      </trkpt>
      <trkpt lat="39.6741250" lon="-0.4459900">
        <ele>319.5</ele>
        <time>2022-11-06T06:24:17Z</time>
      </trkpt>
      <trkpt lat="39.6741490" lon="-0.4460180">
        <ele>319.7</ele>
        <time>2022-11-06T06:24:18Z</time>
      </trkpt>
      <trkpt lat="39.6741680" lon="-0.4460450">
        <ele>319.9</ele>
        <time>2022-11-06T06:24:19Z</time>
      </trkpt>
      <trkpt lat="39.6741900" lon="-0.4460670">
        <ele>320.1</ele>
        <time>2022-11-06T06:24:20Z</time>
      </trkpt>
      <trkpt lat="39.6741900" lon="-0.4460670">
        <ele>320.1</ele>
        <time>2022-11-06T06:24:21Z</time>
      </trkpt>
      <trkpt lat="39.6742080" lon="-0.4460830">
        <ele>320.2</ele>
        <time>2022-11-06T06:24:22Z</time>
      </trkpt>
      <trkpt lat="39.6742250" lon="-0.4461070">
        <ele>320.4</ele>
        <time>2022-11-06T06:24:23Z</time>
      </trkpt>
      <trkpt lat="39.6742410" lon="-0.4461280">
        <ele>320.6</ele>
        <time>2022-11-06T06:24:24Z</time>
      </trkpt>
      <trkpt lat="39.6742410" lon="-0.4461280">
        <ele>320.6</ele>
        <time>2022-11-06T06:24:25Z</time>
      </trkpt>
      <trkpt lat="39.6742940" lon="-0.4461730">
        <ele>321.1</ele>
        <time>2022-11-06T06:24:26Z</time>
      </trkpt>
      <trkpt lat="39.6743160" lon="-0.4461900">
        <ele>321.4</ele>
        <time>2022-11-06T06:24:27Z</time>
      </trkpt>
      <trkpt lat="39.6743350" lon="-0.4462120">
        <ele>321.6</ele>
        <time>2022-11-06T06:24:28Z</time>
      </trkpt>
      <trkpt lat="39.6743590" lon="-0.4462330">
        <ele>321.9</ele>
        <time>2022-11-06T06:24:29Z</time>
      </trkpt>
      <trkpt lat="39.6743770" lon="-0.4462480">
        <ele>322.1</ele>
        <time>2022-11-06T06:24:30Z</time>
      </trkpt>
      <trkpt lat="39.6743770" lon="-0.4462480">
        <ele>322.1</ele>
        <time>2022-11-06T06:24:31Z</time>
      </trkpt>
      <trkpt lat="39.6744020" lon="-0.4462670">
        <ele>322.3</ele>
        <time>2022-11-06T06:24:32Z</time>
      </trkpt>
      <trkpt lat="39.6744200" lon="-0.4462830">
        <ele>322.5</ele>
        <time>2022-11-06T06:24:33Z</time>
      </trkpt>
      <trkpt lat="39.6744420" lon="-0.4463000">
        <ele>322.8</ele>
        <time>2022-11-06T06:24:34Z</time>
      </trkpt>
      <trkpt lat="39.6744850" lon="-0.4463380">
        <ele>323.3</ele>
        <time>2022-11-06T06:24:35Z</time>
      </trkpt>
      <trkpt lat="39.6745060" lon="-0.4463600">
        <ele>323.5</ele>
        <time>2022-11-06T06:24:36Z</time>
      </trkpt>
      <trkpt lat="39.6745300" lon="-0.4463780">
        <ele>323.7</ele>
        <time>2022-11-06T06:24:37Z</time>
      </trkpt>
      <trkpt lat="39.6745460" lon="-0.4464000">
        <ele>324.0</ele>
        <time>2022-11-06T06:24:38Z</time>
      </trkpt>
      <trkpt lat="39.6745600" lon="-0.4464230">
        <ele>324.2</ele>
        <time>2022-11-06T06:24:39Z</time>
      </trkpt>
      <trkpt lat="39.6745730" lon="-0.4464470">
        <ele>324.4</ele>
        <time>2022-11-06T06:24:40Z</time>
      </trkpt>
      <trkpt lat="39.6745870" lon="-0.4464680">
        <ele>324.6</ele>
        <time>2022-11-06T06:24:41Z</time>
      </trkpt>
      <trkpt lat="39.6745870" lon="-0.4464680">
        <ele>324.6</ele>
        <time>2022-11-06T06:24:42Z</time>
      </trkpt>
      <trkpt lat="39.6746030" lon="-0.4464920">
        <ele>324.8</ele>
        <time>2022-11-06T06:24:43Z</time>
      </trkpt>
      <trkpt lat="39.6746190" lon="-0.4465120">
        <ele>325.1</ele>
        <time>2022-11-06T06:24:44Z</time>
      </trkpt>
      <trkpt lat="39.6746320" lon="-0.4465250">
        <ele>325.2</ele>
        <time>2022-11-06T06:24:45Z</time>
      </trkpt>
      <trkpt lat="39.6746590" lon="-0.4465600">
        <ele>325.7</ele>
        <time>2022-11-06T06:24:46Z</time>
      </trkpt>
      <trkpt lat="39.6746670" lon="-0.4465780">
        <ele>325.9</ele>
        <time>2022-11-06T06:24:47Z</time>
      </trkpt>
      <trkpt lat="39.6746780" lon="-0.4465970">
        <ele>326.1</ele>
        <time>2022-11-06T06:24:48Z</time>
      </trkpt>
      <trkpt lat="39.6746910" lon="-0.4466180">
        <ele>326.4</ele>
        <time>2022-11-06T06:24:49Z</time>
      </trkpt>
      <trkpt lat="39.6746970" lon="-0.4466400">
        <ele>326.6</ele>
        <time>2022-11-06T06:24:50Z</time>
      </trkpt>
      <trkpt lat="39.6747100" lon="-0.4466580">
        <ele>326.9</ele>
        <time>2022-11-06T06:24:51Z</time>
      </trkpt>
      <trkpt lat="39.6747100" lon="-0.4466580">
        <ele>326.9</ele>
        <time>2022-11-06T06:24:52Z</time>
      </trkpt>
      <trkpt lat="39.6747230" lon="-0.4466770">
        <ele>327.2</ele>
        <time>2022-11-06T06:24:53Z</time>
      </trkpt>
      <trkpt lat="39.6747370" lon="-0.4466930">
        <ele>327.4</ele>
        <time>2022-11-06T06:24:54Z</time>
      </trkpt>
      <trkpt lat="39.6747500" lon="-0.4467170">
        <ele>327.8</ele>
        <time>2022-11-06T06:24:55Z</time>
      </trkpt>
      <trkpt lat="39.6747850" lon="-0.4467550">
        <ele>328.4</ele>
        <time>2022-11-06T06:24:56Z</time>
      </trkpt>
      <trkpt lat="39.6747930" lon="-0.4467770">
        <ele>328.7</ele>
        <time>2022-11-06T06:24:57Z</time>
      </trkpt>
      <trkpt lat="39.6748040" lon="-0.4467980">
        <ele>329.0</ele>
        <time>2022-11-06T06:24:58Z</time>
      </trkpt>
      <trkpt lat="39.6748170" lon="-0.4468230">
        <ele>329.3</ele>
        <time>2022-11-06T06:24:59Z</time>
      </trkpt>
      <trkpt lat="39.6748230" lon="-0.4468480">
        <ele>329.6</ele>
        <time>2022-11-06T06:25:00Z</time>
      </trkpt>
      <trkpt lat="39.6748310" lon="-0.4468750">
        <ele>329.9</ele>
        <time>2022-11-06T06:25:01Z</time>
      </trkpt>
      <trkpt lat="39.6748360" lon="-0.4469030">
        <ele>330.2</ele>
        <time>2022-11-06T06:25:02Z</time>
      </trkpt>
      <trkpt lat="39.6748360" lon="-0.4469030">
        <ele>330.2</ele>
        <time>2022-11-06T06:25:03Z</time>
      </trkpt>
      <trkpt lat="39.6748390" lon="-0.4469300">
        <ele>330.4</ele>
        <time>2022-11-06T06:25:04Z</time>
      </trkpt>
      <trkpt lat="39.6748470" lon="-0.4469580">
        <ele>330.7</ele>
        <time>2022-11-06T06:25:05Z</time>
      </trkpt>
      <trkpt lat="39.6748470" lon="-0.4469580">
        <ele>330.7</ele>
        <time>2022-11-06T06:25:06Z</time>
      </trkpt>
      <trkpt lat="39.6748660" lon="-0.4470350">
        <ele>331.5</ele>
        <time>2022-11-06T06:25:07Z</time>
      </trkpt>
      <trkpt lat="39.6748740" lon="-0.4470600">
        <ele>331.7</ele>
        <time>2022-11-06T06:25:08Z</time>
      </trkpt>
      <trkpt lat="39.6748820" lon="-0.4470850">
        <ele>332.0</ele>
        <time>2022-11-06T06:25:09Z</time>
      </trkpt>
      <trkpt lat="39.6748820" lon="-0.4471100">
        <ele>332.2</ele>
        <time>2022-11-06T06:25:10Z</time>
      </trkpt>
      <trkpt lat="39.6748840" lon="-0.4471370">
        <ele>332.5</ele>
        <time>2022-11-06T06:25:11Z</time>
      </trkpt>
      <trkpt lat="39.6748920" lon="-0.4471620">
        <ele>332.7</ele>
        <time>2022-11-06T06:25:12Z</time>
      </trkpt>
      <trkpt lat="39.6748920" lon="-0.4471620">
        <ele>332.7</ele>
        <time>2022-11-06T06:25:13Z</time>
      </trkpt>
      <trkpt lat="39.6748920" lon="-0.4471870">
        <ele>332.9</ele>
        <time>2022-11-06T06:25:14Z</time>
      </trkpt>
      <trkpt lat="39.6748950" lon="-0.4472120">
        <ele>333.2</ele>
        <time>2022-11-06T06:25:15Z</time>
      </trkpt>
      <trkpt lat="39.6748950" lon="-0.4472120">
        <ele>333.2</ele>
        <time>2022-11-06T06:25:16Z</time>
      </trkpt>
      <trkpt lat="39.6749000" lon="-0.4472950">
        <ele>333.9</ele>
        <time>2022-11-06T06:25:17Z</time>
      </trkpt>
      <trkpt lat="39.6749000" lon="-0.4473220">
        <ele>334.1</ele>
        <time>2022-11-06T06:25:18Z</time>
      </trkpt>
      <trkpt lat="39.6749000" lon="-0.4473480">
        <ele>334.4</ele>
        <time>2022-11-06T06:25:19Z</time>
      </trkpt>
      <trkpt lat="39.6749000" lon="-0.4473730">
        <ele>334.6</ele>
        <time>2022-11-06T06:25:20Z</time>
      </trkpt>
      <trkpt lat="39.6748950" lon="-0.4474000">
        <ele>334.9</ele>
        <time>2022-11-06T06:25:21Z</time>
      </trkpt>
      <trkpt lat="39.6748920" lon="-0.4474280">
        <ele>335.1</ele>
        <time>2022-11-06T06:25:22Z</time>
      </trkpt>
      <trkpt lat="39.6748840" lon="-0.4474530">
        <ele>335.3</ele>
        <time>2022-11-06T06:25:23Z</time>
      </trkpt>
      <trkpt lat="39.6748840" lon="-0.4474530">
        <ele>335.3</ele>
        <time>2022-11-06T06:25:24Z</time>
      </trkpt>
      <trkpt lat="39.6748820" lon="-0.4474780">
        <ele>335.5</ele>
        <time>2022-11-06T06:25:25Z</time>
      </trkpt>
      <trkpt lat="39.6748740" lon="-0.4475030">
        <ele>335.8</ele>
        <time>2022-11-06T06:25:26Z</time>
      </trkpt>
      <trkpt lat="39.6748580" lon="-0.4475530">
        <ele>336.2</ele>
        <time>2022-11-06T06:25:27Z</time>
      </trkpt>
      <trkpt lat="39.6748550" lon="-0.4475750">
        <ele>336.4</ele>
        <time>2022-11-06T06:25:28Z</time>
      </trkpt>
      <trkpt lat="39.6748470" lon="-0.4475980">
        <ele>336.6</ele>
        <time>2022-11-06T06:25:29Z</time>
      </trkpt>
      <trkpt lat="39.6748360" lon="-0.4476220">
        <ele>336.8</ele>
        <time>2022-11-06T06:25:30Z</time>
      </trkpt>
      <trkpt lat="39.6748280" lon="-0.4476470">
        <ele>337.0</ele>
        <time>2022-11-06T06:25:31Z</time>
      </trkpt>
      <trkpt lat="39.6748200" lon="-0.4476700">
        <ele>337.2</ele>
        <time>2022-11-06T06:25:32Z</time>
      </trkpt>
      <trkpt lat="39.6748090" lon="-0.4476950">
        <ele>337.4</ele>
        <time>2022-11-06T06:25:33Z</time>
      </trkpt>
      <trkpt lat="39.6748090" lon="-0.4476950">
        <ele>337.4</ele>
        <time>2022-11-06T06:25:34Z</time>
      </trkpt>
      <trkpt lat="39.6747960" lon="-0.4477220">
        <ele>337.7</ele>
        <time>2022-11-06T06:25:35Z</time>
      </trkpt>
      <trkpt lat="39.6747930" lon="-0.4477470">
        <ele>337.9</ele>
        <time>2022-11-06T06:25:36Z</time>
      </trkpt>
      <trkpt lat="39.6747770" lon="-0.4477970">
        <ele>338.2</ele>
        <time>2022-11-06T06:25:37Z</time>
      </trkpt>
      <trkpt lat="39.6747660" lon="-0.4478230">
        <ele>338.5</ele>
        <time>2022-11-06T06:25:38Z</time>
      </trkpt>
      <trkpt lat="39.6747580" lon="-0.4478470">
        <ele>338.6</ele>
        <time>2022-11-06T06:25:39Z</time>
      </trkpt>
      <trkpt lat="39.6747580" lon="-0.4478720">
        <ele>338.8</ele>
        <time>2022-11-06T06:25:40Z</time>
      </trkpt>
      <trkpt lat="39.6747580" lon="-0.4479000">
        <ele>339.0</ele>
        <time>2022-11-06T06:25:41Z</time>
      </trkpt>
      <trkpt lat="39.6747580" lon="-0.4479320">
        <ele>339.2</ele>
        <time>2022-11-06T06:25:42Z</time>
      </trkpt>
      <trkpt lat="39.6747640" lon="-0.4479600">
        <ele>339.4</ele>
        <time>2022-11-06T06:25:43Z</time>
      </trkpt>
      <trkpt lat="39.6747690" lon="-0.4479870">
        <ele>339.5</ele>
        <time>2022-11-06T06:25:44Z</time>
      </trkpt>
      <trkpt lat="39.6747690" lon="-0.4479870">
        <ele>339.5</ele>
        <time>2022-11-06T06:25:45Z</time>
      </trkpt>
      <trkpt lat="39.6747770" lon="-0.4480100">
        <ele>339.7</ele>
        <time>2022-11-06T06:25:46Z</time>
      </trkpt>
      <trkpt lat="39.6747930" lon="-0.4480350">
        <ele>339.9</ele>
        <time>2022-11-06T06:25:47Z</time>
      </trkpt>
      <trkpt lat="39.6748310" lon="-0.4480770">
        <ele>340.2</ele>
        <time>2022-11-06T06:25:48Z</time>
      </trkpt>
      <trkpt lat="39.6748470" lon="-0.4481000">
        <ele>340.3</ele>
        <time>2022-11-06T06:25:49Z</time>
      </trkpt>
      <trkpt lat="39.6748660" lon="-0.4481180">
        <ele>340.4</ele>
        <time>2022-11-06T06:25:50Z</time>
      </trkpt>
      <trkpt lat="39.6748820" lon="-0.4481380">
        <ele>340.5</ele>
        <time>2022-11-06T06:25:51Z</time>
      </trkpt>
      <trkpt lat="39.6749000" lon="-0.4481580">
        <ele>340.6</ele>
        <time>2022-11-06T06:25:52Z</time>
      </trkpt>
      <trkpt lat="39.6749170" lon="-0.4481820">
        <ele>340.8</ele>
        <time>2022-11-06T06:25:53Z</time>
      </trkpt>
      <trkpt lat="39.6749380" lon="-0.4482050">
        <ele>340.9</ele>
        <time>2022-11-06T06:25:54Z</time>
      </trkpt>
      <trkpt lat="39.6749380" lon="-0.4482050">
        <ele>340.9</ele>
        <time>2022-11-06T06:25:55Z</time>
      </trkpt>
      <trkpt lat="39.6749620" lon="-0.4482270">
        <ele>341.0</ele>
        <time>2022-11-06T06:25:56Z</time>
      </trkpt>
      <trkpt lat="39.6749620" lon="-0.4482270">
        <ele>341.0</ele>
        <time>2022-11-06T06:25:57Z</time>
      </trkpt>
      <trkpt lat="39.6750350" lon="-0.4482930">
        <ele>341.3</ele>
        <time>2022-11-06T06:25:58Z</time>
      </trkpt>
      <trkpt lat="39.6750560" lon="-0.4483120">
        <ele>341.4</ele>
        <time>2022-11-06T06:25:59Z</time>
      </trkpt>
      <trkpt lat="39.6750830" lon="-0.4483300">
        <ele>341.5</ele>
        <time>2022-11-06T06:26:00Z</time>
      </trkpt>
      <trkpt lat="39.6751070" lon="-0.4483470">
        <ele>341.6</ele>
        <time>2022-11-06T06:26:01Z</time>
      </trkpt>
      <trkpt lat="39.6751340" lon="-0.4483620">
        <ele>341.7</ele>
        <time>2022-11-06T06:26:02Z</time>
      </trkpt>
      <trkpt lat="39.6751610" lon="-0.4483750">
        <ele>341.8</ele>
        <time>2022-11-06T06:26:03Z</time>
      </trkpt>
      <trkpt lat="39.6751820" lon="-0.4483880">
        <ele>341.9</ele>
        <time>2022-11-06T06:26:04Z</time>
      </trkpt>
      <trkpt lat="39.6752090" lon="-0.4484000">
        <ele>342.0</ele>
        <time>2022-11-06T06:26:05Z</time>
      </trkpt>
      <trkpt lat="39.6752090" lon="-0.4484000">
        <ele>342.0</ele>
        <time>2022-11-06T06:26:06Z</time>
      </trkpt>
      <trkpt lat="39.6752360" lon="-0.4484100">
        <ele>342.2</ele>
        <time>2022-11-06T06:26:07Z</time>
      </trkpt>
      <trkpt lat="39.6752360" lon="-0.4484100">
        <ele>342.2</ele>
        <time>2022-11-06T06:26:08Z</time>
      </trkpt>
      <trkpt lat="39.6753000" lon="-0.4484520">
        <ele>342.6</ele>
        <time>2022-11-06T06:26:09Z</time>
      </trkpt>
      <trkpt lat="39.6753240" lon="-0.4484630">
        <ele>342.7</ele>
        <time>2022-11-06T06:26:10Z</time>
      </trkpt>
      <trkpt lat="39.6753430" lon="-0.4484770">
        <ele>342.9</ele>
        <time>2022-11-06T06:26:11Z</time>
      </trkpt>
      <trkpt lat="39.6753620" lon="-0.4484920">
        <ele>343.1</ele>
        <time>2022-11-06T06:26:12Z</time>
      </trkpt>
      <trkpt lat="39.6753780" lon="-0.4485070">
        <ele>343.2</ele>
        <time>2022-11-06T06:26:13Z</time>
      </trkpt>
      <trkpt lat="39.6753990" lon="-0.4485230">
        <ele>343.4</ele>
        <time>2022-11-06T06:26:14Z</time>
      </trkpt>
      <trkpt lat="39.6754240" lon="-0.4485400">
        <ele>343.7</ele>
        <time>2022-11-06T06:26:15Z</time>
      </trkpt>
      <trkpt lat="39.6754240" lon="-0.4485400">
        <ele>343.7</ele>
        <time>2022-11-06T06:26:16Z</time>
      </trkpt>
      <trkpt lat="39.6754420" lon="-0.4485580">
        <ele>343.9</ele>
        <time>2022-11-06T06:26:17Z</time>
      </trkpt>
      <trkpt lat="39.6754800" lon="-0.4485970">
        <ele>344.4</ele>
        <time>2022-11-06T06:26:18Z</time>
      </trkpt>
      <trkpt lat="39.6754990" lon="-0.4486170">
        <ele>344.6</ele>
        <time>2022-11-06T06:26:19Z</time>
      </trkpt>
      <trkpt lat="39.6755150" lon="-0.4486370">
        <ele>344.8</ele>
        <time>2022-11-06T06:26:20Z</time>
      </trkpt>
      <trkpt lat="39.6755310" lon="-0.4486570">
        <ele>345.1</ele>
        <time>2022-11-06T06:26:21Z</time>
      </trkpt>
      <trkpt lat="39.6755440" lon="-0.4486800">
        <ele>345.3</ele>
        <time>2022-11-06T06:26:22Z</time>
      </trkpt>
      <trkpt lat="39.6755600" lon="-0.4487020">
        <ele>345.5</ele>
        <time>2022-11-06T06:26:23Z</time>
      </trkpt>
      <trkpt lat="39.6755760" lon="-0.4487270">
        <ele>345.8</ele>
        <time>2022-11-06T06:26:24Z</time>
      </trkpt>
      <trkpt lat="39.6755870" lon="-0.4487520">
        <ele>346.0</ele>
        <time>2022-11-06T06:26:25Z</time>
      </trkpt>
      <trkpt lat="39.6755980" lon="-0.4487770">
        <ele>346.2</ele>
        <time>2022-11-06T06:26:26Z</time>
      </trkpt>
      <trkpt lat="39.6755980" lon="-0.4487770">
        <ele>346.2</ele>
        <time>2022-11-06T06:26:27Z</time>
      </trkpt>
      <trkpt lat="39.6756090" lon="-0.4488030">
        <ele>346.4</ele>
        <time>2022-11-06T06:26:28Z</time>
      </trkpt>
      <trkpt lat="39.6756330" lon="-0.4488620">
        <ele>346.8</ele>
        <time>2022-11-06T06:26:29Z</time>
      </trkpt>
      <trkpt lat="39.6756430" lon="-0.4488920">
        <ele>347.0</ele>
        <time>2022-11-06T06:26:30Z</time>
      </trkpt>
      <trkpt lat="39.6756540" lon="-0.4489220">
        <ele>347.1</ele>
        <time>2022-11-06T06:26:31Z</time>
      </trkpt>
      <trkpt lat="39.6756680" lon="-0.4489520">
        <ele>347.3</ele>
        <time>2022-11-06T06:26:32Z</time>
      </trkpt>
      <trkpt lat="39.6756810" lon="-0.4489800">
        <ele>347.5</ele>
        <time>2022-11-06T06:26:33Z</time>
      </trkpt>
      <trkpt lat="39.6756940" lon="-0.4490100">
        <ele>347.7</ele>
        <time>2022-11-06T06:26:34Z</time>
      </trkpt>
      <trkpt lat="39.6757080" lon="-0.4490380">
        <ele>347.8</ele>
        <time>2022-11-06T06:26:35Z</time>
      </trkpt>
      <trkpt lat="39.6757270" lon="-0.4490650">
        <ele>348.0</ele>
        <time>2022-11-06T06:26:36Z</time>
      </trkpt>
      <trkpt lat="39.6757270" lon="-0.4490650">
        <ele>348.0</ele>
        <time>2022-11-06T06:26:37Z</time>
      </trkpt>
      <trkpt lat="39.6757270" lon="-0.4490650">
        <ele>348.0</ele>
        <time>2022-11-06T06:26:38Z</time>
      </trkpt>
      <trkpt lat="39.6757800" lon="-0.4491480">
        <ele>348.5</ele>
        <time>2022-11-06T06:26:39Z</time>
      </trkpt>
      <trkpt lat="39.6758040" lon="-0.4491750">
        <ele>348.6</ele>
        <time>2022-11-06T06:26:40Z</time>
      </trkpt>
      <trkpt lat="39.6758230" lon="-0.4492030">
        <ele>348.8</ele>
        <time>2022-11-06T06:26:41Z</time>
      </trkpt>
      <trkpt lat="39.6758390" lon="-0.4492320">
        <ele>348.9</ele>
        <time>2022-11-06T06:26:42Z</time>
      </trkpt>
      <trkpt lat="39.6758610" lon="-0.4492570">
        <ele>349.1</ele>
        <time>2022-11-06T06:26:43Z</time>
      </trkpt>
      <trkpt lat="39.6758770" lon="-0.4492820">
        <ele>349.2</ele>
        <time>2022-11-06T06:26:44Z</time>
      </trkpt>
      <trkpt lat="39.6758960" lon="-0.4493100">
        <ele>349.3</ele>
        <time>2022-11-06T06:26:45Z</time>
      </trkpt>
      <trkpt lat="39.6759120" lon="-0.4493380">
        <ele>349.5</ele>
        <time>2022-11-06T06:26:46Z</time>
      </trkpt>
      <trkpt lat="39.6759300" lon="-0.4493650">
        <ele>349.6</ele>
        <time>2022-11-06T06:26:47Z</time>
      </trkpt>
      <trkpt lat="39.6759300" lon="-0.4493650">
        <ele>349.6</ele>
        <time>2022-11-06T06:26:48Z</time>
      </trkpt>
      <trkpt lat="39.6759300" lon="-0.4493650">
        <ele>349.6</ele>
        <time>2022-11-06T06:26:49Z</time>
      </trkpt>
      <trkpt lat="39.6759760" lon="-0.4494480">
        <ele>350.1</ele>
        <time>2022-11-06T06:26:50Z</time>
      </trkpt>
      <trkpt lat="39.6759920" lon="-0.4494770">
        <ele>350.3</ele>
        <time>2022-11-06T06:26:51Z</time>
      </trkpt>
      <trkpt lat="39.6760060" lon="-0.4495050">
        <ele>350.4</ele>
        <time>2022-11-06T06:26:52Z</time>
      </trkpt>
      <trkpt lat="39.6760220" lon="-0.4495320">
        <ele>350.6</ele>
        <time>2022-11-06T06:26:53Z</time>
      </trkpt>
      <trkpt lat="39.6760380" lon="-0.4495580">
        <ele>350.8</ele>
        <time>2022-11-06T06:26:54Z</time>
      </trkpt>
      <trkpt lat="39.6760480" lon="-0.4495870">
        <ele>351.0</ele>
        <time>2022-11-06T06:26:55Z</time>
      </trkpt>
      <trkpt lat="39.6760650" lon="-0.4496130">
        <ele>351.2</ele>
        <time>2022-11-06T06:26:56Z</time>
      </trkpt>
      <trkpt lat="39.6760780" lon="-0.4496420">
        <ele>351.4</ele>
        <time>2022-11-06T06:26:57Z</time>
      </trkpt>
      <trkpt lat="39.6760780" lon="-0.4496420">
        <ele>351.4</ele>
        <time>2022-11-06T06:26:58Z</time>
      </trkpt>
      <trkpt lat="39.6761100" lon="-0.4496950">
        <ele>351.9</ele>
        <time>2022-11-06T06:26:59Z</time>
      </trkpt>
      <trkpt lat="39.6761210" lon="-0.4497220">
        <ele>352.1</ele>
        <time>2022-11-06T06:27:00Z</time>
      </trkpt>
      <trkpt lat="39.6761320" lon="-0.4497480">
        <ele>352.3</ele>
        <time>2022-11-06T06:27:01Z</time>
      </trkpt>
      <trkpt lat="39.6761420" lon="-0.4497730">
        <ele>352.6</ele>
        <time>2022-11-06T06:27:02Z</time>
      </trkpt>
      <trkpt lat="39.6761580" lon="-0.4497970">
        <ele>352.8</ele>
        <time>2022-11-06T06:27:03Z</time>
      </trkpt>
      <trkpt lat="39.6761690" lon="-0.4498170">
        <ele>353.1</ele>
        <time>2022-11-06T06:27:04Z</time>
      </trkpt>
      <trkpt lat="39.6761910" lon="-0.4498350">
        <ele>353.4</ele>
        <time>2022-11-06T06:27:05Z</time>
      </trkpt>
      <trkpt lat="39.6762040" lon="-0.4498500">
        <ele>353.6</ele>
        <time>2022-11-06T06:27:06Z</time>
      </trkpt>
      <trkpt lat="39.6762170" lon="-0.4498680">
        <ele>353.9</ele>
        <time>2022-11-06T06:27:07Z</time>
      </trkpt>
      <trkpt lat="39.6762310" lon="-0.4498830">
        <ele>354.1</ele>
        <time>2022-11-06T06:27:08Z</time>
      </trkpt>
      <trkpt lat="39.6762310" lon="-0.4498830">
        <ele>354.1</ele>
        <time>2022-11-06T06:27:09Z</time>
      </trkpt>
      <trkpt lat="39.6762630" lon="-0.4499130">
        <ele>354.7</ele>
        <time>2022-11-06T06:27:10Z</time>
      </trkpt>
      <trkpt lat="39.6762740" lon="-0.4499300">
        <ele>355.0</ele>
        <time>2022-11-06T06:27:11Z</time>
      </trkpt>
      <trkpt lat="39.6762840" lon="-0.4499450">
        <ele>355.2</ele>
        <time>2022-11-06T06:27:12Z</time>
      </trkpt>
      <trkpt lat="39.6763010" lon="-0.4499580">
        <ele>355.5</ele>
        <time>2022-11-06T06:27:13Z</time>
      </trkpt>
      <trkpt lat="39.6763140" lon="-0.4499750">
        <ele>355.8</ele>
        <time>2022-11-06T06:27:14Z</time>
      </trkpt>
      <trkpt lat="39.6763270" lon="-0.4499930">
        <ele>356.1</ele>
        <time>2022-11-06T06:27:15Z</time>
      </trkpt>
      <trkpt lat="39.6763380" lon="-0.4500120">
        <ele>356.4</ele>
        <time>2022-11-06T06:27:16Z</time>
      </trkpt>
      <trkpt lat="39.6763490" lon="-0.4500280">
        <ele>356.6</ele>
        <time>2022-11-06T06:27:17Z</time>
      </trkpt>
      <trkpt lat="39.6763620" lon="-0.4500450">
        <ele>356.9</ele>
        <time>2022-11-06T06:27:18Z</time>
      </trkpt>
      <trkpt lat="39.6763620" lon="-0.4500450">
        <ele>356.9</ele>
        <time>2022-11-06T06:27:19Z</time>
      </trkpt>
      <trkpt lat="39.6763760" lon="-0.4500920">
        <ele>357.4</ele>
        <time>2022-11-06T06:27:20Z</time>
      </trkpt>
      <trkpt lat="39.6763890" lon="-0.4501130">
        <ele>357.7</ele>
        <time>2022-11-06T06:27:21Z</time>
      </trkpt>
      <trkpt lat="39.6763940" lon="-0.4501370">
        <ele>357.9</ele>
        <time>2022-11-06T06:27:22Z</time>
      </trkpt>
      <trkpt lat="39.6764080" lon="-0.4501600">
        <ele>358.2</ele>
        <time>2022-11-06T06:27:23Z</time>
      </trkpt>
      <trkpt lat="39.6764190" lon="-0.4501850">
        <ele>358.5</ele>
        <time>2022-11-06T06:27:24Z</time>
      </trkpt>
      <trkpt lat="39.6764290" lon="-0.4502080">
        <ele>358.7</ele>
        <time>2022-11-06T06:27:25Z</time>
      </trkpt>
      <trkpt lat="39.6764400" lon="-0.4502330">
        <ele>358.9</ele>
        <time>2022-11-06T06:27:26Z</time>
      </trkpt>
      <trkpt lat="39.6764530" lon="-0.4502570">
        <ele>359.2</ele>
        <time>2022-11-06T06:27:27Z</time>
      </trkpt>
      <trkpt lat="39.6764620" lon="-0.4502800">
        <ele>359.3</ele>
        <time>2022-11-06T06:27:28Z</time>
      </trkpt>
      <trkpt lat="39.6764620" lon="-0.4502800">
        <ele>359.3</ele>
        <time>2022-11-06T06:27:29Z</time>
      </trkpt>
      <trkpt lat="39.6764620" lon="-0.4502800">
        <ele>359.3</ele>
        <time>2022-11-06T06:27:30Z</time>
      </trkpt>
      <trkpt lat="39.6764910" lon="-0.4503530">
        <ele>359.9</ele>
        <time>2022-11-06T06:27:31Z</time>
      </trkpt>
      <trkpt lat="39.6764990" lon="-0.4503820">
        <ele>360.1</ele>
        <time>2022-11-06T06:27:32Z</time>
      </trkpt>
      <trkpt lat="39.6765020" lon="-0.4504100">
        <ele>360.3</ele>
        <time>2022-11-06T06:27:33Z</time>
      </trkpt>
      <trkpt lat="39.6765100" lon="-0.4504380">
        <ele>360.4</ele>
        <time>2022-11-06T06:27:34Z</time>
      </trkpt>
      <trkpt lat="39.6765210" lon="-0.4504650">
        <ele>360.6</ele>
        <time>2022-11-06T06:27:35Z</time>
      </trkpt>
      <trkpt lat="39.6765290" lon="-0.4504930">
        <ele>360.8</ele>
        <time>2022-11-06T06:27:36Z</time>
      </trkpt>
      <trkpt lat="39.6765370" lon="-0.4505220">
        <ele>360.9</ele>
        <time>2022-11-06T06:27:37Z</time>
      </trkpt>
      <trkpt lat="39.6765450" lon="-0.4505500">
        <ele>361.1</ele>
        <time>2022-11-06T06:27:38Z</time>
      </trkpt>
      <trkpt lat="39.6765450" lon="-0.4505500">
        <ele>361.1</ele>
        <time>2022-11-06T06:27:39Z</time>
      </trkpt>
      <trkpt lat="39.6765450" lon="-0.4505500">
        <ele>361.1</ele>
        <time>2022-11-06T06:27:40Z</time>
      </trkpt>
      <trkpt lat="39.6765710" lon="-0.4506280">
        <ele>361.6</ele>
        <time>2022-11-06T06:27:41Z</time>
      </trkpt>
      <trkpt lat="39.6765800" lon="-0.4506570">
        <ele>361.7</ele>
        <time>2022-11-06T06:27:42Z</time>
      </trkpt>
      <trkpt lat="39.6765900" lon="-0.4506830">
        <ele>361.9</ele>
        <time>2022-11-06T06:27:43Z</time>
      </trkpt>
      <trkpt lat="39.6765980" lon="-0.4507100">
        <ele>362.0</ele>
        <time>2022-11-06T06:27:44Z</time>
      </trkpt>
      <trkpt lat="39.6766060" lon="-0.4507350">
        <ele>362.2</ele>
        <time>2022-11-06T06:27:45Z</time>
      </trkpt>
      <trkpt lat="39.6766170" lon="-0.4507620">
        <ele>362.4</ele>
        <time>2022-11-06T06:27:46Z</time>
      </trkpt>
      <trkpt lat="39.6766280" lon="-0.4507870">
        <ele>362.5</ele>
        <time>2022-11-06T06:27:47Z</time>
      </trkpt>
      <trkpt lat="39.6766360" lon="-0.4508120">
        <ele>362.7</ele>
        <time>2022-11-06T06:27:48Z</time>
      </trkpt>
      <trkpt lat="39.6766440" lon="-0.4508370">
        <ele>362.9</ele>
        <time>2022-11-06T06:27:49Z</time>
      </trkpt>
      <trkpt lat="39.6766440" lon="-0.4508370">
        <ele>362.9</ele>
        <time>2022-11-06T06:27:50Z</time>
      </trkpt>
      <trkpt lat="39.6766630" lon="-0.4508880">
        <ele>363.3</ele>
        <time>2022-11-06T06:27:51Z</time>
      </trkpt>
      <trkpt lat="39.6766710" lon="-0.4509150">
        <ele>363.5</ele>
        <time>2022-11-06T06:27:52Z</time>
      </trkpt>
      <trkpt lat="39.6766790" lon="-0.4509400">
        <ele>363.6</ele>
        <time>2022-11-06T06:27:53Z</time>
      </trkpt>
      <trkpt lat="39.6766840" lon="-0.4509650">
        <ele>363.8</ele>
        <time>2022-11-06T06:27:54Z</time>
      </trkpt>
      <trkpt lat="39.6766980" lon="-0.4509900">
        <ele>364.1</ele>
        <time>2022-11-06T06:27:55Z</time>
      </trkpt>
      <trkpt lat="39.6767060" lon="-0.4510130">
        <ele>364.3</ele>
        <time>2022-11-06T06:27:56Z</time>
      </trkpt>
      <trkpt lat="39.6767080" lon="-0.4510380">
        <ele>364.5</ele>
        <time>2022-11-06T06:27:57Z</time>
      </trkpt>
      <trkpt lat="39.6767110" lon="-0.4510650">
        <ele>364.7</ele>
        <time>2022-11-06T06:27:58Z</time>
      </trkpt>
      <trkpt lat="39.6767190" lon="-0.4510880">
        <ele>364.9</ele>
        <time>2022-11-06T06:27:59Z</time>
      </trkpt>
      <trkpt lat="39.6767190" lon="-0.4510880">
        <ele>364.9</ele>
        <time>2022-11-06T06:28:00Z</time>
      </trkpt>
      <trkpt lat="39.6767350" lon="-0.4511380">
        <ele>365.4</ele>
        <time>2022-11-06T06:28:01Z</time>
      </trkpt>
      <trkpt lat="39.6767380" lon="-0.4511650">
        <ele>365.6</ele>
        <time>2022-11-06T06:28:02Z</time>
      </trkpt>
      <trkpt lat="39.6767460" lon="-0.4511880">
        <ele>365.8</ele>
        <time>2022-11-06T06:28:03Z</time>
      </trkpt>
      <trkpt lat="39.6767510" lon="-0.4512130">
        <ele>366.1</ele>
        <time>2022-11-06T06:28:04Z</time>
      </trkpt>
      <trkpt lat="39.6767540" lon="-0.4512380">
        <ele>366.3</ele>
        <time>2022-11-06T06:28:05Z</time>
      </trkpt>
      <trkpt lat="39.6767570" lon="-0.4512630">
        <ele>366.6</ele>
        <time>2022-11-06T06:28:06Z</time>
      </trkpt>
      <trkpt lat="39.6767620" lon="-0.4512880">
        <ele>366.8</ele>
        <time>2022-11-06T06:28:07Z</time>
      </trkpt>
      <trkpt lat="39.6767620" lon="-0.4513130">
        <ele>367.0</ele>
        <time>2022-11-06T06:28:08Z</time>
      </trkpt>
      <trkpt lat="39.6767650" lon="-0.4513380">
        <ele>367.3</ele>
        <time>2022-11-06T06:28:09Z</time>
      </trkpt>
      <trkpt lat="39.6767730" lon="-0.4513620">
        <ele>367.5</ele>
        <time>2022-11-06T06:28:10Z</time>
      </trkpt>
      <trkpt lat="39.6767730" lon="-0.4513620">
        <ele>367.5</ele>
        <time>2022-11-06T06:28:11Z</time>
      </trkpt>
      <trkpt lat="39.6767970" lon="-0.4514050">
        <ele>368.1</ele>
        <time>2022-11-06T06:28:12Z</time>
      </trkpt>
      <trkpt lat="39.6768080" lon="-0.4514250">
        <ele>368.3</ele>
        <time>2022-11-06T06:28:13Z</time>
      </trkpt>
      <trkpt lat="39.6768180" lon="-0.4514470">
        <ele>368.6</ele>
        <time>2022-11-06T06:28:14Z</time>
      </trkpt>
      <trkpt lat="39.6768290" lon="-0.4514680">
        <ele>368.8</ele>
        <time>2022-11-06T06:28:15Z</time>
      </trkpt>
      <trkpt lat="39.6768420" lon="-0.4514870">
        <ele>369.1</ele>
        <time>2022-11-06T06:28:16Z</time>
      </trkpt>
      <trkpt lat="39.6768610" lon="-0.4514970">
        <ele>369.3</ele>
        <time>2022-11-06T06:28:17Z</time>
      </trkpt>
      <trkpt lat="39.6768770" lon="-0.4515120">
        <ele>369.6</ele>
        <time>2022-11-06T06:28:18Z</time>
      </trkpt>
      <trkpt lat="39.6768880" lon="-0.4515280">
        <ele>369.8</ele>
        <time>2022-11-06T06:28:19Z</time>
      </trkpt>
      <trkpt lat="39.6768880" lon="-0.4515280">
        <ele>369.8</ele>
        <time>2022-11-06T06:28:20Z</time>
      </trkpt>
      <trkpt lat="39.6768880" lon="-0.4515280">
        <ele>369.8</ele>
        <time>2022-11-06T06:28:21Z</time>
      </trkpt>
      <trkpt lat="39.6769230" lon="-0.4515820">
        <ele>370.5</ele>
        <time>2022-11-06T06:28:22Z</time>
      </trkpt>
      <trkpt lat="39.6769340" lon="-0.4516020">
        <ele>370.7</ele>
        <time>2022-11-06T06:28:23Z</time>
      </trkpt>
      <trkpt lat="39.6769440" lon="-0.4516250">
        <ele>371.0</ele>
        <time>2022-11-06T06:28:24Z</time>
      </trkpt>
      <trkpt lat="39.6769520" lon="-0.4516470">
        <ele>371.2</ele>
        <time>2022-11-06T06:28:25Z</time>
      </trkpt>
      <trkpt lat="39.6769600" lon="-0.4516680">
        <ele>371.4</ele>
        <time>2022-11-06T06:28:26Z</time>
      </trkpt>
      <trkpt lat="39.6769710" lon="-0.4516920">
        <ele>371.7</ele>
        <time>2022-11-06T06:28:27Z</time>
      </trkpt>
      <trkpt lat="39.6769790" lon="-0.4517170">
        <ele>371.9</ele>
        <time>2022-11-06T06:28:28Z</time>
      </trkpt>
      <trkpt lat="39.6769870" lon="-0.4517420">
        <ele>372.1</ele>
        <time>2022-11-06T06:28:29Z</time>
      </trkpt>
      <trkpt lat="39.6769950" lon="-0.4517670">
        <ele>372.3</ele>
        <time>2022-11-06T06:28:30Z</time>
      </trkpt>
      <trkpt lat="39.6769950" lon="-0.4517670">
        <ele>372.3</ele>
        <time>2022-11-06T06:28:31Z</time>
      </trkpt>
      <trkpt lat="39.6769950" lon="-0.4517670">
        <ele>372.3</ele>
        <time>2022-11-06T06:28:32Z</time>
      </trkpt>
      <trkpt lat="39.6770250" lon="-0.4518370">
        <ele>373.0</ele>
        <time>2022-11-06T06:28:33Z</time>
      </trkpt>
      <trkpt lat="39.6770360" lon="-0.4518580">
        <ele>373.2</ele>
        <time>2022-11-06T06:28:34Z</time>
      </trkpt>
      <trkpt lat="39.6770490" lon="-0.4518820">
        <ele>373.4</ele>
        <time>2022-11-06T06:28:35Z</time>
      </trkpt>
      <trkpt lat="39.6770600" lon="-0.4519020">
        <ele>373.6</ele>
        <time>2022-11-06T06:28:36Z</time>
      </trkpt>
      <trkpt lat="39.6770780" lon="-0.4519180">
        <ele>373.8</ele>
        <time>2022-11-06T06:28:37Z</time>
      </trkpt>
      <trkpt lat="39.6770950" lon="-0.4519280">
        <ele>374.0</ele>
        <time>2022-11-06T06:28:38Z</time>
      </trkpt>
      <trkpt lat="39.6771130" lon="-0.4519300">
        <ele>374.2</ele>
        <time>2022-11-06T06:28:39Z</time>
      </trkpt>
      <trkpt lat="39.6771320" lon="-0.4519350">
        <ele>374.4</ele>
        <time>2022-11-06T06:28:40Z</time>
      </trkpt>
      <trkpt lat="39.6771320" lon="-0.4519350">
        <ele>374.4</ele>
        <time>2022-11-06T06:28:41Z</time>
      </trkpt>
      <trkpt lat="39.6771700" lon="-0.4519480">
        <ele>374.8</ele>
        <time>2022-11-06T06:28:42Z</time>
      </trkpt>
      <trkpt lat="39.6771880" lon="-0.4519500">
        <ele>375.0</ele>
        <time>2022-11-06T06:28:43Z</time>
      </trkpt>
      <trkpt lat="39.6772040" lon="-0.4519570">
        <ele>375.2</ele>
        <time>2022-11-06T06:28:44Z</time>
      </trkpt>
      <trkpt lat="39.6772230" lon="-0.4519670">
        <ele>375.4</ele>
        <time>2022-11-06T06:28:45Z</time>
      </trkpt>
      <trkpt lat="39.6772390" lon="-0.4519720">
        <ele>375.6</ele>
        <time>2022-11-06T06:28:46Z</time>
      </trkpt>
      <trkpt lat="39.6772530" lon="-0.4519750">
        <ele>375.8</ele>
        <time>2022-11-06T06:28:47Z</time>
      </trkpt>
      <trkpt lat="39.6772720" lon="-0.4519800">
        <ele>376.1</ele>
        <time>2022-11-06T06:28:48Z</time>
      </trkpt>
      <trkpt lat="39.6772930" lon="-0.4519850">
        <ele>376.3</ele>
        <time>2022-11-06T06:28:49Z</time>
      </trkpt>
      <trkpt lat="39.6773060" lon="-0.4519900">
        <ele>376.5</ele>
        <time>2022-11-06T06:28:50Z</time>
      </trkpt>
      <trkpt lat="39.6773250" lon="-0.4519930">
        <ele>376.7</ele>
        <time>2022-11-06T06:28:51Z</time>
      </trkpt>
      <trkpt lat="39.6773250" lon="-0.4519930">
        <ele>376.7</ele>
        <time>2022-11-06T06:28:52Z</time>
      </trkpt>
      <trkpt lat="39.6773570" lon="-0.4520080">
        <ele>377.2</ele>
        <time>2022-11-06T06:28:53Z</time>
      </trkpt>
      <trkpt lat="39.6773760" lon="-0.4520130">
        <ele>377.4</ele>
        <time>2022-11-06T06:28:54Z</time>
      </trkpt>
      <trkpt lat="39.6773950" lon="-0.4520180">
        <ele>377.7</ele>
        <time>2022-11-06T06:28:55Z</time>
      </trkpt>
      <trkpt lat="39.6774110" lon="-0.4520180">
        <ele>377.9</ele>
        <time>2022-11-06T06:28:56Z</time>
      </trkpt>
      <trkpt lat="39.6774300" lon="-0.4520220">
        <ele>378.2</ele>
        <time>2022-11-06T06:28:57Z</time>
      </trkpt>
      <trkpt lat="39.6774430" lon="-0.4520280">
        <ele>378.3</ele>
        <time>2022-11-06T06:28:58Z</time>
      </trkpt>
      <trkpt lat="39.6774590" lon="-0.4520350">
        <ele>378.6</ele>
        <time>2022-11-06T06:28:59Z</time>
      </trkpt>
      <trkpt lat="39.6774750" lon="-0.4520420">
        <ele>378.8</ele>
        <time>2022-11-06T06:29:00Z</time>
      </trkpt>
      <trkpt lat="39.6774750" lon="-0.4520420">
        <ele>378.8</ele>
        <time>2022-11-06T06:29:01Z</time>
      </trkpt>
      <trkpt lat="39.6774750" lon="-0.4520420">
        <ele>378.8</ele>
        <time>2022-11-06T06:29:02Z</time>
      </trkpt>
      <trkpt lat="39.6775240" lon="-0.4520650">
        <ele>379.5</ele>
        <time>2022-11-06T06:29:03Z</time>
      </trkpt>
      <trkpt lat="39.6775400" lon="-0.4520750">
        <ele>379.7</ele>
        <time>2022-11-06T06:29:04Z</time>
      </trkpt>
      <trkpt lat="39.6775560" lon="-0.4520880">
        <ele>379.9</ele>
        <time>2022-11-06T06:29:05Z</time>
      </trkpt>
      <trkpt lat="39.6775670" lon="-0.4520970">
        <ele>380.1</ele>
        <time>2022-11-06T06:29:06Z</time>
      </trkpt>
      <trkpt lat="39.6775850" lon="-0.4521070">
        <ele>380.3</ele>
        <time>2022-11-06T06:29:07Z</time>
      </trkpt>
      <trkpt lat="39.6776040" lon="-0.4521170">
        <ele>380.5</ele>
        <time>2022-11-06T06:29:08Z</time>
      </trkpt>
      <trkpt lat="39.6776200" lon="-0.4521280">
        <ele>380.7</ele>
        <time>2022-11-06T06:29:09Z</time>
      </trkpt>
      <trkpt lat="39.6776390" lon="-0.4521400">
        <ele>380.9</ele>
        <time>2022-11-06T06:29:10Z</time>
      </trkpt>
      <trkpt lat="39.6776580" lon="-0.4521470">
        <ele>381.1</ele>
        <time>2022-11-06T06:29:11Z</time>
      </trkpt>
      <trkpt lat="39.6776580" lon="-0.4521470">
        <ele>381.1</ele>
        <time>2022-11-06T06:29:12Z</time>
      </trkpt>
      <trkpt lat="39.6776580" lon="-0.4521470">
        <ele>381.1</ele>
        <time>2022-11-06T06:29:13Z</time>
      </trkpt>
      <trkpt lat="39.6777110" lon="-0.4521730">
        <ele>381.7</ele>
        <time>2022-11-06T06:29:14Z</time>
      </trkpt>
      <trkpt lat="39.6777280" lon="-0.4521800">
        <ele>381.9</ele>
        <time>2022-11-06T06:29:15Z</time>
      </trkpt>
      <trkpt lat="39.6777410" lon="-0.4521880">
        <ele>382.0</ele>
        <time>2022-11-06T06:29:16Z</time>
      </trkpt>
      <trkpt lat="39.6777620" lon="-0.4521970">
        <ele>382.2</ele>
        <time>2022-11-06T06:29:17Z</time>
      </trkpt>
      <trkpt lat="39.6777810" lon="-0.4522050">
        <ele>382.4</ele>
        <time>2022-11-06T06:29:18Z</time>
      </trkpt>
      <trkpt lat="39.6777950" lon="-0.4522130">
        <ele>382.6</ele>
        <time>2022-11-06T06:29:19Z</time>
      </trkpt>
      <trkpt lat="39.6778130" lon="-0.4522250">
        <ele>382.8</ele>
        <time>2022-11-06T06:29:20Z</time>
      </trkpt>
      <trkpt lat="39.6778350" lon="-0.4522380">
        <ele>383.0</ele>
        <time>2022-11-06T06:29:21Z</time>
      </trkpt>
      <trkpt lat="39.6778350" lon="-0.4522380">
        <ele>383.0</ele>
        <time>2022-11-06T06:29:22Z</time>
      </trkpt>
      <trkpt lat="39.6778670" lon="-0.4522620">
        <ele>383.4</ele>
        <time>2022-11-06T06:29:23Z</time>
      </trkpt>
      <trkpt lat="39.6778910" lon="-0.4522730">
        <ele>383.7</ele>
        <time>2022-11-06T06:29:24Z</time>
      </trkpt>
      <trkpt lat="39.6779070" lon="-0.4522800">
        <ele>383.9</ele>
        <time>2022-11-06T06:29:25Z</time>
      </trkpt>
      <trkpt lat="39.6779260" lon="-0.4522880">
        <ele>384.1</ele>
        <time>2022-11-06T06:29:26Z</time>
      </trkpt>
      <trkpt lat="39.6779390" lon="-0.4522930">
        <ele>384.2</ele>
        <time>2022-11-06T06:29:27Z</time>
      </trkpt>
      <trkpt lat="39.6779560" lon="-0.4522980">
        <ele>384.4</ele>
        <time>2022-11-06T06:29:28Z</time>
      </trkpt>
      <trkpt lat="39.6779720" lon="-0.4523020">
        <ele>384.6</ele>
        <time>2022-11-06T06:29:29Z</time>
      </trkpt>
      <trkpt lat="39.6779850" lon="-0.4523050">
        <ele>384.8</ele>
        <time>2022-11-06T06:29:30Z</time>
      </trkpt>
      <trkpt lat="39.6780060" lon="-0.4523070">
        <ele>385.0</ele>
        <time>2022-11-06T06:29:31Z</time>
      </trkpt>
      <trkpt lat="39.6780250" lon="-0.4523020">
        <ele>385.3</ele>
        <time>2022-11-06T06:29:32Z</time>
      </trkpt>
      <trkpt lat="39.6780250" lon="-0.4523020">
        <ele>385.3</ele>
        <time>2022-11-06T06:29:33Z</time>
      </trkpt>
      <trkpt lat="39.6780570" lon="-0.4522970">
        <ele>385.7</ele>
        <time>2022-11-06T06:29:34Z</time>
      </trkpt>
      <trkpt lat="39.6780820" lon="-0.4522920">
        <ele>386.0</ele>
        <time>2022-11-06T06:29:35Z</time>
      </trkpt>
      <trkpt lat="39.6780980" lon="-0.4522880">
        <ele>386.2</ele>
        <time>2022-11-06T06:29:36Z</time>
      </trkpt>
      <trkpt lat="39.6781110" lon="-0.4522820">
        <ele>386.4</ele>
        <time>2022-11-06T06:29:37Z</time>
      </trkpt>
      <trkpt lat="39.6781240" lon="-0.4522730">
        <ele>386.6</ele>
        <time>2022-11-06T06:29:38Z</time>
      </trkpt>
      <trkpt lat="39.6781430" lon="-0.4522620">
        <ele>386.8</ele>
        <time>2022-11-06T06:29:39Z</time>
      </trkpt>
      <trkpt lat="39.6781570" lon="-0.4522520">
        <ele>387.0</ele>
        <time>2022-11-06T06:29:40Z</time>
      </trkpt>
      <trkpt lat="39.6781730" lon="-0.4522350">
        <ele>387.3</ele>
        <time>2022-11-06T06:29:41Z</time>
      </trkpt>
      <trkpt lat="39.6781890" lon="-0.4522200">
        <ele>387.5</ele>
        <time>2022-11-06T06:29:42Z</time>
      </trkpt>
      <trkpt lat="39.6781890" lon="-0.4522200">
        <ele>387.5</ele>
        <time>2022-11-06T06:29:43Z</time>
      </trkpt>
      <trkpt lat="39.6782160" lon="-0.4521870">
        <ele>388.0</ele>
        <time>2022-11-06T06:29:44Z</time>
      </trkpt>
      <trkpt lat="39.6782260" lon="-0.4521680">
        <ele>388.2</ele>
        <time>2022-11-06T06:29:45Z</time>
      </trkpt>
      <trkpt lat="39.6782430" lon="-0.4521520">
        <ele>388.4</ele>
        <time>2022-11-06T06:29:46Z</time>
      </trkpt>
      <trkpt lat="39.6782560" lon="-0.4521370">
        <ele>388.6</ele>
        <time>2022-11-06T06:29:47Z</time>
      </trkpt>
      <trkpt lat="39.6782720" lon="-0.4521220">
        <ele>388.8</ele>
        <time>2022-11-06T06:29:48Z</time>
      </trkpt>
      <trkpt lat="39.6782880" lon="-0.4521070">
        <ele>389.0</ele>
        <time>2022-11-06T06:29:49Z</time>
      </trkpt>
      <trkpt lat="39.6783020" lon="-0.4520880">
        <ele>389.3</ele>
        <time>2022-11-06T06:29:50Z</time>
      </trkpt>
      <trkpt lat="39.6783230" lon="-0.4520720">
        <ele>389.5</ele>
        <time>2022-11-06T06:29:51Z</time>
      </trkpt>
      <trkpt lat="39.6783360" lon="-0.4520530">
        <ele>389.7</ele>
        <time>2022-11-06T06:29:52Z</time>
      </trkpt>
      <trkpt lat="39.6783360" lon="-0.4520530">
        <ele>389.7</ele>
        <time>2022-11-06T06:29:53Z</time>
      </trkpt>
      <trkpt lat="39.6783360" lon="-0.4520530">
        <ele>389.7</ele>
        <time>2022-11-06T06:29:54Z</time>
      </trkpt>
      <trkpt lat="39.6783740" lon="-0.4519730">
        <ele>390.3</ele>
        <time>2022-11-06T06:29:55Z</time>
      </trkpt>
      <trkpt lat="39.6783820" lon="-0.4519430">
        <ele>390.5</ele>
        <time>2022-11-06T06:29:56Z</time>
      </trkpt>
      <trkpt lat="39.6783870" lon="-0.4519100">
        <ele>390.7</ele>
        <time>2022-11-06T06:29:57Z</time>
      </trkpt>
      <trkpt lat="39.6783900" lon="-0.4518770">
        <ele>390.8</ele>
        <time>2022-11-06T06:29:58Z</time>
      </trkpt>
      <trkpt lat="39.6783900" lon="-0.4518430">
        <ele>391.0</ele>
        <time>2022-11-06T06:29:59Z</time>
      </trkpt>
      <trkpt lat="39.6783870" lon="-0.4518100">
        <ele>391.2</ele>
        <time>2022-11-06T06:30:00Z</time>
      </trkpt>
      <trkpt lat="39.6783820" lon="-0.4517780">
        <ele>391.3</ele>
        <time>2022-11-06T06:30:01Z</time>
      </trkpt>
      <trkpt lat="39.6783790" lon="-0.4517480">
        <ele>391.4</ele>
        <time>2022-11-06T06:30:02Z</time>
      </trkpt>
      <trkpt lat="39.6783790" lon="-0.4517480">
        <ele>391.4</ele>
        <time>2022-11-06T06:30:03Z</time>
      </trkpt>
      <trkpt lat="39.6783790" lon="-0.4517480">
        <ele>391.4</ele>
        <time>2022-11-06T06:30:04Z</time>
      </trkpt>
      <trkpt lat="39.6783610" lon="-0.4516550">
        <ele>391.8</ele>
        <time>2022-11-06T06:30:05Z</time>
      </trkpt>
      <trkpt lat="39.6783440" lon="-0.4516270">
        <ele>392.0</ele>
        <time>2022-11-06T06:30:06Z</time>
      </trkpt>
      <trkpt lat="39.6783280" lon="-0.4516030">
        <ele>392.1</ele>
        <time>2022-11-06T06:30:07Z</time>
      </trkpt>
      <trkpt lat="39.6783070" lon="-0.4515820">
        <ele>392.2</ele>
        <time>2022-11-06T06:30:08Z</time>
      </trkpt>
      <trkpt lat="39.6782880" lon="-0.4515600">
        <ele>392.4</ele>
        <time>2022-11-06T06:30:09Z</time>
      </trkpt>
      <trkpt lat="39.6782690" lon="-0.4515350">
        <ele>392.6</ele>
        <time>2022-11-06T06:30:10Z</time>
      </trkpt>
      <trkpt lat="39.6782510" lon="-0.4515180">
        <ele>392.7</ele>
        <time>2022-11-06T06:30:11Z</time>
      </trkpt>
      <trkpt lat="39.6782290" lon="-0.4515020">
        <ele>392.9</ele>
        <time>2022-11-06T06:30:12Z</time>
      </trkpt>
      <trkpt lat="39.6782160" lon="-0.4514850">
        <ele>393.0</ele>
        <time>2022-11-06T06:30:13Z</time>
      </trkpt>
      <trkpt lat="39.6782160" lon="-0.4514850">
        <ele>393.0</ele>
        <time>2022-11-06T06:30:14Z</time>
      </trkpt>
      <trkpt lat="39.6782160" lon="-0.4514850">
        <ele>393.0</ele>
        <time>2022-11-06T06:30:15Z</time>
      </trkpt>
      <trkpt lat="39.6781780" lon="-0.4514170">
        <ele>393.6</ele>
        <time>2022-11-06T06:30:16Z</time>
      </trkpt>
      <trkpt lat="39.6781730" lon="-0.4513930">
        <ele>393.7</ele>
        <time>2022-11-06T06:30:17Z</time>
      </trkpt>
      <trkpt lat="39.6781730" lon="-0.4513700">
        <ele>393.9</ele>
        <time>2022-11-06T06:30:18Z</time>
      </trkpt>
      <trkpt lat="39.6781780" lon="-0.4513470">
        <ele>394.0</ele>
        <time>2022-11-06T06:30:19Z</time>
      </trkpt>
      <trkpt lat="39.6781890" lon="-0.4513300">
        <ele>394.2</ele>
        <time>2022-11-06T06:30:20Z</time>
      </trkpt>
      <trkpt lat="39.6782020" lon="-0.4513150">
        <ele>394.3</ele>
        <time>2022-11-06T06:30:21Z</time>
      </trkpt>
      <trkpt lat="39.6782180" lon="-0.4513030">
        <ele>394.5</ele>
        <time>2022-11-06T06:30:22Z</time>
      </trkpt>
      <trkpt lat="39.6782340" lon="-0.4512980">
        <ele>394.7</ele>
        <time>2022-11-06T06:30:23Z</time>
      </trkpt>
      <trkpt lat="39.6782340" lon="-0.4512980">
        <ele>394.7</ele>
        <time>2022-11-06T06:30:24Z</time>
      </trkpt>
      <trkpt lat="39.6782720" lon="-0.4512880">
        <ele>395.2</ele>
        <time>2022-11-06T06:30:25Z</time>
      </trkpt>
      <trkpt lat="39.6782910" lon="-0.4512830">
        <ele>395.4</ele>
        <time>2022-11-06T06:30:26Z</time>
      </trkpt>
      <trkpt lat="39.6783070" lon="-0.4512780">
        <ele>395.6</ele>
        <time>2022-11-06T06:30:27Z</time>
      </trkpt>
      <trkpt lat="39.6783230" lon="-0.4512730">
        <ele>395.8</ele>
        <time>2022-11-06T06:30:28Z</time>
      </trkpt>
      <trkpt lat="39.6783360" lon="-0.4512670">
        <ele>395.9</ele>
        <time>2022-11-06T06:30:29Z</time>
      </trkpt>
      <trkpt lat="39.6783550" lon="-0.4512670">
        <ele>396.2</ele>
        <time>2022-11-06T06:30:30Z</time>
      </trkpt>
      <trkpt lat="39.6783710" lon="-0.4512700">
        <ele>396.4</ele>
        <time>2022-11-06T06:30:31Z</time>
      </trkpt>
      <trkpt lat="39.6783870" lon="-0.4512650">
        <ele>396.6</ele>
        <time>2022-11-06T06:30:32Z</time>
      </trkpt>
      <trkpt lat="39.6784010" lon="-0.4512580">
        <ele>396.8</ele>
        <time>2022-11-06T06:30:33Z</time>
      </trkpt>
      <trkpt lat="39.6784170" lon="-0.4512550">
        <ele>397.0</ele>
        <time>2022-11-06T06:30:34Z</time>
      </trkpt>
      <trkpt lat="39.6784170" lon="-0.4512550">
        <ele>397.0</ele>
        <time>2022-11-06T06:30:35Z</time>
      </trkpt>
      <trkpt lat="39.6784490" lon="-0.4512650">
        <ele>397.4</ele>
        <time>2022-11-06T06:30:36Z</time>
      </trkpt>
      <trkpt lat="39.6784680" lon="-0.4512820">
        <ele>397.7</ele>
        <time>2022-11-06T06:30:37Z</time>
      </trkpt>
      <trkpt lat="39.6784810" lon="-0.4512980">
        <ele>397.9</ele>
        <time>2022-11-06T06:30:38Z</time>
      </trkpt>
      <trkpt lat="39.6784970" lon="-0.4513130">
        <ele>398.7</ele>
        <time>2022-11-06T06:30:39Z</time>
      </trkpt>
      <trkpt lat="39.6785080" lon="-0.4513320">
        <ele>398.8</ele>
        <time>2022-11-06T06:30:40Z</time>
      </trkpt>
      <trkpt lat="39.6785240" lon="-0.4513520">
        <ele>399.0</ele>
        <time>2022-11-06T06:30:41Z</time>
      </trkpt>
      <trkpt lat="39.6785350" lon="-0.4513720">
        <ele>399.2</ele>
        <time>2022-11-06T06:30:42Z</time>
      </trkpt>
      <trkpt lat="39.6785460" lon="-0.4513930">
        <ele>399.3</ele>
        <time>2022-11-06T06:30:43Z</time>
      </trkpt>
      <trkpt lat="39.6785460" lon="-0.4513930">
        <ele>399.3</ele>
        <time>2022-11-06T06:30:44Z</time>
      </trkpt>
      <trkpt lat="39.6785460" lon="-0.4513930">
        <ele>399.3</ele>
        <time>2022-11-06T06:30:45Z</time>
      </trkpt>
      <trkpt lat="39.6785720" lon="-0.4514680">
        <ele>399.8</ele>
        <time>2022-11-06T06:30:46Z</time>
      </trkpt>
      <trkpt lat="39.6785800" lon="-0.4514930">
        <ele>400.0</ele>
        <time>2022-11-06T06:30:47Z</time>
      </trkpt>
      <trkpt lat="39.6785890" lon="-0.4515170">
        <ele>400.1</ele>
        <time>2022-11-06T06:30:48Z</time>
      </trkpt>
      <trkpt lat="39.6785940" lon="-0.4515430">
        <ele>400.3</ele>
        <time>2022-11-06T06:30:49Z</time>
      </trkpt>
      <trkpt lat="39.6785990" lon="-0.4515730">
        <ele>400.5</ele>
        <time>2022-11-06T06:30:50Z</time>
      </trkpt>
      <trkpt lat="39.6786070" lon="-0.4515980">
        <ele>400.7</ele>
        <time>2022-11-06T06:30:51Z</time>
      </trkpt>
      <trkpt lat="39.6786130" lon="-0.4516270">
        <ele>400.9</ele>
        <time>2022-11-06T06:30:52Z</time>
      </trkpt>
      <trkpt lat="39.6786210" lon="-0.4516550">
        <ele>401.1</ele>
        <time>2022-11-06T06:30:53Z</time>
      </trkpt>
      <trkpt lat="39.6786260" lon="-0.4516830">
        <ele>401.2</ele>
        <time>2022-11-06T06:30:54Z</time>
      </trkpt>
      <trkpt lat="39.6786260" lon="-0.4516830">
        <ele>401.2</ele>
        <time>2022-11-06T06:30:55Z</time>
      </trkpt>
      <trkpt lat="39.6786260" lon="-0.4516830">
        <ele>401.2</ele>
        <time>2022-11-06T06:30:56Z</time>
      </trkpt>
      <trkpt lat="39.6786390" lon="-0.4517670">
        <ele>401.8</ele>
        <time>2022-11-06T06:30:57Z</time>
      </trkpt>
      <trkpt lat="39.6786420" lon="-0.4517930">
        <ele>401.9</ele>
        <time>2022-11-06T06:30:58Z</time>
      </trkpt>
      <trkpt lat="39.6786500" lon="-0.4518220">
        <ele>402.1</ele>
        <time>2022-11-06T06:30:59Z</time>
      </trkpt>
      <trkpt lat="39.6786530" lon="-0.4518520">
        <ele>402.3</ele>
        <time>2022-11-06T06:31:00Z</time>
      </trkpt>
      <trkpt lat="39.6786610" lon="-0.4518780">
        <ele>402.5</ele>
        <time>2022-11-06T06:31:01Z</time>
      </trkpt>
      <trkpt lat="39.6786660" lon="-0.4519080">
        <ele>402.6</ele>
        <time>2022-11-06T06:31:02Z</time>
      </trkpt>
      <trkpt lat="39.6786690" lon="-0.4519370">
        <ele>402.8</ele>
        <time>2022-11-06T06:31:03Z</time>
      </trkpt>
      <trkpt lat="39.6786720" lon="-0.4519650">
        <ele>403.0</ele>
        <time>2022-11-06T06:31:04Z</time>
      </trkpt>
      <trkpt lat="39.6786720" lon="-0.4519650">
        <ele>403.0</ele>
        <time>2022-11-06T06:31:05Z</time>
      </trkpt>
      <trkpt lat="39.6786800" lon="-0.4520220">
        <ele>403.3</ele>
        <time>2022-11-06T06:31:06Z</time>
      </trkpt>
      <trkpt lat="39.6786800" lon="-0.4520500">
        <ele>403.5</ele>
        <time>2022-11-06T06:31:07Z</time>
      </trkpt>
      <trkpt lat="39.6786800" lon="-0.4520780">
        <ele>403.7</ele>
        <time>2022-11-06T06:31:08Z</time>
      </trkpt>
      <trkpt lat="39.6786850" lon="-0.4521070">
        <ele>403.9</ele>
        <time>2022-11-06T06:31:09Z</time>
      </trkpt>
      <trkpt lat="39.6786850" lon="-0.4521370">
        <ele>404.1</ele>
        <time>2022-11-06T06:31:10Z</time>
      </trkpt>
      <trkpt lat="39.6786800" lon="-0.4521630">
        <ele>404.2</ele>
        <time>2022-11-06T06:31:11Z</time>
      </trkpt>
      <trkpt lat="39.6786770" lon="-0.4521920">
        <ele>404.4</ele>
        <time>2022-11-06T06:31:12Z</time>
      </trkpt>
      <trkpt lat="39.6786770" lon="-0.4522180">
        <ele>404.6</ele>
        <time>2022-11-06T06:31:13Z</time>
      </trkpt>
      <trkpt lat="39.6786660" lon="-0.4522400">
        <ele>404.8</ele>
        <time>2022-11-06T06:31:14Z</time>
      </trkpt>
      <trkpt lat="39.6786530" lon="-0.4522580">
        <ele>405.0</ele>
        <time>2022-11-06T06:31:15Z</time>
      </trkpt>
      <trkpt lat="39.6786530" lon="-0.4522580">
        <ele>405.0</ele>
        <time>2022-11-06T06:31:16Z</time>
      </trkpt>
      <trkpt lat="39.6786450" lon="-0.4523020">
        <ele>405.3</ele>
        <time>2022-11-06T06:31:17Z</time>
      </trkpt>
      <trkpt lat="39.6786450" lon="-0.4523180">
        <ele>405.4</ele>
        <time>2022-11-06T06:31:18Z</time>
      </trkpt>
      <trkpt lat="39.6786500" lon="-0.4523350">
        <ele>405.5</ele>
        <time>2022-11-06T06:31:19Z</time>
      </trkpt>
      <trkpt lat="39.6786530" lon="-0.4523520">
        <ele>405.6</ele>
        <time>2022-11-06T06:31:20Z</time>
      </trkpt>
      <trkpt lat="39.6786530" lon="-0.4523670">
        <ele>405.6</ele>
        <time>2022-11-06T06:31:21Z</time>
      </trkpt>
      <trkpt lat="39.6786500" lon="-0.4523820">
        <ele>405.7</ele>
        <time>2022-11-06T06:31:22Z</time>
      </trkpt>
      <trkpt lat="39.6786420" lon="-0.4523880">
        <ele>405.7</ele>
        <time>2022-11-06T06:31:23Z</time>
      </trkpt>
      <trkpt lat="39.6786310" lon="-0.4523950">
        <ele>405.8</ele>
        <time>2022-11-06T06:31:24Z</time>
      </trkpt>
      <trkpt lat="39.6786230" lon="-0.4524080">
        <ele>405.8</ele>
        <time>2022-11-06T06:31:25Z</time>
      </trkpt>
      <trkpt lat="39.6786230" lon="-0.4524080">
        <ele>405.8</ele>
        <time>2022-11-06T06:31:26Z</time>
      </trkpt>
      <trkpt lat="39.6785990" lon="-0.4524320">
        <ele>405.9</ele>
        <time>2022-11-06T06:31:27Z</time>
      </trkpt>
      <trkpt lat="39.6785890" lon="-0.4524450">
        <ele>406.0</ele>
        <time>2022-11-06T06:31:28Z</time>
      </trkpt>
      <trkpt lat="39.6785800" lon="-0.4524600">
        <ele>406.0</ele>
        <time>2022-11-06T06:31:29Z</time>
      </trkpt>
      <trkpt lat="39.6785720" lon="-0.4524750">
        <ele>406.1</ele>
        <time>2022-11-06T06:31:30Z</time>
      </trkpt>
      <trkpt lat="39.6785700" lon="-0.4524900">
        <ele>406.1</ele>
        <time>2022-11-06T06:31:31Z</time>
      </trkpt>
      <trkpt lat="39.6785620" lon="-0.4525070">
        <ele>406.1</ele>
        <time>2022-11-06T06:31:32Z</time>
      </trkpt>
      <trkpt lat="39.6785540" lon="-0.4525270">
        <ele>406.2</ele>
        <time>2022-11-06T06:31:33Z</time>
      </trkpt>
      <trkpt lat="39.6785510" lon="-0.4525450">
        <ele>406.2</ele>
        <time>2022-11-06T06:31:34Z</time>
      </trkpt>
      <trkpt lat="39.6785430" lon="-0.4525670">
        <ele>406.2</ele>
        <time>2022-11-06T06:31:35Z</time>
      </trkpt>
      <trkpt lat="39.6785430" lon="-0.4525670">
        <ele>406.2</ele>
        <time>2022-11-06T06:31:36Z</time>
      </trkpt>
      <trkpt lat="39.6785430" lon="-0.4525670">
        <ele>406.2</ele>
        <time>2022-11-06T06:31:37Z</time>
      </trkpt>
      <trkpt lat="39.6785270" lon="-0.4526400">
        <ele>406.3</ele>
        <time>2022-11-06T06:31:38Z</time>
      </trkpt>
      <trkpt lat="39.6785210" lon="-0.4526700">
        <ele>406.3</ele>
        <time>2022-11-06T06:31:39Z</time>
      </trkpt>
      <trkpt lat="39.6785130" lon="-0.4526970">
        <ele>406.3</ele>
        <time>2022-11-06T06:31:40Z</time>
      </trkpt>
      <trkpt lat="39.6784970" lon="-0.4527180">
        <ele>406.3</ele>
        <time>2022-11-06T06:31:41Z</time>
      </trkpt>
      <trkpt lat="39.6784810" lon="-0.4527400">
        <ele>406.3</ele>
        <time>2022-11-06T06:31:42Z</time>
      </trkpt>
      <trkpt lat="39.6784620" lon="-0.4527630">
        <ele>406.2</ele>
        <time>2022-11-06T06:31:43Z</time>
      </trkpt>
      <trkpt lat="39.6784410" lon="-0.4527930">
        <ele>406.0</ele>
        <time>2022-11-06T06:31:44Z</time>
      </trkpt>
      <trkpt lat="39.6784170" lon="-0.4528220">
        <ele>405.9</ele>
        <time>2022-11-06T06:31:45Z</time>
      </trkpt>
      <trkpt lat="39.6784170" lon="-0.4528220">
        <ele>405.9</ele>
        <time>2022-11-06T06:31:46Z</time>
      </trkpt>
      <trkpt lat="39.6784170" lon="-0.4528220">
        <ele>405.9</ele>
        <time>2022-11-06T06:31:47Z</time>
      </trkpt>
      <trkpt lat="39.6783500" lon="-0.4529520">
        <ele>405.3</ele>
        <time>2022-11-06T06:31:48Z</time>
      </trkpt>
      <trkpt lat="39.6783180" lon="-0.4530200">
        <ele>404.9</ele>
        <time>2022-11-06T06:31:49Z</time>
      </trkpt>
      <trkpt lat="39.6782910" lon="-0.4530780">
        <ele>404.6</ele>
        <time>2022-11-06T06:31:50Z</time>
      </trkpt>
      <trkpt lat="39.6782530" lon="-0.4531420">
        <ele>404.2</ele>
        <time>2022-11-06T06:31:51Z</time>
      </trkpt>
      <trkpt lat="39.6782240" lon="-0.4532020">
        <ele>403.9</ele>
        <time>2022-11-06T06:31:52Z</time>
      </trkpt>
      <trkpt lat="39.6781970" lon="-0.4532980">
        <ele>403.4</ele>
        <time>2022-11-06T06:31:53Z</time>
      </trkpt>
      <trkpt lat="39.6781780" lon="-0.4533750">
        <ele>402.9</ele>
        <time>2022-11-06T06:31:54Z</time>
      </trkpt>
      <trkpt lat="39.6781570" lon="-0.4534550">
        <ele>402.5</ele>
        <time>2022-11-06T06:31:55Z</time>
      </trkpt>
      <trkpt lat="39.6781350" lon="-0.4535280">
        <ele>402.0</ele>
        <time>2022-11-06T06:31:56Z</time>
      </trkpt>
      <trkpt lat="39.6781350" lon="-0.4535280">
        <ele>402.0</ele>
        <time>2022-11-06T06:31:57Z</time>
      </trkpt>
      <trkpt lat="39.6781060" lon="-0.4536970">
        <ele>401.1</ele>
        <time>2022-11-06T06:31:58Z</time>
      </trkpt>
      <trkpt lat="39.6780980" lon="-0.4537850">
        <ele>400.6</ele>
        <time>2022-11-06T06:31:59Z</time>
      </trkpt>
      <trkpt lat="39.6780820" lon="-0.4538770">
        <ele>400.1</ele>
        <time>2022-11-06T06:32:00Z</time>
      </trkpt>
      <trkpt lat="39.6780650" lon="-0.4539680">
        <ele>399.7</ele>
        <time>2022-11-06T06:32:01Z</time>
      </trkpt>
      <trkpt lat="39.6780470" lon="-0.4540580">
        <ele>399.2</ele>
        <time>2022-11-06T06:32:02Z</time>
      </trkpt>
      <trkpt lat="39.6780310" lon="-0.4541380">
        <ele>398.9</ele>
        <time>2022-11-06T06:32:03Z</time>
      </trkpt>
      <trkpt lat="39.6780060" lon="-0.4542330">
        <ele>398.5</ele>
        <time>2022-11-06T06:32:04Z</time>
      </trkpt>
      <trkpt lat="39.6779800" lon="-0.4543350">
        <ele>398.1</ele>
        <time>2022-11-06T06:32:05Z</time>
      </trkpt>
      <trkpt lat="39.6779560" lon="-0.4544220">
        <ele>397.9</ele>
        <time>2022-11-06T06:32:06Z</time>
      </trkpt>
      <trkpt lat="39.6779560" lon="-0.4544220">
        <ele>397.9</ele>
        <time>2022-11-06T06:32:07Z</time>
      </trkpt>
      <trkpt lat="39.6779370" lon="-0.4545980">
        <ele>397.5</ele>
        <time>2022-11-06T06:32:08Z</time>
      </trkpt>
      <trkpt lat="39.6779210" lon="-0.4546850">
        <ele>397.4</ele>
        <time>2022-11-06T06:32:09Z</time>
      </trkpt>
      <trkpt lat="39.6779180" lon="-0.4547630">
        <ele>397.5</ele>
        <time>2022-11-06T06:32:10Z</time>
      </trkpt>
      <trkpt lat="39.6779370" lon="-0.4548200">
        <ele>397.5</ele>
        <time>2022-11-06T06:32:11Z</time>
      </trkpt>
      <trkpt lat="39.6779530" lon="-0.4548750">
        <ele>397.6</ele>
        <time>2022-11-06T06:32:12Z</time>
      </trkpt>
      <trkpt lat="39.6779560" lon="-0.4549270">
        <ele>397.6</ele>
        <time>2022-11-06T06:32:13Z</time>
      </trkpt>
      <trkpt lat="39.6779720" lon="-0.4549870">
        <ele>397.7</ele>
        <time>2022-11-06T06:32:14Z</time>
      </trkpt>
      <trkpt lat="39.6779900" lon="-0.4550480">
        <ele>397.2</ele>
        <time>2022-11-06T06:32:15Z</time>
      </trkpt>
      <trkpt lat="39.6780170" lon="-0.4551070">
        <ele>396.7</ele>
        <time>2022-11-06T06:32:16Z</time>
      </trkpt>
      <trkpt lat="39.6780470" lon="-0.4551720">
        <ele>396.1</ele>
        <time>2022-11-06T06:32:17Z</time>
      </trkpt>
      <trkpt lat="39.6780470" lon="-0.4551720">
        <ele>396.1</ele>
        <time>2022-11-06T06:32:18Z</time>
      </trkpt>
      <trkpt lat="39.6781270" lon="-0.4553030">
        <ele>394.8</ele>
        <time>2022-11-06T06:32:19Z</time>
      </trkpt>
      <trkpt lat="39.6781540" lon="-0.4553780">
        <ele>394.2</ele>
        <time>2022-11-06T06:32:20Z</time>
      </trkpt>
      <trkpt lat="39.6781730" lon="-0.4554580">
        <ele>393.6</ele>
        <time>2022-11-06T06:32:21Z</time>
      </trkpt>
      <trkpt lat="39.6781970" lon="-0.4555470">
        <ele>393.1</ele>
        <time>2022-11-06T06:32:22Z</time>
      </trkpt>
      <trkpt lat="39.6782240" lon="-0.4556380">
        <ele>392.6</ele>
        <time>2022-11-06T06:32:23Z</time>
      </trkpt>
      <trkpt lat="39.6782510" lon="-0.4557270">
        <ele>392.1</ele>
        <time>2022-11-06T06:32:24Z</time>
      </trkpt>
      <trkpt lat="39.6782690" lon="-0.4558100">
        <ele>391.7</ele>
        <time>2022-11-06T06:32:25Z</time>
      </trkpt>
      <trkpt lat="39.6782880" lon="-0.4558970">
        <ele>391.4</ele>
        <time>2022-11-06T06:32:26Z</time>
      </trkpt>
      <trkpt lat="39.6782880" lon="-0.4558970">
        <ele>391.4</ele>
        <time>2022-11-06T06:32:27Z</time>
      </trkpt>
      <trkpt lat="39.6782880" lon="-0.4558970">
        <ele>391.4</ele>
        <time>2022-11-06T06:32:28Z</time>
      </trkpt>
      <trkpt lat="39.6783070" lon="-0.4561100">
        <ele>390.6</ele>
        <time>2022-11-06T06:32:29Z</time>
      </trkpt>
      <trkpt lat="39.6783150" lon="-0.4561600">
        <ele>390.4</ele>
        <time>2022-11-06T06:32:30Z</time>
      </trkpt>
      <trkpt lat="39.6783100" lon="-0.4562050">
        <ele>390.2</ele>
        <time>2022-11-06T06:32:31Z</time>
      </trkpt>
      <trkpt lat="39.6783070" lon="-0.4562600">
        <ele>390.0</ele>
        <time>2022-11-06T06:32:32Z</time>
      </trkpt>
      <trkpt lat="39.6783100" lon="-0.4563070">
        <ele>389.8</ele>
        <time>2022-11-06T06:32:33Z</time>
      </trkpt>
      <trkpt lat="39.6783150" lon="-0.4563450">
        <ele>389.6</ele>
        <time>2022-11-06T06:32:34Z</time>
      </trkpt>
      <trkpt lat="39.6783070" lon="-0.4563850">
        <ele>389.4</ele>
        <time>2022-11-06T06:32:35Z</time>
      </trkpt>
      <trkpt lat="39.6782960" lon="-0.4564350">
        <ele>389.2</ele>
        <time>2022-11-06T06:32:36Z</time>
      </trkpt>
      <trkpt lat="39.6782830" lon="-0.4564970">
        <ele>388.9</ele>
        <time>2022-11-06T06:32:37Z</time>
      </trkpt>
      <trkpt lat="39.6782830" lon="-0.4564970">
        <ele>388.9</ele>
        <time>2022-11-06T06:32:38Z</time>
      </trkpt>
      <trkpt lat="39.6782830" lon="-0.4564970">
        <ele>388.9</ele>
        <time>2022-11-06T06:32:39Z</time>
      </trkpt>
      <trkpt lat="39.6782450" lon="-0.4566250">
        <ele>388.2</ele>
        <time>2022-11-06T06:32:40Z</time>
      </trkpt>
      <trkpt lat="39.6782340" lon="-0.4566900">
        <ele>387.9</ele>
        <time>2022-11-06T06:32:41Z</time>
      </trkpt>
      <trkpt lat="39.6782260" lon="-0.4567500">
        <ele>387.6</ele>
        <time>2022-11-06T06:32:42Z</time>
      </trkpt>
      <trkpt lat="39.6782260" lon="-0.4567820">
        <ele>387.5</ele>
        <time>2022-11-06T06:32:43Z</time>
      </trkpt>
      <trkpt lat="39.6782290" lon="-0.4568370">
        <ele>387.2</ele>
        <time>2022-11-06T06:32:44Z</time>
      </trkpt>
      <trkpt lat="39.6782240" lon="-0.4568970">
        <ele>386.9</ele>
        <time>2022-11-06T06:32:45Z</time>
      </trkpt>
      <trkpt lat="39.6782160" lon="-0.4569550">
        <ele>386.6</ele>
        <time>2022-11-06T06:32:46Z</time>
      </trkpt>
      <trkpt lat="39.6782160" lon="-0.4570180">
        <ele>386.4</ele>
        <time>2022-11-06T06:32:47Z</time>
      </trkpt>
      <trkpt lat="39.6782160" lon="-0.4570180">
        <ele>386.4</ele>
        <time>2022-11-06T06:32:48Z</time>
      </trkpt>
      <trkpt lat="39.6781920" lon="-0.4571300">
        <ele>385.8</ele>
        <time>2022-11-06T06:32:49Z</time>
      </trkpt>
      <trkpt lat="39.6781810" lon="-0.4572020">
        <ele>385.5</ele>
        <time>2022-11-06T06:32:50Z</time>
      </trkpt>
      <trkpt lat="39.6781810" lon="-0.4572770">
        <ele>385.2</ele>
        <time>2022-11-06T06:32:51Z</time>
      </trkpt>
      <trkpt lat="39.6781650" lon="-0.4573480">
        <ele>384.7</ele>
        <time>2022-11-06T06:32:52Z</time>
      </trkpt>
      <trkpt lat="39.6781430" lon="-0.4574150">
        <ele>384.4</ele>
        <time>2022-11-06T06:32:53Z</time>
      </trkpt>
      <trkpt lat="39.6781300" lon="-0.4575020">
        <ele>383.9</ele>
        <time>2022-11-06T06:32:54Z</time>
      </trkpt>
      <trkpt lat="39.6781300" lon="-0.4575730">
        <ele>383.6</ele>
        <time>2022-11-06T06:32:55Z</time>
      </trkpt>
      <trkpt lat="39.6781240" lon="-0.4576180">
        <ele>383.3</ele>
        <time>2022-11-06T06:32:56Z</time>
      </trkpt>
      <trkpt lat="39.6781110" lon="-0.4576730">
        <ele>383.1</ele>
        <time>2022-11-06T06:32:57Z</time>
      </trkpt>
      <trkpt lat="39.6781080" lon="-0.4577320">
        <ele>382.8</ele>
        <time>2022-11-06T06:32:58Z</time>
      </trkpt>
      <trkpt lat="39.6781080" lon="-0.4577320">
        <ele>382.8</ele>
        <time>2022-11-06T06:32:59Z</time>
      </trkpt>
      <trkpt lat="39.6781300" lon="-0.4578350">
        <ele>382.3</ele>
        <time>2022-11-06T06:33:00Z</time>
      </trkpt>
      <trkpt lat="39.6781380" lon="-0.4578980">
        <ele>382.0</ele>
        <time>2022-11-06T06:33:01Z</time>
      </trkpt>
      <trkpt lat="39.6781510" lon="-0.4579420">
        <ele>381.7</ele>
        <time>2022-11-06T06:33:02Z</time>
      </trkpt>
      <trkpt lat="39.6781540" lon="-0.4579950">
        <ele>381.4</ele>
        <time>2022-11-06T06:33:03Z</time>
      </trkpt>
      <trkpt lat="39.6781510" lon="-0.4580500">
        <ele>381.0</ele>
        <time>2022-11-06T06:33:04Z</time>
      </trkpt>
      <trkpt lat="39.6781540" lon="-0.4580920">
        <ele>380.7</ele>
        <time>2022-11-06T06:33:05Z</time>
      </trkpt>
      <trkpt lat="39.6781620" lon="-0.4581400">
        <ele>380.3</ele>
        <time>2022-11-06T06:33:06Z</time>
      </trkpt>
      <trkpt lat="39.6781650" lon="-0.4582020">
        <ele>379.8</ele>
        <time>2022-11-06T06:33:07Z</time>
      </trkpt>
      <trkpt lat="39.6781650" lon="-0.4582020">
        <ele>379.8</ele>
        <time>2022-11-06T06:33:08Z</time>
      </trkpt>
      <trkpt lat="39.6781650" lon="-0.4582020">
        <ele>379.8</ele>
        <time>2022-11-06T06:33:09Z</time>
      </trkpt>
      <trkpt lat="39.6781570" lon="-0.4583820">
        <ele>378.1</ele>
        <time>2022-11-06T06:33:10Z</time>
      </trkpt>
      <trkpt lat="39.6781460" lon="-0.4584550">
        <ele>377.3</ele>
        <time>2022-11-06T06:33:11Z</time>
      </trkpt>
      <trkpt lat="39.6781270" lon="-0.4585170">
        <ele>376.6</ele>
        <time>2022-11-06T06:33:12Z</time>
      </trkpt>
      <trkpt lat="39.6781080" lon="-0.4585620">
        <ele>376.0</ele>
        <time>2022-11-06T06:33:13Z</time>
      </trkpt>
      <trkpt lat="39.6781110" lon="-0.4586220">
        <ele>375.4</ele>
        <time>2022-11-06T06:33:14Z</time>
      </trkpt>
      <trkpt lat="39.6781080" lon="-0.4586650">
        <ele>375.0</ele>
        <time>2022-11-06T06:33:15Z</time>
      </trkpt>
      <trkpt lat="39.6781000" lon="-0.4587220">
        <ele>374.4</ele>
        <time>2022-11-06T06:33:16Z</time>
      </trkpt>
      <trkpt lat="39.6780900" lon="-0.4587780">
        <ele>373.9</ele>
        <time>2022-11-06T06:33:17Z</time>
      </trkpt>
      <trkpt lat="39.6780790" lon="-0.4588520">
        <ele>373.2</ele>
        <time>2022-11-06T06:33:18Z</time>
      </trkpt>
      <trkpt lat="39.6780790" lon="-0.4588520">
        <ele>373.2</ele>
        <time>2022-11-06T06:33:19Z</time>
      </trkpt>
      <trkpt lat="39.6780790" lon="-0.4588520">
        <ele>373.2</ele>
        <time>2022-11-06T06:33:20Z</time>
      </trkpt>
      <trkpt lat="39.6780170" lon="-0.4589670">
        <ele>371.9</ele>
        <time>2022-11-06T06:33:21Z</time>
      </trkpt>
      <trkpt lat="39.6779980" lon="-0.4590070">
        <ele>371.5</ele>
        <time>2022-11-06T06:33:22Z</time>
      </trkpt>
      <trkpt lat="39.6779800" lon="-0.4590530">
        <ele>371.0</ele>
        <time>2022-11-06T06:33:23Z</time>
      </trkpt>
      <trkpt lat="39.6779640" lon="-0.4591030">
        <ele>370.5</ele>
        <time>2022-11-06T06:33:24Z</time>
      </trkpt>
      <trkpt lat="39.6779470" lon="-0.4591720">
        <ele>369.8</ele>
        <time>2022-11-06T06:33:25Z</time>
      </trkpt>
      <trkpt lat="39.6779340" lon="-0.4592280">
        <ele>369.2</ele>
        <time>2022-11-06T06:33:26Z</time>
      </trkpt>
      <trkpt lat="39.6779210" lon="-0.4592780">
        <ele>368.8</ele>
        <time>2022-11-06T06:33:27Z</time>
      </trkpt>
      <trkpt lat="39.6779100" lon="-0.4593230">
        <ele>368.3</ele>
        <time>2022-11-06T06:33:28Z</time>
      </trkpt>
      <trkpt lat="39.6779100" lon="-0.4593230">
        <ele>368.3</ele>
        <time>2022-11-06T06:33:29Z</time>
      </trkpt>
      <trkpt lat="39.6778590" lon="-0.4594180">
        <ele>367.3</ele>
        <time>2022-11-06T06:33:30Z</time>
      </trkpt>
      <trkpt lat="39.6778460" lon="-0.4594580">
        <ele>367.0</ele>
        <time>2022-11-06T06:33:31Z</time>
      </trkpt>
      <trkpt lat="39.6778370" lon="-0.4594880">
        <ele>366.7</ele>
        <time>2022-11-06T06:33:32Z</time>
      </trkpt>
      <trkpt lat="39.6778350" lon="-0.4595270">
        <ele>366.4</ele>
        <time>2022-11-06T06:33:33Z</time>
      </trkpt>
      <trkpt lat="39.6778290" lon="-0.4595650">
        <ele>366.1</ele>
        <time>2022-11-06T06:33:34Z</time>
      </trkpt>
      <trkpt lat="39.6778210" lon="-0.4595950">
        <ele>365.9</ele>
        <time>2022-11-06T06:33:35Z</time>
      </trkpt>
      <trkpt lat="39.6778190" lon="-0.4596350">
        <ele>365.6</ele>
        <time>2022-11-06T06:33:36Z</time>
      </trkpt>
      <trkpt lat="39.6778080" lon="-0.4596850">
        <ele>365.2</ele>
        <time>2022-11-06T06:33:37Z</time>
      </trkpt>
      <trkpt lat="39.6777950" lon="-0.4597200">
        <ele>365.0</ele>
        <time>2022-11-06T06:33:38Z</time>
      </trkpt>
      <trkpt lat="39.6777760" lon="-0.4597620">
        <ele>364.7</ele>
        <time>2022-11-06T06:33:39Z</time>
      </trkpt>
      <trkpt lat="39.6777760" lon="-0.4597620">
        <ele>364.7</ele>
        <time>2022-11-06T06:33:40Z</time>
      </trkpt>
      <trkpt lat="39.6777410" lon="-0.4598700">
        <ele>363.9</ele>
        <time>2022-11-06T06:33:41Z</time>
      </trkpt>
      <trkpt lat="39.6777280" lon="-0.4599220">
        <ele>363.5</ele>
        <time>2022-11-06T06:33:42Z</time>
      </trkpt>
      <trkpt lat="39.6777030" lon="-0.4599770">
        <ele>363.0</ele>
        <time>2022-11-06T06:33:43Z</time>
      </trkpt>
      <trkpt lat="39.6776770" lon="-0.4600350">
        <ele>362.4</ele>
        <time>2022-11-06T06:33:44Z</time>
      </trkpt>
      <trkpt lat="39.6776630" lon="-0.4600900">
        <ele>361.9</ele>
        <time>2022-11-06T06:33:45Z</time>
      </trkpt>
      <trkpt lat="39.6776550" lon="-0.4601420">
        <ele>361.5</ele>
        <time>2022-11-06T06:33:46Z</time>
      </trkpt>
      <trkpt lat="39.6776550" lon="-0.4602000">
        <ele>360.9</ele>
        <time>2022-11-06T06:33:47Z</time>
      </trkpt>
      <trkpt lat="39.6776630" lon="-0.4602450">
        <ele>360.5</ele>
        <time>2022-11-06T06:33:48Z</time>
      </trkpt>
      <trkpt lat="39.6776630" lon="-0.4602450">
        <ele>360.5</ele>
        <time>2022-11-06T06:33:49Z</time>
      </trkpt>
      <trkpt lat="39.6776630" lon="-0.4602450">
        <ele>360.5</ele>
        <time>2022-11-06T06:33:50Z</time>
      </trkpt>
      <trkpt lat="39.6776740" lon="-0.4604020">
        <ele>359.3</ele>
        <time>2022-11-06T06:33:51Z</time>
      </trkpt>
      <trkpt lat="39.6776660" lon="-0.4604370">
        <ele>359.0</ele>
        <time>2022-11-06T06:33:52Z</time>
      </trkpt>
      <trkpt lat="39.6776580" lon="-0.4604770">
        <ele>358.7</ele>
        <time>2022-11-06T06:33:53Z</time>
      </trkpt>
      <trkpt lat="39.6776630" lon="-0.4605050">
        <ele>358.5</ele>
        <time>2022-11-06T06:33:54Z</time>
      </trkpt>
      <trkpt lat="39.6776630" lon="-0.4605420">
        <ele>358.2</ele>
        <time>2022-11-06T06:33:55Z</time>
      </trkpt>
      <trkpt lat="39.6776550" lon="-0.4605900">
        <ele>357.8</ele>
        <time>2022-11-06T06:33:56Z</time>
      </trkpt>
      <trkpt lat="39.6776390" lon="-0.4606370">
        <ele>357.4</ele>
        <time>2022-11-06T06:33:57Z</time>
      </trkpt>
      <trkpt lat="39.6776280" lon="-0.4606880">
        <ele>356.9</ele>
        <time>2022-11-06T06:33:58Z</time>
      </trkpt>
      <trkpt lat="39.6776150" lon="-0.4607320">
        <ele>356.4</ele>
        <time>2022-11-06T06:33:59Z</time>
      </trkpt>
      <trkpt lat="39.6776150" lon="-0.4607320">
        <ele>356.4</ele>
        <time>2022-11-06T06:34:00Z</time>
      </trkpt>
      <trkpt lat="39.6776150" lon="-0.4607320">
        <ele>356.4</ele>
        <time>2022-11-06T06:34:01Z</time>
      </trkpt>
      <trkpt lat="39.6776230" lon="-0.4608380">
        <ele>355.3</ele>
        <time>2022-11-06T06:34:02Z</time>
      </trkpt>
      <trkpt lat="39.6776280" lon="-0.4608830">
        <ele>354.8</ele>
        <time>2022-11-06T06:34:03Z</time>
      </trkpt>
      <trkpt lat="39.6776280" lon="-0.4609150">
        <ele>354.5</ele>
        <time>2022-11-06T06:34:04Z</time>
      </trkpt>
      <trkpt lat="39.6776310" lon="-0.4609480">
        <ele>354.1</ele>
        <time>2022-11-06T06:34:05Z</time>
      </trkpt>
      <trkpt lat="39.6776390" lon="-0.4609920">
        <ele>353.7</ele>
        <time>2022-11-06T06:34:06Z</time>
      </trkpt>
      <trkpt lat="39.6776360" lon="-0.4610230">
        <ele>353.3</ele>
        <time>2022-11-06T06:34:07Z</time>
      </trkpt>
      <trkpt lat="39.6776200" lon="-0.4610680">
        <ele>352.8</ele>
        <time>2022-11-06T06:34:08Z</time>
      </trkpt>
      <trkpt lat="39.6776100" lon="-0.4611100">
        <ele>352.4</ele>
        <time>2022-11-06T06:34:09Z</time>
      </trkpt>
      <trkpt lat="39.6776100" lon="-0.4611100">
        <ele>352.4</ele>
        <time>2022-11-06T06:34:10Z</time>
      </trkpt>
      <trkpt lat="39.6776100" lon="-0.4611100">
        <ele>352.4</ele>
        <time>2022-11-06T06:34:11Z</time>
      </trkpt>
      <trkpt lat="39.6775670" lon="-0.4612380">
        <ele>350.8</ele>
        <time>2022-11-06T06:34:12Z</time>
      </trkpt>
      <trkpt lat="39.6775560" lon="-0.4612900">
        <ele>350.2</ele>
        <time>2022-11-06T06:34:13Z</time>
      </trkpt>
      <trkpt lat="39.6775500" lon="-0.4613380">
        <ele>349.6</ele>
        <time>2022-11-06T06:34:14Z</time>
      </trkpt>
      <trkpt lat="39.6775420" lon="-0.4613920">
        <ele>349.0</ele>
        <time>2022-11-06T06:34:15Z</time>
      </trkpt>
      <trkpt lat="39.6775370" lon="-0.4614570">
        <ele>348.3</ele>
        <time>2022-11-06T06:34:16Z</time>
      </trkpt>
      <trkpt lat="39.6775240" lon="-0.4615000">
        <ele>347.7</ele>
        <time>2022-11-06T06:34:17Z</time>
      </trkpt>
      <trkpt lat="39.6775130" lon="-0.4615170">
        <ele>347.5</ele>
        <time>2022-11-06T06:34:18Z</time>
      </trkpt>
      <trkpt lat="39.6775020" lon="-0.4615450">
        <ele>347.1</ele>
        <time>2022-11-06T06:34:19Z</time>
      </trkpt>
      <trkpt lat="39.6774910" lon="-0.4615850">
        <ele>346.7</ele>
        <time>2022-11-06T06:34:20Z</time>
      </trkpt>
      <trkpt lat="39.6774910" lon="-0.4615850">
        <ele>346.7</ele>
        <time>2022-11-06T06:34:21Z</time>
      </trkpt>
      <trkpt lat="39.6774910" lon="-0.4616630">
        <ele>345.9</ele>
        <time>2022-11-06T06:34:22Z</time>
      </trkpt>
      <trkpt lat="39.6774830" lon="-0.4617150">
        <ele>345.4</ele>
        <time>2022-11-06T06:34:23Z</time>
      </trkpt>
      <trkpt lat="39.6774700" lon="-0.4617480">
        <ele>345.0</ele>
        <time>2022-11-06T06:34:24Z</time>
      </trkpt>
      <trkpt lat="39.6774490" lon="-0.4617880">
        <ele>344.5</ele>
        <time>2022-11-06T06:34:25Z</time>
      </trkpt>
      <trkpt lat="39.6774240" lon="-0.4618380">
        <ele>343.9</ele>
        <time>2022-11-06T06:34:26Z</time>
      </trkpt>
      <trkpt lat="39.6774030" lon="-0.4618980">
        <ele>343.0</ele>
        <time>2022-11-06T06:34:27Z</time>
      </trkpt>
      <trkpt lat="39.6773840" lon="-0.4619430">
        <ele>342.4</ele>
        <time>2022-11-06T06:34:28Z</time>
      </trkpt>
      <trkpt lat="39.6773650" lon="-0.4619820">
        <ele>341.8</ele>
        <time>2022-11-06T06:34:29Z</time>
      </trkpt>
      <trkpt lat="39.6773440" lon="-0.4620250">
        <ele>341.2</ele>
        <time>2022-11-06T06:34:30Z</time>
      </trkpt>
      <trkpt lat="39.6773440" lon="-0.4620250">
        <ele>341.2</ele>
        <time>2022-11-06T06:34:31Z</time>
      </trkpt>
      <trkpt lat="39.6773060" lon="-0.4621080">
        <ele>340.0</ele>
        <time>2022-11-06T06:34:32Z</time>
      </trkpt>
      <trkpt lat="39.6772930" lon="-0.4621380">
        <ele>339.5</ele>
        <time>2022-11-06T06:34:33Z</time>
      </trkpt>
      <trkpt lat="39.6772770" lon="-0.4621670">
        <ele>339.1</ele>
        <time>2022-11-06T06:34:34Z</time>
      </trkpt>
      <trkpt lat="39.6772690" lon="-0.4621870">
        <ele>338.8</ele>
        <time>2022-11-06T06:34:35Z</time>
      </trkpt>
      <trkpt lat="39.6772260" lon="-0.4623030">
        <ele>337.3</ele>
        <time>2022-11-06T06:34:45Z</time>
      </trkpt>
      <trkpt lat="39.6772210" lon="-0.4622920">
        <ele>337.2</ele>
        <time>2022-11-06T06:34:46Z</time>
      </trkpt>
      <trkpt lat="39.6772130" lon="-0.4622900">
        <ele>337.0</ele>
        <time>2022-11-06T06:34:47Z</time>
      </trkpt>
      <trkpt lat="39.6771990" lon="-0.4622970">
        <ele>336.8</ele>
        <time>2022-11-06T06:34:48Z</time>
      </trkpt>
      <trkpt lat="39.6771880" lon="-0.4623000">
        <ele>336.6</ele>
        <time>2022-11-06T06:34:49Z</time>
      </trkpt>
      <trkpt lat="39.6771800" lon="-0.4623030">
        <ele>336.5</ele>
        <time>2022-11-06T06:34:50Z</time>
      </trkpt>
      <trkpt lat="39.6771800" lon="-0.4623030">
        <ele>336.5</ele>
        <time>2022-11-06T06:34:51Z</time>
      </trkpt>
      <trkpt lat="39.6771800" lon="-0.4623030">
        <ele>336.5</ele>
        <time>2022-11-06T06:34:52Z</time>
      </trkpt>
      <trkpt lat="39.6771540" lon="-0.4623100">
        <ele>336.0</ele>
        <time>2022-11-06T06:34:53Z</time>
      </trkpt>
      <trkpt lat="39.6771480" lon="-0.4623130">
        <ele>335.9</ele>
        <time>2022-11-06T06:34:54Z</time>
      </trkpt>
      <trkpt lat="39.6771350" lon="-0.4623150">
        <ele>335.7</ele>
        <time>2022-11-06T06:34:55Z</time>
      </trkpt>
      <trkpt lat="39.6771210" lon="-0.4623230">
        <ele>335.4</ele>
        <time>2022-11-06T06:34:56Z</time>
      </trkpt>
      <trkpt lat="39.6771130" lon="-0.4623280">
        <ele>335.2</ele>
        <time>2022-11-06T06:34:57Z</time>
      </trkpt>
      <trkpt lat="39.6771130" lon="-0.4623280">
        <ele>335.2</ele>
        <time>2022-11-06T06:34:58Z</time>
      </trkpt>
      <trkpt lat="39.6770780" lon="-0.4623600">
        <ele>334.4</ele>
        <time>2022-11-06T06:35:07Z</time>
      </trkpt>
      <trkpt lat="39.6770680" lon="-0.4623680">
        <ele>334.1</ele>
        <time>2022-11-06T06:35:08Z</time>
      </trkpt>
      <trkpt lat="39.6770600" lon="-0.4623780">
        <ele>333.9</ele>
        <time>2022-11-06T06:35:09Z</time>
      </trkpt>
      <trkpt lat="39.6770540" lon="-0.4623800">
        <ele>333.8</ele>
        <time>2022-11-06T06:35:10Z</time>
      </trkpt>
      <trkpt lat="39.6770440" lon="-0.4623950">
        <ele>333.4</ele>
        <time>2022-11-06T06:35:13Z</time>
      </trkpt>
      <trkpt lat="39.6770410" lon="-0.4624080">
        <ele>333.2</ele>
        <time>2022-11-06T06:35:14Z</time>
      </trkpt>
      <trkpt lat="39.6770360" lon="-0.4624150">
        <ele>333.0</ele>
        <time>2022-11-06T06:35:15Z</time>
      </trkpt>
      <trkpt lat="39.6770250" lon="-0.4624300">
        <ele>332.7</ele>
        <time>2022-11-06T06:35:17Z</time>
      </trkpt>
      <trkpt lat="39.6770250" lon="-0.4624420">
        <ele>332.5</ele>
        <time>2022-11-06T06:35:18Z</time>
      </trkpt>
      <trkpt lat="39.6770170" lon="-0.4624530">
        <ele>332.2</ele>
        <time>2022-11-06T06:35:19Z</time>
      </trkpt>
      <trkpt lat="39.6770140" lon="-0.4624620">
        <ele>332.0</ele>
        <time>2022-11-06T06:35:20Z</time>
      </trkpt>
      <trkpt lat="39.6770010" lon="-0.4624730">
        <ele>331.7</ele>
        <time>2022-11-06T06:35:21Z</time>
      </trkpt>
      <trkpt lat="39.6769980" lon="-0.4624820">
        <ele>331.5</ele>
        <time>2022-11-06T06:35:22Z</time>
      </trkpt>
      <trkpt lat="39.6769980" lon="-0.4624820">
        <ele>331.5</ele>
        <time>2022-11-06T06:35:23Z</time>
      </trkpt>
      <trkpt lat="39.6769870" lon="-0.4624900">
        <ele>331.2</ele>
        <time>2022-11-06T06:35:24Z</time>
      </trkpt>
      <trkpt lat="39.6769790" lon="-0.4625020">
        <ele>331.0</ele>
        <time>2022-11-06T06:35:25Z</time>
      </trkpt>
      <trkpt lat="39.6769770" lon="-0.4625080">
        <ele>330.8</ele>
        <time>2022-11-06T06:35:26Z</time>
      </trkpt>
      <trkpt lat="39.6769710" lon="-0.4625130">
        <ele>330.7</ele>
        <time>2022-11-06T06:35:27Z</time>
      </trkpt>
      <trkpt lat="39.6769630" lon="-0.4625200">
        <ele>330.5</ele>
        <time>2022-11-06T06:35:28Z</time>
      </trkpt>
      <trkpt lat="39.6769550" lon="-0.4625250">
        <ele>330.3</ele>
        <time>2022-11-06T06:35:29Z</time>
      </trkpt>
      <trkpt lat="39.6769500" lon="-0.4625380">
        <ele>330.0</ele>
        <time>2022-11-06T06:35:30Z</time>
      </trkpt>
      <trkpt lat="39.6768830" lon="-0.4626150">
        <ele>328.1</ele>
        <time>2022-11-06T06:35:41Z</time>
      </trkpt>
      <trkpt lat="39.6768770" lon="-0.4626370">
        <ele>327.7</ele>
        <time>2022-11-06T06:35:42Z</time>
      </trkpt>
      <trkpt lat="39.6768770" lon="-0.4626370">
        <ele>327.7</ele>
        <time>2022-11-06T06:35:43Z</time>
      </trkpt>
      <trkpt lat="39.6768770" lon="-0.4626370">
        <ele>327.7</ele>
        <time>2022-11-06T06:35:44Z</time>
      </trkpt>
      <trkpt lat="39.6768420" lon="-0.4627380">
        <ele>326.0</ele>
        <time>2022-11-06T06:35:45Z</time>
      </trkpt>
      <trkpt lat="39.6768260" lon="-0.4627630">
        <ele>325.5</ele>
        <time>2022-11-06T06:35:46Z</time>
      </trkpt>
      <trkpt lat="39.6768260" lon="-0.4627820">
        <ele>325.2</ele>
        <time>2022-11-06T06:35:47Z</time>
      </trkpt>
      <trkpt lat="39.6768180" lon="-0.4628030">
        <ele>324.9</ele>
        <time>2022-11-06T06:35:48Z</time>
      </trkpt>
      <trkpt lat="39.6768160" lon="-0.4628300">
        <ele>324.5</ele>
        <time>2022-11-06T06:35:49Z</time>
      </trkpt>
      <trkpt lat="39.6768050" lon="-0.4628580">
        <ele>324.1</ele>
        <time>2022-11-06T06:35:50Z</time>
      </trkpt>
      <trkpt lat="39.6767990" lon="-0.4628880">
        <ele>323.7</ele>
        <time>2022-11-06T06:35:51Z</time>
      </trkpt>
      <trkpt lat="39.6767910" lon="-0.4629150">
        <ele>323.4</ele>
        <time>2022-11-06T06:35:52Z</time>
      </trkpt>
      <trkpt lat="39.6767700" lon="-0.4629630">
        <ele>322.7</ele>
        <time>2022-11-06T06:35:53Z</time>
      </trkpt>
      <trkpt lat="39.6767700" lon="-0.4629630">
        <ele>322.7</ele>
        <time>2022-11-06T06:35:54Z</time>
      </trkpt>
      <trkpt lat="39.6767540" lon="-0.4629980">
        <ele>322.3</ele>
        <time>2022-11-06T06:35:55Z</time>
      </trkpt>
      <trkpt lat="39.6767380" lon="-0.4630300">
        <ele>321.8</ele>
        <time>2022-11-06T06:35:56Z</time>
      </trkpt>
      <trkpt lat="39.6767270" lon="-0.4630470">
        <ele>321.6</ele>
        <time>2022-11-06T06:35:57Z</time>
      </trkpt>
      <trkpt lat="39.6767110" lon="-0.4630670">
        <ele>321.2</ele>
        <time>2022-11-06T06:35:58Z</time>
      </trkpt>
      <trkpt lat="39.6766920" lon="-0.4631030">
        <ele>320.7</ele>
        <time>2022-11-06T06:35:59Z</time>
      </trkpt>
      <trkpt lat="39.6766710" lon="-0.4631270">
        <ele>320.2</ele>
        <time>2022-11-06T06:36:00Z</time>
      </trkpt>
      <trkpt lat="39.6766630" lon="-0.4631450">
        <ele>320.0</ele>
        <time>2022-11-06T06:36:01Z</time>
      </trkpt>
      <trkpt lat="39.6766570" lon="-0.4631530">
        <ele>319.8</ele>
        <time>2022-11-06T06:36:02Z</time>
      </trkpt>
      <trkpt lat="39.6765800" lon="-0.4632580">
        <ele>318.0</ele>
        <time>2022-11-06T06:38:51Z</time>
      </trkpt>
      <trkpt lat="39.6765800" lon="-0.4632580">
        <ele>318.0</ele>
        <time>2022-11-06T06:38:52Z</time>
      </trkpt>
      <trkpt lat="39.6765800" lon="-0.4632620">
        <ele>318.0</ele>
        <time>2022-11-06T06:38:53Z</time>
      </trkpt>
      <trkpt lat="39.6765850" lon="-0.4632880">
        <ele>317.6</ele>
        <time>2022-11-06T06:38:54Z</time>
      </trkpt>
      <trkpt lat="39.6765900" lon="-0.4633180">
        <ele>315.5</ele>
        <time>2022-11-06T06:38:55Z</time>
      </trkpt>
      <trkpt lat="39.6765900" lon="-0.4633520">
        <ele>315.0</ele>
        <time>2022-11-06T06:38:56Z</time>
      </trkpt>
      <trkpt lat="39.6765930" lon="-0.4633730">
        <ele>314.8</ele>
        <time>2022-11-06T06:38:57Z</time>
      </trkpt>
      <trkpt lat="39.6765850" lon="-0.4634470">
        <ele>313.8</ele>
        <time>2022-11-06T06:38:58Z</time>
      </trkpt>
      <trkpt lat="39.6765850" lon="-0.4634750">
        <ele>313.5</ele>
        <time>2022-11-06T06:38:59Z</time>
      </trkpt>
      <trkpt lat="39.6765850" lon="-0.4635280">
        <ele>312.8</ele>
        <time>2022-11-06T06:39:00Z</time>
      </trkpt>
      <trkpt lat="39.6765820" lon="-0.4635570">
        <ele>312.5</ele>
        <time>2022-11-06T06:39:01Z</time>
      </trkpt>
      <trkpt lat="39.6765900" lon="-0.4635870">
        <ele>312.1</ele>
        <time>2022-11-06T06:39:02Z</time>
      </trkpt>
      <trkpt lat="39.6765900" lon="-0.4635870">
        <ele>312.1</ele>
        <time>2022-11-06T06:39:03Z</time>
      </trkpt>
      <trkpt lat="39.6765820" lon="-0.4636420">
        <ele>311.5</ele>
        <time>2022-11-06T06:39:04Z</time>
      </trkpt>
      <trkpt lat="39.6765820" lon="-0.4636750">
        <ele>311.1</ele>
        <time>2022-11-06T06:39:05Z</time>
      </trkpt>
      <trkpt lat="39.6765740" lon="-0.4637020">
        <ele>310.8</ele>
        <time>2022-11-06T06:39:06Z</time>
      </trkpt>
      <trkpt lat="39.6765710" lon="-0.4637320">
        <ele>310.5</ele>
        <time>2022-11-06T06:39:07Z</time>
      </trkpt>
      <trkpt lat="39.6765550" lon="-0.4637500">
        <ele>309.8</ele>
        <time>2022-11-06T06:39:08Z</time>
      </trkpt>
      <trkpt lat="39.6765210" lon="-0.4638100">
        <ele>309.5</ele>
        <time>2022-11-06T06:39:09Z</time>
      </trkpt>
      <trkpt lat="39.6764910" lon="-0.4638330">
        <ele>309.1</ele>
        <time>2022-11-06T06:39:10Z</time>
      </trkpt>
      <trkpt lat="39.6764620" lon="-0.4638480">
        <ele>309.2</ele>
        <time>2022-11-06T06:39:11Z</time>
      </trkpt>
      <trkpt lat="39.6764370" lon="-0.4638830">
        <ele>308.8</ele>
        <time>2022-11-06T06:39:12Z</time>
      </trkpt>
      <trkpt lat="39.6764370" lon="-0.4638830">
        <ele>308.6</ele>
        <time>2022-11-06T06:39:13Z</time>
      </trkpt>
      <trkpt lat="39.6764290" lon="-0.4639030">
        <ele>308.3</ele>
        <time>2022-11-06T06:39:14Z</time>
      </trkpt>
      <trkpt lat="39.6764030" lon="-0.4639420">
        <ele>307.9</ele>
        <time>2022-11-06T06:39:15Z</time>
      </trkpt>
      <trkpt lat="39.6763810" lon="-0.4639730">
        <ele>307.2</ele>
        <time>2022-11-06T06:39:16Z</time>
      </trkpt>
      <trkpt lat="39.6763570" lon="-0.4640030">
        <ele>306.8</ele>
        <time>2022-11-06T06:39:17Z</time>
      </trkpt>
      <trkpt lat="39.6763380" lon="-0.4640270">
        <ele>306.8</ele>
        <time>2022-11-06T06:39:18Z</time>
      </trkpt>
      <trkpt lat="39.6762900" lon="-0.4640700">
        <ele>306.4</ele>
        <time>2022-11-06T06:39:19Z</time>
      </trkpt>
      <trkpt lat="39.6762630" lon="-0.4640930">
        <ele>305.9</ele>
        <time>2022-11-06T06:39:20Z</time>
      </trkpt>
      <trkpt lat="39.6762280" lon="-0.4641350">
        <ele>305.4</ele>
        <time>2022-11-06T06:39:21Z</time>
      </trkpt>
      <trkpt lat="39.6761930" lon="-0.4641650">
        <ele>305.4</ele>
        <time>2022-11-06T06:39:22Z</time>
      </trkpt>
      <trkpt lat="39.6761580" lon="-0.4641870">
        <ele>304.9</ele>
        <time>2022-11-06T06:39:23Z</time>
      </trkpt>
      <trkpt lat="39.6761580" lon="-0.4641870">
        <ele>304.7</ele>
        <time>2022-11-06T06:39:24Z</time>
      </trkpt>
      <trkpt lat="39.6761290" lon="-0.4642020">
        <ele>304.7</ele>
        <time>2022-11-06T06:39:25Z</time>
      </trkpt>
      <trkpt lat="39.6760940" lon="-0.4642250">
        <ele>304.2</ele>
        <time>2022-11-06T06:39:26Z</time>
      </trkpt>
      <trkpt lat="39.6760570" lon="-0.4642600">
        <ele>303.7</ele>
        <time>2022-11-06T06:39:27Z</time>
      </trkpt>
      <trkpt lat="39.6760220" lon="-0.4642830">
        <ele>303.5</ele>
        <time>2022-11-06T06:39:28Z</time>
      </trkpt>
      <trkpt lat="39.6759790" lon="-0.4643130">
        <ele>303.0</ele>
        <time>2022-11-06T06:39:29Z</time>
      </trkpt>
      <trkpt lat="39.6758880" lon="-0.4644020">
        <ele>302.1</ele>
        <time>2022-11-06T06:39:30Z</time>
      </trkpt>
      <trkpt lat="39.6758500" lon="-0.4644280">
        <ele>301.9</ele>
        <time>2022-11-06T06:39:31Z</time>
      </trkpt>
      <trkpt lat="39.6758040" lon="-0.4644650">
        <ele>301.5</ele>
        <time>2022-11-06T06:39:32Z</time>
      </trkpt>
      <trkpt lat="39.6756270" lon="-0.4646500">
        <ele>299.4</ele>
        <time>2022-11-06T06:39:33Z</time>
      </trkpt>
      <trkpt lat="39.6756270" lon="-0.4646500">
        <ele>299.1</ele>
        <time>2022-11-06T06:39:34Z</time>
      </trkpt>
      <trkpt lat="39.6756140" lon="-0.4646570">
        <ele>298.9</ele>
        <time>2022-11-06T06:39:35Z</time>
      </trkpt>
      <trkpt lat="39.6755900" lon="-0.4647120">
        <ele>298.2</ele>
        <time>2022-11-06T06:39:36Z</time>
      </trkpt>
      <trkpt lat="39.6755630" lon="-0.4647550">
        <ele>297.5</ele>
        <time>2022-11-06T06:39:37Z</time>
      </trkpt>
      <trkpt lat="39.6755440" lon="-0.4647920">
        <ele>297.5</ele>
        <time>2022-11-06T06:39:38Z</time>
      </trkpt>
      <trkpt lat="39.6755440" lon="-0.4647920">
        <ele>297.5</ele>
        <time>2022-11-06T06:39:39Z</time>
      </trkpt>
      <trkpt lat="39.6754990" lon="-0.4649430">
        <ele>297.2</ele>
        <time>2022-11-06T06:39:40Z</time>
      </trkpt>
      <trkpt lat="39.6754880" lon="-0.4650070">
        <ele>297.0</ele>
        <time>2022-11-06T06:39:41Z</time>
      </trkpt>
      <trkpt lat="39.6754720" lon="-0.4650630">
        <ele>296.7</ele>
        <time>2022-11-06T06:39:42Z</time>
      </trkpt>
      <trkpt lat="39.6754560" lon="-0.4651180">
        <ele>296.5</ele>
        <time>2022-11-06T06:39:43Z</time>
      </trkpt>
      <trkpt lat="39.6754420" lon="-0.4651650">
        <ele>296.2</ele>
        <time>2022-11-06T06:39:44Z</time>
      </trkpt>
      <trkpt lat="39.6754420" lon="-0.4651650">
        <ele>296.2</ele>
        <time>2022-11-06T06:39:45Z</time>
      </trkpt>
      <trkpt lat="39.6754320" lon="-0.4652170">
        <ele>295.9</ele>
        <time>2022-11-06T06:39:46Z</time>
      </trkpt>
      <trkpt lat="39.6754260" lon="-0.4652620">
        <ele>295.7</ele>
        <time>2022-11-06T06:39:47Z</time>
      </trkpt>
      <trkpt lat="39.6754180" lon="-0.4653050">
        <ele>295.4</ele>
        <time>2022-11-06T06:39:48Z</time>
      </trkpt>
      <trkpt lat="39.6754150" lon="-0.4653420">
        <ele>295.2</ele>
        <time>2022-11-06T06:39:49Z</time>
      </trkpt>
      <trkpt lat="39.6754150" lon="-0.4653420">
        <ele>295.2</ele>
        <time>2022-11-06T06:39:50Z</time>
      </trkpt>
      <trkpt lat="39.6754240" lon="-0.4654330">
        <ele>294.6</ele>
        <time>2022-11-06T06:39:51Z</time>
      </trkpt>
      <trkpt lat="39.6754260" lon="-0.4654750">
        <ele>294.4</ele>
        <time>2022-11-06T06:39:52Z</time>
      </trkpt>
      <trkpt lat="39.6754320" lon="-0.4655130">
        <ele>294.1</ele>
        <time>2022-11-06T06:39:53Z</time>
      </trkpt>
      <trkpt lat="39.6754370" lon="-0.4655620">
        <ele>293.8</ele>
        <time>2022-11-06T06:39:54Z</time>
      </trkpt>
      <trkpt lat="39.6754370" lon="-0.4655620">
        <ele>293.8</ele>
        <time>2022-11-06T06:39:55Z</time>
      </trkpt>
      <trkpt lat="39.6754610" lon="-0.4656170">
        <ele>293.4</ele>
        <time>2022-11-06T06:39:56Z</time>
      </trkpt>
      <trkpt lat="39.6754770" lon="-0.4656720">
        <ele>293.0</ele>
        <time>2022-11-06T06:39:57Z</time>
      </trkpt>
      <trkpt lat="39.6754880" lon="-0.4657330">
        <ele>292.5</ele>
        <time>2022-11-06T06:39:58Z</time>
      </trkpt>
      <trkpt lat="39.6754910" lon="-0.4658070">
        <ele>292.0</ele>
        <time>2022-11-06T06:39:59Z</time>
      </trkpt>
      <trkpt lat="39.6755040" lon="-0.4659530">
        <ele>290.8</ele>
        <time>2022-11-06T06:40:00Z</time>
      </trkpt>
      <trkpt lat="39.6755150" lon="-0.4660280">
        <ele>290.2</ele>
        <time>2022-11-06T06:40:01Z</time>
      </trkpt>
      <trkpt lat="39.6755250" lon="-0.4661050">
        <ele>289.6</ele>
        <time>2022-11-06T06:40:02Z</time>
      </trkpt>
      <trkpt lat="39.6755330" lon="-0.4661730">
        <ele>289.0</ele>
        <time>2022-11-06T06:40:03Z</time>
      </trkpt>
      <trkpt lat="39.6755360" lon="-0.4662380">
        <ele>288.5</ele>
        <time>2022-11-06T06:40:04Z</time>
      </trkpt>
      <trkpt lat="39.6755420" lon="-0.4663070">
        <ele>288.0</ele>
        <time>2022-11-06T06:40:05Z</time>
      </trkpt>
      <trkpt lat="39.6755420" lon="-0.4663070">
        <ele>288.0</ele>
        <time>2022-11-06T06:40:06Z</time>
      </trkpt>
      <trkpt lat="39.6755360" lon="-0.4663730">
        <ele>287.5</ele>
        <time>2022-11-06T06:40:07Z</time>
      </trkpt>
      <trkpt lat="39.6755500" lon="-0.4664350">
        <ele>287.0</ele>
        <time>2022-11-06T06:40:08Z</time>
      </trkpt>
      <trkpt lat="39.6755600" lon="-0.4665030">
        <ele>286.6</ele>
        <time>2022-11-06T06:40:09Z</time>
      </trkpt>
      <trkpt lat="39.6755680" lon="-0.4665720">
        <ele>286.1</ele>
        <time>2022-11-06T06:40:10Z</time>
      </trkpt>
      <trkpt lat="39.6755710" lon="-0.4667150">
        <ele>285.4</ele>
        <time>2022-11-06T06:40:11Z</time>
      </trkpt>
      <trkpt lat="39.6755760" lon="-0.4667770">
        <ele>285.1</ele>
        <time>2022-11-06T06:40:12Z</time>
      </trkpt>
      <trkpt lat="39.6755790" lon="-0.4668700">
        <ele>284.6</ele>
        <time>2022-11-06T06:40:13Z</time>
      </trkpt>
      <trkpt lat="39.6755870" lon="-0.4669400">
        <ele>284.2</ele>
        <time>2022-11-06T06:40:14Z</time>
      </trkpt>
      <trkpt lat="39.6755980" lon="-0.4670000">
        <ele>283.9</ele>
        <time>2022-11-06T06:40:15Z</time>
      </trkpt>
      <trkpt lat="39.6755980" lon="-0.4670000">
        <ele>283.9</ele>
        <time>2022-11-06T06:40:16Z</time>
      </trkpt>
      <trkpt lat="39.6756140" lon="-0.4670550">
        <ele>283.7</ele>
        <time>2022-11-06T06:40:17Z</time>
      </trkpt>
      <trkpt lat="39.6756410" lon="-0.4671150">
        <ele>283.1</ele>
        <time>2022-11-06T06:40:18Z</time>
      </trkpt>
      <trkpt lat="39.6756680" lon="-0.4671650">
        <ele>282.7</ele>
        <time>2022-11-06T06:40:19Z</time>
      </trkpt>
      <trkpt lat="39.6756680" lon="-0.4671650">
        <ele>282.7</ele>
        <time>2022-11-06T06:40:20Z</time>
      </trkpt>
      <trkpt lat="39.6757130" lon="-0.4672980">
        <ele>282.1</ele>
        <time>2022-11-06T06:40:21Z</time>
      </trkpt>
      <trkpt lat="39.6757270" lon="-0.4673270">
        <ele>281.9</ele>
        <time>2022-11-06T06:40:22Z</time>
      </trkpt>
      <trkpt lat="39.6757350" lon="-0.4673620">
        <ele>281.8</ele>
        <time>2022-11-06T06:40:23Z</time>
      </trkpt>
      <trkpt lat="39.6757430" lon="-0.4673970">
        <ele>281.6</ele>
        <time>2022-11-06T06:40:24Z</time>
      </trkpt>
      <trkpt lat="39.6757480" lon="-0.4674330">
        <ele>281.5</ele>
        <time>2022-11-06T06:40:25Z</time>
      </trkpt>
      <trkpt lat="39.6757530" lon="-0.4674600">
        <ele>281.4</ele>
        <time>2022-11-06T06:40:26Z</time>
      </trkpt>
      <trkpt lat="39.6757530" lon="-0.4674600">
        <ele>281.4</ele>
        <time>2022-11-06T06:40:27Z</time>
      </trkpt>
      <trkpt lat="39.6757670" lon="-0.4674920">
        <ele>281.2</ele>
        <time>2022-11-06T06:40:28Z</time>
      </trkpt>
      <trkpt lat="39.6757750" lon="-0.4675320">
        <ele>281.1</ele>
        <time>2022-11-06T06:40:29Z</time>
      </trkpt>
      <trkpt lat="39.6757880" lon="-0.4675680">
        <ele>280.9</ele>
        <time>2022-11-06T06:40:30Z</time>
      </trkpt>
      <trkpt lat="39.6757880" lon="-0.4675680">
        <ele>280.9</ele>
        <time>2022-11-06T06:40:31Z</time>
      </trkpt>
      <trkpt lat="39.6758120" lon="-0.4676520">
        <ele>280.6</ele>
        <time>2022-11-06T06:40:32Z</time>
      </trkpt>
      <trkpt lat="39.6758200" lon="-0.4676800">
        <ele>280.4</ele>
        <time>2022-11-06T06:40:33Z</time>
      </trkpt>
      <trkpt lat="39.6758230" lon="-0.4677050">
        <ele>280.3</ele>
        <time>2022-11-06T06:40:34Z</time>
      </trkpt>
      <trkpt lat="39.6758340" lon="-0.4677230">
        <ele>280.2</ele>
        <time>2022-11-06T06:40:35Z</time>
      </trkpt>
      <trkpt lat="39.6758390" lon="-0.4677530">
        <ele>280.1</ele>
        <time>2022-11-06T06:40:36Z</time>
      </trkpt>
      <trkpt lat="39.6758390" lon="-0.4677530">
        <ele>280.1</ele>
        <time>2022-11-06T06:40:37Z</time>
      </trkpt>
      <trkpt lat="39.6758500" lon="-0.4677700">
        <ele>280.0</ele>
        <time>2022-11-06T06:40:38Z</time>
      </trkpt>
      <trkpt lat="39.6758530" lon="-0.4677870">
        <ele>279.9</ele>
        <time>2022-11-06T06:40:39Z</time>
      </trkpt>
      <trkpt lat="39.6758660" lon="-0.4678120">
        <ele>279.8</ele>
        <time>2022-11-06T06:40:40Z</time>
      </trkpt>
      <trkpt lat="39.6758790" lon="-0.4678770">
        <ele>279.5</ele>
        <time>2022-11-06T06:40:41Z</time>
      </trkpt>
      <trkpt lat="39.6758880" lon="-0.4678970">
        <ele>279.4</ele>
        <time>2022-11-06T06:40:42Z</time>
      </trkpt>
      <trkpt lat="39.6758960" lon="-0.4679230">
        <ele>279.2</ele>
        <time>2022-11-06T06:40:43Z</time>
      </trkpt>
      <trkpt lat="39.6759060" lon="-0.4679400">
        <ele>279.1</ele>
        <time>2022-11-06T06:40:44Z</time>
      </trkpt>
      <trkpt lat="39.6759200" lon="-0.4679670">
        <ele>278.9</ele>
        <time>2022-11-06T06:40:45Z</time>
      </trkpt>
      <trkpt lat="39.6759300" lon="-0.4679980">
        <ele>278.8</ele>
        <time>2022-11-06T06:40:46Z</time>
      </trkpt>
      <trkpt lat="39.6759330" lon="-0.4680580">
        <ele>278.4</ele>
        <time>2022-11-06T06:40:47Z</time>
      </trkpt>
      <trkpt lat="39.6759330" lon="-0.4680580">
        <ele>278.4</ele>
        <time>2022-11-06T06:40:48Z</time>
      </trkpt>
      <trkpt lat="39.6759470" lon="-0.4681100">
        <ele>278.1</ele>
        <time>2022-11-06T06:40:49Z</time>
      </trkpt>
      <trkpt lat="39.6759600" lon="-0.4681650">
        <ele>277.7</ele>
        <time>2022-11-06T06:40:50Z</time>
      </trkpt>
      <trkpt lat="39.6759840" lon="-0.4682300">
        <ele>277.2</ele>
        <time>2022-11-06T06:40:51Z</time>
      </trkpt>
      <trkpt lat="39.6760670" lon="-0.4683700">
        <ele>276.0</ele>
        <time>2022-11-06T06:40:52Z</time>
      </trkpt>
      <trkpt lat="39.6761020" lon="-0.4684580">
        <ele>275.5</ele>
        <time>2022-11-06T06:40:53Z</time>
      </trkpt>
      <trkpt lat="39.6761370" lon="-0.4685480">
        <ele>275.0</ele>
        <time>2022-11-06T06:40:54Z</time>
      </trkpt>
      <trkpt lat="39.6761640" lon="-0.4686420">
        <ele>274.7</ele>
        <time>2022-11-06T06:40:55Z</time>
      </trkpt>
      <trkpt lat="39.6761770" lon="-0.4687330">
        <ele>274.5</ele>
        <time>2022-11-06T06:40:56Z</time>
      </trkpt>
      <trkpt lat="39.6762010" lon="-0.4688300">
        <ele>274.2</ele>
        <time>2022-11-06T06:40:57Z</time>
      </trkpt>
      <trkpt lat="39.6762010" lon="-0.4688300">
        <ele>274.2</ele>
        <time>2022-11-06T06:40:58Z</time>
      </trkpt>
      <trkpt lat="39.6762230" lon="-0.4689270">
        <ele>274.0</ele>
        <time>2022-11-06T06:40:59Z</time>
      </trkpt>
      <trkpt lat="39.6762500" lon="-0.4690270">
        <ele>273.8</ele>
        <time>2022-11-06T06:41:00Z</time>
      </trkpt>
      <trkpt lat="39.6762760" lon="-0.4691250">
        <ele>273.5</ele>
        <time>2022-11-06T06:41:01Z</time>
      </trkpt>
      <trkpt lat="39.6763300" lon="-0.4693250">
        <ele>272.9</ele>
        <time>2022-11-06T06:41:02Z</time>
      </trkpt>
      <trkpt lat="39.6763620" lon="-0.4694250">
        <ele>272.5</ele>
        <time>2022-11-06T06:41:03Z</time>
      </trkpt>
      <trkpt lat="39.6763890" lon="-0.4695220">
        <ele>272.0</ele>
        <time>2022-11-06T06:41:04Z</time>
      </trkpt>
      <trkpt lat="39.6764270" lon="-0.4696170">
        <ele>271.5</ele>
        <time>2022-11-06T06:41:05Z</time>
      </trkpt>
      <trkpt lat="39.6764720" lon="-0.4697120">
        <ele>270.9</ele>
        <time>2022-11-06T06:41:06Z</time>
      </trkpt>
      <trkpt lat="39.6765180" lon="-0.4698100">
        <ele>270.2</ele>
        <time>2022-11-06T06:41:07Z</time>
      </trkpt>
      <trkpt lat="39.6765630" lon="-0.4699150">
        <ele>269.6</ele>
        <time>2022-11-06T06:41:08Z</time>
      </trkpt>
      <trkpt lat="39.6765630" lon="-0.4699150">
        <ele>269.6</ele>
        <time>2022-11-06T06:41:09Z</time>
      </trkpt>
      <trkpt lat="39.6766090" lon="-0.4700200">
        <ele>269.0</ele>
        <time>2022-11-06T06:41:10Z</time>
      </trkpt>
      <trkpt lat="39.6766570" lon="-0.4701220">
        <ele>268.3</ele>
        <time>2022-11-06T06:41:11Z</time>
      </trkpt>
      <trkpt lat="39.6766570" lon="-0.4701220">
        <ele>268.3</ele>
        <time>2022-11-06T06:41:12Z</time>
      </trkpt>
      <trkpt lat="39.6767460" lon="-0.4704220">
        <ele>266.1</ele>
        <time>2022-11-06T06:41:13Z</time>
      </trkpt>
      <trkpt lat="39.6767510" lon="-0.4705070">
        <ele>265.6</ele>
        <time>2022-11-06T06:41:14Z</time>
      </trkpt>
      <trkpt lat="39.6767510" lon="-0.4705880">
        <ele>265.2</ele>
        <time>2022-11-06T06:41:15Z</time>
      </trkpt>
      <trkpt lat="39.6767190" lon="-0.4706350">
        <ele>264.8</ele>
        <time>2022-11-06T06:41:16Z</time>
      </trkpt>
      <trkpt lat="39.6766810" lon="-0.4706650">
        <ele>264.5</ele>
        <time>2022-11-06T06:41:17Z</time>
      </trkpt>
      <trkpt lat="39.6766280" lon="-0.4706970">
        <ele>264.2</ele>
        <time>2022-11-06T06:41:18Z</time>
      </trkpt>
      <trkpt lat="39.6766280" lon="-0.4706970">
        <ele>264.2</ele>
        <time>2022-11-06T06:41:19Z</time>
      </trkpt>
      <trkpt lat="39.6765710" lon="-0.4707180">
        <ele>263.8</ele>
        <time>2022-11-06T06:41:20Z</time>
      </trkpt>
      <trkpt lat="39.6765070" lon="-0.4707300">
        <ele>263.5</ele>
        <time>2022-11-06T06:41:21Z</time>
      </trkpt>
      <trkpt lat="39.6765070" lon="-0.4707300">
        <ele>263.5</ele>
        <time>2022-11-06T06:41:22Z</time>
      </trkpt>
      <trkpt lat="39.6763090" lon="-0.4708000">
        <ele>262.4</ele>
        <time>2022-11-06T06:41:23Z</time>
      </trkpt>
      <trkpt lat="39.6762390" lon="-0.4708420">
        <ele>262.1</ele>
        <time>2022-11-06T06:41:24Z</time>
      </trkpt>
      <trkpt lat="39.6761660" lon="-0.4708770">
        <ele>261.7</ele>
        <time>2022-11-06T06:41:25Z</time>
      </trkpt>
      <trkpt lat="39.6760940" lon="-0.4709020">
        <ele>261.3</ele>
        <time>2022-11-06T06:41:26Z</time>
      </trkpt>
      <trkpt lat="39.6760190" lon="-0.4709270">
        <ele>261.0</ele>
        <time>2022-11-06T06:41:27Z</time>
      </trkpt>
      <trkpt lat="39.6759470" lon="-0.4709570">
        <ele>260.6</ele>
        <time>2022-11-06T06:41:28Z</time>
      </trkpt>
      <trkpt lat="39.6758770" lon="-0.4709950">
        <ele>260.3</ele>
        <time>2022-11-06T06:41:29Z</time>
      </trkpt>
      <trkpt lat="39.6758770" lon="-0.4709950">
        <ele>260.3</ele>
        <time>2022-11-06T06:41:30Z</time>
      </trkpt>
      <trkpt lat="39.6758040" lon="-0.4710470">
        <ele>259.9</ele>
        <time>2022-11-06T06:41:31Z</time>
      </trkpt>
      <trkpt lat="39.6757320" lon="-0.4710930">
        <ele>259.6</ele>
        <time>2022-11-06T06:41:32Z</time>
      </trkpt>
      <trkpt lat="39.6755790" lon="-0.4711730">
        <ele>259.0</ele>
        <time>2022-11-06T06:41:33Z</time>
      </trkpt>
      <trkpt lat="39.6754990" lon="-0.4712070">
        <ele>258.7</ele>
        <time>2022-11-06T06:41:34Z</time>
      </trkpt>
      <trkpt lat="39.6754180" lon="-0.4712320">
        <ele>258.4</ele>
        <time>2022-11-06T06:41:35Z</time>
      </trkpt>
      <trkpt lat="39.6753430" lon="-0.4712350">
        <ele>258.1</ele>
        <time>2022-11-06T06:41:36Z</time>
      </trkpt>
      <trkpt lat="39.6752650" lon="-0.4712430">
        <ele>257.7</ele>
        <time>2022-11-06T06:41:37Z</time>
      </trkpt>
      <trkpt lat="39.6751930" lon="-0.4712750">
        <ele>257.2</ele>
        <time>2022-11-06T06:41:38Z</time>
      </trkpt>
      <trkpt lat="39.6751260" lon="-0.4713130">
        <ele>256.6</ele>
        <time>2022-11-06T06:41:39Z</time>
      </trkpt>
      <trkpt lat="39.6751260" lon="-0.4713130">
        <ele>256.6</ele>
        <time>2022-11-06T06:41:40Z</time>
      </trkpt>
      <trkpt lat="39.6750610" lon="-0.4713800">
        <ele>255.9</ele>
        <time>2022-11-06T06:41:41Z</time>
      </trkpt>
      <trkpt lat="39.6750080" lon="-0.4714420">
        <ele>255.3</ele>
        <time>2022-11-06T06:41:42Z</time>
      </trkpt>
      <trkpt lat="39.6748660" lon="-0.4715670">
        <ele>253.9</ele>
        <time>2022-11-06T06:41:43Z</time>
      </trkpt>
      <trkpt lat="39.6747910" lon="-0.4716250">
        <ele>253.5</ele>
        <time>2022-11-06T06:41:44Z</time>
      </trkpt>
      <trkpt lat="39.6747050" lon="-0.4716900">
        <ele>253.0</ele>
        <time>2022-11-06T06:41:45Z</time>
      </trkpt>
      <trkpt lat="39.6746240" lon="-0.4717500">
        <ele>252.7</ele>
        <time>2022-11-06T06:41:46Z</time>
      </trkpt>
      <trkpt lat="39.6745460" lon="-0.4718200">
        <ele>252.6</ele>
        <time>2022-11-06T06:41:47Z</time>
      </trkpt>
      <trkpt lat="39.6744930" lon="-0.4718930">
        <ele>252.8</ele>
        <time>2022-11-06T06:41:48Z</time>
      </trkpt>
      <trkpt lat="39.6744340" lon="-0.4719500">
        <ele>253.1</ele>
        <time>2022-11-06T06:41:49Z</time>
      </trkpt>
      <trkpt lat="39.6743750" lon="-0.4719920">
        <ele>253.3</ele>
        <time>2022-11-06T06:41:50Z</time>
      </trkpt>
      <trkpt lat="39.6743750" lon="-0.4719920">
        <ele>253.3</ele>
        <time>2022-11-06T06:41:51Z</time>
      </trkpt>
      <trkpt lat="39.6743160" lon="-0.4720080">
        <ele>253.4</ele>
        <time>2022-11-06T06:41:52Z</time>
      </trkpt>
      <trkpt lat="39.6742670" lon="-0.4720250">
        <ele>253.3</ele>
        <time>2022-11-06T06:41:53Z</time>
      </trkpt>
      <trkpt lat="39.6741760" lon="-0.4720570">
        <ele>253.1</ele>
        <time>2022-11-06T06:41:54Z</time>
      </trkpt>
      <trkpt lat="39.6741360" lon="-0.4720720">
        <ele>252.9</ele>
        <time>2022-11-06T06:41:55Z</time>
      </trkpt>
      <trkpt lat="39.6740980" lon="-0.4721000">
        <ele>252.7</ele>
        <time>2022-11-06T06:41:56Z</time>
      </trkpt>
      <trkpt lat="39.6740610" lon="-0.4721320">
        <ele>252.6</ele>
        <time>2022-11-06T06:41:57Z</time>
      </trkpt>
      <trkpt lat="39.6740230" lon="-0.4721550">
        <ele>252.4</ele>
        <time>2022-11-06T06:41:58Z</time>
      </trkpt>
      <trkpt lat="39.6739800" lon="-0.4721800">
        <ele>252.2</ele>
        <time>2022-11-06T06:41:59Z</time>
      </trkpt>
      <trkpt lat="39.6739430" lon="-0.4722130">
        <ele>251.9</ele>
        <time>2022-11-06T06:42:00Z</time>
      </trkpt>
      <trkpt lat="39.6739430" lon="-0.4722130">
        <ele>251.9</ele>
        <time>2022-11-06T06:42:01Z</time>
      </trkpt>
      <trkpt lat="39.6739000" lon="-0.4722430">
        <ele>251.7</ele>
        <time>2022-11-06T06:42:02Z</time>
      </trkpt>
      <trkpt lat="39.6739000" lon="-0.4722430">
        <ele>251.7</ele>
        <time>2022-11-06T06:42:03Z</time>
      </trkpt>
      <trkpt lat="39.6737790" lon="-0.4723270">
        <ele>250.9</ele>
        <time>2022-11-06T06:42:04Z</time>
      </trkpt>
      <trkpt lat="39.6737340" lon="-0.4723550">
        <ele>250.8</ele>
        <time>2022-11-06T06:42:05Z</time>
      </trkpt>
      <trkpt lat="39.6736830" lon="-0.4723900">
        <ele>250.6</ele>
        <time>2022-11-06T06:42:06Z</time>
      </trkpt>
      <trkpt lat="39.6736340" lon="-0.4724280">
        <ele>250.5</ele>
        <time>2022-11-06T06:42:07Z</time>
      </trkpt>
      <trkpt lat="39.6735920" lon="-0.4724650">
        <ele>250.3</ele>
        <time>2022-11-06T06:42:08Z</time>
      </trkpt>
      <trkpt lat="39.6735490" lon="-0.4725020">
        <ele>250.2</ele>
        <time>2022-11-06T06:42:09Z</time>
      </trkpt>
      <trkpt lat="39.6735000" lon="-0.4725280">
        <ele>250.0</ele>
        <time>2022-11-06T06:42:10Z</time>
      </trkpt>
      <trkpt lat="39.6734630" lon="-0.4725600">
        <ele>249.8</ele>
        <time>2022-11-06T06:42:11Z</time>
      </trkpt>
      <trkpt lat="39.6734630" lon="-0.4725600">
        <ele>249.8</ele>
        <time>2022-11-06T06:42:12Z</time>
      </trkpt>
      <trkpt lat="39.6734200" lon="-0.4725920">
        <ele>249.6</ele>
        <time>2022-11-06T06:42:13Z</time>
      </trkpt>
      <trkpt lat="39.6734200" lon="-0.4725920">
        <ele>249.6</ele>
        <time>2022-11-06T06:42:14Z</time>
      </trkpt>
      <trkpt lat="39.6733210" lon="-0.4726620">
        <ele>249.1</ele>
        <time>2022-11-06T06:42:15Z</time>
      </trkpt>
      <trkpt lat="39.6732860" lon="-0.4726780">
        <ele>248.9</ele>
        <time>2022-11-06T06:42:16Z</time>
      </trkpt>
      <trkpt lat="39.6732400" lon="-0.4726920">
        <ele>248.7</ele>
        <time>2022-11-06T06:42:17Z</time>
      </trkpt>
      <trkpt lat="39.6731950" lon="-0.4727130">
        <ele>248.5</ele>
        <time>2022-11-06T06:42:18Z</time>
      </trkpt>
      <trkpt lat="39.6731520" lon="-0.4727430">
        <ele>248.2</ele>
        <time>2022-11-06T06:42:19Z</time>
      </trkpt>
      <trkpt lat="39.6731030" lon="-0.4727720">
        <ele>248.0</ele>
        <time>2022-11-06T06:42:20Z</time>
      </trkpt>
      <trkpt lat="39.6730660" lon="-0.4727920">
        <ele>247.9</ele>
        <time>2022-11-06T06:42:21Z</time>
      </trkpt>
      <trkpt lat="39.6730660" lon="-0.4727920">
        <ele>247.9</ele>
        <time>2022-11-06T06:42:22Z</time>
      </trkpt>
      <trkpt lat="39.6730280" lon="-0.4728170">
        <ele>247.7</ele>
        <time>2022-11-06T06:42:23Z</time>
      </trkpt>
      <trkpt lat="39.6729400" lon="-0.4728700">
        <ele>247.3</ele>
        <time>2022-11-06T06:42:24Z</time>
      </trkpt>
      <trkpt lat="39.6729020" lon="-0.4729000">
        <ele>247.2</ele>
        <time>2022-11-06T06:42:25Z</time>
      </trkpt>
      <trkpt lat="39.6728570" lon="-0.4729280">
        <ele>247.0</ele>
        <time>2022-11-06T06:42:26Z</time>
      </trkpt>
      <trkpt lat="39.6728140" lon="-0.4729550">
        <ele>246.9</ele>
        <time>2022-11-06T06:42:27Z</time>
      </trkpt>
      <trkpt lat="39.6727760" lon="-0.4729830">
        <ele>246.7</ele>
        <time>2022-11-06T06:42:28Z</time>
      </trkpt>
      <trkpt lat="39.6727330" lon="-0.4730100">
        <ele>246.6</ele>
        <time>2022-11-06T06:42:29Z</time>
      </trkpt>
      <trkpt lat="39.6726980" lon="-0.4730430">
        <ele>246.4</ele>
        <time>2022-11-06T06:42:30Z</time>
      </trkpt>
      <trkpt lat="39.6726580" lon="-0.4730680">
        <ele>246.3</ele>
        <time>2022-11-06T06:42:31Z</time>
      </trkpt>
      <trkpt lat="39.6726150" lon="-0.4730980">
        <ele>246.2</ele>
        <time>2022-11-06T06:42:32Z</time>
      </trkpt>
      <trkpt lat="39.6726150" lon="-0.4730980">
        <ele>246.2</ele>
        <time>2022-11-06T06:42:33Z</time>
      </trkpt>
      <trkpt lat="39.6725780" lon="-0.4731300">
        <ele>246.0</ele>
        <time>2022-11-06T06:42:34Z</time>
      </trkpt>
      <trkpt lat="39.6725050" lon="-0.4731900">
        <ele>245.8</ele>
        <time>2022-11-06T06:42:35Z</time>
      </trkpt>
      <trkpt lat="39.6724620" lon="-0.4732170">
        <ele>245.7</ele>
        <time>2022-11-06T06:42:36Z</time>
      </trkpt>
      <trkpt lat="39.6724250" lon="-0.4732420">
        <ele>245.6</ele>
        <time>2022-11-06T06:42:37Z</time>
      </trkpt>
      <trkpt lat="39.6723900" lon="-0.4732580">
        <ele>245.5</ele>
        <time>2022-11-06T06:42:38Z</time>
      </trkpt>
      <trkpt lat="39.6723520" lon="-0.4732720">
        <ele>245.4</ele>
        <time>2022-11-06T06:42:39Z</time>
      </trkpt>
      <trkpt lat="39.6723150" lon="-0.4732880">
        <ele>245.3</ele>
        <time>2022-11-06T06:42:40Z</time>
      </trkpt>
      <trkpt lat="39.6722750" lon="-0.4733020">
        <ele>245.2</ele>
        <time>2022-11-06T06:42:41Z</time>
      </trkpt>
      <trkpt lat="39.6722370" lon="-0.4733170">
        <ele>245.1</ele>
        <time>2022-11-06T06:42:42Z</time>
      </trkpt>
      <trkpt lat="39.6722370" lon="-0.4733170">
        <ele>245.1</ele>
        <time>2022-11-06T06:42:43Z</time>
      </trkpt>
      <trkpt lat="39.6722370" lon="-0.4733170">
        <ele>245.1</ele>
        <time>2022-11-06T06:42:44Z</time>
      </trkpt>
      <trkpt lat="39.6721110" lon="-0.4733600">
        <ele>244.8</ele>
        <time>2022-11-06T06:42:45Z</time>
      </trkpt>
      <trkpt lat="39.6720730" lon="-0.4733750">
        <ele>244.7</ele>
        <time>2022-11-06T06:42:46Z</time>
      </trkpt>
      <trkpt lat="39.6720360" lon="-0.4733920">
        <ele>244.6</ele>
        <time>2022-11-06T06:42:47Z</time>
      </trkpt>
      <trkpt lat="39.6719930" lon="-0.4734070">
        <ele>244.5</ele>
        <time>2022-11-06T06:42:48Z</time>
      </trkpt>
      <trkpt lat="39.6719580" lon="-0.4734180">
        <ele>244.4</ele>
        <time>2022-11-06T06:42:49Z</time>
      </trkpt>
      <trkpt lat="39.6719260" lon="-0.4734330">
        <ele>244.3</ele>
        <time>2022-11-06T06:42:50Z</time>
      </trkpt>
      <trkpt lat="39.6718910" lon="-0.4734450">
        <ele>244.2</ele>
        <time>2022-11-06T06:42:51Z</time>
      </trkpt>
      <trkpt lat="39.6718510" lon="-0.4734580">
        <ele>244.2</ele>
        <time>2022-11-06T06:42:52Z</time>
      </trkpt>
      <trkpt lat="39.6718130" lon="-0.4734720">
        <ele>244.1</ele>
        <time>2022-11-06T06:42:53Z</time>
      </trkpt>
      <trkpt lat="39.6718130" lon="-0.4734720">
        <ele>244.1</ele>
        <time>2022-11-06T06:42:54Z</time>
      </trkpt>
      <trkpt lat="39.6718130" lon="-0.4734720">
        <ele>244.1</ele>
        <time>2022-11-06T06:42:55Z</time>
      </trkpt>
      <trkpt lat="39.6716850" lon="-0.4735230">
        <ele>243.8</ele>
        <time>2022-11-06T06:42:56Z</time>
      </trkpt>
      <trkpt lat="39.6716420" lon="-0.4735350">
        <ele>243.7</ele>
        <time>2022-11-06T06:42:57Z</time>
      </trkpt>
      <trkpt lat="39.6715960" lon="-0.4735470">
        <ele>243.6</ele>
        <time>2022-11-06T06:42:58Z</time>
      </trkpt>
      <trkpt lat="39.6715480" lon="-0.4735570">
        <ele>243.4</ele>
        <time>2022-11-06T06:42:59Z</time>
      </trkpt>
      <trkpt lat="39.6715020" lon="-0.4735670">
        <ele>243.3</ele>
        <time>2022-11-06T06:43:00Z</time>
      </trkpt>
      <trkpt lat="39.6714510" lon="-0.4735700">
        <ele>243.2</ele>
        <time>2022-11-06T06:43:01Z</time>
      </trkpt>
      <trkpt lat="39.6714030" lon="-0.4735780">
        <ele>243.1</ele>
        <time>2022-11-06T06:43:02Z</time>
      </trkpt>
      <trkpt lat="39.6713490" lon="-0.4735820">
        <ele>243.0</ele>
        <time>2022-11-06T06:43:03Z</time>
      </trkpt>
      <trkpt lat="39.6713490" lon="-0.4735820">
        <ele>243.0</ele>
        <time>2022-11-06T06:43:04Z</time>
      </trkpt>
      <trkpt lat="39.6712530" lon="-0.4735800">
        <ele>242.8</ele>
        <time>2022-11-06T06:43:05Z</time>
      </trkpt>
      <trkpt lat="39.6712040" lon="-0.4735800">
        <ele>242.7</ele>
        <time>2022-11-06T06:43:06Z</time>
      </trkpt>
      <trkpt lat="39.6711530" lon="-0.4735800">
        <ele>242.6</ele>
        <time>2022-11-06T06:43:07Z</time>
      </trkpt>
      <trkpt lat="39.6711050" lon="-0.4735780">
        <ele>242.5</ele>
        <time>2022-11-06T06:43:08Z</time>
      </trkpt>
      <trkpt lat="39.6710540" lon="-0.4735780">
        <ele>242.4</ele>
        <time>2022-11-06T06:43:09Z</time>
      </trkpt>
      <trkpt lat="39.6710090" lon="-0.4735730">
        <ele>242.3</ele>
        <time>2022-11-06T06:43:10Z</time>
      </trkpt>
      <trkpt lat="39.6709680" lon="-0.4735700">
        <ele>242.2</ele>
        <time>2022-11-06T06:43:11Z</time>
      </trkpt>
      <trkpt lat="39.6709200" lon="-0.4735630">
        <ele>242.1</ele>
        <time>2022-11-06T06:43:12Z</time>
      </trkpt>
      <trkpt lat="39.6708800" lon="-0.4735530">
        <ele>242.0</ele>
        <time>2022-11-06T06:43:13Z</time>
      </trkpt>
      <trkpt lat="39.6708370" lon="-0.4735380">
        <ele>241.9</ele>
        <time>2022-11-06T06:43:14Z</time>
      </trkpt>
      <trkpt lat="39.6708370" lon="-0.4735380">
        <ele>241.9</ele>
        <time>2022-11-06T06:43:15Z</time>
      </trkpt>
      <trkpt lat="39.6707560" lon="-0.4734900">
        <ele>241.6</ele>
        <time>2022-11-06T06:43:16Z</time>
      </trkpt>
      <trkpt lat="39.6707160" lon="-0.4734630">
        <ele>241.5</ele>
        <time>2022-11-06T06:43:17Z</time>
      </trkpt>
      <trkpt lat="39.6706710" lon="-0.4734270">
        <ele>241.4</ele>
        <time>2022-11-06T06:43:18Z</time>
      </trkpt>
      <trkpt lat="39.6706360" lon="-0.4733920">
        <ele>241.3</ele>
        <time>2022-11-06T06:43:19Z</time>
      </trkpt>
      <trkpt lat="39.6705930" lon="-0.4733550">
        <ele>241.2</ele>
        <time>2022-11-06T06:43:20Z</time>
      </trkpt>
      <trkpt lat="39.6705530" lon="-0.4733150">
        <ele>241.1</ele>
        <time>2022-11-06T06:43:21Z</time>
      </trkpt>
      <trkpt lat="39.6705020" lon="-0.4732770">
        <ele>240.9</ele>
        <time>2022-11-06T06:43:22Z</time>
      </trkpt>
      <trkpt lat="39.6704560" lon="-0.4732430">
        <ele>240.8</ele>
        <time>2022-11-06T06:43:23Z</time>
      </trkpt>
      <trkpt lat="39.6704100" lon="-0.4732120">
        <ele>240.7</ele>
        <time>2022-11-06T06:43:24Z</time>
      </trkpt>
      <trkpt lat="39.6704100" lon="-0.4732120">
        <ele>240.7</ele>
        <time>2022-11-06T06:43:25Z</time>
      </trkpt>
      <trkpt lat="39.6703220" lon="-0.4731550">
        <ele>240.5</ele>
        <time>2022-11-06T06:43:26Z</time>
      </trkpt>
      <trkpt lat="39.6702840" lon="-0.4731250">
        <ele>240.4</ele>
        <time>2022-11-06T06:43:27Z</time>
      </trkpt>
      <trkpt lat="39.6702500" lon="-0.4730980">
        <ele>240.3</ele>
        <time>2022-11-06T06:43:28Z</time>
      </trkpt>
      <trkpt lat="39.6702120" lon="-0.4730750">
        <ele>240.2</ele>
        <time>2022-11-06T06:43:29Z</time>
      </trkpt>
      <trkpt lat="39.6701770" lon="-0.4730480">
        <ele>240.1</ele>
        <time>2022-11-06T06:43:30Z</time>
      </trkpt>
      <trkpt lat="39.6701420" lon="-0.4730250">
        <ele>240.0</ele>
        <time>2022-11-06T06:43:31Z</time>
      </trkpt>
      <trkpt lat="39.6701050" lon="-0.4730030">
        <ele>239.9</ele>
        <time>2022-11-06T06:43:32Z</time>
      </trkpt>
      <trkpt lat="39.6700700" lon="-0.4729850">
        <ele>239.8</ele>
        <time>2022-11-06T06:43:33Z</time>
      </trkpt>
      <trkpt lat="39.6700300" lon="-0.4729700">
        <ele>239.7</ele>
        <time>2022-11-06T06:43:34Z</time>
      </trkpt>
      <trkpt lat="39.6700300" lon="-0.4729700">
        <ele>239.7</ele>
        <time>2022-11-06T06:43:35Z</time>
      </trkpt>
      <trkpt lat="39.6700300" lon="-0.4729700">
        <ele>239.7</ele>
        <time>2022-11-06T06:43:36Z</time>
      </trkpt>
      <trkpt lat="39.6699170" lon="-0.4729270">
        <ele>239.3</ele>
        <time>2022-11-06T06:43:37Z</time>
      </trkpt>
      <trkpt lat="39.6698770" lon="-0.4729180">
        <ele>239.2</ele>
        <time>2022-11-06T06:43:38Z</time>
      </trkpt>
      <trkpt lat="39.6698390" lon="-0.4729120">
        <ele>239.1</ele>
        <time>2022-11-06T06:43:39Z</time>
      </trkpt>
      <trkpt lat="39.6698070" lon="-0.4729080">
        <ele>239.0</ele>
        <time>2022-11-06T06:43:40Z</time>
      </trkpt>
      <trkpt lat="39.6697850" lon="-0.4729050">
        <ele>238.9</ele>
        <time>2022-11-06T06:43:41Z</time>
      </trkpt>
      <trkpt lat="39.6697690" lon="-0.4728920">
        <ele>238.9</ele>
        <time>2022-11-06T06:43:42Z</time>
      </trkpt>
      <trkpt lat="39.6697590" lon="-0.4728800">
        <ele>238.8</ele>
        <time>2022-11-06T06:43:43Z</time>
      </trkpt>
      <trkpt lat="39.6697450" lon="-0.4728720">
        <ele>238.8</ele>
        <time>2022-11-06T06:43:44Z</time>
      </trkpt>
      <trkpt lat="39.6697450" lon="-0.4728720">
        <ele>238.8</ele>
        <time>2022-11-06T06:43:45Z</time>
      </trkpt>
      <trkpt lat="39.6697450" lon="-0.4728720">
        <ele>238.8</ele>
        <time>2022-11-06T06:43:46Z</time>
      </trkpt>
      <trkpt lat="39.6697160" lon="-0.4728580">
        <ele>238.7</ele>
        <time>2022-11-06T06:43:47Z</time>
      </trkpt>
      <trkpt lat="39.6697130" lon="-0.4728570">
        <ele>238.7</ele>
        <time>2022-11-06T06:43:48Z</time>
      </trkpt>
      <trkpt lat="39.6696730" lon="-0.4728750">
        <ele>238.6</ele>
        <time>2022-11-06T06:43:57Z</time>
      </trkpt>
      <trkpt lat="39.6696810" lon="-0.4728730">
        <ele>238.5</ele>
        <time>2022-11-06T06:43:58Z</time>
      </trkpt>
      <trkpt lat="39.6696970" lon="-0.4728730">
        <ele>238.5</ele>
        <time>2022-11-06T06:43:59Z</time>
      </trkpt>
      <trkpt lat="39.6697050" lon="-0.4728730">
        <ele>238.5</ele>
        <time>2022-11-06T06:44:00Z</time>
      </trkpt>
      <trkpt lat="39.6697180" lon="-0.4728700">
        <ele>238.4</ele>
        <time>2022-11-06T06:44:01Z</time>
      </trkpt>
      <trkpt lat="39.6697400" lon="-0.4728680">
        <ele>238.4</ele>
        <time>2022-11-06T06:44:02Z</time>
      </trkpt>
      <trkpt lat="39.6697590" lon="-0.4728720">
        <ele>238.3</ele>
        <time>2022-11-06T06:44:03Z</time>
      </trkpt>
      <trkpt lat="39.6697770" lon="-0.4728750">
        <ele>238.3</ele>
        <time>2022-11-06T06:44:04Z</time>
      </trkpt>
      <trkpt lat="39.6697960" lon="-0.4728820">
        <ele>238.2</ele>
        <time>2022-11-06T06:44:05Z</time>
      </trkpt>
      <trkpt lat="39.6697960" lon="-0.4728820">
        <ele>238.2</ele>
        <time>2022-11-06T06:44:06Z</time>
      </trkpt>
      <trkpt lat="39.6698420" lon="-0.4728950">
        <ele>238.4</ele>
        <time>2022-11-06T06:44:07Z</time>
      </trkpt>
      <trkpt lat="39.6698690" lon="-0.4729000">
        <ele>238.5</ele>
        <time>2022-11-06T06:44:08Z</time>
      </trkpt>
      <trkpt lat="39.6698870" lon="-0.4729080">
        <ele>238.5</ele>
        <time>2022-11-06T06:44:09Z</time>
      </trkpt>
      <trkpt lat="39.6699060" lon="-0.4729170">
        <ele>238.6</ele>
        <time>2022-11-06T06:44:10Z</time>
      </trkpt>
      <trkpt lat="39.6699380" lon="-0.4729220">
        <ele>238.7</ele>
        <time>2022-11-06T06:44:11Z</time>
      </trkpt>
      <trkpt lat="39.6699630" lon="-0.4729270">
        <ele>238.8</ele>
        <time>2022-11-06T06:44:12Z</time>
      </trkpt>
      <trkpt lat="39.6699890" lon="-0.4729470">
        <ele>238.9</ele>
        <time>2022-11-06T06:44:13Z</time>
      </trkpt>
      <trkpt lat="39.6700160" lon="-0.4729620">
        <ele>239.0</ele>
        <time>2022-11-06T06:44:14Z</time>
      </trkpt>
      <trkpt lat="39.6700430" lon="-0.4729800">
        <ele>239.1</ele>
        <time>2022-11-06T06:44:15Z</time>
      </trkpt>
      <trkpt lat="39.6700750" lon="-0.4729980">
        <ele>239.2</ele>
        <time>2022-11-06T06:44:16Z</time>
      </trkpt>
      <trkpt lat="39.6700750" lon="-0.4729980">
        <ele>239.2</ele>
        <time>2022-11-06T06:44:17Z</time>
      </trkpt>
      <trkpt lat="39.6701320" lon="-0.4730280">
        <ele>239.4</ele>
        <time>2022-11-06T06:44:18Z</time>
      </trkpt>
      <trkpt lat="39.6701580" lon="-0.4730480">
        <ele>239.5</ele>
        <time>2022-11-06T06:44:19Z</time>
      </trkpt>
      <trkpt lat="39.6701850" lon="-0.4730680">
        <ele>239.6</ele>
        <time>2022-11-06T06:44:20Z</time>
      </trkpt>
      <trkpt lat="39.6702120" lon="-0.4730900">
        <ele>239.7</ele>
        <time>2022-11-06T06:44:21Z</time>
      </trkpt>
      <trkpt lat="39.6702390" lon="-0.4731100">
        <ele>239.8</ele>
        <time>2022-11-06T06:44:22Z</time>
      </trkpt>
      <trkpt lat="39.6702660" lon="-0.4731300">
        <ele>239.9</ele>
        <time>2022-11-06T06:44:23Z</time>
      </trkpt>
      <trkpt lat="39.6702920" lon="-0.4731480">
        <ele>240.0</ele>
        <time>2022-11-06T06:44:24Z</time>
      </trkpt>
      <trkpt lat="39.6703190" lon="-0.4731680">
        <ele>240.1</ele>
        <time>2022-11-06T06:44:25Z</time>
      </trkpt>
      <trkpt lat="39.6703190" lon="-0.4731680">
        <ele>240.1</ele>
        <time>2022-11-06T06:44:26Z</time>
      </trkpt>
      <trkpt lat="39.6703190" lon="-0.4731680">
        <ele>240.1</ele>
        <time>2022-11-06T06:44:27Z</time>
      </trkpt>
      <trkpt lat="39.6704100" lon="-0.4732370">
        <ele>240.4</ele>
        <time>2022-11-06T06:44:28Z</time>
      </trkpt>
      <trkpt lat="39.6704320" lon="-0.4732620">
        <ele>240.4</ele>
        <time>2022-11-06T06:44:29Z</time>
      </trkpt>
      <trkpt lat="39.6704640" lon="-0.4732870">
        <ele>240.5</ele>
        <time>2022-11-06T06:44:30Z</time>
      </trkpt>
      <trkpt lat="39.6704860" lon="-0.4733120">
        <ele>240.6</ele>
        <time>2022-11-06T06:44:31Z</time>
      </trkpt>
      <trkpt lat="39.6705120" lon="-0.4733330">
        <ele>240.6</ele>
        <time>2022-11-06T06:44:32Z</time>
      </trkpt>
      <trkpt lat="39.6705530" lon="-0.4733620">
        <ele>240.8</ele>
        <time>2022-11-06T06:44:33Z</time>
      </trkpt>
      <trkpt lat="39.6705740" lon="-0.4733880">
        <ele>240.8</ele>
        <time>2022-11-06T06:44:34Z</time>
      </trkpt>
      <trkpt lat="39.6706010" lon="-0.4734170">
        <ele>240.9</ele>
        <time>2022-11-06T06:44:35Z</time>
      </trkpt>
      <trkpt lat="39.6706250" lon="-0.4734380">
        <ele>241.0</ele>
        <time>2022-11-06T06:44:36Z</time>
      </trkpt>
      <trkpt lat="39.6706250" lon="-0.4734380">
        <ele>241.0</ele>
        <time>2022-11-06T06:44:37Z</time>
      </trkpt>
      <trkpt lat="39.6706250" lon="-0.4734380">
        <ele>241.0</ele>
        <time>2022-11-06T06:44:38Z</time>
      </trkpt>
      <trkpt lat="39.6707030" lon="-0.4735050">
        <ele>241.2</ele>
        <time>2022-11-06T06:44:39Z</time>
      </trkpt>
      <trkpt lat="39.6707350" lon="-0.4735250">
        <ele>241.3</ele>
        <time>2022-11-06T06:44:40Z</time>
      </trkpt>
      <trkpt lat="39.6707650" lon="-0.4735400">
        <ele>241.4</ele>
        <time>2022-11-06T06:44:41Z</time>
      </trkpt>
      <trkpt lat="39.6707970" lon="-0.4735520">
        <ele>241.5</ele>
        <time>2022-11-06T06:44:42Z</time>
      </trkpt>
      <trkpt lat="39.6708290" lon="-0.4735620">
        <ele>241.6</ele>
        <time>2022-11-06T06:44:43Z</time>
      </trkpt>
      <trkpt lat="39.6708560" lon="-0.4735670">
        <ele>241.6</ele>
        <time>2022-11-06T06:44:44Z</time>
      </trkpt>
      <trkpt lat="39.6708910" lon="-0.4735720">
        <ele>241.7</ele>
        <time>2022-11-06T06:44:45Z</time>
      </trkpt>
      <trkpt lat="39.6709250" lon="-0.4735780">
        <ele>241.8</ele>
        <time>2022-11-06T06:44:46Z</time>
      </trkpt>
      <trkpt lat="39.6709250" lon="-0.4735780">
        <ele>241.8</ele>
        <time>2022-11-06T06:44:47Z</time>
      </trkpt>
      <trkpt lat="39.6709900" lon="-0.4735830">
        <ele>242.0</ele>
        <time>2022-11-06T06:44:48Z</time>
      </trkpt>
      <trkpt lat="39.6710270" lon="-0.4735880">
        <ele>242.1</ele>
        <time>2022-11-06T06:44:49Z</time>
      </trkpt>
      <trkpt lat="39.6710700" lon="-0.4735920">
        <ele>242.2</ele>
        <time>2022-11-06T06:44:50Z</time>
      </trkpt>
      <trkpt lat="39.6711050" lon="-0.4735920">
        <ele>242.3</ele>
        <time>2022-11-06T06:44:51Z</time>
      </trkpt>
      <trkpt lat="39.6711430" lon="-0.4735970">
        <ele>242.4</ele>
        <time>2022-11-06T06:44:52Z</time>
      </trkpt>
      <trkpt lat="39.6711720" lon="-0.4736020">
        <ele>242.4</ele>
        <time>2022-11-06T06:44:53Z</time>
      </trkpt>
      <trkpt lat="39.6712120" lon="-0.4736030">
        <ele>242.5</ele>
        <time>2022-11-06T06:44:54Z</time>
      </trkpt>
      <trkpt lat="39.6712450" lon="-0.4736030">
        <ele>242.6</ele>
        <time>2022-11-06T06:44:55Z</time>
      </trkpt>
      <trkpt lat="39.6712850" lon="-0.4736020">
        <ele>242.7</ele>
        <time>2022-11-06T06:44:56Z</time>
      </trkpt>
      <trkpt lat="39.6713170" lon="-0.4735980">
        <ele>242.8</ele>
        <time>2022-11-06T06:44:57Z</time>
      </trkpt>
      <trkpt lat="39.6713170" lon="-0.4735980">
        <ele>242.8</ele>
        <time>2022-11-06T06:44:58Z</time>
      </trkpt>
      <trkpt lat="39.6713890" lon="-0.4735950">
        <ele>243.0</ele>
        <time>2022-11-06T06:44:59Z</time>
      </trkpt>
      <trkpt lat="39.6714240" lon="-0.4735870">
        <ele>243.0</ele>
        <time>2022-11-06T06:45:00Z</time>
      </trkpt>
      <trkpt lat="39.6714570" lon="-0.4735820">
        <ele>243.1</ele>
        <time>2022-11-06T06:45:01Z</time>
      </trkpt>
      <trkpt lat="39.6714860" lon="-0.4735720">
        <ele>243.2</ele>
        <time>2022-11-06T06:45:02Z</time>
      </trkpt>
      <trkpt lat="39.6715130" lon="-0.4735620">
        <ele>243.3</ele>
        <time>2022-11-06T06:45:03Z</time>
      </trkpt>
      <trkpt lat="39.6715400" lon="-0.4735550">
        <ele>243.3</ele>
        <time>2022-11-06T06:45:04Z</time>
      </trkpt>
      <trkpt lat="39.6715690" lon="-0.4735430">
        <ele>243.4</ele>
        <time>2022-11-06T06:45:05Z</time>
      </trkpt>
      <trkpt lat="39.6715960" lon="-0.4735320">
        <ele>243.5</ele>
        <time>2022-11-06T06:45:06Z</time>
      </trkpt>
      <trkpt lat="39.6715960" lon="-0.4735320">
        <ele>243.5</ele>
        <time>2022-11-06T06:45:07Z</time>
      </trkpt>
      <trkpt lat="39.6715960" lon="-0.4735320">
        <ele>243.5</ele>
        <time>2022-11-06T06:45:08Z</time>
      </trkpt>
      <trkpt lat="39.6716850" lon="-0.4734930">
        <ele>243.7</ele>
        <time>2022-11-06T06:45:09Z</time>
      </trkpt>
      <trkpt lat="39.6717110" lon="-0.4734780">
        <ele>243.8</ele>
        <time>2022-11-06T06:45:10Z</time>
      </trkpt>
      <trkpt lat="39.6717330" lon="-0.4734630">
        <ele>243.9</ele>
        <time>2022-11-06T06:45:11Z</time>
      </trkpt>
      <trkpt lat="39.6717680" lon="-0.4734470">
        <ele>243.9</ele>
        <time>2022-11-06T06:45:12Z</time>
      </trkpt>
      <trkpt lat="39.6717940" lon="-0.4734320">
        <ele>244.0</ele>
        <time>2022-11-06T06:45:13Z</time>
      </trkpt>
      <trkpt lat="39.6718290" lon="-0.4734170">
        <ele>244.1</ele>
        <time>2022-11-06T06:45:14Z</time>
      </trkpt>
      <trkpt lat="39.6718590" lon="-0.4734030">
        <ele>244.2</ele>
        <time>2022-11-06T06:45:15Z</time>
      </trkpt>
      <trkpt lat="39.6719020" lon="-0.4733920">
        <ele>244.3</ele>
        <time>2022-11-06T06:45:16Z</time>
      </trkpt>
      <trkpt lat="39.6719370" lon="-0.4733820">
        <ele>244.4</ele>
        <time>2022-11-06T06:45:17Z</time>
      </trkpt>
      <trkpt lat="39.6719370" lon="-0.4733820">
        <ele>244.4</ele>
        <time>2022-11-06T06:45:18Z</time>
      </trkpt>
      <trkpt lat="39.6719370" lon="-0.4733820">
        <ele>244.4</ele>
        <time>2022-11-06T06:45:19Z</time>
      </trkpt>
      <trkpt lat="39.6720470" lon="-0.4733450">
        <ele>244.6</ele>
        <time>2022-11-06T06:45:20Z</time>
      </trkpt>
      <trkpt lat="39.6720810" lon="-0.4733280">
        <ele>244.7</ele>
        <time>2022-11-06T06:45:21Z</time>
      </trkpt>
      <trkpt lat="39.6721190" lon="-0.4733150">
        <ele>244.8</ele>
        <time>2022-11-06T06:45:22Z</time>
      </trkpt>
      <trkpt lat="39.6721490" lon="-0.4733000">
        <ele>244.9</ele>
        <time>2022-11-06T06:45:23Z</time>
      </trkpt>
      <trkpt lat="39.6721830" lon="-0.4732830">
        <ele>245.0</ele>
        <time>2022-11-06T06:45:24Z</time>
      </trkpt>
      <trkpt lat="39.6722210" lon="-0.4732700">
        <ele>245.1</ele>
        <time>2022-11-06T06:45:25Z</time>
      </trkpt>
      <trkpt lat="39.6722480" lon="-0.4732520">
        <ele>245.1</ele>
        <time>2022-11-06T06:45:26Z</time>
      </trkpt>
      <trkpt lat="39.6722800" lon="-0.4732300">
        <ele>245.2</ele>
        <time>2022-11-06T06:45:27Z</time>
      </trkpt>
      <trkpt lat="39.6722800" lon="-0.4732300">
        <ele>245.2</ele>
        <time>2022-11-06T06:45:28Z</time>
      </trkpt>
      <trkpt lat="39.6723520" lon="-0.4731880">
        <ele>245.4</ele>
        <time>2022-11-06T06:45:29Z</time>
      </trkpt>
      <trkpt lat="39.6723870" lon="-0.4731670">
        <ele>245.5</ele>
        <time>2022-11-06T06:45:30Z</time>
      </trkpt>
      <trkpt lat="39.6724170" lon="-0.4731420">
        <ele>245.6</ele>
        <time>2022-11-06T06:45:31Z</time>
      </trkpt>
      <trkpt lat="39.6724520" lon="-0.4731130">
        <ele>245.7</ele>
        <time>2022-11-06T06:45:32Z</time>
      </trkpt>
      <trkpt lat="39.6724860" lon="-0.4730870">
        <ele>245.8</ele>
        <time>2022-11-06T06:45:33Z</time>
      </trkpt>
      <trkpt lat="39.6725190" lon="-0.4730650">
        <ele>245.9</ele>
        <time>2022-11-06T06:45:34Z</time>
      </trkpt>
      <trkpt lat="39.6725510" lon="-0.4730450">
        <ele>246.0</ele>
        <time>2022-11-06T06:45:35Z</time>
      </trkpt>
      <trkpt lat="39.6725880" lon="-0.4730280">
        <ele>246.1</ele>
        <time>2022-11-06T06:45:36Z</time>
      </trkpt>
      <trkpt lat="39.6726260" lon="-0.4730080">
        <ele>246.3</ele>
        <time>2022-11-06T06:45:37Z</time>
      </trkpt>
      <trkpt lat="39.6726580" lon="-0.4729850">
        <ele>246.4</ele>
        <time>2022-11-06T06:45:38Z</time>
      </trkpt>
      <trkpt lat="39.6726580" lon="-0.4729850">
        <ele>246.4</ele>
        <time>2022-11-06T06:45:39Z</time>
      </trkpt>
      <trkpt lat="39.6727230" lon="-0.4729420">
        <ele>246.6</ele>
        <time>2022-11-06T06:45:40Z</time>
      </trkpt>
      <trkpt lat="39.6727570" lon="-0.4729200">
        <ele>246.7</ele>
        <time>2022-11-06T06:45:41Z</time>
      </trkpt>
      <trkpt lat="39.6727870" lon="-0.4728980">
        <ele>246.8</ele>
        <time>2022-11-06T06:45:42Z</time>
      </trkpt>
      <trkpt lat="39.6728140" lon="-0.4728700">
        <ele>246.9</ele>
        <time>2022-11-06T06:45:43Z</time>
      </trkpt>
      <trkpt lat="39.6728490" lon="-0.4728520">
        <ele>247.1</ele>
        <time>2022-11-06T06:45:44Z</time>
      </trkpt>
      <trkpt lat="39.6728780" lon="-0.4728320">
        <ele>247.2</ele>
        <time>2022-11-06T06:45:45Z</time>
      </trkpt>
      <trkpt lat="39.6729130" lon="-0.4728130">
        <ele>247.3</ele>
        <time>2022-11-06T06:45:46Z</time>
      </trkpt>
      <trkpt lat="39.6729420" lon="-0.4727880">
        <ele>247.4</ele>
        <time>2022-11-06T06:45:47Z</time>
      </trkpt>
      <trkpt lat="39.6729800" lon="-0.4727720">
        <ele>247.6</ele>
        <time>2022-11-06T06:45:48Z</time>
      </trkpt>
      <trkpt lat="39.6729800" lon="-0.4727720">
        <ele>247.6</ele>
        <time>2022-11-06T06:45:49Z</time>
      </trkpt>
      <trkpt lat="39.6730580" lon="-0.4727280">
        <ele>247.9</ele>
        <time>2022-11-06T06:45:50Z</time>
      </trkpt>
      <trkpt lat="39.6730870" lon="-0.4727080">
        <ele>248.0</ele>
        <time>2022-11-06T06:45:51Z</time>
      </trkpt>
      <trkpt lat="39.6731140" lon="-0.4726900">
        <ele>248.2</ele>
        <time>2022-11-06T06:45:52Z</time>
      </trkpt>
      <trkpt lat="39.6731410" lon="-0.4726750">
        <ele>248.3</ele>
        <time>2022-11-06T06:45:53Z</time>
      </trkpt>
      <trkpt lat="39.6731730" lon="-0.4726530">
        <ele>248.5</ele>
        <time>2022-11-06T06:45:54Z</time>
      </trkpt>
      <trkpt lat="39.6731950" lon="-0.4726380">
        <ele>248.6</ele>
        <time>2022-11-06T06:45:55Z</time>
      </trkpt>
      <trkpt lat="39.6732210" lon="-0.4726200">
        <ele>248.7</ele>
        <time>2022-11-06T06:45:56Z</time>
      </trkpt>
      <trkpt lat="39.6732510" lon="-0.4726050">
        <ele>248.9</ele>
        <time>2022-11-06T06:45:57Z</time>
      </trkpt>
      <trkpt lat="39.6732830" lon="-0.4725900">
        <ele>249.0</ele>
        <time>2022-11-06T06:45:58Z</time>
      </trkpt>
      <trkpt lat="39.6732830" lon="-0.4725900">
        <ele>249.0</ele>
        <time>2022-11-06T06:45:59Z</time>
      </trkpt>
      <trkpt lat="39.6732830" lon="-0.4725900">
        <ele>249.0</ele>
        <time>2022-11-06T06:46:00Z</time>
      </trkpt>
      <trkpt lat="39.6733770" lon="-0.4725330">
        <ele>249.5</ele>
        <time>2022-11-06T06:46:01Z</time>
      </trkpt>
      <trkpt lat="39.6734090" lon="-0.4725130">
        <ele>249.7</ele>
        <time>2022-11-06T06:46:02Z</time>
      </trkpt>
      <trkpt lat="39.6734440" lon="-0.4724930">
        <ele>249.9</ele>
        <time>2022-11-06T06:46:03Z</time>
      </trkpt>
      <trkpt lat="39.6734740" lon="-0.4724770">
        <ele>250.0</ele>
        <time>2022-11-06T06:46:04Z</time>
      </trkpt>
      <trkpt lat="39.6735000" lon="-0.4724620">
        <ele>250.1</ele>
        <time>2022-11-06T06:46:05Z</time>
      </trkpt>
      <trkpt lat="39.6735300" lon="-0.4724430">
        <ele>250.2</ele>
        <time>2022-11-06T06:46:06Z</time>
      </trkpt>
      <trkpt lat="39.6735540" lon="-0.4724330">
        <ele>250.3</ele>
        <time>2022-11-06T06:46:07Z</time>
      </trkpt>
      <trkpt lat="39.6735840" lon="-0.4724120">
        <ele>250.4</ele>
        <time>2022-11-06T06:46:08Z</time>
      </trkpt>
      <trkpt lat="39.6735840" lon="-0.4724120">
        <ele>250.4</ele>
        <time>2022-11-06T06:46:09Z</time>
      </trkpt>
      <trkpt lat="39.6735840" lon="-0.4724120">
        <ele>250.4</ele>
        <time>2022-11-06T06:46:10Z</time>
      </trkpt>
      <trkpt lat="39.6736720" lon="-0.4723350">
        <ele>250.7</ele>
        <time>2022-11-06T06:46:11Z</time>
      </trkpt>
      <trkpt lat="39.6737020" lon="-0.4723170">
        <ele>250.8</ele>
        <time>2022-11-06T06:46:12Z</time>
      </trkpt>
      <trkpt lat="39.6737280" lon="-0.4723020">
        <ele>250.8</ele>
        <time>2022-11-06T06:46:13Z</time>
      </trkpt>
      <trkpt lat="39.6737610" lon="-0.4722850">
        <ele>251.0</ele>
        <time>2022-11-06T06:46:14Z</time>
      </trkpt>
      <trkpt lat="39.6737870" lon="-0.4722630">
        <ele>251.2</ele>
        <time>2022-11-06T06:46:15Z</time>
      </trkpt>
      <trkpt lat="39.6738170" lon="-0.4722400">
        <ele>251.4</ele>
        <time>2022-11-06T06:46:16Z</time>
      </trkpt>
      <trkpt lat="39.6738440" lon="-0.4722170">
        <ele>251.5</ele>
        <time>2022-11-06T06:46:17Z</time>
      </trkpt>
      <trkpt lat="39.6738710" lon="-0.4721950">
        <ele>251.7</ele>
        <time>2022-11-06T06:46:18Z</time>
      </trkpt>
      <trkpt lat="39.6738920" lon="-0.4721770">
        <ele>251.8</ele>
        <time>2022-11-06T06:46:19Z</time>
      </trkpt>
      <trkpt lat="39.6738920" lon="-0.4721770">
        <ele>251.8</ele>
        <time>2022-11-06T06:46:20Z</time>
      </trkpt>
      <trkpt lat="39.6739620" lon="-0.4721300">
        <ele>252.2</ele>
        <time>2022-11-06T06:46:21Z</time>
      </trkpt>
      <trkpt lat="39.6739890" lon="-0.4721050">
        <ele>252.4</ele>
        <time>2022-11-06T06:46:22Z</time>
      </trkpt>
      <trkpt lat="39.6740180" lon="-0.4720780">
        <ele>252.5</ele>
        <time>2022-11-06T06:46:23Z</time>
      </trkpt>
      <trkpt lat="39.6740530" lon="-0.4720570">
        <ele>252.7</ele>
        <time>2022-11-06T06:46:24Z</time>
      </trkpt>
      <trkpt lat="39.6740900" lon="-0.4720400">
        <ele>252.9</ele>
        <time>2022-11-06T06:46:25Z</time>
      </trkpt>
      <trkpt lat="39.6741230" lon="-0.4720280">
        <ele>253.0</ele>
        <time>2022-11-06T06:46:26Z</time>
      </trkpt>
      <trkpt lat="39.6741600" lon="-0.4720170">
        <ele>253.1</ele>
        <time>2022-11-06T06:46:27Z</time>
      </trkpt>
      <trkpt lat="39.6741900" lon="-0.4720080">
        <ele>253.2</ele>
        <time>2022-11-06T06:46:28Z</time>
      </trkpt>
      <trkpt lat="39.6742140" lon="-0.4720000">
        <ele>253.3</ele>
        <time>2022-11-06T06:46:29Z</time>
      </trkpt>
      <trkpt lat="39.6742140" lon="-0.4720000">
        <ele>253.3</ele>
        <time>2022-11-06T06:46:30Z</time>
      </trkpt>
      <trkpt lat="39.6742670" lon="-0.4719650">
        <ele>253.4</ele>
        <time>2022-11-06T06:46:31Z</time>
      </trkpt>
      <trkpt lat="39.6742970" lon="-0.4719430">
        <ele>253.4</ele>
        <time>2022-11-06T06:46:32Z</time>
      </trkpt>
      <trkpt lat="39.6743240" lon="-0.4719130">
        <ele>253.3</ele>
        <time>2022-11-06T06:46:33Z</time>
      </trkpt>
      <trkpt lat="39.6743590" lon="-0.4718770">
        <ele>253.2</ele>
        <time>2022-11-06T06:46:34Z</time>
      </trkpt>
      <trkpt lat="39.6744070" lon="-0.4718280">
        <ele>252.9</ele>
        <time>2022-11-06T06:46:35Z</time>
      </trkpt>
      <trkpt lat="39.6744530" lon="-0.4717820">
        <ele>252.7</ele>
        <time>2022-11-06T06:46:36Z</time>
      </trkpt>
      <trkpt lat="39.6744950" lon="-0.4717300">
        <ele>252.6</ele>
        <time>2022-11-06T06:46:37Z</time>
      </trkpt>
      <trkpt lat="39.6745330" lon="-0.4716930">
        <ele>252.6</ele>
        <time>2022-11-06T06:46:38Z</time>
      </trkpt>
      <trkpt lat="39.6745760" lon="-0.4716650">
        <ele>252.7</ele>
        <time>2022-11-06T06:46:39Z</time>
      </trkpt>
      <trkpt lat="39.6746110" lon="-0.4716430">
        <ele>252.8</ele>
        <time>2022-11-06T06:46:40Z</time>
      </trkpt>
      <trkpt lat="39.6746110" lon="-0.4716430">
        <ele>252.8</ele>
        <time>2022-11-06T06:46:41Z</time>
      </trkpt>
      <trkpt lat="39.6746780" lon="-0.4716120">
        <ele>253.1</ele>
        <time>2022-11-06T06:46:42Z</time>
      </trkpt>
      <trkpt lat="39.6747100" lon="-0.4715980">
        <ele>253.3</ele>
        <time>2022-11-06T06:46:43Z</time>
      </trkpt>
      <trkpt lat="39.6747400" lon="-0.4715850">
        <ele>253.4</ele>
        <time>2022-11-06T06:46:44Z</time>
      </trkpt>
      <trkpt lat="39.6747690" lon="-0.4715620">
        <ele>253.6</ele>
        <time>2022-11-06T06:46:45Z</time>
      </trkpt>
      <trkpt lat="39.6747960" lon="-0.4715430">
        <ele>253.7</ele>
        <time>2022-11-06T06:46:46Z</time>
      </trkpt>
      <trkpt lat="39.6748230" lon="-0.4715220">
        <ele>253.9</ele>
        <time>2022-11-06T06:46:47Z</time>
      </trkpt>
      <trkpt lat="39.6748440" lon="-0.4714980">
        <ele>254.1</ele>
        <time>2022-11-06T06:46:48Z</time>
      </trkpt>
      <trkpt lat="39.6748550" lon="-0.4714770">
        <ele>254.3</ele>
        <time>2022-11-06T06:46:49Z</time>
      </trkpt>
      <trkpt lat="39.6748550" lon="-0.4714770">
        <ele>254.3</ele>
        <time>2022-11-06T06:46:50Z</time>
      </trkpt>
      <trkpt lat="39.6748550" lon="-0.4714770">
        <ele>254.3</ele>
        <time>2022-11-06T06:46:51Z</time>
      </trkpt>
      <trkpt lat="39.6749090" lon="-0.4714230">
        <ele>254.8</ele>
        <time>2022-11-06T06:46:52Z</time>
      </trkpt>
      <trkpt lat="39.6749300" lon="-0.4714020">
        <ele>255.0</ele>
        <time>2022-11-06T06:46:53Z</time>
      </trkpt>
      <trkpt lat="39.6749540" lon="-0.4713800">
        <ele>255.3</ele>
        <time>2022-11-06T06:46:54Z</time>
      </trkpt>
      <trkpt lat="39.6749730" lon="-0.4713630">
        <ele>255.5</ele>
        <time>2022-11-06T06:46:55Z</time>
      </trkpt>
      <trkpt lat="39.6749920" lon="-0.4713430">
        <ele>255.7</ele>
        <time>2022-11-06T06:46:56Z</time>
      </trkpt>
      <trkpt lat="39.6750180" lon="-0.4713230">
        <ele>256.0</ele>
        <time>2022-11-06T06:46:57Z</time>
      </trkpt>
      <trkpt lat="39.6750450" lon="-0.4713050">
        <ele>256.3</ele>
        <time>2022-11-06T06:46:58Z</time>
      </trkpt>
      <trkpt lat="39.6750720" lon="-0.4712930">
        <ele>256.5</ele>
        <time>2022-11-06T06:46:59Z</time>
      </trkpt>
      <trkpt lat="39.6750940" lon="-0.4712820">
        <ele>256.7</ele>
        <time>2022-11-06T06:47:00Z</time>
      </trkpt>
      <trkpt lat="39.6750940" lon="-0.4712820">
        <ele>256.7</ele>
        <time>2022-11-06T06:47:01Z</time>
      </trkpt>
      <trkpt lat="39.6750940" lon="-0.4712820">
        <ele>256.7</ele>
        <time>2022-11-06T06:47:02Z</time>
      </trkpt>
      <trkpt lat="39.6751610" lon="-0.4712650">
        <ele>257.3</ele>
        <time>2022-11-06T06:47:03Z</time>
      </trkpt>
      <trkpt lat="39.6751820" lon="-0.4712600">
        <ele>257.4</ele>
        <time>2022-11-06T06:47:04Z</time>
      </trkpt>
      <trkpt lat="39.6752060" lon="-0.4712530">
        <ele>257.6</ele>
        <time>2022-11-06T06:47:05Z</time>
      </trkpt>
      <trkpt lat="39.6752330" lon="-0.4712520">
        <ele>257.7</ele>
        <time>2022-11-06T06:47:06Z</time>
      </trkpt>
      <trkpt lat="39.6752650" lon="-0.4712430">
        <ele>257.9</ele>
        <time>2022-11-06T06:47:07Z</time>
      </trkpt>
      <trkpt lat="39.6752970" lon="-0.4712370">
        <ele>258.1</ele>
        <time>2022-11-06T06:47:08Z</time>
      </trkpt>
      <trkpt lat="39.6753240" lon="-0.4712250">
        <ele>258.2</ele>
        <time>2022-11-06T06:47:09Z</time>
      </trkpt>
      <trkpt lat="39.6753540" lon="-0.4712170">
        <ele>258.3</ele>
        <time>2022-11-06T06:47:10Z</time>
      </trkpt>
      <trkpt lat="39.6753540" lon="-0.4712170">
        <ele>258.3</ele>
        <time>2022-11-06T06:47:11Z</time>
      </trkpt>
      <trkpt lat="39.6754180" lon="-0.4711920">
        <ele>258.6</ele>
        <time>2022-11-06T06:47:12Z</time>
      </trkpt>
      <trkpt lat="39.6754530" lon="-0.4711780">
        <ele>258.7</ele>
        <time>2022-11-06T06:47:13Z</time>
      </trkpt>
      <trkpt lat="39.6754910" lon="-0.4711650">
        <ele>258.8</ele>
        <time>2022-11-06T06:47:14Z</time>
      </trkpt>
      <trkpt lat="39.6755230" lon="-0.4711520">
        <ele>258.9</ele>
        <time>2022-11-06T06:47:15Z</time>
      </trkpt>
      <trkpt lat="39.6755520" lon="-0.4711380">
        <ele>259.1</ele>
        <time>2022-11-06T06:47:16Z</time>
      </trkpt>
      <trkpt lat="39.6755790" lon="-0.4711200">
        <ele>259.2</ele>
        <time>2022-11-06T06:47:17Z</time>
      </trkpt>
      <trkpt lat="39.6756140" lon="-0.4711020">
        <ele>259.3</ele>
        <time>2022-11-06T06:47:18Z</time>
      </trkpt>
      <trkpt lat="39.6756410" lon="-0.4710830">
        <ele>259.4</ele>
        <time>2022-11-06T06:47:19Z</time>
      </trkpt>
      <trkpt lat="39.6756700" lon="-0.4710650">
        <ele>259.5</ele>
        <time>2022-11-06T06:47:20Z</time>
      </trkpt>
      <trkpt lat="39.6757020" lon="-0.4710450">
        <ele>259.6</ele>
        <time>2022-11-06T06:47:21Z</time>
      </trkpt>
      <trkpt lat="39.6757020" lon="-0.4710450">
        <ele>259.6</ele>
        <time>2022-11-06T06:47:22Z</time>
      </trkpt>
      <trkpt lat="39.6757610" lon="-0.4710070">
        <ele>259.9</ele>
        <time>2022-11-06T06:47:23Z</time>
      </trkpt>
      <trkpt lat="39.6757940" lon="-0.4709880">
        <ele>260.1</ele>
        <time>2022-11-06T06:47:24Z</time>
      </trkpt>
      <trkpt lat="39.6758230" lon="-0.4709730">
        <ele>260.2</ele>
        <time>2022-11-06T06:47:25Z</time>
      </trkpt>
      <trkpt lat="39.6758500" lon="-0.4709550">
        <ele>260.4</ele>
        <time>2022-11-06T06:47:26Z</time>
      </trkpt>
      <trkpt lat="39.6758790" lon="-0.4709400">
        <ele>260.5</ele>
        <time>2022-11-06T06:47:27Z</time>
      </trkpt>
      <trkpt lat="39.6759120" lon="-0.4709320">
        <ele>260.7</ele>
        <time>2022-11-06T06:47:28Z</time>
      </trkpt>
      <trkpt lat="39.6759380" lon="-0.4709220">
        <ele>260.8</ele>
        <time>2022-11-06T06:47:29Z</time>
      </trkpt>
      <trkpt lat="39.6759710" lon="-0.4709150">
        <ele>261.0</ele>
        <time>2022-11-06T06:47:30Z</time>
      </trkpt>
      <trkpt lat="39.6759710" lon="-0.4709150">
        <ele>261.0</ele>
        <time>2022-11-06T06:47:31Z</time>
      </trkpt>
      <trkpt lat="39.6759710" lon="-0.4709150">
        <ele>261.0</ele>
        <time>2022-11-06T06:47:32Z</time>
      </trkpt>
      <trkpt lat="39.6760670" lon="-0.4708900">
        <ele>261.4</ele>
        <time>2022-11-06T06:47:33Z</time>
      </trkpt>
      <trkpt lat="39.6761020" lon="-0.4708730">
        <ele>261.6</ele>
        <time>2022-11-06T06:47:34Z</time>
      </trkpt>
      <trkpt lat="39.6761320" lon="-0.4708580">
        <ele>261.8</ele>
        <time>2022-11-06T06:47:35Z</time>
      </trkpt>
      <trkpt lat="39.6761640" lon="-0.4708400">
        <ele>261.9</ele>
        <time>2022-11-06T06:47:36Z</time>
      </trkpt>
      <trkpt lat="39.6761930" lon="-0.4708230">
        <ele>262.1</ele>
        <time>2022-11-06T06:47:37Z</time>
      </trkpt>
      <trkpt lat="39.6762200" lon="-0.4708070">
        <ele>262.2</ele>
        <time>2022-11-06T06:47:38Z</time>
      </trkpt>
      <trkpt lat="39.6762550" lon="-0.4707930">
        <ele>262.4</ele>
        <time>2022-11-06T06:47:39Z</time>
      </trkpt>
      <trkpt lat="39.6762840" lon="-0.4707800">
        <ele>262.6</ele>
        <time>2022-11-06T06:47:40Z</time>
      </trkpt>
      <trkpt lat="39.6763110" lon="-0.4707700">
        <ele>262.7</ele>
        <time>2022-11-06T06:47:41Z</time>
      </trkpt>
      <trkpt lat="39.6763110" lon="-0.4707700">
        <ele>262.7</ele>
        <time>2022-11-06T06:47:42Z</time>
      </trkpt>
      <trkpt lat="39.6763110" lon="-0.4707700">
        <ele>262.7</ele>
        <time>2022-11-06T06:47:43Z</time>
      </trkpt>
      <trkpt lat="39.6763940" lon="-0.4707420">
        <ele>263.2</ele>
        <time>2022-11-06T06:47:44Z</time>
      </trkpt>
      <trkpt lat="39.6764270" lon="-0.4707400">
        <ele>263.3</ele>
        <time>2022-11-06T06:47:45Z</time>
      </trkpt>
      <trkpt lat="39.6764620" lon="-0.4707370">
        <ele>263.5</ele>
        <time>2022-11-06T06:47:46Z</time>
      </trkpt>
      <trkpt lat="39.6764990" lon="-0.4707320">
        <ele>263.7</ele>
        <time>2022-11-06T06:47:47Z</time>
      </trkpt>
      <trkpt lat="39.6765260" lon="-0.4707250">
        <ele>263.9</ele>
        <time>2022-11-06T06:47:48Z</time>
      </trkpt>
      <trkpt lat="39.6765610" lon="-0.4707130">
        <ele>264.1</ele>
        <time>2022-11-06T06:47:49Z</time>
      </trkpt>
      <trkpt lat="39.6765930" lon="-0.4707030">
        <ele>264.3</ele>
        <time>2022-11-06T06:47:50Z</time>
      </trkpt>
      <trkpt lat="39.6766200" lon="-0.4706880">
        <ele>264.5</ele>
        <time>2022-11-06T06:47:51Z</time>
      </trkpt>
      <trkpt lat="39.6766200" lon="-0.4706880">
        <ele>264.5</ele>
        <time>2022-11-06T06:47:52Z</time>
      </trkpt>
      <trkpt lat="39.6766570" lon="-0.4706520">
        <ele>264.8</ele>
        <time>2022-11-06T06:47:53Z</time>
      </trkpt>
      <trkpt lat="39.6766730" lon="-0.4706300">
        <ele>264.9</ele>
        <time>2022-11-06T06:47:54Z</time>
      </trkpt>
      <trkpt lat="39.6766840" lon="-0.4706020">
        <ele>265.1</ele>
        <time>2022-11-06T06:47:55Z</time>
      </trkpt>
      <trkpt lat="39.6766980" lon="-0.4705670">
        <ele>265.3</ele>
        <time>2022-11-06T06:47:56Z</time>
      </trkpt>
      <trkpt lat="39.6767000" lon="-0.4705350">
        <ele>265.5</ele>
        <time>2022-11-06T06:47:57Z</time>
      </trkpt>
      <trkpt lat="39.6767000" lon="-0.4705000">
        <ele>265.7</ele>
        <time>2022-11-06T06:47:58Z</time>
      </trkpt>
      <trkpt lat="39.6766980" lon="-0.4704680">
        <ele>265.9</ele>
        <time>2022-11-06T06:47:59Z</time>
      </trkpt>
      <trkpt lat="39.6766920" lon="-0.4704420">
        <ele>266.0</ele>
        <time>2022-11-06T06:48:00Z</time>
      </trkpt>
      <trkpt lat="39.6766810" lon="-0.4704150">
        <ele>266.2</ele>
        <time>2022-11-06T06:48:01Z</time>
      </trkpt>
      <trkpt lat="39.6766810" lon="-0.4703880">
        <ele>266.4</ele>
        <time>2022-11-06T06:48:02Z</time>
      </trkpt>
      <trkpt lat="39.6766810" lon="-0.4703880">
        <ele>266.4</ele>
        <time>2022-11-06T06:48:03Z</time>
      </trkpt>
      <trkpt lat="39.6766630" lon="-0.4703370">
        <ele>266.8</ele>
        <time>2022-11-06T06:48:04Z</time>
      </trkpt>
      <trkpt lat="39.6766520" lon="-0.4703130">
        <ele>267.0</ele>
        <time>2022-11-06T06:48:05Z</time>
      </trkpt>
      <trkpt lat="39.6766440" lon="-0.4702820">
        <ele>267.2</ele>
        <time>2022-11-06T06:48:06Z</time>
      </trkpt>
      <trkpt lat="39.6766360" lon="-0.4702500">
        <ele>267.5</ele>
        <time>2022-11-06T06:48:07Z</time>
      </trkpt>
      <trkpt lat="39.6766200" lon="-0.4702180">
        <ele>267.7</ele>
        <time>2022-11-06T06:48:08Z</time>
      </trkpt>
      <trkpt lat="39.6766120" lon="-0.4701820">
        <ele>268.0</ele>
        <time>2022-11-06T06:48:09Z</time>
      </trkpt>
      <trkpt lat="39.6766060" lon="-0.4701470">
        <ele>268.2</ele>
        <time>2022-11-06T06:48:10Z</time>
      </trkpt>
      <trkpt lat="39.6765930" lon="-0.4701150">
        <ele>268.4</ele>
        <time>2022-11-06T06:48:11Z</time>
      </trkpt>
      <trkpt lat="39.6765820" lon="-0.4700850">
        <ele>268.6</ele>
        <time>2022-11-06T06:48:12Z</time>
      </trkpt>
      <trkpt lat="39.6765820" lon="-0.4700850">
        <ele>268.6</ele>
        <time>2022-11-06T06:48:13Z</time>
      </trkpt>
      <trkpt lat="39.6765610" lon="-0.4700220">
        <ele>269.0</ele>
        <time>2022-11-06T06:48:14Z</time>
      </trkpt>
      <trkpt lat="39.6765450" lon="-0.4699880">
        <ele>269.2</ele>
        <time>2022-11-06T06:48:15Z</time>
      </trkpt>
      <trkpt lat="39.6765340" lon="-0.4699530">
        <ele>269.4</ele>
        <time>2022-11-06T06:48:16Z</time>
      </trkpt>
      <trkpt lat="39.6765180" lon="-0.4699200">
        <ele>269.6</ele>
        <time>2022-11-06T06:48:17Z</time>
      </trkpt>
      <trkpt lat="39.6765020" lon="-0.4698850">
        <ele>269.8</ele>
        <time>2022-11-06T06:48:18Z</time>
      </trkpt>
      <trkpt lat="39.6764910" lon="-0.4698500">
        <ele>270.0</ele>
        <time>2022-11-06T06:48:19Z</time>
      </trkpt>
      <trkpt lat="39.6764800" lon="-0.4698180">
        <ele>270.2</ele>
        <time>2022-11-06T06:48:20Z</time>
      </trkpt>
      <trkpt lat="39.6764640" lon="-0.4697880">
        <ele>270.4</ele>
        <time>2022-11-06T06:48:21Z</time>
      </trkpt>
      <trkpt lat="39.6764530" lon="-0.4697580">
        <ele>270.6</ele>
        <time>2022-11-06T06:48:22Z</time>
      </trkpt>
      <trkpt lat="39.6764530" lon="-0.4697580">
        <ele>270.6</ele>
        <time>2022-11-06T06:48:23Z</time>
      </trkpt>
      <trkpt lat="39.6764530" lon="-0.4697580">
        <ele>270.6</ele>
        <time>2022-11-06T06:48:24Z</time>
      </trkpt>
      <trkpt lat="39.6764190" lon="-0.4696600">
        <ele>271.2</ele>
        <time>2022-11-06T06:48:25Z</time>
      </trkpt>
      <trkpt lat="39.6764110" lon="-0.4696320">
        <ele>271.4</ele>
        <time>2022-11-06T06:48:26Z</time>
      </trkpt>
      <trkpt lat="39.6764000" lon="-0.4696020">
        <ele>271.5</ele>
        <time>2022-11-06T06:48:27Z</time>
      </trkpt>
      <trkpt lat="39.6763920" lon="-0.4695670">
        <ele>271.7</ele>
        <time>2022-11-06T06:48:28Z</time>
      </trkpt>
      <trkpt lat="39.6763760" lon="-0.4695320">
        <ele>271.9</ele>
        <time>2022-11-06T06:48:29Z</time>
      </trkpt>
      <trkpt lat="39.6763650" lon="-0.4694930">
        <ele>272.1</ele>
        <time>2022-11-06T06:48:30Z</time>
      </trkpt>
      <trkpt lat="39.6763540" lon="-0.4694530">
        <ele>272.3</ele>
        <time>2022-11-06T06:48:31Z</time>
      </trkpt>
      <trkpt lat="39.6763460" lon="-0.4694130">
        <ele>272.5</ele>
        <time>2022-11-06T06:48:32Z</time>
      </trkpt>
      <trkpt lat="39.6763460" lon="-0.4694130">
        <ele>272.5</ele>
        <time>2022-11-06T06:48:33Z</time>
      </trkpt>
      <trkpt lat="39.6763460" lon="-0.4694130">
        <ele>272.5</ele>
        <time>2022-11-06T06:48:34Z</time>
      </trkpt>
      <trkpt lat="39.6763140" lon="-0.4692970">
        <ele>272.9</ele>
        <time>2022-11-06T06:48:35Z</time>
      </trkpt>
      <trkpt lat="39.6763090" lon="-0.4692570">
        <ele>273.1</ele>
        <time>2022-11-06T06:48:36Z</time>
      </trkpt>
      <trkpt lat="39.6762950" lon="-0.4692170">
        <ele>273.2</ele>
        <time>2022-11-06T06:48:37Z</time>
      </trkpt>
      <trkpt lat="39.6762840" lon="-0.4691800">
        <ele>273.3</ele>
        <time>2022-11-06T06:48:38Z</time>
      </trkpt>
      <trkpt lat="39.6762740" lon="-0.4691450">
        <ele>273.4</ele>
        <time>2022-11-06T06:48:39Z</time>
      </trkpt>
      <trkpt lat="39.6762660" lon="-0.4691070">
        <ele>273.6</ele>
        <time>2022-11-06T06:48:40Z</time>
      </trkpt>
      <trkpt lat="39.6762550" lon="-0.4690680">
        <ele>273.6</ele>
        <time>2022-11-06T06:48:41Z</time>
      </trkpt>
      <trkpt lat="39.6762470" lon="-0.4690300">
        <ele>273.7</ele>
        <time>2022-11-06T06:48:42Z</time>
      </trkpt>
      <trkpt lat="39.6762360" lon="-0.4689900">
        <ele>273.8</ele>
        <time>2022-11-06T06:48:43Z</time>
      </trkpt>
      <trkpt lat="39.6762360" lon="-0.4689900">
        <ele>273.8</ele>
        <time>2022-11-06T06:48:44Z</time>
      </trkpt>
      <trkpt lat="39.6762170" lon="-0.4689200">
        <ele>274.0</ele>
        <time>2022-11-06T06:48:45Z</time>
      </trkpt>
      <trkpt lat="39.6762040" lon="-0.4688830">
        <ele>274.1</ele>
        <time>2022-11-06T06:48:46Z</time>
      </trkpt>
      <trkpt lat="39.6761930" lon="-0.4688480">
        <ele>274.2</ele>
        <time>2022-11-06T06:48:47Z</time>
      </trkpt>
      <trkpt lat="39.6761850" lon="-0.4688150">
        <ele>274.3</ele>
        <time>2022-11-06T06:48:48Z</time>
      </trkpt>
      <trkpt lat="39.6761750" lon="-0.4687830">
        <ele>274.4</ele>
        <time>2022-11-06T06:48:49Z</time>
      </trkpt>
      <trkpt lat="39.6761660" lon="-0.4687470">
        <ele>274.4</ele>
        <time>2022-11-06T06:48:50Z</time>
      </trkpt>
      <trkpt lat="39.6761560" lon="-0.4687050">
        <ele>274.6</ele>
        <time>2022-11-06T06:48:51Z</time>
      </trkpt>
      <trkpt lat="39.6761480" lon="-0.4686670">
        <ele>274.7</ele>
        <time>2022-11-06T06:48:52Z</time>
      </trkpt>
      <trkpt lat="39.6761370" lon="-0.4686300">
        <ele>274.8</ele>
        <time>2022-11-06T06:48:53Z</time>
      </trkpt>
      <trkpt lat="39.6761370" lon="-0.4686300">
        <ele>274.8</ele>
        <time>2022-11-06T06:48:54Z</time>
      </trkpt>
      <trkpt lat="39.6761100" lon="-0.4685630">
        <ele>275.0</ele>
        <time>2022-11-06T06:48:55Z</time>
      </trkpt>
      <trkpt lat="39.6760910" lon="-0.4685380">
        <ele>275.2</ele>
        <time>2022-11-06T06:48:56Z</time>
      </trkpt>
      <trkpt lat="39.6760780" lon="-0.4685130">
        <ele>275.3</ele>
        <time>2022-11-06T06:48:57Z</time>
      </trkpt>
      <trkpt lat="39.6760650" lon="-0.4684900">
        <ele>275.4</ele>
        <time>2022-11-06T06:48:58Z</time>
      </trkpt>
      <trkpt lat="39.6760480" lon="-0.4684700">
        <ele>275.6</ele>
        <time>2022-11-06T06:48:59Z</time>
      </trkpt>
      <trkpt lat="39.6760380" lon="-0.4684450">
        <ele>275.7</ele>
        <time>2022-11-06T06:49:00Z</time>
      </trkpt>
      <trkpt lat="39.6760190" lon="-0.4684230">
        <ele>275.9</ele>
        <time>2022-11-06T06:49:01Z</time>
      </trkpt>
      <trkpt lat="39.6760060" lon="-0.4684000">
        <ele>276.1</ele>
        <time>2022-11-06T06:49:02Z</time>
      </trkpt>
      <trkpt lat="39.6759920" lon="-0.4683750">
        <ele>276.3</ele>
        <time>2022-11-06T06:49:03Z</time>
      </trkpt>
      <trkpt lat="39.6759760" lon="-0.4683520">
        <ele>276.5</ele>
        <time>2022-11-06T06:49:04Z</time>
      </trkpt>
      <trkpt lat="39.6759760" lon="-0.4683520">
        <ele>276.5</ele>
        <time>2022-11-06T06:49:05Z</time>
      </trkpt>
      <trkpt lat="39.6759520" lon="-0.4682900">
        <ele>277.0</ele>
        <time>2022-11-06T06:49:06Z</time>
      </trkpt>
      <trkpt lat="39.6759410" lon="-0.4682620">
        <ele>277.2</ele>
        <time>2022-11-06T06:49:07Z</time>
      </trkpt>
      <trkpt lat="39.6759330" lon="-0.4682320">
        <ele>277.4</ele>
        <time>2022-11-06T06:49:08Z</time>
      </trkpt>
      <trkpt lat="39.6759300" lon="-0.4681980">
        <ele>277.6</ele>
        <time>2022-11-06T06:49:09Z</time>
      </trkpt>
      <trkpt lat="39.6759220" lon="-0.4681670">
        <ele>277.9</ele>
        <time>2022-11-06T06:49:10Z</time>
      </trkpt>
      <trkpt lat="39.6759140" lon="-0.4681370">
        <ele>278.1</ele>
        <time>2022-11-06T06:49:11Z</time>
      </trkpt>
      <trkpt lat="39.6759060" lon="-0.4681000">
        <ele>278.3</ele>
        <time>2022-11-06T06:49:12Z</time>
      </trkpt>
      <trkpt lat="39.6758930" lon="-0.4680680">
        <ele>278.5</ele>
        <time>2022-11-06T06:49:13Z</time>
      </trkpt>
      <trkpt lat="39.6758930" lon="-0.4680680">
        <ele>278.5</ele>
        <time>2022-11-06T06:49:14Z</time>
      </trkpt>
      <trkpt lat="39.6758930" lon="-0.4680680">
        <ele>278.5</ele>
        <time>2022-11-06T06:49:15Z</time>
      </trkpt>
      <trkpt lat="39.6758500" lon="-0.4679870">
        <ele>279.1</ele>
        <time>2022-11-06T06:49:16Z</time>
      </trkpt>
      <trkpt lat="39.6758390" lon="-0.4679580">
        <ele>279.3</ele>
        <time>2022-11-06T06:49:17Z</time>
      </trkpt>
      <trkpt lat="39.6758310" lon="-0.4679130">
        <ele>279.5</ele>
        <time>2022-11-06T06:49:18Z</time>
      </trkpt>
      <trkpt lat="39.6758200" lon="-0.4678830">
        <ele>279.6</ele>
        <time>2022-11-06T06:49:19Z</time>
      </trkpt>
      <trkpt lat="39.6758040" lon="-0.4678500">
        <ele>279.8</ele>
        <time>2022-11-06T06:49:20Z</time>
      </trkpt>
      <trkpt lat="39.6757940" lon="-0.4678150">
        <ele>280.0</ele>
        <time>2022-11-06T06:49:21Z</time>
      </trkpt>
      <trkpt lat="39.6757860" lon="-0.4677830">
        <ele>280.1</ele>
        <time>2022-11-06T06:49:22Z</time>
      </trkpt>
      <trkpt lat="39.6757700" lon="-0.4677450">
        <ele>280.3</ele>
        <time>2022-11-06T06:49:23Z</time>
      </trkpt>
      <trkpt lat="39.6757530" lon="-0.4677100">
        <ele>280.5</ele>
        <time>2022-11-06T06:49:24Z</time>
      </trkpt>
      <trkpt lat="39.6757530" lon="-0.4677100">
        <ele>280.5</ele>
        <time>2022-11-06T06:49:25Z</time>
      </trkpt>
      <trkpt lat="39.6757530" lon="-0.4677100">
        <ele>280.5</ele>
        <time>2022-11-06T06:49:26Z</time>
      </trkpt>
      <trkpt lat="39.6757210" lon="-0.4675980">
        <ele>281.0</ele>
        <time>2022-11-06T06:49:27Z</time>
      </trkpt>
      <trkpt lat="39.6757080" lon="-0.4675670">
        <ele>281.1</ele>
        <time>2022-11-06T06:49:28Z</time>
      </trkpt>
      <trkpt lat="39.6756970" lon="-0.4675400">
        <ele>281.2</ele>
        <time>2022-11-06T06:49:29Z</time>
      </trkpt>
      <trkpt lat="39.6756890" lon="-0.4674950">
        <ele>281.4</ele>
        <time>2022-11-06T06:49:30Z</time>
      </trkpt>
      <trkpt lat="39.6756760" lon="-0.4674620">
        <ele>281.6</ele>
        <time>2022-11-06T06:49:31Z</time>
      </trkpt>
      <trkpt lat="39.6756600" lon="-0.4674250">
        <ele>281.7</ele>
        <time>2022-11-06T06:49:32Z</time>
      </trkpt>
      <trkpt lat="39.6756430" lon="-0.4673900">
        <ele>281.9</ele>
        <time>2022-11-06T06:49:33Z</time>
      </trkpt>
      <trkpt lat="39.6756350" lon="-0.4673520">
        <ele>282.1</ele>
        <time>2022-11-06T06:49:34Z</time>
      </trkpt>
      <trkpt lat="39.6756350" lon="-0.4673520">
        <ele>282.1</ele>
        <time>2022-11-06T06:49:35Z</time>
      </trkpt>
      <trkpt lat="39.6756140" lon="-0.4672820">
        <ele>282.4</ele>
        <time>2022-11-06T06:49:36Z</time>
      </trkpt>
      <trkpt lat="39.6756030" lon="-0.4672500">
        <ele>282.6</ele>
        <time>2022-11-06T06:49:37Z</time>
      </trkpt>
      <trkpt lat="39.6755950" lon="-0.4672220">
        <ele>282.7</ele>
        <time>2022-11-06T06:49:38Z</time>
      </trkpt>
      <trkpt lat="39.6755900" lon="-0.4671950">
        <ele>282.9</ele>
        <time>2022-11-06T06:49:39Z</time>
      </trkpt>
      <trkpt lat="39.6755870" lon="-0.4671680">
        <ele>283.0</ele>
        <time>2022-11-06T06:49:40Z</time>
      </trkpt>
      <trkpt lat="39.6755820" lon="-0.4671300">
        <ele>283.3</ele>
        <time>2022-11-06T06:49:41Z</time>
      </trkpt>
      <trkpt lat="39.6755790" lon="-0.4671020">
        <ele>283.4</ele>
        <time>2022-11-06T06:49:42Z</time>
      </trkpt>
      <trkpt lat="39.6755760" lon="-0.4670730">
        <ele>283.6</ele>
        <time>2022-11-06T06:49:43Z</time>
      </trkpt>
      <trkpt lat="39.6755760" lon="-0.4670470">
        <ele>283.7</ele>
        <time>2022-11-06T06:49:44Z</time>
      </trkpt>
      <trkpt lat="39.6755790" lon="-0.4670200">
        <ele>283.8</ele>
        <time>2022-11-06T06:49:45Z</time>
      </trkpt>
      <trkpt lat="39.6755790" lon="-0.4670200">
        <ele>283.8</ele>
        <time>2022-11-06T06:49:46Z</time>
      </trkpt>
      <trkpt lat="39.6755790" lon="-0.4669630">
        <ele>284.1</ele>
        <time>2022-11-06T06:49:47Z</time>
      </trkpt>
      <trkpt lat="39.6755760" lon="-0.4669370">
        <ele>284.3</ele>
        <time>2022-11-06T06:49:48Z</time>
      </trkpt>
      <trkpt lat="39.6755760" lon="-0.4669100">
        <ele>284.4</ele>
        <time>2022-11-06T06:49:49Z</time>
      </trkpt>
      <trkpt lat="39.6755760" lon="-0.4668850">
        <ele>284.6</ele>
        <time>2022-11-06T06:49:50Z</time>
      </trkpt>
      <trkpt lat="39.6755760" lon="-0.4668550">
        <ele>284.7</ele>
        <time>2022-11-06T06:49:51Z</time>
      </trkpt>
      <trkpt lat="39.6755760" lon="-0.4668320">
        <ele>284.9</ele>
        <time>2022-11-06T06:49:52Z</time>
      </trkpt>
      <trkpt lat="39.6755760" lon="-0.4668050">
        <ele>285.0</ele>
        <time>2022-11-06T06:49:53Z</time>
      </trkpt>
      <trkpt lat="39.6755760" lon="-0.4667770">
        <ele>285.2</ele>
        <time>2022-11-06T06:49:54Z</time>
      </trkpt>
      <trkpt lat="39.6755760" lon="-0.4667770">
        <ele>285.2</ele>
        <time>2022-11-06T06:49:55Z</time>
      </trkpt>
      <trkpt lat="39.6755760" lon="-0.4667770">
        <ele>285.2</ele>
        <time>2022-11-06T06:49:56Z</time>
      </trkpt>
      <trkpt lat="39.6755790" lon="-0.4666870">
        <ele>285.7</ele>
        <time>2022-11-06T06:49:57Z</time>
      </trkpt>
      <trkpt lat="39.6755820" lon="-0.4666600">
        <ele>285.9</ele>
        <time>2022-11-06T06:49:58Z</time>
      </trkpt>
      <trkpt lat="39.6755870" lon="-0.4666300">
        <ele>286.0</ele>
        <time>2022-11-06T06:49:59Z</time>
      </trkpt>
      <trkpt lat="39.6755870" lon="-0.4666000">
        <ele>286.2</ele>
        <time>2022-11-06T06:50:00Z</time>
      </trkpt>
      <trkpt lat="39.6755900" lon="-0.4665720">
        <ele>286.4</ele>
        <time>2022-11-06T06:50:01Z</time>
      </trkpt>
      <trkpt lat="39.6755950" lon="-0.4665430">
        <ele>286.6</ele>
        <time>2022-11-06T06:50:02Z</time>
      </trkpt>
      <trkpt lat="39.6755980" lon="-0.4665120">
        <ele>286.9</ele>
        <time>2022-11-06T06:50:03Z</time>
      </trkpt>
      <trkpt lat="39.6756030" lon="-0.4664780">
        <ele>287.1</ele>
        <time>2022-11-06T06:50:04Z</time>
      </trkpt>
      <trkpt lat="39.6756030" lon="-0.4664480">
        <ele>287.4</ele>
        <time>2022-11-06T06:50:05Z</time>
      </trkpt>
      <trkpt lat="39.6756030" lon="-0.4664480">
        <ele>287.4</ele>
        <time>2022-11-06T06:50:06Z</time>
      </trkpt>
      <trkpt lat="39.6756030" lon="-0.4664480">
        <ele>287.4</ele>
        <time>2022-11-06T06:50:07Z</time>
      </trkpt>
      <trkpt lat="39.6755980" lon="-0.4663650">
        <ele>288.0</ele>
        <time>2022-11-06T06:50:08Z</time>
      </trkpt>
      <trkpt lat="39.6756030" lon="-0.4663370">
        <ele>288.3</ele>
        <time>2022-11-06T06:50:09Z</time>
      </trkpt>
      <trkpt lat="39.6756030" lon="-0.4663080">
        <ele>288.6</ele>
        <time>2022-11-06T06:50:10Z</time>
      </trkpt>
      <trkpt lat="39.6755980" lon="-0.4662800">
        <ele>288.8</ele>
        <time>2022-11-06T06:50:11Z</time>
      </trkpt>
      <trkpt lat="39.6756030" lon="-0.4662520">
        <ele>289.1</ele>
        <time>2022-11-06T06:50:12Z</time>
      </trkpt>
      <trkpt lat="39.6756030" lon="-0.4662230">
        <ele>289.3</ele>
        <time>2022-11-06T06:50:13Z</time>
      </trkpt>
      <trkpt lat="39.6756030" lon="-0.4661930">
        <ele>289.6</ele>
        <time>2022-11-06T06:50:14Z</time>
      </trkpt>
      <trkpt lat="39.6756060" lon="-0.4661670">
        <ele>289.8</ele>
        <time>2022-11-06T06:50:15Z</time>
      </trkpt>
      <trkpt lat="39.6756060" lon="-0.4661670">
        <ele>289.8</ele>
        <time>2022-11-06T06:50:16Z</time>
      </trkpt>
      <trkpt lat="39.6756090" lon="-0.4661150">
        <ele>290.3</ele>
        <time>2022-11-06T06:50:17Z</time>
      </trkpt>
      <trkpt lat="39.6756090" lon="-0.4660900">
        <ele>290.5</ele>
        <time>2022-11-06T06:50:18Z</time>
      </trkpt>
      <trkpt lat="39.6756090" lon="-0.4660630">
        <ele>290.8</ele>
        <time>2022-11-06T06:50:19Z</time>
      </trkpt>
      <trkpt lat="39.6756090" lon="-0.4660380">
        <ele>291.0</ele>
        <time>2022-11-06T06:50:20Z</time>
      </trkpt>
      <trkpt lat="39.6756060" lon="-0.4660120">
        <ele>291.2</ele>
        <time>2022-11-06T06:50:21Z</time>
      </trkpt>
      <trkpt lat="39.6756060" lon="-0.4659870">
        <ele>291.4</ele>
        <time>2022-11-06T06:50:22Z</time>
      </trkpt>
      <trkpt lat="39.6756060" lon="-0.4659620">
        <ele>291.7</ele>
        <time>2022-11-06T06:50:23Z</time>
      </trkpt>
      <trkpt lat="39.6756060" lon="-0.4659420">
        <ele>291.8</ele>
        <time>2022-11-06T06:50:24Z</time>
      </trkpt>
      <trkpt lat="39.6756090" lon="-0.4659200">
        <ele>292.0</ele>
        <time>2022-11-06T06:50:25Z</time>
      </trkpt>
      <trkpt lat="39.6756060" lon="-0.4658980">
        <ele>292.2</ele>
        <time>2022-11-06T06:50:26Z</time>
      </trkpt>
      <trkpt lat="39.6756060" lon="-0.4658980">
        <ele>292.2</ele>
        <time>2022-11-06T06:50:27Z</time>
      </trkpt>
      <trkpt lat="39.6756090" lon="-0.4658500">
        <ele>292.6</ele>
        <time>2022-11-06T06:50:28Z</time>
      </trkpt>
      <trkpt lat="39.6756140" lon="-0.4658230">
        <ele>292.8</ele>
        <time>2022-11-06T06:50:29Z</time>
      </trkpt>
      <trkpt lat="39.6756140" lon="-0.4657980">
        <ele>293.0</ele>
        <time>2022-11-06T06:50:30Z</time>
      </trkpt>
      <trkpt lat="39.6756170" lon="-0.4657730">
        <ele>293.2</ele>
        <time>2022-11-06T06:50:31Z</time>
      </trkpt>
      <trkpt lat="39.6756170" lon="-0.4657480">
        <ele>293.4</ele>
        <time>2022-11-06T06:50:32Z</time>
      </trkpt>
      <trkpt lat="39.6756170" lon="-0.4657220">
        <ele>293.6</ele>
        <time>2022-11-06T06:50:33Z</time>
      </trkpt>
      <trkpt lat="39.6756170" lon="-0.4656970">
        <ele>293.8</ele>
        <time>2022-11-06T06:50:34Z</time>
      </trkpt>
      <trkpt lat="39.6756170" lon="-0.4656720">
        <ele>294.0</ele>
        <time>2022-11-06T06:50:35Z</time>
      </trkpt>
      <trkpt lat="39.6756140" lon="-0.4656470">
        <ele>294.2</ele>
        <time>2022-11-06T06:50:36Z</time>
      </trkpt>
      <trkpt lat="39.6756140" lon="-0.4656470">
        <ele>294.2</ele>
        <time>2022-11-06T06:50:37Z</time>
      </trkpt>
      <trkpt lat="39.6756170" lon="-0.4656000">
        <ele>294.5</ele>
        <time>2022-11-06T06:50:38Z</time>
      </trkpt>
      <trkpt lat="39.6756220" lon="-0.4655780">
        <ele>294.6</ele>
        <time>2022-11-06T06:50:39Z</time>
      </trkpt>
      <trkpt lat="39.6756170" lon="-0.4655570">
        <ele>294.8</ele>
        <time>2022-11-06T06:50:40Z</time>
      </trkpt>
      <trkpt lat="39.6756220" lon="-0.4655350">
        <ele>295.0</ele>
        <time>2022-11-06T06:50:41Z</time>
      </trkpt>
      <trkpt lat="39.6756250" lon="-0.4655170">
        <ele>295.1</ele>
        <time>2022-11-06T06:50:42Z</time>
      </trkpt>
      <trkpt lat="39.6756270" lon="-0.4654920">
        <ele>295.3</ele>
        <time>2022-11-06T06:50:43Z</time>
      </trkpt>
      <trkpt lat="39.6756250" lon="-0.4654670">
        <ele>295.4</ele>
        <time>2022-11-06T06:50:44Z</time>
      </trkpt>
      <trkpt lat="39.6756270" lon="-0.4654430">
        <ele>295.6</ele>
        <time>2022-11-06T06:50:45Z</time>
      </trkpt>
      <trkpt lat="39.6756330" lon="-0.4654170">
        <ele>295.8</ele>
        <time>2022-11-06T06:50:46Z</time>
      </trkpt>
      <trkpt lat="39.6756330" lon="-0.4654170">
        <ele>295.8</ele>
        <time>2022-11-06T06:50:47Z</time>
      </trkpt>
      <trkpt lat="39.6756330" lon="-0.4654170">
        <ele>295.8</ele>
        <time>2022-11-06T06:50:48Z</time>
      </trkpt>
      <trkpt lat="39.6756410" lon="-0.4653320">
        <ele>296.3</ele>
        <time>2022-11-06T06:50:49Z</time>
      </trkpt>
      <trkpt lat="39.6756410" lon="-0.4653080">
        <ele>296.4</ele>
        <time>2022-11-06T06:50:50Z</time>
      </trkpt>
      <trkpt lat="39.6756430" lon="-0.4652830">
        <ele>296.5</ele>
        <time>2022-11-06T06:50:51Z</time>
      </trkpt>
      <trkpt lat="39.6756490" lon="-0.4652600">
        <ele>296.7</ele>
        <time>2022-11-06T06:50:52Z</time>
      </trkpt>
      <trkpt lat="39.6756510" lon="-0.4652350">
        <ele>296.8</ele>
        <time>2022-11-06T06:50:53Z</time>
      </trkpt>
      <trkpt lat="39.6756540" lon="-0.4652130">
        <ele>296.9</ele>
        <time>2022-11-06T06:50:54Z</time>
      </trkpt>
      <trkpt lat="39.6756620" lon="-0.4651900">
        <ele>297.0</ele>
        <time>2022-11-06T06:50:55Z</time>
      </trkpt>
      <trkpt lat="39.6756700" lon="-0.4651670">
        <ele>297.1</ele>
        <time>2022-11-06T06:50:56Z</time>
      </trkpt>
      <trkpt lat="39.6756700" lon="-0.4651670">
        <ele>297.1</ele>
        <time>2022-11-06T06:50:57Z</time>
      </trkpt>
      <trkpt lat="39.6756700" lon="-0.4651670">
        <ele>297.1</ele>
        <time>2022-11-06T06:50:58Z</time>
      </trkpt>
      <trkpt lat="39.6756970" lon="-0.4650920">
        <ele>297.3</ele>
        <time>2022-11-06T06:50:59Z</time>
      </trkpt>
      <trkpt lat="39.6757130" lon="-0.4650630">
        <ele>297.4</ele>
        <time>2022-11-06T06:51:00Z</time>
      </trkpt>
      <trkpt lat="39.6757270" lon="-0.4650320">
        <ele>297.4</ele>
        <time>2022-11-06T06:51:01Z</time>
      </trkpt>
      <trkpt lat="39.6757430" lon="-0.4650000">
        <ele>297.5</ele>
        <time>2022-11-06T06:51:02Z</time>
      </trkpt>
      <trkpt lat="39.6757670" lon="-0.4649680">
        <ele>297.5</ele>
        <time>2022-11-06T06:51:03Z</time>
      </trkpt>
      <trkpt lat="39.6757880" lon="-0.4649420">
        <ele>297.6</ele>
        <time>2022-11-06T06:51:04Z</time>
      </trkpt>
      <trkpt lat="39.6758120" lon="-0.4649180">
        <ele>297.6</ele>
        <time>2022-11-06T06:51:05Z</time>
      </trkpt>
      <trkpt lat="39.6758390" lon="-0.4648980">
        <ele>297.6</ele>
        <time>2022-11-06T06:51:06Z</time>
      </trkpt>
      <trkpt lat="39.6758660" lon="-0.4648820">
        <ele>297.6</ele>
        <time>2022-11-06T06:51:07Z</time>
      </trkpt>
      <trkpt lat="39.6758660" lon="-0.4648820">
        <ele>297.6</ele>
        <time>2022-11-06T06:51:08Z</time>
      </trkpt>
      <trkpt lat="39.6759300" lon="-0.4648570">
        <ele>297.7</ele>
        <time>2022-11-06T06:51:09Z</time>
      </trkpt>
      <trkpt lat="39.6759600" lon="-0.4648430">
        <ele>297.7</ele>
        <time>2022-11-06T06:51:10Z</time>
      </trkpt>
      <trkpt lat="39.6759950" lon="-0.4648330">
        <ele>297.7</ele>
        <time>2022-11-06T06:51:11Z</time>
      </trkpt>
      <trkpt lat="39.6760240" lon="-0.4648220">
        <ele>297.7</ele>
        <time>2022-11-06T06:51:12Z</time>
      </trkpt>
      <trkpt lat="39.6760590" lon="-0.4648100">
        <ele>297.8</ele>
        <time>2022-11-06T06:51:13Z</time>
      </trkpt>
      <trkpt lat="39.6760910" lon="-0.4648000">
        <ele>297.8</ele>
        <time>2022-11-06T06:51:14Z</time>
      </trkpt>
      <trkpt lat="39.6761210" lon="-0.4647900">
        <ele>297.8</ele>
        <time>2022-11-06T06:51:15Z</time>
      </trkpt>
      <trkpt lat="39.6761500" lon="-0.4647770">
        <ele>297.9</ele>
        <time>2022-11-06T06:51:16Z</time>
      </trkpt>
      <trkpt lat="39.6761830" lon="-0.4647630">
        <ele>298.0</ele>
        <time>2022-11-06T06:51:17Z</time>
      </trkpt>
      <trkpt lat="39.6761830" lon="-0.4647630">
        <ele>298.0</ele>
        <time>2022-11-06T06:51:18Z</time>
      </trkpt>
      <trkpt lat="39.6762420" lon="-0.4647400">
        <ele>298.1</ele>
        <time>2022-11-06T06:51:19Z</time>
      </trkpt>
      <trkpt lat="39.6762740" lon="-0.4647320">
        <ele>298.2</ele>
        <time>2022-11-06T06:51:20Z</time>
      </trkpt>
      <trkpt lat="39.6763030" lon="-0.4647200">
        <ele>298.3</ele>
        <time>2022-11-06T06:51:21Z</time>
      </trkpt>
      <trkpt lat="39.6763300" lon="-0.4647050">
        <ele>298.4</ele>
        <time>2022-11-06T06:51:22Z</time>
      </trkpt>
      <trkpt lat="39.6763570" lon="-0.4646980">
        <ele>298.5</ele>
        <time>2022-11-06T06:51:23Z</time>
      </trkpt>
      <trkpt lat="39.6763890" lon="-0.4646920">
        <ele>298.6</ele>
        <time>2022-11-06T06:51:24Z</time>
      </trkpt>
      <trkpt lat="39.6764130" lon="-0.4646820">
        <ele>298.7</ele>
        <time>2022-11-06T06:51:25Z</time>
      </trkpt>
      <trkpt lat="39.6764400" lon="-0.4646750">
        <ele>298.8</ele>
        <time>2022-11-06T06:51:26Z</time>
      </trkpt>
      <trkpt lat="39.6764670" lon="-0.4646670">
        <ele>299.0</ele>
        <time>2022-11-06T06:51:27Z</time>
      </trkpt>
      <trkpt lat="39.6764940" lon="-0.4646600">
        <ele>299.1</ele>
        <time>2022-11-06T06:51:28Z</time>
      </trkpt>
      <trkpt lat="39.6764940" lon="-0.4646600">
        <ele>299.1</ele>
        <time>2022-11-06T06:51:29Z</time>
      </trkpt>
      <trkpt lat="39.6765530" lon="-0.4646420">
        <ele>299.3</ele>
        <time>2022-11-06T06:51:30Z</time>
      </trkpt>
      <trkpt lat="39.6765800" lon="-0.4646320">
        <ele>299.5</ele>
        <time>2022-11-06T06:51:31Z</time>
      </trkpt>
      <trkpt lat="39.6766060" lon="-0.4646200">
        <ele>299.6</ele>
        <time>2022-11-06T06:51:32Z</time>
      </trkpt>
      <trkpt lat="39.6766360" lon="-0.4646070">
        <ele>299.7</ele>
        <time>2022-11-06T06:51:33Z</time>
      </trkpt>
      <trkpt lat="39.6766650" lon="-0.4645920">
        <ele>299.7</ele>
        <time>2022-11-06T06:51:34Z</time>
      </trkpt>
      <trkpt lat="39.6766980" lon="-0.4645800">
        <ele>299.8</ele>
        <time>2022-11-06T06:51:35Z</time>
      </trkpt>
      <trkpt lat="39.6767270" lon="-0.4645670">
        <ele>299.9</ele>
        <time>2022-11-06T06:51:36Z</time>
      </trkpt>
      <trkpt lat="39.6767620" lon="-0.4645550">
        <ele>299.9</ele>
        <time>2022-11-06T06:51:37Z</time>
      </trkpt>
      <trkpt lat="39.6767620" lon="-0.4645550">
        <ele>299.9</ele>
        <time>2022-11-06T06:51:38Z</time>
      </trkpt>
      <trkpt lat="39.6767620" lon="-0.4645550">
        <ele>299.9</ele>
        <time>2022-11-06T06:51:39Z</time>
      </trkpt>
      <trkpt lat="39.6768610" lon="-0.4645380">
        <ele>300.1</ele>
        <time>2022-11-06T06:51:40Z</time>
      </trkpt>
      <trkpt lat="39.6768960" lon="-0.4645330">
        <ele>300.1</ele>
        <time>2022-11-06T06:51:41Z</time>
      </trkpt>
      <trkpt lat="39.6769260" lon="-0.4645300">
        <ele>300.1</ele>
        <time>2022-11-06T06:51:42Z</time>
      </trkpt>
      <trkpt lat="39.6769600" lon="-0.4645230">
        <ele>300.2</ele>
        <time>2022-11-06T06:51:43Z</time>
      </trkpt>
      <trkpt lat="39.6769870" lon="-0.4645170">
        <ele>300.2</ele>
        <time>2022-11-06T06:51:44Z</time>
      </trkpt>
      <trkpt lat="39.6770170" lon="-0.4645080">
        <ele>300.2</ele>
        <time>2022-11-06T06:51:45Z</time>
      </trkpt>
      <trkpt lat="39.6770490" lon="-0.4644930">
        <ele>300.2</ele>
        <time>2022-11-06T06:51:46Z</time>
      </trkpt>
      <trkpt lat="39.6770760" lon="-0.4644750">
        <ele>300.3</ele>
        <time>2022-11-06T06:51:47Z</time>
      </trkpt>
      <trkpt lat="39.6771050" lon="-0.4644470">
        <ele>300.3</ele>
        <time>2022-11-06T06:51:48Z</time>
      </trkpt>
      <trkpt lat="39.6771050" lon="-0.4644470">
        <ele>300.3</ele>
        <time>2022-11-06T06:51:49Z</time>
      </trkpt>
      <trkpt lat="39.6771590" lon="-0.4643750">
        <ele>300.3</ele>
        <time>2022-11-06T06:51:50Z</time>
      </trkpt>
      <trkpt lat="39.6771800" lon="-0.4643350">
        <ele>300.2</ele>
        <time>2022-11-06T06:51:51Z</time>
      </trkpt>
      <trkpt lat="39.6772130" lon="-0.4642880">
        <ele>300.2</ele>
        <time>2022-11-06T06:51:52Z</time>
      </trkpt>
      <trkpt lat="39.6772340" lon="-0.4642450">
        <ele>300.2</ele>
        <time>2022-11-06T06:51:53Z</time>
      </trkpt>
      <trkpt lat="39.6772470" lon="-0.4641970">
        <ele>300.2</ele>
        <time>2022-11-06T06:51:54Z</time>
      </trkpt>
      <trkpt lat="39.6772530" lon="-0.4641520">
        <ele>300.2</ele>
        <time>2022-11-06T06:51:55Z</time>
      </trkpt>
      <trkpt lat="39.6772580" lon="-0.4641130">
        <ele>300.2</ele>
        <time>2022-11-06T06:51:56Z</time>
      </trkpt>
      <trkpt lat="39.6772530" lon="-0.4640730">
        <ele>300.2</ele>
        <time>2022-11-06T06:51:57Z</time>
      </trkpt>
      <trkpt lat="39.6772500" lon="-0.4640370">
        <ele>300.2</ele>
        <time>2022-11-06T06:51:58Z</time>
      </trkpt>
      <trkpt lat="39.6772470" lon="-0.4639650">
        <ele>300.4</ele>
        <time>2022-11-06T06:51:59Z</time>
      </trkpt>
      <trkpt lat="39.6772470" lon="-0.4639650">
        <ele>300.4</ele>
        <time>2022-11-06T06:52:00Z</time>
      </trkpt>
      <trkpt lat="39.6772470" lon="-0.4639250">
        <ele>300.4</ele>
        <time>2022-11-06T06:52:01Z</time>
      </trkpt>
      <trkpt lat="39.6772470" lon="-0.4638900">
        <ele>300.5</ele>
        <time>2022-11-06T06:52:02Z</time>
      </trkpt>
      <trkpt lat="39.6772500" lon="-0.4638520">
        <ele>300.6</ele>
        <time>2022-11-06T06:52:03Z</time>
      </trkpt>
      <trkpt lat="39.6772660" lon="-0.4638120">
        <ele>300.7</ele>
        <time>2022-11-06T06:52:04Z</time>
      </trkpt>
      <trkpt lat="39.6772770" lon="-0.4637770">
        <ele>300.7</ele>
        <time>2022-11-06T06:52:05Z</time>
      </trkpt>
      <trkpt lat="39.6772930" lon="-0.4637430">
        <ele>300.8</ele>
        <time>2022-11-06T06:52:06Z</time>
      </trkpt>
      <trkpt lat="39.6773140" lon="-0.4637120">
        <ele>300.9</ele>
        <time>2022-11-06T06:52:07Z</time>
      </trkpt>
      <trkpt lat="39.6773440" lon="-0.4636720">
        <ele>300.9</ele>
        <time>2022-11-06T06:52:08Z</time>
      </trkpt>
      <trkpt lat="39.6773760" lon="-0.4636320">
        <ele>300.9</ele>
        <time>2022-11-06T06:52:09Z</time>
      </trkpt>
      <trkpt lat="39.6773760" lon="-0.4636320">
        <ele>300.9</ele>
        <time>2022-11-06T06:52:10Z</time>
      </trkpt>
      <trkpt lat="39.6774380" lon="-0.4635530">
        <ele>300.8</ele>
        <time>2022-11-06T06:52:11Z</time>
      </trkpt>
      <trkpt lat="39.6774590" lon="-0.4635100">
        <ele>300.8</ele>
        <time>2022-11-06T06:52:12Z</time>
      </trkpt>
      <trkpt lat="39.6774830" lon="-0.4634600">
        <ele>300.7</ele>
        <time>2022-11-06T06:52:13Z</time>
      </trkpt>
      <trkpt lat="39.6775020" lon="-0.4634130">
        <ele>300.7</ele>
        <time>2022-11-06T06:52:14Z</time>
      </trkpt>
      <trkpt lat="39.6775290" lon="-0.4633680">
        <ele>300.6</ele>
        <time>2022-11-06T06:52:15Z</time>
      </trkpt>
      <trkpt lat="39.6775560" lon="-0.4633220">
        <ele>300.6</ele>
        <time>2022-11-06T06:52:16Z</time>
      </trkpt>
      <trkpt lat="39.6775770" lon="-0.4632780">
        <ele>300.6</ele>
        <time>2022-11-06T06:52:17Z</time>
      </trkpt>
      <trkpt lat="39.6776040" lon="-0.4632380">
        <ele>300.6</ele>
        <time>2022-11-06T06:52:18Z</time>
      </trkpt>
      <trkpt lat="39.6776040" lon="-0.4632380">
        <ele>300.6</ele>
        <time>2022-11-06T06:52:19Z</time>
      </trkpt>
      <trkpt lat="39.6776660" lon="-0.4631250">
        <ele>300.8</ele>
        <time>2022-11-06T06:52:20Z</time>
      </trkpt>
      <trkpt lat="39.6776660" lon="-0.4631250">
        <ele>300.8</ele>
        <time>2022-11-06T06:52:21Z</time>
      </trkpt>
      <trkpt lat="39.6776820" lon="-0.4630920">
        <ele>300.9</ele>
        <time>2022-11-06T06:52:22Z</time>
      </trkpt>
      <trkpt lat="39.6777010" lon="-0.4630580">
        <ele>301.0</ele>
        <time>2022-11-06T06:52:23Z</time>
      </trkpt>
      <trkpt lat="39.6777140" lon="-0.4630300">
        <ele>301.1</ele>
        <time>2022-11-06T06:52:24Z</time>
      </trkpt>
      <trkpt lat="39.6777360" lon="-0.4630030">
        <ele>301.3</ele>
        <time>2022-11-06T06:52:25Z</time>
      </trkpt>
      <trkpt lat="39.6777540" lon="-0.4629820">
        <ele>301.4</ele>
        <time>2022-11-06T06:52:26Z</time>
      </trkpt>
      <trkpt lat="39.6777760" lon="-0.4629580">
        <ele>301.6</ele>
        <time>2022-11-06T06:52:27Z</time>
      </trkpt>
      <trkpt lat="39.6777950" lon="-0.4629400">
        <ele>301.8</ele>
        <time>2022-11-06T06:52:28Z</time>
      </trkpt>
      <trkpt lat="39.6778190" lon="-0.4629220">
        <ele>301.9</ele>
        <time>2022-11-06T06:52:29Z</time>
      </trkpt>
      <trkpt lat="39.6778190" lon="-0.4629220">
        <ele>301.9</ele>
        <time>2022-11-06T06:52:30Z</time>
      </trkpt>
      <trkpt lat="39.6778190" lon="-0.4629220">
        <ele>301.9</ele>
        <time>2022-11-06T06:52:31Z</time>
      </trkpt>
      <trkpt lat="39.6778860" lon="-0.4628630">
        <ele>302.5</ele>
        <time>2022-11-06T06:52:32Z</time>
      </trkpt>
      <trkpt lat="39.6779180" lon="-0.4628420">
        <ele>302.7</ele>
        <time>2022-11-06T06:52:33Z</time>
      </trkpt>
      <trkpt lat="39.6779390" lon="-0.4628200">
        <ele>302.9</ele>
        <time>2022-11-06T06:52:34Z</time>
      </trkpt>
      <trkpt lat="39.6779660" lon="-0.4627970">
        <ele>303.1</ele>
        <time>2022-11-06T06:52:35Z</time>
      </trkpt>
      <trkpt lat="39.6779930" lon="-0.4627720">
        <ele>303.3</ele>
        <time>2022-11-06T06:52:36Z</time>
      </trkpt>
      <trkpt lat="39.6780200" lon="-0.4627480">
        <ele>303.5</ele>
        <time>2022-11-06T06:52:37Z</time>
      </trkpt>
      <trkpt lat="39.6780470" lon="-0.4627270">
        <ele>303.6</ele>
        <time>2022-11-06T06:52:38Z</time>
      </trkpt>
      <trkpt lat="39.6780740" lon="-0.4627030">
        <ele>303.8</ele>
        <time>2022-11-06T06:52:39Z</time>
      </trkpt>
      <trkpt lat="39.6781240" lon="-0.4626630">
        <ele>304.0</ele>
        <time>2022-11-06T06:52:40Z</time>
      </trkpt>
      <trkpt lat="39.6781460" lon="-0.4626450">
        <ele>304.1</ele>
        <time>2022-11-06T06:52:41Z</time>
      </trkpt>
      <trkpt lat="39.6781460" lon="-0.4626450">
        <ele>304.1</ele>
        <time>2022-11-06T06:52:42Z</time>
      </trkpt>
      <trkpt lat="39.6781650" lon="-0.4626220">
        <ele>304.1</ele>
        <time>2022-11-06T06:52:43Z</time>
      </trkpt>
      <trkpt lat="39.6781830" lon="-0.4625920">
        <ele>304.2</ele>
        <time>2022-11-06T06:52:44Z</time>
      </trkpt>
      <trkpt lat="39.6782000" lon="-0.4625600">
        <ele>304.3</ele>
        <time>2022-11-06T06:52:45Z</time>
      </trkpt>
      <trkpt lat="39.6782160" lon="-0.4625270">
        <ele>304.3</ele>
        <time>2022-11-06T06:52:46Z</time>
      </trkpt>
      <trkpt lat="39.6782260" lon="-0.4624870">
        <ele>304.4</ele>
        <time>2022-11-06T06:52:47Z</time>
      </trkpt>
      <trkpt lat="39.6782430" lon="-0.4624470">
        <ele>304.4</ele>
        <time>2022-11-06T06:52:48Z</time>
      </trkpt>
      <trkpt lat="39.6782560" lon="-0.4624070">
        <ele>304.5</ele>
        <time>2022-11-06T06:52:49Z</time>
      </trkpt>
      <trkpt lat="39.6782770" lon="-0.4623680">
        <ele>304.5</ele>
        <time>2022-11-06T06:52:50Z</time>
      </trkpt>
      <trkpt lat="39.6783150" lon="-0.4622880">
        <ele>304.6</ele>
        <time>2022-11-06T06:52:51Z</time>
      </trkpt>
      <trkpt lat="39.6783150" lon="-0.4622880">
        <ele>304.6</ele>
        <time>2022-11-06T06:52:52Z</time>
      </trkpt>
      <trkpt lat="39.6783340" lon="-0.4622500">
        <ele>304.6</ele>
        <time>2022-11-06T06:52:53Z</time>
      </trkpt>
      <trkpt lat="39.6783550" lon="-0.4622150">
        <ele>304.7</ele>
        <time>2022-11-06T06:52:54Z</time>
      </trkpt>
      <trkpt lat="39.6783790" lon="-0.4621770">
        <ele>304.8</ele>
        <time>2022-11-06T06:52:55Z</time>
      </trkpt>
      <trkpt lat="39.6783980" lon="-0.4621420">
        <ele>304.8</ele>
        <time>2022-11-06T06:52:56Z</time>
      </trkpt>
      <trkpt lat="39.6784250" lon="-0.4621070">
        <ele>304.9</ele>
        <time>2022-11-06T06:52:57Z</time>
      </trkpt>
      <trkpt lat="39.6784440" lon="-0.4620720">
        <ele>305.0</ele>
        <time>2022-11-06T06:52:58Z</time>
      </trkpt>
      <trkpt lat="39.6784600" lon="-0.4620370">
        <ele>305.1</ele>
        <time>2022-11-06T06:52:59Z</time>
      </trkpt>
      <trkpt lat="39.6784600" lon="-0.4620370">
        <ele>305.1</ele>
        <time>2022-11-06T06:53:00Z</time>
      </trkpt>
      <trkpt lat="39.6785000" lon="-0.4619280">
        <ele>305.4</ele>
        <time>2022-11-06T06:53:01Z</time>
      </trkpt>
      <trkpt lat="39.6785080" lon="-0.4618900">
        <ele>305.5</ele>
        <time>2022-11-06T06:53:02Z</time>
      </trkpt>
      <trkpt lat="39.6785080" lon="-0.4618900">
        <ele>305.5</ele>
        <time>2022-11-06T06:53:03Z</time>
      </trkpt>
      <trkpt lat="39.6785160" lon="-0.4618550">
        <ele>305.6</ele>
        <time>2022-11-06T06:53:04Z</time>
      </trkpt>
      <trkpt lat="39.6785210" lon="-0.4618180">
        <ele>305.7</ele>
        <time>2022-11-06T06:53:05Z</time>
      </trkpt>
      <trkpt lat="39.6785240" lon="-0.4617830">
        <ele>305.8</ele>
        <time>2022-11-06T06:53:06Z</time>
      </trkpt>
      <trkpt lat="39.6785320" lon="-0.4617450">
        <ele>306.0</ele>
        <time>2022-11-06T06:53:07Z</time>
      </trkpt>
      <trkpt lat="39.6785400" lon="-0.4617100">
        <ele>306.1</ele>
        <time>2022-11-06T06:53:08Z</time>
      </trkpt>
      <trkpt lat="39.6785400" lon="-0.4616730">
        <ele>306.3</ele>
        <time>2022-11-06T06:53:09Z</time>
      </trkpt>
      <trkpt lat="39.6785430" lon="-0.4616380">
        <ele>306.5</ele>
        <time>2022-11-06T06:53:10Z</time>
      </trkpt>
      <trkpt lat="39.6785430" lon="-0.4616380">
        <ele>306.5</ele>
        <time>2022-11-06T06:53:11Z</time>
      </trkpt>
      <trkpt lat="39.6785430" lon="-0.4615350">
        <ele>307.0</ele>
        <time>2022-11-06T06:53:12Z</time>
      </trkpt>
      <trkpt lat="39.6785430" lon="-0.4615350">
        <ele>307.0</ele>
        <time>2022-11-06T06:53:13Z</time>
      </trkpt>
      <trkpt lat="39.6785430" lon="-0.4615020">
        <ele>307.2</ele>
        <time>2022-11-06T06:53:14Z</time>
      </trkpt>
      <trkpt lat="39.6785430" lon="-0.4614670">
        <ele>307.4</ele>
        <time>2022-11-06T06:53:15Z</time>
      </trkpt>
      <trkpt lat="39.6785400" lon="-0.4614330">
        <ele>307.6</ele>
        <time>2022-11-06T06:53:16Z</time>
      </trkpt>
      <trkpt lat="39.6785400" lon="-0.4613980">
        <ele>307.8</ele>
        <time>2022-11-06T06:53:17Z</time>
      </trkpt>
      <trkpt lat="39.6785400" lon="-0.4613620">
        <ele>308.1</ele>
        <time>2022-11-06T06:53:18Z</time>
      </trkpt>
      <trkpt lat="39.6785510" lon="-0.4613250">
        <ele>308.3</ele>
        <time>2022-11-06T06:53:19Z</time>
      </trkpt>
      <trkpt lat="39.6785590" lon="-0.4612920">
        <ele>308.6</ele>
        <time>2022-11-06T06:53:20Z</time>
      </trkpt>
      <trkpt lat="39.6785890" lon="-0.4612130">
        <ele>309.2</ele>
        <time>2022-11-06T06:53:21Z</time>
      </trkpt>
      <trkpt lat="39.6786050" lon="-0.4611750">
        <ele>309.5</ele>
        <time>2022-11-06T06:53:22Z</time>
      </trkpt>
      <trkpt lat="39.6786210" lon="-0.4611350">
        <ele>309.9</ele>
        <time>2022-11-06T06:53:23Z</time>
      </trkpt>
      <trkpt lat="39.6786210" lon="-0.4611350">
        <ele>309.9</ele>
        <time>2022-11-06T06:53:24Z</time>
      </trkpt>
      <trkpt lat="39.6786340" lon="-0.4611020">
        <ele>310.1</ele>
        <time>2022-11-06T06:53:25Z</time>
      </trkpt>
      <trkpt lat="39.6786420" lon="-0.4610700">
        <ele>310.4</ele>
        <time>2022-11-06T06:53:26Z</time>
      </trkpt>
      <trkpt lat="39.6786500" lon="-0.4610350">
        <ele>310.7</ele>
        <time>2022-11-06T06:53:27Z</time>
      </trkpt>
      <trkpt lat="39.6786610" lon="-0.4610000">
        <ele>311.0</ele>
        <time>2022-11-06T06:53:28Z</time>
      </trkpt>
      <trkpt lat="39.6786720" lon="-0.4609670">
        <ele>311.2</ele>
        <time>2022-11-06T06:53:29Z</time>
      </trkpt>
      <trkpt lat="39.6786770" lon="-0.4609350">
        <ele>311.5</ele>
        <time>2022-11-06T06:53:30Z</time>
      </trkpt>
      <trkpt lat="39.6786850" lon="-0.4609030">
        <ele>311.7</ele>
        <time>2022-11-06T06:53:31Z</time>
      </trkpt>
      <trkpt lat="39.6787040" lon="-0.4608430">
        <ele>312.2</ele>
        <time>2022-11-06T06:53:32Z</time>
      </trkpt>
      <trkpt lat="39.6787150" lon="-0.4608170">
        <ele>312.4</ele>
        <time>2022-11-06T06:53:33Z</time>
      </trkpt>
      <trkpt lat="39.6787150" lon="-0.4608170">
        <ele>312.4</ele>
        <time>2022-11-06T06:53:34Z</time>
      </trkpt>
      <trkpt lat="39.6787250" lon="-0.4607850">
        <ele>312.7</ele>
        <time>2022-11-06T06:53:35Z</time>
      </trkpt>
      <trkpt lat="39.6787390" lon="-0.4607500">
        <ele>312.9</ele>
        <time>2022-11-06T06:53:36Z</time>
      </trkpt>
      <trkpt lat="39.6787440" lon="-0.4607150">
        <ele>313.2</ele>
        <time>2022-11-06T06:53:37Z</time>
      </trkpt>
      <trkpt lat="39.6787570" lon="-0.4606780">
        <ele>313.4</ele>
        <time>2022-11-06T06:53:38Z</time>
      </trkpt>
      <trkpt lat="39.6787660" lon="-0.4606430">
        <ele>313.6</ele>
        <time>2022-11-06T06:53:39Z</time>
      </trkpt>
      <trkpt lat="39.6787790" lon="-0.4606070">
        <ele>313.8</ele>
        <time>2022-11-06T06:53:40Z</time>
      </trkpt>
      <trkpt lat="39.6787870" lon="-0.4605700">
        <ele>314.0</ele>
        <time>2022-11-06T06:53:41Z</time>
      </trkpt>
      <trkpt lat="39.6788060" lon="-0.4605030">
        <ele>314.3</ele>
        <time>2022-11-06T06:53:42Z</time>
      </trkpt>
      <trkpt lat="39.6788160" lon="-0.4604700">
        <ele>314.5</ele>
        <time>2022-11-06T06:53:43Z</time>
      </trkpt>
      <trkpt lat="39.6788220" lon="-0.4604370">
        <ele>314.7</ele>
        <time>2022-11-06T06:53:44Z</time>
      </trkpt>
      <trkpt lat="39.6788220" lon="-0.4604370">
        <ele>314.7</ele>
        <time>2022-11-06T06:53:45Z</time>
      </trkpt>
      <trkpt lat="39.6788300" lon="-0.4604030">
        <ele>314.8</ele>
        <time>2022-11-06T06:53:46Z</time>
      </trkpt>
      <trkpt lat="39.6788410" lon="-0.4603680">
        <ele>315.0</ele>
        <time>2022-11-06T06:53:47Z</time>
      </trkpt>
      <trkpt lat="39.6788490" lon="-0.4603380">
        <ele>315.2</ele>
        <time>2022-11-06T06:53:48Z</time>
      </trkpt>
      <trkpt lat="39.6788590" lon="-0.4603070">
        <ele>315.3</ele>
        <time>2022-11-06T06:53:49Z</time>
      </trkpt>
      <trkpt lat="39.6788700" lon="-0.4602770">
        <ele>315.5</ele>
        <time>2022-11-06T06:53:50Z</time>
      </trkpt>
      <trkpt lat="39.6788860" lon="-0.4602470">
        <ele>315.7</ele>
        <time>2022-11-06T06:53:51Z</time>
      </trkpt>
      <trkpt lat="39.6788970" lon="-0.4602130">
        <ele>315.9</ele>
        <time>2022-11-06T06:53:52Z</time>
      </trkpt>
      <trkpt lat="39.6789290" lon="-0.4601550">
        <ele>316.3</ele>
        <time>2022-11-06T06:53:53Z</time>
      </trkpt>
      <trkpt lat="39.6789400" lon="-0.4601230">
        <ele>316.5</ele>
        <time>2022-11-06T06:53:54Z</time>
      </trkpt>
      <trkpt lat="39.6789400" lon="-0.4601230">
        <ele>316.5</ele>
        <time>2022-11-06T06:53:55Z</time>
      </trkpt>
      <trkpt lat="39.6789590" lon="-0.4600920">
        <ele>316.8</ele>
        <time>2022-11-06T06:53:56Z</time>
      </trkpt>
      <trkpt lat="39.6789670" lon="-0.4600620">
        <ele>317.0</ele>
        <time>2022-11-06T06:53:57Z</time>
      </trkpt>
      <trkpt lat="39.6789850" lon="-0.4600370">
        <ele>317.3</ele>
        <time>2022-11-06T06:53:58Z</time>
      </trkpt>
      <trkpt lat="39.6790040" lon="-0.4600130">
        <ele>317.5</ele>
        <time>2022-11-06T06:53:59Z</time>
      </trkpt>
      <trkpt lat="39.6790200" lon="-0.4599900">
        <ele>317.7</ele>
        <time>2022-11-06T06:54:00Z</time>
      </trkpt>
      <trkpt lat="39.6790360" lon="-0.4599650">
        <ele>318.0</ele>
        <time>2022-11-06T06:54:01Z</time>
      </trkpt>
      <trkpt lat="39.6790360" lon="-0.4599650">
        <ele>318.0</ele>
        <time>2022-11-06T06:54:02Z</time>
      </trkpt>
      <trkpt lat="39.6790950" lon="-0.4599230">
        <ele>318.7</ele>
        <time>2022-11-06T06:54:03Z</time>
      </trkpt>
      <trkpt lat="39.6791200" lon="-0.4599120">
        <ele>319.0</ele>
        <time>2022-11-06T06:54:04Z</time>
      </trkpt>
      <trkpt lat="39.6791410" lon="-0.4599030">
        <ele>319.3</ele>
        <time>2022-11-06T06:54:05Z</time>
      </trkpt>
      <trkpt lat="39.6791410" lon="-0.4599030">
        <ele>319.3</ele>
        <time>2022-11-06T06:54:06Z</time>
      </trkpt>
      <trkpt lat="39.6791650" lon="-0.4598920">
        <ele>319.6</ele>
        <time>2022-11-06T06:54:07Z</time>
      </trkpt>
      <trkpt lat="39.6791920" lon="-0.4598780">
        <ele>319.9</ele>
        <time>2022-11-06T06:54:08Z</time>
      </trkpt>
      <trkpt lat="39.6792080" lon="-0.4598600">
        <ele>320.2</ele>
        <time>2022-11-06T06:54:09Z</time>
      </trkpt>
      <trkpt lat="39.6792270" lon="-0.4598400">
        <ele>320.5</ele>
        <time>2022-11-06T06:54:10Z</time>
      </trkpt>
      <trkpt lat="39.6792400" lon="-0.4598150">
        <ele>320.7</ele>
        <time>2022-11-06T06:54:11Z</time>
      </trkpt>
      <trkpt lat="39.6792560" lon="-0.4597900">
        <ele>321.0</ele>
        <time>2022-11-06T06:54:12Z</time>
      </trkpt>
      <trkpt lat="39.6792560" lon="-0.4597900">
        <ele>321.0</ele>
        <time>2022-11-06T06:54:13Z</time>
      </trkpt>
      <trkpt lat="39.6792940" lon="-0.4597170">
        <ele>321.8</ele>
        <time>2022-11-06T06:54:14Z</time>
      </trkpt>
      <trkpt lat="39.6793070" lon="-0.4596920">
        <ele>322.0</ele>
        <time>2022-11-06T06:54:15Z</time>
      </trkpt>
      <trkpt lat="39.6793070" lon="-0.4596920">
        <ele>322.0</ele>
        <time>2022-11-06T06:54:16Z</time>
      </trkpt>
      <trkpt lat="39.6793180" lon="-0.4596670">
        <ele>322.3</ele>
        <time>2022-11-06T06:54:17Z</time>
      </trkpt>
      <trkpt lat="39.6793260" lon="-0.4596400">
        <ele>322.5</ele>
        <time>2022-11-06T06:54:18Z</time>
      </trkpt>
      <trkpt lat="39.6793260" lon="-0.4596080">
        <ele>322.7</ele>
        <time>2022-11-06T06:54:19Z</time>
      </trkpt>
      <trkpt lat="39.6793310" lon="-0.4595800">
        <ele>323.0</ele>
        <time>2022-11-06T06:54:20Z</time>
      </trkpt>
      <trkpt lat="39.6793370" lon="-0.4595530">
        <ele>323.2</ele>
        <time>2022-11-06T06:54:21Z</time>
      </trkpt>
      <trkpt lat="39.6793450" lon="-0.4595250">
        <ele>323.4</ele>
        <time>2022-11-06T06:54:22Z</time>
      </trkpt>
      <trkpt lat="39.6793530" lon="-0.4594630">
        <ele>323.8</ele>
        <time>2022-11-06T06:54:23Z</time>
      </trkpt>
      <trkpt lat="39.6793530" lon="-0.4594320">
        <ele>324.0</ele>
        <time>2022-11-06T06:54:24Z</time>
      </trkpt>
      <trkpt lat="39.6793530" lon="-0.4594030">
        <ele>324.2</ele>
        <time>2022-11-06T06:54:25Z</time>
      </trkpt>
      <trkpt lat="39.6793560" lon="-0.4593700">
        <ele>324.4</ele>
        <time>2022-11-06T06:54:26Z</time>
      </trkpt>
      <trkpt lat="39.6793560" lon="-0.4593700">
        <ele>324.4</ele>
        <time>2022-11-06T06:54:27Z</time>
      </trkpt>
      <trkpt lat="39.6793580" lon="-0.4593370">
        <ele>324.6</ele>
        <time>2022-11-06T06:54:28Z</time>
      </trkpt>
      <trkpt lat="39.6793640" lon="-0.4593020">
        <ele>324.8</ele>
        <time>2022-11-06T06:54:29Z</time>
      </trkpt>
      <trkpt lat="39.6793660" lon="-0.4592680">
        <ele>325.0</ele>
        <time>2022-11-06T06:54:30Z</time>
      </trkpt>
      <trkpt lat="39.6793740" lon="-0.4592380">
        <ele>325.2</ele>
        <time>2022-11-06T06:54:31Z</time>
      </trkpt>
      <trkpt lat="39.6793850" lon="-0.4592030">
        <ele>325.4</ele>
        <time>2022-11-06T06:54:32Z</time>
      </trkpt>
      <trkpt lat="39.6793990" lon="-0.4591730">
        <ele>325.6</ele>
        <time>2022-11-06T06:54:33Z</time>
      </trkpt>
      <trkpt lat="39.6794200" lon="-0.4591180">
        <ele>326.0</ele>
        <time>2022-11-06T06:54:34Z</time>
      </trkpt>
      <trkpt lat="39.6794360" lon="-0.4590950">
        <ele>326.2</ele>
        <time>2022-11-06T06:54:35Z</time>
      </trkpt>
      <trkpt lat="39.6794520" lon="-0.4590670">
        <ele>326.5</ele>
        <time>2022-11-06T06:54:36Z</time>
      </trkpt>
      <trkpt lat="39.6794520" lon="-0.4590670">
        <ele>326.5</ele>
        <time>2022-11-06T06:54:37Z</time>
      </trkpt>
      <trkpt lat="39.6794550" lon="-0.4590400">
        <ele>326.7</ele>
        <time>2022-11-06T06:54:38Z</time>
      </trkpt>
      <trkpt lat="39.6794630" lon="-0.4590120">
        <ele>326.9</ele>
        <time>2022-11-06T06:54:39Z</time>
      </trkpt>
      <trkpt lat="39.6794710" lon="-0.4589850">
        <ele>327.2</ele>
        <time>2022-11-06T06:54:40Z</time>
      </trkpt>
      <trkpt lat="39.6794710" lon="-0.4589550">
        <ele>327.4</ele>
        <time>2022-11-06T06:54:41Z</time>
      </trkpt>
      <trkpt lat="39.6794740" lon="-0.4589270">
        <ele>327.6</ele>
        <time>2022-11-06T06:54:42Z</time>
      </trkpt>
      <trkpt lat="39.6794740" lon="-0.4589270">
        <ele>327.6</ele>
        <time>2022-11-06T06:54:43Z</time>
      </trkpt>
      <trkpt lat="39.6794710" lon="-0.4588470">
        <ele>328.2</ele>
        <time>2022-11-06T06:54:44Z</time>
      </trkpt>
      <trkpt lat="39.6794660" lon="-0.4588220">
        <ele>328.4</ele>
        <time>2022-11-06T06:54:45Z</time>
      </trkpt>
      <trkpt lat="39.6794630" lon="-0.4587980">
        <ele>328.5</ele>
        <time>2022-11-06T06:54:46Z</time>
      </trkpt>
      <trkpt lat="39.6794630" lon="-0.4587730">
        <ele>328.6</ele>
        <time>2022-11-06T06:54:47Z</time>
      </trkpt>
      <trkpt lat="39.6794630" lon="-0.4587730">
        <ele>328.6</ele>
        <time>2022-11-06T06:54:48Z</time>
      </trkpt>
      <trkpt lat="39.6796100" lon="-0.4581050">
        <ele>331.0</ele>
        <time>2022-11-06T06:55:12Z</time>
      </trkpt>
      <trkpt lat="39.6796100" lon="-0.4581050">
        <ele>331.0</ele>
        <time>2022-11-06T06:55:13Z</time>
      </trkpt>
      <trkpt lat="39.6796160" lon="-0.4580730">
        <ele>331.2</ele>
        <time>2022-11-06T06:55:14Z</time>
      </trkpt>
      <trkpt lat="39.6796180" lon="-0.4580380">
        <ele>331.3</ele>
        <time>2022-11-06T06:55:15Z</time>
      </trkpt>
      <trkpt lat="39.6796240" lon="-0.4580070">
        <ele>331.5</ele>
        <time>2022-11-06T06:55:16Z</time>
      </trkpt>
      <trkpt lat="39.6796180" lon="-0.4579720">
        <ele>331.7</ele>
        <time>2022-11-06T06:55:17Z</time>
      </trkpt>
      <trkpt lat="39.6796240" lon="-0.4579370">
        <ele>331.8</ele>
        <time>2022-11-06T06:55:18Z</time>
      </trkpt>
      <trkpt lat="39.6796240" lon="-0.4579370">
        <ele>331.8</ele>
        <time>2022-11-06T06:55:19Z</time>
      </trkpt>
      <trkpt lat="39.6796350" lon="-0.4578300">
        <ele>332.3</ele>
        <time>2022-11-06T06:55:20Z</time>
      </trkpt>
      <trkpt lat="39.6796430" lon="-0.4577930">
        <ele>332.5</ele>
        <time>2022-11-06T06:55:21Z</time>
      </trkpt>
      <trkpt lat="39.6796530" lon="-0.4577620">
        <ele>332.6</ele>
        <time>2022-11-06T06:55:22Z</time>
      </trkpt>
      <trkpt lat="39.6796530" lon="-0.4577620">
        <ele>332.6</ele>
        <time>2022-11-06T06:55:23Z</time>
      </trkpt>
      <trkpt lat="39.6796690" lon="-0.4577400">
        <ele>332.7</ele>
        <time>2022-11-06T06:55:24Z</time>
      </trkpt>
      <trkpt lat="39.6796880" lon="-0.4577170">
        <ele>332.9</ele>
        <time>2022-11-06T06:55:25Z</time>
      </trkpt>
      <trkpt lat="39.6797020" lon="-0.4576930">
        <ele>333.0</ele>
        <time>2022-11-06T06:55:26Z</time>
      </trkpt>
      <trkpt lat="39.6797230" lon="-0.4576670">
        <ele>333.1</ele>
        <time>2022-11-06T06:55:27Z</time>
      </trkpt>
      <trkpt lat="39.6797470" lon="-0.4576400">
        <ele>333.2</ele>
        <time>2022-11-06T06:55:28Z</time>
      </trkpt>
      <trkpt lat="39.6798010" lon="-0.4575800">
        <ele>333.6</ele>
        <time>2022-11-06T06:55:29Z</time>
      </trkpt>
      <trkpt lat="39.6798280" lon="-0.4575550">
        <ele>333.8</ele>
        <time>2022-11-06T06:55:30Z</time>
      </trkpt>
      <trkpt lat="39.6798460" lon="-0.4575250">
        <ele>333.9</ele>
        <time>2022-11-06T06:55:31Z</time>
      </trkpt>
      <trkpt lat="39.6798680" lon="-0.4575000">
        <ele>334.1</ele>
        <time>2022-11-06T06:55:32Z</time>
      </trkpt>
      <trkpt lat="39.6798810" lon="-0.4574730">
        <ele>334.3</ele>
        <time>2022-11-06T06:55:33Z</time>
      </trkpt>
      <trkpt lat="39.6798810" lon="-0.4574730">
        <ele>334.3</ele>
        <time>2022-11-06T06:55:34Z</time>
      </trkpt>
      <trkpt lat="39.6799050" lon="-0.4574430">
        <ele>334.5</ele>
        <time>2022-11-06T06:55:35Z</time>
      </trkpt>
      <trkpt lat="39.6799190" lon="-0.4574180">
        <ele>334.6</ele>
        <time>2022-11-06T06:55:36Z</time>
      </trkpt>
      <trkpt lat="39.6799350" lon="-0.4573850">
        <ele>334.8</ele>
        <time>2022-11-06T06:55:37Z</time>
      </trkpt>
      <trkpt lat="39.6799510" lon="-0.4573580">
        <ele>335.0</ele>
        <time>2022-11-06T06:55:38Z</time>
      </trkpt>
      <trkpt lat="39.6799700" lon="-0.4573320">
        <ele>335.2</ele>
        <time>2022-11-06T06:55:39Z</time>
      </trkpt>
      <trkpt lat="39.6800130" lon="-0.4572950">
        <ele>335.4</ele>
        <time>2022-11-06T06:55:40Z</time>
      </trkpt>
      <trkpt lat="39.6800450" lon="-0.4572950">
        <ele>335.5</ele>
        <time>2022-11-06T06:55:41Z</time>
      </trkpt>
      <trkpt lat="39.6800800" lon="-0.4572980">
        <ele>335.6</ele>
        <time>2022-11-06T06:55:42Z</time>
      </trkpt>
      <trkpt lat="39.6801120" lon="-0.4573050">
        <ele>335.7</ele>
        <time>2022-11-06T06:55:43Z</time>
      </trkpt>
      <trkpt lat="39.6801120" lon="-0.4573050">
        <ele>335.7</ele>
        <time>2022-11-06T06:55:44Z</time>
      </trkpt>
      <trkpt lat="39.6801420" lon="-0.4573200">
        <ele>335.7</ele>
        <time>2022-11-06T06:55:45Z</time>
      </trkpt>
      <trkpt lat="39.6801600" lon="-0.4573250">
        <ele>335.7</ele>
        <time>2022-11-06T06:55:46Z</time>
      </trkpt>
      <trkpt lat="39.6801900" lon="-0.4573120">
        <ele>335.8</ele>
        <time>2022-11-06T06:55:47Z</time>
      </trkpt>
      <trkpt lat="39.6802140" lon="-0.4573000">
        <ele>335.8</ele>
        <time>2022-11-06T06:55:48Z</time>
      </trkpt>
      <trkpt lat="39.6802140" lon="-0.4573000">
        <ele>335.8</ele>
        <time>2022-11-06T06:55:49Z</time>
      </trkpt>
      <trkpt lat="39.6802860" lon="-0.4572280">
        <ele>336.0</ele>
        <time>2022-11-06T06:55:50Z</time>
      </trkpt>
      <trkpt lat="39.6803130" lon="-0.4572030">
        <ele>336.0</ele>
        <time>2022-11-06T06:55:51Z</time>
      </trkpt>
      <trkpt lat="39.6803370" lon="-0.4571780">
        <ele>336.1</ele>
        <time>2022-11-06T06:55:52Z</time>
      </trkpt>
      <trkpt lat="39.6803610" lon="-0.4571520">
        <ele>336.2</ele>
        <time>2022-11-06T06:55:53Z</time>
      </trkpt>
      <trkpt lat="39.6803880" lon="-0.4571270">
        <ele>336.4</ele>
        <time>2022-11-06T06:55:54Z</time>
      </trkpt>
      <trkpt lat="39.6803880" lon="-0.4571270">
        <ele>336.4</ele>
        <time>2022-11-06T06:55:55Z</time>
      </trkpt>
      <trkpt lat="39.6804150" lon="-0.4571050">
        <ele>336.5</ele>
        <time>2022-11-06T06:55:56Z</time>
      </trkpt>
      <trkpt lat="39.6804420" lon="-0.4570800">
        <ele>336.6</ele>
        <time>2022-11-06T06:55:57Z</time>
      </trkpt>
      <trkpt lat="39.6804690" lon="-0.4570500">
        <ele>336.8</ele>
        <time>2022-11-06T06:55:58Z</time>
      </trkpt>
      <trkpt lat="39.6804880" lon="-0.4570180">
        <ele>336.9</ele>
        <time>2022-11-06T06:55:59Z</time>
      </trkpt>
      <trkpt lat="39.6804880" lon="-0.4570180">
        <ele>336.9</ele>
        <time>2022-11-06T06:56:00Z</time>
      </trkpt>
      <trkpt lat="39.6805550" lon="-0.4569350">
        <ele>337.4</ele>
        <time>2022-11-06T06:56:01Z</time>
      </trkpt>
      <trkpt lat="39.6805730" lon="-0.4569070">
        <ele>337.5</ele>
        <time>2022-11-06T06:56:02Z</time>
      </trkpt>
      <trkpt lat="39.6805920" lon="-0.4568800">
        <ele>337.7</ele>
        <time>2022-11-06T06:56:03Z</time>
      </trkpt>
      <trkpt lat="39.6806060" lon="-0.4568550">
        <ele>337.8</ele>
        <time>2022-11-06T06:56:04Z</time>
      </trkpt>
      <trkpt lat="39.6806060" lon="-0.4568550">
        <ele>337.8</ele>
        <time>2022-11-06T06:56:05Z</time>
      </trkpt>
      <trkpt lat="39.6806270" lon="-0.4568330">
        <ele>338.0</ele>
        <time>2022-11-06T06:56:06Z</time>
      </trkpt>
      <trkpt lat="39.6806460" lon="-0.4568080">
        <ele>338.2</ele>
        <time>2022-11-06T06:56:07Z</time>
      </trkpt>
      <trkpt lat="39.6806560" lon="-0.4567830">
        <ele>338.4</ele>
        <time>2022-11-06T06:56:08Z</time>
      </trkpt>
      <trkpt lat="39.6806730" lon="-0.4567580">
        <ele>338.6</ele>
        <time>2022-11-06T06:56:09Z</time>
      </trkpt>
      <trkpt lat="39.6806940" lon="-0.4567150">
        <ele>339.0</ele>
        <time>2022-11-06T06:56:10Z</time>
      </trkpt>
      <trkpt lat="39.6807100" lon="-0.4566970">
        <ele>339.2</ele>
        <time>2022-11-06T06:56:11Z</time>
      </trkpt>
      <trkpt lat="39.6807260" lon="-0.4566750">
        <ele>339.4</ele>
        <time>2022-11-06T06:56:12Z</time>
      </trkpt>
      <trkpt lat="39.6807400" lon="-0.4566570">
        <ele>339.7</ele>
        <time>2022-11-06T06:56:13Z</time>
      </trkpt>
      <trkpt lat="39.6807560" lon="-0.4566350">
        <ele>339.9</ele>
        <time>2022-11-06T06:56:14Z</time>
      </trkpt>
      <trkpt lat="39.6807660" lon="-0.4566080">
        <ele>340.2</ele>
        <time>2022-11-06T06:56:15Z</time>
      </trkpt>
      <trkpt lat="39.6807660" lon="-0.4566080">
        <ele>340.2</ele>
        <time>2022-11-06T06:56:16Z</time>
      </trkpt>
      <trkpt lat="39.6807770" lon="-0.4565850">
        <ele>340.5</ele>
        <time>2022-11-06T06:56:17Z</time>
      </trkpt>
      <trkpt lat="39.6807910" lon="-0.4565600">
        <ele>340.8</ele>
        <time>2022-11-06T06:56:18Z</time>
      </trkpt>
      <trkpt lat="39.6807990" lon="-0.4565370">
        <ele>341.0</ele>
        <time>2022-11-06T06:56:19Z</time>
      </trkpt>
      <trkpt lat="39.6808040" lon="-0.4565120">
        <ele>341.3</ele>
        <time>2022-11-06T06:56:20Z</time>
      </trkpt>
      <trkpt lat="39.6808200" lon="-0.4564680">
        <ele>342.0</ele>
        <time>2022-11-06T06:56:21Z</time>
      </trkpt>
      <trkpt lat="39.6808280" lon="-0.4564450">
        <ele>342.4</ele>
        <time>2022-11-06T06:56:22Z</time>
      </trkpt>
      <trkpt lat="39.6808310" lon="-0.4564220">
        <ele>342.7</ele>
        <time>2022-11-06T06:56:23Z</time>
      </trkpt>
      <trkpt lat="39.6808360" lon="-0.4564020">
        <ele>342.9</ele>
        <time>2022-11-06T06:56:24Z</time>
      </trkpt>
      <trkpt lat="39.6808390" lon="-0.4563800">
        <ele>343.2</ele>
        <time>2022-11-06T06:56:25Z</time>
      </trkpt>
      <trkpt lat="39.6808390" lon="-0.4563800">
        <ele>343.2</ele>
        <time>2022-11-06T06:56:26Z</time>
      </trkpt>
      <trkpt lat="39.6808390" lon="-0.4563680">
        <ele>343.4</ele>
        <time>2022-11-06T06:56:27Z</time>
      </trkpt>
      <trkpt lat="39.6808390" lon="-0.4563470">
        <ele>343.6</ele>
        <time>2022-11-06T06:56:28Z</time>
      </trkpt>
      <trkpt lat="39.6808390" lon="-0.4563320">
        <ele>343.8</ele>
        <time>2022-11-06T06:56:29Z</time>
      </trkpt>
      <trkpt lat="39.6808390" lon="-0.4563320">
        <ele>343.8</ele>
        <time>2022-11-06T06:56:30Z</time>
      </trkpt>
      <trkpt lat="39.6808440" lon="-0.4562730">
        <ele>344.5</ele>
        <time>2022-11-06T06:56:31Z</time>
      </trkpt>
      <trkpt lat="39.6808390" lon="-0.4562530">
        <ele>344.8</ele>
        <time>2022-11-06T06:56:32Z</time>
      </trkpt>
      <trkpt lat="39.6808440" lon="-0.4562300">
        <ele>345.1</ele>
        <time>2022-11-06T06:56:33Z</time>
      </trkpt>
      <trkpt lat="39.6808440" lon="-0.4562050">
        <ele>345.4</ele>
        <time>2022-11-06T06:56:34Z</time>
      </trkpt>
      <trkpt lat="39.6808440" lon="-0.4561820">
        <ele>345.6</ele>
        <time>2022-11-06T06:56:35Z</time>
      </trkpt>
      <trkpt lat="39.6808470" lon="-0.4561580">
        <ele>345.9</ele>
        <time>2022-11-06T06:56:36Z</time>
      </trkpt>
      <trkpt lat="39.6808470" lon="-0.4561580">
        <ele>345.9</ele>
        <time>2022-11-06T06:56:37Z</time>
      </trkpt>
      <trkpt lat="39.6808520" lon="-0.4561320">
        <ele>346.2</ele>
        <time>2022-11-06T06:56:38Z</time>
      </trkpt>
      <trkpt lat="39.6808520" lon="-0.4561080">
        <ele>346.4</ele>
        <time>2022-11-06T06:56:39Z</time>
      </trkpt>
      <trkpt lat="39.6808550" lon="-0.4560870">
        <ele>346.6</ele>
        <time>2022-11-06T06:56:40Z</time>
      </trkpt>
      <trkpt lat="39.6808550" lon="-0.4560870">
        <ele>346.6</ele>
        <time>2022-11-06T06:56:41Z</time>
      </trkpt>
      <trkpt lat="39.6808550" lon="-0.4560270">
        <ele>347.2</ele>
        <time>2022-11-06T06:56:42Z</time>
      </trkpt>
      <trkpt lat="39.6808520" lon="-0.4560050">
        <ele>347.5</ele>
        <time>2022-11-06T06:56:43Z</time>
      </trkpt>
      <trkpt lat="39.6808470" lon="-0.4559850">
        <ele>347.7</ele>
        <time>2022-11-06T06:56:44Z</time>
      </trkpt>
      <trkpt lat="39.6808470" lon="-0.4559630">
        <ele>347.9</ele>
        <time>2022-11-06T06:56:45Z</time>
      </trkpt>
      <trkpt lat="39.6808440" lon="-0.4559380">
        <ele>348.1</ele>
        <time>2022-11-06T06:56:46Z</time>
      </trkpt>
      <trkpt lat="39.6808440" lon="-0.4559380">
        <ele>348.1</ele>
        <time>2022-11-06T06:56:47Z</time>
      </trkpt>
      <trkpt lat="39.6808440" lon="-0.4559150">
        <ele>348.3</ele>
        <time>2022-11-06T06:56:48Z</time>
      </trkpt>
      <trkpt lat="39.6808390" lon="-0.4558920">
        <ele>348.5</ele>
        <time>2022-11-06T06:56:49Z</time>
      </trkpt>
      <trkpt lat="39.6808360" lon="-0.4558700">
        <ele>348.7</ele>
        <time>2022-11-06T06:56:50Z</time>
      </trkpt>
      <trkpt lat="39.6808170" lon="-0.4558330">
        <ele>349.0</ele>
        <time>2022-11-06T06:56:51Z</time>
      </trkpt>
      <trkpt lat="39.6808040" lon="-0.4558130">
        <ele>349.1</ele>
        <time>2022-11-06T06:56:52Z</time>
      </trkpt>
      <trkpt lat="39.6807930" lon="-0.4557920">
        <ele>349.3</ele>
        <time>2022-11-06T06:56:53Z</time>
      </trkpt>
      <trkpt lat="39.6807830" lon="-0.4557700">
        <ele>349.4</ele>
        <time>2022-11-06T06:56:54Z</time>
      </trkpt>
      <trkpt lat="39.6807750" lon="-0.4557470">
        <ele>349.6</ele>
        <time>2022-11-06T06:56:55Z</time>
      </trkpt>
      <trkpt lat="39.6807640" lon="-0.4557200">
        <ele>349.7</ele>
        <time>2022-11-06T06:56:56Z</time>
      </trkpt>
      <trkpt lat="39.6807560" lon="-0.4556970">
        <ele>349.9</ele>
        <time>2022-11-06T06:56:57Z</time>
      </trkpt>
      <trkpt lat="39.6807560" lon="-0.4556970">
        <ele>349.9</ele>
        <time>2022-11-06T06:56:58Z</time>
      </trkpt>
      <trkpt lat="39.6807480" lon="-0.4556720">
        <ele>350.0</ele>
        <time>2022-11-06T06:56:59Z</time>
      </trkpt>
      <trkpt lat="39.6807370" lon="-0.4556470">
        <ele>350.1</ele>
        <time>2022-11-06T06:57:00Z</time>
      </trkpt>
      <trkpt lat="39.6807260" lon="-0.4556230">
        <ele>350.2</ele>
        <time>2022-11-06T06:57:01Z</time>
      </trkpt>
      <trkpt lat="39.6806990" lon="-0.4555780">
        <ele>350.5</ele>
        <time>2022-11-06T06:57:02Z</time>
      </trkpt>
      <trkpt lat="39.6806860" lon="-0.4555550">
        <ele>350.6</ele>
        <time>2022-11-06T06:57:03Z</time>
      </trkpt>
      <trkpt lat="39.6806730" lon="-0.4555350">
        <ele>350.7</ele>
        <time>2022-11-06T06:57:04Z</time>
      </trkpt>
      <trkpt lat="39.6806590" lon="-0.4555120">
        <ele>350.9</ele>
        <time>2022-11-06T06:57:05Z</time>
      </trkpt>
      <trkpt lat="39.6806460" lon="-0.4554880">
        <ele>351.0</ele>
        <time>2022-11-06T06:57:06Z</time>
      </trkpt>
      <trkpt lat="39.6806300" lon="-0.4554670">
        <ele>351.2</ele>
        <time>2022-11-06T06:57:07Z</time>
      </trkpt>
      <trkpt lat="39.6806300" lon="-0.4554670">
        <ele>351.2</ele>
        <time>2022-11-06T06:57:08Z</time>
      </trkpt>
      <trkpt lat="39.6806110" lon="-0.4554430">
        <ele>351.5</ele>
        <time>2022-11-06T06:57:09Z</time>
      </trkpt>
      <trkpt lat="39.6806000" lon="-0.4554220">
        <ele>351.7</ele>
        <time>2022-11-06T06:57:10Z</time>
      </trkpt>
      <trkpt lat="39.6805870" lon="-0.4553980">
        <ele>351.9</ele>
        <time>2022-11-06T06:57:11Z</time>
      </trkpt>
      <trkpt lat="39.6805810" lon="-0.4553550">
        <ele>352.3</ele>
        <time>2022-11-06T06:57:12Z</time>
      </trkpt>
      <trkpt lat="39.6805810" lon="-0.4553330">
        <ele>352.6</ele>
        <time>2022-11-06T06:57:13Z</time>
      </trkpt>
      <trkpt lat="39.6805840" lon="-0.4553120">
        <ele>352.8</ele>
        <time>2022-11-06T06:57:14Z</time>
      </trkpt>
      <trkpt lat="39.6805920" lon="-0.4552930">
        <ele>353.1</ele>
        <time>2022-11-06T06:57:15Z</time>
      </trkpt>
      <trkpt lat="39.6806030" lon="-0.4552770">
        <ele>353.3</ele>
        <time>2022-11-06T06:57:16Z</time>
      </trkpt>
      <trkpt lat="39.6806140" lon="-0.4552600">
        <ele>353.6</ele>
        <time>2022-11-06T06:57:17Z</time>
      </trkpt>
      <trkpt lat="39.6806270" lon="-0.4552420">
        <ele>353.9</ele>
        <time>2022-11-06T06:57:18Z</time>
      </trkpt>
      <trkpt lat="39.6806270" lon="-0.4552420">
        <ele>353.9</ele>
        <time>2022-11-06T06:57:19Z</time>
      </trkpt>
      <trkpt lat="39.6806320" lon="-0.4552250">
        <ele>354.1</ele>
        <time>2022-11-06T06:57:20Z</time>
      </trkpt>
      <trkpt lat="39.6806460" lon="-0.4552100">
        <ele>354.4</ele>
        <time>2022-11-06T06:57:21Z</time>
      </trkpt>
      <trkpt lat="39.6806460" lon="-0.4552100">
        <ele>354.4</ele>
        <time>2022-11-06T06:57:22Z</time>
      </trkpt>
      <trkpt lat="39.6806670" lon="-0.4551600">
        <ele>355.0</ele>
        <time>2022-11-06T06:57:23Z</time>
      </trkpt>
      <trkpt lat="39.6806730" lon="-0.4551420">
        <ele>355.3</ele>
        <time>2022-11-06T06:57:24Z</time>
      </trkpt>
      <trkpt lat="39.6806750" lon="-0.4551220">
        <ele>355.5</ele>
        <time>2022-11-06T06:57:25Z</time>
      </trkpt>
      <trkpt lat="39.6806750" lon="-0.4550980">
        <ele>355.7</ele>
        <time>2022-11-06T06:57:26Z</time>
      </trkpt>
      <trkpt lat="39.6806750" lon="-0.4550730">
        <ele>356.0</ele>
        <time>2022-11-06T06:57:27Z</time>
      </trkpt>
      <trkpt lat="39.6806730" lon="-0.4550470">
        <ele>356.2</ele>
        <time>2022-11-06T06:57:28Z</time>
      </trkpt>
      <trkpt lat="39.6806730" lon="-0.4550470">
        <ele>356.2</ele>
        <time>2022-11-06T06:57:29Z</time>
      </trkpt>
      <trkpt lat="39.6806730" lon="-0.4550220">
        <ele>356.4</ele>
        <time>2022-11-06T06:57:30Z</time>
      </trkpt>
      <trkpt lat="39.6806650" lon="-0.4549970">
        <ele>356.7</ele>
        <time>2022-11-06T06:57:31Z</time>
      </trkpt>
      <trkpt lat="39.6806650" lon="-0.4549970">
        <ele>356.7</ele>
        <time>2022-11-06T06:57:32Z</time>
      </trkpt>
      <trkpt lat="39.6806400" lon="-0.4549220">
        <ele>357.3</ele>
        <time>2022-11-06T06:57:33Z</time>
      </trkpt>
      <trkpt lat="39.6806320" lon="-0.4548970">
        <ele>357.5</ele>
        <time>2022-11-06T06:57:34Z</time>
      </trkpt>
      <trkpt lat="39.6806220" lon="-0.4548730">
        <ele>357.7</ele>
        <time>2022-11-06T06:57:35Z</time>
      </trkpt>
      <trkpt lat="39.6806140" lon="-0.4548520">
        <ele>357.9</ele>
        <time>2022-11-06T06:57:36Z</time>
      </trkpt>
      <trkpt lat="39.6806030" lon="-0.4548330">
        <ele>358.0</ele>
        <time>2022-11-06T06:57:37Z</time>
      </trkpt>
      <trkpt lat="39.6805950" lon="-0.4548130">
        <ele>358.2</ele>
        <time>2022-11-06T06:57:38Z</time>
      </trkpt>
      <trkpt lat="39.6805840" lon="-0.4547950">
        <ele>358.3</ele>
        <time>2022-11-06T06:57:39Z</time>
      </trkpt>
      <trkpt lat="39.6805840" lon="-0.4547950">
        <ele>358.3</ele>
        <time>2022-11-06T06:57:40Z</time>
      </trkpt>
      <trkpt lat="39.6805760" lon="-0.4547750">
        <ele>358.5</ele>
        <time>2022-11-06T06:57:41Z</time>
      </trkpt>
      <trkpt lat="39.6805650" lon="-0.4547530">
        <ele>358.7</ele>
        <time>2022-11-06T06:57:42Z</time>
      </trkpt>
      <trkpt lat="39.6805490" lon="-0.4547080">
        <ele>359.1</ele>
        <time>2022-11-06T06:57:43Z</time>
      </trkpt>
      <trkpt lat="39.6805470" lon="-0.4546830">
        <ele>359.3</ele>
        <time>2022-11-06T06:57:44Z</time>
      </trkpt>
      <trkpt lat="39.6805380" lon="-0.4546600">
        <ele>359.5</ele>
        <time>2022-11-06T06:57:45Z</time>
      </trkpt>
      <trkpt lat="39.6805330" lon="-0.4546350">
        <ele>359.7</ele>
        <time>2022-11-06T06:57:46Z</time>
      </trkpt>
      <trkpt lat="39.6805380" lon="-0.4546120">
        <ele>359.9</ele>
        <time>2022-11-06T06:57:47Z</time>
      </trkpt>
      <trkpt lat="39.6805410" lon="-0.4545900">
        <ele>360.1</ele>
        <time>2022-11-06T06:57:48Z</time>
      </trkpt>
      <trkpt lat="39.6805470" lon="-0.4545700">
        <ele>360.2</ele>
        <time>2022-11-06T06:57:49Z</time>
      </trkpt>
      <trkpt lat="39.6805470" lon="-0.4545700">
        <ele>360.2</ele>
        <time>2022-11-06T06:57:50Z</time>
      </trkpt>
      <trkpt lat="39.6805570" lon="-0.4545500">
        <ele>360.4</ele>
        <time>2022-11-06T06:57:51Z</time>
      </trkpt>
      <trkpt lat="39.6805680" lon="-0.4545330">
        <ele>360.6</ele>
        <time>2022-11-06T06:57:52Z</time>
      </trkpt>
      <trkpt lat="39.6805920" lon="-0.4544930">
        <ele>360.9</ele>
        <time>2022-11-06T06:57:53Z</time>
      </trkpt>
      <trkpt lat="39.6806060" lon="-0.4544720">
        <ele>361.1</ele>
        <time>2022-11-06T06:57:54Z</time>
      </trkpt>
      <trkpt lat="39.6806220" lon="-0.4544550">
        <ele>361.3</ele>
        <time>2022-11-06T06:57:55Z</time>
      </trkpt>
      <trkpt lat="39.6806400" lon="-0.4544420">
        <ele>361.5</ele>
        <time>2022-11-06T06:57:56Z</time>
      </trkpt>
      <trkpt lat="39.6806650" lon="-0.4544280">
        <ele>361.7</ele>
        <time>2022-11-06T06:57:57Z</time>
      </trkpt>
      <trkpt lat="39.6806830" lon="-0.4544150">
        <ele>361.8</ele>
        <time>2022-11-06T06:57:58Z</time>
      </trkpt>
      <trkpt lat="39.6806990" lon="-0.4544020">
        <ele>362.0</ele>
        <time>2022-11-06T06:57:59Z</time>
      </trkpt>
      <trkpt lat="39.6807130" lon="-0.4543880">
        <ele>362.1</ele>
        <time>2022-11-06T06:58:00Z</time>
      </trkpt>
      <trkpt lat="39.6807130" lon="-0.4543880">
        <ele>362.1</ele>
        <time>2022-11-06T06:58:01Z</time>
      </trkpt>
      <trkpt lat="39.6807370" lon="-0.4543730">
        <ele>362.3</ele>
        <time>2022-11-06T06:58:02Z</time>
      </trkpt>
      <trkpt lat="39.6807530" lon="-0.4543620">
        <ele>362.5</ele>
        <time>2022-11-06T06:58:03Z</time>
      </trkpt>
      <trkpt lat="39.6807750" lon="-0.4543180">
        <ele>362.9</ele>
        <time>2022-11-06T06:58:04Z</time>
      </trkpt>
      <trkpt lat="39.6807770" lon="-0.4542930">
        <ele>363.2</ele>
        <time>2022-11-06T06:58:05Z</time>
      </trkpt>
      <trkpt lat="39.6807770" lon="-0.4542680">
        <ele>363.5</ele>
        <time>2022-11-06T06:58:06Z</time>
      </trkpt>
      <trkpt lat="39.6807720" lon="-0.4542470">
        <ele>363.7</ele>
        <time>2022-11-06T06:58:07Z</time>
      </trkpt>
      <trkpt lat="39.6807580" lon="-0.4542270">
        <ele>364.0</ele>
        <time>2022-11-06T06:58:08Z</time>
      </trkpt>
      <trkpt lat="39.6807530" lon="-0.4542120">
        <ele>364.2</ele>
        <time>2022-11-06T06:58:09Z</time>
      </trkpt>
      <trkpt lat="39.6807370" lon="-0.4542000">
        <ele>364.4</ele>
        <time>2022-11-06T06:58:10Z</time>
      </trkpt>
      <trkpt lat="39.6807370" lon="-0.4542000">
        <ele>364.4</ele>
        <time>2022-11-06T06:58:11Z</time>
      </trkpt>
      <trkpt lat="39.6807180" lon="-0.4541900">
        <ele>364.7</ele>
        <time>2022-11-06T06:58:12Z</time>
      </trkpt>
      <trkpt lat="39.6807180" lon="-0.4541900">
        <ele>364.7</ele>
        <time>2022-11-06T06:58:13Z</time>
      </trkpt>
      <trkpt lat="39.6806670" lon="-0.4541520">
        <ele>365.6</ele>
        <time>2022-11-06T06:58:14Z</time>
      </trkpt>
      <trkpt lat="39.6806540" lon="-0.4541330">
        <ele>365.9</ele>
        <time>2022-11-06T06:58:15Z</time>
      </trkpt>
      <trkpt lat="39.6806400" lon="-0.4541150">
        <ele>366.1</ele>
        <time>2022-11-06T06:58:16Z</time>
      </trkpt>
      <trkpt lat="39.6806270" lon="-0.4541020">
        <ele>366.4</ele>
        <time>2022-11-06T06:58:17Z</time>
      </trkpt>
      <trkpt lat="39.6806110" lon="-0.4540880">
        <ele>366.7</ele>
        <time>2022-11-06T06:58:18Z</time>
      </trkpt>
      <trkpt lat="39.6806000" lon="-0.4540750">
        <ele>366.9</ele>
        <time>2022-11-06T06:58:19Z</time>
      </trkpt>
      <trkpt lat="39.6805920" lon="-0.4540570">
        <ele>367.1</ele>
        <time>2022-11-06T06:58:20Z</time>
      </trkpt>
      <trkpt lat="39.6805810" lon="-0.4540380">
        <ele>367.4</ele>
        <time>2022-11-06T06:58:21Z</time>
      </trkpt>
      <trkpt lat="39.6805810" lon="-0.4540380">
        <ele>367.4</ele>
        <time>2022-11-06T06:58:22Z</time>
      </trkpt>
      <trkpt lat="39.6805760" lon="-0.4540180">
        <ele>367.6</ele>
        <time>2022-11-06T06:58:23Z</time>
      </trkpt>
      <trkpt lat="39.6805760" lon="-0.4540180">
        <ele>367.6</ele>
        <time>2022-11-06T06:58:24Z</time>
      </trkpt>
      <trkpt lat="39.6805730" lon="-0.4539530">
        <ele>368.3</ele>
        <time>2022-11-06T06:58:25Z</time>
      </trkpt>
      <trkpt lat="39.6805680" lon="-0.4539300">
        <ele>368.5</ele>
        <time>2022-11-06T06:58:26Z</time>
      </trkpt>
      <trkpt lat="39.6805680" lon="-0.4539070">
        <ele>368.8</ele>
        <time>2022-11-06T06:58:27Z</time>
      </trkpt>
      <trkpt lat="39.6805680" lon="-0.4538870">
        <ele>369.0</ele>
        <time>2022-11-06T06:58:28Z</time>
      </trkpt>
      <trkpt lat="39.6805650" lon="-0.4538670">
        <ele>369.2</ele>
        <time>2022-11-06T06:58:29Z</time>
      </trkpt>
      <trkpt lat="39.6805650" lon="-0.4538470">
        <ele>369.4</ele>
        <time>2022-11-06T06:58:30Z</time>
      </trkpt>
      <trkpt lat="39.6805600" lon="-0.4538270">
        <ele>369.6</ele>
        <time>2022-11-06T06:58:31Z</time>
      </trkpt>
      <trkpt lat="39.6805600" lon="-0.4538270">
        <ele>369.6</ele>
        <time>2022-11-06T06:58:32Z</time>
      </trkpt>
      <trkpt lat="39.6805570" lon="-0.4538120">
        <ele>369.7</ele>
        <time>2022-11-06T06:58:33Z</time>
      </trkpt>
      <trkpt lat="39.6805490" lon="-0.4537780">
        <ele>370.1</ele>
        <time>2022-11-06T06:58:34Z</time>
      </trkpt>
      <trkpt lat="39.6805410" lon="-0.4537600">
        <ele>370.3</ele>
        <time>2022-11-06T06:58:35Z</time>
      </trkpt>
      <trkpt lat="39.6805380" lon="-0.4537420">
        <ele>370.4</ele>
        <time>2022-11-06T06:58:36Z</time>
      </trkpt>
      <trkpt lat="39.6805300" lon="-0.4537250">
        <ele>370.6</ele>
        <time>2022-11-06T06:58:37Z</time>
      </trkpt>
      <trkpt lat="39.6805220" lon="-0.4537050">
        <ele>370.9</ele>
        <time>2022-11-06T06:58:38Z</time>
      </trkpt>
      <trkpt lat="39.6805140" lon="-0.4536870">
        <ele>371.1</ele>
        <time>2022-11-06T06:58:39Z</time>
      </trkpt>
      <trkpt lat="39.6805090" lon="-0.4536700">
        <ele>371.3</ele>
        <time>2022-11-06T06:58:40Z</time>
      </trkpt>
      <trkpt lat="39.6805040" lon="-0.4536530">
        <ele>371.4</ele>
        <time>2022-11-06T06:58:41Z</time>
      </trkpt>
      <trkpt lat="39.6804960" lon="-0.4536350">
        <ele>371.7</ele>
        <time>2022-11-06T06:58:42Z</time>
      </trkpt>
      <trkpt lat="39.6804960" lon="-0.4536350">
        <ele>371.7</ele>
        <time>2022-11-06T06:58:43Z</time>
      </trkpt>
      <trkpt lat="39.6804930" lon="-0.4536180">
        <ele>371.9</ele>
        <time>2022-11-06T06:58:44Z</time>
      </trkpt>
      <trkpt lat="39.6804820" lon="-0.4535850">
        <ele>372.2</ele>
        <time>2022-11-06T06:58:45Z</time>
      </trkpt>
      <trkpt lat="39.6804740" lon="-0.4535680">
        <ele>372.5</ele>
        <time>2022-11-06T06:58:46Z</time>
      </trkpt>
      <trkpt lat="39.6804660" lon="-0.4535520">
        <ele>372.7</ele>
        <time>2022-11-06T06:58:47Z</time>
      </trkpt>
      <trkpt lat="39.6804550" lon="-0.4535330">
        <ele>372.9</ele>
        <time>2022-11-06T06:58:48Z</time>
      </trkpt>
      <trkpt lat="39.6804470" lon="-0.4535130">
        <ele>373.2</ele>
        <time>2022-11-06T06:58:49Z</time>
      </trkpt>
      <trkpt lat="39.6804390" lon="-0.4534950">
        <ele>373.4</ele>
        <time>2022-11-06T06:58:50Z</time>
      </trkpt>
      <trkpt lat="39.6804340" lon="-0.4534770">
        <ele>373.7</ele>
        <time>2022-11-06T06:58:51Z</time>
      </trkpt>
      <trkpt lat="39.6804290" lon="-0.4534580">
        <ele>373.9</ele>
        <time>2022-11-06T06:58:52Z</time>
      </trkpt>
      <trkpt lat="39.6804290" lon="-0.4534580">
        <ele>373.9</ele>
        <time>2022-11-06T06:58:53Z</time>
      </trkpt>
      <trkpt lat="39.6804290" lon="-0.4534580">
        <ele>373.9</ele>
        <time>2022-11-06T06:58:54Z</time>
      </trkpt>
      <trkpt lat="39.6804100" lon="-0.4534000">
        <ele>374.8</ele>
        <time>2022-11-06T06:58:55Z</time>
      </trkpt>
      <trkpt lat="39.6804100" lon="-0.4533800">
        <ele>375.1</ele>
        <time>2022-11-06T06:58:56Z</time>
      </trkpt>
      <trkpt lat="39.6804100" lon="-0.4533580">
        <ele>375.4</ele>
        <time>2022-11-06T06:58:57Z</time>
      </trkpt>
      <trkpt lat="39.6804100" lon="-0.4533400">
        <ele>375.7</ele>
        <time>2022-11-06T06:58:58Z</time>
      </trkpt>
      <trkpt lat="39.6804040" lon="-0.4533200">
        <ele>376.0</ele>
        <time>2022-11-06T06:58:59Z</time>
      </trkpt>
      <trkpt lat="39.6803960" lon="-0.4533020">
        <ele>376.4</ele>
        <time>2022-11-06T06:59:00Z</time>
      </trkpt>
      <trkpt lat="39.6803880" lon="-0.4532870">
        <ele>376.7</ele>
        <time>2022-11-06T06:59:01Z</time>
      </trkpt>
      <trkpt lat="39.6803780" lon="-0.4532750">
        <ele>377.0</ele>
        <time>2022-11-06T06:59:02Z</time>
      </trkpt>
      <trkpt lat="39.6803670" lon="-0.4532600">
        <ele>377.3</ele>
        <time>2022-11-06T06:59:03Z</time>
      </trkpt>
      <trkpt lat="39.6803670" lon="-0.4532600">
        <ele>377.3</ele>
        <time>2022-11-06T06:59:04Z</time>
      </trkpt>
      <trkpt lat="39.6803670" lon="-0.4532600">
        <ele>377.3</ele>
        <time>2022-11-06T06:59:05Z</time>
      </trkpt>
      <trkpt lat="39.6803560" lon="-0.4532100">
        <ele>378.3</ele>
        <time>2022-11-06T06:59:06Z</time>
      </trkpt>
      <trkpt lat="39.6803560" lon="-0.4531930">
        <ele>378.6</ele>
        <time>2022-11-06T06:59:07Z</time>
      </trkpt>
      <trkpt lat="39.6803510" lon="-0.4531780">
        <ele>378.9</ele>
        <time>2022-11-06T06:59:08Z</time>
      </trkpt>
      <trkpt lat="39.6803430" lon="-0.4531730">
        <ele>379.5</ele>
        <time>2022-11-06T06:59:09Z</time>
      </trkpt>
      <trkpt lat="39.6803370" lon="-0.4531780">
        <ele>379.6</ele>
        <time>2022-11-06T06:59:10Z</time>
      </trkpt>
      <trkpt lat="39.6803290" lon="-0.4531930">
        <ele>379.9</ele>
        <time>2022-11-06T06:59:11Z</time>
      </trkpt>
      <trkpt lat="39.6803240" lon="-0.4532070">
        <ele>380.2</ele>
        <time>2022-11-06T06:59:12Z</time>
      </trkpt>
      <trkpt lat="39.6803240" lon="-0.4532070">
        <ele>380.2</ele>
        <time>2022-11-06T06:59:13Z</time>
      </trkpt>
      <trkpt lat="39.6803160" lon="-0.4530980">
        <ele>382.0</ele>
        <time>2022-11-06T06:59:49Z</time>
      </trkpt>
      <trkpt lat="39.6803240" lon="-0.4530870">
        <ele>382.2</ele>
        <time>2022-11-06T06:59:50Z</time>
      </trkpt>
      <trkpt lat="39.6803320" lon="-0.4530730">
        <ele>382.5</ele>
        <time>2022-11-06T06:59:51Z</time>
      </trkpt>
      <trkpt lat="39.6803370" lon="-0.4530580">
        <ele>382.8</ele>
        <time>2022-11-06T06:59:52Z</time>
      </trkpt>
      <trkpt lat="39.6803400" lon="-0.4530420">
        <ele>383.1</ele>
        <time>2022-11-06T06:59:53Z</time>
      </trkpt>
      <trkpt lat="39.6803510" lon="-0.4530320">
        <ele>383.4</ele>
        <time>2022-11-06T06:59:54Z</time>
      </trkpt>
      <trkpt lat="39.6803510" lon="-0.4530320">
        <ele>383.4</ele>
        <time>2022-11-06T06:59:55Z</time>
      </trkpt>
      <trkpt lat="39.6803510" lon="-0.4530320">
        <ele>383.4</ele>
        <time>2022-11-06T06:59:56Z</time>
      </trkpt>
      <trkpt lat="39.6803590" lon="-0.4529830">
        <ele>384.2</ele>
        <time>2022-11-06T06:59:57Z</time>
      </trkpt>
      <trkpt lat="39.6803590" lon="-0.4529680">
        <ele>384.4</ele>
        <time>2022-11-06T06:59:58Z</time>
      </trkpt>
      <trkpt lat="39.6803560" lon="-0.4529520">
        <ele>384.6</ele>
        <time>2022-11-06T06:59:59Z</time>
      </trkpt>
      <trkpt lat="39.6803510" lon="-0.4529330">
        <ele>385.0</ele>
        <time>2022-11-06T07:00:00Z</time>
      </trkpt>
      <trkpt lat="39.6803430" lon="-0.4529150">
        <ele>385.3</ele>
        <time>2022-11-06T07:00:01Z</time>
      </trkpt>
      <trkpt lat="39.6803400" lon="-0.4528970">
        <ele>385.6</ele>
        <time>2022-11-06T07:00:02Z</time>
      </trkpt>
      <trkpt lat="39.6803370" lon="-0.4528720">
        <ele>386.0</ele>
        <time>2022-11-06T07:00:03Z</time>
      </trkpt>
      <trkpt lat="39.6803290" lon="-0.4528530">
        <ele>386.3</ele>
        <time>2022-11-06T07:00:04Z</time>
      </trkpt>
      <trkpt lat="39.6803210" lon="-0.4528330">
        <ele>386.6</ele>
        <time>2022-11-06T07:00:05Z</time>
      </trkpt>
      <trkpt lat="39.6803210" lon="-0.4528330">
        <ele>386.6</ele>
        <time>2022-11-06T07:00:06Z</time>
      </trkpt>
      <trkpt lat="39.6803100" lon="-0.4527970">
        <ele>387.2</ele>
        <time>2022-11-06T07:00:07Z</time>
      </trkpt>
      <trkpt lat="39.6803020" lon="-0.4527800">
        <ele>387.9</ele>
        <time>2022-11-06T07:00:08Z</time>
      </trkpt>
      <trkpt lat="39.6802940" lon="-0.4527600">
        <ele>388.3</ele>
        <time>2022-11-06T07:00:09Z</time>
      </trkpt>
      <trkpt lat="39.6802890" lon="-0.4527430">
        <ele>388.7</ele>
        <time>2022-11-06T07:00:10Z</time>
      </trkpt>
      <trkpt lat="39.6802780" lon="-0.4527280">
        <ele>389.0</ele>
        <time>2022-11-06T07:00:11Z</time>
      </trkpt>
      <trkpt lat="39.6802700" lon="-0.4527150">
        <ele>389.3</ele>
        <time>2022-11-06T07:00:12Z</time>
      </trkpt>
      <trkpt lat="39.6802600" lon="-0.4527070">
        <ele>389.6</ele>
        <time>2022-11-06T07:00:13Z</time>
      </trkpt>
      <trkpt lat="39.6802510" lon="-0.4526920">
        <ele>389.9</ele>
        <time>2022-11-06T07:00:14Z</time>
      </trkpt>
      <trkpt lat="39.6802490" lon="-0.4526800">
        <ele>390.1</ele>
        <time>2022-11-06T07:00:15Z</time>
      </trkpt>
      <trkpt lat="39.6802490" lon="-0.4526800">
        <ele>390.1</ele>
        <time>2022-11-06T07:00:16Z</time>
      </trkpt>
      <trkpt lat="39.6802250" lon="-0.4526630">
        <ele>390.7</ele>
        <time>2022-11-06T07:00:17Z</time>
      </trkpt>
      <trkpt lat="39.6802170" lon="-0.4526550">
        <ele>390.9</ele>
        <time>2022-11-06T07:00:18Z</time>
      </trkpt>
      <trkpt lat="39.6802110" lon="-0.4526480">
        <ele>391.1</ele>
        <time>2022-11-06T07:00:19Z</time>
      </trkpt>
      <trkpt lat="39.6801980" lon="-0.4526380">
        <ele>391.4</ele>
        <time>2022-11-06T07:00:20Z</time>
      </trkpt>
      <trkpt lat="39.6801870" lon="-0.4526330">
        <ele>391.6</ele>
        <time>2022-11-06T07:00:21Z</time>
      </trkpt>
      <trkpt lat="39.6801790" lon="-0.4526300">
        <ele>391.8</ele>
        <time>2022-11-06T07:00:22Z</time>
      </trkpt>
      <trkpt lat="39.6801680" lon="-0.4526270">
        <ele>392.0</ele>
        <time>2022-11-06T07:00:23Z</time>
      </trkpt>
      <trkpt lat="39.6801600" lon="-0.4526250">
        <ele>392.1</ele>
        <time>2022-11-06T07:00:24Z</time>
      </trkpt>
      <trkpt lat="39.6801440" lon="-0.4526230">
        <ele>392.4</ele>
        <time>2022-11-06T07:00:25Z</time>
      </trkpt>
      <trkpt lat="39.6801310" lon="-0.4526180">
        <ele>392.6</ele>
        <time>2022-11-06T07:00:26Z</time>
      </trkpt>
      <trkpt lat="39.6801310" lon="-0.4526180">
        <ele>392.6</ele>
        <time>2022-11-06T07:00:27Z</time>
      </trkpt>
      <trkpt lat="39.6801040" lon="-0.4526130">
        <ele>393.1</ele>
        <time>2022-11-06T07:00:28Z</time>
      </trkpt>
      <trkpt lat="39.6800880" lon="-0.4526120">
        <ele>393.3</ele>
        <time>2022-11-06T07:00:29Z</time>
      </trkpt>
      <trkpt lat="39.6800770" lon="-0.4526100">
        <ele>393.5</ele>
        <time>2022-11-06T07:00:30Z</time>
      </trkpt>
      <trkpt lat="39.6800660" lon="-0.4526120">
        <ele>393.7</ele>
        <time>2022-11-06T07:00:31Z</time>
      </trkpt>
      <trkpt lat="39.6800530" lon="-0.4526120">
        <ele>393.9</ele>
        <time>2022-11-06T07:00:32Z</time>
      </trkpt>
      <trkpt lat="39.6800400" lon="-0.4526080">
        <ele>394.1</ele>
        <time>2022-11-06T07:00:33Z</time>
      </trkpt>
      <trkpt lat="39.6800260" lon="-0.4526050">
        <ele>394.3</ele>
        <time>2022-11-06T07:00:34Z</time>
      </trkpt>
      <trkpt lat="39.6800150" lon="-0.4526020">
        <ele>394.5</ele>
        <time>2022-11-06T07:00:35Z</time>
      </trkpt>
      <trkpt lat="39.6800150" lon="-0.4526020">
        <ele>394.5</ele>
        <time>2022-11-06T07:00:36Z</time>
      </trkpt>
      <trkpt lat="39.6800150" lon="-0.4526020">
        <ele>394.5</ele>
        <time>2022-11-06T07:00:37Z</time>
      </trkpt>
      <trkpt lat="39.6799730" lon="-0.4525950">
        <ele>395.1</ele>
        <time>2022-11-06T07:00:38Z</time>
      </trkpt>
      <trkpt lat="39.6799620" lon="-0.4525920">
        <ele>395.3</ele>
        <time>2022-11-06T07:00:39Z</time>
      </trkpt>
      <trkpt lat="39.6799460" lon="-0.4525900">
        <ele>395.5</ele>
        <time>2022-11-06T07:00:40Z</time>
      </trkpt>
      <trkpt lat="39.6799350" lon="-0.4525900">
        <ele>395.7</ele>
        <time>2022-11-06T07:00:41Z</time>
      </trkpt>
      <trkpt lat="39.6799190" lon="-0.4525880">
        <ele>395.9</ele>
        <time>2022-11-06T07:00:42Z</time>
      </trkpt>
      <trkpt lat="39.6799080" lon="-0.4525900">
        <ele>396.1</ele>
        <time>2022-11-06T07:00:43Z</time>
      </trkpt>
      <trkpt lat="39.6798950" lon="-0.4525900">
        <ele>396.3</ele>
        <time>2022-11-06T07:00:44Z</time>
      </trkpt>
      <trkpt lat="39.6798810" lon="-0.4525900">
        <ele>396.5</ele>
        <time>2022-11-06T07:00:45Z</time>
      </trkpt>
      <trkpt lat="39.6798680" lon="-0.4525900">
        <ele>396.8</ele>
        <time>2022-11-06T07:00:46Z</time>
      </trkpt>
      <trkpt lat="39.6798680" lon="-0.4525900">
        <ele>396.8</ele>
        <time>2022-11-06T07:00:47Z</time>
      </trkpt>
      <trkpt lat="39.6798680" lon="-0.4525900">
        <ele>396.8</ele>
        <time>2022-11-06T07:00:48Z</time>
      </trkpt>
      <trkpt lat="39.6798360" lon="-0.4526170">
        <ele>397.3</ele>
        <time>2022-11-06T07:00:49Z</time>
      </trkpt>
      <trkpt lat="39.6798250" lon="-0.4526250">
        <ele>397.5</ele>
        <time>2022-11-06T07:00:50Z</time>
      </trkpt>
      <trkpt lat="39.6798140" lon="-0.4526350">
        <ele>397.7</ele>
        <time>2022-11-06T07:00:51Z</time>
      </trkpt>
      <trkpt lat="39.6797980" lon="-0.4526430">
        <ele>398.0</ele>
        <time>2022-11-06T07:00:52Z</time>
      </trkpt>
      <trkpt lat="39.6797870" lon="-0.4526480">
        <ele>398.2</ele>
        <time>2022-11-06T07:00:53Z</time>
      </trkpt>
      <trkpt lat="39.6797790" lon="-0.4526570">
        <ele>398.3</ele>
        <time>2022-11-06T07:00:54Z</time>
      </trkpt>
      <trkpt lat="39.6797690" lon="-0.4526650">
        <ele>398.5</ele>
        <time>2022-11-06T07:00:55Z</time>
      </trkpt>
      <trkpt lat="39.6797550" lon="-0.4526680">
        <ele>398.7</ele>
        <time>2022-11-06T07:00:56Z</time>
      </trkpt>
      <trkpt lat="39.6797550" lon="-0.4526680">
        <ele>398.7</ele>
        <time>2022-11-06T07:00:57Z</time>
      </trkpt>
      <trkpt lat="39.6797340" lon="-0.4526770">
        <ele>399.0</ele>
        <time>2022-11-06T07:00:58Z</time>
      </trkpt>
      <trkpt lat="39.6797230" lon="-0.4526830">
        <ele>399.2</ele>
        <time>2022-11-06T07:00:59Z</time>
      </trkpt>
      <trkpt lat="39.6797100" lon="-0.4526870">
        <ele>399.4</ele>
        <time>2022-11-06T07:01:00Z</time>
      </trkpt>
      <trkpt lat="39.6796960" lon="-0.4526920">
        <ele>399.6</ele>
        <time>2022-11-06T07:01:01Z</time>
      </trkpt>
      <trkpt lat="39.6796830" lon="-0.4526900">
        <ele>399.8</ele>
        <time>2022-11-06T07:01:02Z</time>
      </trkpt>
      <trkpt lat="39.6796690" lon="-0.4526900">
        <ele>400.0</ele>
        <time>2022-11-06T07:01:03Z</time>
      </trkpt>
      <trkpt lat="39.6796560" lon="-0.4526950">
        <ele>400.1</ele>
        <time>2022-11-06T07:01:04Z</time>
      </trkpt>
      <trkpt lat="39.6796430" lon="-0.4526980">
        <ele>400.3</ele>
        <time>2022-11-06T07:01:05Z</time>
      </trkpt>
      <trkpt lat="39.6796270" lon="-0.4526970">
        <ele>400.5</ele>
        <time>2022-11-06T07:01:06Z</time>
      </trkpt>
      <trkpt lat="39.6796100" lon="-0.4526980">
        <ele>400.8</ele>
        <time>2022-11-06T07:01:07Z</time>
      </trkpt>
      <trkpt lat="39.6796100" lon="-0.4526980">
        <ele>400.8</ele>
        <time>2022-11-06T07:01:08Z</time>
      </trkpt>
      <trkpt lat="39.6795810" lon="-0.4526970">
        <ele>401.2</ele>
        <time>2022-11-06T07:01:09Z</time>
      </trkpt>
      <trkpt lat="39.6795620" lon="-0.4526970">
        <ele>401.4</ele>
        <time>2022-11-06T07:01:10Z</time>
      </trkpt>
      <trkpt lat="39.6795510" lon="-0.4527000">
        <ele>401.5</ele>
        <time>2022-11-06T07:01:11Z</time>
      </trkpt>
      <trkpt lat="39.6795350" lon="-0.4527030">
        <ele>401.7</ele>
        <time>2022-11-06T07:01:12Z</time>
      </trkpt>
      <trkpt lat="39.6795190" lon="-0.4527080">
        <ele>401.9</ele>
        <time>2022-11-06T07:01:13Z</time>
      </trkpt>
      <trkpt lat="39.6795030" lon="-0.4527100">
        <ele>402.1</ele>
        <time>2022-11-06T07:01:14Z</time>
      </trkpt>
      <trkpt lat="39.6794900" lon="-0.4527080">
        <ele>402.3</ele>
        <time>2022-11-06T07:01:15Z</time>
      </trkpt>
      <trkpt lat="39.6794740" lon="-0.4527070">
        <ele>402.4</ele>
        <time>2022-11-06T07:01:16Z</time>
      </trkpt>
      <trkpt lat="39.6794740" lon="-0.4527070">
        <ele>402.4</ele>
        <time>2022-11-06T07:01:17Z</time>
      </trkpt>
      <trkpt lat="39.6794740" lon="-0.4527070">
        <ele>402.4</ele>
        <time>2022-11-06T07:01:18Z</time>
      </trkpt>
      <trkpt lat="39.6794310" lon="-0.4526770">
        <ele>403.0</ele>
        <time>2022-11-06T07:01:19Z</time>
      </trkpt>
      <trkpt lat="39.6794250" lon="-0.4526630">
        <ele>403.1</ele>
        <time>2022-11-06T07:01:20Z</time>
      </trkpt>
      <trkpt lat="39.6794280" lon="-0.4526520">
        <ele>403.2</ele>
        <time>2022-11-06T07:01:21Z</time>
      </trkpt>
      <trkpt lat="39.6794360" lon="-0.4526420">
        <ele>403.3</ele>
        <time>2022-11-06T07:01:22Z</time>
      </trkpt>
      <trkpt lat="39.6794520" lon="-0.4526370">
        <ele>403.5</ele>
        <time>2022-11-06T07:01:23Z</time>
      </trkpt>
      <trkpt lat="39.6794710" lon="-0.4526330">
        <ele>403.5</ele>
        <time>2022-11-06T07:01:24Z</time>
      </trkpt>
      <trkpt lat="39.6794840" lon="-0.4526270">
        <ele>403.6</ele>
        <time>2022-11-06T07:01:25Z</time>
      </trkpt>
      <trkpt lat="39.6795090" lon="-0.4526220">
        <ele>403.6</ele>
        <time>2022-11-06T07:01:26Z</time>
      </trkpt>
      <trkpt lat="39.6795300" lon="-0.4526180">
        <ele>403.7</ele>
        <time>2022-11-06T07:01:27Z</time>
      </trkpt>
      <trkpt lat="39.6795300" lon="-0.4526180">
        <ele>403.7</ele>
        <time>2022-11-06T07:01:28Z</time>
      </trkpt>
      <trkpt lat="39.6795300" lon="-0.4526180">
        <ele>403.7</ele>
        <time>2022-11-06T07:01:29Z</time>
      </trkpt>
      <trkpt lat="39.6795920" lon="-0.4525870">
        <ele>403.8</ele>
        <time>2022-11-06T07:01:30Z</time>
      </trkpt>
      <trkpt lat="39.6796100" lon="-0.4525750">
        <ele>403.9</ele>
        <time>2022-11-06T07:01:31Z</time>
      </trkpt>
      <trkpt lat="39.6796290" lon="-0.4525650">
        <ele>403.9</ele>
        <time>2022-11-06T07:01:32Z</time>
      </trkpt>
      <trkpt lat="39.6796510" lon="-0.4525520">
        <ele>404.0</ele>
        <time>2022-11-06T07:01:33Z</time>
      </trkpt>
      <trkpt lat="39.6796690" lon="-0.4525380">
        <ele>404.0</ele>
        <time>2022-11-06T07:01:34Z</time>
      </trkpt>
      <trkpt lat="39.6796880" lon="-0.4525250">
        <ele>404.1</ele>
        <time>2022-11-06T07:01:35Z</time>
      </trkpt>
      <trkpt lat="39.6797070" lon="-0.4525080">
        <ele>404.1</ele>
        <time>2022-11-06T07:01:36Z</time>
      </trkpt>
      <trkpt lat="39.6797230" lon="-0.4524880">
        <ele>404.2</ele>
        <time>2022-11-06T07:01:37Z</time>
      </trkpt>
      <trkpt lat="39.6797230" lon="-0.4524880">
        <ele>404.2</ele>
        <time>2022-11-06T07:01:38Z</time>
      </trkpt>
      <trkpt lat="39.6797550" lon="-0.4524480">
        <ele>404.3</ele>
        <time>2022-11-06T07:01:39Z</time>
      </trkpt>
      <trkpt lat="39.6797710" lon="-0.4524300">
        <ele>404.3</ele>
        <time>2022-11-06T07:01:40Z</time>
      </trkpt>
      <trkpt lat="39.6797960" lon="-0.4524120">
        <ele>404.4</ele>
        <time>2022-11-06T07:01:41Z</time>
      </trkpt>
      <trkpt lat="39.6798140" lon="-0.4523950">
        <ele>404.4</ele>
        <time>2022-11-06T07:01:42Z</time>
      </trkpt>
      <trkpt lat="39.6798330" lon="-0.4523820">
        <ele>404.5</ele>
        <time>2022-11-06T07:01:43Z</time>
      </trkpt>
      <trkpt lat="39.6798550" lon="-0.4523670">
        <ele>404.5</ele>
        <time>2022-11-06T07:01:44Z</time>
      </trkpt>
      <trkpt lat="39.6798710" lon="-0.4523450">
        <ele>404.6</ele>
        <time>2022-11-06T07:01:45Z</time>
      </trkpt>
      <trkpt lat="39.6798950" lon="-0.4523270">
        <ele>404.6</ele>
        <time>2022-11-06T07:01:46Z</time>
      </trkpt>
      <trkpt lat="39.6799080" lon="-0.4523080">
        <ele>404.7</ele>
        <time>2022-11-06T07:01:47Z</time>
      </trkpt>
      <trkpt lat="39.6799240" lon="-0.4522880">
        <ele>404.7</ele>
        <time>2022-11-06T07:01:48Z</time>
      </trkpt>
      <trkpt lat="39.6799240" lon="-0.4522880">
        <ele>404.7</ele>
        <time>2022-11-06T07:01:49Z</time>
      </trkpt>
      <trkpt lat="39.6799620" lon="-0.4522480">
        <ele>404.8</ele>
        <time>2022-11-06T07:01:50Z</time>
      </trkpt>
      <trkpt lat="39.6799780" lon="-0.4522200">
        <ele>404.9</ele>
        <time>2022-11-06T07:01:51Z</time>
      </trkpt>
      <trkpt lat="39.6799990" lon="-0.4521950">
        <ele>405.0</ele>
        <time>2022-11-06T07:01:52Z</time>
      </trkpt>
      <trkpt lat="39.6800230" lon="-0.4521720">
        <ele>405.0</ele>
        <time>2022-11-06T07:01:53Z</time>
      </trkpt>
      <trkpt lat="39.6800500" lon="-0.4521430">
        <ele>405.1</ele>
        <time>2022-11-06T07:01:54Z</time>
      </trkpt>
      <trkpt lat="39.6800770" lon="-0.4521170">
        <ele>405.2</ele>
        <time>2022-11-06T07:01:55Z</time>
      </trkpt>
      <trkpt lat="39.6801040" lon="-0.4520920">
        <ele>405.3</ele>
        <time>2022-11-06T07:01:56Z</time>
      </trkpt>
      <trkpt lat="39.6801310" lon="-0.4520630">
        <ele>405.3</ele>
        <time>2022-11-06T07:01:57Z</time>
      </trkpt>
      <trkpt lat="39.6801580" lon="-0.4520380">
        <ele>405.4</ele>
        <time>2022-11-06T07:01:58Z</time>
      </trkpt>
      <trkpt lat="39.6801580" lon="-0.4520380">
        <ele>405.4</ele>
        <time>2022-11-06T07:01:59Z</time>
      </trkpt>
      <trkpt lat="39.6802110" lon="-0.4519980">
        <ele>405.4</ele>
        <time>2022-11-06T07:02:00Z</time>
      </trkpt>
      <trkpt lat="39.6802430" lon="-0.4519900">
        <ele>405.5</ele>
        <time>2022-11-06T07:02:01Z</time>
      </trkpt>
      <trkpt lat="39.6802890" lon="-0.4519900">
        <ele>405.5</ele>
        <time>2022-11-06T07:02:02Z</time>
      </trkpt>
      <trkpt lat="39.6803370" lon="-0.4520020">
        <ele>405.5</ele>
        <time>2022-11-06T07:02:03Z</time>
      </trkpt>
      <trkpt lat="39.6803750" lon="-0.4520250">
        <ele>405.5</ele>
        <time>2022-11-06T07:02:04Z</time>
      </trkpt>
      <trkpt lat="39.6804100" lon="-0.4520480">
        <ele>405.5</ele>
        <time>2022-11-06T07:02:05Z</time>
      </trkpt>
      <trkpt lat="39.6804390" lon="-0.4520700">
        <ele>405.5</ele>
        <time>2022-11-06T07:02:06Z</time>
      </trkpt>
      <trkpt lat="39.6804740" lon="-0.4520930">
        <ele>405.6</ele>
        <time>2022-11-06T07:02:07Z</time>
      </trkpt>
      <trkpt lat="39.6805040" lon="-0.4521150">
        <ele>405.6</ele>
        <time>2022-11-06T07:02:08Z</time>
      </trkpt>
      <trkpt lat="39.6805380" lon="-0.4521320">
        <ele>405.7</ele>
        <time>2022-11-06T07:02:09Z</time>
      </trkpt>
      <trkpt lat="39.6805380" lon="-0.4521320">
        <ele>405.7</ele>
        <time>2022-11-06T07:02:10Z</time>
      </trkpt>
      <trkpt lat="39.6806110" lon="-0.4521630">
        <ele>405.9</ele>
        <time>2022-11-06T07:02:11Z</time>
      </trkpt>
      <trkpt lat="39.6806460" lon="-0.4521750">
        <ele>406.0</ele>
        <time>2022-11-06T07:02:12Z</time>
      </trkpt>
      <trkpt lat="39.6806810" lon="-0.4521770">
        <ele>406.1</ele>
        <time>2022-11-06T07:02:13Z</time>
      </trkpt>
      <trkpt lat="39.6807130" lon="-0.4521780">
        <ele>406.2</ele>
        <time>2022-11-06T07:02:14Z</time>
      </trkpt>
      <trkpt lat="39.6807530" lon="-0.4521780">
        <ele>406.4</ele>
        <time>2022-11-06T07:02:15Z</time>
      </trkpt>
      <trkpt lat="39.6807830" lon="-0.4521780">
        <ele>406.6</ele>
        <time>2022-11-06T07:02:16Z</time>
      </trkpt>
      <trkpt lat="39.6808120" lon="-0.4521800">
        <ele>406.7</ele>
        <time>2022-11-06T07:02:17Z</time>
      </trkpt>
      <trkpt lat="39.6808440" lon="-0.4521820">
        <ele>406.9</ele>
        <time>2022-11-06T07:02:18Z</time>
      </trkpt>
      <trkpt lat="39.6808440" lon="-0.4521820">
        <ele>406.9</ele>
        <time>2022-11-06T07:02:19Z</time>
      </trkpt>
      <trkpt lat="39.6808440" lon="-0.4521820">
        <ele>406.9</ele>
        <time>2022-11-06T07:02:20Z</time>
      </trkpt>
      <trkpt lat="39.6809350" lon="-0.4521750">
        <ele>407.3</ele>
        <time>2022-11-06T07:02:21Z</time>
      </trkpt>
      <trkpt lat="39.6809650" lon="-0.4521720">
        <ele>407.5</ele>
        <time>2022-11-06T07:02:22Z</time>
      </trkpt>
      <trkpt lat="39.6809970" lon="-0.4521700">
        <ele>407.6</ele>
        <time>2022-11-06T07:02:23Z</time>
      </trkpt>
      <trkpt lat="39.6810270" lon="-0.4521700">
        <ele>407.8</ele>
        <time>2022-11-06T07:02:24Z</time>
      </trkpt>
      <trkpt lat="39.6810560" lon="-0.4521700">
        <ele>407.9</ele>
        <time>2022-11-06T07:02:25Z</time>
      </trkpt>
      <trkpt lat="39.6810880" lon="-0.4521720">
        <ele>408.1</ele>
        <time>2022-11-06T07:02:26Z</time>
      </trkpt>
      <trkpt lat="39.6811210" lon="-0.4521730">
        <ele>408.2</ele>
        <time>2022-11-06T07:02:27Z</time>
      </trkpt>
      <trkpt lat="39.6811530" lon="-0.4521780">
        <ele>408.4</ele>
        <time>2022-11-06T07:02:28Z</time>
      </trkpt>
      <trkpt lat="39.6811880" lon="-0.4521770">
        <ele>408.5</ele>
        <time>2022-11-06T07:02:29Z</time>
      </trkpt>
      <trkpt lat="39.6811880" lon="-0.4521770">
        <ele>408.5</ele>
        <time>2022-11-06T07:02:30Z</time>
      </trkpt>
      <trkpt lat="39.6811880" lon="-0.4521770">
        <ele>408.5</ele>
        <time>2022-11-06T07:02:31Z</time>
      </trkpt>
      <trkpt lat="39.6812890" lon="-0.4521730">
        <ele>408.9</ele>
        <time>2022-11-06T07:02:32Z</time>
      </trkpt>
      <trkpt lat="39.6813190" lon="-0.4521680">
        <ele>409.1</ele>
        <time>2022-11-06T07:02:33Z</time>
      </trkpt>
      <trkpt lat="39.6813540" lon="-0.4521680">
        <ele>409.2</ele>
        <time>2022-11-06T07:02:34Z</time>
      </trkpt>
      <trkpt lat="39.6813860" lon="-0.4521680">
        <ele>409.4</ele>
        <time>2022-11-06T07:02:35Z</time>
      </trkpt>
      <trkpt lat="39.6814160" lon="-0.4521670">
        <ele>409.5</ele>
        <time>2022-11-06T07:02:36Z</time>
      </trkpt>
      <trkpt lat="39.6814450" lon="-0.4521630">
        <ele>409.7</ele>
        <time>2022-11-06T07:02:37Z</time>
      </trkpt>
      <trkpt lat="39.6814770" lon="-0.4521570">
        <ele>409.9</ele>
        <time>2022-11-06T07:02:38Z</time>
      </trkpt>
      <trkpt lat="39.6815070" lon="-0.4521530">
        <ele>410.1</ele>
        <time>2022-11-06T07:02:39Z</time>
      </trkpt>
      <trkpt lat="39.6815070" lon="-0.4521530">
        <ele>410.1</ele>
        <time>2022-11-06T07:02:40Z</time>
      </trkpt>
      <trkpt lat="39.6815680" lon="-0.4521420">
        <ele>410.5</ele>
        <time>2022-11-06T07:02:41Z</time>
      </trkpt>
      <trkpt lat="39.6815950" lon="-0.4521380">
        <ele>410.7</ele>
        <time>2022-11-06T07:02:42Z</time>
      </trkpt>
      <trkpt lat="39.6816220" lon="-0.4521320">
        <ele>410.9</ele>
        <time>2022-11-06T07:02:43Z</time>
      </trkpt>
      <trkpt lat="39.6816520" lon="-0.4521280">
        <ele>411.1</ele>
        <time>2022-11-06T07:02:44Z</time>
      </trkpt>
      <trkpt lat="39.6816780" lon="-0.4521230">
        <ele>411.3</ele>
        <time>2022-11-06T07:02:45Z</time>
      </trkpt>
      <trkpt lat="39.6817050" lon="-0.4521200">
        <ele>411.5</ele>
        <time>2022-11-06T07:02:46Z</time>
      </trkpt>
      <trkpt lat="39.6817350" lon="-0.4521180">
        <ele>411.7</ele>
        <time>2022-11-06T07:02:47Z</time>
      </trkpt>
      <trkpt lat="39.6817620" lon="-0.4521170">
        <ele>411.9</ele>
        <time>2022-11-06T07:02:48Z</time>
      </trkpt>
      <trkpt lat="39.6817880" lon="-0.4521120">
        <ele>412.1</ele>
        <time>2022-11-06T07:02:49Z</time>
      </trkpt>
      <trkpt lat="39.6818150" lon="-0.4521050">
        <ele>412.3</ele>
        <time>2022-11-06T07:02:50Z</time>
      </trkpt>
      <trkpt lat="39.6818150" lon="-0.4521050">
        <ele>412.3</ele>
        <time>2022-11-06T07:02:51Z</time>
      </trkpt>
      <trkpt lat="39.6818660" lon="-0.4520750">
        <ele>412.7</ele>
        <time>2022-11-06T07:02:52Z</time>
      </trkpt>
      <trkpt lat="39.6818880" lon="-0.4520630">
        <ele>412.9</ele>
        <time>2022-11-06T07:02:53Z</time>
      </trkpt>
      <trkpt lat="39.6819120" lon="-0.4520480">
        <ele>413.1</ele>
        <time>2022-11-06T07:02:54Z</time>
      </trkpt>
      <trkpt lat="39.6819390" lon="-0.4520330">
        <ele>413.3</ele>
        <time>2022-11-06T07:02:55Z</time>
      </trkpt>
      <trkpt lat="39.6819600" lon="-0.4520220">
        <ele>413.4</ele>
        <time>2022-11-06T07:02:56Z</time>
      </trkpt>
      <trkpt lat="39.6819840" lon="-0.4520100">
        <ele>413.6</ele>
        <time>2022-11-06T07:02:57Z</time>
      </trkpt>
      <trkpt lat="39.6820060" lon="-0.4519950">
        <ele>413.8</ele>
        <time>2022-11-06T07:02:58Z</time>
      </trkpt>
      <trkpt lat="39.6820220" lon="-0.4519750">
        <ele>413.9</ele>
        <time>2022-11-06T07:02:59Z</time>
      </trkpt>
      <trkpt lat="39.6820220" lon="-0.4519750">
        <ele>413.9</ele>
        <time>2022-11-06T07:03:00Z</time>
      </trkpt>
      <trkpt lat="39.6820220" lon="-0.4519750">
        <ele>413.9</ele>
        <time>2022-11-06T07:03:01Z</time>
      </trkpt>
      <trkpt lat="39.6820780" lon="-0.4519280">
        <ele>414.4</ele>
        <time>2022-11-06T07:03:02Z</time>
      </trkpt>
      <trkpt lat="39.6821000" lon="-0.4519130">
        <ele>414.5</ele>
        <time>2022-11-06T07:03:03Z</time>
      </trkpt>
      <trkpt lat="39.6821130" lon="-0.4518980">
        <ele>414.7</ele>
        <time>2022-11-06T07:03:04Z</time>
      </trkpt>
      <trkpt lat="39.6821290" lon="-0.4518830">
        <ele>414.8</ele>
        <time>2022-11-06T07:03:05Z</time>
      </trkpt>
      <trkpt lat="39.6821500" lon="-0.4518720">
        <ele>415.0</ele>
        <time>2022-11-06T07:03:06Z</time>
      </trkpt>
      <trkpt lat="39.6821720" lon="-0.4518570">
        <ele>415.1</ele>
        <time>2022-11-06T07:03:07Z</time>
      </trkpt>
      <trkpt lat="39.6821910" lon="-0.4518430">
        <ele>415.3</ele>
        <time>2022-11-06T07:03:08Z</time>
      </trkpt>
      <trkpt lat="39.6822120" lon="-0.4518320">
        <ele>415.5</ele>
        <time>2022-11-06T07:03:09Z</time>
      </trkpt>
      <trkpt lat="39.6822310" lon="-0.4518200">
        <ele>415.6</ele>
        <time>2022-11-06T07:03:10Z</time>
      </trkpt>
      <trkpt lat="39.6822310" lon="-0.4518200">
        <ele>415.6</ele>
        <time>2022-11-06T07:03:11Z</time>
      </trkpt>
      <trkpt lat="39.6822310" lon="-0.4518200">
        <ele>415.6</ele>
        <time>2022-11-06T07:03:12Z</time>
      </trkpt>
      <trkpt lat="39.6822820" lon="-0.4517770">
        <ele>416.1</ele>
        <time>2022-11-06T07:03:13Z</time>
      </trkpt>
      <trkpt lat="39.6823030" lon="-0.4517630">
        <ele>416.3</ele>
        <time>2022-11-06T07:03:14Z</time>
      </trkpt>
      <trkpt lat="39.6823220" lon="-0.4517480">
        <ele>416.5</ele>
        <time>2022-11-06T07:03:15Z</time>
      </trkpt>
      <trkpt lat="39.6823440" lon="-0.4517330">
        <ele>416.7</ele>
        <time>2022-11-06T07:03:16Z</time>
      </trkpt>
      <trkpt lat="39.6823650" lon="-0.4517220">
        <ele>416.9</ele>
        <time>2022-11-06T07:03:17Z</time>
      </trkpt>
      <trkpt lat="39.6823840" lon="-0.4517100">
        <ele>417.1</ele>
        <time>2022-11-06T07:03:18Z</time>
      </trkpt>
      <trkpt lat="39.6824110" lon="-0.4517000">
        <ele>417.3</ele>
        <time>2022-11-06T07:03:19Z</time>
      </trkpt>
      <trkpt lat="39.6824350" lon="-0.4516870">
        <ele>417.6</ele>
        <time>2022-11-06T07:03:20Z</time>
      </trkpt>
      <trkpt lat="39.6824350" lon="-0.4516870">
        <ele>417.6</ele>
        <time>2022-11-06T07:03:21Z</time>
      </trkpt>
      <trkpt lat="39.6824800" lon="-0.4516680">
        <ele>418.0</ele>
        <time>2022-11-06T07:03:22Z</time>
      </trkpt>
      <trkpt lat="39.6825070" lon="-0.4516580">
        <ele>418.2</ele>
        <time>2022-11-06T07:03:23Z</time>
      </trkpt>
      <trkpt lat="39.6825260" lon="-0.4516500">
        <ele>418.4</ele>
        <time>2022-11-06T07:03:24Z</time>
      </trkpt>
      <trkpt lat="39.6825530" lon="-0.4516420">
        <ele>418.7</ele>
        <time>2022-11-06T07:03:25Z</time>
      </trkpt>
      <trkpt lat="39.6825740" lon="-0.4516320">
        <ele>418.9</ele>
        <time>2022-11-06T07:03:26Z</time>
      </trkpt>
      <trkpt lat="39.6825980" lon="-0.4516230">
        <ele>419.1</ele>
        <time>2022-11-06T07:03:27Z</time>
      </trkpt>
      <trkpt lat="39.6826200" lon="-0.4516150">
        <ele>419.3</ele>
        <time>2022-11-06T07:03:28Z</time>
      </trkpt>
      <trkpt lat="39.6826440" lon="-0.4516080">
        <ele>419.5</ele>
        <time>2022-11-06T07:03:29Z</time>
      </trkpt>
      <trkpt lat="39.6826630" lon="-0.4515970">
        <ele>419.8</ele>
        <time>2022-11-06T07:03:30Z</time>
      </trkpt>
      <trkpt lat="39.6826820" lon="-0.4515850">
        <ele>420.0</ele>
        <time>2022-11-06T07:03:31Z</time>
      </trkpt>
      <trkpt lat="39.6826820" lon="-0.4515850">
        <ele>420.0</ele>
        <time>2022-11-06T07:03:32Z</time>
      </trkpt>
      <trkpt lat="39.6827190" lon="-0.4515720">
        <ele>420.4</ele>
        <time>2022-11-06T07:03:33Z</time>
      </trkpt>
      <trkpt lat="39.6827430" lon="-0.4515650">
        <ele>420.6</ele>
        <time>2022-11-06T07:03:34Z</time>
      </trkpt>
      <trkpt lat="39.6827620" lon="-0.4515580">
        <ele>420.9</ele>
        <time>2022-11-06T07:03:35Z</time>
      </trkpt>
      <trkpt lat="39.6827860" lon="-0.4515530">
        <ele>421.2</ele>
        <time>2022-11-06T07:03:36Z</time>
      </trkpt>
      <trkpt lat="39.6828050" lon="-0.4515480">
        <ele>421.4</ele>
        <time>2022-11-06T07:03:37Z</time>
      </trkpt>
      <trkpt lat="39.6828240" lon="-0.4515470">
        <ele>421.6</ele>
        <time>2022-11-06T07:03:38Z</time>
      </trkpt>
      <trkpt lat="39.6828420" lon="-0.4515400">
        <ele>421.8</ele>
        <time>2022-11-06T07:03:39Z</time>
      </trkpt>
      <trkpt lat="39.6828610" lon="-0.4515350">
        <ele>422.1</ele>
        <time>2022-11-06T07:03:40Z</time>
      </trkpt>
      <trkpt lat="39.6828610" lon="-0.4515350">
        <ele>422.1</ele>
        <time>2022-11-06T07:03:41Z</time>
      </trkpt>
      <trkpt lat="39.6828610" lon="-0.4515350">
        <ele>422.1</ele>
        <time>2022-11-06T07:03:42Z</time>
      </trkpt>
      <trkpt lat="39.6829180" lon="-0.4515250">
        <ele>422.7</ele>
        <time>2022-11-06T07:03:43Z</time>
      </trkpt>
      <trkpt lat="39.6829420" lon="-0.4515180">
        <ele>423.0</ele>
        <time>2022-11-06T07:03:44Z</time>
      </trkpt>
      <trkpt lat="39.6829610" lon="-0.4515150">
        <ele>423.3</ele>
        <time>2022-11-06T07:03:45Z</time>
      </trkpt>
      <trkpt lat="39.6829850" lon="-0.4515150">
        <ele>423.6</ele>
        <time>2022-11-06T07:03:46Z</time>
      </trkpt>
      <trkpt lat="39.6830030" lon="-0.4515130">
        <ele>423.8</ele>
        <time>2022-11-06T07:03:47Z</time>
      </trkpt>
      <trkpt lat="39.6830220" lon="-0.4515130">
        <ele>424.0</ele>
        <time>2022-11-06T07:03:48Z</time>
      </trkpt>
      <trkpt lat="39.6830410" lon="-0.4515130">
        <ele>424.3</ele>
        <time>2022-11-06T07:03:49Z</time>
      </trkpt>
      <trkpt lat="39.6830600" lon="-0.4515120">
        <ele>424.5</ele>
        <time>2022-11-06T07:03:50Z</time>
      </trkpt>
      <trkpt lat="39.6830760" lon="-0.4515150">
        <ele>424.7</ele>
        <time>2022-11-06T07:03:51Z</time>
      </trkpt>
      <trkpt lat="39.6830760" lon="-0.4515150">
        <ele>424.7</ele>
        <time>2022-11-06T07:03:52Z</time>
      </trkpt>
      <trkpt lat="39.6830760" lon="-0.4515150">
        <ele>424.7</ele>
        <time>2022-11-06T07:03:53Z</time>
      </trkpt>
      <trkpt lat="39.6831290" lon="-0.4515150">
        <ele>425.4</ele>
        <time>2022-11-06T07:03:54Z</time>
      </trkpt>
      <trkpt lat="39.6831480" lon="-0.4515130">
        <ele>425.7</ele>
        <time>2022-11-06T07:03:55Z</time>
      </trkpt>
      <trkpt lat="39.6831670" lon="-0.4515100">
        <ele>425.9</ele>
        <time>2022-11-06T07:03:56Z</time>
      </trkpt>
      <trkpt lat="39.6831800" lon="-0.4515100">
        <ele>426.1</ele>
        <time>2022-11-06T07:03:57Z</time>
      </trkpt>
      <trkpt lat="39.6832020" lon="-0.4515130">
        <ele>426.4</ele>
        <time>2022-11-06T07:03:58Z</time>
      </trkpt>
      <trkpt lat="39.6832150" lon="-0.4515130">
        <ele>426.6</ele>
        <time>2022-11-06T07:03:59Z</time>
      </trkpt>
      <trkpt lat="39.6832340" lon="-0.4515130">
        <ele>426.8</ele>
        <time>2022-11-06T07:04:00Z</time>
      </trkpt>
      <trkpt lat="39.6832500" lon="-0.4515100">
        <ele>427.0</ele>
        <time>2022-11-06T07:04:01Z</time>
      </trkpt>
      <trkpt lat="39.6832500" lon="-0.4515100">
        <ele>427.0</ele>
        <time>2022-11-06T07:04:02Z</time>
      </trkpt>
      <trkpt lat="39.6832800" lon="-0.4515070">
        <ele>427.4</ele>
        <time>2022-11-06T07:04:03Z</time>
      </trkpt>
      <trkpt lat="39.6832960" lon="-0.4515080">
        <ele>427.7</ele>
        <time>2022-11-06T07:04:04Z</time>
      </trkpt>
      <trkpt lat="39.6833120" lon="-0.4515050">
        <ele>427.9</ele>
        <time>2022-11-06T07:04:05Z</time>
      </trkpt>
      <trkpt lat="39.6833310" lon="-0.4515000">
        <ele>428.1</ele>
        <time>2022-11-06T07:04:06Z</time>
      </trkpt>
      <trkpt lat="39.6833490" lon="-0.4514980">
        <ele>428.4</ele>
        <time>2022-11-06T07:04:07Z</time>
      </trkpt>
      <trkpt lat="39.6833660" lon="-0.4514970">
        <ele>428.6</ele>
        <time>2022-11-06T07:04:08Z</time>
      </trkpt>
      <trkpt lat="39.6833840" lon="-0.4514900">
        <ele>428.9</ele>
        <time>2022-11-06T07:04:09Z</time>
      </trkpt>
      <trkpt lat="39.6834000" lon="-0.4514870">
        <ele>429.1</ele>
        <time>2022-11-06T07:04:10Z</time>
      </trkpt>
      <trkpt lat="39.6834190" lon="-0.4514830">
        <ele>429.3</ele>
        <time>2022-11-06T07:04:11Z</time>
      </trkpt>
      <trkpt lat="39.6834380" lon="-0.4514770">
        <ele>429.6</ele>
        <time>2022-11-06T07:04:12Z</time>
      </trkpt>
      <trkpt lat="39.6834380" lon="-0.4514770">
        <ele>429.6</ele>
        <time>2022-11-06T07:04:13Z</time>
      </trkpt>
      <trkpt lat="39.6834730" lon="-0.4514630">
        <ele>430.1</ele>
        <time>2022-11-06T07:04:14Z</time>
      </trkpt>
      <trkpt lat="39.6834920" lon="-0.4514530">
        <ele>430.3</ele>
        <time>2022-11-06T07:04:15Z</time>
      </trkpt>
      <trkpt lat="39.6835050" lon="-0.4514470">
        <ele>430.5</ele>
        <time>2022-11-06T07:04:16Z</time>
      </trkpt>
      <trkpt lat="39.6835240" lon="-0.4514380">
        <ele>430.7</ele>
        <time>2022-11-06T07:04:17Z</time>
      </trkpt>
      <trkpt lat="39.6835400" lon="-0.4514280">
        <ele>430.9</ele>
        <time>2022-11-06T07:04:18Z</time>
      </trkpt>
      <trkpt lat="39.6835560" lon="-0.4514200">
        <ele>431.1</ele>
        <time>2022-11-06T07:04:19Z</time>
      </trkpt>
      <trkpt lat="39.6835750" lon="-0.4514120">
        <ele>431.3</ele>
        <time>2022-11-06T07:04:20Z</time>
      </trkpt>
      <trkpt lat="39.6835910" lon="-0.4514020">
        <ele>431.5</ele>
        <time>2022-11-06T07:04:21Z</time>
      </trkpt>
      <trkpt lat="39.6836040" lon="-0.4513930">
        <ele>431.7</ele>
        <time>2022-11-06T07:04:22Z</time>
      </trkpt>
      <trkpt lat="39.6836040" lon="-0.4513930">
        <ele>431.7</ele>
        <time>2022-11-06T07:04:23Z</time>
      </trkpt>
      <trkpt lat="39.6836360" lon="-0.4513720">
        <ele>432.1</ele>
        <time>2022-11-06T07:04:24Z</time>
      </trkpt>
      <trkpt lat="39.6836500" lon="-0.4513620">
        <ele>432.3</ele>
        <time>2022-11-06T07:04:25Z</time>
      </trkpt>
      <trkpt lat="39.6836660" lon="-0.4513480">
        <ele>432.5</ele>
        <time>2022-11-06T07:04:26Z</time>
      </trkpt>
      <trkpt lat="39.6836770" lon="-0.4513370">
        <ele>432.7</ele>
        <time>2022-11-06T07:04:27Z</time>
      </trkpt>
      <trkpt lat="39.6836930" lon="-0.4513270">
        <ele>432.9</ele>
        <time>2022-11-06T07:04:28Z</time>
      </trkpt>
      <trkpt lat="39.6837090" lon="-0.4513150">
        <ele>433.1</ele>
        <time>2022-11-06T07:04:29Z</time>
      </trkpt>
      <trkpt lat="39.6837220" lon="-0.4513030">
        <ele>433.3</ele>
        <time>2022-11-06T07:04:30Z</time>
      </trkpt>
      <trkpt lat="39.6837360" lon="-0.4512900">
        <ele>433.5</ele>
        <time>2022-11-06T07:04:31Z</time>
      </trkpt>
      <trkpt lat="39.6837490" lon="-0.4512770">
        <ele>433.7</ele>
        <time>2022-11-06T07:04:32Z</time>
      </trkpt>
      <trkpt lat="39.6837490" lon="-0.4512770">
        <ele>433.7</ele>
        <time>2022-11-06T07:04:33Z</time>
      </trkpt>
      <trkpt lat="39.6837490" lon="-0.4512770">
        <ele>433.7</ele>
        <time>2022-11-06T07:04:34Z</time>
      </trkpt>
      <trkpt lat="39.6837950" lon="-0.4512430">
        <ele>434.3</ele>
        <time>2022-11-06T07:04:35Z</time>
      </trkpt>
      <trkpt lat="39.6838110" lon="-0.4512300">
        <ele>434.5</ele>
        <time>2022-11-06T07:04:36Z</time>
      </trkpt>
      <trkpt lat="39.6838210" lon="-0.4512180">
        <ele>434.7</ele>
        <time>2022-11-06T07:04:37Z</time>
      </trkpt>
      <trkpt lat="39.6838380" lon="-0.4512050">
        <ele>434.9</ele>
        <time>2022-11-06T07:04:38Z</time>
      </trkpt>
      <trkpt lat="39.6838480" lon="-0.4511920">
        <ele>435.1</ele>
        <time>2022-11-06T07:04:39Z</time>
      </trkpt>
      <trkpt lat="39.6838640" lon="-0.4511800">
        <ele>435.3</ele>
        <time>2022-11-06T07:04:40Z</time>
      </trkpt>
      <trkpt lat="39.6838810" lon="-0.4511650">
        <ele>435.5</ele>
        <time>2022-11-06T07:04:41Z</time>
      </trkpt>
      <trkpt lat="39.6838940" lon="-0.4511500">
        <ele>435.7</ele>
        <time>2022-11-06T07:04:42Z</time>
      </trkpt>
      <trkpt lat="39.6838940" lon="-0.4511500">
        <ele>435.7</ele>
        <time>2022-11-06T07:04:43Z</time>
      </trkpt>
      <trkpt lat="39.6838940" lon="-0.4511500">
        <ele>435.7</ele>
        <time>2022-11-06T07:04:44Z</time>
      </trkpt>
      <trkpt lat="39.6839340" lon="-0.4511020">
        <ele>436.4</ele>
        <time>2022-11-06T07:04:45Z</time>
      </trkpt>
      <trkpt lat="39.6839480" lon="-0.4510850">
        <ele>436.6</ele>
        <time>2022-11-06T07:04:46Z</time>
      </trkpt>
      <trkpt lat="39.6839560" lon="-0.4510650">
        <ele>436.8</ele>
        <time>2022-11-06T07:04:47Z</time>
      </trkpt>
      <trkpt lat="39.6839610" lon="-0.4510450">
        <ele>437.0</ele>
        <time>2022-11-06T07:04:48Z</time>
      </trkpt>
      <trkpt lat="39.6839720" lon="-0.4510230">
        <ele>437.3</ele>
        <time>2022-11-06T07:04:49Z</time>
      </trkpt>
      <trkpt lat="39.6839820" lon="-0.4510030">
        <ele>437.5</ele>
        <time>2022-11-06T07:04:50Z</time>
      </trkpt>
      <trkpt lat="39.6839900" lon="-0.4509830">
        <ele>437.7</ele>
        <time>2022-11-06T07:04:51Z</time>
      </trkpt>
      <trkpt lat="39.6839990" lon="-0.4509650">
        <ele>437.9</ele>
        <time>2022-11-06T07:04:52Z</time>
      </trkpt>
      <trkpt lat="39.6840070" lon="-0.4509470">
        <ele>438.2</ele>
        <time>2022-11-06T07:04:53Z</time>
      </trkpt>
      <trkpt lat="39.6840070" lon="-0.4509470">
        <ele>438.2</ele>
        <time>2022-11-06T07:04:54Z</time>
      </trkpt>
      <trkpt lat="39.6840150" lon="-0.4509070">
        <ele>438.6</ele>
        <time>2022-11-06T07:04:55Z</time>
      </trkpt>
      <trkpt lat="39.6840200" lon="-0.4508870">
        <ele>438.8</ele>
        <time>2022-11-06T07:04:56Z</time>
      </trkpt>
      <trkpt lat="39.6840200" lon="-0.4508680">
        <ele>439.0</ele>
        <time>2022-11-06T07:04:57Z</time>
      </trkpt>
      <trkpt lat="39.6840250" lon="-0.4508480">
        <ele>439.2</ele>
        <time>2022-11-06T07:04:58Z</time>
      </trkpt>
      <trkpt lat="39.6840280" lon="-0.4508270">
        <ele>439.4</ele>
        <time>2022-11-06T07:04:59Z</time>
      </trkpt>
      <trkpt lat="39.6840360" lon="-0.4508070">
        <ele>439.6</ele>
        <time>2022-11-06T07:05:00Z</time>
      </trkpt>
      <trkpt lat="39.6840390" lon="-0.4507870">
        <ele>439.8</ele>
        <time>2022-11-06T07:05:01Z</time>
      </trkpt>
      <trkpt lat="39.6840390" lon="-0.4507670">
        <ele>440.0</ele>
        <time>2022-11-06T07:05:02Z</time>
      </trkpt>
      <trkpt lat="39.6840440" lon="-0.4507450">
        <ele>440.2</ele>
        <time>2022-11-06T07:05:03Z</time>
      </trkpt>
      <trkpt lat="39.6840440" lon="-0.4507450">
        <ele>440.2</ele>
        <time>2022-11-06T07:05:04Z</time>
      </trkpt>
      <trkpt lat="39.6840390" lon="-0.4507080">
        <ele>440.6</ele>
        <time>2022-11-06T07:05:05Z</time>
      </trkpt>
      <trkpt lat="39.6840390" lon="-0.4506850">
        <ele>440.8</ele>
        <time>2022-11-06T07:05:06Z</time>
      </trkpt>
      <trkpt lat="39.6840390" lon="-0.4506620">
        <ele>441.0</ele>
        <time>2022-11-06T07:05:07Z</time>
      </trkpt>
      <trkpt lat="39.6840390" lon="-0.4506350">
        <ele>441.2</ele>
        <time>2022-11-06T07:05:08Z</time>
      </trkpt>
      <trkpt lat="39.6840390" lon="-0.4506080">
        <ele>441.5</ele>
        <time>2022-11-06T07:05:09Z</time>
      </trkpt>
      <trkpt lat="39.6840360" lon="-0.4505830">
        <ele>441.7</ele>
        <time>2022-11-06T07:05:10Z</time>
      </trkpt>
      <trkpt lat="39.6840390" lon="-0.4505570">
        <ele>441.9</ele>
        <time>2022-11-06T07:05:11Z</time>
      </trkpt>
      <trkpt lat="39.6840330" lon="-0.4505330">
        <ele>442.1</ele>
        <time>2022-11-06T07:05:12Z</time>
      </trkpt>
      <trkpt lat="39.6840330" lon="-0.4505120">
        <ele>442.2</ele>
        <time>2022-11-06T07:05:13Z</time>
      </trkpt>
      <trkpt lat="39.6840280" lon="-0.4504870">
        <ele>442.4</ele>
        <time>2022-11-06T07:05:14Z</time>
      </trkpt>
      <trkpt lat="39.6840280" lon="-0.4504870">
        <ele>442.4</ele>
        <time>2022-11-06T07:05:15Z</time>
      </trkpt>
      <trkpt lat="39.6840250" lon="-0.4504350">
        <ele>442.8</ele>
        <time>2022-11-06T07:05:16Z</time>
      </trkpt>
      <trkpt lat="39.6840200" lon="-0.4504080">
        <ele>443.0</ele>
        <time>2022-11-06T07:05:17Z</time>
      </trkpt>
      <trkpt lat="39.6840200" lon="-0.4503850">
        <ele>443.1</ele>
        <time>2022-11-06T07:05:18Z</time>
      </trkpt>
      <trkpt lat="39.6840200" lon="-0.4503570">
        <ele>443.3</ele>
        <time>2022-11-06T07:05:19Z</time>
      </trkpt>
      <trkpt lat="39.6840200" lon="-0.4503320">
        <ele>443.4</ele>
        <time>2022-11-06T07:05:20Z</time>
      </trkpt>
      <trkpt lat="39.6840250" lon="-0.4503120">
        <ele>443.5</ele>
        <time>2022-11-06T07:05:21Z</time>
      </trkpt>
      <trkpt lat="39.6840330" lon="-0.4502870">
        <ele>443.6</ele>
        <time>2022-11-06T07:05:22Z</time>
      </trkpt>
      <trkpt lat="39.6840360" lon="-0.4502600">
        <ele>443.8</ele>
        <time>2022-11-06T07:05:23Z</time>
      </trkpt>
      <trkpt lat="39.6840360" lon="-0.4502600">
        <ele>443.8</ele>
        <time>2022-11-06T07:05:24Z</time>
      </trkpt>
      <trkpt lat="39.6840360" lon="-0.4502600">
        <ele>443.8</ele>
        <time>2022-11-06T07:05:25Z</time>
      </trkpt>
      <trkpt lat="39.6840630" lon="-0.4501620">
        <ele>444.3</ele>
        <time>2022-11-06T07:05:26Z</time>
      </trkpt>
      <trkpt lat="39.6840790" lon="-0.4501330">
        <ele>444.5</ele>
        <time>2022-11-06T07:05:27Z</time>
      </trkpt>
      <trkpt lat="39.6840870" lon="-0.4501080">
        <ele>444.6</ele>
        <time>2022-11-06T07:05:28Z</time>
      </trkpt>
      <trkpt lat="39.6840920" lon="-0.4500820">
        <ele>444.8</ele>
        <time>2022-11-06T07:05:29Z</time>
      </trkpt>
      <trkpt lat="39.6841080" lon="-0.4500580">
        <ele>444.9</ele>
        <time>2022-11-06T07:05:30Z</time>
      </trkpt>
      <trkpt lat="39.6841190" lon="-0.4500370">
        <ele>445.1</ele>
        <time>2022-11-06T07:05:31Z</time>
      </trkpt>
      <trkpt lat="39.6841350" lon="-0.4500130">
        <ele>445.3</ele>
        <time>2022-11-06T07:05:32Z</time>
      </trkpt>
      <trkpt lat="39.6841460" lon="-0.4499930">
        <ele>445.4</ele>
        <time>2022-11-06T07:05:33Z</time>
      </trkpt>
      <trkpt lat="39.6841620" lon="-0.4499730">
        <ele>445.6</ele>
        <time>2022-11-06T07:05:34Z</time>
      </trkpt>
      <trkpt lat="39.6841620" lon="-0.4499730">
        <ele>445.6</ele>
        <time>2022-11-06T07:05:35Z</time>
      </trkpt>
      <trkpt lat="39.6841620" lon="-0.4499730">
        <ele>445.6</ele>
        <time>2022-11-06T07:05:36Z</time>
      </trkpt>
      <trkpt lat="39.6842100" lon="-0.4499230">
        <ele>446.1</ele>
        <time>2022-11-06T07:05:37Z</time>
      </trkpt>
      <trkpt lat="39.6842270" lon="-0.4499080">
        <ele>446.3</ele>
        <time>2022-11-06T07:05:38Z</time>
      </trkpt>
      <trkpt lat="39.6842450" lon="-0.4498930">
        <ele>446.4</ele>
        <time>2022-11-06T07:05:39Z</time>
      </trkpt>
      <trkpt lat="39.6842640" lon="-0.4498800">
        <ele>446.6</ele>
        <time>2022-11-06T07:05:40Z</time>
      </trkpt>
      <trkpt lat="39.6842800" lon="-0.4498630">
        <ele>446.8</ele>
        <time>2022-11-06T07:05:41Z</time>
      </trkpt>
      <trkpt lat="39.6842990" lon="-0.4498500">
        <ele>446.9</ele>
        <time>2022-11-06T07:05:42Z</time>
      </trkpt>
      <trkpt lat="39.6843180" lon="-0.4498350">
        <ele>447.1</ele>
        <time>2022-11-06T07:05:43Z</time>
      </trkpt>
      <trkpt lat="39.6843360" lon="-0.4498200">
        <ele>447.3</ele>
        <time>2022-11-06T07:05:44Z</time>
      </trkpt>
      <trkpt lat="39.6843360" lon="-0.4498200">
        <ele>447.3</ele>
        <time>2022-11-06T07:05:45Z</time>
      </trkpt>
      <trkpt lat="39.6843770" lon="-0.4497950">
        <ele>447.6</ele>
        <time>2022-11-06T07:05:46Z</time>
      </trkpt>
      <trkpt lat="39.6843900" lon="-0.4497820">
        <ele>447.7</ele>
        <time>2022-11-06T07:05:47Z</time>
      </trkpt>
      <trkpt lat="39.6844090" lon="-0.4497720">
        <ele>447.9</ele>
        <time>2022-11-06T07:05:48Z</time>
      </trkpt>
      <trkpt lat="39.6844300" lon="-0.4497580">
        <ele>448.0</ele>
        <time>2022-11-06T07:05:49Z</time>
      </trkpt>
      <trkpt lat="39.6844490" lon="-0.4497470">
        <ele>448.2</ele>
        <time>2022-11-06T07:05:50Z</time>
      </trkpt>
      <trkpt lat="39.6844630" lon="-0.4497320">
        <ele>448.3</ele>
        <time>2022-11-06T07:05:51Z</time>
      </trkpt>
      <trkpt lat="39.6844760" lon="-0.4497150">
        <ele>448.4</ele>
        <time>2022-11-06T07:05:52Z</time>
      </trkpt>
      <trkpt lat="39.6844890" lon="-0.4496980">
        <ele>448.5</ele>
        <time>2022-11-06T07:05:53Z</time>
      </trkpt>
      <trkpt lat="39.6845080" lon="-0.4496820">
        <ele>448.7</ele>
        <time>2022-11-06T07:05:54Z</time>
      </trkpt>
      <trkpt lat="39.6845220" lon="-0.4496630">
        <ele>448.8</ele>
        <time>2022-11-06T07:05:55Z</time>
      </trkpt>
      <trkpt lat="39.6845220" lon="-0.4496630">
        <ele>448.8</ele>
        <time>2022-11-06T07:05:56Z</time>
      </trkpt>
      <trkpt lat="39.6845510" lon="-0.4496230">
        <ele>449.1</ele>
        <time>2022-11-06T07:05:57Z</time>
      </trkpt>
      <trkpt lat="39.6845670" lon="-0.4496030">
        <ele>449.3</ele>
        <time>2022-11-06T07:05:58Z</time>
      </trkpt>
      <trkpt lat="39.6845750" lon="-0.4495880">
        <ele>449.4</ele>
        <time>2022-11-06T07:05:59Z</time>
      </trkpt>
      <trkpt lat="39.6845810" lon="-0.4495720">
        <ele>449.5</ele>
        <time>2022-11-06T07:06:00Z</time>
      </trkpt>
      <trkpt lat="39.6845940" lon="-0.4495550">
        <ele>449.7</ele>
        <time>2022-11-06T07:06:01Z</time>
      </trkpt>
      <trkpt lat="39.6846070" lon="-0.4495370">
        <ele>449.8</ele>
        <time>2022-11-06T07:06:02Z</time>
      </trkpt>
      <trkpt lat="39.6846210" lon="-0.4495180">
        <ele>450.0</ele>
        <time>2022-11-06T07:06:03Z</time>
      </trkpt>
      <trkpt lat="39.6846320" lon="-0.4494970">
        <ele>450.2</ele>
        <time>2022-11-06T07:06:04Z</time>
      </trkpt>
      <trkpt lat="39.6846320" lon="-0.4494970">
        <ele>450.2</ele>
        <time>2022-11-06T07:06:05Z</time>
      </trkpt>
      <trkpt lat="39.6846320" lon="-0.4494970">
        <ele>450.2</ele>
        <time>2022-11-06T07:06:06Z</time>
      </trkpt>
      <trkpt lat="39.6846610" lon="-0.4494450">
        <ele>450.6</ele>
        <time>2022-11-06T07:06:07Z</time>
      </trkpt>
      <trkpt lat="39.6846660" lon="-0.4494270">
        <ele>450.8</ele>
        <time>2022-11-06T07:06:08Z</time>
      </trkpt>
      <trkpt lat="39.6846740" lon="-0.4494080">
        <ele>450.9</ele>
        <time>2022-11-06T07:06:09Z</time>
      </trkpt>
      <trkpt lat="39.6846800" lon="-0.4493870">
        <ele>451.1</ele>
        <time>2022-11-06T07:06:10Z</time>
      </trkpt>
      <trkpt lat="39.6846850" lon="-0.4493670">
        <ele>451.2</ele>
        <time>2022-11-06T07:06:11Z</time>
      </trkpt>
      <trkpt lat="39.6846960" lon="-0.4493430">
        <ele>451.5</ele>
        <time>2022-11-06T07:06:12Z</time>
      </trkpt>
      <trkpt lat="39.6847010" lon="-0.4493230">
        <ele>451.6</ele>
        <time>2022-11-06T07:06:13Z</time>
      </trkpt>
      <trkpt lat="39.6847120" lon="-0.4493020">
        <ele>451.8</ele>
        <time>2022-11-06T07:06:14Z</time>
      </trkpt>
      <trkpt lat="39.6847150" lon="-0.4492780">
        <ele>452.0</ele>
        <time>2022-11-06T07:06:15Z</time>
      </trkpt>
      <trkpt lat="39.6847150" lon="-0.4492780">
        <ele>452.0</ele>
        <time>2022-11-06T07:06:16Z</time>
      </trkpt>
      <trkpt lat="39.6847150" lon="-0.4492780">
        <ele>452.0</ele>
        <time>2022-11-06T07:06:17Z</time>
      </trkpt>
      <trkpt lat="39.6847310" lon="-0.4492130">
        <ele>452.5</ele>
        <time>2022-11-06T07:06:18Z</time>
      </trkpt>
      <trkpt lat="39.6847390" lon="-0.4491900">
        <ele>452.7</ele>
        <time>2022-11-06T07:06:19Z</time>
      </trkpt>
      <trkpt lat="39.6847410" lon="-0.4491650">
        <ele>452.9</ele>
        <time>2022-11-06T07:06:20Z</time>
      </trkpt>
      <trkpt lat="39.6847470" lon="-0.4491430">
        <ele>453.0</ele>
        <time>2022-11-06T07:06:21Z</time>
      </trkpt>
      <trkpt lat="39.6847500" lon="-0.4491180">
        <ele>453.2</ele>
        <time>2022-11-06T07:06:22Z</time>
      </trkpt>
      <trkpt lat="39.6847500" lon="-0.4490970">
        <ele>453.4</ele>
        <time>2022-11-06T07:06:23Z</time>
      </trkpt>
      <trkpt lat="39.6847520" lon="-0.4490750">
        <ele>453.6</ele>
        <time>2022-11-06T07:06:24Z</time>
      </trkpt>
      <trkpt lat="39.6847580" lon="-0.4490530">
        <ele>453.7</ele>
        <time>2022-11-06T07:06:25Z</time>
      </trkpt>
      <trkpt lat="39.6847580" lon="-0.4490530">
        <ele>453.7</ele>
        <time>2022-11-06T07:06:26Z</time>
      </trkpt>
      <trkpt lat="39.6847680" lon="-0.4490030">
        <ele>454.1</ele>
        <time>2022-11-06T07:06:27Z</time>
      </trkpt>
      <trkpt lat="39.6847760" lon="-0.4489800">
        <ele>454.3</ele>
        <time>2022-11-06T07:06:28Z</time>
      </trkpt>
      <trkpt lat="39.6847790" lon="-0.4489580">
        <ele>454.5</ele>
        <time>2022-11-06T07:06:29Z</time>
      </trkpt>
      <trkpt lat="39.6847920" lon="-0.4489350">
        <ele>454.7</ele>
        <time>2022-11-06T07:06:30Z</time>
      </trkpt>
      <trkpt lat="39.6848060" lon="-0.4489130">
        <ele>455.0</ele>
        <time>2022-11-06T07:06:31Z</time>
      </trkpt>
      <trkpt lat="39.6848140" lon="-0.4488880">
        <ele>455.2</ele>
        <time>2022-11-06T07:06:32Z</time>
      </trkpt>
      <trkpt lat="39.6848300" lon="-0.4488650">
        <ele>455.4</ele>
        <time>2022-11-06T07:06:33Z</time>
      </trkpt>
      <trkpt lat="39.6848410" lon="-0.4488420">
        <ele>455.6</ele>
        <time>2022-11-06T07:06:34Z</time>
      </trkpt>
      <trkpt lat="39.6848510" lon="-0.4488200">
        <ele>455.8</ele>
        <time>2022-11-06T07:06:35Z</time>
      </trkpt>
      <trkpt lat="39.6848680" lon="-0.4488000">
        <ele>456.1</ele>
        <time>2022-11-06T07:06:36Z</time>
      </trkpt>
      <trkpt lat="39.6848680" lon="-0.4488000">
        <ele>456.1</ele>
        <time>2022-11-06T07:06:37Z</time>
      </trkpt>
      <trkpt lat="39.6848970" lon="-0.4487630">
        <ele>456.5</ele>
        <time>2022-11-06T07:06:38Z</time>
      </trkpt>
      <trkpt lat="39.6849130" lon="-0.4487450">
        <ele>456.7</ele>
        <time>2022-11-06T07:06:39Z</time>
      </trkpt>
      <trkpt lat="39.6849290" lon="-0.4487300">
        <ele>456.9</ele>
        <time>2022-11-06T07:06:40Z</time>
      </trkpt>
      <trkpt lat="39.6849480" lon="-0.4487150">
        <ele>457.1</ele>
        <time>2022-11-06T07:06:41Z</time>
      </trkpt>
      <trkpt lat="39.6849670" lon="-0.4487050">
        <ele>457.3</ele>
        <time>2022-11-06T07:06:42Z</time>
      </trkpt>
      <trkpt lat="39.6849860" lon="-0.4486920">
        <ele>457.5</ele>
        <time>2022-11-06T07:06:43Z</time>
      </trkpt>
      <trkpt lat="39.6850100" lon="-0.4486780">
        <ele>457.7</ele>
        <time>2022-11-06T07:06:44Z</time>
      </trkpt>
      <trkpt lat="39.6850280" lon="-0.4486670">
        <ele>457.9</ele>
        <time>2022-11-06T07:06:45Z</time>
      </trkpt>
      <trkpt lat="39.6850470" lon="-0.4486570">
        <ele>458.1</ele>
        <time>2022-11-06T07:06:46Z</time>
      </trkpt>
      <trkpt lat="39.6850470" lon="-0.4486570">
        <ele>458.1</ele>
        <time>2022-11-06T07:06:47Z</time>
      </trkpt>
      <trkpt lat="39.6850850" lon="-0.4486350">
        <ele>458.5</ele>
        <time>2022-11-06T07:06:48Z</time>
      </trkpt>
      <trkpt lat="39.6851090" lon="-0.4486280">
        <ele>458.7</ele>
        <time>2022-11-06T07:06:49Z</time>
      </trkpt>
      <trkpt lat="39.6851300" lon="-0.4486220">
        <ele>458.8</ele>
        <time>2022-11-06T07:06:50Z</time>
      </trkpt>
      <trkpt lat="39.6851490" lon="-0.4486170">
        <ele>459.0</ele>
        <time>2022-11-06T07:06:51Z</time>
      </trkpt>
      <trkpt lat="39.6851730" lon="-0.4486130">
        <ele>459.2</ele>
        <time>2022-11-06T07:06:52Z</time>
      </trkpt>
      <trkpt lat="39.6851920" lon="-0.4486080">
        <ele>459.3</ele>
        <time>2022-11-06T07:06:53Z</time>
      </trkpt>
      <trkpt lat="39.6852160" lon="-0.4486030">
        <ele>459.5</ele>
        <time>2022-11-06T07:06:54Z</time>
      </trkpt>
      <trkpt lat="39.6852350" lon="-0.4485970">
        <ele>459.6</ele>
        <time>2022-11-06T07:06:55Z</time>
      </trkpt>
      <trkpt lat="39.6852560" lon="-0.4485920">
        <ele>459.7</ele>
        <time>2022-11-06T07:06:56Z</time>
      </trkpt>
      <trkpt lat="39.6852560" lon="-0.4485920">
        <ele>459.7</ele>
        <time>2022-11-06T07:06:57Z</time>
      </trkpt>
      <trkpt lat="39.6852560" lon="-0.4485920">
        <ele>459.7</ele>
        <time>2022-11-06T07:06:58Z</time>
      </trkpt>
      <trkpt lat="39.6853210" lon="-0.4485800">
        <ele>460.0</ele>
        <time>2022-11-06T07:06:59Z</time>
      </trkpt>
      <trkpt lat="39.6853450" lon="-0.4485780">
        <ele>460.1</ele>
        <time>2022-11-06T07:07:00Z</time>
      </trkpt>
      <trkpt lat="39.6853660" lon="-0.4485770">
        <ele>460.2</ele>
        <time>2022-11-06T07:07:01Z</time>
      </trkpt>
      <trkpt lat="39.6853930" lon="-0.4485730">
        <ele>460.4</ele>
        <time>2022-11-06T07:07:02Z</time>
      </trkpt>
      <trkpt lat="39.6854170" lon="-0.4485720">
        <ele>460.5</ele>
        <time>2022-11-06T07:07:03Z</time>
      </trkpt>
      <trkpt lat="39.6854470" lon="-0.4485720">
        <ele>460.6</ele>
        <time>2022-11-06T07:07:04Z</time>
      </trkpt>
      <trkpt lat="39.6854710" lon="-0.4485720">
        <ele>460.7</ele>
        <time>2022-11-06T07:07:05Z</time>
      </trkpt>
      <trkpt lat="39.6854980" lon="-0.4485700">
        <ele>460.8</ele>
        <time>2022-11-06T07:07:06Z</time>
      </trkpt>
      <trkpt lat="39.6854980" lon="-0.4485700">
        <ele>460.8</ele>
        <time>2022-11-06T07:07:07Z</time>
      </trkpt>
      <trkpt lat="39.6854980" lon="-0.4485700">
        <ele>460.8</ele>
        <time>2022-11-06T07:07:08Z</time>
      </trkpt>
      <trkpt lat="39.6855730" lon="-0.4485780">
        <ele>461.2</ele>
        <time>2022-11-06T07:07:09Z</time>
      </trkpt>
      <trkpt lat="39.6856000" lon="-0.4485830">
        <ele>461.3</ele>
        <time>2022-11-06T07:07:10Z</time>
      </trkpt>
      <trkpt lat="39.6856240" lon="-0.4485880">
        <ele>461.4</ele>
        <time>2022-11-06T07:07:11Z</time>
      </trkpt>
      <trkpt lat="39.6856450" lon="-0.4485970">
        <ele>461.6</ele>
        <time>2022-11-06T07:07:12Z</time>
      </trkpt>
      <trkpt lat="39.6856700" lon="-0.4486030">
        <ele>461.7</ele>
        <time>2022-11-06T07:07:13Z</time>
      </trkpt>
      <trkpt lat="39.6856910" lon="-0.4486120">
        <ele>461.8</ele>
        <time>2022-11-06T07:07:14Z</time>
      </trkpt>
      <trkpt lat="39.6857150" lon="-0.4486180">
        <ele>462.0</ele>
        <time>2022-11-06T07:07:15Z</time>
      </trkpt>
      <trkpt lat="39.6857370" lon="-0.4486270">
        <ele>462.1</ele>
        <time>2022-11-06T07:07:16Z</time>
      </trkpt>
      <trkpt lat="39.6857550" lon="-0.4486350">
        <ele>462.3</ele>
        <time>2022-11-06T07:07:17Z</time>
      </trkpt>
      <trkpt lat="39.6857550" lon="-0.4486350">
        <ele>462.3</ele>
        <time>2022-11-06T07:07:18Z</time>
      </trkpt>
      <trkpt lat="39.6857980" lon="-0.4486520">
        <ele>462.6</ele>
        <time>2022-11-06T07:07:19Z</time>
      </trkpt>
      <trkpt lat="39.6858220" lon="-0.4486570">
        <ele>462.7</ele>
        <time>2022-11-06T07:07:20Z</time>
      </trkpt>
      <trkpt lat="39.6858410" lon="-0.4486630">
        <ele>462.9</ele>
        <time>2022-11-06T07:07:21Z</time>
      </trkpt>
      <trkpt lat="39.6858630" lon="-0.4486680">
        <ele>463.0</ele>
        <time>2022-11-06T07:07:22Z</time>
      </trkpt>
      <trkpt lat="39.6858810" lon="-0.4486770">
        <ele>463.1</ele>
        <time>2022-11-06T07:07:23Z</time>
      </trkpt>
      <trkpt lat="39.6859030" lon="-0.4486880">
        <ele>463.3</ele>
        <time>2022-11-06T07:07:24Z</time>
      </trkpt>
      <trkpt lat="39.6859270" lon="-0.4487000">
        <ele>463.5</ele>
        <time>2022-11-06T07:07:25Z</time>
      </trkpt>
      <trkpt lat="39.6859510" lon="-0.4487050">
        <ele>463.7</ele>
        <time>2022-11-06T07:07:26Z</time>
      </trkpt>
      <trkpt lat="39.6859700" lon="-0.4487170">
        <ele>463.8</ele>
        <time>2022-11-06T07:07:27Z</time>
      </trkpt>
      <trkpt lat="39.6859700" lon="-0.4487170">
        <ele>463.8</ele>
        <time>2022-11-06T07:07:28Z</time>
      </trkpt>
      <trkpt lat="39.6860070" lon="-0.4487370">
        <ele>464.1</ele>
        <time>2022-11-06T07:07:29Z</time>
      </trkpt>
      <trkpt lat="39.6860320" lon="-0.4487450">
        <ele>464.3</ele>
        <time>2022-11-06T07:07:30Z</time>
      </trkpt>
      <trkpt lat="39.6860500" lon="-0.4487550">
        <ele>464.4</ele>
        <time>2022-11-06T07:07:31Z</time>
      </trkpt>
      <trkpt lat="39.6860770" lon="-0.4487680">
        <ele>464.6</ele>
        <time>2022-11-06T07:07:32Z</time>
      </trkpt>
      <trkpt lat="39.6860960" lon="-0.4487800">
        <ele>464.8</ele>
        <time>2022-11-06T07:07:33Z</time>
      </trkpt>
      <trkpt lat="39.6861150" lon="-0.4487900">
        <ele>464.9</ele>
        <time>2022-11-06T07:07:34Z</time>
      </trkpt>
      <trkpt lat="39.6861340" lon="-0.4488000">
        <ele>465.0</ele>
        <time>2022-11-06T07:07:35Z</time>
      </trkpt>
      <trkpt lat="39.6861580" lon="-0.4488050">
        <ele>465.2</ele>
        <time>2022-11-06T07:07:36Z</time>
      </trkpt>
      <trkpt lat="39.6861790" lon="-0.4488120">
        <ele>465.3</ele>
        <time>2022-11-06T07:07:37Z</time>
      </trkpt>
      <trkpt lat="39.6862060" lon="-0.4488230">
        <ele>465.5</ele>
        <time>2022-11-06T07:07:38Z</time>
      </trkpt>
      <trkpt lat="39.6862060" lon="-0.4488230">
        <ele>465.5</ele>
        <time>2022-11-06T07:07:39Z</time>
      </trkpt>
      <trkpt lat="39.6862490" lon="-0.4488380">
        <ele>465.8</ele>
        <time>2022-11-06T07:07:40Z</time>
      </trkpt>
      <trkpt lat="39.6862700" lon="-0.4488470">
        <ele>466.0</ele>
        <time>2022-11-06T07:07:41Z</time>
      </trkpt>
      <trkpt lat="39.6862970" lon="-0.4488550">
        <ele>466.2</ele>
        <time>2022-11-06T07:07:42Z</time>
      </trkpt>
      <trkpt lat="39.6863210" lon="-0.4488650">
        <ele>466.3</ele>
        <time>2022-11-06T07:07:43Z</time>
      </trkpt>
      <trkpt lat="39.6863450" lon="-0.4488720">
        <ele>466.5</ele>
        <time>2022-11-06T07:07:44Z</time>
      </trkpt>
      <trkpt lat="39.6863670" lon="-0.4488770">
        <ele>466.6</ele>
        <time>2022-11-06T07:07:45Z</time>
      </trkpt>
      <trkpt lat="39.6863940" lon="-0.4488820">
        <ele>466.8</ele>
        <time>2022-11-06T07:07:46Z</time>
      </trkpt>
      <trkpt lat="39.6864180" lon="-0.4488900">
        <ele>467.0</ele>
        <time>2022-11-06T07:07:47Z</time>
      </trkpt>
      <trkpt lat="39.6864180" lon="-0.4488900">
        <ele>467.0</ele>
        <time>2022-11-06T07:07:48Z</time>
      </trkpt>
      <trkpt lat="39.6864180" lon="-0.4488900">
        <ele>467.0</ele>
        <time>2022-11-06T07:07:49Z</time>
      </trkpt>
      <trkpt lat="39.6864770" lon="-0.4489120">
        <ele>467.4</ele>
        <time>2022-11-06T07:07:50Z</time>
      </trkpt>
      <trkpt lat="39.6864960" lon="-0.4489180">
        <ele>467.5</ele>
        <time>2022-11-06T07:07:51Z</time>
      </trkpt>
      <trkpt lat="39.6865220" lon="-0.4489250">
        <ele>467.7</ele>
        <time>2022-11-06T07:07:52Z</time>
      </trkpt>
      <trkpt lat="39.6865410" lon="-0.4489330">
        <ele>467.9</ele>
        <time>2022-11-06T07:07:53Z</time>
      </trkpt>
      <trkpt lat="39.6865650" lon="-0.4489430">
        <ele>468.0</ele>
        <time>2022-11-06T07:07:54Z</time>
      </trkpt>
      <trkpt lat="39.6865900" lon="-0.4489550">
        <ele>468.2</ele>
        <time>2022-11-06T07:07:55Z</time>
      </trkpt>
      <trkpt lat="39.6866110" lon="-0.4489630">
        <ele>468.4</ele>
        <time>2022-11-06T07:07:56Z</time>
      </trkpt>
      <trkpt lat="39.6866300" lon="-0.4489750">
        <ele>468.5</ele>
        <time>2022-11-06T07:07:57Z</time>
      </trkpt>
      <trkpt lat="39.6866490" lon="-0.4489880">
        <ele>468.7</ele>
        <time>2022-11-06T07:07:58Z</time>
      </trkpt>
      <trkpt lat="39.6866490" lon="-0.4489880">
        <ele>468.7</ele>
        <time>2022-11-06T07:07:59Z</time>
      </trkpt>
      <trkpt lat="39.6866490" lon="-0.4489880">
        <ele>468.7</ele>
        <time>2022-11-06T07:08:00Z</time>
      </trkpt>
      <trkpt lat="39.6867080" lon="-0.4490330">
        <ele>469.1</ele>
        <time>2022-11-06T07:08:01Z</time>
      </trkpt>
      <trkpt lat="39.6867260" lon="-0.4490500">
        <ele>469.3</ele>
        <time>2022-11-06T07:08:02Z</time>
      </trkpt>
      <trkpt lat="39.6867450" lon="-0.4490700">
        <ele>469.4</ele>
        <time>2022-11-06T07:08:03Z</time>
      </trkpt>
      <trkpt lat="39.6867640" lon="-0.4490870">
        <ele>469.6</ele>
        <time>2022-11-06T07:08:04Z</time>
      </trkpt>
      <trkpt lat="39.6867800" lon="-0.4491030">
        <ele>469.8</ele>
        <time>2022-11-06T07:08:05Z</time>
      </trkpt>
      <trkpt lat="39.6867990" lon="-0.4491220">
        <ele>469.9</ele>
        <time>2022-11-06T07:08:06Z</time>
      </trkpt>
      <trkpt lat="39.6868120" lon="-0.4491430">
        <ele>470.1</ele>
        <time>2022-11-06T07:08:07Z</time>
      </trkpt>
      <trkpt lat="39.6868340" lon="-0.4491670">
        <ele>470.3</ele>
        <time>2022-11-06T07:08:08Z</time>
      </trkpt>
      <trkpt lat="39.6868710" lon="-0.4492050">
        <ele>470.6</ele>
        <time>2022-11-06T07:08:09Z</time>
      </trkpt>
      <trkpt lat="39.6868710" lon="-0.4492050">
        <ele>470.6</ele>
        <time>2022-11-06T07:08:10Z</time>
      </trkpt>
      <trkpt lat="39.6868850" lon="-0.4492250">
        <ele>470.8</ele>
        <time>2022-11-06T07:08:11Z</time>
      </trkpt>
      <trkpt lat="39.6869060" lon="-0.4492500">
        <ele>471.0</ele>
        <time>2022-11-06T07:08:12Z</time>
      </trkpt>
      <trkpt lat="39.6869170" lon="-0.4492650">
        <ele>471.1</ele>
        <time>2022-11-06T07:08:13Z</time>
      </trkpt>
      <trkpt lat="39.6869360" lon="-0.4492870">
        <ele>471.3</ele>
        <time>2022-11-06T07:08:14Z</time>
      </trkpt>
      <trkpt lat="39.6869520" lon="-0.4493020">
        <ele>471.5</ele>
        <time>2022-11-06T07:08:15Z</time>
      </trkpt>
      <trkpt lat="39.6869700" lon="-0.4493170">
        <ele>471.7</ele>
        <time>2022-11-06T07:08:16Z</time>
      </trkpt>
      <trkpt lat="39.6869840" lon="-0.4493350">
        <ele>471.9</ele>
        <time>2022-11-06T07:08:17Z</time>
      </trkpt>
      <trkpt lat="39.6870000" lon="-0.4493550">
        <ele>472.1</ele>
        <time>2022-11-06T07:08:18Z</time>
      </trkpt>
      <trkpt lat="39.6870110" lon="-0.4493770">
        <ele>472.3</ele>
        <time>2022-11-06T07:08:19Z</time>
      </trkpt>
      <trkpt lat="39.6870110" lon="-0.4493770">
        <ele>472.3</ele>
        <time>2022-11-06T07:08:20Z</time>
      </trkpt>
      <trkpt lat="39.6870430" lon="-0.4494080">
        <ele>472.7</ele>
        <time>2022-11-06T07:08:21Z</time>
      </trkpt>
      <trkpt lat="39.6870560" lon="-0.4494270">
        <ele>472.9</ele>
        <time>2022-11-06T07:08:22Z</time>
      </trkpt>
      <trkpt lat="39.6870720" lon="-0.4494450">
        <ele>473.1</ele>
        <time>2022-11-06T07:08:23Z</time>
      </trkpt>
      <trkpt lat="39.6870830" lon="-0.4494630">
        <ele>473.3</ele>
        <time>2022-11-06T07:08:24Z</time>
      </trkpt>
      <trkpt lat="39.6870960" lon="-0.4494830">
        <ele>473.6</ele>
        <time>2022-11-06T07:08:25Z</time>
      </trkpt>
      <trkpt lat="39.6871100" lon="-0.4495000">
        <ele>473.8</ele>
        <time>2022-11-06T07:08:26Z</time>
      </trkpt>
      <trkpt lat="39.6871230" lon="-0.4495150">
        <ele>474.0</ele>
        <time>2022-11-06T07:08:27Z</time>
      </trkpt>
      <trkpt lat="39.6871370" lon="-0.4495320">
        <ele>474.3</ele>
        <time>2022-11-06T07:08:28Z</time>
      </trkpt>
      <trkpt lat="39.6871370" lon="-0.4495320">
        <ele>474.3</ele>
        <time>2022-11-06T07:08:29Z</time>
      </trkpt>
      <trkpt lat="39.6871800" lon="-0.4495770">
        <ele>475.0</ele>
        <time>2022-11-06T07:08:30Z</time>
      </trkpt>
      <trkpt lat="39.6871800" lon="-0.4495770">
        <ele>475.0</ele>
        <time>2022-11-06T07:08:31Z</time>
      </trkpt>
      <trkpt lat="39.6871960" lon="-0.4495930">
        <ele>475.2</ele>
        <time>2022-11-06T07:08:32Z</time>
      </trkpt>
      <trkpt lat="39.6872090" lon="-0.4496100">
        <ele>475.5</ele>
        <time>2022-11-06T07:08:33Z</time>
      </trkpt>
      <trkpt lat="39.6872230" lon="-0.4496250">
        <ele>475.7</ele>
        <time>2022-11-06T07:08:34Z</time>
      </trkpt>
      <trkpt lat="39.6872330" lon="-0.4496400">
        <ele>475.9</ele>
        <time>2022-11-06T07:08:35Z</time>
      </trkpt>
      <trkpt lat="39.6872490" lon="-0.4496580">
        <ele>476.1</ele>
        <time>2022-11-06T07:08:36Z</time>
      </trkpt>
      <trkpt lat="39.6872630" lon="-0.4496730">
        <ele>476.4</ele>
        <time>2022-11-06T07:08:37Z</time>
      </trkpt>
      <trkpt lat="39.6872790" lon="-0.4496920">
        <ele>476.6</ele>
        <time>2022-11-06T07:08:38Z</time>
      </trkpt>
      <trkpt lat="39.6872950" lon="-0.4497070">
        <ele>476.9</ele>
        <time>2022-11-06T07:08:39Z</time>
      </trkpt>
      <trkpt lat="39.6872950" lon="-0.4497070">
        <ele>476.9</ele>
        <time>2022-11-06T07:08:40Z</time>
      </trkpt>
      <trkpt lat="39.6872950" lon="-0.4497070">
        <ele>476.9</ele>
        <time>2022-11-06T07:08:41Z</time>
      </trkpt>
      <trkpt lat="39.6873410" lon="-0.4497530">
        <ele>477.6</ele>
        <time>2022-11-06T07:08:42Z</time>
      </trkpt>
      <trkpt lat="39.6873540" lon="-0.4497680">
        <ele>477.7</ele>
        <time>2022-11-06T07:08:43Z</time>
      </trkpt>
      <trkpt lat="39.6873750" lon="-0.4497820">
        <ele>478.0</ele>
        <time>2022-11-06T07:08:44Z</time>
      </trkpt>
      <trkpt lat="39.6873890" lon="-0.4497950">
        <ele>478.2</ele>
        <time>2022-11-06T07:08:45Z</time>
      </trkpt>
      <trkpt lat="39.6874080" lon="-0.4498070">
        <ele>478.4</ele>
        <time>2022-11-06T07:08:46Z</time>
      </trkpt>
      <trkpt lat="39.6874240" lon="-0.4498170">
        <ele>478.6</ele>
        <time>2022-11-06T07:08:47Z</time>
      </trkpt>
      <trkpt lat="39.6874420" lon="-0.4498230">
        <ele>478.8</ele>
        <time>2022-11-06T07:08:48Z</time>
      </trkpt>
      <trkpt lat="39.6874590" lon="-0.4498280">
        <ele>479.0</ele>
        <time>2022-11-06T07:08:49Z</time>
      </trkpt>
      <trkpt lat="39.6874590" lon="-0.4498280">
        <ele>479.0</ele>
        <time>2022-11-06T07:08:50Z</time>
      </trkpt>
      <trkpt lat="39.6874990" lon="-0.4498600">
        <ele>479.4</ele>
        <time>2022-11-06T07:08:51Z</time>
      </trkpt>
      <trkpt lat="39.6874990" lon="-0.4498600">
        <ele>479.4</ele>
        <time>2022-11-06T07:08:52Z</time>
      </trkpt>
      <trkpt lat="39.6875230" lon="-0.4498700">
        <ele>479.6</ele>
        <time>2022-11-06T07:08:53Z</time>
      </trkpt>
      <trkpt lat="39.6875420" lon="-0.4498750">
        <ele>479.8</ele>
        <time>2022-11-06T07:08:54Z</time>
      </trkpt>
      <trkpt lat="39.6875600" lon="-0.4498770">
        <ele>479.9</ele>
        <time>2022-11-06T07:08:55Z</time>
      </trkpt>
      <trkpt lat="39.6875790" lon="-0.4498770">
        <ele>480.0</ele>
        <time>2022-11-06T07:08:56Z</time>
      </trkpt>
      <trkpt lat="39.6875950" lon="-0.4498750">
        <ele>480.2</ele>
        <time>2022-11-06T07:08:57Z</time>
      </trkpt>
      <trkpt lat="39.6876140" lon="-0.4498670">
        <ele>480.4</ele>
        <time>2022-11-06T07:08:58Z</time>
      </trkpt>
      <trkpt lat="39.6876300" lon="-0.4498530">
        <ele>480.4</ele>
        <time>2022-11-06T07:08:59Z</time>
      </trkpt>
      <trkpt lat="39.6876410" lon="-0.4498350">
        <ele>480.4</ele>
        <time>2022-11-06T07:09:00Z</time>
      </trkpt>
      <trkpt lat="39.6876600" lon="-0.4497950">
        <ele>480.3</ele>
        <time>2022-11-06T07:09:01Z</time>
      </trkpt>
      <trkpt lat="39.6876600" lon="-0.4497950">
        <ele>480.3</ele>
        <time>2022-11-06T07:09:02Z</time>
      </trkpt>
      <trkpt lat="39.6876700" lon="-0.4497700">
        <ele>480.2</ele>
        <time>2022-11-06T07:09:03Z</time>
      </trkpt>
      <trkpt lat="39.6876840" lon="-0.4497450">
        <ele>480.1</ele>
        <time>2022-11-06T07:09:04Z</time>
      </trkpt>
      <trkpt lat="39.6876950" lon="-0.4497170">
        <ele>480.0</ele>
        <time>2022-11-06T07:09:05Z</time>
      </trkpt>
      <trkpt lat="39.6877050" lon="-0.4496920">
        <ele>479.9</ele>
        <time>2022-11-06T07:09:06Z</time>
      </trkpt>
      <trkpt lat="39.6877190" lon="-0.4496680">
        <ele>479.8</ele>
        <time>2022-11-06T07:09:07Z</time>
      </trkpt>
      <trkpt lat="39.6877320" lon="-0.4496420">
        <ele>479.7</ele>
        <time>2022-11-06T07:09:08Z</time>
      </trkpt>
      <trkpt lat="39.6877510" lon="-0.4496150">
        <ele>479.5</ele>
        <time>2022-11-06T07:09:09Z</time>
      </trkpt>
      <trkpt lat="39.6877670" lon="-0.4495820">
        <ele>479.4</ele>
        <time>2022-11-06T07:09:10Z</time>
      </trkpt>
      <trkpt lat="39.6878100" lon="-0.4495150">
        <ele>478.9</ele>
        <time>2022-11-06T07:09:11Z</time>
      </trkpt>
      <trkpt lat="39.6878290" lon="-0.4494820">
        <ele>478.7</ele>
        <time>2022-11-06T07:09:12Z</time>
      </trkpt>
      <trkpt lat="39.6878290" lon="-0.4494820">
        <ele>478.7</ele>
        <time>2022-11-06T07:09:13Z</time>
      </trkpt>
      <trkpt lat="39.6878500" lon="-0.4494480">
        <ele>478.4</ele>
        <time>2022-11-06T07:09:14Z</time>
      </trkpt>
      <trkpt lat="39.6878740" lon="-0.4494120">
        <ele>478.2</ele>
        <time>2022-11-06T07:09:15Z</time>
      </trkpt>
      <trkpt lat="39.6879010" lon="-0.4493730">
        <ele>477.9</ele>
        <time>2022-11-06T07:09:16Z</time>
      </trkpt>
      <trkpt lat="39.6879230" lon="-0.4493330">
        <ele>477.6</ele>
        <time>2022-11-06T07:09:17Z</time>
      </trkpt>
      <trkpt lat="39.6879570" lon="-0.4492950">
        <ele>477.2</ele>
        <time>2022-11-06T07:09:18Z</time>
      </trkpt>
      <trkpt lat="39.6879870" lon="-0.4492570">
        <ele>476.9</ele>
        <time>2022-11-06T07:09:19Z</time>
      </trkpt>
      <trkpt lat="39.6880140" lon="-0.4492170">
        <ele>476.5</ele>
        <time>2022-11-06T07:09:20Z</time>
      </trkpt>
      <trkpt lat="39.6880460" lon="-0.4491770">
        <ele>476.1</ele>
        <time>2022-11-06T07:09:21Z</time>
      </trkpt>
      <trkpt lat="39.6881100" lon="-0.4490870">
        <ele>475.3</ele>
        <time>2022-11-06T07:09:22Z</time>
      </trkpt>
      <trkpt lat="39.6881100" lon="-0.4490870">
        <ele>475.3</ele>
        <time>2022-11-06T07:09:23Z</time>
      </trkpt>
      <trkpt lat="39.6881400" lon="-0.4490380">
        <ele>474.9</ele>
        <time>2022-11-06T07:09:24Z</time>
      </trkpt>
      <trkpt lat="39.6881640" lon="-0.4489870">
        <ele>474.4</ele>
        <time>2022-11-06T07:09:25Z</time>
      </trkpt>
      <trkpt lat="39.6881850" lon="-0.4489350">
        <ele>474.0</ele>
        <time>2022-11-06T07:09:26Z</time>
      </trkpt>
      <trkpt lat="39.6882120" lon="-0.4488870">
        <ele>473.5</ele>
        <time>2022-11-06T07:09:27Z</time>
      </trkpt>
      <trkpt lat="39.6882360" lon="-0.4488370">
        <ele>473.0</ele>
        <time>2022-11-06T07:09:28Z</time>
      </trkpt>
      <trkpt lat="39.6882530" lon="-0.4487800">
        <ele>472.5</ele>
        <time>2022-11-06T07:09:29Z</time>
      </trkpt>
      <trkpt lat="39.6882550" lon="-0.4487180">
        <ele>472.0</ele>
        <time>2022-11-06T07:09:30Z</time>
      </trkpt>
      <trkpt lat="39.6882550" lon="-0.4487180">
        <ele>472.0</ele>
        <time>2022-11-06T07:09:31Z</time>
      </trkpt>
      <trkpt lat="39.6882360" lon="-0.4485250">
        <ele>470.4</ele>
        <time>2022-11-06T07:09:32Z</time>
      </trkpt>
      <trkpt lat="39.6882100" lon="-0.4484670">
        <ele>469.8</ele>
        <time>2022-11-06T07:09:33Z</time>
      </trkpt>
      <trkpt lat="39.6882100" lon="-0.4484670">
        <ele>469.8</ele>
        <time>2022-11-06T07:09:34Z</time>
      </trkpt>
      <trkpt lat="39.6881830" lon="-0.4484100">
        <ele>469.3</ele>
        <time>2022-11-06T07:09:35Z</time>
      </trkpt>
      <trkpt lat="39.6881450" lon="-0.4483530">
        <ele>468.7</ele>
        <time>2022-11-06T07:09:36Z</time>
      </trkpt>
      <trkpt lat="39.6881080" lon="-0.4483080">
        <ele>468.2</ele>
        <time>2022-11-06T07:09:37Z</time>
      </trkpt>
      <trkpt lat="39.6880670" lon="-0.4482600">
        <ele>467.6</ele>
        <time>2022-11-06T07:09:38Z</time>
      </trkpt>
      <trkpt lat="39.6880270" lon="-0.4482050">
        <ele>467.0</ele>
        <time>2022-11-06T07:09:39Z</time>
      </trkpt>
      <trkpt lat="39.6879840" lon="-0.4481530">
        <ele>466.4</ele>
        <time>2022-11-06T07:09:40Z</time>
      </trkpt>
      <trkpt lat="39.6879410" lon="-0.4481050">
        <ele>465.8</ele>
        <time>2022-11-06T07:09:41Z</time>
      </trkpt>
      <trkpt lat="39.6879410" lon="-0.4481050">
        <ele>465.8</ele>
        <time>2022-11-06T07:09:42Z</time>
      </trkpt>
      <trkpt lat="39.6878210" lon="-0.4479150">
        <ele>463.9</ele>
        <time>2022-11-06T07:09:43Z</time>
      </trkpt>
      <trkpt lat="39.6878210" lon="-0.4479150">
        <ele>463.9</ele>
        <time>2022-11-06T07:09:44Z</time>
      </trkpt>
      <trkpt lat="39.6877830" lon="-0.4478470">
        <ele>463.2</ele>
        <time>2022-11-06T07:09:45Z</time>
      </trkpt>
      <trkpt lat="39.6877510" lon="-0.4477750">
        <ele>462.5</ele>
        <time>2022-11-06T07:09:46Z</time>
      </trkpt>
      <trkpt lat="39.6877240" lon="-0.4477020">
        <ele>461.9</ele>
        <time>2022-11-06T07:09:47Z</time>
      </trkpt>
      <trkpt lat="39.6877050" lon="-0.4476200">
        <ele>461.2</ele>
        <time>2022-11-06T07:09:48Z</time>
      </trkpt>
      <trkpt lat="39.6876920" lon="-0.4475430">
        <ele>460.5</ele>
        <time>2022-11-06T07:09:49Z</time>
      </trkpt>
      <trkpt lat="39.6876790" lon="-0.4474470">
        <ele>459.7</ele>
        <time>2022-11-06T07:09:50Z</time>
      </trkpt>
      <trkpt lat="39.6876650" lon="-0.4473720">
        <ele>459.0</ele>
        <time>2022-11-06T07:09:51Z</time>
      </trkpt>
      <trkpt lat="39.6876250" lon="-0.4472130">
        <ele>457.6</ele>
        <time>2022-11-06T07:09:52Z</time>
      </trkpt>
      <trkpt lat="39.6876030" lon="-0.4471280">
        <ele>456.9</ele>
        <time>2022-11-06T07:09:53Z</time>
      </trkpt>
      <trkpt lat="39.6875770" lon="-0.4470520">
        <ele>456.3</ele>
        <time>2022-11-06T07:09:54Z</time>
      </trkpt>
      <trkpt lat="39.6875770" lon="-0.4470520">
        <ele>456.3</ele>
        <time>2022-11-06T07:09:55Z</time>
      </trkpt>
      <trkpt lat="39.6875520" lon="-0.4469730">
        <ele>455.6</ele>
        <time>2022-11-06T07:09:56Z</time>
      </trkpt>
      <trkpt lat="39.6875310" lon="-0.4468970">
        <ele>454.9</ele>
        <time>2022-11-06T07:09:57Z</time>
      </trkpt>
      <trkpt lat="39.6875120" lon="-0.4468200">
        <ele>454.3</ele>
        <time>2022-11-06T07:09:58Z</time>
      </trkpt>
      <trkpt lat="39.6874930" lon="-0.4467450">
        <ele>453.6</ele>
        <time>2022-11-06T07:09:59Z</time>
      </trkpt>
      <trkpt lat="39.6874800" lon="-0.4466670">
        <ele>453.0</ele>
        <time>2022-11-06T07:10:00Z</time>
      </trkpt>
      <trkpt lat="39.6874670" lon="-0.4465880">
        <ele>452.3</ele>
        <time>2022-11-06T07:10:01Z</time>
      </trkpt>
      <trkpt lat="39.6874510" lon="-0.4465050">
        <ele>451.6</ele>
        <time>2022-11-06T07:10:02Z</time>
      </trkpt>
      <trkpt lat="39.6874320" lon="-0.4463530">
        <ele>450.3</ele>
        <time>2022-11-06T07:10:03Z</time>
      </trkpt>
      <trkpt lat="39.6874320" lon="-0.4462700">
        <ele>449.6</ele>
        <time>2022-11-06T07:10:04Z</time>
      </trkpt>
      <trkpt lat="39.6874320" lon="-0.4462700">
        <ele>449.6</ele>
        <time>2022-11-06T07:10:05Z</time>
      </trkpt>
      <trkpt lat="39.6874320" lon="-0.4461920">
        <ele>448.9</ele>
        <time>2022-11-06T07:10:06Z</time>
      </trkpt>
      <trkpt lat="39.6874340" lon="-0.4461200">
        <ele>448.2</ele>
        <time>2022-11-06T07:10:07Z</time>
      </trkpt>
      <trkpt lat="39.6874400" lon="-0.4460450">
        <ele>447.4</ele>
        <time>2022-11-06T07:10:08Z</time>
      </trkpt>
      <trkpt lat="39.6874420" lon="-0.4459700">
        <ele>446.7</ele>
        <time>2022-11-06T07:10:09Z</time>
      </trkpt>
      <trkpt lat="39.6874510" lon="-0.4458900">
        <ele>445.9</ele>
        <time>2022-11-06T07:10:10Z</time>
      </trkpt>
      <trkpt lat="39.6874610" lon="-0.4458130">
        <ele>445.1</ele>
        <time>2022-11-06T07:10:11Z</time>
      </trkpt>
      <trkpt lat="39.6874610" lon="-0.4458130">
        <ele>445.1</ele>
        <time>2022-11-06T07:10:12Z</time>
      </trkpt>
      <trkpt lat="39.6875150" lon="-0.4456000">
        <ele>442.7</ele>
        <time>2022-11-06T07:10:13Z</time>
      </trkpt>
      <trkpt lat="39.6875310" lon="-0.4455230">
        <ele>441.8</ele>
        <time>2022-11-06T07:10:14Z</time>
      </trkpt>
      <trkpt lat="39.6875520" lon="-0.4454420">
        <ele>441.0</ele>
        <time>2022-11-06T07:10:15Z</time>
      </trkpt>
      <trkpt lat="39.6875520" lon="-0.4454420">
        <ele>441.0</ele>
        <time>2022-11-06T07:10:16Z</time>
      </trkpt>
      <trkpt lat="39.6875710" lon="-0.4453680">
        <ele>440.2</ele>
        <time>2022-11-06T07:10:17Z</time>
      </trkpt>
      <trkpt lat="39.6875930" lon="-0.4453030">
        <ele>439.6</ele>
        <time>2022-11-06T07:10:18Z</time>
      </trkpt>
      <trkpt lat="39.6876200" lon="-0.4452350">
        <ele>438.9</ele>
        <time>2022-11-06T07:10:19Z</time>
      </trkpt>
      <trkpt lat="39.6876440" lon="-0.4451780">
        <ele>438.4</ele>
        <time>2022-11-06T07:10:20Z</time>
      </trkpt>
      <trkpt lat="39.6876650" lon="-0.4451220">
        <ele>437.9</ele>
        <time>2022-11-06T07:10:21Z</time>
      </trkpt>
      <trkpt lat="39.6876790" lon="-0.4450670">
        <ele>437.3</ele>
        <time>2022-11-06T07:10:22Z</time>
      </trkpt>
      <trkpt lat="39.6876790" lon="-0.4450670">
        <ele>437.3</ele>
        <time>2022-11-06T07:10:23Z</time>
      </trkpt>
      <trkpt lat="39.6876870" lon="-0.4449320">
        <ele>435.9</ele>
        <time>2022-11-06T07:10:24Z</time>
      </trkpt>
      <trkpt lat="39.6876840" lon="-0.4449050">
        <ele>435.6</ele>
        <time>2022-11-06T07:10:25Z</time>
      </trkpt>
      <trkpt lat="39.6876840" lon="-0.4449050">
        <ele>435.6</ele>
        <time>2022-11-06T07:10:26Z</time>
      </trkpt>
      <trkpt lat="39.6876680" lon="-0.4448920">
        <ele>435.3</ele>
        <time>2022-11-06T07:10:27Z</time>
      </trkpt>
      <trkpt lat="39.6876520" lon="-0.4448580">
        <ele>434.8</ele>
        <time>2022-11-06T07:10:28Z</time>
      </trkpt>
      <trkpt lat="39.6876250" lon="-0.4448380">
        <ele>434.2</ele>
        <time>2022-11-06T07:10:29Z</time>
      </trkpt>
      <trkpt lat="39.6875950" lon="-0.4448230">
        <ele>433.7</ele>
        <time>2022-11-06T07:10:30Z</time>
      </trkpt>
      <trkpt lat="39.6875600" lon="-0.4448050">
        <ele>433.0</ele>
        <time>2022-11-06T07:10:31Z</time>
      </trkpt>
      <trkpt lat="39.6875230" lon="-0.4447950">
        <ele>432.4</ele>
        <time>2022-11-06T07:10:32Z</time>
      </trkpt>
      <trkpt lat="39.6874340" lon="-0.4447800">
        <ele>430.9</ele>
        <time>2022-11-06T07:10:33Z</time>
      </trkpt>
      <trkpt lat="39.6873890" lon="-0.4447630">
        <ele>430.1</ele>
        <time>2022-11-06T07:10:34Z</time>
      </trkpt>
      <trkpt lat="39.6873350" lon="-0.4447400">
        <ele>429.8</ele>
        <time>2022-11-06T07:10:35Z</time>
      </trkpt>
      <trkpt lat="39.6872820" lon="-0.4447030">
        <ele>429.5</ele>
        <time>2022-11-06T07:10:36Z</time>
      </trkpt>
      <trkpt lat="39.6872820" lon="-0.4447030">
        <ele>429.5</ele>
        <time>2022-11-06T07:10:37Z</time>
      </trkpt>
      <trkpt lat="39.6872330" lon="-0.4446620">
        <ele>429.2</ele>
        <time>2022-11-06T07:10:38Z</time>
      </trkpt>
      <trkpt lat="39.6871900" lon="-0.4446350">
        <ele>428.9</ele>
        <time>2022-11-06T07:10:39Z</time>
      </trkpt>
      <trkpt lat="39.6871530" lon="-0.4446180">
        <ele>428.7</ele>
        <time>2022-11-06T07:10:40Z</time>
      </trkpt>
      <trkpt lat="39.6871150" lon="-0.4446180">
        <ele>428.5</ele>
        <time>2022-11-06T07:10:41Z</time>
      </trkpt>
      <trkpt lat="39.6870780" lon="-0.4446180">
        <ele>428.3</ele>
        <time>2022-11-06T07:10:42Z</time>
      </trkpt>
      <trkpt lat="39.6870350" lon="-0.4446200">
        <ele>428.0</ele>
        <time>2022-11-06T07:10:43Z</time>
      </trkpt>
      <trkpt lat="39.6869460" lon="-0.4446250">
        <ele>427.5</ele>
        <time>2022-11-06T07:10:44Z</time>
      </trkpt>
      <trkpt lat="39.6868980" lon="-0.4446250">
        <ele>427.2</ele>
        <time>2022-11-06T07:10:45Z</time>
      </trkpt>
      <trkpt lat="39.6868520" lon="-0.4446150">
        <ele>427.0</ele>
        <time>2022-11-06T07:10:46Z</time>
      </trkpt>
      <trkpt lat="39.6868520" lon="-0.4446150">
        <ele>427.0</ele>
        <time>2022-11-06T07:10:47Z</time>
      </trkpt>
      <trkpt lat="39.6868010" lon="-0.4445900">
        <ele>426.7</ele>
        <time>2022-11-06T07:10:48Z</time>
      </trkpt>
      <trkpt lat="39.6867610" lon="-0.4445630">
        <ele>426.5</ele>
        <time>2022-11-06T07:10:49Z</time>
      </trkpt>
      <trkpt lat="39.6867180" lon="-0.4445370">
        <ele>426.3</ele>
        <time>2022-11-06T07:10:50Z</time>
      </trkpt>
      <trkpt lat="39.6866810" lon="-0.4445020">
        <ele>426.0</ele>
        <time>2022-11-06T07:10:51Z</time>
      </trkpt>
      <trkpt lat="39.6866540" lon="-0.4444580">
        <ele>425.8</ele>
        <time>2022-11-06T07:10:52Z</time>
      </trkpt>
      <trkpt lat="39.6866540" lon="-0.4444580">
        <ele>425.8</ele>
        <time>2022-11-06T07:10:53Z</time>
      </trkpt>
      <trkpt lat="39.6866110" lon="-0.4443030">
        <ele>424.9</ele>
        <time>2022-11-06T07:10:54Z</time>
      </trkpt>
      <trkpt lat="39.6866140" lon="-0.4442500">
        <ele>424.6</ele>
        <time>2022-11-06T07:10:55Z</time>
      </trkpt>
      <trkpt lat="39.6866350" lon="-0.4441930">
        <ele>424.2</ele>
        <time>2022-11-06T07:10:56Z</time>
      </trkpt>
      <trkpt lat="39.6866540" lon="-0.4441370">
        <ele>423.9</ele>
        <time>2022-11-06T07:10:57Z</time>
      </trkpt>
      <trkpt lat="39.6866540" lon="-0.4441370">
        <ele>423.9</ele>
        <time>2022-11-06T07:10:58Z</time>
      </trkpt>
      <trkpt lat="39.6866750" lon="-0.4440730">
        <ele>423.5</ele>
        <time>2022-11-06T07:10:59Z</time>
      </trkpt>
      <trkpt lat="39.6866940" lon="-0.4440150">
        <ele>423.1</ele>
        <time>2022-11-06T07:11:00Z</time>
      </trkpt>
      <trkpt lat="39.6867100" lon="-0.4439600">
        <ele>422.8</ele>
        <time>2022-11-06T07:11:01Z</time>
      </trkpt>
      <trkpt lat="39.6867180" lon="-0.4439020">
        <ele>422.4</ele>
        <time>2022-11-06T07:11:02Z</time>
      </trkpt>
      <trkpt lat="39.6867290" lon="-0.4438400">
        <ele>422.0</ele>
        <time>2022-11-06T07:11:03Z</time>
      </trkpt>
      <trkpt lat="39.6867290" lon="-0.4438400">
        <ele>422.0</ele>
        <time>2022-11-06T07:11:04Z</time>
      </trkpt>
      <trkpt lat="39.6867750" lon="-0.4436430">
        <ele>420.7</ele>
        <time>2022-11-06T07:11:05Z</time>
      </trkpt>
      <trkpt lat="39.6867930" lon="-0.4435750">
        <ele>420.3</ele>
        <time>2022-11-06T07:11:06Z</time>
      </trkpt>
      <trkpt lat="39.6868120" lon="-0.4435180">
        <ele>419.9</ele>
        <time>2022-11-06T07:11:07Z</time>
      </trkpt>
      <trkpt lat="39.6868120" lon="-0.4435180">
        <ele>419.9</ele>
        <time>2022-11-06T07:11:08Z</time>
      </trkpt>
      <trkpt lat="39.6868340" lon="-0.4434480">
        <ele>419.6</ele>
        <time>2022-11-06T07:11:09Z</time>
      </trkpt>
      <trkpt lat="39.6868520" lon="-0.4433770">
        <ele>419.2</ele>
        <time>2022-11-06T07:11:10Z</time>
      </trkpt>
      <trkpt lat="39.6868660" lon="-0.4433080">
        <ele>418.9</ele>
        <time>2022-11-06T07:11:11Z</time>
      </trkpt>
      <trkpt lat="39.6868820" lon="-0.4432400">
        <ele>418.6</ele>
        <time>2022-11-06T07:11:12Z</time>
      </trkpt>
      <trkpt lat="39.6868930" lon="-0.4431680">
        <ele>418.3</ele>
        <time>2022-11-06T07:11:13Z</time>
      </trkpt>
      <trkpt lat="39.6868930" lon="-0.4431680">
        <ele>418.3</ele>
        <time>2022-11-06T07:11:14Z</time>
      </trkpt>
      <trkpt lat="39.6869270" lon="-0.4429480">
        <ele>417.6</ele>
        <time>2022-11-06T07:11:15Z</time>
      </trkpt>
      <trkpt lat="39.6869270" lon="-0.4428600">
        <ele>417.3</ele>
        <time>2022-11-06T07:11:16Z</time>
      </trkpt>
      <trkpt lat="39.6869060" lon="-0.4428100">
        <ele>417.1</ele>
        <time>2022-11-06T07:11:17Z</time>
      </trkpt>
      <trkpt lat="39.6868790" lon="-0.4427420">
        <ele>416.9</ele>
        <time>2022-11-06T07:11:18Z</time>
      </trkpt>
      <trkpt lat="39.6868790" lon="-0.4427420">
        <ele>416.9</ele>
        <time>2022-11-06T07:11:19Z</time>
      </trkpt>
      <trkpt lat="39.6868600" lon="-0.4426850">
        <ele>416.7</ele>
        <time>2022-11-06T07:11:20Z</time>
      </trkpt>
      <trkpt lat="39.6868390" lon="-0.4426180">
        <ele>416.5</ele>
        <time>2022-11-06T07:11:21Z</time>
      </trkpt>
      <trkpt lat="39.6868260" lon="-0.4425320">
        <ele>416.3</ele>
        <time>2022-11-06T07:11:22Z</time>
      </trkpt>
      <trkpt lat="39.6868090" lon="-0.4424500">
        <ele>416.2</ele>
        <time>2022-11-06T07:11:23Z</time>
      </trkpt>
      <trkpt lat="39.6867850" lon="-0.4423830">
        <ele>416.0</ele>
        <time>2022-11-06T07:11:24Z</time>
      </trkpt>
      <trkpt lat="39.6867850" lon="-0.4423830">
        <ele>416.0</ele>
        <time>2022-11-06T07:11:25Z</time>
      </trkpt>
      <trkpt lat="39.6867210" lon="-0.4422100">
        <ele>415.7</ele>
        <time>2022-11-06T07:11:26Z</time>
      </trkpt>
      <trkpt lat="39.6866940" lon="-0.4421550">
        <ele>415.7</ele>
        <time>2022-11-06T07:11:27Z</time>
      </trkpt>
      <trkpt lat="39.6866620" lon="-0.4421050">
        <ele>415.6</ele>
        <time>2022-11-06T07:11:28Z</time>
      </trkpt>
      <trkpt lat="39.6866620" lon="-0.4421050">
        <ele>415.6</ele>
        <time>2022-11-06T07:11:29Z</time>
      </trkpt>
      <trkpt lat="39.6866300" lon="-0.4420500">
        <ele>415.6</ele>
        <time>2022-11-06T07:11:30Z</time>
      </trkpt>
      <trkpt lat="39.6865950" lon="-0.4420020">
        <ele>415.6</ele>
        <time>2022-11-06T07:11:31Z</time>
      </trkpt>
      <trkpt lat="39.6865650" lon="-0.4419520">
        <ele>415.6</ele>
        <time>2022-11-06T07:11:32Z</time>
      </trkpt>
      <trkpt lat="39.6865390" lon="-0.4419050">
        <ele>415.7</ele>
        <time>2022-11-06T07:11:33Z</time>
      </trkpt>
      <trkpt lat="39.6865220" lon="-0.4418620">
        <ele>415.7</ele>
        <time>2022-11-06T07:11:34Z</time>
      </trkpt>
      <trkpt lat="39.6865310" lon="-0.4417670">
        <ele>415.6</ele>
        <time>2022-11-06T07:11:35Z</time>
      </trkpt>
      <trkpt lat="39.6865470" lon="-0.4417230">
        <ele>415.6</ele>
        <time>2022-11-06T07:11:36Z</time>
      </trkpt>
      <trkpt lat="39.6865570" lon="-0.4416850">
        <ele>415.5</ele>
        <time>2022-11-06T07:11:37Z</time>
      </trkpt>
      <trkpt lat="39.6865680" lon="-0.4416430">
        <ele>415.4</ele>
        <time>2022-11-06T07:11:38Z</time>
      </trkpt>
      <trkpt lat="39.6865810" lon="-0.4415980">
        <ele>415.2</ele>
        <time>2022-11-06T07:11:39Z</time>
      </trkpt>
      <trkpt lat="39.6865810" lon="-0.4415980">
        <ele>415.2</ele>
        <time>2022-11-06T07:11:40Z</time>
      </trkpt>
      <trkpt lat="39.6865900" lon="-0.4415430">
        <ele>414.9</ele>
        <time>2022-11-06T07:11:41Z</time>
      </trkpt>
      <trkpt lat="39.6866000" lon="-0.4414850">
        <ele>414.6</ele>
        <time>2022-11-06T07:11:42Z</time>
      </trkpt>
      <trkpt lat="39.6866030" lon="-0.4414300">
        <ele>414.3</ele>
        <time>2022-11-06T07:11:43Z</time>
      </trkpt>
      <trkpt lat="39.6866110" lon="-0.4413770">
        <ele>413.9</ele>
        <time>2022-11-06T07:11:44Z</time>
      </trkpt>
      <trkpt lat="39.6866190" lon="-0.4413130">
        <ele>413.5</ele>
        <time>2022-11-06T07:11:45Z</time>
      </trkpt>
      <trkpt lat="39.6866270" lon="-0.4412000">
        <ele>412.7</ele>
        <time>2022-11-06T07:11:46Z</time>
      </trkpt>
      <trkpt lat="39.6866270" lon="-0.4411430">
        <ele>412.2</ele>
        <time>2022-11-06T07:11:47Z</time>
      </trkpt>
      <trkpt lat="39.6866300" lon="-0.4410830">
        <ele>411.7</ele>
        <time>2022-11-06T07:11:48Z</time>
      </trkpt>
      <trkpt lat="39.6866300" lon="-0.4410220">
        <ele>411.1</ele>
        <time>2022-11-06T07:11:49Z</time>
      </trkpt>
      <trkpt lat="39.6866300" lon="-0.4410220">
        <ele>411.1</ele>
        <time>2022-11-06T07:11:50Z</time>
      </trkpt>
      <trkpt lat="39.6866300" lon="-0.4409600">
        <ele>410.5</ele>
        <time>2022-11-06T07:11:51Z</time>
      </trkpt>
      <trkpt lat="39.6866350" lon="-0.4409020">
        <ele>410.0</ele>
        <time>2022-11-06T07:11:52Z</time>
      </trkpt>
      <trkpt lat="39.6866380" lon="-0.4408450">
        <ele>409.5</ele>
        <time>2022-11-06T07:11:53Z</time>
      </trkpt>
      <trkpt lat="39.6866460" lon="-0.4407850">
        <ele>408.9</ele>
        <time>2022-11-06T07:11:54Z</time>
      </trkpt>
      <trkpt lat="39.6866460" lon="-0.4407850">
        <ele>408.9</ele>
        <time>2022-11-06T07:11:55Z</time>
      </trkpt>
      <trkpt lat="39.6866830" lon="-0.4406380">
        <ele>407.6</ele>
        <time>2022-11-06T07:11:56Z</time>
      </trkpt>
      <trkpt lat="39.6866910" lon="-0.4406020">
        <ele>407.5</ele>
        <time>2022-11-06T07:11:57Z</time>
      </trkpt>
      <trkpt lat="39.6867020" lon="-0.4405830">
        <ele>407.5</ele>
        <time>2022-11-06T07:11:58Z</time>
      </trkpt>
      <trkpt lat="39.6867130" lon="-0.4405770">
        <ele>407.5</ele>
        <time>2022-11-06T07:11:59Z</time>
      </trkpt>
      <trkpt lat="39.6867080" lon="-0.4405930">
        <ele>407.5</ele>
        <time>2022-11-06T07:12:00Z</time>
      </trkpt>
      <trkpt lat="39.6867080" lon="-0.4405930">
        <ele>407.5</ele>
        <time>2022-11-06T07:12:01Z</time>
      </trkpt>
      <trkpt lat="39.6866940" lon="-0.4406000">
        <ele>407.5</ele>
        <time>2022-11-06T07:12:02Z</time>
      </trkpt>
      <trkpt lat="39.6866910" lon="-0.4405980">
        <ele>407.5</ele>
        <time>2022-11-06T07:12:03Z</time>
      </trkpt>
      <trkpt lat="39.6866890" lon="-0.4405970">
        <ele>407.5</ele>
        <time>2022-11-06T07:12:04Z</time>
      </trkpt>
      <trkpt lat="39.6866650" lon="-0.4405950">
        <ele>407.5</ele>
        <time>2022-11-06T07:13:11Z</time>
      </trkpt>
      <trkpt lat="39.6866540" lon="-0.4406070">
        <ele>407.5</ele>
        <time>2022-11-06T07:13:12Z</time>
      </trkpt>
      <trkpt lat="39.6866410" lon="-0.4406100">
        <ele>407.5</ele>
        <time>2022-11-06T07:13:13Z</time>
      </trkpt>
      <trkpt lat="39.6866410" lon="-0.4406100">
        <ele>407.5</ele>
        <time>2022-11-06T07:13:14Z</time>
      </trkpt>
      <trkpt lat="39.6866300" lon="-0.4406030">
        <ele>407.5</ele>
        <time>2022-11-06T07:13:15Z</time>
      </trkpt>
      <trkpt lat="39.6866300" lon="-0.4405900">
        <ele>407.5</ele>
        <time>2022-11-06T07:13:16Z</time>
      </trkpt>
      <trkpt lat="39.6866380" lon="-0.4405770">
        <ele>407.5</ele>
        <time>2022-11-06T07:13:17Z</time>
      </trkpt>
      <trkpt lat="39.6866620" lon="-0.4405380">
        <ele>407.5</ele>
        <time>2022-11-06T07:13:18Z</time>
      </trkpt>
      <trkpt lat="39.6866730" lon="-0.4405200">
        <ele>407.5</ele>
        <time>2022-11-06T07:13:19Z</time>
      </trkpt>
      <trkpt lat="39.6866830" lon="-0.4405050">
        <ele>407.5</ele>
        <time>2022-11-06T07:13:20Z</time>
      </trkpt>
      <trkpt lat="39.6866940" lon="-0.4404830">
        <ele>407.6</ele>
        <time>2022-11-06T07:13:21Z</time>
      </trkpt>
      <trkpt lat="39.6867020" lon="-0.4404470">
        <ele>407.6</ele>
        <time>2022-11-06T07:13:22Z</time>
      </trkpt>
      <trkpt lat="39.6867080" lon="-0.4404150">
        <ele>407.6</ele>
        <time>2022-11-06T07:13:23Z</time>
      </trkpt>
      <trkpt lat="39.6867130" lon="-0.4403800">
        <ele>407.6</ele>
        <time>2022-11-06T07:13:24Z</time>
      </trkpt>
      <trkpt lat="39.6867130" lon="-0.4403800">
        <ele>407.6</ele>
        <time>2022-11-06T07:13:25Z</time>
      </trkpt>
      <trkpt lat="39.6867180" lon="-0.4403430">
        <ele>407.6</ele>
        <time>2022-11-06T07:13:26Z</time>
      </trkpt>
      <trkpt lat="39.6867210" lon="-0.4403070">
        <ele>407.6</ele>
        <time>2022-11-06T07:13:27Z</time>
      </trkpt>
      <trkpt lat="39.6867210" lon="-0.4403070">
        <ele>407.6</ele>
        <time>2022-11-06T07:13:28Z</time>
      </trkpt>
      <trkpt lat="39.6867290" lon="-0.4402000">
        <ele>407.7</ele>
        <time>2022-11-06T07:13:29Z</time>
      </trkpt>
      <trkpt lat="39.6867290" lon="-0.4401630">
        <ele>407.9</ele>
        <time>2022-11-06T07:13:30Z</time>
      </trkpt>
      <trkpt lat="39.6867290" lon="-0.4401280">
        <ele>408.1</ele>
        <time>2022-11-06T07:13:31Z</time>
      </trkpt>
      <trkpt lat="39.6867290" lon="-0.4400950">
        <ele>408.3</ele>
        <time>2022-11-06T07:13:32Z</time>
      </trkpt>
      <trkpt lat="39.6867340" lon="-0.4400650">
        <ele>408.4</ele>
        <time>2022-11-06T07:13:33Z</time>
      </trkpt>
      <trkpt lat="39.6867340" lon="-0.4400300">
        <ele>408.6</ele>
        <time>2022-11-06T07:13:34Z</time>
      </trkpt>
      <trkpt lat="39.6867340" lon="-0.4400300">
        <ele>408.6</ele>
        <time>2022-11-06T07:13:35Z</time>
      </trkpt>
      <trkpt lat="39.6867290" lon="-0.4399970">
        <ele>408.8</ele>
        <time>2022-11-06T07:13:36Z</time>
      </trkpt>
      <trkpt lat="39.6867290" lon="-0.4399630">
        <ele>409.1</ele>
        <time>2022-11-06T07:13:37Z</time>
      </trkpt>
      <trkpt lat="39.6867290" lon="-0.4399630">
        <ele>409.1</ele>
        <time>2022-11-06T07:13:38Z</time>
      </trkpt>
      <trkpt lat="39.6867180" lon="-0.4398780">
        <ele>409.7</ele>
        <time>2022-11-06T07:13:39Z</time>
      </trkpt>
      <trkpt lat="39.6867130" lon="-0.4398480">
        <ele>409.9</ele>
        <time>2022-11-06T07:13:40Z</time>
      </trkpt>
      <trkpt lat="39.6867080" lon="-0.4398250">
        <ele>410.1</ele>
        <time>2022-11-06T07:13:41Z</time>
      </trkpt>
      <trkpt lat="39.6867020" lon="-0.4397950">
        <ele>410.3</ele>
        <time>2022-11-06T07:13:42Z</time>
      </trkpt>
      <trkpt lat="39.6867000" lon="-0.4397650">
        <ele>410.5</ele>
        <time>2022-11-06T07:13:43Z</time>
      </trkpt>
      <trkpt lat="39.6866940" lon="-0.4397400">
        <ele>410.7</ele>
        <time>2022-11-06T07:13:44Z</time>
      </trkpt>
      <trkpt lat="39.6866910" lon="-0.4397150">
        <ele>410.9</ele>
        <time>2022-11-06T07:13:45Z</time>
      </trkpt>
      <trkpt lat="39.6866910" lon="-0.4397150">
        <ele>410.9</ele>
        <time>2022-11-06T07:13:46Z</time>
      </trkpt>
      <trkpt lat="39.6866830" lon="-0.4396830">
        <ele>411.2</ele>
        <time>2022-11-06T07:13:47Z</time>
      </trkpt>
      <trkpt lat="39.6866810" lon="-0.4396520">
        <ele>411.4</ele>
        <time>2022-11-06T07:13:48Z</time>
      </trkpt>
      <trkpt lat="39.6866810" lon="-0.4396520">
        <ele>411.4</ele>
        <time>2022-11-06T07:13:49Z</time>
      </trkpt>
      <trkpt lat="39.6866810" lon="-0.4395350">
        <ele>412.3</ele>
        <time>2022-11-06T07:13:50Z</time>
      </trkpt>
      <trkpt lat="39.6866830" lon="-0.4394930">
        <ele>412.7</ele>
        <time>2022-11-06T07:13:51Z</time>
      </trkpt>
      <trkpt lat="39.6866890" lon="-0.4394570">
        <ele>413.0</ele>
        <time>2022-11-06T07:13:52Z</time>
      </trkpt>
      <trkpt lat="39.6866910" lon="-0.4394230">
        <ele>413.3</ele>
        <time>2022-11-06T07:13:53Z</time>
      </trkpt>
      <trkpt lat="39.6866940" lon="-0.4393920">
        <ele>413.6</ele>
        <time>2022-11-06T07:13:54Z</time>
      </trkpt>
      <trkpt lat="39.6867020" lon="-0.4393630">
        <ele>413.9</ele>
        <time>2022-11-06T07:13:55Z</time>
      </trkpt>
      <trkpt lat="39.6867020" lon="-0.4393630">
        <ele>413.9</ele>
        <time>2022-11-06T07:13:56Z</time>
      </trkpt>
      <trkpt lat="39.6867180" lon="-0.4393370">
        <ele>414.2</ele>
        <time>2022-11-06T07:13:57Z</time>
      </trkpt>
      <trkpt lat="39.6867290" lon="-0.4393080">
        <ele>414.5</ele>
        <time>2022-11-06T07:13:58Z</time>
      </trkpt>
      <trkpt lat="39.6867610" lon="-0.4392620">
        <ele>415.1</ele>
        <time>2022-11-06T07:13:59Z</time>
      </trkpt>
      <trkpt lat="39.6867750" lon="-0.4392420">
        <ele>415.4</ele>
        <time>2022-11-06T07:14:00Z</time>
      </trkpt>
      <trkpt lat="39.6867930" lon="-0.4392250">
        <ele>415.6</ele>
        <time>2022-11-06T07:14:01Z</time>
      </trkpt>
      <trkpt lat="39.6868090" lon="-0.4392080">
        <ele>415.9</ele>
        <time>2022-11-06T07:14:02Z</time>
      </trkpt>
      <trkpt lat="39.6868260" lon="-0.4391930">
        <ele>416.1</ele>
        <time>2022-11-06T07:14:03Z</time>
      </trkpt>
      <trkpt lat="39.6868470" lon="-0.4391820">
        <ele>416.3</ele>
        <time>2022-11-06T07:14:04Z</time>
      </trkpt>
      <trkpt lat="39.6868710" lon="-0.4391700">
        <ele>416.6</ele>
        <time>2022-11-06T07:14:05Z</time>
      </trkpt>
      <trkpt lat="39.6868930" lon="-0.4391620">
        <ele>416.8</ele>
        <time>2022-11-06T07:14:06Z</time>
      </trkpt>
      <trkpt lat="39.6868930" lon="-0.4391620">
        <ele>416.8</ele>
        <time>2022-11-06T07:14:07Z</time>
      </trkpt>
      <trkpt lat="39.6869170" lon="-0.4391570">
        <ele>417.1</ele>
        <time>2022-11-06T07:14:08Z</time>
      </trkpt>
      <trkpt lat="39.6869360" lon="-0.4391480">
        <ele>417.3</ele>
        <time>2022-11-06T07:14:09Z</time>
      </trkpt>
      <trkpt lat="39.6869780" lon="-0.4391280">
        <ele>417.7</ele>
        <time>2022-11-06T07:14:10Z</time>
      </trkpt>
      <trkpt lat="39.6869970" lon="-0.4391200">
        <ele>417.8</ele>
        <time>2022-11-06T07:14:11Z</time>
      </trkpt>
      <trkpt lat="39.6870190" lon="-0.4391100">
        <ele>418.0</ele>
        <time>2022-11-06T07:14:12Z</time>
      </trkpt>
      <trkpt lat="39.6870370" lon="-0.4390970">
        <ele>418.2</ele>
        <time>2022-11-06T07:14:13Z</time>
      </trkpt>
      <trkpt lat="39.6870620" lon="-0.4390820">
        <ele>418.4</ele>
        <time>2022-11-06T07:14:14Z</time>
      </trkpt>
      <trkpt lat="39.6870800" lon="-0.4390650">
        <ele>418.6</ele>
        <time>2022-11-06T07:14:15Z</time>
      </trkpt>
      <trkpt lat="39.6871050" lon="-0.4390450">
        <ele>418.8</ele>
        <time>2022-11-06T07:14:16Z</time>
      </trkpt>
      <trkpt lat="39.6871050" lon="-0.4390450">
        <ele>418.8</ele>
        <time>2022-11-06T07:14:17Z</time>
      </trkpt>
      <trkpt lat="39.6871230" lon="-0.4390270">
        <ele>419.0</ele>
        <time>2022-11-06T07:14:18Z</time>
      </trkpt>
      <trkpt lat="39.6871230" lon="-0.4390270">
        <ele>419.0</ele>
        <time>2022-11-06T07:14:19Z</time>
      </trkpt>
      <trkpt lat="39.6871720" lon="-0.4389620">
        <ele>419.4</ele>
        <time>2022-11-06T07:14:20Z</time>
      </trkpt>
      <trkpt lat="39.6871880" lon="-0.4389400">
        <ele>419.6</ele>
        <time>2022-11-06T07:14:21Z</time>
      </trkpt>
      <trkpt lat="39.6872060" lon="-0.4389150">
        <ele>419.7</ele>
        <time>2022-11-06T07:14:22Z</time>
      </trkpt>
      <trkpt lat="39.6872230" lon="-0.4388920">
        <ele>419.9</ele>
        <time>2022-11-06T07:14:23Z</time>
      </trkpt>
      <trkpt lat="39.6872360" lon="-0.4388670">
        <ele>420.0</ele>
        <time>2022-11-06T07:14:24Z</time>
      </trkpt>
      <trkpt lat="39.6872520" lon="-0.4388430">
        <ele>420.1</ele>
        <time>2022-11-06T07:14:25Z</time>
      </trkpt>
      <trkpt lat="39.6872710" lon="-0.4388220">
        <ele>420.3</ele>
        <time>2022-11-06T07:14:26Z</time>
      </trkpt>
      <trkpt lat="39.6872900" lon="-0.4388000">
        <ele>420.4</ele>
        <time>2022-11-06T07:14:27Z</time>
      </trkpt>
      <trkpt lat="39.6872900" lon="-0.4388000">
        <ele>420.4</ele>
        <time>2022-11-06T07:14:28Z</time>
      </trkpt>
      <trkpt lat="39.6873080" lon="-0.4387780">
        <ele>420.5</ele>
        <time>2022-11-06T07:14:29Z</time>
      </trkpt>
      <trkpt lat="39.6873080" lon="-0.4387780">
        <ele>420.5</ele>
        <time>2022-11-06T07:14:30Z</time>
      </trkpt>
      <trkpt lat="39.6873590" lon="-0.4387050">
        <ele>420.9</ele>
        <time>2022-11-06T07:14:31Z</time>
      </trkpt>
      <trkpt lat="39.6873750" lon="-0.4386770">
        <ele>421.0</ele>
        <time>2022-11-06T07:14:32Z</time>
      </trkpt>
      <trkpt lat="39.6873810" lon="-0.4386500">
        <ele>421.2</ele>
        <time>2022-11-06T07:14:33Z</time>
      </trkpt>
      <trkpt lat="39.6873940" lon="-0.4386270">
        <ele>421.3</ele>
        <time>2022-11-06T07:14:34Z</time>
      </trkpt>
      <trkpt lat="39.6873970" lon="-0.4386000">
        <ele>421.4</ele>
        <time>2022-11-06T07:14:35Z</time>
      </trkpt>
      <trkpt lat="39.6873940" lon="-0.4385700">
        <ele>421.5</ele>
        <time>2022-11-06T07:14:36Z</time>
      </trkpt>
      <trkpt lat="39.6873940" lon="-0.4385300">
        <ele>421.6</ele>
        <time>2022-11-06T07:14:37Z</time>
      </trkpt>
      <trkpt lat="39.6873940" lon="-0.4385300">
        <ele>421.6</ele>
        <time>2022-11-06T07:14:38Z</time>
      </trkpt>
      <trkpt lat="39.6873890" lon="-0.4384950">
        <ele>421.8</ele>
        <time>2022-11-06T07:14:39Z</time>
      </trkpt>
      <trkpt lat="39.6873940" lon="-0.4384270">
        <ele>422.0</ele>
        <time>2022-11-06T07:14:40Z</time>
      </trkpt>
      <trkpt lat="39.6873940" lon="-0.4383930">
        <ele>422.2</ele>
        <time>2022-11-06T07:14:41Z</time>
      </trkpt>
      <trkpt lat="39.6873940" lon="-0.4383620">
        <ele>422.3</ele>
        <time>2022-11-06T07:14:42Z</time>
      </trkpt>
      <trkpt lat="39.6873940" lon="-0.4383280">
        <ele>422.5</ele>
        <time>2022-11-06T07:14:43Z</time>
      </trkpt>
      <trkpt lat="39.6873940" lon="-0.4382950">
        <ele>422.7</ele>
        <time>2022-11-06T07:14:44Z</time>
      </trkpt>
      <trkpt lat="39.6873970" lon="-0.4382630">
        <ele>422.9</ele>
        <time>2022-11-06T07:14:45Z</time>
      </trkpt>
      <trkpt lat="39.6873970" lon="-0.4382330">
        <ele>423.1</ele>
        <time>2022-11-06T07:14:46Z</time>
      </trkpt>
      <trkpt lat="39.6874080" lon="-0.4382020">
        <ele>423.3</ele>
        <time>2022-11-06T07:14:47Z</time>
      </trkpt>
      <trkpt lat="39.6874080" lon="-0.4381720">
        <ele>423.5</ele>
        <time>2022-11-06T07:14:48Z</time>
      </trkpt>
      <trkpt lat="39.6874080" lon="-0.4381720">
        <ele>423.5</ele>
        <time>2022-11-06T07:14:49Z</time>
      </trkpt>
      <trkpt lat="39.6874160" lon="-0.4381420">
        <ele>423.7</ele>
        <time>2022-11-06T07:14:50Z</time>
      </trkpt>
      <trkpt lat="39.6874260" lon="-0.4380820">
        <ele>424.2</ele>
        <time>2022-11-06T07:14:51Z</time>
      </trkpt>
      <trkpt lat="39.6874340" lon="-0.4380530">
        <ele>424.5</ele>
        <time>2022-11-06T07:14:52Z</time>
      </trkpt>
      <trkpt lat="39.6874400" lon="-0.4380270">
        <ele>424.7</ele>
        <time>2022-11-06T07:14:53Z</time>
      </trkpt>
      <trkpt lat="39.6874510" lon="-0.4380000">
        <ele>424.9</ele>
        <time>2022-11-06T07:14:54Z</time>
      </trkpt>
      <trkpt lat="39.6874720" lon="-0.4379730">
        <ele>425.2</ele>
        <time>2022-11-06T07:14:55Z</time>
      </trkpt>
      <trkpt lat="39.6874880" lon="-0.4379550">
        <ele>425.5</ele>
        <time>2022-11-06T07:14:56Z</time>
      </trkpt>
      <trkpt lat="39.6875070" lon="-0.4379370">
        <ele>425.7</ele>
        <time>2022-11-06T07:14:57Z</time>
      </trkpt>
      <trkpt lat="39.6875310" lon="-0.4379180">
        <ele>426.0</ele>
        <time>2022-11-06T07:14:58Z</time>
      </trkpt>
      <trkpt lat="39.6875310" lon="-0.4379180">
        <ele>426.0</ele>
        <time>2022-11-06T07:14:59Z</time>
      </trkpt>
      <trkpt lat="39.6875310" lon="-0.4379180">
        <ele>426.0</ele>
        <time>2022-11-06T07:15:00Z</time>
      </trkpt>
      <trkpt lat="39.6875980" lon="-0.4378820">
        <ele>426.6</ele>
        <time>2022-11-06T07:15:01Z</time>
      </trkpt>
      <trkpt lat="39.6876220" lon="-0.4378730">
        <ele>426.7</ele>
        <time>2022-11-06T07:15:02Z</time>
      </trkpt>
      <trkpt lat="39.6876490" lon="-0.4378680">
        <ele>426.9</ele>
        <time>2022-11-06T07:15:03Z</time>
      </trkpt>
      <trkpt lat="39.6876760" lon="-0.4378650">
        <ele>427.0</ele>
        <time>2022-11-06T07:15:04Z</time>
      </trkpt>
      <trkpt lat="39.6877030" lon="-0.4378670">
        <ele>427.2</ele>
        <time>2022-11-06T07:15:05Z</time>
      </trkpt>
      <trkpt lat="39.6877290" lon="-0.4378680">
        <ele>427.3</ele>
        <time>2022-11-06T07:15:06Z</time>
      </trkpt>
      <trkpt lat="39.6877510" lon="-0.4378720">
        <ele>427.4</ele>
        <time>2022-11-06T07:15:07Z</time>
      </trkpt>
      <trkpt lat="39.6877780" lon="-0.4378770">
        <ele>427.4</ele>
        <time>2022-11-06T07:15:08Z</time>
      </trkpt>
      <trkpt lat="39.6878020" lon="-0.4378850">
        <ele>427.5</ele>
        <time>2022-11-06T07:15:09Z</time>
      </trkpt>
      <trkpt lat="39.6878020" lon="-0.4378850">
        <ele>427.5</ele>
        <time>2022-11-06T07:15:10Z</time>
      </trkpt>
      <trkpt lat="39.6878290" lon="-0.4378970">
        <ele>427.5</ele>
        <time>2022-11-06T07:15:11Z</time>
      </trkpt>
      <trkpt lat="39.6878930" lon="-0.4379300">
        <ele>427.6</ele>
        <time>2022-11-06T07:15:12Z</time>
      </trkpt>
      <trkpt lat="39.6879230" lon="-0.4379470">
        <ele>427.7</ele>
        <time>2022-11-06T07:15:13Z</time>
      </trkpt>
      <trkpt lat="39.6879490" lon="-0.4379600">
        <ele>427.7</ele>
        <time>2022-11-06T07:15:14Z</time>
      </trkpt>
      <trkpt lat="39.6879840" lon="-0.4379830">
        <ele>427.7</ele>
        <time>2022-11-06T07:15:15Z</time>
      </trkpt>
      <trkpt lat="39.6880140" lon="-0.4380030">
        <ele>427.7</ele>
        <time>2022-11-06T07:15:16Z</time>
      </trkpt>
      <trkpt lat="39.6880540" lon="-0.4380230">
        <ele>427.8</ele>
        <time>2022-11-06T07:15:17Z</time>
      </trkpt>
      <trkpt lat="39.6880860" lon="-0.4380400">
        <ele>427.8</ele>
        <time>2022-11-06T07:15:18Z</time>
      </trkpt>
      <trkpt lat="39.6881260" lon="-0.4380570">
        <ele>427.9</ele>
        <time>2022-11-06T07:15:19Z</time>
      </trkpt>
      <trkpt lat="39.6881260" lon="-0.4380570">
        <ele>427.9</ele>
        <time>2022-11-06T07:15:20Z</time>
      </trkpt>
      <trkpt lat="39.6882070" lon="-0.4380850">
        <ele>428.0</ele>
        <time>2022-11-06T07:15:21Z</time>
      </trkpt>
      <trkpt lat="39.6882440" lon="-0.4380970">
        <ele>428.1</ele>
        <time>2022-11-06T07:15:22Z</time>
      </trkpt>
      <trkpt lat="39.6882820" lon="-0.4381070">
        <ele>428.2</ele>
        <time>2022-11-06T07:15:23Z</time>
      </trkpt>
      <trkpt lat="39.6883250" lon="-0.4381070">
        <ele>428.3</ele>
        <time>2022-11-06T07:15:24Z</time>
      </trkpt>
      <trkpt lat="39.6883620" lon="-0.4381000">
        <ele>428.4</ele>
        <time>2022-11-06T07:15:25Z</time>
      </trkpt>
      <trkpt lat="39.6884000" lon="-0.4380900">
        <ele>428.5</ele>
        <time>2022-11-06T07:15:26Z</time>
      </trkpt>
      <trkpt lat="39.6884350" lon="-0.4380770">
        <ele>428.6</ele>
        <time>2022-11-06T07:15:27Z</time>
      </trkpt>
      <trkpt lat="39.6884720" lon="-0.4380620">
        <ele>428.7</ele>
        <time>2022-11-06T07:15:28Z</time>
      </trkpt>
      <trkpt lat="39.6885020" lon="-0.4380470">
        <ele>428.7</ele>
        <time>2022-11-06T07:15:29Z</time>
      </trkpt>
      <trkpt lat="39.6885420" lon="-0.4380330">
        <ele>428.8</ele>
        <time>2022-11-06T07:15:30Z</time>
      </trkpt>
      <trkpt lat="39.6885420" lon="-0.4380330">
        <ele>428.8</ele>
        <time>2022-11-06T07:15:31Z</time>
      </trkpt>
      <trkpt lat="39.6886090" lon="-0.4379970">
        <ele>429.0</ele>
        <time>2022-11-06T07:15:32Z</time>
      </trkpt>
      <trkpt lat="39.6886440" lon="-0.4379720">
        <ele>429.1</ele>
        <time>2022-11-06T07:15:33Z</time>
      </trkpt>
      <trkpt lat="39.6886740" lon="-0.4379430">
        <ele>429.1</ele>
        <time>2022-11-06T07:15:34Z</time>
      </trkpt>
      <trkpt lat="39.6886980" lon="-0.4379080">
        <ele>429.1</ele>
        <time>2022-11-06T07:15:35Z</time>
      </trkpt>
      <trkpt lat="39.6887170" lon="-0.4378700">
        <ele>429.2</ele>
        <time>2022-11-06T07:15:36Z</time>
      </trkpt>
      <trkpt lat="39.6887330" lon="-0.4378350">
        <ele>429.2</ele>
        <time>2022-11-06T07:15:37Z</time>
      </trkpt>
      <trkpt lat="39.6887330" lon="-0.4377900">
        <ele>429.2</ele>
        <time>2022-11-06T07:15:38Z</time>
      </trkpt>
      <trkpt lat="39.6887170" lon="-0.4377380">
        <ele>429.3</ele>
        <time>2022-11-06T07:15:39Z</time>
      </trkpt>
      <trkpt lat="39.6887000" lon="-0.4376870">
        <ele>429.3</ele>
        <time>2022-11-06T07:15:40Z</time>
      </trkpt>
      <trkpt lat="39.6887000" lon="-0.4376870">
        <ele>429.3</ele>
        <time>2022-11-06T07:15:41Z</time>
      </trkpt>
      <trkpt lat="39.6886550" lon="-0.4375900">
        <ele>429.4</ele>
        <time>2022-11-06T07:15:42Z</time>
      </trkpt>
      <trkpt lat="39.6886360" lon="-0.4375400">
        <ele>429.4</ele>
        <time>2022-11-06T07:15:43Z</time>
      </trkpt>
      <trkpt lat="39.6886230" lon="-0.4374880">
        <ele>429.4</ele>
        <time>2022-11-06T07:15:44Z</time>
      </trkpt>
      <trkpt lat="39.6886070" lon="-0.4374380">
        <ele>429.5</ele>
        <time>2022-11-06T07:15:45Z</time>
      </trkpt>
      <trkpt lat="39.6885960" lon="-0.4373800">
        <ele>429.6</ele>
        <time>2022-11-06T07:15:46Z</time>
      </trkpt>
      <trkpt lat="39.6885820" lon="-0.4373220">
        <ele>429.7</ele>
        <time>2022-11-06T07:15:47Z</time>
      </trkpt>
      <trkpt lat="39.6885770" lon="-0.4372600">
        <ele>429.8</ele>
        <time>2022-11-06T07:15:48Z</time>
      </trkpt>
      <trkpt lat="39.6885690" lon="-0.4371980">
        <ele>429.9</ele>
        <time>2022-11-06T07:15:49Z</time>
      </trkpt>
      <trkpt lat="39.6885640" lon="-0.4371380">
        <ele>430.1</ele>
        <time>2022-11-06T07:15:50Z</time>
      </trkpt>
      <trkpt lat="39.6885640" lon="-0.4371380">
        <ele>430.1</ele>
        <time>2022-11-06T07:15:51Z</time>
      </trkpt>
      <trkpt lat="39.6885640" lon="-0.4371380">
        <ele>430.1</ele>
        <time>2022-11-06T07:15:52Z</time>
      </trkpt>
      <trkpt lat="39.6885450" lon="-0.4369750">
        <ele>430.5</ele>
        <time>2022-11-06T07:15:53Z</time>
      </trkpt>
      <trkpt lat="39.6885420" lon="-0.4369280">
        <ele>430.7</ele>
        <time>2022-11-06T07:15:54Z</time>
      </trkpt>
      <trkpt lat="39.6885370" lon="-0.4368830">
        <ele>430.8</ele>
        <time>2022-11-06T07:15:55Z</time>
      </trkpt>
      <trkpt lat="39.6885370" lon="-0.4368370">
        <ele>431.0</ele>
        <time>2022-11-06T07:15:56Z</time>
      </trkpt>
      <trkpt lat="39.6885420" lon="-0.4367920">
        <ele>431.2</ele>
        <time>2022-11-06T07:15:57Z</time>
      </trkpt>
      <trkpt lat="39.6885450" lon="-0.4367450">
        <ele>431.3</ele>
        <time>2022-11-06T07:15:58Z</time>
      </trkpt>
      <trkpt lat="39.6885530" lon="-0.4367000">
        <ele>431.4</ele>
        <time>2022-11-06T07:15:59Z</time>
      </trkpt>
      <trkpt lat="39.6885610" lon="-0.4366570">
        <ele>431.6</ele>
        <time>2022-11-06T07:16:00Z</time>
      </trkpt>
      <trkpt lat="39.6885610" lon="-0.4366570">
        <ele>431.6</ele>
        <time>2022-11-06T07:16:01Z</time>
      </trkpt>
      <trkpt lat="39.6885610" lon="-0.4366570">
        <ele>431.6</ele>
        <time>2022-11-06T07:16:02Z</time>
      </trkpt>
      <trkpt lat="39.6885990" lon="-0.4365280">
        <ele>431.8</ele>
        <time>2022-11-06T07:16:03Z</time>
      </trkpt>
      <trkpt lat="39.6886150" lon="-0.4364830">
        <ele>431.9</ele>
        <time>2022-11-06T07:16:04Z</time>
      </trkpt>
      <trkpt lat="39.6886330" lon="-0.4364470">
        <ele>432.0</ele>
        <time>2022-11-06T07:16:05Z</time>
      </trkpt>
      <trkpt lat="39.6886490" lon="-0.4364050">
        <ele>432.1</ele>
        <time>2022-11-06T07:16:06Z</time>
      </trkpt>
      <trkpt lat="39.6886680" lon="-0.4363650">
        <ele>432.2</ele>
        <time>2022-11-06T07:16:07Z</time>
      </trkpt>
      <trkpt lat="39.6886870" lon="-0.4363300">
        <ele>432.2</ele>
        <time>2022-11-06T07:16:08Z</time>
      </trkpt>
      <trkpt lat="39.6887060" lon="-0.4362930">
        <ele>432.3</ele>
        <time>2022-11-06T07:16:09Z</time>
      </trkpt>
      <trkpt lat="39.6887250" lon="-0.4362520">
        <ele>432.4</ele>
        <time>2022-11-06T07:16:10Z</time>
      </trkpt>
      <trkpt lat="39.6887430" lon="-0.4362180">
        <ele>432.5</ele>
        <time>2022-11-06T07:16:11Z</time>
      </trkpt>
      <trkpt lat="39.6887430" lon="-0.4362180">
        <ele>432.5</ele>
        <time>2022-11-06T07:16:12Z</time>
      </trkpt>
      <trkpt lat="39.6887810" lon="-0.4361470">
        <ele>432.6</ele>
        <time>2022-11-06T07:16:13Z</time>
      </trkpt>
      <trkpt lat="39.6888050" lon="-0.4361150">
        <ele>432.6</ele>
        <time>2022-11-06T07:16:14Z</time>
      </trkpt>
      <trkpt lat="39.6888240" lon="-0.4360820">
        <ele>432.6</ele>
        <time>2022-11-06T07:16:15Z</time>
      </trkpt>
      <trkpt lat="39.6888510" lon="-0.4360400">
        <ele>432.5</ele>
        <time>2022-11-06T07:16:16Z</time>
      </trkpt>
      <trkpt lat="39.6888880" lon="-0.4359930">
        <ele>432.4</ele>
        <time>2022-11-06T07:16:17Z</time>
      </trkpt>
      <trkpt lat="39.6889230" lon="-0.4359520">
        <ele>432.2</ele>
        <time>2022-11-06T07:16:18Z</time>
      </trkpt>
      <trkpt lat="39.6889660" lon="-0.4359150">
        <ele>431.9</ele>
        <time>2022-11-06T07:16:19Z</time>
      </trkpt>
      <trkpt lat="39.6890170" lon="-0.4358950">
        <ele>431.6</ele>
        <time>2022-11-06T07:16:20Z</time>
      </trkpt>
      <trkpt lat="39.6890790" lon="-0.4358620">
        <ele>431.1</ele>
        <time>2022-11-06T07:16:21Z</time>
      </trkpt>
      <trkpt lat="39.6890790" lon="-0.4358620">
        <ele>431.1</ele>
        <time>2022-11-06T07:16:22Z</time>
      </trkpt>
      <trkpt lat="39.6892210" lon="-0.4358380">
        <ele>430.2</ele>
        <time>2022-11-06T07:16:23Z</time>
      </trkpt>
      <trkpt lat="39.6892770" lon="-0.4358050">
        <ele>429.8</ele>
        <time>2022-11-06T07:16:24Z</time>
      </trkpt>
      <trkpt lat="39.6893390" lon="-0.4357770">
        <ele>429.3</ele>
        <time>2022-11-06T07:16:25Z</time>
      </trkpt>
      <trkpt lat="39.6894000" lon="-0.4357700">
        <ele>428.9</ele>
        <time>2022-11-06T07:16:26Z</time>
      </trkpt>
      <trkpt lat="39.6894650" lon="-0.4357630">
        <ele>428.5</ele>
        <time>2022-11-06T07:16:27Z</time>
      </trkpt>
      <trkpt lat="39.6895320" lon="-0.4357530">
        <ele>428.1</ele>
        <time>2022-11-06T07:16:28Z</time>
      </trkpt>
      <trkpt lat="39.6895940" lon="-0.4357350">
        <ele>427.7</ele>
        <time>2022-11-06T07:16:29Z</time>
      </trkpt>
      <trkpt lat="39.6896530" lon="-0.4357030">
        <ele>427.4</ele>
        <time>2022-11-06T07:16:30Z</time>
      </trkpt>
      <trkpt lat="39.6897040" lon="-0.4356630">
        <ele>427.2</ele>
        <time>2022-11-06T07:16:31Z</time>
      </trkpt>
      <trkpt lat="39.6897550" lon="-0.4356120">
        <ele>426.9</ele>
        <time>2022-11-06T07:16:32Z</time>
      </trkpt>
      <trkpt lat="39.6897550" lon="-0.4356120">
        <ele>426.9</ele>
        <time>2022-11-06T07:16:33Z</time>
      </trkpt>
      <trkpt lat="39.6898650" lon="-0.4354980">
        <ele>426.2</ele>
        <time>2022-11-06T07:16:34Z</time>
      </trkpt>
      <trkpt lat="39.6899240" lon="-0.4354330">
        <ele>425.8</ele>
        <time>2022-11-06T07:16:35Z</time>
      </trkpt>
      <trkpt lat="39.6899740" lon="-0.4353650">
        <ele>425.5</ele>
        <time>2022-11-06T07:16:36Z</time>
      </trkpt>
      <trkpt lat="39.6900250" lon="-0.4352870">
        <ele>425.1</ele>
        <time>2022-11-06T07:16:37Z</time>
      </trkpt>
      <trkpt lat="39.6900630" lon="-0.4352030">
        <ele>424.8</ele>
        <time>2022-11-06T07:16:38Z</time>
      </trkpt>
      <trkpt lat="39.6900950" lon="-0.4351150">
        <ele>424.6</ele>
        <time>2022-11-06T07:16:39Z</time>
      </trkpt>
      <trkpt lat="39.6901250" lon="-0.4350230">
        <ele>424.3</ele>
        <time>2022-11-06T07:16:40Z</time>
      </trkpt>
      <trkpt lat="39.6901600" lon="-0.4349330">
        <ele>424.1</ele>
        <time>2022-11-06T07:16:41Z</time>
      </trkpt>
      <trkpt lat="39.6901600" lon="-0.4349330">
        <ele>424.1</ele>
        <time>2022-11-06T07:16:42Z</time>
      </trkpt>
      <trkpt lat="39.6901600" lon="-0.4349330">
        <ele>424.1</ele>
        <time>2022-11-06T07:16:43Z</time>
      </trkpt>
      <trkpt lat="39.6902940" lon="-0.4346830">
        <ele>423.2</ele>
        <time>2022-11-06T07:16:44Z</time>
      </trkpt>
      <trkpt lat="39.6903390" lon="-0.4346050">
        <ele>423.0</ele>
        <time>2022-11-06T07:16:45Z</time>
      </trkpt>
      <trkpt lat="39.6903800" lon="-0.4345130">
        <ele>422.8</ele>
        <time>2022-11-06T07:16:46Z</time>
      </trkpt>
      <trkpt lat="39.6904170" lon="-0.4344200">
        <ele>422.6</ele>
        <time>2022-11-06T07:16:47Z</time>
      </trkpt>
      <trkpt lat="39.6904650" lon="-0.4343320">
        <ele>422.4</ele>
        <time>2022-11-06T07:16:48Z</time>
      </trkpt>
      <trkpt lat="39.6905220" lon="-0.4342550">
        <ele>422.2</ele>
        <time>2022-11-06T07:16:49Z</time>
      </trkpt>
      <trkpt lat="39.6905860" lon="-0.4341920">
        <ele>422.1</ele>
        <time>2022-11-06T07:16:50Z</time>
      </trkpt>
      <trkpt lat="39.6906560" lon="-0.4341430">
        <ele>422.0</ele>
        <time>2022-11-06T07:16:51Z</time>
      </trkpt>
      <trkpt lat="39.6907280" lon="-0.4341100">
        <ele>422.0</ele>
        <time>2022-11-06T07:16:52Z</time>
      </trkpt>
      <trkpt lat="39.6907280" lon="-0.4341100">
        <ele>422.0</ele>
        <time>2022-11-06T07:16:53Z</time>
      </trkpt>
      <trkpt lat="39.6907280" lon="-0.4341100">
        <ele>422.0</ele>
        <time>2022-11-06T07:16:54Z</time>
      </trkpt>
      <trkpt lat="39.6909530" lon="-0.4340220">
        <ele>422.2</ele>
        <time>2022-11-06T07:16:55Z</time>
      </trkpt>
      <trkpt lat="39.6910100" lon="-0.4339670">
        <ele>422.4</ele>
        <time>2022-11-06T07:16:56Z</time>
      </trkpt>
      <trkpt lat="39.6910530" lon="-0.4339020">
        <ele>422.7</ele>
        <time>2022-11-06T07:16:57Z</time>
      </trkpt>
      <trkpt lat="39.6910770" lon="-0.4338320">
        <ele>423.0</ele>
        <time>2022-11-06T07:16:58Z</time>
      </trkpt>
      <trkpt lat="39.6911040" lon="-0.4337650">
        <ele>423.4</ele>
        <time>2022-11-06T07:16:59Z</time>
      </trkpt>
      <trkpt lat="39.6911280" lon="-0.4337050">
        <ele>423.7</ele>
        <time>2022-11-06T07:17:00Z</time>
      </trkpt>
      <trkpt lat="39.6911520" lon="-0.4336480">
        <ele>424.0</ele>
        <time>2022-11-06T07:17:01Z</time>
      </trkpt>
      <trkpt lat="39.6911810" lon="-0.4335950">
        <ele>424.2</ele>
        <time>2022-11-06T07:17:02Z</time>
      </trkpt>
      <trkpt lat="39.6911810" lon="-0.4335950">
        <ele>424.2</ele>
        <time>2022-11-06T07:17:03Z</time>
      </trkpt>
      <trkpt lat="39.6912380" lon="-0.4335000">
        <ele>424.6</ele>
        <time>2022-11-06T07:17:04Z</time>
      </trkpt>
      <trkpt lat="39.6912730" lon="-0.4334550">
        <ele>424.7</ele>
        <time>2022-11-06T07:17:05Z</time>
      </trkpt>
      <trkpt lat="39.6913100" lon="-0.4334120">
        <ele>424.8</ele>
        <time>2022-11-06T07:17:06Z</time>
      </trkpt>
      <trkpt lat="39.6913530" lon="-0.4333650">
        <ele>424.9</ele>
        <time>2022-11-06T07:17:07Z</time>
      </trkpt>
      <trkpt lat="39.6913990" lon="-0.4333270">
        <ele>424.9</ele>
        <time>2022-11-06T07:17:08Z</time>
      </trkpt>
      <trkpt lat="39.6914440" lon="-0.4332920">
        <ele>425.0</ele>
        <time>2022-11-06T07:17:09Z</time>
      </trkpt>
      <trkpt lat="39.6914900" lon="-0.4332530">
        <ele>425.0</ele>
        <time>2022-11-06T07:17:10Z</time>
      </trkpt>
      <trkpt lat="39.6915270" lon="-0.4332120">
        <ele>425.0</ele>
        <time>2022-11-06T07:17:11Z</time>
      </trkpt>
      <trkpt lat="39.6915700" lon="-0.4331680">
        <ele>425.1</ele>
        <time>2022-11-06T07:17:12Z</time>
      </trkpt>
      <trkpt lat="39.6916130" lon="-0.4331270">
        <ele>425.1</ele>
        <time>2022-11-06T07:17:13Z</time>
      </trkpt>
      <trkpt lat="39.6916130" lon="-0.4331270">
        <ele>425.1</ele>
        <time>2022-11-06T07:17:14Z</time>
      </trkpt>
      <trkpt lat="39.6916910" lon="-0.4330400">
        <ele>425.1</ele>
        <time>2022-11-06T07:17:15Z</time>
      </trkpt>
      <trkpt lat="39.6917340" lon="-0.4329930">
        <ele>425.0</ele>
        <time>2022-11-06T07:17:16Z</time>
      </trkpt>
      <trkpt lat="39.6917770" lon="-0.4329470">
        <ele>425.0</ele>
        <time>2022-11-06T07:17:17Z</time>
      </trkpt>
      <trkpt lat="39.6918170" lon="-0.4329030">
        <ele>425.0</ele>
        <time>2022-11-06T07:17:18Z</time>
      </trkpt>
      <trkpt lat="39.6918630" lon="-0.4328580">
        <ele>424.9</ele>
        <time>2022-11-06T07:17:19Z</time>
      </trkpt>
      <trkpt lat="39.6919110" lon="-0.4328170">
        <ele>424.8</ele>
        <time>2022-11-06T07:17:20Z</time>
      </trkpt>
      <trkpt lat="39.6919570" lon="-0.4327700">
        <ele>424.7</ele>
        <time>2022-11-06T07:17:21Z</time>
      </trkpt>
      <trkpt lat="39.6920050" lon="-0.4327270">
        <ele>424.5</ele>
        <time>2022-11-06T07:17:22Z</time>
      </trkpt>
      <trkpt lat="39.6920050" lon="-0.4327270">
        <ele>424.5</ele>
        <time>2022-11-06T07:17:23Z</time>
      </trkpt>
      <trkpt lat="39.6920050" lon="-0.4327270">
        <ele>424.5</ele>
        <time>2022-11-06T07:17:24Z</time>
      </trkpt>
      <trkpt lat="39.6921470" lon="-0.4326250">
        <ele>423.9</ele>
        <time>2022-11-06T07:17:25Z</time>
      </trkpt>
      <trkpt lat="39.6922010" lon="-0.4325980">
        <ele>423.7</ele>
        <time>2022-11-06T07:17:26Z</time>
      </trkpt>
      <trkpt lat="39.6922490" lon="-0.4325720">
        <ele>423.6</ele>
        <time>2022-11-06T07:17:27Z</time>
      </trkpt>
      <trkpt lat="39.6922950" lon="-0.4325480">
        <ele>423.4</ele>
        <time>2022-11-06T07:17:28Z</time>
      </trkpt>
      <trkpt lat="39.6923460" lon="-0.4325230">
        <ele>423.2</ele>
        <time>2022-11-06T07:17:29Z</time>
      </trkpt>
      <trkpt lat="39.6923910" lon="-0.4325000">
        <ele>423.1</ele>
        <time>2022-11-06T07:17:30Z</time>
      </trkpt>
      <trkpt lat="39.6924370" lon="-0.4324780">
        <ele>423.0</ele>
        <time>2022-11-06T07:17:31Z</time>
      </trkpt>
      <trkpt lat="39.6924770" lon="-0.4324570">
        <ele>422.9</ele>
        <time>2022-11-06T07:17:32Z</time>
      </trkpt>
      <trkpt lat="39.6925200" lon="-0.4324320">
        <ele>422.8</ele>
        <time>2022-11-06T07:17:33Z</time>
      </trkpt>
      <trkpt lat="39.6925200" lon="-0.4324320">
        <ele>422.8</ele>
        <time>2022-11-06T07:17:34Z</time>
      </trkpt>
      <trkpt lat="39.6925200" lon="-0.4324320">
        <ele>422.8</ele>
        <time>2022-11-06T07:17:35Z</time>
      </trkpt>
      <trkpt lat="39.6926160" lon="-0.4323200">
        <ele>422.7</ele>
        <time>2022-11-06T07:17:36Z</time>
      </trkpt>
      <trkpt lat="39.6926380" lon="-0.4322730">
        <ele>422.8</ele>
        <time>2022-11-06T07:17:37Z</time>
      </trkpt>
      <trkpt lat="39.6926490" lon="-0.4322250">
        <ele>422.8</ele>
        <time>2022-11-06T07:17:38Z</time>
      </trkpt>
      <trkpt lat="39.6926490" lon="-0.4321750">
        <ele>422.9</ele>
        <time>2022-11-06T07:17:39Z</time>
      </trkpt>
      <trkpt lat="39.6926380" lon="-0.4321280">
        <ele>423.0</ele>
        <time>2022-11-06T07:17:40Z</time>
      </trkpt>
      <trkpt lat="39.6926190" lon="-0.4320850">
        <ele>423.2</ele>
        <time>2022-11-06T07:17:41Z</time>
      </trkpt>
      <trkpt lat="39.6925980" lon="-0.4320450">
        <ele>423.4</ele>
        <time>2022-11-06T07:17:42Z</time>
      </trkpt>
      <trkpt lat="39.6925740" lon="-0.4320020">
        <ele>423.6</ele>
        <time>2022-11-06T07:17:43Z</time>
      </trkpt>
      <trkpt lat="39.6925740" lon="-0.4320020">
        <ele>423.6</ele>
        <time>2022-11-06T07:17:44Z</time>
      </trkpt>
      <trkpt lat="39.6925170" lon="-0.4319280">
        <ele>424.0</ele>
        <time>2022-11-06T07:17:45Z</time>
      </trkpt>
      <trkpt lat="39.6924850" lon="-0.4318920">
        <ele>424.3</ele>
        <time>2022-11-06T07:17:46Z</time>
      </trkpt>
      <trkpt lat="39.6924560" lon="-0.4318580">
        <ele>424.5</ele>
        <time>2022-11-06T07:17:47Z</time>
      </trkpt>
      <trkpt lat="39.6924290" lon="-0.4318200">
        <ele>424.7</ele>
        <time>2022-11-06T07:17:48Z</time>
      </trkpt>
      <trkpt lat="39.6923990" lon="-0.4317850">
        <ele>424.9</ele>
        <time>2022-11-06T07:17:49Z</time>
      </trkpt>
      <trkpt lat="39.6923670" lon="-0.4317450">
        <ele>425.1</ele>
        <time>2022-11-06T07:17:50Z</time>
      </trkpt>
      <trkpt lat="39.6923380" lon="-0.4317070">
        <ele>425.3</ele>
        <time>2022-11-06T07:17:51Z</time>
      </trkpt>
      <trkpt lat="39.6923050" lon="-0.4316620">
        <ele>425.6</ele>
        <time>2022-11-06T07:17:52Z</time>
      </trkpt>
      <trkpt lat="39.6922760" lon="-0.4316220">
        <ele>425.8</ele>
        <time>2022-11-06T07:17:53Z</time>
      </trkpt>
      <trkpt lat="39.6922460" lon="-0.4315820">
        <ele>426.0</ele>
        <time>2022-11-06T07:17:54Z</time>
      </trkpt>
      <trkpt lat="39.6922460" lon="-0.4315820">
        <ele>426.0</ele>
        <time>2022-11-06T07:17:55Z</time>
      </trkpt>
      <trkpt lat="39.6921870" lon="-0.4315030">
        <ele>426.6</ele>
        <time>2022-11-06T07:17:56Z</time>
      </trkpt>
      <trkpt lat="39.6921600" lon="-0.4314650">
        <ele>426.9</ele>
        <time>2022-11-06T07:17:57Z</time>
      </trkpt>
      <trkpt lat="39.6921420" lon="-0.4314250">
        <ele>427.2</ele>
        <time>2022-11-06T07:17:58Z</time>
      </trkpt>
      <trkpt lat="39.6921310" lon="-0.4313830">
        <ele>427.5</ele>
        <time>2022-11-06T07:17:59Z</time>
      </trkpt>
      <trkpt lat="39.6921280" lon="-0.4313420">
        <ele>427.8</ele>
        <time>2022-11-06T07:18:00Z</time>
      </trkpt>
      <trkpt lat="39.6921310" lon="-0.4313030">
        <ele>428.1</ele>
        <time>2022-11-06T07:18:01Z</time>
      </trkpt>
      <trkpt lat="39.6921390" lon="-0.4312650">
        <ele>428.8</ele>
        <time>2022-11-06T07:18:02Z</time>
      </trkpt>
      <trkpt lat="39.6921500" lon="-0.4312300">
        <ele>429.1</ele>
        <time>2022-11-06T07:18:03Z</time>
      </trkpt>
      <trkpt lat="39.6921600" lon="-0.4311980">
        <ele>429.5</ele>
        <time>2022-11-06T07:18:04Z</time>
      </trkpt>
      <trkpt lat="39.6921600" lon="-0.4311980">
        <ele>429.5</ele>
        <time>2022-11-06T07:18:05Z</time>
      </trkpt>
      <trkpt lat="39.6921870" lon="-0.4311430">
        <ele>430.1</ele>
        <time>2022-11-06T07:18:06Z</time>
      </trkpt>
      <trkpt lat="39.6922030" lon="-0.4311170">
        <ele>430.5</ele>
        <time>2022-11-06T07:18:07Z</time>
      </trkpt>
      <trkpt lat="39.6922140" lon="-0.4310920">
        <ele>430.8</ele>
        <time>2022-11-06T07:18:08Z</time>
      </trkpt>
      <trkpt lat="39.6922300" lon="-0.4310680">
        <ele>431.2</ele>
        <time>2022-11-06T07:18:09Z</time>
      </trkpt>
      <trkpt lat="39.6922410" lon="-0.4310430">
        <ele>431.5</ele>
        <time>2022-11-06T07:18:10Z</time>
      </trkpt>
      <trkpt lat="39.6922540" lon="-0.4310200">
        <ele>431.9</ele>
        <time>2022-11-06T07:18:11Z</time>
      </trkpt>
      <trkpt lat="39.6922600" lon="-0.4309950">
        <ele>432.2</ele>
        <time>2022-11-06T07:18:12Z</time>
      </trkpt>
      <trkpt lat="39.6922680" lon="-0.4309670">
        <ele>432.6</ele>
        <time>2022-11-06T07:18:13Z</time>
      </trkpt>
      <trkpt lat="39.6922790" lon="-0.4309430">
        <ele>432.9</ele>
        <time>2022-11-06T07:18:14Z</time>
      </trkpt>
      <trkpt lat="39.6922790" lon="-0.4309430">
        <ele>432.9</ele>
        <time>2022-11-06T07:18:15Z</time>
      </trkpt>
      <trkpt lat="39.6922790" lon="-0.4309430">
        <ele>432.9</ele>
        <time>2022-11-06T07:18:16Z</time>
      </trkpt>
      <trkpt lat="39.6923190" lon="-0.4308750">
        <ele>434.1</ele>
        <time>2022-11-06T07:18:17Z</time>
      </trkpt>
      <trkpt lat="39.6923320" lon="-0.4308550">
        <ele>434.4</ele>
        <time>2022-11-06T07:18:18Z</time>
      </trkpt>
      <trkpt lat="39.6923460" lon="-0.4308330">
        <ele>434.8</ele>
        <time>2022-11-06T07:18:19Z</time>
      </trkpt>
      <trkpt lat="39.6923590" lon="-0.4308130">
        <ele>435.2</ele>
        <time>2022-11-06T07:18:20Z</time>
      </trkpt>
      <trkpt lat="39.6923720" lon="-0.4307920">
        <ele>435.5</ele>
        <time>2022-11-06T07:18:21Z</time>
      </trkpt>
      <trkpt lat="39.6923830" lon="-0.4307730">
        <ele>435.8</ele>
        <time>2022-11-06T07:18:22Z</time>
      </trkpt>
      <trkpt lat="39.6923940" lon="-0.4307520">
        <ele>436.2</ele>
        <time>2022-11-06T07:18:23Z</time>
      </trkpt>
      <trkpt lat="39.6924050" lon="-0.4307320">
        <ele>436.6</ele>
        <time>2022-11-06T07:18:24Z</time>
      </trkpt>
      <trkpt lat="39.6924050" lon="-0.4307320">
        <ele>436.6</ele>
        <time>2022-11-06T07:18:25Z</time>
      </trkpt>
      <trkpt lat="39.6924050" lon="-0.4307320">
        <ele>436.6</ele>
        <time>2022-11-06T07:18:26Z</time>
      </trkpt>
      <trkpt lat="39.6924390" lon="-0.4306730">
        <ele>437.6</ele>
        <time>2022-11-06T07:18:27Z</time>
      </trkpt>
      <trkpt lat="39.6924500" lon="-0.4306530">
        <ele>437.9</ele>
        <time>2022-11-06T07:18:28Z</time>
      </trkpt>
      <trkpt lat="39.6924640" lon="-0.4306330">
        <ele>438.3</ele>
        <time>2022-11-06T07:18:29Z</time>
      </trkpt>
      <trkpt lat="39.6924660" lon="-0.4306120">
        <ele>438.6</ele>
        <time>2022-11-06T07:18:30Z</time>
      </trkpt>
      <trkpt lat="39.6924720" lon="-0.4305900">
        <ele>438.9</ele>
        <time>2022-11-06T07:18:31Z</time>
      </trkpt>
      <trkpt lat="39.6924770" lon="-0.4305670">
        <ele>439.3</ele>
        <time>2022-11-06T07:18:32Z</time>
      </trkpt>
      <trkpt lat="39.6924820" lon="-0.4305470">
        <ele>439.6</ele>
        <time>2022-11-06T07:18:33Z</time>
      </trkpt>
      <trkpt lat="39.6924930" lon="-0.4305250">
        <ele>439.9</ele>
        <time>2022-11-06T07:18:34Z</time>
      </trkpt>
      <trkpt lat="39.6925010" lon="-0.4305030">
        <ele>440.3</ele>
        <time>2022-11-06T07:18:35Z</time>
      </trkpt>
      <trkpt lat="39.6925010" lon="-0.4305030">
        <ele>440.3</ele>
        <time>2022-11-06T07:18:36Z</time>
      </trkpt>
      <trkpt lat="39.6925200" lon="-0.4304600">
        <ele>441.0</ele>
        <time>2022-11-06T07:18:37Z</time>
      </trkpt>
      <trkpt lat="39.6925280" lon="-0.4304400">
        <ele>441.3</ele>
        <time>2022-11-06T07:18:38Z</time>
      </trkpt>
      <trkpt lat="39.6925310" lon="-0.4304230">
        <ele>441.5</ele>
        <time>2022-11-06T07:18:39Z</time>
      </trkpt>
      <trkpt lat="39.6925390" lon="-0.4304030">
        <ele>441.8</ele>
        <time>2022-11-06T07:18:40Z</time>
      </trkpt>
      <trkpt lat="39.6925470" lon="-0.4303820">
        <ele>442.1</ele>
        <time>2022-11-06T07:18:41Z</time>
      </trkpt>
      <trkpt lat="39.6925550" lon="-0.4303600">
        <ele>442.4</ele>
        <time>2022-11-06T07:18:42Z</time>
      </trkpt>
      <trkpt lat="39.6925630" lon="-0.4303400">
        <ele>442.7</ele>
        <time>2022-11-06T07:18:43Z</time>
      </trkpt>
      <trkpt lat="39.6925740" lon="-0.4303180">
        <ele>443.1</ele>
        <time>2022-11-06T07:18:44Z</time>
      </trkpt>
      <trkpt lat="39.6925760" lon="-0.4302970">
        <ele>443.3</ele>
        <time>2022-11-06T07:18:45Z</time>
      </trkpt>
      <trkpt lat="39.6925760" lon="-0.4302970">
        <ele>443.3</ele>
        <time>2022-11-06T07:18:46Z</time>
      </trkpt>
      <trkpt lat="39.6925900" lon="-0.4302530">
        <ele>443.9</ele>
        <time>2022-11-06T07:18:47Z</time>
      </trkpt>
      <trkpt lat="39.6925980" lon="-0.4302370">
        <ele>444.1</ele>
        <time>2022-11-06T07:18:48Z</time>
      </trkpt>
      <trkpt lat="39.6926030" lon="-0.4302220">
        <ele>444.3</ele>
        <time>2022-11-06T07:18:49Z</time>
      </trkpt>
      <trkpt lat="39.6926110" lon="-0.4302120">
        <ele>444.5</ele>
        <time>2022-11-06T07:18:50Z</time>
      </trkpt>
      <trkpt lat="39.6926220" lon="-0.4302020">
        <ele>445.1</ele>
        <time>2022-11-06T07:18:51Z</time>
      </trkpt>
      <trkpt lat="39.6926380" lon="-0.4301950">
        <ele>445.2</ele>
        <time>2022-11-06T07:18:52Z</time>
      </trkpt>
      <trkpt lat="39.6926540" lon="-0.4302030">
        <ele>445.3</ele>
        <time>2022-11-06T07:18:53Z</time>
      </trkpt>
      <trkpt lat="39.6926650" lon="-0.4302220">
        <ele>445.4</ele>
        <time>2022-11-06T07:18:54Z</time>
      </trkpt>
      <trkpt lat="39.6926750" lon="-0.4302320">
        <ele>445.4</ele>
        <time>2022-11-06T07:18:55Z</time>
      </trkpt>
      <trkpt lat="39.6926920" lon="-0.4302450">
        <ele>445.5</ele>
        <time>2022-11-06T07:18:56Z</time>
      </trkpt>
      <trkpt lat="39.6926920" lon="-0.4302450">
        <ele>445.5</ele>
        <time>2022-11-06T07:18:57Z</time>
      </trkpt>
      <trkpt lat="39.6927210" lon="-0.4302750">
        <ele>445.7</ele>
        <time>2022-11-06T07:18:58Z</time>
      </trkpt>
      <trkpt lat="39.6927430" lon="-0.4302870">
        <ele>445.8</ele>
        <time>2022-11-06T07:18:59Z</time>
      </trkpt>
      <trkpt lat="39.6927560" lon="-0.4302950">
        <ele>445.9</ele>
        <time>2022-11-06T07:19:00Z</time>
      </trkpt>
      <trkpt lat="39.6927750" lon="-0.4303020">
        <ele>446.0</ele>
        <time>2022-11-06T07:19:01Z</time>
      </trkpt>
      <trkpt lat="39.6927930" lon="-0.4303120">
        <ele>446.0</ele>
        <time>2022-11-06T07:19:02Z</time>
      </trkpt>
      <trkpt lat="39.6928100" lon="-0.4303230">
        <ele>446.1</ele>
        <time>2022-11-06T07:19:03Z</time>
      </trkpt>
      <trkpt lat="39.6928280" lon="-0.4303350">
        <ele>446.2</ele>
        <time>2022-11-06T07:19:04Z</time>
      </trkpt>
      <trkpt lat="39.6928440" lon="-0.4303500">
        <ele>446.3</ele>
        <time>2022-11-06T07:19:05Z</time>
      </trkpt>
      <trkpt lat="39.6928440" lon="-0.4303500">
        <ele>446.3</ele>
        <time>2022-11-06T07:19:06Z</time>
      </trkpt>
      <trkpt lat="39.6928440" lon="-0.4303500">
        <ele>446.3</ele>
        <time>2022-11-06T07:19:07Z</time>
      </trkpt>
      <trkpt lat="39.6928820" lon="-0.4304030">
        <ele>446.6</ele>
        <time>2022-11-06T07:19:08Z</time>
      </trkpt>
      <trkpt lat="39.6928930" lon="-0.4304220">
        <ele>446.6</ele>
        <time>2022-11-06T07:19:09Z</time>
      </trkpt>
      <trkpt lat="39.6929090" lon="-0.4304370">
        <ele>446.7</ele>
        <time>2022-11-06T07:19:10Z</time>
      </trkpt>
      <trkpt lat="39.6929250" lon="-0.4304530">
        <ele>446.8</ele>
        <time>2022-11-06T07:19:11Z</time>
      </trkpt>
      <trkpt lat="39.6929360" lon="-0.4304680">
        <ele>446.9</ele>
        <time>2022-11-06T07:19:12Z</time>
      </trkpt>
      <trkpt lat="39.6929540" lon="-0.4304830">
        <ele>447.0</ele>
        <time>2022-11-06T07:19:13Z</time>
      </trkpt>
      <trkpt lat="39.6929710" lon="-0.4305000">
        <ele>447.1</ele>
        <time>2022-11-06T07:19:14Z</time>
      </trkpt>
      <trkpt lat="39.6929890" lon="-0.4305170">
        <ele>447.2</ele>
        <time>2022-11-06T07:19:15Z</time>
      </trkpt>
      <trkpt lat="39.6930050" lon="-0.4305370">
        <ele>447.3</ele>
        <time>2022-11-06T07:19:16Z</time>
      </trkpt>
      <trkpt lat="39.6930050" lon="-0.4305370">
        <ele>447.3</ele>
        <time>2022-11-06T07:19:17Z</time>
      </trkpt>
      <trkpt lat="39.6930050" lon="-0.4305370">
        <ele>447.3</ele>
        <time>2022-11-06T07:19:18Z</time>
      </trkpt>
      <trkpt lat="39.6930540" lon="-0.4305900">
        <ele>447.7</ele>
        <time>2022-11-06T07:19:19Z</time>
      </trkpt>
      <trkpt lat="39.6930700" lon="-0.4306080">
        <ele>447.8</ele>
        <time>2022-11-06T07:19:20Z</time>
      </trkpt>
      <trkpt lat="39.6930860" lon="-0.4306220">
        <ele>447.9</ele>
        <time>2022-11-06T07:19:21Z</time>
      </trkpt>
      <trkpt lat="39.6930990" lon="-0.4306370">
        <ele>448.0</ele>
        <time>2022-11-06T07:19:22Z</time>
      </trkpt>
      <trkpt lat="39.6931150" lon="-0.4306520">
        <ele>448.1</ele>
        <time>2022-11-06T07:19:23Z</time>
      </trkpt>
      <trkpt lat="39.6931310" lon="-0.4306630">
        <ele>448.2</ele>
        <time>2022-11-06T07:19:24Z</time>
      </trkpt>
      <trkpt lat="39.6931500" lon="-0.4306800">
        <ele>448.4</ele>
        <time>2022-11-06T07:19:25Z</time>
      </trkpt>
      <trkpt lat="39.6931640" lon="-0.4306950">
        <ele>448.5</ele>
        <time>2022-11-06T07:19:26Z</time>
      </trkpt>
      <trkpt lat="39.6931640" lon="-0.4306950">
        <ele>448.5</ele>
        <time>2022-11-06T07:19:27Z</time>
      </trkpt>
      <trkpt lat="39.6931990" lon="-0.4307330">
        <ele>448.8</ele>
        <time>2022-11-06T07:19:28Z</time>
      </trkpt>
      <trkpt lat="39.6932150" lon="-0.4307520">
        <ele>448.9</ele>
        <time>2022-11-06T07:19:29Z</time>
      </trkpt>
      <trkpt lat="39.6932330" lon="-0.4307750">
        <ele>449.0</ele>
        <time>2022-11-06T07:19:30Z</time>
      </trkpt>
      <trkpt lat="39.6932520" lon="-0.4307970">
        <ele>449.2</ele>
        <time>2022-11-06T07:19:31Z</time>
      </trkpt>
      <trkpt lat="39.6932710" lon="-0.4308170">
        <ele>449.3</ele>
        <time>2022-11-06T07:19:32Z</time>
      </trkpt>
      <trkpt lat="39.6932900" lon="-0.4308420">
        <ele>449.5</ele>
        <time>2022-11-06T07:19:33Z</time>
      </trkpt>
      <trkpt lat="39.6933080" lon="-0.4308630">
        <ele>449.7</ele>
        <time>2022-11-06T07:19:34Z</time>
      </trkpt>
      <trkpt lat="39.6933300" lon="-0.4308820">
        <ele>449.8</ele>
        <time>2022-11-06T07:19:35Z</time>
      </trkpt>
      <trkpt lat="39.6933510" lon="-0.4309000">
        <ele>450.0</ele>
        <time>2022-11-06T07:19:36Z</time>
      </trkpt>
      <trkpt lat="39.6933760" lon="-0.4309150">
        <ele>450.2</ele>
        <time>2022-11-06T07:19:37Z</time>
      </trkpt>
      <trkpt lat="39.6933760" lon="-0.4309150">
        <ele>450.2</ele>
        <time>2022-11-06T07:19:38Z</time>
      </trkpt>
      <trkpt lat="39.6934210" lon="-0.4309430">
        <ele>450.5</ele>
        <time>2022-11-06T07:19:39Z</time>
      </trkpt>
      <trkpt lat="39.6934480" lon="-0.4309570">
        <ele>450.7</ele>
        <time>2022-11-06T07:19:40Z</time>
      </trkpt>
      <trkpt lat="39.6934690" lon="-0.4309680">
        <ele>450.8</ele>
        <time>2022-11-06T07:19:41Z</time>
      </trkpt>
      <trkpt lat="39.6934960" lon="-0.4309800">
        <ele>451.0</ele>
        <time>2022-11-06T07:19:42Z</time>
      </trkpt>
      <trkpt lat="39.6935230" lon="-0.4309900">
        <ele>451.2</ele>
        <time>2022-11-06T07:19:43Z</time>
      </trkpt>
      <trkpt lat="39.6935470" lon="-0.4310000">
        <ele>451.4</ele>
        <time>2022-11-06T07:19:44Z</time>
      </trkpt>
      <trkpt lat="39.6935740" lon="-0.4310080">
        <ele>451.6</ele>
        <time>2022-11-06T07:19:45Z</time>
      </trkpt>
      <trkpt lat="39.6936010" lon="-0.4310170">
        <ele>451.7</ele>
        <time>2022-11-06T07:19:46Z</time>
      </trkpt>
      <trkpt lat="39.6936010" lon="-0.4310170">
        <ele>451.7</ele>
        <time>2022-11-06T07:19:47Z</time>
      </trkpt>
      <trkpt lat="39.6936010" lon="-0.4310170">
        <ele>451.7</ele>
        <time>2022-11-06T07:19:48Z</time>
      </trkpt>
      <trkpt lat="39.6936840" lon="-0.4310300">
        <ele>452.2</ele>
        <time>2022-11-06T07:19:49Z</time>
      </trkpt>
      <trkpt lat="39.6937130" lon="-0.4310300">
        <ele>452.4</ele>
        <time>2022-11-06T07:19:50Z</time>
      </trkpt>
      <trkpt lat="39.6937460" lon="-0.4310280">
        <ele>452.5</ele>
        <time>2022-11-06T07:19:51Z</time>
      </trkpt>
      <trkpt lat="39.6937720" lon="-0.4310280">
        <ele>452.7</ele>
        <time>2022-11-06T07:19:52Z</time>
      </trkpt>
      <trkpt lat="39.6938020" lon="-0.4310280">
        <ele>452.8</ele>
        <time>2022-11-06T07:19:53Z</time>
      </trkpt>
      <trkpt lat="39.6938230" lon="-0.4310280">
        <ele>452.9</ele>
        <time>2022-11-06T07:19:54Z</time>
      </trkpt>
      <trkpt lat="39.6938560" lon="-0.4310250">
        <ele>453.1</ele>
        <time>2022-11-06T07:19:55Z</time>
      </trkpt>
      <trkpt lat="39.6938770" lon="-0.4310250">
        <ele>453.2</ele>
        <time>2022-11-06T07:19:56Z</time>
      </trkpt>
      <trkpt lat="39.6939040" lon="-0.4310280">
        <ele>453.3</ele>
        <time>2022-11-06T07:19:57Z</time>
      </trkpt>
      <trkpt lat="39.6939040" lon="-0.4310280">
        <ele>453.3</ele>
        <time>2022-11-06T07:19:58Z</time>
      </trkpt>
      <trkpt lat="39.6939040" lon="-0.4310280">
        <ele>453.3</ele>
        <time>2022-11-06T07:19:59Z</time>
      </trkpt>
      <trkpt lat="39.6939900" lon="-0.4310420">
        <ele>453.8</ele>
        <time>2022-11-06T07:20:00Z</time>
      </trkpt>
      <trkpt lat="39.6940170" lon="-0.4310430">
        <ele>453.9</ele>
        <time>2022-11-06T07:20:01Z</time>
      </trkpt>
      <trkpt lat="39.6940430" lon="-0.4310500">
        <ele>454.0</ele>
        <time>2022-11-06T07:20:02Z</time>
      </trkpt>
      <trkpt lat="39.6940700" lon="-0.4310570">
        <ele>454.2</ele>
        <time>2022-11-06T07:20:03Z</time>
      </trkpt>
      <trkpt lat="39.6940940" lon="-0.4310620">
        <ele>454.3</ele>
        <time>2022-11-06T07:20:04Z</time>
      </trkpt>
      <trkpt lat="39.6941270" lon="-0.4310630">
        <ele>454.4</ele>
        <time>2022-11-06T07:20:05Z</time>
      </trkpt>
      <trkpt lat="39.6941530" lon="-0.4310680">
        <ele>454.6</ele>
        <time>2022-11-06T07:20:06Z</time>
      </trkpt>
      <trkpt lat="39.6941830" lon="-0.4310730">
        <ele>454.7</ele>
        <time>2022-11-06T07:20:07Z</time>
      </trkpt>
      <trkpt lat="39.6941830" lon="-0.4310730">
        <ele>454.7</ele>
        <time>2022-11-06T07:20:08Z</time>
      </trkpt>
      <trkpt lat="39.6942370" lon="-0.4310820">
        <ele>454.9</ele>
        <time>2022-11-06T07:20:09Z</time>
      </trkpt>
      <trkpt lat="39.6942630" lon="-0.4310880">
        <ele>455.1</ele>
        <time>2022-11-06T07:20:10Z</time>
      </trkpt>
      <trkpt lat="39.6942900" lon="-0.4310970">
        <ele>455.2</ele>
        <time>2022-11-06T07:20:11Z</time>
      </trkpt>
      <trkpt lat="39.6943200" lon="-0.4311070">
        <ele>455.3</ele>
        <time>2022-11-06T07:20:12Z</time>
      </trkpt>
      <trkpt lat="39.6943460" lon="-0.4311200">
        <ele>455.5</ele>
        <time>2022-11-06T07:20:13Z</time>
      </trkpt>
      <trkpt lat="39.6943730" lon="-0.4311320">
        <ele>455.6</ele>
        <time>2022-11-06T07:20:14Z</time>
      </trkpt>
      <trkpt lat="39.6943970" lon="-0.4311450">
        <ele>455.7</ele>
        <time>2022-11-06T07:20:15Z</time>
      </trkpt>
      <trkpt lat="39.6944240" lon="-0.4311550">
        <ele>455.9</ele>
        <time>2022-11-06T07:20:16Z</time>
      </trkpt>
      <trkpt lat="39.6944510" lon="-0.4311630">
        <ele>456.0</ele>
        <time>2022-11-06T07:20:17Z</time>
      </trkpt>
      <trkpt lat="39.6944780" lon="-0.4311700">
        <ele>456.1</ele>
        <time>2022-11-06T07:20:18Z</time>
      </trkpt>
      <trkpt lat="39.6944780" lon="-0.4311700">
        <ele>456.1</ele>
        <time>2022-11-06T07:20:19Z</time>
      </trkpt>
      <trkpt lat="39.6945320" lon="-0.4311770">
        <ele>456.4</ele>
        <time>2022-11-06T07:20:20Z</time>
      </trkpt>
      <trkpt lat="39.6945580" lon="-0.4311880">
        <ele>456.5</ele>
        <time>2022-11-06T07:20:21Z</time>
      </trkpt>
      <trkpt lat="39.6945850" lon="-0.4311920">
        <ele>456.7</ele>
        <time>2022-11-06T07:20:22Z</time>
      </trkpt>
      <trkpt lat="39.6946150" lon="-0.4312020">
        <ele>456.9</ele>
        <time>2022-11-06T07:20:23Z</time>
      </trkpt>
      <trkpt lat="39.6946420" lon="-0.4312120">
        <ele>457.0</ele>
        <time>2022-11-06T07:20:24Z</time>
      </trkpt>
      <trkpt lat="39.6946710" lon="-0.4312230">
        <ele>457.2</ele>
        <time>2022-11-06T07:20:25Z</time>
      </trkpt>
      <trkpt lat="39.6946950" lon="-0.4312350">
        <ele>457.3</ele>
        <time>2022-11-06T07:20:26Z</time>
      </trkpt>
      <trkpt lat="39.6947220" lon="-0.4312470">
        <ele>457.5</ele>
        <time>2022-11-06T07:20:27Z</time>
      </trkpt>
      <trkpt lat="39.6947490" lon="-0.4312530">
        <ele>457.6</ele>
        <time>2022-11-06T07:20:28Z</time>
      </trkpt>
      <trkpt lat="39.6947490" lon="-0.4312530">
        <ele>457.6</ele>
        <time>2022-11-06T07:20:29Z</time>
      </trkpt>
      <trkpt lat="39.6948020" lon="-0.4312700">
        <ele>458.0</ele>
        <time>2022-11-06T07:20:30Z</time>
      </trkpt>
      <trkpt lat="39.6948240" lon="-0.4312770">
        <ele>458.1</ele>
        <time>2022-11-06T07:20:31Z</time>
      </trkpt>
      <trkpt lat="39.6948480" lon="-0.4312820">
        <ele>458.2</ele>
        <time>2022-11-06T07:20:32Z</time>
      </trkpt>
      <trkpt lat="39.6948700" lon="-0.4312950">
        <ele>458.3</ele>
        <time>2022-11-06T07:20:33Z</time>
      </trkpt>
      <trkpt lat="39.6948960" lon="-0.4313070">
        <ele>458.5</ele>
        <time>2022-11-06T07:20:34Z</time>
      </trkpt>
      <trkpt lat="39.6949290" lon="-0.4313220">
        <ele>458.6</ele>
        <time>2022-11-06T07:20:35Z</time>
      </trkpt>
      <trkpt lat="39.6949500" lon="-0.4313350">
        <ele>458.8</ele>
        <time>2022-11-06T07:20:36Z</time>
      </trkpt>
      <trkpt lat="39.6949770" lon="-0.4313500">
        <ele>458.9</ele>
        <time>2022-11-06T07:20:37Z</time>
      </trkpt>
      <trkpt lat="39.6950040" lon="-0.4313700">
        <ele>459.1</ele>
        <time>2022-11-06T07:20:38Z</time>
      </trkpt>
      <trkpt lat="39.6950040" lon="-0.4313700">
        <ele>459.1</ele>
        <time>2022-11-06T07:20:39Z</time>
      </trkpt>
      <trkpt lat="39.6950040" lon="-0.4313700">
        <ele>459.1</ele>
        <time>2022-11-06T07:20:40Z</time>
      </trkpt>
      <trkpt lat="39.6950680" lon="-0.4314380">
        <ele>459.5</ele>
        <time>2022-11-06T07:20:41Z</time>
      </trkpt>
      <trkpt lat="39.6950920" lon="-0.4314600">
        <ele>459.7</ele>
        <time>2022-11-06T07:20:42Z</time>
      </trkpt>
      <trkpt lat="39.6951140" lon="-0.4314820">
        <ele>459.8</ele>
        <time>2022-11-06T07:20:43Z</time>
      </trkpt>
      <trkpt lat="39.6951380" lon="-0.4315050">
        <ele>460.1</ele>
        <time>2022-11-06T07:20:44Z</time>
      </trkpt>
      <trkpt lat="39.6951590" lon="-0.4315270">
        <ele>460.2</ele>
        <time>2022-11-06T07:20:45Z</time>
      </trkpt>
      <trkpt lat="39.6951780" lon="-0.4315500">
        <ele>460.4</ele>
        <time>2022-11-06T07:20:46Z</time>
      </trkpt>
      <trkpt lat="39.6951970" lon="-0.4315730">
        <ele>460.6</ele>
        <time>2022-11-06T07:20:47Z</time>
      </trkpt>
      <trkpt lat="39.6952130" lon="-0.4316000">
        <ele>460.8</ele>
        <time>2022-11-06T07:20:48Z</time>
      </trkpt>
      <trkpt lat="39.6952130" lon="-0.4316000">
        <ele>460.8</ele>
        <time>2022-11-06T07:20:49Z</time>
      </trkpt>
      <trkpt lat="39.6952130" lon="-0.4316000">
        <ele>460.8</ele>
        <time>2022-11-06T07:20:50Z</time>
      </trkpt>
      <trkpt lat="39.6952660" lon="-0.4316680">
        <ele>461.3</ele>
        <time>2022-11-06T07:20:51Z</time>
      </trkpt>
      <trkpt lat="39.6952850" lon="-0.4316920">
        <ele>461.6</ele>
        <time>2022-11-06T07:20:52Z</time>
      </trkpt>
      <trkpt lat="39.6953010" lon="-0.4317180">
        <ele>461.8</ele>
        <time>2022-11-06T07:20:53Z</time>
      </trkpt>
      <trkpt lat="39.6953200" lon="-0.4317420">
        <ele>462.0</ele>
        <time>2022-11-06T07:20:54Z</time>
      </trkpt>
      <trkpt lat="39.6953360" lon="-0.4317630">
        <ele>462.2</ele>
        <time>2022-11-06T07:20:55Z</time>
      </trkpt>
      <trkpt lat="39.6953500" lon="-0.4317870">
        <ele>462.5</ele>
        <time>2022-11-06T07:20:56Z</time>
      </trkpt>
      <trkpt lat="39.6953660" lon="-0.4318080">
        <ele>462.7</ele>
        <time>2022-11-06T07:20:57Z</time>
      </trkpt>
      <trkpt lat="39.6953820" lon="-0.4318280">
        <ele>462.9</ele>
        <time>2022-11-06T07:20:58Z</time>
      </trkpt>
      <trkpt lat="39.6953950" lon="-0.4318500">
        <ele>463.2</ele>
        <time>2022-11-06T07:20:59Z</time>
      </trkpt>
      <trkpt lat="39.6953950" lon="-0.4318500">
        <ele>463.2</ele>
        <time>2022-11-06T07:21:00Z</time>
      </trkpt>
      <trkpt lat="39.6954220" lon="-0.4318920">
        <ele>463.6</ele>
        <time>2022-11-06T07:21:01Z</time>
      </trkpt>
      <trkpt lat="39.6954380" lon="-0.4319120">
        <ele>463.9</ele>
        <time>2022-11-06T07:21:02Z</time>
      </trkpt>
      <trkpt lat="39.6954540" lon="-0.4319300">
        <ele>464.1</ele>
        <time>2022-11-06T07:21:03Z</time>
      </trkpt>
      <trkpt lat="39.6954680" lon="-0.4319500">
        <ele>464.3</ele>
        <time>2022-11-06T07:21:04Z</time>
      </trkpt>
      <trkpt lat="39.6954840" lon="-0.4319680">
        <ele>464.6</ele>
        <time>2022-11-06T07:21:05Z</time>
      </trkpt>
      <trkpt lat="39.6955030" lon="-0.4319870">
        <ele>464.8</ele>
        <time>2022-11-06T07:21:06Z</time>
      </trkpt>
      <trkpt lat="39.6955190" lon="-0.4320030">
        <ele>465.1</ele>
        <time>2022-11-06T07:21:07Z</time>
      </trkpt>
      <trkpt lat="39.6955290" lon="-0.4320220">
        <ele>465.3</ele>
        <time>2022-11-06T07:21:08Z</time>
      </trkpt>
      <trkpt lat="39.6955480" lon="-0.4320380">
        <ele>465.6</ele>
        <time>2022-11-06T07:21:09Z</time>
      </trkpt>
      <trkpt lat="39.6955480" lon="-0.4320380">
        <ele>465.6</ele>
        <time>2022-11-06T07:21:10Z</time>
      </trkpt>
      <trkpt lat="39.6955750" lon="-0.4320730">
        <ele>466.1</ele>
        <time>2022-11-06T07:21:11Z</time>
      </trkpt>
      <trkpt lat="39.6955880" lon="-0.4320930">
        <ele>466.3</ele>
        <time>2022-11-06T07:21:12Z</time>
      </trkpt>
      <trkpt lat="39.6956020" lon="-0.4321120">
        <ele>466.6</ele>
        <time>2022-11-06T07:21:13Z</time>
      </trkpt>
      <trkpt lat="39.6956150" lon="-0.4321280">
        <ele>466.8</ele>
        <time>2022-11-06T07:21:14Z</time>
      </trkpt>
      <trkpt lat="39.6956290" lon="-0.4321450">
        <ele>467.0</ele>
        <time>2022-11-06T07:21:15Z</time>
      </trkpt>
      <trkpt lat="39.6956390" lon="-0.4321650">
        <ele>467.2</ele>
        <time>2022-11-06T07:21:16Z</time>
      </trkpt>
      <trkpt lat="39.6956530" lon="-0.4321820">
        <ele>467.4</ele>
        <time>2022-11-06T07:21:17Z</time>
      </trkpt>
      <trkpt lat="39.6956660" lon="-0.4321980">
        <ele>467.6</ele>
        <time>2022-11-06T07:21:18Z</time>
      </trkpt>
      <trkpt lat="39.6956820" lon="-0.4322150">
        <ele>467.8</ele>
        <time>2022-11-06T07:21:19Z</time>
      </trkpt>
      <trkpt lat="39.6956930" lon="-0.4322330">
        <ele>468.0</ele>
        <time>2022-11-06T07:21:20Z</time>
      </trkpt>
      <trkpt lat="39.6956930" lon="-0.4322330">
        <ele>468.0</ele>
        <time>2022-11-06T07:21:21Z</time>
      </trkpt>
      <trkpt lat="39.6957200" lon="-0.4322720">
        <ele>468.4</ele>
        <time>2022-11-06T07:21:22Z</time>
      </trkpt>
      <trkpt lat="39.6957330" lon="-0.4322920">
        <ele>468.6</ele>
        <time>2022-11-06T07:21:23Z</time>
      </trkpt>
      <trkpt lat="39.6957440" lon="-0.4323100">
        <ele>468.8</ele>
        <time>2022-11-06T07:21:24Z</time>
      </trkpt>
      <trkpt lat="39.6957550" lon="-0.4323300">
        <ele>469.0</ele>
        <time>2022-11-06T07:21:25Z</time>
      </trkpt>
      <trkpt lat="39.6957710" lon="-0.4323480">
        <ele>469.2</ele>
        <time>2022-11-06T07:21:26Z</time>
      </trkpt>
      <trkpt lat="39.6957810" lon="-0.4323680">
        <ele>469.4</ele>
        <time>2022-11-06T07:21:27Z</time>
      </trkpt>
      <trkpt lat="39.6957920" lon="-0.4323880">
        <ele>469.6</ele>
        <time>2022-11-06T07:21:28Z</time>
      </trkpt>
      <trkpt lat="39.6958060" lon="-0.4324050">
        <ele>469.8</ele>
        <time>2022-11-06T07:21:29Z</time>
      </trkpt>
      <trkpt lat="39.6958060" lon="-0.4324050">
        <ele>469.8</ele>
        <time>2022-11-06T07:21:30Z</time>
      </trkpt>
      <trkpt lat="39.6958060" lon="-0.4324050">
        <ele>469.8</ele>
        <time>2022-11-06T07:21:31Z</time>
      </trkpt>
      <trkpt lat="39.6958380" lon="-0.4324600">
        <ele>470.3</ele>
        <time>2022-11-06T07:21:32Z</time>
      </trkpt>
      <trkpt lat="39.6958460" lon="-0.4324800">
        <ele>470.5</ele>
        <time>2022-11-06T07:21:33Z</time>
      </trkpt>
      <trkpt lat="39.6958590" lon="-0.4325050">
        <ele>470.6</ele>
        <time>2022-11-06T07:21:34Z</time>
      </trkpt>
      <trkpt lat="39.6958650" lon="-0.4325250">
        <ele>470.7</ele>
        <time>2022-11-06T07:21:35Z</time>
      </trkpt>
      <trkpt lat="39.6958730" lon="-0.4325500">
        <ele>470.9</ele>
        <time>2022-11-06T07:21:36Z</time>
      </trkpt>
      <trkpt lat="39.6958810" lon="-0.4325750">
        <ele>471.0</ele>
        <time>2022-11-06T07:21:37Z</time>
      </trkpt>
      <trkpt lat="39.6958890" lon="-0.4326000">
        <ele>471.1</ele>
        <time>2022-11-06T07:21:38Z</time>
      </trkpt>
      <trkpt lat="39.6958910" lon="-0.4326280">
        <ele>471.2</ele>
        <time>2022-11-06T07:21:39Z</time>
      </trkpt>
      <trkpt lat="39.6958990" lon="-0.4326580">
        <ele>471.3</ele>
        <time>2022-11-06T07:21:40Z</time>
      </trkpt>
      <trkpt lat="39.6958990" lon="-0.4326580">
        <ele>471.3</ele>
        <time>2022-11-06T07:21:41Z</time>
      </trkpt>
      <trkpt lat="39.6958990" lon="-0.4326580">
        <ele>471.3</ele>
        <time>2022-11-06T07:21:42Z</time>
      </trkpt>
      <trkpt lat="39.6959160" lon="-0.4327500">
        <ele>471.7</ele>
        <time>2022-11-06T07:21:43Z</time>
      </trkpt>
      <trkpt lat="39.6959240" lon="-0.4327820">
        <ele>471.8</ele>
        <time>2022-11-06T07:21:44Z</time>
      </trkpt>
      <trkpt lat="39.6959320" lon="-0.4328130">
        <ele>471.9</ele>
        <time>2022-11-06T07:21:45Z</time>
      </trkpt>
      <trkpt lat="39.6959340" lon="-0.4328470">
        <ele>472.0</ele>
        <time>2022-11-06T07:21:46Z</time>
      </trkpt>
      <trkpt lat="39.6959420" lon="-0.4328780">
        <ele>472.1</ele>
        <time>2022-11-06T07:21:47Z</time>
      </trkpt>
      <trkpt lat="39.6959450" lon="-0.4329130">
        <ele>472.2</ele>
        <time>2022-11-06T07:21:48Z</time>
      </trkpt>
      <trkpt lat="39.6959530" lon="-0.4329470">
        <ele>472.3</ele>
        <time>2022-11-06T07:21:49Z</time>
      </trkpt>
      <trkpt lat="39.6959580" lon="-0.4329800">
        <ele>472.4</ele>
        <time>2022-11-06T07:21:50Z</time>
      </trkpt>
      <trkpt lat="39.6959580" lon="-0.4329800">
        <ele>472.4</ele>
        <time>2022-11-06T07:21:51Z</time>
      </trkpt>
      <trkpt lat="39.6959640" lon="-0.4330500">
        <ele>472.6</ele>
        <time>2022-11-06T07:21:52Z</time>
      </trkpt>
      <trkpt lat="39.6959720" lon="-0.4330850">
        <ele>472.7</ele>
        <time>2022-11-06T07:21:53Z</time>
      </trkpt>
      <trkpt lat="39.6959770" lon="-0.4331220">
        <ele>472.8</ele>
        <time>2022-11-06T07:21:54Z</time>
      </trkpt>
      <trkpt lat="39.6959830" lon="-0.4331580">
        <ele>472.9</ele>
        <time>2022-11-06T07:21:55Z</time>
      </trkpt>
      <trkpt lat="39.6959910" lon="-0.4331970">
        <ele>473.0</ele>
        <time>2022-11-06T07:21:56Z</time>
      </trkpt>
      <trkpt lat="39.6959910" lon="-0.4332370">
        <ele>473.1</ele>
        <time>2022-11-06T07:21:57Z</time>
      </trkpt>
      <trkpt lat="39.6959960" lon="-0.4332750">
        <ele>473.2</ele>
        <time>2022-11-06T07:21:58Z</time>
      </trkpt>
      <trkpt lat="39.6960040" lon="-0.4333170">
        <ele>473.3</ele>
        <time>2022-11-06T07:21:59Z</time>
      </trkpt>
      <trkpt lat="39.6960070" lon="-0.4333580">
        <ele>473.4</ele>
        <time>2022-11-06T07:22:00Z</time>
      </trkpt>
      <trkpt lat="39.6960090" lon="-0.4333970">
        <ele>473.5</ele>
        <time>2022-11-06T07:22:01Z</time>
      </trkpt>
      <trkpt lat="39.6960090" lon="-0.4333970">
        <ele>473.5</ele>
        <time>2022-11-06T07:22:02Z</time>
      </trkpt>
      <trkpt lat="39.6960230" lon="-0.4334770">
        <ele>473.7</ele>
        <time>2022-11-06T07:22:03Z</time>
      </trkpt>
      <trkpt lat="39.6960310" lon="-0.4335150">
        <ele>473.8</ele>
        <time>2022-11-06T07:22:04Z</time>
      </trkpt>
      <trkpt lat="39.6960360" lon="-0.4335530">
        <ele>473.9</ele>
        <time>2022-11-06T07:22:05Z</time>
      </trkpt>
      <trkpt lat="39.6960420" lon="-0.4335950">
        <ele>474.0</ele>
        <time>2022-11-06T07:22:06Z</time>
      </trkpt>
      <trkpt lat="39.6960440" lon="-0.4336370">
        <ele>474.1</ele>
        <time>2022-11-06T07:22:07Z</time>
      </trkpt>
      <trkpt lat="39.6960500" lon="-0.4336770">
        <ele>474.2</ele>
        <time>2022-11-06T07:22:08Z</time>
      </trkpt>
      <trkpt lat="39.6960520" lon="-0.4337180">
        <ele>474.3</ele>
        <time>2022-11-06T07:22:09Z</time>
      </trkpt>
      <trkpt lat="39.6960520" lon="-0.4337580">
        <ele>474.4</ele>
        <time>2022-11-06T07:22:10Z</time>
      </trkpt>
      <trkpt lat="39.6960520" lon="-0.4337580">
        <ele>474.4</ele>
        <time>2022-11-06T07:22:11Z</time>
      </trkpt>
      <trkpt lat="39.6960520" lon="-0.4337580">
        <ele>474.4</ele>
        <time>2022-11-06T07:22:12Z</time>
      </trkpt>
      <trkpt lat="39.6960600" lon="-0.4338770">
        <ele>474.9</ele>
        <time>2022-11-06T07:22:13Z</time>
      </trkpt>
      <trkpt lat="39.6960550" lon="-0.4339130">
        <ele>475.0</ele>
        <time>2022-11-06T07:22:14Z</time>
      </trkpt>
      <trkpt lat="39.6960550" lon="-0.4339500">
        <ele>475.2</ele>
        <time>2022-11-06T07:22:15Z</time>
      </trkpt>
      <trkpt lat="39.6960600" lon="-0.4339830">
        <ele>475.3</ele>
        <time>2022-11-06T07:22:16Z</time>
      </trkpt>
      <trkpt lat="39.6960600" lon="-0.4340200">
        <ele>475.5</ele>
        <time>2022-11-06T07:22:17Z</time>
      </trkpt>
      <trkpt lat="39.6960550" lon="-0.4340530">
        <ele>475.7</ele>
        <time>2022-11-06T07:22:18Z</time>
      </trkpt>
      <trkpt lat="39.6960600" lon="-0.4340870">
        <ele>475.8</ele>
        <time>2022-11-06T07:22:19Z</time>
      </trkpt>
      <trkpt lat="39.6960600" lon="-0.4341180">
        <ele>476.0</ele>
        <time>2022-11-06T07:22:20Z</time>
      </trkpt>
      <trkpt lat="39.6960550" lon="-0.4341500">
        <ele>476.2</ele>
        <time>2022-11-06T07:22:21Z</time>
      </trkpt>
      <trkpt lat="39.6960550" lon="-0.4341500">
        <ele>476.2</ele>
        <time>2022-11-06T07:22:22Z</time>
      </trkpt>
      <trkpt lat="39.6960550" lon="-0.4341500">
        <ele>476.2</ele>
        <time>2022-11-06T07:22:23Z</time>
      </trkpt>
      <trkpt lat="39.6960500" lon="-0.4342480">
        <ele>476.8</ele>
        <time>2022-11-06T07:22:24Z</time>
      </trkpt>
      <trkpt lat="39.6960500" lon="-0.4342780">
        <ele>477.0</ele>
        <time>2022-11-06T07:22:25Z</time>
      </trkpt>
      <trkpt lat="39.6960440" lon="-0.4343100">
        <ele>477.1</ele>
        <time>2022-11-06T07:22:26Z</time>
      </trkpt>
      <trkpt lat="39.6960440" lon="-0.4343420">
        <ele>477.3</ele>
        <time>2022-11-06T07:22:27Z</time>
      </trkpt>
      <trkpt lat="39.6960420" lon="-0.4343730">
        <ele>477.5</ele>
        <time>2022-11-06T07:22:28Z</time>
      </trkpt>
      <trkpt lat="39.6960340" lon="-0.4344050">
        <ele>477.7</ele>
        <time>2022-11-06T07:22:29Z</time>
      </trkpt>
      <trkpt lat="39.6960310" lon="-0.4344370">
        <ele>477.9</ele>
        <time>2022-11-06T07:22:30Z</time>
      </trkpt>
      <trkpt lat="39.6960260" lon="-0.4344680">
        <ele>478.1</ele>
        <time>2022-11-06T07:22:31Z</time>
      </trkpt>
      <trkpt lat="39.6960260" lon="-0.4344680">
        <ele>478.1</ele>
        <time>2022-11-06T07:22:32Z</time>
      </trkpt>
      <trkpt lat="39.6960180" lon="-0.4345280">
        <ele>478.5</ele>
        <time>2022-11-06T07:22:33Z</time>
      </trkpt>
      <trkpt lat="39.6960180" lon="-0.4345480">
        <ele>478.6</ele>
        <time>2022-11-06T07:22:34Z</time>
      </trkpt>
      <trkpt lat="39.6960180" lon="-0.4345770">
        <ele>478.8</ele>
        <time>2022-11-06T07:22:35Z</time>
      </trkpt>
      <trkpt lat="39.6960090" lon="-0.4346100">
        <ele>479.0</ele>
        <time>2022-11-06T07:22:36Z</time>
      </trkpt>
      <trkpt lat="39.6960070" lon="-0.4346400">
        <ele>479.2</ele>
        <time>2022-11-06T07:22:37Z</time>
      </trkpt>
      <trkpt lat="39.6960040" lon="-0.4346700">
        <ele>479.4</ele>
        <time>2022-11-06T07:22:38Z</time>
      </trkpt>
      <trkpt lat="39.6960070" lon="-0.4346970">
        <ele>479.5</ele>
        <time>2022-11-06T07:22:39Z</time>
      </trkpt>
      <trkpt lat="39.6960040" lon="-0.4347250">
        <ele>479.7</ele>
        <time>2022-11-06T07:22:40Z</time>
      </trkpt>
      <trkpt lat="39.6959960" lon="-0.4347570">
        <ele>479.9</ele>
        <time>2022-11-06T07:22:41Z</time>
      </trkpt>
      <trkpt lat="39.6959910" lon="-0.4347880">
        <ele>480.0</ele>
        <time>2022-11-06T07:22:42Z</time>
      </trkpt>
      <trkpt lat="39.6959910" lon="-0.4347880">
        <ele>480.0</ele>
        <time>2022-11-06T07:22:43Z</time>
      </trkpt>
      <trkpt lat="39.6959880" lon="-0.4348550">
        <ele>480.3</ele>
        <time>2022-11-06T07:22:44Z</time>
      </trkpt>
      <trkpt lat="39.6959800" lon="-0.4348870">
        <ele>480.5</ele>
        <time>2022-11-06T07:22:45Z</time>
      </trkpt>
      <trkpt lat="39.6959770" lon="-0.4349200">
        <ele>480.6</ele>
        <time>2022-11-06T07:22:46Z</time>
      </trkpt>
      <trkpt lat="39.6959720" lon="-0.4349500">
        <ele>480.7</ele>
        <time>2022-11-06T07:22:47Z</time>
      </trkpt>
      <trkpt lat="39.6959640" lon="-0.4349800">
        <ele>480.9</ele>
        <time>2022-11-06T07:22:48Z</time>
      </trkpt>
      <trkpt lat="39.6959610" lon="-0.4350150">
        <ele>481.0</ele>
        <time>2022-11-06T07:22:49Z</time>
      </trkpt>
      <trkpt lat="39.6959530" lon="-0.4350470">
        <ele>481.1</ele>
        <time>2022-11-06T07:22:50Z</time>
      </trkpt>
      <trkpt lat="39.6959420" lon="-0.4350800">
        <ele>481.3</ele>
        <time>2022-11-06T07:22:51Z</time>
      </trkpt>
      <trkpt lat="39.6959320" lon="-0.4351120">
        <ele>481.4</ele>
        <time>2022-11-06T07:22:52Z</time>
      </trkpt>
      <trkpt lat="39.6959320" lon="-0.4351120">
        <ele>481.4</ele>
        <time>2022-11-06T07:22:53Z</time>
      </trkpt>
      <trkpt lat="39.6959100" lon="-0.4351780">
        <ele>481.7</ele>
        <time>2022-11-06T07:22:54Z</time>
      </trkpt>
      <trkpt lat="39.6958990" lon="-0.4352100">
        <ele>481.8</ele>
        <time>2022-11-06T07:22:55Z</time>
      </trkpt>
      <trkpt lat="39.6958830" lon="-0.4352430">
        <ele>481.9</ele>
        <time>2022-11-06T07:22:56Z</time>
      </trkpt>
      <trkpt lat="39.6958730" lon="-0.4352750">
        <ele>482.1</ele>
        <time>2022-11-06T07:22:57Z</time>
      </trkpt>
      <trkpt lat="39.6958590" lon="-0.4353070">
        <ele>482.2</ele>
        <time>2022-11-06T07:22:58Z</time>
      </trkpt>
      <trkpt lat="39.6958460" lon="-0.4353350">
        <ele>482.3</ele>
        <time>2022-11-06T07:22:59Z</time>
      </trkpt>
      <trkpt lat="39.6958320" lon="-0.4353680">
        <ele>482.4</ele>
        <time>2022-11-06T07:23:00Z</time>
      </trkpt>
      <trkpt lat="39.6958190" lon="-0.4353980">
        <ele>482.6</ele>
        <time>2022-11-06T07:23:01Z</time>
      </trkpt>
      <trkpt lat="39.6958080" lon="-0.4354280">
        <ele>482.7</ele>
        <time>2022-11-06T07:23:02Z</time>
      </trkpt>
      <trkpt lat="39.6958080" lon="-0.4354280">
        <ele>482.7</ele>
        <time>2022-11-06T07:23:03Z</time>
      </trkpt>
      <trkpt lat="39.6958080" lon="-0.4354280">
        <ele>482.7</ele>
        <time>2022-11-06T07:23:04Z</time>
      </trkpt>
      <trkpt lat="39.6957790" lon="-0.4355200">
        <ele>483.1</ele>
        <time>2022-11-06T07:23:05Z</time>
      </trkpt>
      <trkpt lat="39.6957650" lon="-0.4355520">
        <ele>483.2</ele>
        <time>2022-11-06T07:23:06Z</time>
      </trkpt>
      <trkpt lat="39.6957550" lon="-0.4355830">
        <ele>483.3</ele>
        <time>2022-11-06T07:23:07Z</time>
      </trkpt>
      <trkpt lat="39.6957390" lon="-0.4356170">
        <ele>483.5</ele>
        <time>2022-11-06T07:23:08Z</time>
      </trkpt>
      <trkpt lat="39.6957330" lon="-0.4356480">
        <ele>483.6</ele>
        <time>2022-11-06T07:23:09Z</time>
      </trkpt>
      <trkpt lat="39.6957250" lon="-0.4356820">
        <ele>483.8</ele>
        <time>2022-11-06T07:23:10Z</time>
      </trkpt>
      <trkpt lat="39.6957170" lon="-0.4357150">
        <ele>483.9</ele>
        <time>2022-11-06T07:23:11Z</time>
      </trkpt>
      <trkpt lat="39.6957090" lon="-0.4357480">
        <ele>484.1</ele>
        <time>2022-11-06T07:23:12Z</time>
      </trkpt>
      <trkpt lat="39.6957090" lon="-0.4357480">
        <ele>484.1</ele>
        <time>2022-11-06T07:23:13Z</time>
      </trkpt>
      <trkpt lat="39.6957090" lon="-0.4357480">
        <ele>484.1</ele>
        <time>2022-11-06T07:23:14Z</time>
      </trkpt>
      <trkpt lat="39.6956900" lon="-0.4358430">
        <ele>484.6</ele>
        <time>2022-11-06T07:23:15Z</time>
      </trkpt>
      <trkpt lat="39.6956880" lon="-0.4358750">
        <ele>484.7</ele>
        <time>2022-11-06T07:23:16Z</time>
      </trkpt>
      <trkpt lat="39.6956740" lon="-0.4359050">
        <ele>484.9</ele>
        <time>2022-11-06T07:23:17Z</time>
      </trkpt>
      <trkpt lat="39.6956630" lon="-0.4359370">
        <ele>485.1</ele>
        <time>2022-11-06T07:23:18Z</time>
      </trkpt>
      <trkpt lat="39.6956550" lon="-0.4359650">
        <ele>485.3</ele>
        <time>2022-11-06T07:23:19Z</time>
      </trkpt>
      <trkpt lat="39.6956470" lon="-0.4359950">
        <ele>485.4</ele>
        <time>2022-11-06T07:23:20Z</time>
      </trkpt>
      <trkpt lat="39.6956370" lon="-0.4360270">
        <ele>485.6</ele>
        <time>2022-11-06T07:23:21Z</time>
      </trkpt>
      <trkpt lat="39.6956260" lon="-0.4360570">
        <ele>485.8</ele>
        <time>2022-11-06T07:23:22Z</time>
      </trkpt>
      <trkpt lat="39.6956180" lon="-0.4360870">
        <ele>486.0</ele>
        <time>2022-11-06T07:23:23Z</time>
      </trkpt>
      <trkpt lat="39.6956180" lon="-0.4360870">
        <ele>486.0</ele>
        <time>2022-11-06T07:23:24Z</time>
      </trkpt>
      <trkpt lat="39.6955940" lon="-0.4361420">
        <ele>486.4</ele>
        <time>2022-11-06T07:23:25Z</time>
      </trkpt>
      <trkpt lat="39.6955830" lon="-0.4361700">
        <ele>486.6</ele>
        <time>2022-11-06T07:23:26Z</time>
      </trkpt>
      <trkpt lat="39.6955750" lon="-0.4361980">
        <ele>486.8</ele>
        <time>2022-11-06T07:23:27Z</time>
      </trkpt>
      <trkpt lat="39.6955670" lon="-0.4362270">
        <ele>487.1</ele>
        <time>2022-11-06T07:23:28Z</time>
      </trkpt>
      <trkpt lat="39.6955620" lon="-0.4362580">
        <ele>487.3</ele>
        <time>2022-11-06T07:23:29Z</time>
      </trkpt>
      <trkpt lat="39.6955560" lon="-0.4362880">
        <ele>487.6</ele>
        <time>2022-11-06T07:23:30Z</time>
      </trkpt>
      <trkpt lat="39.6955480" lon="-0.4363180">
        <ele>487.9</ele>
        <time>2022-11-06T07:23:31Z</time>
      </trkpt>
      <trkpt lat="39.6955450" lon="-0.4363500">
        <ele>488.1</ele>
        <time>2022-11-06T07:23:32Z</time>
      </trkpt>
      <trkpt lat="39.6955480" lon="-0.4363800">
        <ele>488.4</ele>
        <time>2022-11-06T07:23:33Z</time>
      </trkpt>
      <trkpt lat="39.6955480" lon="-0.4363800">
        <ele>488.4</ele>
        <time>2022-11-06T07:23:34Z</time>
      </trkpt>
      <trkpt lat="39.6955720" lon="-0.4364270">
        <ele>488.9</ele>
        <time>2022-11-06T07:23:35Z</time>
      </trkpt>
      <trkpt lat="39.6955910" lon="-0.4364400">
        <ele>489.1</ele>
        <time>2022-11-06T07:23:36Z</time>
      </trkpt>
      <trkpt lat="39.6956100" lon="-0.4364400">
        <ele>489.3</ele>
        <time>2022-11-06T07:23:37Z</time>
      </trkpt>
      <trkpt lat="39.6956290" lon="-0.4364330">
        <ele>489.5</ele>
        <time>2022-11-06T07:23:38Z</time>
      </trkpt>
      <trkpt lat="39.6956470" lon="-0.4364220">
        <ele>489.7</ele>
        <time>2022-11-06T07:23:39Z</time>
      </trkpt>
      <trkpt lat="39.6956630" lon="-0.4364070">
        <ele>489.8</ele>
        <time>2022-11-06T07:23:40Z</time>
      </trkpt>
      <trkpt lat="39.6956740" lon="-0.4363870">
        <ele>490.0</ele>
        <time>2022-11-06T07:23:41Z</time>
      </trkpt>
      <trkpt lat="39.6956880" lon="-0.4363620">
        <ele>490.2</ele>
        <time>2022-11-06T07:23:42Z</time>
      </trkpt>
      <trkpt lat="39.6956900" lon="-0.4363370">
        <ele>490.3</ele>
        <time>2022-11-06T07:23:43Z</time>
      </trkpt>
      <trkpt lat="39.6956980" lon="-0.4363100">
        <ele>490.4</ele>
        <time>2022-11-06T07:23:44Z</time>
      </trkpt>
      <trkpt lat="39.6956980" lon="-0.4363100">
        <ele>490.4</ele>
        <time>2022-11-06T07:23:45Z</time>
      </trkpt>
      <trkpt lat="39.6957170" lon="-0.4362530">
        <ele>490.7</ele>
        <time>2022-11-06T07:23:46Z</time>
      </trkpt>
      <trkpt lat="39.6957250" lon="-0.4362270">
        <ele>490.7</ele>
        <time>2022-11-06T07:23:47Z</time>
      </trkpt>
      <trkpt lat="39.6957280" lon="-0.4361980">
        <ele>490.8</ele>
        <time>2022-11-06T07:23:48Z</time>
      </trkpt>
      <trkpt lat="39.6957390" lon="-0.4361730">
        <ele>490.9</ele>
        <time>2022-11-06T07:23:49Z</time>
      </trkpt>
      <trkpt lat="39.6957470" lon="-0.4361450">
        <ele>491.0</ele>
        <time>2022-11-06T07:23:50Z</time>
      </trkpt>
      <trkpt lat="39.6957520" lon="-0.4361200">
        <ele>491.1</ele>
        <time>2022-11-06T07:23:51Z</time>
      </trkpt>
      <trkpt lat="39.6957600" lon="-0.4360980">
        <ele>491.2</ele>
        <time>2022-11-06T07:23:52Z</time>
      </trkpt>
      <trkpt lat="39.6957650" lon="-0.4360720">
        <ele>491.2</ele>
        <time>2022-11-06T07:23:53Z</time>
      </trkpt>
      <trkpt lat="39.6957650" lon="-0.4360720">
        <ele>491.2</ele>
        <time>2022-11-06T07:23:54Z</time>
      </trkpt>
      <trkpt lat="39.6957650" lon="-0.4360720">
        <ele>491.2</ele>
        <time>2022-11-06T07:23:55Z</time>
      </trkpt>
      <trkpt lat="39.6957920" lon="-0.4359900">
        <ele>491.5</ele>
        <time>2022-11-06T07:23:56Z</time>
      </trkpt>
      <trkpt lat="39.6958000" lon="-0.4359600">
        <ele>491.6</ele>
        <time>2022-11-06T07:23:57Z</time>
      </trkpt>
      <trkpt lat="39.6958080" lon="-0.4359330">
        <ele>491.7</ele>
        <time>2022-11-06T07:23:58Z</time>
      </trkpt>
      <trkpt lat="39.6958160" lon="-0.4359050">
        <ele>491.8</ele>
        <time>2022-11-06T07:23:59Z</time>
      </trkpt>
      <trkpt lat="39.6958240" lon="-0.4358730">
        <ele>491.9</ele>
        <time>2022-11-06T07:24:00Z</time>
      </trkpt>
      <trkpt lat="39.6958350" lon="-0.4358430">
        <ele>492.1</ele>
        <time>2022-11-06T07:24:01Z</time>
      </trkpt>
      <trkpt lat="39.6958460" lon="-0.4358100">
        <ele>492.2</ele>
        <time>2022-11-06T07:24:02Z</time>
      </trkpt>
      <trkpt lat="39.6958590" lon="-0.4357720">
        <ele>492.3</ele>
        <time>2022-11-06T07:24:03Z</time>
      </trkpt>
      <trkpt lat="39.6958650" lon="-0.4357450">
        <ele>492.4</ele>
        <time>2022-11-06T07:24:04Z</time>
      </trkpt>
      <trkpt lat="39.6958650" lon="-0.4357450">
        <ele>492.4</ele>
        <time>2022-11-06T07:24:05Z</time>
      </trkpt>
      <trkpt lat="39.6958650" lon="-0.4357450">
        <ele>492.4</ele>
        <time>2022-11-06T07:24:06Z</time>
      </trkpt>
      <trkpt lat="39.6958990" lon="-0.4356700">
        <ele>492.7</ele>
        <time>2022-11-06T07:24:07Z</time>
      </trkpt>
      <trkpt lat="39.6959160" lon="-0.4356420">
        <ele>492.9</ele>
        <time>2022-11-06T07:24:08Z</time>
      </trkpt>
      <trkpt lat="39.6959260" lon="-0.4356120">
        <ele>493.0</ele>
        <time>2022-11-06T07:24:09Z</time>
      </trkpt>
      <trkpt lat="39.6959370" lon="-0.4355870">
        <ele>493.1</ele>
        <time>2022-11-06T07:24:10Z</time>
      </trkpt>
      <trkpt lat="39.6959530" lon="-0.4355600">
        <ele>493.3</ele>
        <time>2022-11-06T07:24:11Z</time>
      </trkpt>
      <trkpt lat="39.6959690" lon="-0.4355320">
        <ele>493.4</ele>
        <time>2022-11-06T07:24:12Z</time>
      </trkpt>
      <trkpt lat="39.6959830" lon="-0.4355070">
        <ele>493.6</ele>
        <time>2022-11-06T07:24:13Z</time>
      </trkpt>
      <trkpt lat="39.6959990" lon="-0.4354830">
        <ele>493.7</ele>
        <time>2022-11-06T07:24:14Z</time>
      </trkpt>
      <trkpt lat="39.6960260" lon="-0.4354350">
        <ele>494.0</ele>
        <time>2022-11-06T07:24:15Z</time>
      </trkpt>
      <trkpt lat="39.6960260" lon="-0.4354350">
        <ele>494.0</ele>
        <time>2022-11-06T07:24:16Z</time>
      </trkpt>
      <trkpt lat="39.6960420" lon="-0.4354100">
        <ele>494.2</ele>
        <time>2022-11-06T07:24:17Z</time>
      </trkpt>
      <trkpt lat="39.6960520" lon="-0.4353870">
        <ele>494.3</ele>
        <time>2022-11-06T07:24:18Z</time>
      </trkpt>
      <trkpt lat="39.6960680" lon="-0.4353620">
        <ele>494.5</ele>
        <time>2022-11-06T07:24:19Z</time>
      </trkpt>
      <trkpt lat="39.6960790" lon="-0.4353400">
        <ele>494.7</ele>
        <time>2022-11-06T07:24:20Z</time>
      </trkpt>
      <trkpt lat="39.6960950" lon="-0.4353120">
        <ele>494.9</ele>
        <time>2022-11-06T07:24:21Z</time>
      </trkpt>
      <trkpt lat="39.6961090" lon="-0.4352900">
        <ele>495.0</ele>
        <time>2022-11-06T07:24:22Z</time>
      </trkpt>
      <trkpt lat="39.6961220" lon="-0.4352650">
        <ele>495.2</ele>
        <time>2022-11-06T07:24:23Z</time>
      </trkpt>
      <trkpt lat="39.6961360" lon="-0.4352430">
        <ele>495.4</ele>
        <time>2022-11-06T07:24:24Z</time>
      </trkpt>
      <trkpt lat="39.6961490" lon="-0.4352150">
        <ele>495.6</ele>
        <time>2022-11-06T07:24:25Z</time>
      </trkpt>
      <trkpt lat="39.6961490" lon="-0.4352150">
        <ele>495.6</ele>
        <time>2022-11-06T07:24:26Z</time>
      </trkpt>
      <trkpt lat="39.6961700" lon="-0.4351550">
        <ele>496.0</ele>
        <time>2022-11-06T07:24:27Z</time>
      </trkpt>
      <trkpt lat="39.6961810" lon="-0.4351220">
        <ele>496.3</ele>
        <time>2022-11-06T07:24:28Z</time>
      </trkpt>
      <trkpt lat="39.6961950" lon="-0.4350850">
        <ele>496.6</ele>
        <time>2022-11-06T07:24:29Z</time>
      </trkpt>
      <trkpt lat="39.6962050" lon="-0.4350480">
        <ele>496.8</ele>
        <time>2022-11-06T07:24:30Z</time>
      </trkpt>
      <trkpt lat="39.6962160" lon="-0.4350200">
        <ele>497.1</ele>
        <time>2022-11-06T07:24:31Z</time>
      </trkpt>
      <trkpt lat="39.6962210" lon="-0.4349920">
        <ele>497.3</ele>
        <time>2022-11-06T07:24:32Z</time>
      </trkpt>
      <trkpt lat="39.6962320" lon="-0.4349580">
        <ele>497.6</ele>
        <time>2022-11-06T07:24:33Z</time>
      </trkpt>
      <trkpt lat="39.6962350" lon="-0.4349200">
        <ele>497.9</ele>
        <time>2022-11-06T07:24:34Z</time>
      </trkpt>
      <trkpt lat="39.6962350" lon="-0.4349200">
        <ele>497.9</ele>
        <time>2022-11-06T07:24:35Z</time>
      </trkpt>
      <trkpt lat="39.6962670" lon="-0.4348320">
        <ele>498.7</ele>
        <time>2022-11-06T07:24:36Z</time>
      </trkpt>
      <trkpt lat="39.6962670" lon="-0.4348320">
        <ele>498.7</ele>
        <time>2022-11-06T07:24:37Z</time>
      </trkpt>
      <trkpt lat="39.6962780" lon="-0.4348030">
        <ele>499.0</ele>
        <time>2022-11-06T07:24:38Z</time>
      </trkpt>
      <trkpt lat="39.6962880" lon="-0.4347770">
        <ele>499.2</ele>
        <time>2022-11-06T07:24:39Z</time>
      </trkpt>
      <trkpt lat="39.6963050" lon="-0.4347500">
        <ele>499.5</ele>
        <time>2022-11-06T07:24:40Z</time>
      </trkpt>
      <trkpt lat="39.6963150" lon="-0.4347250">
        <ele>499.8</ele>
        <time>2022-11-06T07:24:41Z</time>
      </trkpt>
      <trkpt lat="39.6963260" lon="-0.4346970">
        <ele>500.0</ele>
        <time>2022-11-06T07:24:42Z</time>
      </trkpt>
      <trkpt lat="39.6963390" lon="-0.4346720">
        <ele>500.3</ele>
        <time>2022-11-06T07:24:43Z</time>
      </trkpt>
      <trkpt lat="39.6963530" lon="-0.4346430">
        <ele>500.6</ele>
        <time>2022-11-06T07:24:44Z</time>
      </trkpt>
      <trkpt lat="39.6963660" lon="-0.4346170">
        <ele>500.9</ele>
        <time>2022-11-06T07:24:45Z</time>
      </trkpt>
      <trkpt lat="39.6963660" lon="-0.4346170">
        <ele>500.9</ele>
        <time>2022-11-06T07:24:46Z</time>
      </trkpt>
      <trkpt lat="39.6963660" lon="-0.4346170">
        <ele>500.9</ele>
        <time>2022-11-06T07:24:47Z</time>
      </trkpt>
      <trkpt lat="39.6964120" lon="-0.4345400">
        <ele>501.8</ele>
        <time>2022-11-06T07:24:48Z</time>
      </trkpt>
      <trkpt lat="39.6964250" lon="-0.4345180">
        <ele>502.0</ele>
        <time>2022-11-06T07:24:49Z</time>
      </trkpt>
      <trkpt lat="39.6964410" lon="-0.4344980">
        <ele>502.3</ele>
        <time>2022-11-06T07:24:50Z</time>
      </trkpt>
      <trkpt lat="39.6964600" lon="-0.4344820">
        <ele>502.5</ele>
        <time>2022-11-06T07:24:51Z</time>
      </trkpt>
      <trkpt lat="39.6964790" lon="-0.4344670">
        <ele>502.8</ele>
        <time>2022-11-06T07:24:52Z</time>
      </trkpt>
      <trkpt lat="39.6964950" lon="-0.4344520">
        <ele>503.0</ele>
        <time>2022-11-06T07:24:53Z</time>
      </trkpt>
      <trkpt lat="39.6965140" lon="-0.4344370">
        <ele>503.2</ele>
        <time>2022-11-06T07:24:54Z</time>
      </trkpt>
      <trkpt lat="39.6965320" lon="-0.4344250">
        <ele>503.4</ele>
        <time>2022-11-06T07:24:55Z</time>
      </trkpt>
      <trkpt lat="39.6965750" lon="-0.4344050">
        <ele>503.9</ele>
        <time>2022-11-06T07:24:56Z</time>
      </trkpt>
      <trkpt lat="39.6965970" lon="-0.4343970">
        <ele>504.2</ele>
        <time>2022-11-06T07:24:57Z</time>
      </trkpt>
      <trkpt lat="39.6965970" lon="-0.4343970">
        <ele>504.2</ele>
        <time>2022-11-06T07:24:58Z</time>
      </trkpt>
      <trkpt lat="39.6966210" lon="-0.4343900">
        <ele>504.4</ele>
        <time>2022-11-06T07:24:59Z</time>
      </trkpt>
      <trkpt lat="39.6966400" lon="-0.4343850">
        <ele>504.6</ele>
        <time>2022-11-06T07:25:00Z</time>
      </trkpt>
      <trkpt lat="39.6966640" lon="-0.4343800">
        <ele>504.9</ele>
        <time>2022-11-06T07:25:01Z</time>
      </trkpt>
      <trkpt lat="39.6966850" lon="-0.4343770">
        <ele>505.0</ele>
        <time>2022-11-06T07:25:02Z</time>
      </trkpt>
      <trkpt lat="39.6967040" lon="-0.4343730">
        <ele>505.2</ele>
        <time>2022-11-06T07:25:03Z</time>
      </trkpt>
      <trkpt lat="39.6967280" lon="-0.4343680">
        <ele>505.4</ele>
        <time>2022-11-06T07:25:04Z</time>
      </trkpt>
      <trkpt lat="39.6967500" lon="-0.4343680">
        <ele>505.6</ele>
        <time>2022-11-06T07:25:05Z</time>
      </trkpt>
      <trkpt lat="39.6967740" lon="-0.4343670">
        <ele>505.8</ele>
        <time>2022-11-06T07:25:06Z</time>
      </trkpt>
      <trkpt lat="39.6968190" lon="-0.4343620">
        <ele>506.1</ele>
        <time>2022-11-06T07:25:07Z</time>
      </trkpt>
      <trkpt lat="39.6968190" lon="-0.4343620">
        <ele>506.1</ele>
        <time>2022-11-06T07:25:08Z</time>
      </trkpt>
      <trkpt lat="39.6968410" lon="-0.4343570">
        <ele>506.3</ele>
        <time>2022-11-06T07:25:09Z</time>
      </trkpt>
      <trkpt lat="39.6968680" lon="-0.4343500">
        <ele>506.5</ele>
        <time>2022-11-06T07:25:10Z</time>
      </trkpt>
      <trkpt lat="39.6968920" lon="-0.4343430">
        <ele>506.7</ele>
        <time>2022-11-06T07:25:11Z</time>
      </trkpt>
      <trkpt lat="39.6969190" lon="-0.4343320">
        <ele>506.9</ele>
        <time>2022-11-06T07:25:12Z</time>
      </trkpt>
      <trkpt lat="39.6969380" lon="-0.4343180">
        <ele>507.1</ele>
        <time>2022-11-06T07:25:13Z</time>
      </trkpt>
      <trkpt lat="39.6969620" lon="-0.4343050">
        <ele>507.2</ele>
        <time>2022-11-06T07:25:14Z</time>
      </trkpt>
      <trkpt lat="39.6969830" lon="-0.4342900">
        <ele>507.4</ele>
        <time>2022-11-06T07:25:15Z</time>
      </trkpt>
      <trkpt lat="39.6970070" lon="-0.4342720">
        <ele>507.6</ele>
        <time>2022-11-06T07:25:16Z</time>
      </trkpt>
      <trkpt lat="39.6970370" lon="-0.4342230">
        <ele>508.0</ele>
        <time>2022-11-06T07:25:17Z</time>
      </trkpt>
      <trkpt lat="39.6970470" lon="-0.4342020">
        <ele>508.2</ele>
        <time>2022-11-06T07:25:18Z</time>
      </trkpt>
      <trkpt lat="39.6970470" lon="-0.4342020">
        <ele>508.2</ele>
        <time>2022-11-06T07:25:19Z</time>
      </trkpt>
      <trkpt lat="39.6970560" lon="-0.4341720">
        <ele>508.4</ele>
        <time>2022-11-06T07:25:20Z</time>
      </trkpt>
      <trkpt lat="39.6970640" lon="-0.4341450">
        <ele>508.6</ele>
        <time>2022-11-06T07:25:21Z</time>
      </trkpt>
      <trkpt lat="39.6970720" lon="-0.4341180">
        <ele>508.8</ele>
        <time>2022-11-06T07:25:22Z</time>
      </trkpt>
      <trkpt lat="39.6970720" lon="-0.4340870">
        <ele>509.0</ele>
        <time>2022-11-06T07:25:23Z</time>
      </trkpt>
      <trkpt lat="39.6970720" lon="-0.4340530">
        <ele>509.2</ele>
        <time>2022-11-06T07:25:24Z</time>
      </trkpt>
      <trkpt lat="39.6970640" lon="-0.4340250">
        <ele>509.4</ele>
        <time>2022-11-06T07:25:25Z</time>
      </trkpt>
      <trkpt lat="39.6970560" lon="-0.4339970">
        <ele>509.6</ele>
        <time>2022-11-06T07:25:26Z</time>
      </trkpt>
      <trkpt lat="39.6970560" lon="-0.4339970">
        <ele>509.6</ele>
        <time>2022-11-06T07:25:27Z</time>
      </trkpt>
      <trkpt lat="39.6970370" lon="-0.4339050">
        <ele>510.2</ele>
        <time>2022-11-06T07:25:28Z</time>
      </trkpt>
      <trkpt lat="39.6970370" lon="-0.4339050">
        <ele>510.2</ele>
        <time>2022-11-06T07:25:29Z</time>
      </trkpt>
      <trkpt lat="39.6970290" lon="-0.4338730">
        <ele>510.5</ele>
        <time>2022-11-06T07:25:30Z</time>
      </trkpt>
      <trkpt lat="39.6970260" lon="-0.4338430">
        <ele>510.6</ele>
        <time>2022-11-06T07:25:31Z</time>
      </trkpt>
      <trkpt lat="39.6970210" lon="-0.4338120">
        <ele>510.8</ele>
        <time>2022-11-06T07:25:32Z</time>
      </trkpt>
      <trkpt lat="39.6970210" lon="-0.4337780">
        <ele>511.0</ele>
        <time>2022-11-06T07:25:33Z</time>
      </trkpt>
      <trkpt lat="39.6970210" lon="-0.4337470">
        <ele>511.2</ele>
        <time>2022-11-06T07:25:34Z</time>
      </trkpt>
      <trkpt lat="39.6970260" lon="-0.4337150">
        <ele>511.4</ele>
        <time>2022-11-06T07:25:35Z</time>
      </trkpt>
      <trkpt lat="39.6970340" lon="-0.4336870">
        <ele>511.6</ele>
        <time>2022-11-06T07:25:36Z</time>
      </trkpt>
      <trkpt lat="39.6970340" lon="-0.4336870">
        <ele>511.6</ele>
        <time>2022-11-06T07:25:37Z</time>
      </trkpt>
      <trkpt lat="39.6970610" lon="-0.4336070">
        <ele>512.1</ele>
        <time>2022-11-06T07:25:38Z</time>
      </trkpt>
      <trkpt lat="39.6970660" lon="-0.4335830">
        <ele>512.2</ele>
        <time>2022-11-06T07:25:39Z</time>
      </trkpt>
      <trkpt lat="39.6970660" lon="-0.4335830">
        <ele>512.2</ele>
        <time>2022-11-06T07:25:40Z</time>
      </trkpt>
      <trkpt lat="39.6970820" lon="-0.4335630">
        <ele>512.3</ele>
        <time>2022-11-06T07:25:41Z</time>
      </trkpt>
      <trkpt lat="39.6971010" lon="-0.4335450">
        <ele>512.4</ele>
        <time>2022-11-06T07:25:42Z</time>
      </trkpt>
      <trkpt lat="39.6971170" lon="-0.4335270">
        <ele>512.5</ele>
        <time>2022-11-06T07:25:43Z</time>
      </trkpt>
      <trkpt lat="39.6971390" lon="-0.4335050">
        <ele>512.6</ele>
        <time>2022-11-06T07:25:44Z</time>
      </trkpt>
      <trkpt lat="39.6971550" lon="-0.4334880">
        <ele>512.7</ele>
        <time>2022-11-06T07:25:45Z</time>
      </trkpt>
      <trkpt lat="39.6971790" lon="-0.4334730">
        <ele>512.8</ele>
        <time>2022-11-06T07:25:46Z</time>
      </trkpt>
      <trkpt lat="39.6972000" lon="-0.4334630">
        <ele>512.8</ele>
        <time>2022-11-06T07:25:47Z</time>
      </trkpt>
      <trkpt lat="39.6972460" lon="-0.4334520">
        <ele>512.9</ele>
        <time>2022-11-06T07:25:48Z</time>
      </trkpt>
      <trkpt lat="39.6972780" lon="-0.4334480">
        <ele>512.9</ele>
        <time>2022-11-06T07:25:49Z</time>
      </trkpt>
      <trkpt lat="39.6972780" lon="-0.4334480">
        <ele>512.9</ele>
        <time>2022-11-06T07:25:50Z</time>
      </trkpt>
      <trkpt lat="39.6973080" lon="-0.4334480">
        <ele>512.9</ele>
        <time>2022-11-06T07:25:51Z</time>
      </trkpt>
      <trkpt lat="39.6973370" lon="-0.4334520">
        <ele>512.9</ele>
        <time>2022-11-06T07:25:52Z</time>
      </trkpt>
      <trkpt lat="39.6973690" lon="-0.4334600">
        <ele>512.8</ele>
        <time>2022-11-06T07:25:53Z</time>
      </trkpt>
      <trkpt lat="39.6974040" lon="-0.4334680">
        <ele>512.8</ele>
        <time>2022-11-06T07:25:54Z</time>
      </trkpt>
      <trkpt lat="39.6974420" lon="-0.4334800">
        <ele>512.7</ele>
        <time>2022-11-06T07:25:55Z</time>
      </trkpt>
      <trkpt lat="39.6974820" lon="-0.4334880">
        <ele>512.7</ele>
        <time>2022-11-06T07:25:56Z</time>
      </trkpt>
      <trkpt lat="39.6975220" lon="-0.4334980">
        <ele>512.7</ele>
        <time>2022-11-06T07:25:57Z</time>
      </trkpt>
      <trkpt lat="39.6975970" lon="-0.4335180">
        <ele>512.7</ele>
        <time>2022-11-06T07:25:58Z</time>
      </trkpt>
      <trkpt lat="39.6976430" lon="-0.4335270">
        <ele>512.8</ele>
        <time>2022-11-06T07:25:59Z</time>
      </trkpt>
      <trkpt lat="39.6976860" lon="-0.4335380">
        <ele>512.9</ele>
        <time>2022-11-06T07:26:00Z</time>
      </trkpt>
      <trkpt lat="39.6976860" lon="-0.4335380">
        <ele>512.9</ele>
        <time>2022-11-06T07:26:01Z</time>
      </trkpt>
      <trkpt lat="39.6977260" lon="-0.4335500">
        <ele>513.0</ele>
        <time>2022-11-06T07:26:02Z</time>
      </trkpt>
      <trkpt lat="39.6977720" lon="-0.4335620">
        <ele>513.2</ele>
        <time>2022-11-06T07:26:03Z</time>
      </trkpt>
      <trkpt lat="39.6978150" lon="-0.4335700">
        <ele>513.4</ele>
        <time>2022-11-06T07:26:04Z</time>
      </trkpt>
      <trkpt lat="39.6978520" lon="-0.4335750">
        <ele>513.5</ele>
        <time>2022-11-06T07:26:05Z</time>
      </trkpt>
      <trkpt lat="39.6978920" lon="-0.4335830">
        <ele>513.7</ele>
        <time>2022-11-06T07:26:06Z</time>
      </trkpt>
      <trkpt lat="39.6979250" lon="-0.4335880">
        <ele>513.9</ele>
        <time>2022-11-06T07:26:07Z</time>
      </trkpt>
      <trkpt lat="39.6979590" lon="-0.4335920">
        <ele>514.1</ele>
        <time>2022-11-06T07:26:08Z</time>
      </trkpt>
      <trkpt lat="39.6980180" lon="-0.4335920">
        <ele>514.5</ele>
        <time>2022-11-06T07:26:09Z</time>
      </trkpt>
      <trkpt lat="39.6980480" lon="-0.4335930">
        <ele>514.6</ele>
        <time>2022-11-06T07:26:10Z</time>
      </trkpt>
      <trkpt lat="39.6980480" lon="-0.4335930">
        <ele>514.6</ele>
        <time>2022-11-06T07:26:11Z</time>
      </trkpt>
      <trkpt lat="39.6980770" lon="-0.4335970">
        <ele>514.8</ele>
        <time>2022-11-06T07:26:12Z</time>
      </trkpt>
      <trkpt lat="39.6981120" lon="-0.4335950">
        <ele>514.9</ele>
        <time>2022-11-06T07:26:13Z</time>
      </trkpt>
      <trkpt lat="39.6981420" lon="-0.4335920">
        <ele>515.1</ele>
        <time>2022-11-06T07:26:14Z</time>
      </trkpt>
      <trkpt lat="39.6981740" lon="-0.4335880">
        <ele>515.2</ele>
        <time>2022-11-06T07:26:15Z</time>
      </trkpt>
      <trkpt lat="39.6982120" lon="-0.4335820">
        <ele>515.4</ele>
        <time>2022-11-06T07:26:16Z</time>
      </trkpt>
      <trkpt lat="39.6982410" lon="-0.4335730">
        <ele>515.5</ele>
        <time>2022-11-06T07:26:17Z</time>
      </trkpt>
      <trkpt lat="39.6982410" lon="-0.4335730">
        <ele>515.5</ele>
        <time>2022-11-06T07:26:18Z</time>
      </trkpt>
      <trkpt lat="39.6983400" lon="-0.4335520">
        <ele>515.8</ele>
        <time>2022-11-06T07:26:19Z</time>
      </trkpt>
      <trkpt lat="39.6983720" lon="-0.4335420">
        <ele>515.9</ele>
        <time>2022-11-06T07:26:20Z</time>
      </trkpt>
      <trkpt lat="39.6984020" lon="-0.4335330">
        <ele>516.0</ele>
        <time>2022-11-06T07:26:21Z</time>
      </trkpt>
      <trkpt lat="39.6984020" lon="-0.4335330">
        <ele>516.0</ele>
        <time>2022-11-06T07:26:22Z</time>
      </trkpt>
      <trkpt lat="39.6984340" lon="-0.4335270">
        <ele>516.1</ele>
        <time>2022-11-06T07:26:23Z</time>
      </trkpt>
      <trkpt lat="39.6984640" lon="-0.4335180">
        <ele>516.2</ele>
        <time>2022-11-06T07:26:24Z</time>
      </trkpt>
      <trkpt lat="39.6984930" lon="-0.4335100">
        <ele>516.3</ele>
        <time>2022-11-06T07:26:25Z</time>
      </trkpt>
      <trkpt lat="39.6985250" lon="-0.4335000">
        <ele>516.4</ele>
        <time>2022-11-06T07:26:26Z</time>
      </trkpt>
      <trkpt lat="39.6985550" lon="-0.4334920">
        <ele>516.5</ele>
        <time>2022-11-06T07:26:27Z</time>
      </trkpt>
      <trkpt lat="39.6985840" lon="-0.4334830">
        <ele>516.6</ele>
        <time>2022-11-06T07:26:28Z</time>
      </trkpt>
      <trkpt lat="39.6985840" lon="-0.4334830">
        <ele>516.6</ele>
        <time>2022-11-06T07:26:29Z</time>
      </trkpt>
      <trkpt lat="39.6986780" lon="-0.4334820">
        <ele>516.8</ele>
        <time>2022-11-06T07:26:30Z</time>
      </trkpt>
      <trkpt lat="39.6987050" lon="-0.4334850">
        <ele>516.9</ele>
        <time>2022-11-06T07:26:31Z</time>
      </trkpt>
      <trkpt lat="39.6987050" lon="-0.4334850">
        <ele>516.9</ele>
        <time>2022-11-06T07:26:32Z</time>
      </trkpt>
      <trkpt lat="39.6987350" lon="-0.4334930">
        <ele>517.0</ele>
        <time>2022-11-06T07:26:33Z</time>
      </trkpt>
      <trkpt lat="39.6987610" lon="-0.4335030">
        <ele>517.0</ele>
        <time>2022-11-06T07:26:34Z</time>
      </trkpt>
      <trkpt lat="39.6987910" lon="-0.4335180">
        <ele>517.0</ele>
        <time>2022-11-06T07:26:35Z</time>
      </trkpt>
      <trkpt lat="39.6988180" lon="-0.4335330">
        <ele>517.1</ele>
        <time>2022-11-06T07:26:36Z</time>
      </trkpt>
      <trkpt lat="39.6988500" lon="-0.4335500">
        <ele>517.1</ele>
        <time>2022-11-06T07:26:37Z</time>
      </trkpt>
      <trkpt lat="39.6988770" lon="-0.4335730">
        <ele>517.2</ele>
        <time>2022-11-06T07:26:38Z</time>
      </trkpt>
      <trkpt lat="39.6989280" lon="-0.4336180">
        <ele>517.3</ele>
        <time>2022-11-06T07:26:39Z</time>
      </trkpt>
      <trkpt lat="39.6989520" lon="-0.4336450">
        <ele>517.3</ele>
        <time>2022-11-06T07:26:40Z</time>
      </trkpt>
      <trkpt lat="39.6989790" lon="-0.4336680">
        <ele>517.4</ele>
        <time>2022-11-06T07:26:41Z</time>
      </trkpt>
      <trkpt lat="39.6990000" lon="-0.4336900">
        <ele>517.5</ele>
        <time>2022-11-06T07:26:42Z</time>
      </trkpt>
      <trkpt lat="39.6990000" lon="-0.4336900">
        <ele>517.5</ele>
        <time>2022-11-06T07:26:43Z</time>
      </trkpt>
      <trkpt lat="39.6990240" lon="-0.4337150">
        <ele>517.5</ele>
        <time>2022-11-06T07:26:44Z</time>
      </trkpt>
      <trkpt lat="39.6990430" lon="-0.4337400">
        <ele>517.6</ele>
        <time>2022-11-06T07:26:45Z</time>
      </trkpt>
      <trkpt lat="39.6990590" lon="-0.4337720">
        <ele>517.7</ele>
        <time>2022-11-06T07:26:46Z</time>
      </trkpt>
      <trkpt lat="39.6990810" lon="-0.4338020">
        <ele>517.8</ele>
        <time>2022-11-06T07:26:47Z</time>
      </trkpt>
      <trkpt lat="39.6991050" lon="-0.4338270">
        <ele>517.9</ele>
        <time>2022-11-06T07:26:48Z</time>
      </trkpt>
      <trkpt lat="39.6991320" lon="-0.4338530">
        <ele>518.0</ele>
        <time>2022-11-06T07:26:49Z</time>
      </trkpt>
      <trkpt lat="39.6991850" lon="-0.4339170">
        <ele>518.2</ele>
        <time>2022-11-06T07:26:50Z</time>
      </trkpt>
      <trkpt lat="39.6992120" lon="-0.4339520">
        <ele>518.3</ele>
        <time>2022-11-06T07:26:51Z</time>
      </trkpt>
      <trkpt lat="39.6992420" lon="-0.4339880">
        <ele>518.4</ele>
        <time>2022-11-06T07:26:52Z</time>
      </trkpt>
      <trkpt lat="39.6992420" lon="-0.4339880">
        <ele>518.4</ele>
        <time>2022-11-06T07:26:53Z</time>
      </trkpt>
      <trkpt lat="39.6992660" lon="-0.4340220">
        <ele>518.6</ele>
        <time>2022-11-06T07:26:54Z</time>
      </trkpt>
      <trkpt lat="39.6992980" lon="-0.4340530">
        <ele>518.8</ele>
        <time>2022-11-06T07:26:55Z</time>
      </trkpt>
      <trkpt lat="39.6993330" lon="-0.4340800">
        <ele>519.0</ele>
        <time>2022-11-06T07:26:56Z</time>
      </trkpt>
      <trkpt lat="39.6993680" lon="-0.4341020">
        <ele>519.2</ele>
        <time>2022-11-06T07:26:57Z</time>
      </trkpt>
      <trkpt lat="39.6994020" lon="-0.4341150">
        <ele>519.4</ele>
        <time>2022-11-06T07:26:58Z</time>
      </trkpt>
      <trkpt lat="39.6994020" lon="-0.4341150">
        <ele>519.4</ele>
        <time>2022-11-06T07:26:59Z</time>
      </trkpt>
      <trkpt lat="39.6994940" lon="-0.4341100">
        <ele>519.9</ele>
        <time>2022-11-06T07:27:00Z</time>
      </trkpt>
      <trkpt lat="39.6995200" lon="-0.4340970">
        <ele>520.0</ele>
        <time>2022-11-06T07:27:01Z</time>
      </trkpt>
      <trkpt lat="39.6995500" lon="-0.4340820">
        <ele>520.2</ele>
        <time>2022-11-06T07:27:02Z</time>
      </trkpt>
      <trkpt lat="39.6995740" lon="-0.4340630">
        <ele>520.3</ele>
        <time>2022-11-06T07:27:03Z</time>
      </trkpt>
      <trkpt lat="39.6995740" lon="-0.4340630">
        <ele>520.3</ele>
        <time>2022-11-06T07:27:04Z</time>
      </trkpt>
      <trkpt lat="39.6996040" lon="-0.4340470">
        <ele>520.4</ele>
        <time>2022-11-06T07:27:05Z</time>
      </trkpt>
      <trkpt lat="39.6996300" lon="-0.4340320">
        <ele>520.6</ele>
        <time>2022-11-06T07:27:06Z</time>
      </trkpt>
      <trkpt lat="39.6996570" lon="-0.4340150">
        <ele>520.7</ele>
        <time>2022-11-06T07:27:07Z</time>
      </trkpt>
      <trkpt lat="39.6996840" lon="-0.4339980">
        <ele>520.8</ele>
        <time>2022-11-06T07:27:08Z</time>
      </trkpt>
      <trkpt lat="39.6997140" lon="-0.4339850">
        <ele>521.0</ele>
        <time>2022-11-06T07:27:09Z</time>
      </trkpt>
      <trkpt lat="39.6997140" lon="-0.4339850">
        <ele>521.0</ele>
        <time>2022-11-06T07:27:10Z</time>
      </trkpt>
      <trkpt lat="39.6997910" lon="-0.4339520">
        <ele>521.5</ele>
        <time>2022-11-06T07:27:11Z</time>
      </trkpt>
      <trkpt lat="39.6998130" lon="-0.4339450">
        <ele>521.6</ele>
        <time>2022-11-06T07:27:12Z</time>
      </trkpt>
      <trkpt lat="39.6998370" lon="-0.4339430">
        <ele>521.7</ele>
        <time>2022-11-06T07:27:13Z</time>
      </trkpt>
      <trkpt lat="39.6998370" lon="-0.4339430">
        <ele>521.7</ele>
        <time>2022-11-06T07:27:14Z</time>
      </trkpt>
      <trkpt lat="39.6998640" lon="-0.4339380">
        <ele>521.9</ele>
        <time>2022-11-06T07:27:15Z</time>
      </trkpt>
      <trkpt lat="39.6998910" lon="-0.4339370">
        <ele>522.1</ele>
        <time>2022-11-06T07:27:16Z</time>
      </trkpt>
      <trkpt lat="39.6999170" lon="-0.4339330">
        <ele>522.3</ele>
        <time>2022-11-06T07:27:17Z</time>
      </trkpt>
      <trkpt lat="39.6999390" lon="-0.4339280">
        <ele>522.4</ele>
        <time>2022-11-06T07:27:18Z</time>
      </trkpt>
      <trkpt lat="39.6999630" lon="-0.4339270">
        <ele>522.6</ele>
        <time>2022-11-06T07:27:19Z</time>
      </trkpt>
      <trkpt lat="39.7000110" lon="-0.4339230">
        <ele>522.9</ele>
        <time>2022-11-06T07:27:20Z</time>
      </trkpt>
      <trkpt lat="39.7000380" lon="-0.4339250">
        <ele>523.0</ele>
        <time>2022-11-06T07:27:21Z</time>
      </trkpt>
      <trkpt lat="39.7000620" lon="-0.4339270">
        <ele>523.2</ele>
        <time>2022-11-06T07:27:22Z</time>
      </trkpt>
      <trkpt lat="39.7000890" lon="-0.4339280">
        <ele>523.4</ele>
        <time>2022-11-06T07:27:23Z</time>
      </trkpt>
      <trkpt lat="39.7001160" lon="-0.4339270">
        <ele>523.5</ele>
        <time>2022-11-06T07:27:24Z</time>
      </trkpt>
      <trkpt lat="39.7001160" lon="-0.4339270">
        <ele>523.5</ele>
        <time>2022-11-06T07:27:25Z</time>
      </trkpt>
      <trkpt lat="39.7001430" lon="-0.4339280">
        <ele>523.7</ele>
        <time>2022-11-06T07:27:26Z</time>
      </trkpt>
      <trkpt lat="39.7001640" lon="-0.4339300">
        <ele>523.8</ele>
        <time>2022-11-06T07:27:27Z</time>
      </trkpt>
      <trkpt lat="39.7001910" lon="-0.4339350">
        <ele>524.0</ele>
        <time>2022-11-06T07:27:28Z</time>
      </trkpt>
      <trkpt lat="39.7002180" lon="-0.4339420">
        <ele>524.1</ele>
        <time>2022-11-06T07:27:29Z</time>
      </trkpt>
      <trkpt lat="39.7002420" lon="-0.4339550">
        <ele>524.3</ele>
        <time>2022-11-06T07:27:30Z</time>
      </trkpt>
      <trkpt lat="39.7002880" lon="-0.4339900">
        <ele>524.5</ele>
        <time>2022-11-06T07:27:31Z</time>
      </trkpt>
      <trkpt lat="39.7003060" lon="-0.4340120">
        <ele>524.6</ele>
        <time>2022-11-06T07:27:32Z</time>
      </trkpt>
      <trkpt lat="39.7003250" lon="-0.4340370">
        <ele>524.6</ele>
        <time>2022-11-06T07:27:33Z</time>
      </trkpt>
      <trkpt lat="39.7003410" lon="-0.4340630">
        <ele>524.6</ele>
        <time>2022-11-06T07:27:34Z</time>
      </trkpt>
      <trkpt lat="39.7003410" lon="-0.4340630">
        <ele>524.6</ele>
        <time>2022-11-06T07:27:35Z</time>
      </trkpt>
      <trkpt lat="39.7003600" lon="-0.4340950">
        <ele>524.5</ele>
        <time>2022-11-06T07:27:36Z</time>
      </trkpt>
      <trkpt lat="39.7003710" lon="-0.4341270">
        <ele>524.5</ele>
        <time>2022-11-06T07:27:37Z</time>
      </trkpt>
      <trkpt lat="39.7003790" lon="-0.4341670">
        <ele>524.5</ele>
        <time>2022-11-06T07:27:38Z</time>
      </trkpt>
      <trkpt lat="39.7003790" lon="-0.4342080">
        <ele>524.5</ele>
        <time>2022-11-06T07:27:39Z</time>
      </trkpt>
      <trkpt lat="39.7003810" lon="-0.4342520">
        <ele>524.5</ele>
        <time>2022-11-06T07:27:40Z</time>
      </trkpt>
      <trkpt lat="39.7003680" lon="-0.4343430">
        <ele>524.5</ele>
        <time>2022-11-06T07:27:41Z</time>
      </trkpt>
      <trkpt lat="39.7003520" lon="-0.4343900">
        <ele>524.5</ele>
        <time>2022-11-06T07:27:42Z</time>
      </trkpt>
      <trkpt lat="39.7003360" lon="-0.4344380">
        <ele>524.5</ele>
        <time>2022-11-06T07:27:43Z</time>
      </trkpt>
      <trkpt lat="39.7003250" lon="-0.4344830">
        <ele>524.5</ele>
        <time>2022-11-06T07:27:44Z</time>
      </trkpt>
      <trkpt lat="39.7003140" lon="-0.4345280">
        <ele>524.6</ele>
        <time>2022-11-06T07:27:45Z</time>
      </trkpt>
      <trkpt lat="39.7003140" lon="-0.4345280">
        <ele>524.6</ele>
        <time>2022-11-06T07:27:46Z</time>
      </trkpt>
      <trkpt lat="39.7002980" lon="-0.4345730">
        <ele>524.7</ele>
        <time>2022-11-06T07:27:47Z</time>
      </trkpt>
      <trkpt lat="39.7002880" lon="-0.4346200">
        <ele>524.8</ele>
        <time>2022-11-06T07:27:48Z</time>
      </trkpt>
      <trkpt lat="39.7002740" lon="-0.4346650">
        <ele>524.9</ele>
        <time>2022-11-06T07:27:49Z</time>
      </trkpt>
      <trkpt lat="39.7002690" lon="-0.4347100">
        <ele>525.1</ele>
        <time>2022-11-06T07:27:50Z</time>
      </trkpt>
      <trkpt lat="39.7002690" lon="-0.4347100">
        <ele>525.1</ele>
        <time>2022-11-06T07:27:51Z</time>
      </trkpt>
      <trkpt lat="39.7002450" lon="-0.4348550">
        <ele>525.6</ele>
        <time>2022-11-06T07:27:52Z</time>
      </trkpt>
      <trkpt lat="39.7002420" lon="-0.4349020">
        <ele>525.8</ele>
        <time>2022-11-06T07:27:53Z</time>
      </trkpt>
      <trkpt lat="39.7002370" lon="-0.4349420">
        <ele>526.0</ele>
        <time>2022-11-06T07:27:54Z</time>
      </trkpt>
      <trkpt lat="39.7002340" lon="-0.4349830">
        <ele>526.2</ele>
        <time>2022-11-06T07:27:55Z</time>
      </trkpt>
      <trkpt lat="39.7002340" lon="-0.4349830">
        <ele>526.2</ele>
        <time>2022-11-06T07:27:56Z</time>
      </trkpt>
      <trkpt lat="39.7002290" lon="-0.4350280">
        <ele>526.4</ele>
        <time>2022-11-06T07:27:57Z</time>
      </trkpt>
      <trkpt lat="39.7002260" lon="-0.4350720">
        <ele>526.6</ele>
        <time>2022-11-06T07:27:58Z</time>
      </trkpt>
      <trkpt lat="39.7002260" lon="-0.4351150">
        <ele>526.8</ele>
        <time>2022-11-06T07:27:59Z</time>
      </trkpt>
      <trkpt lat="39.7002260" lon="-0.4351550">
        <ele>527.0</ele>
        <time>2022-11-06T07:28:00Z</time>
      </trkpt>
      <trkpt lat="39.7002260" lon="-0.4351550">
        <ele>527.0</ele>
        <time>2022-11-06T07:28:01Z</time>
      </trkpt>
      <trkpt lat="39.7002180" lon="-0.4352720">
        <ele>527.5</ele>
        <time>2022-11-06T07:28:02Z</time>
      </trkpt>
      <trkpt lat="39.7002180" lon="-0.4353080">
        <ele>527.7</ele>
        <time>2022-11-06T07:28:03Z</time>
      </trkpt>
      <trkpt lat="39.7002100" lon="-0.4353450">
        <ele>527.8</ele>
        <time>2022-11-06T07:28:04Z</time>
      </trkpt>
      <trkpt lat="39.7002100" lon="-0.4353830">
        <ele>527.9</ele>
        <time>2022-11-06T07:28:05Z</time>
      </trkpt>
      <trkpt lat="39.7002070" lon="-0.4354180">
        <ele>528.0</ele>
        <time>2022-11-06T07:28:06Z</time>
      </trkpt>
      <trkpt lat="39.7002070" lon="-0.4354180">
        <ele>528.0</ele>
        <time>2022-11-06T07:28:07Z</time>
      </trkpt>
      <trkpt lat="39.7002070" lon="-0.4354530">
        <ele>528.1</ele>
        <time>2022-11-06T07:28:08Z</time>
      </trkpt>
      <trkpt lat="39.7001990" lon="-0.4354900">
        <ele>528.2</ele>
        <time>2022-11-06T07:28:09Z</time>
      </trkpt>
      <trkpt lat="39.7001910" lon="-0.4355270">
        <ele>528.2</ele>
        <time>2022-11-06T07:28:10Z</time>
      </trkpt>
      <trkpt lat="39.7001880" lon="-0.4355630">
        <ele>528.3</ele>
        <time>2022-11-06T07:28:11Z</time>
      </trkpt>
      <trkpt lat="39.7001880" lon="-0.4355630">
        <ele>528.3</ele>
        <time>2022-11-06T07:28:12Z</time>
      </trkpt>
      <trkpt lat="39.7001720" lon="-0.4357000">
        <ele>528.5</ele>
        <time>2022-11-06T07:28:13Z</time>
      </trkpt>
      <trkpt lat="39.7001720" lon="-0.4357470">
        <ele>528.6</ele>
        <time>2022-11-06T07:28:14Z</time>
      </trkpt>
      <trkpt lat="39.7001720" lon="-0.4357970">
        <ele>528.6</ele>
        <time>2022-11-06T07:28:15Z</time>
      </trkpt>
      <trkpt lat="39.7001880" lon="-0.4358420">
        <ele>528.7</ele>
        <time>2022-11-06T07:28:16Z</time>
      </trkpt>
      <trkpt lat="39.7001880" lon="-0.4358420">
        <ele>528.7</ele>
        <time>2022-11-06T07:28:17Z</time>
      </trkpt>
      <trkpt lat="39.7002150" lon="-0.4358720">
        <ele>528.8</ele>
        <time>2022-11-06T07:28:18Z</time>
      </trkpt>
      <trkpt lat="39.7002530" lon="-0.4358920">
        <ele>528.9</ele>
        <time>2022-11-06T07:28:19Z</time>
      </trkpt>
      <trkpt lat="39.7002880" lon="-0.4359020">
        <ele>529.0</ele>
        <time>2022-11-06T07:28:20Z</time>
      </trkpt>
      <trkpt lat="39.7003090" lon="-0.4358880">
        <ele>529.1</ele>
        <time>2022-11-06T07:28:21Z</time>
      </trkpt>
      <trkpt lat="39.7003630" lon="-0.4358500">
        <ele>529.2</ele>
        <time>2022-11-06T07:28:22Z</time>
      </trkpt>
      <trkpt lat="39.7003900" lon="-0.4358280">
        <ele>529.3</ele>
        <time>2022-11-06T07:28:23Z</time>
      </trkpt>
      <trkpt lat="39.7004160" lon="-0.4358080">
        <ele>529.4</ele>
        <time>2022-11-06T07:28:24Z</time>
      </trkpt>
      <trkpt lat="39.7004400" lon="-0.4357870">
        <ele>529.4</ele>
        <time>2022-11-06T07:28:25Z</time>
      </trkpt>
      <trkpt lat="39.7004620" lon="-0.4357620">
        <ele>529.5</ele>
        <time>2022-11-06T07:28:26Z</time>
      </trkpt>
      <trkpt lat="39.7004810" lon="-0.4357350">
        <ele>529.5</ele>
        <time>2022-11-06T07:28:27Z</time>
      </trkpt>
      <trkpt lat="39.7004810" lon="-0.4357350">
        <ele>529.5</ele>
        <time>2022-11-06T07:28:28Z</time>
      </trkpt>
      <trkpt lat="39.7005050" lon="-0.4357050">
        <ele>529.6</ele>
        <time>2022-11-06T07:28:29Z</time>
      </trkpt>
      <trkpt lat="39.7005260" lon="-0.4356750">
        <ele>529.6</ele>
        <time>2022-11-06T07:28:30Z</time>
      </trkpt>
      <trkpt lat="39.7005500" lon="-0.4356400">
        <ele>529.7</ele>
        <time>2022-11-06T07:28:31Z</time>
      </trkpt>
      <trkpt lat="39.7005690" lon="-0.4356100">
        <ele>529.7</ele>
        <time>2022-11-06T07:28:32Z</time>
      </trkpt>
      <trkpt lat="39.7006070" lon="-0.4355470">
        <ele>529.9</ele>
        <time>2022-11-06T07:28:33Z</time>
      </trkpt>
      <trkpt lat="39.7006260" lon="-0.4355100">
        <ele>530.0</ele>
        <time>2022-11-06T07:28:34Z</time>
      </trkpt>
      <trkpt lat="39.7006420" lon="-0.4354770">
        <ele>530.0</ele>
        <time>2022-11-06T07:28:35Z</time>
      </trkpt>
      <trkpt lat="39.7006580" lon="-0.4354430">
        <ele>530.1</ele>
        <time>2022-11-06T07:28:36Z</time>
      </trkpt>
      <trkpt lat="39.7006710" lon="-0.4354070">
        <ele>530.3</ele>
        <time>2022-11-06T07:28:37Z</time>
      </trkpt>
      <trkpt lat="39.7006710" lon="-0.4354070">
        <ele>530.3</ele>
        <time>2022-11-06T07:28:38Z</time>
      </trkpt>
      <trkpt lat="39.7006870" lon="-0.4353770">
        <ele>530.4</ele>
        <time>2022-11-06T07:28:39Z</time>
      </trkpt>
      <trkpt lat="39.7007030" lon="-0.4353400">
        <ele>530.5</ele>
        <time>2022-11-06T07:28:40Z</time>
      </trkpt>
      <trkpt lat="39.7007170" lon="-0.4353050">
        <ele>530.7</ele>
        <time>2022-11-06T07:28:41Z</time>
      </trkpt>
      <trkpt lat="39.7007170" lon="-0.4353050">
        <ele>530.7</ele>
        <time>2022-11-06T07:28:42Z</time>
      </trkpt>
      <trkpt lat="39.7007780" lon="-0.4352030">
        <ele>531.3</ele>
        <time>2022-11-06T07:28:43Z</time>
      </trkpt>
      <trkpt lat="39.7008030" lon="-0.4351700">
        <ele>531.5</ele>
        <time>2022-11-06T07:28:44Z</time>
      </trkpt>
      <trkpt lat="39.7008290" lon="-0.4351430">
        <ele>531.8</ele>
        <time>2022-11-06T07:28:45Z</time>
      </trkpt>
      <trkpt lat="39.7008510" lon="-0.4351150">
        <ele>532.0</ele>
        <time>2022-11-06T07:28:46Z</time>
      </trkpt>
      <trkpt lat="39.7008830" lon="-0.4350750">
        <ele>532.3</ele>
        <time>2022-11-06T07:28:47Z</time>
      </trkpt>
      <trkpt lat="39.7009130" lon="-0.4350450">
        <ele>532.6</ele>
        <time>2022-11-06T07:28:48Z</time>
      </trkpt>
      <trkpt lat="39.7009130" lon="-0.4350450">
        <ele>532.6</ele>
        <time>2022-11-06T07:28:49Z</time>
      </trkpt>
      <trkpt lat="39.7009420" lon="-0.4350200">
        <ele>532.8</ele>
        <time>2022-11-06T07:28:50Z</time>
      </trkpt>
      <trkpt lat="39.7009690" lon="-0.4349970">
        <ele>533.1</ele>
        <time>2022-11-06T07:28:51Z</time>
      </trkpt>
      <trkpt lat="39.7009960" lon="-0.4349680">
        <ele>533.4</ele>
        <time>2022-11-06T07:28:52Z</time>
      </trkpt>
      <trkpt lat="39.7009960" lon="-0.4349680">
        <ele>533.4</ele>
        <time>2022-11-06T07:28:53Z</time>
      </trkpt>
      <trkpt lat="39.7010760" lon="-0.4348830">
        <ele>534.2</ele>
        <time>2022-11-06T07:28:54Z</time>
      </trkpt>
      <trkpt lat="39.7011080" lon="-0.4348600">
        <ele>534.6</ele>
        <time>2022-11-06T07:28:55Z</time>
      </trkpt>
      <trkpt lat="39.7011320" lon="-0.4348380">
        <ele>534.8</ele>
        <time>2022-11-06T07:28:56Z</time>
      </trkpt>
      <trkpt lat="39.7011590" lon="-0.4348180">
        <ele>535.1</ele>
        <time>2022-11-06T07:28:57Z</time>
      </trkpt>
      <trkpt lat="39.7011910" lon="-0.4348020">
        <ele>535.4</ele>
        <time>2022-11-06T07:28:58Z</time>
      </trkpt>
      <trkpt lat="39.7011910" lon="-0.4348020">
        <ele>535.4</ele>
        <time>2022-11-06T07:28:59Z</time>
      </trkpt>
      <trkpt lat="39.7012210" lon="-0.4347870">
        <ele>535.7</ele>
        <time>2022-11-06T07:29:00Z</time>
      </trkpt>
      <trkpt lat="39.7012480" lon="-0.4347800">
        <ele>536.0</ele>
        <time>2022-11-06T07:29:01Z</time>
      </trkpt>
      <trkpt lat="39.7012800" lon="-0.4347750">
        <ele>536.3</ele>
        <time>2022-11-06T07:29:02Z</time>
      </trkpt>
      <trkpt lat="39.7013310" lon="-0.4347750">
        <ele>536.8</ele>
        <time>2022-11-06T07:29:03Z</time>
      </trkpt>
      <trkpt lat="39.7013580" lon="-0.4347780">
        <ele>537.0</ele>
        <time>2022-11-06T07:29:04Z</time>
      </trkpt>
      <trkpt lat="39.7013820" lon="-0.4347850">
        <ele>537.2</ele>
        <time>2022-11-06T07:29:05Z</time>
      </trkpt>
      <trkpt lat="39.7014090" lon="-0.4347970">
        <ele>537.5</ele>
        <time>2022-11-06T07:29:06Z</time>
      </trkpt>
      <trkpt lat="39.7014300" lon="-0.4348100">
        <ele>537.7</ele>
        <time>2022-11-06T07:29:07Z</time>
      </trkpt>
      <trkpt lat="39.7014540" lon="-0.4348270">
        <ele>537.9</ele>
        <time>2022-11-06T07:29:08Z</time>
      </trkpt>
      <trkpt lat="39.7014730" lon="-0.4348470">
        <ele>538.1</ele>
        <time>2022-11-06T07:29:09Z</time>
      </trkpt>
      <trkpt lat="39.7014730" lon="-0.4348470">
        <ele>538.1</ele>
        <time>2022-11-06T07:29:10Z</time>
      </trkpt>
      <trkpt lat="39.7014920" lon="-0.4348670">
        <ele>538.3</ele>
        <time>2022-11-06T07:29:11Z</time>
      </trkpt>
      <trkpt lat="39.7015160" lon="-0.4348830">
        <ele>538.5</ele>
        <time>2022-11-06T07:29:12Z</time>
      </trkpt>
      <trkpt lat="39.7015350" lon="-0.4349020">
        <ele>538.6</ele>
        <time>2022-11-06T07:29:13Z</time>
      </trkpt>
      <trkpt lat="39.7015800" lon="-0.4349350">
        <ele>539.0</ele>
        <time>2022-11-06T07:29:14Z</time>
      </trkpt>
      <trkpt lat="39.7016020" lon="-0.4349500">
        <ele>539.1</ele>
        <time>2022-11-06T07:29:15Z</time>
      </trkpt>
      <trkpt lat="39.7016260" lon="-0.4349630">
        <ele>539.3</ele>
        <time>2022-11-06T07:29:16Z</time>
      </trkpt>
      <trkpt lat="39.7016470" lon="-0.4349700">
        <ele>539.4</ele>
        <time>2022-11-06T07:29:17Z</time>
      </trkpt>
      <trkpt lat="39.7016740" lon="-0.4349770">
        <ele>539.6</ele>
        <time>2022-11-06T07:29:18Z</time>
      </trkpt>
      <trkpt lat="39.7016980" lon="-0.4349850">
        <ele>539.7</ele>
        <time>2022-11-06T07:29:19Z</time>
      </trkpt>
      <trkpt lat="39.7016980" lon="-0.4349850">
        <ele>539.7</ele>
        <time>2022-11-06T07:29:20Z</time>
      </trkpt>
      <trkpt lat="39.7017250" lon="-0.4349920">
        <ele>539.9</ele>
        <time>2022-11-06T07:29:21Z</time>
      </trkpt>
      <trkpt lat="39.7017470" lon="-0.4350020">
        <ele>540.0</ele>
        <time>2022-11-06T07:29:22Z</time>
      </trkpt>
      <trkpt lat="39.7017470" lon="-0.4350020">
        <ele>540.0</ele>
        <time>2022-11-06T07:29:23Z</time>
      </trkpt>
      <trkpt lat="39.7018160" lon="-0.4350170">
        <ele>540.5</ele>
        <time>2022-11-06T07:29:24Z</time>
      </trkpt>
      <trkpt lat="39.7018430" lon="-0.4350220">
        <ele>540.7</ele>
        <time>2022-11-06T07:29:25Z</time>
      </trkpt>
      <trkpt lat="39.7018670" lon="-0.4350220">
        <ele>540.8</ele>
        <time>2022-11-06T07:29:26Z</time>
      </trkpt>
      <trkpt lat="39.7018890" lon="-0.4350250">
        <ele>541.0</ele>
        <time>2022-11-06T07:29:27Z</time>
      </trkpt>
      <trkpt lat="39.7019130" lon="-0.4350300">
        <ele>541.2</ele>
        <time>2022-11-06T07:29:28Z</time>
      </trkpt>
      <trkpt lat="39.7019340" lon="-0.4350380">
        <ele>541.3</ele>
        <time>2022-11-06T07:29:29Z</time>
      </trkpt>
      <trkpt lat="39.7019530" lon="-0.4350450">
        <ele>541.5</ele>
        <time>2022-11-06T07:29:30Z</time>
      </trkpt>
      <trkpt lat="39.7019530" lon="-0.4350450">
        <ele>541.5</ele>
        <time>2022-11-06T07:29:31Z</time>
      </trkpt>
      <trkpt lat="39.7019770" lon="-0.4350480">
        <ele>541.6</ele>
        <time>2022-11-06T07:29:32Z</time>
      </trkpt>
      <trkpt lat="39.7019990" lon="-0.4350480">
        <ele>541.8</ele>
        <time>2022-11-06T07:29:33Z</time>
      </trkpt>
      <trkpt lat="39.7019990" lon="-0.4350480">
        <ele>541.8</ele>
        <time>2022-11-06T07:29:34Z</time>
      </trkpt>
      <trkpt lat="39.7020610" lon="-0.4350650">
        <ele>542.3</ele>
        <time>2022-11-06T07:29:35Z</time>
      </trkpt>
      <trkpt lat="39.7020850" lon="-0.4350750">
        <ele>542.5</ele>
        <time>2022-11-06T07:29:36Z</time>
      </trkpt>
      <trkpt lat="39.7021060" lon="-0.4350830">
        <ele>542.7</ele>
        <time>2022-11-06T07:29:37Z</time>
      </trkpt>
      <trkpt lat="39.7021300" lon="-0.4350950">
        <ele>542.8</ele>
        <time>2022-11-06T07:29:38Z</time>
      </trkpt>
      <trkpt lat="39.7021520" lon="-0.4351070">
        <ele>543.0</ele>
        <time>2022-11-06T07:29:39Z</time>
      </trkpt>
      <trkpt lat="39.7021760" lon="-0.4351180">
        <ele>543.2</ele>
        <time>2022-11-06T07:29:40Z</time>
      </trkpt>
      <trkpt lat="39.7021760" lon="-0.4351180">
        <ele>543.2</ele>
        <time>2022-11-06T07:29:41Z</time>
      </trkpt>
      <trkpt lat="39.7021970" lon="-0.4351320">
        <ele>543.4</ele>
        <time>2022-11-06T07:29:42Z</time>
      </trkpt>
      <trkpt lat="39.7022210" lon="-0.4351420">
        <ele>543.6</ele>
        <time>2022-11-06T07:29:43Z</time>
      </trkpt>
      <trkpt lat="39.7022210" lon="-0.4351420">
        <ele>543.6</ele>
        <time>2022-11-06T07:29:44Z</time>
      </trkpt>
      <trkpt lat="39.7022830" lon="-0.4351730">
        <ele>544.2</ele>
        <time>2022-11-06T07:29:45Z</time>
      </trkpt>
      <trkpt lat="39.7023050" lon="-0.4351820">
        <ele>544.3</ele>
        <time>2022-11-06T07:29:46Z</time>
      </trkpt>
      <trkpt lat="39.7023230" lon="-0.4351900">
        <ele>544.5</ele>
        <time>2022-11-06T07:29:47Z</time>
      </trkpt>
      <trkpt lat="39.7023480" lon="-0.4351970">
        <ele>544.7</ele>
        <time>2022-11-06T07:29:48Z</time>
      </trkpt>
      <trkpt lat="39.7023660" lon="-0.4352030">
        <ele>544.9</ele>
        <time>2022-11-06T07:29:49Z</time>
      </trkpt>
      <trkpt lat="39.7023880" lon="-0.4352080">
        <ele>545.0</ele>
        <time>2022-11-06T07:29:50Z</time>
      </trkpt>
      <trkpt lat="39.7024120" lon="-0.4352130">
        <ele>545.3</ele>
        <time>2022-11-06T07:29:51Z</time>
      </trkpt>
      <trkpt lat="39.7024120" lon="-0.4352130">
        <ele>545.3</ele>
        <time>2022-11-06T07:29:52Z</time>
      </trkpt>
      <trkpt lat="39.7024310" lon="-0.4352130">
        <ele>545.4</ele>
        <time>2022-11-06T07:29:53Z</time>
      </trkpt>
      <trkpt lat="39.7024490" lon="-0.4352180">
        <ele>545.6</ele>
        <time>2022-11-06T07:29:54Z</time>
      </trkpt>
      <trkpt lat="39.7024950" lon="-0.4352250">
        <ele>546.0</ele>
        <time>2022-11-06T07:29:55Z</time>
      </trkpt>
      <trkpt lat="39.7025190" lon="-0.4352300">
        <ele>546.2</ele>
        <time>2022-11-06T07:29:56Z</time>
      </trkpt>
      <trkpt lat="39.7025380" lon="-0.4352400">
        <ele>546.4</ele>
        <time>2022-11-06T07:29:57Z</time>
      </trkpt>
      <trkpt lat="39.7025590" lon="-0.4352450">
        <ele>546.6</ele>
        <time>2022-11-06T07:29:58Z</time>
      </trkpt>
      <trkpt lat="39.7025780" lon="-0.4352470">
        <ele>546.8</ele>
        <time>2022-11-06T07:29:59Z</time>
      </trkpt>
      <trkpt lat="39.7026020" lon="-0.4352500">
        <ele>547.0</ele>
        <time>2022-11-06T07:30:00Z</time>
      </trkpt>
      <trkpt lat="39.7026210" lon="-0.4352550">
        <ele>547.2</ele>
        <time>2022-11-06T07:30:01Z</time>
      </trkpt>
      <trkpt lat="39.7026210" lon="-0.4352550">
        <ele>547.2</ele>
        <time>2022-11-06T07:30:02Z</time>
      </trkpt>
      <trkpt lat="39.7026400" lon="-0.4352600">
        <ele>547.4</ele>
        <time>2022-11-06T07:30:03Z</time>
      </trkpt>
      <trkpt lat="39.7026640" lon="-0.4352650">
        <ele>547.6</ele>
        <time>2022-11-06T07:30:04Z</time>
      </trkpt>
      <trkpt lat="39.7027020" lon="-0.4352750">
        <ele>547.9</ele>
        <time>2022-11-06T07:30:05Z</time>
      </trkpt>
      <trkpt lat="39.7027260" lon="-0.4352800">
        <ele>548.2</ele>
        <time>2022-11-06T07:30:06Z</time>
      </trkpt>
      <trkpt lat="39.7027440" lon="-0.4352850">
        <ele>548.3</ele>
        <time>2022-11-06T07:30:07Z</time>
      </trkpt>
      <trkpt lat="39.7027630" lon="-0.4352880">
        <ele>548.5</ele>
        <time>2022-11-06T07:30:08Z</time>
      </trkpt>
      <trkpt lat="39.7027850" lon="-0.4352950">
        <ele>548.7</ele>
        <time>2022-11-06T07:30:09Z</time>
      </trkpt>
      <trkpt lat="39.7028030" lon="-0.4353050">
        <ele>548.9</ele>
        <time>2022-11-06T07:30:10Z</time>
      </trkpt>
      <trkpt lat="39.7028200" lon="-0.4353170">
        <ele>549.0</ele>
        <time>2022-11-06T07:30:11Z</time>
      </trkpt>
      <trkpt lat="39.7028440" lon="-0.4353280">
        <ele>549.2</ele>
        <time>2022-11-06T07:30:12Z</time>
      </trkpt>
      <trkpt lat="39.7028440" lon="-0.4353280">
        <ele>549.2</ele>
        <time>2022-11-06T07:30:13Z</time>
      </trkpt>
      <trkpt lat="39.7028570" lon="-0.4353420">
        <ele>549.3</ele>
        <time>2022-11-06T07:30:14Z</time>
      </trkpt>
      <trkpt lat="39.7028730" lon="-0.4353600">
        <ele>549.5</ele>
        <time>2022-11-06T07:30:15Z</time>
      </trkpt>
      <trkpt lat="39.7029000" lon="-0.4353970">
        <ele>549.7</ele>
        <time>2022-11-06T07:30:16Z</time>
      </trkpt>
      <trkpt lat="39.7029190" lon="-0.4354150">
        <ele>549.9</ele>
        <time>2022-11-06T07:30:17Z</time>
      </trkpt>
      <trkpt lat="39.7029350" lon="-0.4354330">
        <ele>550.0</ele>
        <time>2022-11-06T07:30:18Z</time>
      </trkpt>
      <trkpt lat="39.7029480" lon="-0.4354520">
        <ele>550.1</ele>
        <time>2022-11-06T07:30:19Z</time>
      </trkpt>
      <trkpt lat="39.7029620" lon="-0.4354730">
        <ele>550.2</ele>
        <time>2022-11-06T07:30:20Z</time>
      </trkpt>
      <trkpt lat="39.7029720" lon="-0.4354950">
        <ele>550.4</ele>
        <time>2022-11-06T07:30:21Z</time>
      </trkpt>
      <trkpt lat="39.7029830" lon="-0.4355170">
        <ele>550.5</ele>
        <time>2022-11-06T07:30:22Z</time>
      </trkpt>
      <trkpt lat="39.7029830" lon="-0.4355170">
        <ele>550.5</ele>
        <time>2022-11-06T07:30:23Z</time>
      </trkpt>
      <trkpt lat="39.7029990" lon="-0.4355370">
        <ele>550.6</ele>
        <time>2022-11-06T07:30:24Z</time>
      </trkpt>
      <trkpt lat="39.7029990" lon="-0.4355370">
        <ele>550.6</ele>
        <time>2022-11-06T07:30:25Z</time>
      </trkpt>
      <trkpt lat="39.7030340" lon="-0.4356070">
        <ele>550.9</ele>
        <time>2022-11-06T07:30:26Z</time>
      </trkpt>
      <trkpt lat="39.7030450" lon="-0.4356300">
        <ele>551.0</ele>
        <time>2022-11-06T07:30:27Z</time>
      </trkpt>
      <trkpt lat="39.7030560" lon="-0.4356530">
        <ele>551.1</ele>
        <time>2022-11-06T07:30:28Z</time>
      </trkpt>
      <trkpt lat="39.7030640" lon="-0.4356780">
        <ele>551.2</ele>
        <time>2022-11-06T07:30:29Z</time>
      </trkpt>
      <trkpt lat="39.7030740" lon="-0.4357030">
        <ele>551.3</ele>
        <time>2022-11-06T07:30:30Z</time>
      </trkpt>
      <trkpt lat="39.7030880" lon="-0.4357250">
        <ele>551.4</ele>
        <time>2022-11-06T07:30:31Z</time>
      </trkpt>
      <trkpt lat="39.7030990" lon="-0.4357480">
        <ele>551.5</ele>
        <time>2022-11-06T07:30:32Z</time>
      </trkpt>
      <trkpt lat="39.7031070" lon="-0.4357770">
        <ele>551.6</ele>
        <time>2022-11-06T07:30:33Z</time>
      </trkpt>
      <trkpt lat="39.7031070" lon="-0.4357770">
        <ele>551.6</ele>
        <time>2022-11-06T07:30:34Z</time>
      </trkpt>
      <trkpt lat="39.7031200" lon="-0.4358000">
        <ele>551.7</ele>
        <time>2022-11-06T07:30:35Z</time>
      </trkpt>
      <trkpt lat="39.7031200" lon="-0.4358000">
        <ele>551.7</ele>
        <time>2022-11-06T07:30:36Z</time>
      </trkpt>
      <trkpt lat="39.7031600" lon="-0.4358720">
        <ele>552.1</ele>
        <time>2022-11-06T07:30:37Z</time>
      </trkpt>
      <trkpt lat="39.7031710" lon="-0.4358930">
        <ele>552.1</ele>
        <time>2022-11-06T07:30:38Z</time>
      </trkpt>
      <trkpt lat="39.7031870" lon="-0.4359200">
        <ele>552.3</ele>
        <time>2022-11-06T07:30:39Z</time>
      </trkpt>
      <trkpt lat="39.7031980" lon="-0.4359470">
        <ele>552.4</ele>
        <time>2022-11-06T07:30:40Z</time>
      </trkpt>
      <trkpt lat="39.7032090" lon="-0.4359720">
        <ele>552.5</ele>
        <time>2022-11-06T07:30:41Z</time>
      </trkpt>
      <trkpt lat="39.7032190" lon="-0.4359980">
        <ele>552.6</ele>
        <time>2022-11-06T07:30:42Z</time>
      </trkpt>
      <trkpt lat="39.7032330" lon="-0.4360250">
        <ele>552.7</ele>
        <time>2022-11-06T07:30:43Z</time>
      </trkpt>
      <trkpt lat="39.7032330" lon="-0.4360250">
        <ele>552.7</ele>
        <time>2022-11-06T07:30:44Z</time>
      </trkpt>
      <trkpt lat="39.7032430" lon="-0.4360500">
        <ele>552.8</ele>
        <time>2022-11-06T07:30:45Z</time>
      </trkpt>
      <trkpt lat="39.7032700" lon="-0.4361030">
        <ele>553.0</ele>
        <time>2022-11-06T07:30:46Z</time>
      </trkpt>
      <trkpt lat="39.7032810" lon="-0.4361300">
        <ele>553.2</ele>
        <time>2022-11-06T07:30:47Z</time>
      </trkpt>
      <trkpt lat="39.7032970" lon="-0.4361520">
        <ele>553.3</ele>
        <time>2022-11-06T07:30:48Z</time>
      </trkpt>
      <trkpt lat="39.7033080" lon="-0.4361730">
        <ele>553.4</ele>
        <time>2022-11-06T07:30:49Z</time>
      </trkpt>
      <trkpt lat="39.7033160" lon="-0.4361950">
        <ele>553.5</ele>
        <time>2022-11-06T07:30:50Z</time>
      </trkpt>
      <trkpt lat="39.7033270" lon="-0.4362220">
        <ele>553.6</ele>
        <time>2022-11-06T07:30:51Z</time>
      </trkpt>
      <trkpt lat="39.7033350" lon="-0.4362480">
        <ele>553.7</ele>
        <time>2022-11-06T07:30:52Z</time>
      </trkpt>
      <trkpt lat="39.7033510" lon="-0.4362750">
        <ele>553.8</ele>
        <time>2022-11-06T07:30:53Z</time>
      </trkpt>
      <trkpt lat="39.7033640" lon="-0.4363050">
        <ele>553.9</ele>
        <time>2022-11-06T07:30:54Z</time>
      </trkpt>
      <trkpt lat="39.7033640" lon="-0.4363050">
        <ele>553.9</ele>
        <time>2022-11-06T07:30:55Z</time>
      </trkpt>
      <trkpt lat="39.7033860" lon="-0.4363330">
        <ele>554.0</ele>
        <time>2022-11-06T07:30:56Z</time>
      </trkpt>
      <trkpt lat="39.7034310" lon="-0.4363850">
        <ele>554.2</ele>
        <time>2022-11-06T07:30:57Z</time>
      </trkpt>
      <trkpt lat="39.7034530" lon="-0.4364030">
        <ele>554.3</ele>
        <time>2022-11-06T07:30:58Z</time>
      </trkpt>
      <trkpt lat="39.7034870" lon="-0.4364170">
        <ele>554.4</ele>
        <time>2022-11-06T07:30:59Z</time>
      </trkpt>
      <trkpt lat="39.7035170" lon="-0.4364270">
        <ele>554.6</ele>
        <time>2022-11-06T07:31:00Z</time>
      </trkpt>
      <trkpt lat="39.7035440" lon="-0.4364320">
        <ele>554.7</ele>
        <time>2022-11-06T07:31:01Z</time>
      </trkpt>
      <trkpt lat="39.7035760" lon="-0.4364330">
        <ele>554.8</ele>
        <time>2022-11-06T07:31:02Z</time>
      </trkpt>
      <trkpt lat="39.7036030" lon="-0.4364370">
        <ele>554.9</ele>
        <time>2022-11-06T07:31:03Z</time>
      </trkpt>
      <trkpt lat="39.7036320" lon="-0.4364420">
        <ele>555.1</ele>
        <time>2022-11-06T07:31:04Z</time>
      </trkpt>
      <trkpt lat="39.7036320" lon="-0.4364420">
        <ele>555.1</ele>
        <time>2022-11-06T07:31:05Z</time>
      </trkpt>
      <trkpt lat="39.7036320" lon="-0.4364420">
        <ele>555.1</ele>
        <time>2022-11-06T07:31:06Z</time>
      </trkpt>
      <trkpt lat="39.7037130" lon="-0.4364600">
        <ele>555.5</ele>
        <time>2022-11-06T07:31:07Z</time>
      </trkpt>
      <trkpt lat="39.7037340" lon="-0.4364680">
        <ele>555.7</ele>
        <time>2022-11-06T07:31:08Z</time>
      </trkpt>
      <trkpt lat="39.7037610" lon="-0.4364780">
        <ele>555.8</ele>
        <time>2022-11-06T07:31:09Z</time>
      </trkpt>
      <trkpt lat="39.7037850" lon="-0.4364900">
        <ele>556.0</ele>
        <time>2022-11-06T07:31:10Z</time>
      </trkpt>
      <trkpt lat="39.7038070" lon="-0.4365030">
        <ele>556.2</ele>
        <time>2022-11-06T07:31:11Z</time>
      </trkpt>
      <trkpt lat="39.7038310" lon="-0.4365170">
        <ele>556.3</ele>
        <time>2022-11-06T07:31:12Z</time>
      </trkpt>
      <trkpt lat="39.7038500" lon="-0.4365320">
        <ele>556.5</ele>
        <time>2022-11-06T07:31:13Z</time>
      </trkpt>
      <trkpt lat="39.7038680" lon="-0.4365480">
        <ele>556.6</ele>
        <time>2022-11-06T07:31:14Z</time>
      </trkpt>
      <trkpt lat="39.7038870" lon="-0.4365680">
        <ele>556.8</ele>
        <time>2022-11-06T07:31:15Z</time>
      </trkpt>
      <trkpt lat="39.7038870" lon="-0.4365680">
        <ele>556.8</ele>
        <time>2022-11-06T07:31:16Z</time>
      </trkpt>
      <trkpt lat="39.7038870" lon="-0.4365680">
        <ele>556.8</ele>
        <time>2022-11-06T07:31:17Z</time>
      </trkpt>
      <trkpt lat="39.7039410" lon="-0.4366320">
        <ele>557.2</ele>
        <time>2022-11-06T07:31:18Z</time>
      </trkpt>
      <trkpt lat="39.7039570" lon="-0.4366550">
        <ele>557.3</ele>
        <time>2022-11-06T07:31:19Z</time>
      </trkpt>
      <trkpt lat="39.7039680" lon="-0.4366820">
        <ele>557.4</ele>
        <time>2022-11-06T07:31:20Z</time>
      </trkpt>
      <trkpt lat="39.7039780" lon="-0.4367080">
        <ele>557.5</ele>
        <time>2022-11-06T07:31:21Z</time>
      </trkpt>
      <trkpt lat="39.7039940" lon="-0.4367370">
        <ele>557.7</ele>
        <time>2022-11-06T07:31:22Z</time>
      </trkpt>
      <trkpt lat="39.7040100" lon="-0.4367630">
        <ele>557.8</ele>
        <time>2022-11-06T07:31:23Z</time>
      </trkpt>
      <trkpt lat="39.7040210" lon="-0.4367880">
        <ele>557.9</ele>
        <time>2022-11-06T07:31:24Z</time>
      </trkpt>
      <trkpt lat="39.7040400" lon="-0.4368180">
        <ele>558.0</ele>
        <time>2022-11-06T07:31:25Z</time>
      </trkpt>
      <trkpt lat="39.7040400" lon="-0.4368180">
        <ele>558.0</ele>
        <time>2022-11-06T07:31:26Z</time>
      </trkpt>
      <trkpt lat="39.7040720" lon="-0.4368830">
        <ele>558.1</ele>
        <time>2022-11-06T07:31:27Z</time>
      </trkpt>
      <trkpt lat="39.7040910" lon="-0.4369150">
        <ele>558.2</ele>
        <time>2022-11-06T07:31:28Z</time>
      </trkpt>
      <trkpt lat="39.7041040" lon="-0.4369500">
        <ele>558.3</ele>
        <time>2022-11-06T07:31:29Z</time>
      </trkpt>
      <trkpt lat="39.7041290" lon="-0.4369930">
        <ele>558.4</ele>
        <time>2022-11-06T07:31:30Z</time>
      </trkpt>
      <trkpt lat="39.7041500" lon="-0.4370420">
        <ele>558.5</ele>
        <time>2022-11-06T07:31:31Z</time>
      </trkpt>
      <trkpt lat="39.7041710" lon="-0.4370820">
        <ele>558.6</ele>
        <time>2022-11-06T07:31:32Z</time>
      </trkpt>
      <trkpt lat="39.7041930" lon="-0.4371280">
        <ele>558.7</ele>
        <time>2022-11-06T07:31:33Z</time>
      </trkpt>
      <trkpt lat="39.7042120" lon="-0.4371680">
        <ele>558.9</ele>
        <time>2022-11-06T07:31:34Z</time>
      </trkpt>
      <trkpt lat="39.7042360" lon="-0.4372080">
        <ele>559.0</ele>
        <time>2022-11-06T07:31:35Z</time>
      </trkpt>
      <trkpt lat="39.7042630" lon="-0.4372450">
        <ele>559.3</ele>
        <time>2022-11-06T07:31:36Z</time>
      </trkpt>
      <trkpt lat="39.7042630" lon="-0.4372450">
        <ele>559.3</ele>
        <time>2022-11-06T07:31:37Z</time>
      </trkpt>
      <trkpt lat="39.7043160" lon="-0.4373000">
        <ele>559.7</ele>
        <time>2022-11-06T07:31:38Z</time>
      </trkpt>
      <trkpt lat="39.7043380" lon="-0.4373200">
        <ele>559.9</ele>
        <time>2022-11-06T07:31:39Z</time>
      </trkpt>
      <trkpt lat="39.7043620" lon="-0.4373400">
        <ele>560.2</ele>
        <time>2022-11-06T07:31:40Z</time>
      </trkpt>
      <trkpt lat="39.7043810" lon="-0.4373620">
        <ele>560.4</ele>
        <time>2022-11-06T07:31:41Z</time>
      </trkpt>
      <trkpt lat="39.7043940" lon="-0.4373750">
        <ele>560.5</ele>
        <time>2022-11-06T07:31:42Z</time>
      </trkpt>
      <trkpt lat="39.7044160" lon="-0.4373870">
        <ele>560.7</ele>
        <time>2022-11-06T07:31:43Z</time>
      </trkpt>
      <trkpt lat="39.7044290" lon="-0.4373980">
        <ele>560.8</ele>
        <time>2022-11-06T07:31:44Z</time>
      </trkpt>
      <trkpt lat="39.7044450" lon="-0.4374120">
        <ele>561.0</ele>
        <time>2022-11-06T07:31:45Z</time>
      </trkpt>
      <trkpt lat="39.7044660" lon="-0.4374270">
        <ele>561.1</ele>
        <time>2022-11-06T07:31:46Z</time>
      </trkpt>
      <trkpt lat="39.7044660" lon="-0.4374270">
        <ele>561.1</ele>
        <time>2022-11-06T07:31:47Z</time>
      </trkpt>
      <trkpt lat="39.7045090" lon="-0.4374580">
        <ele>561.5</ele>
        <time>2022-11-06T07:31:48Z</time>
      </trkpt>
      <trkpt lat="39.7045280" lon="-0.4374720">
        <ele>561.6</ele>
        <time>2022-11-06T07:31:49Z</time>
      </trkpt>
      <trkpt lat="39.7045520" lon="-0.4374880">
        <ele>561.8</ele>
        <time>2022-11-06T07:31:50Z</time>
      </trkpt>
      <trkpt lat="39.7045660" lon="-0.4375050">
        <ele>561.9</ele>
        <time>2022-11-06T07:31:51Z</time>
      </trkpt>
      <trkpt lat="39.7045900" lon="-0.4375220">
        <ele>562.1</ele>
        <time>2022-11-06T07:31:52Z</time>
      </trkpt>
      <trkpt lat="39.7046140" lon="-0.4375400">
        <ele>562.2</ele>
        <time>2022-11-06T07:31:53Z</time>
      </trkpt>
      <trkpt lat="39.7046330" lon="-0.4375570">
        <ele>562.3</ele>
        <time>2022-11-06T07:31:54Z</time>
      </trkpt>
      <trkpt lat="39.7046540" lon="-0.4375770">
        <ele>562.5</ele>
        <time>2022-11-06T07:31:55Z</time>
      </trkpt>
      <trkpt lat="39.7046730" lon="-0.4375980">
        <ele>562.6</ele>
        <time>2022-11-06T07:31:56Z</time>
      </trkpt>
      <trkpt lat="39.7046730" lon="-0.4375980">
        <ele>562.6</ele>
        <time>2022-11-06T07:31:57Z</time>
      </trkpt>
      <trkpt lat="39.7046730" lon="-0.4375980">
        <ele>562.6</ele>
        <time>2022-11-06T07:31:58Z</time>
      </trkpt>
      <trkpt lat="39.7047320" lon="-0.4376600">
        <ele>562.9</ele>
        <time>2022-11-06T07:31:59Z</time>
      </trkpt>
      <trkpt lat="39.7047510" lon="-0.4376820">
        <ele>563.0</ele>
        <time>2022-11-06T07:32:00Z</time>
      </trkpt>
      <trkpt lat="39.7047640" lon="-0.4377030">
        <ele>563.1</ele>
        <time>2022-11-06T07:32:01Z</time>
      </trkpt>
      <trkpt lat="39.7047880" lon="-0.4377270">
        <ele>563.2</ele>
        <time>2022-11-06T07:32:02Z</time>
      </trkpt>
      <trkpt lat="39.7048070" lon="-0.4377480">
        <ele>563.3</ele>
        <time>2022-11-06T07:32:03Z</time>
      </trkpt>
      <trkpt lat="39.7048260" lon="-0.4377700">
        <ele>563.4</ele>
        <time>2022-11-06T07:32:04Z</time>
      </trkpt>
      <trkpt lat="39.7048370" lon="-0.4377970">
        <ele>563.5</ele>
        <time>2022-11-06T07:32:05Z</time>
      </trkpt>
      <trkpt lat="39.7048580" lon="-0.4378180">
        <ele>563.5</ele>
        <time>2022-11-06T07:32:06Z</time>
      </trkpt>
      <trkpt lat="39.7048580" lon="-0.4378180">
        <ele>563.5</ele>
        <time>2022-11-06T07:32:07Z</time>
      </trkpt>
      <trkpt lat="39.7048580" lon="-0.4378180">
        <ele>563.5</ele>
        <time>2022-11-06T07:32:08Z</time>
      </trkpt>
      <trkpt lat="39.7049140" lon="-0.4378800">
        <ele>563.8</ele>
        <time>2022-11-06T07:32:09Z</time>
      </trkpt>
      <trkpt lat="39.7049360" lon="-0.4379070">
        <ele>563.8</ele>
        <time>2022-11-06T07:32:10Z</time>
      </trkpt>
      <trkpt lat="39.7049570" lon="-0.4379300">
        <ele>563.6</ele>
        <time>2022-11-06T07:32:11Z</time>
      </trkpt>
      <trkpt lat="39.7049790" lon="-0.4379580">
        <ele>563.5</ele>
        <time>2022-11-06T07:32:12Z</time>
      </trkpt>
      <trkpt lat="39.7049980" lon="-0.4379820">
        <ele>563.3</ele>
        <time>2022-11-06T07:32:13Z</time>
      </trkpt>
      <trkpt lat="39.7050220" lon="-0.4380120">
        <ele>563.1</ele>
        <time>2022-11-06T07:32:14Z</time>
      </trkpt>
      <trkpt lat="39.7050400" lon="-0.4380400">
        <ele>562.9</ele>
        <time>2022-11-06T07:32:15Z</time>
      </trkpt>
      <trkpt lat="39.7050620" lon="-0.4380750">
        <ele>562.7</ele>
        <time>2022-11-06T07:32:16Z</time>
      </trkpt>
      <trkpt lat="39.7050860" lon="-0.4381080">
        <ele>562.5</ele>
        <time>2022-11-06T07:32:17Z</time>
      </trkpt>
      <trkpt lat="39.7050860" lon="-0.4381080">
        <ele>562.5</ele>
        <time>2022-11-06T07:32:18Z</time>
      </trkpt>
      <trkpt lat="39.7051420" lon="-0.4381950">
        <ele>561.9</ele>
        <time>2022-11-06T07:32:19Z</time>
      </trkpt>
      <trkpt lat="39.7051770" lon="-0.4382400">
        <ele>561.5</ele>
        <time>2022-11-06T07:32:20Z</time>
      </trkpt>
      <trkpt lat="39.7052070" lon="-0.4382720">
        <ele>561.3</ele>
        <time>2022-11-06T07:32:21Z</time>
      </trkpt>
      <trkpt lat="39.7052390" lon="-0.4383070">
        <ele>560.9</ele>
        <time>2022-11-06T07:32:22Z</time>
      </trkpt>
      <trkpt lat="39.7052660" lon="-0.4383450">
        <ele>560.5</ele>
        <time>2022-11-06T07:32:23Z</time>
      </trkpt>
      <trkpt lat="39.7052950" lon="-0.4383920">
        <ele>560.0</ele>
        <time>2022-11-06T07:32:24Z</time>
      </trkpt>
      <trkpt lat="39.7053140" lon="-0.4384380">
        <ele>559.7</ele>
        <time>2022-11-06T07:32:25Z</time>
      </trkpt>
      <trkpt lat="39.7053330" lon="-0.4384920">
        <ele>559.2</ele>
        <time>2022-11-06T07:32:26Z</time>
      </trkpt>
      <trkpt lat="39.7053570" lon="-0.4385450">
        <ele>558.8</ele>
        <time>2022-11-06T07:32:27Z</time>
      </trkpt>
      <trkpt lat="39.7053570" lon="-0.4385450">
        <ele>558.8</ele>
        <time>2022-11-06T07:32:28Z</time>
      </trkpt>
      <trkpt lat="39.7054030" lon="-0.4386470">
        <ele>558.0</ele>
        <time>2022-11-06T07:32:29Z</time>
      </trkpt>
      <trkpt lat="39.7054210" lon="-0.4387080">
        <ele>557.5</ele>
        <time>2022-11-06T07:32:30Z</time>
      </trkpt>
      <trkpt lat="39.7054370" lon="-0.4387700">
        <ele>557.0</ele>
        <time>2022-11-06T07:32:31Z</time>
      </trkpt>
      <trkpt lat="39.7054510" lon="-0.4388180">
        <ele>556.6</ele>
        <time>2022-11-06T07:32:32Z</time>
      </trkpt>
      <trkpt lat="39.7054720" lon="-0.4388870">
        <ele>556.0</ele>
        <time>2022-11-06T07:32:33Z</time>
      </trkpt>
      <trkpt lat="39.7054830" lon="-0.4389530">
        <ele>555.5</ele>
        <time>2022-11-06T07:32:34Z</time>
      </trkpt>
      <trkpt lat="39.7055020" lon="-0.4390220">
        <ele>554.9</ele>
        <time>2022-11-06T07:32:35Z</time>
      </trkpt>
      <trkpt lat="39.7055130" lon="-0.4390800">
        <ele>554.4</ele>
        <time>2022-11-06T07:32:36Z</time>
      </trkpt>
      <trkpt lat="39.7055310" lon="-0.4391220">
        <ele>554.0</ele>
        <time>2022-11-06T07:32:37Z</time>
      </trkpt>
      <trkpt lat="39.7055740" lon="-0.4391480">
        <ele>553.4</ele>
        <time>2022-11-06T07:32:38Z</time>
      </trkpt>
      <trkpt lat="39.7055740" lon="-0.4391480">
        <ele>553.4</ele>
        <time>2022-11-06T07:32:39Z</time>
      </trkpt>
      <trkpt lat="39.7056360" lon="-0.4391200">
        <ele>552.4</ele>
        <time>2022-11-06T07:32:40Z</time>
      </trkpt>
      <trkpt lat="39.7056570" lon="-0.4391000">
        <ele>552.0</ele>
        <time>2022-11-06T07:32:41Z</time>
      </trkpt>
      <trkpt lat="39.7056550" lon="-0.4390670">
        <ele>551.7</ele>
        <time>2022-11-06T07:32:42Z</time>
      </trkpt>
      <trkpt lat="39.7056650" lon="-0.4390130">
        <ele>551.1</ele>
        <time>2022-11-06T07:32:43Z</time>
      </trkpt>
      <trkpt lat="39.7056900" lon="-0.4389430">
        <ele>550.3</ele>
        <time>2022-11-06T07:32:44Z</time>
      </trkpt>
      <trkpt lat="39.7057270" lon="-0.4389030">
        <ele>549.8</ele>
        <time>2022-11-06T07:32:45Z</time>
      </trkpt>
      <trkpt lat="39.7057650" lon="-0.4388600">
        <ele>549.3</ele>
        <time>2022-11-06T07:32:46Z</time>
      </trkpt>
      <trkpt lat="39.7057910" lon="-0.4387930">
        <ele>548.8</ele>
        <time>2022-11-06T07:32:47Z</time>
      </trkpt>
      <trkpt lat="39.7057910" lon="-0.4387930">
        <ele>548.8</ele>
        <time>2022-11-06T07:32:48Z</time>
      </trkpt>
      <trkpt lat="39.7057910" lon="-0.4387930">
        <ele>548.8</ele>
        <time>2022-11-06T07:32:49Z</time>
      </trkpt>
      <trkpt lat="39.7058450" lon="-0.4386230">
        <ele>547.3</ele>
        <time>2022-11-06T07:32:50Z</time>
      </trkpt>
      <trkpt lat="39.7058370" lon="-0.4385730">
        <ele>546.9</ele>
        <time>2022-11-06T07:32:51Z</time>
      </trkpt>
      <trkpt lat="39.7058260" lon="-0.4385180">
        <ele>546.4</ele>
        <time>2022-11-06T07:32:52Z</time>
      </trkpt>
      <trkpt lat="39.7058080" lon="-0.4384570">
        <ele>545.7</ele>
        <time>2022-11-06T07:32:53Z</time>
      </trkpt>
      <trkpt lat="39.7057830" lon="-0.4383980">
        <ele>545.0</ele>
        <time>2022-11-06T07:32:54Z</time>
      </trkpt>
      <trkpt lat="39.7057620" lon="-0.4383320">
        <ele>544.3</ele>
        <time>2022-11-06T07:32:55Z</time>
      </trkpt>
      <trkpt lat="39.7057350" lon="-0.4382580">
        <ele>543.5</ele>
        <time>2022-11-06T07:32:56Z</time>
      </trkpt>
      <trkpt lat="39.7057000" lon="-0.4381970">
        <ele>542.8</ele>
        <time>2022-11-06T07:32:57Z</time>
      </trkpt>
      <trkpt lat="39.7056680" lon="-0.4381200">
        <ele>542.0</ele>
        <time>2022-11-06T07:32:58Z</time>
      </trkpt>
      <trkpt lat="39.7056680" lon="-0.4381200">
        <ele>542.0</ele>
        <time>2022-11-06T07:32:59Z</time>
      </trkpt>
      <trkpt lat="39.7056680" lon="-0.4381200">
        <ele>542.0</ele>
        <time>2022-11-06T07:33:00Z</time>
      </trkpt>
      <trkpt lat="39.7055770" lon="-0.4379050">
        <ele>540.0</ele>
        <time>2022-11-06T07:33:01Z</time>
      </trkpt>
      <trkpt lat="39.7055550" lon="-0.4378520">
        <ele>539.4</ele>
        <time>2022-11-06T07:33:02Z</time>
      </trkpt>
      <trkpt lat="39.7055370" lon="-0.4378120">
        <ele>538.9</ele>
        <time>2022-11-06T07:33:03Z</time>
      </trkpt>
      <trkpt lat="39.7055130" lon="-0.4377580">
        <ele>538.2</ele>
        <time>2022-11-06T07:33:04Z</time>
      </trkpt>
      <trkpt lat="39.7055180" lon="-0.4377150">
        <ele>537.6</ele>
        <time>2022-11-06T07:33:05Z</time>
      </trkpt>
      <trkpt lat="39.7055230" lon="-0.4376870">
        <ele>537.2</ele>
        <time>2022-11-06T07:33:06Z</time>
      </trkpt>
      <trkpt lat="39.7055310" lon="-0.4376550">
        <ele>536.8</ele>
        <time>2022-11-06T07:33:07Z</time>
      </trkpt>
      <trkpt lat="39.7055770" lon="-0.4376550">
        <ele>535.9</ele>
        <time>2022-11-06T07:33:08Z</time>
      </trkpt>
      <trkpt lat="39.7055770" lon="-0.4376550">
        <ele>535.9</ele>
        <time>2022-11-06T07:33:09Z</time>
      </trkpt>
      <trkpt lat="39.7056440" lon="-0.4376650">
        <ele>534.8</ele>
        <time>2022-11-06T07:33:10Z</time>
      </trkpt>
      <trkpt lat="39.7056820" lon="-0.4376680">
        <ele>534.3</ele>
        <time>2022-11-06T07:33:11Z</time>
      </trkpt>
      <trkpt lat="39.7057190" lon="-0.4376900">
        <ele>533.8</ele>
        <time>2022-11-06T07:33:12Z</time>
      </trkpt>
      <trkpt lat="39.7057670" lon="-0.4377100">
        <ele>533.2</ele>
        <time>2022-11-06T07:33:13Z</time>
      </trkpt>
      <trkpt lat="39.7058210" lon="-0.4377330">
        <ele>532.7</ele>
        <time>2022-11-06T07:33:14Z</time>
      </trkpt>
      <trkpt lat="39.7058670" lon="-0.4377750">
        <ele>532.3</ele>
        <time>2022-11-06T07:33:15Z</time>
      </trkpt>
      <trkpt lat="39.7059150" lon="-0.4378220">
        <ele>531.9</ele>
        <time>2022-11-06T07:33:16Z</time>
      </trkpt>
      <trkpt lat="39.7059600" lon="-0.4378680">
        <ele>531.4</ele>
        <time>2022-11-06T07:33:17Z</time>
      </trkpt>
      <trkpt lat="39.7060110" lon="-0.4379250">
        <ele>531.0</ele>
        <time>2022-11-06T07:33:18Z</time>
      </trkpt>
      <trkpt lat="39.7060700" lon="-0.4379770">
        <ele>530.4</ele>
        <time>2022-11-06T07:33:19Z</time>
      </trkpt>
      <trkpt lat="39.7060700" lon="-0.4379770">
        <ele>530.4</ele>
        <time>2022-11-06T07:33:20Z</time>
      </trkpt>
      <trkpt lat="39.7061800" lon="-0.4380680">
        <ele>529.6</ele>
        <time>2022-11-06T07:33:21Z</time>
      </trkpt>
      <trkpt lat="39.7062420" lon="-0.4381120">
        <ele>529.2</ele>
        <time>2022-11-06T07:33:22Z</time>
      </trkpt>
      <trkpt lat="39.7062880" lon="-0.4381580">
        <ele>528.9</ele>
        <time>2022-11-06T07:33:23Z</time>
      </trkpt>
      <trkpt lat="39.7063230" lon="-0.4382120">
        <ele>528.7</ele>
        <time>2022-11-06T07:33:24Z</time>
      </trkpt>
      <trkpt lat="39.7063440" lon="-0.4382720">
        <ele>528.5</ele>
        <time>2022-11-06T07:33:25Z</time>
      </trkpt>
      <trkpt lat="39.7063630" lon="-0.4383420">
        <ele>528.3</ele>
        <time>2022-11-06T07:33:26Z</time>
      </trkpt>
      <trkpt lat="39.7063760" lon="-0.4384050">
        <ele>528.1</ele>
        <time>2022-11-06T07:33:27Z</time>
      </trkpt>
      <trkpt lat="39.7063980" lon="-0.4384570">
        <ele>528.0</ele>
        <time>2022-11-06T07:33:28Z</time>
      </trkpt>
      <trkpt lat="39.7063980" lon="-0.4384570">
        <ele>528.0</ele>
        <time>2022-11-06T07:33:29Z</time>
      </trkpt>
      <trkpt lat="39.7063980" lon="-0.4384570">
        <ele>528.0</ele>
        <time>2022-11-06T07:33:30Z</time>
      </trkpt>
      <trkpt lat="39.7064940" lon="-0.4385020">
        <ele>527.9</ele>
        <time>2022-11-06T07:33:31Z</time>
      </trkpt>
      <trkpt lat="39.7065210" lon="-0.4384800">
        <ele>527.9</ele>
        <time>2022-11-06T07:33:32Z</time>
      </trkpt>
      <trkpt lat="39.7065400" lon="-0.4384630">
        <ele>528.0</ele>
        <time>2022-11-06T07:33:33Z</time>
      </trkpt>
      <trkpt lat="39.7065530" lon="-0.4384380">
        <ele>528.0</ele>
        <time>2022-11-06T07:33:34Z</time>
      </trkpt>
      <trkpt lat="39.7065690" lon="-0.4384180">
        <ele>528.1</ele>
        <time>2022-11-06T07:33:35Z</time>
      </trkpt>
      <trkpt lat="39.7065850" lon="-0.4383950">
        <ele>528.1</ele>
        <time>2022-11-06T07:33:36Z</time>
      </trkpt>
      <trkpt lat="39.7065960" lon="-0.4383630">
        <ele>528.2</ele>
        <time>2022-11-06T07:33:37Z</time>
      </trkpt>
      <trkpt lat="39.7066070" lon="-0.4383370">
        <ele>528.3</ele>
        <time>2022-11-06T07:33:38Z</time>
      </trkpt>
      <trkpt lat="39.7066150" lon="-0.4383080">
        <ele>528.5</ele>
        <time>2022-11-06T07:33:39Z</time>
      </trkpt>
      <trkpt lat="39.7066150" lon="-0.4383080">
        <ele>528.5</ele>
        <time>2022-11-06T07:33:40Z</time>
      </trkpt>
      <trkpt lat="39.7066150" lon="-0.4383080">
        <ele>528.5</ele>
        <time>2022-11-06T07:33:41Z</time>
      </trkpt>
      <trkpt lat="39.7066500" lon="-0.4382430">
        <ele>528.9</ele>
        <time>2022-11-06T07:33:42Z</time>
      </trkpt>
      <trkpt lat="39.7066520" lon="-0.4382230">
        <ele>529.1</ele>
        <time>2022-11-06T07:33:43Z</time>
      </trkpt>
      <trkpt lat="39.7066610" lon="-0.4382000">
        <ele>529.3</ele>
        <time>2022-11-06T07:33:44Z</time>
      </trkpt>
      <trkpt lat="39.7066660" lon="-0.4381730">
        <ele>529.5</ele>
        <time>2022-11-06T07:33:45Z</time>
      </trkpt>
      <trkpt lat="39.7066690" lon="-0.4381470">
        <ele>529.7</ele>
        <time>2022-11-06T07:33:46Z</time>
      </trkpt>
      <trkpt lat="39.7066770" lon="-0.4381200">
        <ele>530.0</ele>
        <time>2022-11-06T07:33:47Z</time>
      </trkpt>
      <trkpt lat="39.7066850" lon="-0.4380980">
        <ele>530.3</ele>
        <time>2022-11-06T07:33:48Z</time>
      </trkpt>
      <trkpt lat="39.7066930" lon="-0.4380750">
        <ele>530.5</ele>
        <time>2022-11-06T07:33:49Z</time>
      </trkpt>
      <trkpt lat="39.7066930" lon="-0.4380750">
        <ele>530.5</ele>
        <time>2022-11-06T07:33:50Z</time>
      </trkpt>
      <trkpt lat="39.7067060" lon="-0.4380220">
        <ele>531.1</ele>
        <time>2022-11-06T07:33:51Z</time>
      </trkpt>
      <trkpt lat="39.7067140" lon="-0.4379920">
        <ele>531.4</ele>
        <time>2022-11-06T07:33:52Z</time>
      </trkpt>
      <trkpt lat="39.7067200" lon="-0.4379630">
        <ele>531.7</ele>
        <time>2022-11-06T07:33:53Z</time>
      </trkpt>
      <trkpt lat="39.7067220" lon="-0.4379350">
        <ele>532.0</ele>
        <time>2022-11-06T07:33:54Z</time>
      </trkpt>
      <trkpt lat="39.7067250" lon="-0.4379100">
        <ele>532.3</ele>
        <time>2022-11-06T07:33:55Z</time>
      </trkpt>
      <trkpt lat="39.7067300" lon="-0.4378880">
        <ele>532.5</ele>
        <time>2022-11-06T07:33:56Z</time>
      </trkpt>
      <trkpt lat="39.7067300" lon="-0.4378620">
        <ele>532.8</ele>
        <time>2022-11-06T07:33:57Z</time>
      </trkpt>
      <trkpt lat="39.7067380" lon="-0.4378320">
        <ele>533.1</ele>
        <time>2022-11-06T07:33:58Z</time>
      </trkpt>
      <trkpt lat="39.7067460" lon="-0.4378030">
        <ele>533.4</ele>
        <time>2022-11-06T07:33:59Z</time>
      </trkpt>
      <trkpt lat="39.7067520" lon="-0.4377700">
        <ele>533.7</ele>
        <time>2022-11-06T07:34:00Z</time>
      </trkpt>
      <trkpt lat="39.7067520" lon="-0.4377700">
        <ele>533.7</ele>
        <time>2022-11-06T07:34:01Z</time>
      </trkpt>
      <trkpt lat="39.7067730" lon="-0.4377020">
        <ele>534.3</ele>
        <time>2022-11-06T07:34:02Z</time>
      </trkpt>
      <trkpt lat="39.7067840" lon="-0.4376650">
        <ele>534.6</ele>
        <time>2022-11-06T07:34:03Z</time>
      </trkpt>
      <trkpt lat="39.7067920" lon="-0.4376250">
        <ele>534.8</ele>
        <time>2022-11-06T07:34:04Z</time>
      </trkpt>
      <trkpt lat="39.7067970" lon="-0.4375830">
        <ele>535.0</ele>
        <time>2022-11-06T07:34:05Z</time>
      </trkpt>
      <trkpt lat="39.7068050" lon="-0.4375430">
        <ele>535.2</ele>
        <time>2022-11-06T07:34:06Z</time>
      </trkpt>
      <trkpt lat="39.7068110" lon="-0.4375050">
        <ele>535.4</ele>
        <time>2022-11-06T07:34:07Z</time>
      </trkpt>
      <trkpt lat="39.7068110" lon="-0.4374630">
        <ele>535.6</ele>
        <time>2022-11-06T07:34:08Z</time>
      </trkpt>
      <trkpt lat="39.7068110" lon="-0.4374230">
        <ele>535.8</ele>
        <time>2022-11-06T07:34:09Z</time>
      </trkpt>
      <trkpt lat="39.7068110" lon="-0.4373820">
        <ele>536.0</ele>
        <time>2022-11-06T07:34:10Z</time>
      </trkpt>
      <trkpt lat="39.7068110" lon="-0.4373820">
        <ele>536.0</ele>
        <time>2022-11-06T07:34:11Z</time>
      </trkpt>
      <trkpt lat="39.7068210" lon="-0.4372930">
        <ele>536.3</ele>
        <time>2022-11-06T07:34:12Z</time>
      </trkpt>
      <trkpt lat="39.7068240" lon="-0.4372450">
        <ele>536.4</ele>
        <time>2022-11-06T07:34:13Z</time>
      </trkpt>
      <trkpt lat="39.7068290" lon="-0.4371950">
        <ele>536.5</ele>
        <time>2022-11-06T07:34:14Z</time>
      </trkpt>
      <trkpt lat="39.7068400" lon="-0.4371450">
        <ele>536.7</ele>
        <time>2022-11-06T07:34:15Z</time>
      </trkpt>
      <trkpt lat="39.7068510" lon="-0.4370970">
        <ele>536.7</ele>
        <time>2022-11-06T07:34:16Z</time>
      </trkpt>
      <trkpt lat="39.7068670" lon="-0.4370480">
        <ele>536.8</ele>
        <time>2022-11-06T07:34:17Z</time>
      </trkpt>
      <trkpt lat="39.7068910" lon="-0.4370030">
        <ele>536.9</ele>
        <time>2022-11-06T07:34:18Z</time>
      </trkpt>
      <trkpt lat="39.7069130" lon="-0.4369580">
        <ele>536.9</ele>
        <time>2022-11-06T07:34:19Z</time>
      </trkpt>
      <trkpt lat="39.7069370" lon="-0.4369130">
        <ele>536.9</ele>
        <time>2022-11-06T07:34:20Z</time>
      </trkpt>
      <trkpt lat="39.7069370" lon="-0.4369130">
        <ele>536.9</ele>
        <time>2022-11-06T07:34:21Z</time>
      </trkpt>
      <trkpt lat="39.7069370" lon="-0.4369130">
        <ele>536.9</ele>
        <time>2022-11-06T07:34:22Z</time>
      </trkpt>
      <trkpt lat="39.7070090" lon="-0.4367920">
        <ele>537.0</ele>
        <time>2022-11-06T07:34:23Z</time>
      </trkpt>
      <trkpt lat="39.7070360" lon="-0.4367550">
        <ele>537.1</ele>
        <time>2022-11-06T07:34:24Z</time>
      </trkpt>
      <trkpt lat="39.7070660" lon="-0.4367200">
        <ele>537.2</ele>
        <time>2022-11-06T07:34:25Z</time>
      </trkpt>
      <trkpt lat="39.7071000" lon="-0.4366880">
        <ele>537.2</ele>
        <time>2022-11-06T07:34:26Z</time>
      </trkpt>
      <trkpt lat="39.7071300" lon="-0.4366550">
        <ele>537.3</ele>
        <time>2022-11-06T07:34:27Z</time>
      </trkpt>
      <trkpt lat="39.7071670" lon="-0.4366280">
        <ele>537.4</ele>
        <time>2022-11-06T07:34:28Z</time>
      </trkpt>
      <trkpt lat="39.7072020" lon="-0.4366050">
        <ele>537.5</ele>
        <time>2022-11-06T07:34:29Z</time>
      </trkpt>
      <trkpt lat="39.7072400" lon="-0.4365800">
        <ele>537.6</ele>
        <time>2022-11-06T07:34:30Z</time>
      </trkpt>
      <trkpt lat="39.7072400" lon="-0.4365800">
        <ele>537.6</ele>
        <time>2022-11-06T07:34:31Z</time>
      </trkpt>
      <trkpt lat="39.7072400" lon="-0.4365800">
        <ele>537.6</ele>
        <time>2022-11-06T07:34:32Z</time>
      </trkpt>
      <trkpt lat="39.7073610" lon="-0.4365200">
        <ele>538.0</ele>
        <time>2022-11-06T07:34:33Z</time>
      </trkpt>
      <trkpt lat="39.7073930" lon="-0.4364930">
        <ele>538.0</ele>
        <time>2022-11-06T07:34:34Z</time>
      </trkpt>
      <trkpt lat="39.7074170" lon="-0.4364530">
        <ele>538.1</ele>
        <time>2022-11-06T07:34:35Z</time>
      </trkpt>
      <trkpt lat="39.7074280" lon="-0.4364020">
        <ele>538.2</ele>
        <time>2022-11-06T07:34:36Z</time>
      </trkpt>
      <trkpt lat="39.7074360" lon="-0.4363470">
        <ele>538.3</ele>
        <time>2022-11-06T07:34:37Z</time>
      </trkpt>
      <trkpt lat="39.7074360" lon="-0.4362900">
        <ele>538.5</ele>
        <time>2022-11-06T07:34:38Z</time>
      </trkpt>
      <trkpt lat="39.7074360" lon="-0.4362380">
        <ele>538.6</ele>
        <time>2022-11-06T07:34:39Z</time>
      </trkpt>
      <trkpt lat="39.7074330" lon="-0.4361920">
        <ele>538.8</ele>
        <time>2022-11-06T07:34:40Z</time>
      </trkpt>
      <trkpt lat="39.7074200" lon="-0.4361500">
        <ele>539.0</ele>
        <time>2022-11-06T07:34:41Z</time>
      </trkpt>
      <trkpt lat="39.7074200" lon="-0.4361500">
        <ele>539.0</ele>
        <time>2022-11-06T07:34:42Z</time>
      </trkpt>
      <trkpt lat="39.7074170" lon="-0.4360750">
        <ele>539.5</ele>
        <time>2022-11-06T07:34:43Z</time>
      </trkpt>
      <trkpt lat="39.7074120" lon="-0.4360380">
        <ele>539.7</ele>
        <time>2022-11-06T07:34:44Z</time>
      </trkpt>
      <trkpt lat="39.7074090" lon="-0.4360050">
        <ele>539.9</ele>
        <time>2022-11-06T07:34:45Z</time>
      </trkpt>
      <trkpt lat="39.7074060" lon="-0.4359720">
        <ele>540.2</ele>
        <time>2022-11-06T07:34:46Z</time>
      </trkpt>
      <trkpt lat="39.7073980" lon="-0.4359400">
        <ele>540.4</ele>
        <time>2022-11-06T07:34:47Z</time>
      </trkpt>
      <trkpt lat="39.7073900" lon="-0.4359030">
        <ele>540.7</ele>
        <time>2022-11-06T07:34:48Z</time>
      </trkpt>
      <trkpt lat="39.7073820" lon="-0.4358680">
        <ele>540.9</ele>
        <time>2022-11-06T07:34:49Z</time>
      </trkpt>
      <trkpt lat="39.7073740" lon="-0.4358330">
        <ele>541.2</ele>
        <time>2022-11-06T07:34:50Z</time>
      </trkpt>
      <trkpt lat="39.7073630" lon="-0.4358020">
        <ele>541.4</ele>
        <time>2022-11-06T07:34:51Z</time>
      </trkpt>
      <trkpt lat="39.7073630" lon="-0.4358020">
        <ele>541.4</ele>
        <time>2022-11-06T07:34:52Z</time>
      </trkpt>
      <trkpt lat="39.7073360" lon="-0.4357380">
        <ele>541.7</ele>
        <time>2022-11-06T07:34:53Z</time>
      </trkpt>
      <trkpt lat="39.7073180" lon="-0.4357070">
        <ele>541.9</ele>
        <time>2022-11-06T07:34:54Z</time>
      </trkpt>
      <trkpt lat="39.7072990" lon="-0.4356820">
        <ele>542.0</ele>
        <time>2022-11-06T07:34:55Z</time>
      </trkpt>
      <trkpt lat="39.7072830" lon="-0.4356480">
        <ele>542.1</ele>
        <time>2022-11-06T07:34:56Z</time>
      </trkpt>
      <trkpt lat="39.7072640" lon="-0.4356180">
        <ele>542.2</ele>
        <time>2022-11-06T07:34:57Z</time>
      </trkpt>
      <trkpt lat="39.7072400" lon="-0.4355820">
        <ele>542.3</ele>
        <time>2022-11-06T07:34:58Z</time>
      </trkpt>
      <trkpt lat="39.7072180" lon="-0.4355520">
        <ele>542.4</ele>
        <time>2022-11-06T07:34:59Z</time>
      </trkpt>
      <trkpt lat="39.7072000" lon="-0.4355130">
        <ele>542.5</ele>
        <time>2022-11-06T07:35:00Z</time>
      </trkpt>
      <trkpt lat="39.7071810" lon="-0.4354750">
        <ele>542.5</ele>
        <time>2022-11-06T07:35:01Z</time>
      </trkpt>
      <trkpt lat="39.7071620" lon="-0.4354380">
        <ele>542.5</ele>
        <time>2022-11-06T07:35:02Z</time>
      </trkpt>
      <trkpt lat="39.7071620" lon="-0.4354380">
        <ele>542.5</ele>
        <time>2022-11-06T07:35:03Z</time>
      </trkpt>
      <trkpt lat="39.7071650" lon="-0.4353580">
        <ele>542.5</ele>
        <time>2022-11-06T07:35:04Z</time>
      </trkpt>
      <trkpt lat="39.7071670" lon="-0.4353250">
        <ele>542.5</ele>
        <time>2022-11-06T07:35:05Z</time>
      </trkpt>
      <trkpt lat="39.7071810" lon="-0.4352930">
        <ele>542.5</ele>
        <time>2022-11-06T07:35:06Z</time>
      </trkpt>
      <trkpt lat="39.7071940" lon="-0.4352650">
        <ele>542.6</ele>
        <time>2022-11-06T07:35:07Z</time>
      </trkpt>
      <trkpt lat="39.7072180" lon="-0.4352380">
        <ele>542.6</ele>
        <time>2022-11-06T07:35:08Z</time>
      </trkpt>
      <trkpt lat="39.7072370" lon="-0.4352120">
        <ele>542.6</ele>
        <time>2022-11-06T07:35:09Z</time>
      </trkpt>
      <trkpt lat="39.7072560" lon="-0.4351850">
        <ele>542.6</ele>
        <time>2022-11-06T07:35:10Z</time>
      </trkpt>
      <trkpt lat="39.7072800" lon="-0.4351520">
        <ele>542.6</ele>
        <time>2022-11-06T07:35:11Z</time>
      </trkpt>
      <trkpt lat="39.7072800" lon="-0.4351520">
        <ele>542.6</ele>
        <time>2022-11-06T07:35:12Z</time>
      </trkpt>
      <trkpt lat="39.7072800" lon="-0.4351520">
        <ele>542.6</ele>
        <time>2022-11-06T07:35:13Z</time>
      </trkpt>
      <trkpt lat="39.7073610" lon="-0.4350920">
        <ele>542.7</ele>
        <time>2022-11-06T07:35:14Z</time>
      </trkpt>
      <trkpt lat="39.7073900" lon="-0.4350770">
        <ele>542.7</ele>
        <time>2022-11-06T07:35:15Z</time>
      </trkpt>
      <trkpt lat="39.7074170" lon="-0.4350520">
        <ele>542.8</ele>
        <time>2022-11-06T07:35:16Z</time>
      </trkpt>
      <trkpt lat="39.7074460" lon="-0.4350270">
        <ele>542.8</ele>
        <time>2022-11-06T07:35:17Z</time>
      </trkpt>
      <trkpt lat="39.7074730" lon="-0.4350130">
        <ele>542.9</ele>
        <time>2022-11-06T07:35:18Z</time>
      </trkpt>
      <trkpt lat="39.7075000" lon="-0.4349980">
        <ele>543.0</ele>
        <time>2022-11-06T07:35:19Z</time>
      </trkpt>
      <trkpt lat="39.7075270" lon="-0.4349780">
        <ele>543.1</ele>
        <time>2022-11-06T07:35:20Z</time>
      </trkpt>
      <trkpt lat="39.7075510" lon="-0.4349550">
        <ele>543.2</ele>
        <time>2022-11-06T07:35:21Z</time>
      </trkpt>
      <trkpt lat="39.7075720" lon="-0.4349330">
        <ele>543.3</ele>
        <time>2022-11-06T07:35:22Z</time>
      </trkpt>
      <trkpt lat="39.7075720" lon="-0.4349330">
        <ele>543.3</ele>
        <time>2022-11-06T07:35:23Z</time>
      </trkpt>
      <trkpt lat="39.7075720" lon="-0.4349330">
        <ele>543.3</ele>
        <time>2022-11-06T07:35:24Z</time>
      </trkpt>
      <trkpt lat="39.7076450" lon="-0.4348670">
        <ele>543.8</ele>
        <time>2022-11-06T07:35:25Z</time>
      </trkpt>
      <trkpt lat="39.7076640" lon="-0.4348380">
        <ele>543.9</ele>
        <time>2022-11-06T07:35:26Z</time>
      </trkpt>
      <trkpt lat="39.7076800" lon="-0.4348120">
        <ele>544.1</ele>
        <time>2022-11-06T07:35:27Z</time>
      </trkpt>
      <trkpt lat="39.7076960" lon="-0.4347820">
        <ele>544.3</ele>
        <time>2022-11-06T07:35:28Z</time>
      </trkpt>
      <trkpt lat="39.7077040" lon="-0.4347480">
        <ele>544.5</ele>
        <time>2022-11-06T07:35:29Z</time>
      </trkpt>
      <trkpt lat="39.7077090" lon="-0.4347120">
        <ele>544.7</ele>
        <time>2022-11-06T07:35:30Z</time>
      </trkpt>
      <trkpt lat="39.7077230" lon="-0.4346770">
        <ele>544.9</ele>
        <time>2022-11-06T07:35:31Z</time>
      </trkpt>
      <trkpt lat="39.7077330" lon="-0.4346450">
        <ele>545.1</ele>
        <time>2022-11-06T07:35:32Z</time>
      </trkpt>
      <trkpt lat="39.7077330" lon="-0.4346450">
        <ele>545.1</ele>
        <time>2022-11-06T07:35:33Z</time>
      </trkpt>
      <trkpt lat="39.7077600" lon="-0.4345830">
        <ele>545.6</ele>
        <time>2022-11-06T07:35:34Z</time>
      </trkpt>
      <trkpt lat="39.7077760" lon="-0.4345530">
        <ele>545.8</ele>
        <time>2022-11-06T07:35:35Z</time>
      </trkpt>
      <trkpt lat="39.7077870" lon="-0.4345250">
        <ele>545.9</ele>
        <time>2022-11-06T07:35:36Z</time>
      </trkpt>
      <trkpt lat="39.7078030" lon="-0.4344930">
        <ele>546.1</ele>
        <time>2022-11-06T07:35:37Z</time>
      </trkpt>
      <trkpt lat="39.7078170" lon="-0.4344630">
        <ele>546.3</ele>
        <time>2022-11-06T07:35:38Z</time>
      </trkpt>
      <trkpt lat="39.7078330" lon="-0.4344330">
        <ele>546.5</ele>
        <time>2022-11-06T07:35:39Z</time>
      </trkpt>
      <trkpt lat="39.7078430" lon="-0.4344020">
        <ele>546.7</ele>
        <time>2022-11-06T07:35:40Z</time>
      </trkpt>
      <trkpt lat="39.7078540" lon="-0.4343650">
        <ele>546.8</ele>
        <time>2022-11-06T07:35:41Z</time>
      </trkpt>
      <trkpt lat="39.7078620" lon="-0.4343250">
        <ele>547.0</ele>
        <time>2022-11-06T07:35:42Z</time>
      </trkpt>
      <trkpt lat="39.7078680" lon="-0.4342870">
        <ele>547.1</ele>
        <time>2022-11-06T07:35:43Z</time>
      </trkpt>
      <trkpt lat="39.7078680" lon="-0.4342870">
        <ele>547.1</ele>
        <time>2022-11-06T07:35:44Z</time>
      </trkpt>
      <trkpt lat="39.7078680" lon="-0.4342100">
        <ele>547.3</ele>
        <time>2022-11-06T07:35:45Z</time>
      </trkpt>
      <trkpt lat="39.7078620" lon="-0.4341720">
        <ele>547.3</ele>
        <time>2022-11-06T07:35:46Z</time>
      </trkpt>
      <trkpt lat="39.7078620" lon="-0.4341280">
        <ele>547.4</ele>
        <time>2022-11-06T07:35:47Z</time>
      </trkpt>
      <trkpt lat="39.7078590" lon="-0.4340880">
        <ele>547.5</ele>
        <time>2022-11-06T07:35:48Z</time>
      </trkpt>
      <trkpt lat="39.7078540" lon="-0.4340500">
        <ele>547.5</ele>
        <time>2022-11-06T07:35:49Z</time>
      </trkpt>
      <trkpt lat="39.7078490" lon="-0.4340150">
        <ele>547.5</ele>
        <time>2022-11-06T07:35:50Z</time>
      </trkpt>
      <trkpt lat="39.7078410" lon="-0.4339770">
        <ele>547.6</ele>
        <time>2022-11-06T07:35:51Z</time>
      </trkpt>
      <trkpt lat="39.7078220" lon="-0.4339430">
        <ele>547.6</ele>
        <time>2022-11-06T07:35:52Z</time>
      </trkpt>
      <trkpt lat="39.7078220" lon="-0.4339430">
        <ele>547.6</ele>
        <time>2022-11-06T07:35:53Z</time>
      </trkpt>
      <trkpt lat="39.7078220" lon="-0.4339430">
        <ele>547.6</ele>
        <time>2022-11-06T07:35:54Z</time>
      </trkpt>
      <trkpt lat="39.7077760" lon="-0.4338400">
        <ele>547.7</ele>
        <time>2022-11-06T07:35:55Z</time>
      </trkpt>
      <trkpt lat="39.7077550" lon="-0.4338120">
        <ele>547.8</ele>
        <time>2022-11-06T07:35:56Z</time>
      </trkpt>
      <trkpt lat="39.7077360" lon="-0.4337930">
        <ele>547.9</ele>
        <time>2022-11-06T07:35:57Z</time>
      </trkpt>
      <trkpt lat="39.7077170" lon="-0.4337750">
        <ele>547.9</ele>
        <time>2022-11-06T07:35:58Z</time>
      </trkpt>
      <trkpt lat="39.7077040" lon="-0.4337600">
        <ele>548.0</ele>
        <time>2022-11-06T07:35:59Z</time>
      </trkpt>
      <trkpt lat="39.7076820" lon="-0.4337480">
        <ele>548.0</ele>
        <time>2022-11-06T07:36:00Z</time>
      </trkpt>
      <trkpt lat="39.7076690" lon="-0.4337330">
        <ele>548.1</ele>
        <time>2022-11-06T07:36:01Z</time>
      </trkpt>
      <trkpt lat="39.7076420" lon="-0.4337200">
        <ele>548.2</ele>
        <time>2022-11-06T07:36:02Z</time>
      </trkpt>
      <trkpt lat="39.7076260" lon="-0.4336970">
        <ele>548.3</ele>
        <time>2022-11-06T07:36:03Z</time>
      </trkpt>
      <trkpt lat="39.7076260" lon="-0.4336970">
        <ele>548.3</ele>
        <time>2022-11-06T07:36:04Z</time>
      </trkpt>
      <trkpt lat="39.7076260" lon="-0.4336970">
        <ele>548.3</ele>
        <time>2022-11-06T07:36:05Z</time>
      </trkpt>
      <trkpt lat="39.7075970" lon="-0.4336130">
        <ele>548.8</ele>
        <time>2022-11-06T07:36:06Z</time>
      </trkpt>
      <trkpt lat="39.7075890" lon="-0.4335880">
        <ele>548.9</ele>
        <time>2022-11-06T07:36:07Z</time>
      </trkpt>
      <trkpt lat="39.7075890" lon="-0.4335620">
        <ele>549.0</ele>
        <time>2022-11-06T07:36:08Z</time>
      </trkpt>
      <trkpt lat="39.7075830" lon="-0.4335230">
        <ele>549.2</ele>
        <time>2022-11-06T07:36:09Z</time>
      </trkpt>
      <trkpt lat="39.7075810" lon="-0.4334930">
        <ele>549.4</ele>
        <time>2022-11-06T07:36:10Z</time>
      </trkpt>
      <trkpt lat="39.7075700" lon="-0.4334600">
        <ele>549.6</ele>
        <time>2022-11-06T07:36:11Z</time>
      </trkpt>
      <trkpt lat="39.7075620" lon="-0.4334270">
        <ele>549.8</ele>
        <time>2022-11-06T07:36:12Z</time>
      </trkpt>
      <trkpt lat="39.7075560" lon="-0.4333900">
        <ele>550.0</ele>
        <time>2022-11-06T07:36:13Z</time>
      </trkpt>
      <trkpt lat="39.7075560" lon="-0.4333900">
        <ele>550.0</ele>
        <time>2022-11-06T07:36:14Z</time>
      </trkpt>
      <trkpt lat="39.7075460" lon="-0.4333300">
        <ele>550.4</ele>
        <time>2022-11-06T07:36:15Z</time>
      </trkpt>
      <trkpt lat="39.7075460" lon="-0.4333000">
        <ele>550.6</ele>
        <time>2022-11-06T07:36:16Z</time>
      </trkpt>
      <trkpt lat="39.7075380" lon="-0.4332700">
        <ele>550.9</ele>
        <time>2022-11-06T07:36:17Z</time>
      </trkpt>
      <trkpt lat="39.7075350" lon="-0.4332400">
        <ele>551.1</ele>
        <time>2022-11-06T07:36:18Z</time>
      </trkpt>
      <trkpt lat="39.7075320" lon="-0.4332150">
        <ele>551.4</ele>
        <time>2022-11-06T07:36:19Z</time>
      </trkpt>
      <trkpt lat="39.7075320" lon="-0.4331870">
        <ele>551.6</ele>
        <time>2022-11-06T07:36:20Z</time>
      </trkpt>
      <trkpt lat="39.7075320" lon="-0.4331580">
        <ele>551.9</ele>
        <time>2022-11-06T07:36:21Z</time>
      </trkpt>
      <trkpt lat="39.7075270" lon="-0.4331320">
        <ele>552.2</ele>
        <time>2022-11-06T07:36:22Z</time>
      </trkpt>
      <trkpt lat="39.7075270" lon="-0.4331050">
        <ele>552.5</ele>
        <time>2022-11-06T07:36:23Z</time>
      </trkpt>
      <trkpt lat="39.7075270" lon="-0.4330770">
        <ele>552.8</ele>
        <time>2022-11-06T07:36:24Z</time>
      </trkpt>
      <trkpt lat="39.7075270" lon="-0.4330770">
        <ele>552.8</ele>
        <time>2022-11-06T07:36:25Z</time>
      </trkpt>
      <trkpt lat="39.7075240" lon="-0.4330230">
        <ele>553.4</ele>
        <time>2022-11-06T07:36:26Z</time>
      </trkpt>
      <trkpt lat="39.7075240" lon="-0.4329900">
        <ele>553.8</ele>
        <time>2022-11-06T07:36:27Z</time>
      </trkpt>
      <trkpt lat="39.7075190" lon="-0.4329580">
        <ele>554.2</ele>
        <time>2022-11-06T07:36:28Z</time>
      </trkpt>
      <trkpt lat="39.7075160" lon="-0.4329300">
        <ele>554.6</ele>
        <time>2022-11-06T07:36:29Z</time>
      </trkpt>
      <trkpt lat="39.7075160" lon="-0.4329050">
        <ele>554.9</ele>
        <time>2022-11-06T07:36:30Z</time>
      </trkpt>
      <trkpt lat="39.7075190" lon="-0.4328780">
        <ele>555.2</ele>
        <time>2022-11-06T07:36:31Z</time>
      </trkpt>
      <trkpt lat="39.7075190" lon="-0.4328520">
        <ele>555.6</ele>
        <time>2022-11-06T07:36:32Z</time>
      </trkpt>
      <trkpt lat="39.7075240" lon="-0.4328280">
        <ele>555.9</ele>
        <time>2022-11-06T07:36:33Z</time>
      </trkpt>
      <trkpt lat="39.7075320" lon="-0.4328030">
        <ele>556.2</ele>
        <time>2022-11-06T07:36:34Z</time>
      </trkpt>
      <trkpt lat="39.7075320" lon="-0.4328030">
        <ele>556.2</ele>
        <time>2022-11-06T07:36:35Z</time>
      </trkpt>
      <trkpt lat="39.7075460" lon="-0.4327630">
        <ele>556.8</ele>
        <time>2022-11-06T07:36:36Z</time>
      </trkpt>
      <trkpt lat="39.7075510" lon="-0.4327450">
        <ele>557.0</ele>
        <time>2022-11-06T07:36:37Z</time>
      </trkpt>
      <trkpt lat="39.7075620" lon="-0.4327270">
        <ele>557.3</ele>
        <time>2022-11-06T07:36:38Z</time>
      </trkpt>
      <trkpt lat="39.7075720" lon="-0.4327030">
        <ele>557.6</ele>
        <time>2022-11-06T07:36:39Z</time>
      </trkpt>
      <trkpt lat="39.7075830" lon="-0.4326780">
        <ele>558.0</ele>
        <time>2022-11-06T07:36:40Z</time>
      </trkpt>
      <trkpt lat="39.7075970" lon="-0.4326630">
        <ele>558.2</ele>
        <time>2022-11-06T07:36:41Z</time>
      </trkpt>
      <trkpt lat="39.7076050" lon="-0.4326470">
        <ele>558.4</ele>
        <time>2022-11-06T07:36:42Z</time>
      </trkpt>
      <trkpt lat="39.7076150" lon="-0.4326300">
        <ele>558.7</ele>
        <time>2022-11-06T07:36:43Z</time>
      </trkpt>
      <trkpt lat="39.7076230" lon="-0.4326150">
        <ele>558.9</ele>
        <time>2022-11-06T07:36:44Z</time>
      </trkpt>
      <trkpt lat="39.7076230" lon="-0.4326150">
        <ele>558.9</ele>
        <time>2022-11-06T07:36:45Z</time>
      </trkpt>
      <trkpt lat="39.7076230" lon="-0.4326150">
        <ele>558.9</ele>
        <time>2022-11-06T07:36:46Z</time>
      </trkpt>
      <trkpt lat="39.7076530" lon="-0.4325670">
        <ele>559.6</ele>
        <time>2022-11-06T07:36:47Z</time>
      </trkpt>
      <trkpt lat="39.7076640" lon="-0.4325500">
        <ele>559.9</ele>
        <time>2022-11-06T07:36:48Z</time>
      </trkpt>
      <trkpt lat="39.7076720" lon="-0.4325300">
        <ele>560.2</ele>
        <time>2022-11-06T07:36:49Z</time>
      </trkpt>
      <trkpt lat="39.7076820" lon="-0.4325150">
        <ele>560.4</ele>
        <time>2022-11-06T07:36:50Z</time>
      </trkpt>
      <trkpt lat="39.7076960" lon="-0.4325000">
        <ele>560.7</ele>
        <time>2022-11-06T07:36:51Z</time>
      </trkpt>
      <trkpt lat="39.7077090" lon="-0.4324850">
        <ele>561.0</ele>
        <time>2022-11-06T07:36:52Z</time>
      </trkpt>
      <trkpt lat="39.7077170" lon="-0.4324700">
        <ele>561.2</ele>
        <time>2022-11-06T07:36:53Z</time>
      </trkpt>
      <trkpt lat="39.7077330" lon="-0.4324550">
        <ele>561.5</ele>
        <time>2022-11-06T07:36:54Z</time>
      </trkpt>
      <trkpt lat="39.7077330" lon="-0.4324550">
        <ele>561.5</ele>
        <time>2022-11-06T07:36:55Z</time>
      </trkpt>
      <trkpt lat="39.7077330" lon="-0.4324550">
        <ele>561.5</ele>
        <time>2022-11-06T07:36:56Z</time>
      </trkpt>
      <trkpt lat="39.7077680" lon="-0.4324220">
        <ele>562.3</ele>
        <time>2022-11-06T07:36:57Z</time>
      </trkpt>
      <trkpt lat="39.7077820" lon="-0.4324100">
        <ele>562.5</ele>
        <time>2022-11-06T07:36:58Z</time>
      </trkpt>
      <trkpt lat="39.7077950" lon="-0.4324020">
        <ele>562.8</ele>
        <time>2022-11-06T07:36:59Z</time>
      </trkpt>
      <trkpt lat="39.7078060" lon="-0.4323900">
        <ele>563.0</ele>
        <time>2022-11-06T07:37:00Z</time>
      </trkpt>
      <trkpt lat="39.7078220" lon="-0.4323820">
        <ele>563.3</ele>
        <time>2022-11-06T07:37:01Z</time>
      </trkpt>
      <trkpt lat="39.7078350" lon="-0.4323720">
        <ele>563.6</ele>
        <time>2022-11-06T07:37:02Z</time>
      </trkpt>
      <trkpt lat="39.7078510" lon="-0.4323620">
        <ele>563.9</ele>
        <time>2022-11-06T07:37:03Z</time>
      </trkpt>
      <trkpt lat="39.7078620" lon="-0.4323530">
        <ele>564.1</ele>
        <time>2022-11-06T07:37:04Z</time>
      </trkpt>
      <trkpt lat="39.7078760" lon="-0.4323470">
        <ele>564.4</ele>
        <time>2022-11-06T07:37:05Z</time>
      </trkpt>
      <trkpt lat="39.7078760" lon="-0.4323470">
        <ele>564.4</ele>
        <time>2022-11-06T07:37:06Z</time>
      </trkpt>
      <trkpt lat="39.7079000" lon="-0.4323350">
        <ele>564.8</ele>
        <time>2022-11-06T07:37:07Z</time>
      </trkpt>
      <trkpt lat="39.7079130" lon="-0.4323270">
        <ele>565.0</ele>
        <time>2022-11-06T07:37:08Z</time>
      </trkpt>
      <trkpt lat="39.7079270" lon="-0.4323170">
        <ele>565.3</ele>
        <time>2022-11-06T07:37:09Z</time>
      </trkpt>
      <trkpt lat="39.7079400" lon="-0.4323100">
        <ele>565.5</ele>
        <time>2022-11-06T07:37:10Z</time>
      </trkpt>
      <trkpt lat="39.7079510" lon="-0.4323020">
        <ele>565.7</ele>
        <time>2022-11-06T07:37:11Z</time>
      </trkpt>
      <trkpt lat="39.7079670" lon="-0.4322920">
        <ele>566.0</ele>
        <time>2022-11-06T07:37:12Z</time>
      </trkpt>
      <trkpt lat="39.7079770" lon="-0.4322850">
        <ele>566.2</ele>
        <time>2022-11-06T07:37:13Z</time>
      </trkpt>
      <trkpt lat="39.7079940" lon="-0.4322780">
        <ele>566.4</ele>
        <time>2022-11-06T07:37:14Z</time>
      </trkpt>
      <trkpt lat="39.7080040" lon="-0.4322700">
        <ele>566.6</ele>
        <time>2022-11-06T07:37:15Z</time>
      </trkpt>
      <trkpt lat="39.7080040" lon="-0.4322700">
        <ele>566.6</ele>
        <time>2022-11-06T07:37:16Z</time>
      </trkpt>
      <trkpt lat="39.7080310" lon="-0.4322530">
        <ele>567.1</ele>
        <time>2022-11-06T07:37:17Z</time>
      </trkpt>
      <trkpt lat="39.7080470" lon="-0.4322470">
        <ele>567.3</ele>
        <time>2022-11-06T07:37:18Z</time>
      </trkpt>
      <trkpt lat="39.7080610" lon="-0.4322380">
        <ele>567.5</ele>
        <time>2022-11-06T07:37:19Z</time>
      </trkpt>
      <trkpt lat="39.7080770" lon="-0.4322320">
        <ele>567.7</ele>
        <time>2022-11-06T07:37:20Z</time>
      </trkpt>
      <trkpt lat="39.7080870" lon="-0.4322230">
        <ele>567.9</ele>
        <time>2022-11-06T07:37:21Z</time>
      </trkpt>
      <trkpt lat="39.7081040" lon="-0.4322150">
        <ele>568.1</ele>
        <time>2022-11-06T07:37:22Z</time>
      </trkpt>
      <trkpt lat="39.7081200" lon="-0.4322070">
        <ele>568.3</ele>
        <time>2022-11-06T07:37:23Z</time>
      </trkpt>
      <trkpt lat="39.7081300" lon="-0.4321970">
        <ele>568.5</ele>
        <time>2022-11-06T07:37:24Z</time>
      </trkpt>
      <trkpt lat="39.7081460" lon="-0.4321880">
        <ele>568.7</ele>
        <time>2022-11-06T07:37:25Z</time>
      </trkpt>
      <trkpt lat="39.7081600" lon="-0.4321830">
        <ele>568.8</ele>
        <time>2022-11-06T07:37:26Z</time>
      </trkpt>
      <trkpt lat="39.7081600" lon="-0.4321830">
        <ele>568.8</ele>
        <time>2022-11-06T07:37:27Z</time>
      </trkpt>
      <trkpt lat="39.7081920" lon="-0.4321750">
        <ele>569.2</ele>
        <time>2022-11-06T07:37:28Z</time>
      </trkpt>
      <trkpt lat="39.7082110" lon="-0.4321700">
        <ele>569.4</ele>
        <time>2022-11-06T07:37:29Z</time>
      </trkpt>
      <trkpt lat="39.7082300" lon="-0.4321630">
        <ele>569.5</ele>
        <time>2022-11-06T07:37:30Z</time>
      </trkpt>
      <trkpt lat="39.7082430" lon="-0.4321550">
        <ele>569.7</ele>
        <time>2022-11-06T07:37:31Z</time>
      </trkpt>
      <trkpt lat="39.7082560" lon="-0.4321500">
        <ele>569.8</ele>
        <time>2022-11-06T07:37:32Z</time>
      </trkpt>
      <trkpt lat="39.7082700" lon="-0.4321470">
        <ele>569.9</ele>
        <time>2022-11-06T07:37:33Z</time>
      </trkpt>
      <trkpt lat="39.7082860" lon="-0.4321420">
        <ele>570.0</ele>
        <time>2022-11-06T07:37:34Z</time>
      </trkpt>
      <trkpt lat="39.7083020" lon="-0.4321330">
        <ele>570.2</ele>
        <time>2022-11-06T07:37:35Z</time>
      </trkpt>
      <trkpt lat="39.7083020" lon="-0.4321330">
        <ele>570.2</ele>
        <time>2022-11-06T07:37:36Z</time>
      </trkpt>
      <trkpt lat="39.7083020" lon="-0.4321330">
        <ele>570.2</ele>
        <time>2022-11-06T07:37:37Z</time>
      </trkpt>
      <trkpt lat="39.7083500" lon="-0.4321150">
        <ele>570.5</ele>
        <time>2022-11-06T07:37:38Z</time>
      </trkpt>
      <trkpt lat="39.7083690" lon="-0.4321100">
        <ele>570.6</ele>
        <time>2022-11-06T07:37:39Z</time>
      </trkpt>
      <trkpt lat="39.7083850" lon="-0.4321030">
        <ele>570.7</ele>
        <time>2022-11-06T07:37:40Z</time>
      </trkpt>
      <trkpt lat="39.7084010" lon="-0.4320950">
        <ele>570.7</ele>
        <time>2022-11-06T07:37:41Z</time>
      </trkpt>
      <trkpt lat="39.7084200" lon="-0.4320870">
        <ele>570.8</ele>
        <time>2022-11-06T07:37:42Z</time>
      </trkpt>
      <trkpt lat="39.7084390" lon="-0.4320780">
        <ele>570.9</ele>
        <time>2022-11-06T07:37:43Z</time>
      </trkpt>
      <trkpt lat="39.7084630" lon="-0.4320700">
        <ele>571.0</ele>
        <time>2022-11-06T07:37:44Z</time>
      </trkpt>
      <trkpt lat="39.7084820" lon="-0.4320600">
        <ele>571.0</ele>
        <time>2022-11-06T07:37:45Z</time>
      </trkpt>
      <trkpt lat="39.7085010" lon="-0.4320500">
        <ele>571.1</ele>
        <time>2022-11-06T07:37:46Z</time>
      </trkpt>
      <trkpt lat="39.7085010" lon="-0.4320500">
        <ele>571.1</ele>
        <time>2022-11-06T07:37:47Z</time>
      </trkpt>
      <trkpt lat="39.7085010" lon="-0.4320500">
        <ele>571.1</ele>
        <time>2022-11-06T07:37:48Z</time>
      </trkpt>
      <trkpt lat="39.7085490" lon="-0.4320000">
        <ele>571.2</ele>
        <time>2022-11-06T07:37:49Z</time>
      </trkpt>
      <trkpt lat="39.7085650" lon="-0.4319800">
        <ele>571.3</ele>
        <time>2022-11-06T07:37:50Z</time>
      </trkpt>
      <trkpt lat="39.7085760" lon="-0.4319600">
        <ele>571.3</ele>
        <time>2022-11-06T07:37:51Z</time>
      </trkpt>
      <trkpt lat="39.7085860" lon="-0.4319370">
        <ele>571.4</ele>
        <time>2022-11-06T07:37:52Z</time>
      </trkpt>
      <trkpt lat="39.7086020" lon="-0.4319120">
        <ele>571.5</ele>
        <time>2022-11-06T07:37:53Z</time>
      </trkpt>
      <trkpt lat="39.7086130" lon="-0.4318920">
        <ele>571.5</ele>
        <time>2022-11-06T07:37:54Z</time>
      </trkpt>
      <trkpt lat="39.7086270" lon="-0.4318680">
        <ele>571.6</ele>
        <time>2022-11-06T07:37:55Z</time>
      </trkpt>
      <trkpt lat="39.7086370" lon="-0.4318450">
        <ele>571.7</ele>
        <time>2022-11-06T07:37:56Z</time>
      </trkpt>
      <trkpt lat="39.7086370" lon="-0.4318450">
        <ele>571.7</ele>
        <time>2022-11-06T07:37:57Z</time>
      </trkpt>
      <trkpt lat="39.7086610" lon="-0.4318030">
        <ele>571.8</ele>
        <time>2022-11-06T07:37:58Z</time>
      </trkpt>
      <trkpt lat="39.7086720" lon="-0.4317770">
        <ele>571.9</ele>
        <time>2022-11-06T07:37:59Z</time>
      </trkpt>
      <trkpt lat="39.7086830" lon="-0.4317550">
        <ele>572.1</ele>
        <time>2022-11-06T07:38:00Z</time>
      </trkpt>
      <trkpt lat="39.7086940" lon="-0.4317370">
        <ele>572.2</ele>
        <time>2022-11-06T07:38:01Z</time>
      </trkpt>
      <trkpt lat="39.7087020" lon="-0.4317150">
        <ele>572.3</ele>
        <time>2022-11-06T07:38:02Z</time>
      </trkpt>
      <trkpt lat="39.7087100" lon="-0.4316900">
        <ele>572.5</ele>
        <time>2022-11-06T07:38:03Z</time>
      </trkpt>
      <trkpt lat="39.7087200" lon="-0.4316720">
        <ele>572.6</ele>
        <time>2022-11-06T07:38:04Z</time>
      </trkpt>
      <trkpt lat="39.7087370" lon="-0.4316570">
        <ele>572.8</ele>
        <time>2022-11-06T07:38:05Z</time>
      </trkpt>
      <trkpt lat="39.7087470" lon="-0.4316380">
        <ele>572.9</ele>
        <time>2022-11-06T07:38:06Z</time>
      </trkpt>
      <trkpt lat="39.7087630" lon="-0.4316200">
        <ele>573.2</ele>
        <time>2022-11-06T07:38:07Z</time>
      </trkpt>
      <trkpt lat="39.7087630" lon="-0.4316200">
        <ele>573.2</ele>
        <time>2022-11-06T07:38:08Z</time>
      </trkpt>
      <trkpt lat="39.7087900" lon="-0.4315800">
        <ele>573.6</ele>
        <time>2022-11-06T07:38:09Z</time>
      </trkpt>
      <trkpt lat="39.7088010" lon="-0.4315620">
        <ele>573.8</ele>
        <time>2022-11-06T07:38:10Z</time>
      </trkpt>
      <trkpt lat="39.7088170" lon="-0.4315430">
        <ele>574.0</ele>
        <time>2022-11-06T07:38:11Z</time>
      </trkpt>
      <trkpt lat="39.7088280" lon="-0.4315250">
        <ele>574.2</ele>
        <time>2022-11-06T07:38:12Z</time>
      </trkpt>
      <trkpt lat="39.7088380" lon="-0.4315070">
        <ele>574.4</ele>
        <time>2022-11-06T07:38:13Z</time>
      </trkpt>
      <trkpt lat="39.7088550" lon="-0.4314900">
        <ele>574.7</ele>
        <time>2022-11-06T07:38:14Z</time>
      </trkpt>
      <trkpt lat="39.7088650" lon="-0.4314720">
        <ele>574.9</ele>
        <time>2022-11-06T07:38:15Z</time>
      </trkpt>
      <trkpt lat="39.7088790" lon="-0.4314500">
        <ele>575.2</ele>
        <time>2022-11-06T07:38:16Z</time>
      </trkpt>
      <trkpt lat="39.7088790" lon="-0.4314500">
        <ele>575.2</ele>
        <time>2022-11-06T07:38:17Z</time>
      </trkpt>
      <trkpt lat="39.7088790" lon="-0.4314500">
        <ele>575.2</ele>
        <time>2022-11-06T07:38:18Z</time>
      </trkpt>
      <trkpt lat="39.7089240" lon="-0.4313970">
        <ele>575.9</ele>
        <time>2022-11-06T07:38:19Z</time>
      </trkpt>
      <trkpt lat="39.7089350" lon="-0.4313820">
        <ele>576.1</ele>
        <time>2022-11-06T07:38:20Z</time>
      </trkpt>
      <trkpt lat="39.7089510" lon="-0.4313700">
        <ele>576.4</ele>
        <time>2022-11-06T07:38:21Z</time>
      </trkpt>
      <trkpt lat="39.7089650" lon="-0.4313620">
        <ele>576.6</ele>
        <time>2022-11-06T07:38:22Z</time>
      </trkpt>
      <trkpt lat="39.7089810" lon="-0.4313500">
        <ele>576.8</ele>
        <time>2022-11-06T07:38:23Z</time>
      </trkpt>
      <trkpt lat="39.7089910" lon="-0.4313370">
        <ele>577.0</ele>
        <time>2022-11-06T07:38:24Z</time>
      </trkpt>
      <trkpt lat="39.7090050" lon="-0.4313220">
        <ele>577.3</ele>
        <time>2022-11-06T07:38:25Z</time>
      </trkpt>
      <trkpt lat="39.7090180" lon="-0.4313080">
        <ele>577.5</ele>
        <time>2022-11-06T07:38:26Z</time>
      </trkpt>
      <trkpt lat="39.7090340" lon="-0.4312920">
        <ele>577.7</ele>
        <time>2022-11-06T07:38:27Z</time>
      </trkpt>
      <trkpt lat="39.7090340" lon="-0.4312920">
        <ele>577.7</ele>
        <time>2022-11-06T07:38:28Z</time>
      </trkpt>
      <trkpt lat="39.7090340" lon="-0.4312920">
        <ele>577.7</ele>
        <time>2022-11-06T07:38:29Z</time>
      </trkpt>
      <trkpt lat="39.7090420" lon="-0.4312320">
        <ele>578.3</ele>
        <time>2022-11-06T07:38:30Z</time>
      </trkpt>
      <trkpt lat="39.7090420" lon="-0.4312080">
        <ele>578.5</ele>
        <time>2022-11-06T07:38:31Z</time>
      </trkpt>
      <trkpt lat="39.7090420" lon="-0.4311820">
        <ele>578.8</ele>
        <time>2022-11-06T07:38:32Z</time>
      </trkpt>
      <trkpt lat="39.7090340" lon="-0.4311570">
        <ele>579.0</ele>
        <time>2022-11-06T07:38:33Z</time>
      </trkpt>
      <trkpt lat="39.7090260" lon="-0.4311380">
        <ele>579.2</ele>
        <time>2022-11-06T07:38:34Z</time>
      </trkpt>
      <trkpt lat="39.7090100" lon="-0.4311330">
        <ele>579.4</ele>
        <time>2022-11-06T07:38:35Z</time>
      </trkpt>
      <trkpt lat="39.7089970" lon="-0.4311230">
        <ele>579.6</ele>
        <time>2022-11-06T07:38:36Z</time>
      </trkpt>
      <trkpt lat="39.7089810" lon="-0.4311100">
        <ele>579.8</ele>
        <time>2022-11-06T07:38:37Z</time>
      </trkpt>
      <trkpt lat="39.7089810" lon="-0.4311100">
        <ele>579.8</ele>
        <time>2022-11-06T07:38:38Z</time>
      </trkpt>
      <trkpt lat="39.7089510" lon="-0.4310880">
        <ele>580.2</ele>
        <time>2022-11-06T07:38:39Z</time>
      </trkpt>
      <trkpt lat="39.7089380" lon="-0.4310800">
        <ele>580.4</ele>
        <time>2022-11-06T07:38:40Z</time>
      </trkpt>
      <trkpt lat="39.7089240" lon="-0.4310730">
        <ele>580.6</ele>
        <time>2022-11-06T07:38:41Z</time>
      </trkpt>
      <trkpt lat="39.7089080" lon="-0.4310700">
        <ele>580.8</ele>
        <time>2022-11-06T07:38:42Z</time>
      </trkpt>
      <trkpt lat="39.7088920" lon="-0.4310670">
        <ele>581.0</ele>
        <time>2022-11-06T07:38:43Z</time>
      </trkpt>
      <trkpt lat="39.7088790" lon="-0.4310600">
        <ele>581.1</ele>
        <time>2022-11-06T07:38:44Z</time>
      </trkpt>
      <trkpt lat="39.7088570" lon="-0.4310550">
        <ele>581.4</ele>
        <time>2022-11-06T07:38:45Z</time>
      </trkpt>
      <trkpt lat="39.7088440" lon="-0.4310480">
        <ele>581.5</ele>
        <time>2022-11-06T07:38:46Z</time>
      </trkpt>
      <trkpt lat="39.7088280" lon="-0.4310430">
        <ele>581.7</ele>
        <time>2022-11-06T07:38:47Z</time>
      </trkpt>
      <trkpt lat="39.7088090" lon="-0.4310320">
        <ele>581.9</ele>
        <time>2022-11-06T07:38:48Z</time>
      </trkpt>
      <trkpt lat="39.7088090" lon="-0.4310320">
        <ele>581.9</ele>
        <time>2022-11-06T07:38:49Z</time>
      </trkpt>
      <trkpt lat="39.7087790" lon="-0.4310180">
        <ele>582.2</ele>
        <time>2022-11-06T07:38:50Z</time>
      </trkpt>
      <trkpt lat="39.7087580" lon="-0.4310130">
        <ele>582.5</ele>
        <time>2022-11-06T07:38:51Z</time>
      </trkpt>
      <trkpt lat="39.7087390" lon="-0.4310080">
        <ele>582.6</ele>
        <time>2022-11-06T07:38:52Z</time>
      </trkpt>
      <trkpt lat="39.7087260" lon="-0.4310020">
        <ele>582.8</ele>
        <time>2022-11-06T07:38:53Z</time>
      </trkpt>
      <trkpt lat="39.7087120" lon="-0.4309780">
        <ele>582.9</ele>
        <time>2022-11-06T07:38:54Z</time>
      </trkpt>
      <trkpt lat="39.7086940" lon="-0.4309680">
        <ele>583.1</ele>
        <time>2022-11-06T07:38:55Z</time>
      </trkpt>
      <trkpt lat="39.7086830" lon="-0.4309570">
        <ele>583.2</ele>
        <time>2022-11-06T07:38:56Z</time>
      </trkpt>
      <trkpt lat="39.7086640" lon="-0.4309450">
        <ele>583.3</ele>
        <time>2022-11-06T07:38:57Z</time>
      </trkpt>
      <trkpt lat="39.7086480" lon="-0.4309350">
        <ele>583.5</ele>
        <time>2022-11-06T07:38:58Z</time>
      </trkpt>
      <trkpt lat="39.7086480" lon="-0.4309350">
        <ele>583.5</ele>
        <time>2022-11-06T07:38:59Z</time>
      </trkpt>
      <trkpt lat="39.7086130" lon="-0.4309100">
        <ele>583.8</ele>
        <time>2022-11-06T07:39:00Z</time>
      </trkpt>
      <trkpt lat="39.7086020" lon="-0.4308950">
        <ele>583.9</ele>
        <time>2022-11-06T07:39:01Z</time>
      </trkpt>
      <trkpt lat="39.7085860" lon="-0.4308820">
        <ele>584.0</ele>
        <time>2022-11-06T07:39:02Z</time>
      </trkpt>
      <trkpt lat="39.7085760" lon="-0.4308670">
        <ele>584.1</ele>
        <time>2022-11-06T07:39:03Z</time>
      </trkpt>
      <trkpt lat="39.7085620" lon="-0.4308480">
        <ele>584.3</ele>
        <time>2022-11-06T07:39:04Z</time>
      </trkpt>
      <trkpt lat="39.7085490" lon="-0.4308300">
        <ele>584.4</ele>
        <time>2022-11-06T07:39:05Z</time>
      </trkpt>
      <trkpt lat="39.7085380" lon="-0.4308120">
        <ele>584.6</ele>
        <time>2022-11-06T07:39:06Z</time>
      </trkpt>
      <trkpt lat="39.7085270" lon="-0.4307920">
        <ele>584.7</ele>
        <time>2022-11-06T07:39:07Z</time>
      </trkpt>
      <trkpt lat="39.7085190" lon="-0.4307720">
        <ele>584.9</ele>
        <time>2022-11-06T07:39:08Z</time>
      </trkpt>
      <trkpt lat="39.7085190" lon="-0.4307720">
        <ele>584.9</ele>
        <time>2022-11-06T07:39:09Z</time>
      </trkpt>
      <trkpt lat="39.7085190" lon="-0.4307720">
        <ele>584.9</ele>
        <time>2022-11-06T07:39:10Z</time>
      </trkpt>
      <trkpt lat="39.7085010" lon="-0.4307100">
        <ele>585.3</ele>
        <time>2022-11-06T07:39:11Z</time>
      </trkpt>
      <trkpt lat="39.7084920" lon="-0.4306880">
        <ele>585.4</ele>
        <time>2022-11-06T07:39:12Z</time>
      </trkpt>
      <trkpt lat="39.7084900" lon="-0.4306680">
        <ele>585.6</ele>
        <time>2022-11-06T07:39:13Z</time>
      </trkpt>
      <trkpt lat="39.7084840" lon="-0.4306470">
        <ele>585.7</ele>
        <time>2022-11-06T07:39:14Z</time>
      </trkpt>
      <trkpt lat="39.7084820" lon="-0.4306270">
        <ele>585.8</ele>
        <time>2022-11-06T07:39:15Z</time>
      </trkpt>
      <trkpt lat="39.7084820" lon="-0.4306030">
        <ele>586.0</ele>
        <time>2022-11-06T07:39:16Z</time>
      </trkpt>
      <trkpt lat="39.7084740" lon="-0.4305780">
        <ele>586.1</ele>
        <time>2022-11-06T07:39:17Z</time>
      </trkpt>
      <trkpt lat="39.7084680" lon="-0.4305570">
        <ele>586.3</ele>
        <time>2022-11-06T07:39:18Z</time>
      </trkpt>
      <trkpt lat="39.7084680" lon="-0.4305570">
        <ele>586.3</ele>
        <time>2022-11-06T07:39:19Z</time>
      </trkpt>
      <trkpt lat="39.7084680" lon="-0.4305570">
        <ele>586.3</ele>
        <time>2022-11-06T07:39:20Z</time>
      </trkpt>
      <trkpt lat="39.7084550" lon="-0.4304780">
        <ele>586.7</ele>
        <time>2022-11-06T07:39:21Z</time>
      </trkpt>
      <trkpt lat="39.7084550" lon="-0.4304530">
        <ele>586.8</ele>
        <time>2022-11-06T07:39:22Z</time>
      </trkpt>
      <trkpt lat="39.7084550" lon="-0.4304280">
        <ele>586.9</ele>
        <time>2022-11-06T07:39:23Z</time>
      </trkpt>
      <trkpt lat="39.7084470" lon="-0.4304020">
        <ele>587.1</ele>
        <time>2022-11-06T07:39:24Z</time>
      </trkpt>
      <trkpt lat="39.7084410" lon="-0.4303720">
        <ele>587.2</ele>
        <time>2022-11-06T07:39:25Z</time>
      </trkpt>
      <trkpt lat="39.7084390" lon="-0.4303430">
        <ele>587.3</ele>
        <time>2022-11-06T07:39:26Z</time>
      </trkpt>
      <trkpt lat="39.7084360" lon="-0.4303170">
        <ele>587.4</ele>
        <time>2022-11-06T07:39:27Z</time>
      </trkpt>
      <trkpt lat="39.7084310" lon="-0.4302900">
        <ele>587.6</ele>
        <time>2022-11-06T07:39:28Z</time>
      </trkpt>
      <trkpt lat="39.7084280" lon="-0.4302600">
        <ele>587.7</ele>
        <time>2022-11-06T07:39:29Z</time>
      </trkpt>
      <trkpt lat="39.7084280" lon="-0.4302600">
        <ele>587.7</ele>
        <time>2022-11-06T07:39:30Z</time>
      </trkpt>
      <trkpt lat="39.7084150" lon="-0.4302080">
        <ele>587.9</ele>
        <time>2022-11-06T07:39:31Z</time>
      </trkpt>
      <trkpt lat="39.7084040" lon="-0.4301850">
        <ele>588.1</ele>
        <time>2022-11-06T07:39:32Z</time>
      </trkpt>
      <trkpt lat="39.7083930" lon="-0.4301620">
        <ele>588.2</ele>
        <time>2022-11-06T07:39:33Z</time>
      </trkpt>
      <trkpt lat="39.7083820" lon="-0.4301350">
        <ele>588.4</ele>
        <time>2022-11-06T07:39:34Z</time>
      </trkpt>
      <trkpt lat="39.7083690" lon="-0.4301120">
        <ele>588.5</ele>
        <time>2022-11-06T07:39:35Z</time>
      </trkpt>
      <trkpt lat="39.7083560" lon="-0.4300870">
        <ele>588.7</ele>
        <time>2022-11-06T07:39:36Z</time>
      </trkpt>
      <trkpt lat="39.7083400" lon="-0.4300670">
        <ele>588.9</ele>
        <time>2022-11-06T07:39:37Z</time>
      </trkpt>
      <trkpt lat="39.7083230" lon="-0.4300480">
        <ele>589.1</ele>
        <time>2022-11-06T07:39:38Z</time>
      </trkpt>
      <trkpt lat="39.7083050" lon="-0.4300370">
        <ele>589.3</ele>
        <time>2022-11-06T07:39:39Z</time>
      </trkpt>
      <trkpt lat="39.7083050" lon="-0.4300370">
        <ele>589.3</ele>
        <time>2022-11-06T07:39:40Z</time>
      </trkpt>
      <trkpt lat="39.7082780" lon="-0.4300180">
        <ele>589.6</ele>
        <time>2022-11-06T07:39:41Z</time>
      </trkpt>
      <trkpt lat="39.7082590" lon="-0.4300100">
        <ele>589.8</ele>
        <time>2022-11-06T07:39:42Z</time>
      </trkpt>
      <trkpt lat="39.7082430" lon="-0.4300000">
        <ele>590.0</ele>
        <time>2022-11-06T07:39:43Z</time>
      </trkpt>
      <trkpt lat="39.7082300" lon="-0.4299920">
        <ele>590.1</ele>
        <time>2022-11-06T07:39:44Z</time>
      </trkpt>
      <trkpt lat="39.7082110" lon="-0.4299880">
        <ele>590.3</ele>
        <time>2022-11-06T07:39:45Z</time>
      </trkpt>
      <trkpt lat="39.7081950" lon="-0.4299800">
        <ele>590.5</ele>
        <time>2022-11-06T07:39:46Z</time>
      </trkpt>
      <trkpt lat="39.7081760" lon="-0.4299750">
        <ele>590.7</ele>
        <time>2022-11-06T07:39:47Z</time>
      </trkpt>
      <trkpt lat="39.7081600" lon="-0.4299700">
        <ele>590.9</ele>
        <time>2022-11-06T07:39:48Z</time>
      </trkpt>
      <trkpt lat="39.7081460" lon="-0.4299650">
        <ele>591.1</ele>
        <time>2022-11-06T07:39:49Z</time>
      </trkpt>
      <trkpt lat="39.7081250" lon="-0.4299570">
        <ele>591.3</ele>
        <time>2022-11-06T07:39:50Z</time>
      </trkpt>
      <trkpt lat="39.7081250" lon="-0.4299570">
        <ele>591.3</ele>
        <time>2022-11-06T07:39:51Z</time>
      </trkpt>
      <trkpt lat="39.7080870" lon="-0.4299500">
        <ele>591.8</ele>
        <time>2022-11-06T07:39:52Z</time>
      </trkpt>
      <trkpt lat="39.7080690" lon="-0.4299450">
        <ele>592.0</ele>
        <time>2022-11-06T07:39:53Z</time>
      </trkpt>
      <trkpt lat="39.7080500" lon="-0.4299370">
        <ele>592.2</ele>
        <time>2022-11-06T07:39:54Z</time>
      </trkpt>
      <trkpt lat="39.7080260" lon="-0.4299280">
        <ele>592.5</ele>
        <time>2022-11-06T07:39:55Z</time>
      </trkpt>
      <trkpt lat="39.7080120" lon="-0.4299270">
        <ele>592.7</ele>
        <time>2022-11-06T07:39:56Z</time>
      </trkpt>
      <trkpt lat="39.7079940" lon="-0.4299220">
        <ele>592.9</ele>
        <time>2022-11-06T07:39:57Z</time>
      </trkpt>
      <trkpt lat="39.7079750" lon="-0.4299170">
        <ele>593.1</ele>
        <time>2022-11-06T07:39:58Z</time>
      </trkpt>
      <trkpt lat="39.7079590" lon="-0.4299080">
        <ele>593.3</ele>
        <time>2022-11-06T07:39:59Z</time>
      </trkpt>
      <trkpt lat="39.7079590" lon="-0.4299080">
        <ele>593.3</ele>
        <time>2022-11-06T07:40:00Z</time>
      </trkpt>
      <trkpt lat="39.7079590" lon="-0.4299080">
        <ele>593.3</ele>
        <time>2022-11-06T07:40:01Z</time>
      </trkpt>
      <trkpt lat="39.7079080" lon="-0.4298830">
        <ele>593.9</ele>
        <time>2022-11-06T07:40:02Z</time>
      </trkpt>
      <trkpt lat="39.7078940" lon="-0.4298750">
        <ele>594.1</ele>
        <time>2022-11-06T07:40:03Z</time>
      </trkpt>
      <trkpt lat="39.7078780" lon="-0.4298650">
        <ele>594.3</ele>
        <time>2022-11-06T07:40:04Z</time>
      </trkpt>
      <trkpt lat="39.7078620" lon="-0.4298500">
        <ele>594.6</ele>
        <time>2022-11-06T07:40:05Z</time>
      </trkpt>
      <trkpt lat="39.7078490" lon="-0.4298350">
        <ele>594.8</ele>
        <time>2022-11-06T07:40:06Z</time>
      </trkpt>
      <trkpt lat="39.7078350" lon="-0.4298180">
        <ele>595.0</ele>
        <time>2022-11-06T07:40:07Z</time>
      </trkpt>
      <trkpt lat="39.7078270" lon="-0.4298020">
        <ele>595.2</ele>
        <time>2022-11-06T07:40:08Z</time>
      </trkpt>
      <trkpt lat="39.7078170" lon="-0.4297900">
        <ele>595.4</ele>
        <time>2022-11-06T07:40:09Z</time>
      </trkpt>
      <trkpt lat="39.7078060" lon="-0.4297750">
        <ele>595.8</ele>
        <time>2022-11-06T07:40:10Z</time>
      </trkpt>
      <trkpt lat="39.7078060" lon="-0.4297750">
        <ele>595.8</ele>
        <time>2022-11-06T07:40:11Z</time>
      </trkpt>
      <trkpt lat="39.7078060" lon="-0.4297750">
        <ele>595.8</ele>
        <time>2022-11-06T07:40:12Z</time>
      </trkpt>
      <trkpt lat="39.7077760" lon="-0.4297250">
        <ele>596.5</ele>
        <time>2022-11-06T07:40:13Z</time>
      </trkpt>
      <trkpt lat="39.7077630" lon="-0.4297080">
        <ele>596.7</ele>
        <time>2022-11-06T07:40:14Z</time>
      </trkpt>
      <trkpt lat="39.7077550" lon="-0.4296930">
        <ele>596.9</ele>
        <time>2022-11-06T07:40:15Z</time>
      </trkpt>
      <trkpt lat="39.7077490" lon="-0.4296770">
        <ele>597.1</ele>
        <time>2022-11-06T07:40:16Z</time>
      </trkpt>
      <trkpt lat="39.7077440" lon="-0.4296550">
        <ele>597.3</ele>
        <time>2022-11-06T07:40:17Z</time>
      </trkpt>
      <trkpt lat="39.7077410" lon="-0.4296370">
        <ele>597.5</ele>
        <time>2022-11-06T07:40:18Z</time>
      </trkpt>
      <trkpt lat="39.7077360" lon="-0.4296180">
        <ele>597.7</ele>
        <time>2022-11-06T07:40:19Z</time>
      </trkpt>
      <trkpt lat="39.7077360" lon="-0.4296000">
        <ele>597.8</ele>
        <time>2022-11-06T07:40:20Z</time>
      </trkpt>
      <trkpt lat="39.7077250" lon="-0.4295630">
        <ele>598.2</ele>
        <time>2022-11-06T07:40:21Z</time>
      </trkpt>
      <trkpt lat="39.7077250" lon="-0.4295630">
        <ele>598.2</ele>
        <time>2022-11-06T07:40:22Z</time>
      </trkpt>
      <trkpt lat="39.7077230" lon="-0.4295380">
        <ele>598.4</ele>
        <time>2022-11-06T07:40:23Z</time>
      </trkpt>
      <trkpt lat="39.7077150" lon="-0.4295170">
        <ele>598.7</ele>
        <time>2022-11-06T07:40:24Z</time>
      </trkpt>
      <trkpt lat="39.7077090" lon="-0.4294970">
        <ele>598.9</ele>
        <time>2022-11-06T07:40:25Z</time>
      </trkpt>
      <trkpt lat="39.7077090" lon="-0.4294800">
        <ele>599.0</ele>
        <time>2022-11-06T07:40:26Z</time>
      </trkpt>
      <trkpt lat="39.7077150" lon="-0.4294600">
        <ele>599.2</ele>
        <time>2022-11-06T07:40:27Z</time>
      </trkpt>
      <trkpt lat="39.7077170" lon="-0.4294380">
        <ele>599.5</ele>
        <time>2022-11-06T07:40:28Z</time>
      </trkpt>
      <trkpt lat="39.7077230" lon="-0.4294180">
        <ele>599.7</ele>
        <time>2022-11-06T07:40:29Z</time>
      </trkpt>
      <trkpt lat="39.7077230" lon="-0.4293980">
        <ele>599.9</ele>
        <time>2022-11-06T07:40:30Z</time>
      </trkpt>
      <trkpt lat="39.7077230" lon="-0.4293800">
        <ele>600.0</ele>
        <time>2022-11-06T07:40:31Z</time>
      </trkpt>
      <trkpt lat="39.7077230" lon="-0.4293800">
        <ele>600.0</ele>
        <time>2022-11-06T07:40:32Z</time>
      </trkpt>
      <trkpt lat="39.7077090" lon="-0.4293370">
        <ele>600.5</ele>
        <time>2022-11-06T07:40:33Z</time>
      </trkpt>
      <trkpt lat="39.7077090" lon="-0.4293180">
        <ele>600.7</ele>
        <time>2022-11-06T07:40:34Z</time>
      </trkpt>
      <trkpt lat="39.7077040" lon="-0.4293020">
        <ele>600.8</ele>
        <time>2022-11-06T07:40:35Z</time>
      </trkpt>
      <trkpt lat="39.7076960" lon="-0.4292850">
        <ele>601.0</ele>
        <time>2022-11-06T07:40:36Z</time>
      </trkpt>
      <trkpt lat="39.7076960" lon="-0.4292650">
        <ele>601.2</ele>
        <time>2022-11-06T07:40:37Z</time>
      </trkpt>
      <trkpt lat="39.7076900" lon="-0.4292450">
        <ele>601.5</ele>
        <time>2022-11-06T07:40:38Z</time>
      </trkpt>
      <trkpt lat="39.7076880" lon="-0.4292230">
        <ele>601.7</ele>
        <time>2022-11-06T07:40:39Z</time>
      </trkpt>
      <trkpt lat="39.7076880" lon="-0.4292030">
        <ele>601.9</ele>
        <time>2022-11-06T07:40:40Z</time>
      </trkpt>
      <trkpt lat="39.7076880" lon="-0.4292030">
        <ele>601.9</ele>
        <time>2022-11-06T07:40:41Z</time>
      </trkpt>
      <trkpt lat="39.7076990" lon="-0.4291480">
        <ele>602.4</ele>
        <time>2022-11-06T07:40:42Z</time>
      </trkpt>
      <trkpt lat="39.7076990" lon="-0.4291480">
        <ele>602.4</ele>
        <time>2022-11-06T07:40:43Z</time>
      </trkpt>
      <trkpt lat="39.7077040" lon="-0.4291300">
        <ele>602.6</ele>
        <time>2022-11-06T07:40:44Z</time>
      </trkpt>
      <trkpt lat="39.7077090" lon="-0.4291180">
        <ele>602.8</ele>
        <time>2022-11-06T07:40:45Z</time>
      </trkpt>
      <trkpt lat="39.7077230" lon="-0.4291050">
        <ele>603.0</ele>
        <time>2022-11-06T07:40:46Z</time>
      </trkpt>
      <trkpt lat="39.7077330" lon="-0.4290930">
        <ele>603.2</ele>
        <time>2022-11-06T07:40:47Z</time>
      </trkpt>
      <trkpt lat="39.7077440" lon="-0.4290780">
        <ele>603.4</ele>
        <time>2022-11-06T07:40:48Z</time>
      </trkpt>
      <trkpt lat="39.7077550" lon="-0.4290630">
        <ele>603.6</ele>
        <time>2022-11-06T07:40:49Z</time>
      </trkpt>
      <trkpt lat="39.7077630" lon="-0.4290500">
        <ele>603.7</ele>
        <time>2022-11-06T07:40:50Z</time>
      </trkpt>
      <trkpt lat="39.7077760" lon="-0.4290420">
        <ele>603.9</ele>
        <time>2022-11-06T07:40:51Z</time>
      </trkpt>
      <trkpt lat="39.7077760" lon="-0.4290420">
        <ele>603.9</ele>
        <time>2022-11-06T07:40:52Z</time>
      </trkpt>
      <trkpt lat="39.7077760" lon="-0.4290420">
        <ele>603.9</ele>
        <time>2022-11-06T07:40:53Z</time>
      </trkpt>
      <trkpt lat="39.7078140" lon="-0.4290220">
        <ele>604.4</ele>
        <time>2022-11-06T07:40:54Z</time>
      </trkpt>
      <trkpt lat="39.7078270" lon="-0.4290150">
        <ele>604.6</ele>
        <time>2022-11-06T07:40:55Z</time>
      </trkpt>
      <trkpt lat="39.7078410" lon="-0.4290080">
        <ele>604.8</ele>
        <time>2022-11-06T07:40:56Z</time>
      </trkpt>
      <trkpt lat="39.7078590" lon="-0.4290030">
        <ele>605.0</ele>
        <time>2022-11-06T07:40:57Z</time>
      </trkpt>
      <trkpt lat="39.7078760" lon="-0.4290000">
        <ele>605.2</ele>
        <time>2022-11-06T07:40:58Z</time>
      </trkpt>
      <trkpt lat="39.7078890" lon="-0.4290000">
        <ele>605.3</ele>
        <time>2022-11-06T07:40:59Z</time>
      </trkpt>
      <trkpt lat="39.7079050" lon="-0.4289980">
        <ele>605.5</ele>
        <time>2022-11-06T07:41:00Z</time>
      </trkpt>
      <trkpt lat="39.7079210" lon="-0.4289950">
        <ele>605.6</ele>
        <time>2022-11-06T07:41:01Z</time>
      </trkpt>
      <trkpt lat="39.7079210" lon="-0.4289950">
        <ele>605.6</ele>
        <time>2022-11-06T07:41:02Z</time>
      </trkpt>
      <trkpt lat="39.7079690" lon="-0.4289770">
        <ele>606.1</ele>
        <time>2022-11-06T07:41:03Z</time>
      </trkpt>
      <trkpt lat="39.7079690" lon="-0.4289770">
        <ele>606.1</ele>
        <time>2022-11-06T07:41:04Z</time>
      </trkpt>
      <trkpt lat="39.7079880" lon="-0.4289700">
        <ele>606.3</ele>
        <time>2022-11-06T07:41:05Z</time>
      </trkpt>
      <trkpt lat="39.7080040" lon="-0.4289620">
        <ele>606.4</ele>
        <time>2022-11-06T07:41:06Z</time>
      </trkpt>
      <trkpt lat="39.7080230" lon="-0.4289550">
        <ele>606.5</ele>
        <time>2022-11-06T07:41:07Z</time>
      </trkpt>
      <trkpt lat="39.7080390" lon="-0.4289470">
        <ele>606.6</ele>
        <time>2022-11-06T07:41:08Z</time>
      </trkpt>
      <trkpt lat="39.7080530" lon="-0.4289380">
        <ele>606.7</ele>
        <time>2022-11-06T07:41:09Z</time>
      </trkpt>
      <trkpt lat="39.7080690" lon="-0.4289280">
        <ele>606.9</ele>
        <time>2022-11-06T07:41:10Z</time>
      </trkpt>
      <trkpt lat="39.7080850" lon="-0.4289150">
        <ele>607.0</ele>
        <time>2022-11-06T07:41:11Z</time>
      </trkpt>
      <trkpt lat="39.7080950" lon="-0.4289020">
        <ele>607.1</ele>
        <time>2022-11-06T07:41:12Z</time>
      </trkpt>
      <trkpt lat="39.7081200" lon="-0.4288730">
        <ele>607.3</ele>
        <time>2022-11-06T07:41:13Z</time>
      </trkpt>
      <trkpt lat="39.7081200" lon="-0.4288730">
        <ele>607.3</ele>
        <time>2022-11-06T07:41:14Z</time>
      </trkpt>
      <trkpt lat="39.7081300" lon="-0.4288670">
        <ele>607.3</ele>
        <time>2022-11-06T07:41:15Z</time>
      </trkpt>
      <trkpt lat="39.7081490" lon="-0.4288620">
        <ele>607.4</ele>
        <time>2022-11-06T07:41:16Z</time>
      </trkpt>
      <trkpt lat="39.7081650" lon="-0.4288550">
        <ele>607.5</ele>
        <time>2022-11-06T07:41:17Z</time>
      </trkpt>
      <trkpt lat="39.7081710" lon="-0.4288350">
        <ele>607.9</ele>
        <time>2022-11-06T07:41:18Z</time>
      </trkpt>
      <trkpt lat="39.7081760" lon="-0.4288170">
        <ele>608.0</ele>
        <time>2022-11-06T07:41:19Z</time>
      </trkpt>
      <trkpt lat="39.7081760" lon="-0.4288020">
        <ele>608.1</ele>
        <time>2022-11-06T07:41:20Z</time>
      </trkpt>
      <trkpt lat="39.7081680" lon="-0.4287930">
        <ele>608.1</ele>
        <time>2022-11-06T07:41:21Z</time>
      </trkpt>
      <trkpt lat="39.7081600" lon="-0.4287880">
        <ele>608.2</ele>
        <time>2022-11-06T07:41:22Z</time>
      </trkpt>
      <trkpt lat="39.7081460" lon="-0.4287770">
        <ele>608.3</ele>
        <time>2022-11-06T07:41:23Z</time>
      </trkpt>
      <trkpt lat="39.7081380" lon="-0.4287720">
        <ele>608.4</ele>
        <time>2022-11-06T07:41:24Z</time>
      </trkpt>
      <trkpt lat="39.7081380" lon="-0.4287720">
        <ele>608.4</ele>
        <time>2022-11-06T07:41:25Z</time>
      </trkpt>
      <trkpt lat="39.7081300" lon="-0.4287680">
        <ele>608.4</ele>
        <time>2022-11-06T07:41:26Z</time>
      </trkpt>
      <trkpt lat="39.7081250" lon="-0.4287620">
        <ele>608.5</ele>
        <time>2022-11-06T07:41:27Z</time>
      </trkpt>
      <trkpt lat="39.7081200" lon="-0.4287570">
        <ele>608.5</ele>
        <time>2022-11-06T07:41:28Z</time>
      </trkpt>
      <trkpt lat="39.7081060" lon="-0.4287530">
        <ele>608.6</ele>
        <time>2022-11-06T07:41:29Z</time>
      </trkpt>
      <trkpt lat="39.7080980" lon="-0.4287530">
        <ele>608.6</ele>
        <time>2022-11-06T07:41:30Z</time>
      </trkpt>
      <trkpt lat="39.7080870" lon="-0.4287520">
        <ele>608.7</ele>
        <time>2022-11-06T07:41:31Z</time>
      </trkpt>
      <trkpt lat="39.7080770" lon="-0.4287470">
        <ele>608.8</ele>
        <time>2022-11-06T07:41:32Z</time>
      </trkpt>
      <trkpt lat="39.7080690" lon="-0.4287420">
        <ele>608.8</ele>
        <time>2022-11-06T07:41:33Z</time>
      </trkpt>
      <trkpt lat="39.7080470" lon="-0.4287370">
        <ele>609.0</ele>
        <time>2022-11-06T07:41:34Z</time>
      </trkpt>
      <trkpt lat="39.7080470" lon="-0.4287370">
        <ele>609.0</ele>
        <time>2022-11-06T07:41:35Z</time>
      </trkpt>
      <trkpt lat="39.7080340" lon="-0.4287300">
        <ele>609.1</ele>
        <time>2022-11-06T07:41:36Z</time>
      </trkpt>
      <trkpt lat="39.7080200" lon="-0.4287250">
        <ele>609.1</ele>
        <time>2022-11-06T07:41:37Z</time>
      </trkpt>
      <trkpt lat="39.7079990" lon="-0.4287230">
        <ele>609.3</ele>
        <time>2022-11-06T07:41:38Z</time>
      </trkpt>
      <trkpt lat="39.7079860" lon="-0.4287220">
        <ele>609.4</ele>
        <time>2022-11-06T07:41:39Z</time>
      </trkpt>
      <trkpt lat="39.7079750" lon="-0.4287150">
        <ele>609.4</ele>
        <time>2022-11-06T07:41:40Z</time>
      </trkpt>
      <trkpt lat="39.7079590" lon="-0.4287080">
        <ele>609.5</ele>
        <time>2022-11-06T07:41:41Z</time>
      </trkpt>
      <trkpt lat="39.7079430" lon="-0.4287030">
        <ele>609.6</ele>
        <time>2022-11-06T07:41:42Z</time>
      </trkpt>
      <trkpt lat="39.7079430" lon="-0.4287030">
        <ele>609.6</ele>
        <time>2022-11-06T07:41:43Z</time>
      </trkpt>
      <trkpt lat="39.7078940" lon="-0.4286900">
        <ele>609.9</ele>
        <time>2022-11-06T07:41:44Z</time>
      </trkpt>
      <trkpt lat="39.7078780" lon="-0.4286800">
        <ele>610.1</ele>
        <time>2022-11-06T07:41:45Z</time>
      </trkpt>
      <trkpt lat="39.7078780" lon="-0.4286800">
        <ele>610.1</ele>
        <time>2022-11-06T07:41:46Z</time>
      </trkpt>
      <trkpt lat="39.7078680" lon="-0.4286700">
        <ele>610.1</ele>
        <time>2022-11-06T07:41:47Z</time>
      </trkpt>
      <trkpt lat="39.7078510" lon="-0.4286650">
        <ele>610.2</ele>
        <time>2022-11-06T07:41:48Z</time>
      </trkpt>
      <trkpt lat="39.7078330" lon="-0.4286600">
        <ele>610.3</ele>
        <time>2022-11-06T07:41:49Z</time>
      </trkpt>
      <trkpt lat="39.7078170" lon="-0.4286520">
        <ele>610.4</ele>
        <time>2022-11-06T07:41:50Z</time>
      </trkpt>
      <trkpt lat="39.7078030" lon="-0.4286450">
        <ele>610.5</ele>
        <time>2022-11-06T07:41:51Z</time>
      </trkpt>
      <trkpt lat="39.7077820" lon="-0.4286400">
        <ele>610.7</ele>
        <time>2022-11-06T07:41:52Z</time>
      </trkpt>
      <trkpt lat="39.7077630" lon="-0.4286330">
        <ele>610.8</ele>
        <time>2022-11-06T07:41:53Z</time>
      </trkpt>
      <trkpt lat="39.7077250" lon="-0.4286180">
        <ele>611.0</ele>
        <time>2022-11-06T07:41:54Z</time>
      </trkpt>
      <trkpt lat="39.7077070" lon="-0.4286150">
        <ele>611.2</ele>
        <time>2022-11-06T07:41:55Z</time>
      </trkpt>
      <trkpt lat="39.7077070" lon="-0.4286150">
        <ele>611.2</ele>
        <time>2022-11-06T07:41:56Z</time>
      </trkpt>
      <trkpt lat="39.7076880" lon="-0.4286100">
        <ele>611.3</ele>
        <time>2022-11-06T07:41:57Z</time>
      </trkpt>
      <trkpt lat="39.7076720" lon="-0.4286050">
        <ele>611.4</ele>
        <time>2022-11-06T07:41:58Z</time>
      </trkpt>
      <trkpt lat="39.7076530" lon="-0.4286030">
        <ele>611.5</ele>
        <time>2022-11-06T07:41:59Z</time>
      </trkpt>
      <trkpt lat="39.7076340" lon="-0.4286020">
        <ele>611.6</ele>
        <time>2022-11-06T07:42:00Z</time>
      </trkpt>
      <trkpt lat="39.7076150" lon="-0.4285980">
        <ele>611.8</ele>
        <time>2022-11-06T07:42:01Z</time>
      </trkpt>
      <trkpt lat="39.7075970" lon="-0.4285970">
        <ele>611.9</ele>
        <time>2022-11-06T07:42:02Z</time>
      </trkpt>
      <trkpt lat="39.7075780" lon="-0.4285970">
        <ele>612.0</ele>
        <time>2022-11-06T07:42:03Z</time>
      </trkpt>
      <trkpt lat="39.7075430" lon="-0.4286030">
        <ele>612.3</ele>
        <time>2022-11-06T07:42:04Z</time>
      </trkpt>
      <trkpt lat="39.7075240" lon="-0.4286070">
        <ele>612.4</ele>
        <time>2022-11-06T07:42:05Z</time>
      </trkpt>
      <trkpt lat="39.7075080" lon="-0.4286120">
        <ele>612.6</ele>
        <time>2022-11-06T07:42:06Z</time>
      </trkpt>
      <trkpt lat="39.7075080" lon="-0.4286120">
        <ele>612.6</ele>
        <time>2022-11-06T07:42:07Z</time>
      </trkpt>
      <trkpt lat="39.7074920" lon="-0.4286170">
        <ele>612.7</ele>
        <time>2022-11-06T07:42:08Z</time>
      </trkpt>
      <trkpt lat="39.7074730" lon="-0.4286220">
        <ele>612.8</ele>
        <time>2022-11-06T07:42:09Z</time>
      </trkpt>
      <trkpt lat="39.7074600" lon="-0.4286300">
        <ele>613.0</ele>
        <time>2022-11-06T07:42:10Z</time>
      </trkpt>
      <trkpt lat="39.7074440" lon="-0.4286370">
        <ele>613.1</ele>
        <time>2022-11-06T07:42:11Z</time>
      </trkpt>
      <trkpt lat="39.7074280" lon="-0.4286430">
        <ele>613.2</ele>
        <time>2022-11-06T07:42:12Z</time>
      </trkpt>
      <trkpt lat="39.7074120" lon="-0.4286520">
        <ele>613.4</ele>
        <time>2022-11-06T07:42:13Z</time>
      </trkpt>
      <trkpt lat="39.7073980" lon="-0.4286600">
        <ele>613.5</ele>
        <time>2022-11-06T07:42:14Z</time>
      </trkpt>
      <trkpt lat="39.7073630" lon="-0.4286750">
        <ele>613.9</ele>
        <time>2022-11-06T07:42:15Z</time>
      </trkpt>
      <trkpt lat="39.7073440" lon="-0.4286830">
        <ele>614.1</ele>
        <time>2022-11-06T07:42:16Z</time>
      </trkpt>
      <trkpt lat="39.7073440" lon="-0.4286830">
        <ele>614.1</ele>
        <time>2022-11-06T07:42:17Z</time>
      </trkpt>
      <trkpt lat="39.7073260" lon="-0.4286930">
        <ele>614.4</ele>
        <time>2022-11-06T07:42:18Z</time>
      </trkpt>
      <trkpt lat="39.7073070" lon="-0.4287000">
        <ele>614.6</ele>
        <time>2022-11-06T07:42:19Z</time>
      </trkpt>
      <trkpt lat="39.7072880" lon="-0.4287070">
        <ele>614.9</ele>
        <time>2022-11-06T07:42:20Z</time>
      </trkpt>
      <trkpt lat="39.7072720" lon="-0.4287130">
        <ele>615.2</ele>
        <time>2022-11-06T07:42:21Z</time>
      </trkpt>
      <trkpt lat="39.7072560" lon="-0.4287150">
        <ele>615.4</ele>
        <time>2022-11-06T07:42:22Z</time>
      </trkpt>
      <trkpt lat="39.7072370" lon="-0.4287150">
        <ele>615.7</ele>
        <time>2022-11-06T07:42:23Z</time>
      </trkpt>
      <trkpt lat="39.7072370" lon="-0.4287150">
        <ele>615.7</ele>
        <time>2022-11-06T07:42:24Z</time>
      </trkpt>
      <trkpt lat="39.7072020" lon="-0.4286880">
        <ele>616.4</ele>
        <time>2022-11-06T07:42:25Z</time>
      </trkpt>
      <trkpt lat="39.7071940" lon="-0.4286720">
        <ele>616.7</ele>
        <time>2022-11-06T07:42:26Z</time>
      </trkpt>
      <trkpt lat="39.7072000" lon="-0.4286550">
        <ele>616.9</ele>
        <time>2022-11-06T07:42:27Z</time>
      </trkpt>
      <trkpt lat="39.7072000" lon="-0.4286550">
        <ele>616.9</ele>
        <time>2022-11-06T07:42:28Z</time>
      </trkpt>
      <trkpt lat="39.7072020" lon="-0.4286370">
        <ele>617.1</ele>
        <time>2022-11-06T07:42:29Z</time>
      </trkpt>
      <trkpt lat="39.7072080" lon="-0.4286200">
        <ele>617.4</ele>
        <time>2022-11-06T07:42:30Z</time>
      </trkpt>
      <trkpt lat="39.7072130" lon="-0.4286020">
        <ele>617.6</ele>
        <time>2022-11-06T07:42:31Z</time>
      </trkpt>
      <trkpt lat="39.7072180" lon="-0.4285830">
        <ele>617.9</ele>
        <time>2022-11-06T07:42:32Z</time>
      </trkpt>
      <trkpt lat="39.7072260" lon="-0.4285620">
        <ele>618.2</ele>
        <time>2022-11-06T07:42:33Z</time>
      </trkpt>
      <trkpt lat="39.7072350" lon="-0.4285450">
        <ele>618.5</ele>
        <time>2022-11-06T07:42:34Z</time>
      </trkpt>
      <trkpt lat="39.7072350" lon="-0.4285450">
        <ele>618.5</ele>
        <time>2022-11-06T07:42:35Z</time>
      </trkpt>
      <trkpt lat="39.7072560" lon="-0.4284880">
        <ele>619.2</ele>
        <time>2022-11-06T07:42:36Z</time>
      </trkpt>
      <trkpt lat="39.7072640" lon="-0.4284720">
        <ele>619.4</ele>
        <time>2022-11-06T07:42:37Z</time>
      </trkpt>
      <trkpt lat="39.7072640" lon="-0.4284720">
        <ele>619.4</ele>
        <time>2022-11-06T07:42:38Z</time>
      </trkpt>
      <trkpt lat="39.7072720" lon="-0.4284580">
        <ele>619.6</ele>
        <time>2022-11-06T07:42:39Z</time>
      </trkpt>
      <trkpt lat="39.7072830" lon="-0.4284430">
        <ele>619.9</ele>
        <time>2022-11-06T07:42:40Z</time>
      </trkpt>
      <trkpt lat="39.7072910" lon="-0.4284270">
        <ele>620.1</ele>
        <time>2022-11-06T07:42:41Z</time>
      </trkpt>
      <trkpt lat="39.7072990" lon="-0.4284080">
        <ele>620.3</ele>
        <time>2022-11-06T07:42:42Z</time>
      </trkpt>
      <trkpt lat="39.7073070" lon="-0.4283920">
        <ele>620.6</ele>
        <time>2022-11-06T07:42:43Z</time>
      </trkpt>
      <trkpt lat="39.7073120" lon="-0.4283770">
        <ele>620.7</ele>
        <time>2022-11-06T07:42:44Z</time>
      </trkpt>
      <trkpt lat="39.7073260" lon="-0.4283370">
        <ele>621.2</ele>
        <time>2022-11-06T07:42:45Z</time>
      </trkpt>
      <trkpt lat="39.7073280" lon="-0.4283200">
        <ele>621.4</ele>
        <time>2022-11-06T07:42:46Z</time>
      </trkpt>
      <trkpt lat="39.7073390" lon="-0.4283030">
        <ele>621.7</ele>
        <time>2022-11-06T07:42:47Z</time>
      </trkpt>
      <trkpt lat="39.7073470" lon="-0.4282870">
        <ele>621.9</ele>
        <time>2022-11-06T07:42:48Z</time>
      </trkpt>
      <trkpt lat="39.7073470" lon="-0.4282870">
        <ele>621.9</ele>
        <time>2022-11-06T07:42:49Z</time>
      </trkpt>
      <trkpt lat="39.7073550" lon="-0.4282700">
        <ele>622.1</ele>
        <time>2022-11-06T07:42:50Z</time>
      </trkpt>
      <trkpt lat="39.7073630" lon="-0.4282550">
        <ele>622.3</ele>
        <time>2022-11-06T07:42:51Z</time>
      </trkpt>
      <trkpt lat="39.7073790" lon="-0.4282400">
        <ele>622.6</ele>
        <time>2022-11-06T07:42:52Z</time>
      </trkpt>
      <trkpt lat="39.7073900" lon="-0.4282220">
        <ele>622.8</ele>
        <time>2022-11-06T07:42:53Z</time>
      </trkpt>
      <trkpt lat="39.7073980" lon="-0.4282020">
        <ele>623.1</ele>
        <time>2022-11-06T07:42:54Z</time>
      </trkpt>
      <trkpt lat="39.7074010" lon="-0.4281850">
        <ele>623.3</ele>
        <time>2022-11-06T07:42:55Z</time>
      </trkpt>
      <trkpt lat="39.7074200" lon="-0.4281480">
        <ele>623.8</ele>
        <time>2022-11-06T07:42:56Z</time>
      </trkpt>
      <trkpt lat="39.7074330" lon="-0.4281270">
        <ele>624.1</ele>
        <time>2022-11-06T07:42:57Z</time>
      </trkpt>
      <trkpt lat="39.7074360" lon="-0.4281080">
        <ele>624.3</ele>
        <time>2022-11-06T07:42:58Z</time>
      </trkpt>
      <trkpt lat="39.7074360" lon="-0.4281080">
        <ele>624.3</ele>
        <time>2022-11-06T07:42:59Z</time>
      </trkpt>
      <trkpt lat="39.7074440" lon="-0.4280880">
        <ele>624.6</ele>
        <time>2022-11-06T07:43:00Z</time>
      </trkpt>
      <trkpt lat="39.7074600" lon="-0.4280700">
        <ele>624.9</ele>
        <time>2022-11-06T07:43:01Z</time>
      </trkpt>
      <trkpt lat="39.7074650" lon="-0.4280520">
        <ele>625.1</ele>
        <time>2022-11-06T07:43:02Z</time>
      </trkpt>
      <trkpt lat="39.7074710" lon="-0.4280320">
        <ele>625.3</ele>
        <time>2022-11-06T07:43:03Z</time>
      </trkpt>
      <trkpt lat="39.7074730" lon="-0.4280100">
        <ele>625.6</ele>
        <time>2022-11-06T07:43:04Z</time>
      </trkpt>
      <trkpt lat="39.7074730" lon="-0.4280100">
        <ele>625.6</ele>
        <time>2022-11-06T07:43:05Z</time>
      </trkpt>
      <trkpt lat="39.7074840" lon="-0.4279530">
        <ele>626.2</ele>
        <time>2022-11-06T07:43:06Z</time>
      </trkpt>
      <trkpt lat="39.7074890" lon="-0.4279330">
        <ele>626.4</ele>
        <time>2022-11-06T07:43:07Z</time>
      </trkpt>
      <trkpt lat="39.7074970" lon="-0.4279170">
        <ele>626.6</ele>
        <time>2022-11-06T07:43:08Z</time>
      </trkpt>
      <trkpt lat="39.7075080" lon="-0.4279020">
        <ele>626.9</ele>
        <time>2022-11-06T07:43:09Z</time>
      </trkpt>
      <trkpt lat="39.7075080" lon="-0.4279020">
        <ele>626.9</ele>
        <time>2022-11-06T07:43:10Z</time>
      </trkpt>
      <trkpt lat="39.7075160" lon="-0.4278850">
        <ele>627.1</ele>
        <time>2022-11-06T07:43:11Z</time>
      </trkpt>
      <trkpt lat="39.7075190" lon="-0.4278670">
        <ele>627.2</ele>
        <time>2022-11-06T07:43:12Z</time>
      </trkpt>
      <trkpt lat="39.7075240" lon="-0.4278480">
        <ele>627.4</ele>
        <time>2022-11-06T07:43:13Z</time>
      </trkpt>
      <trkpt lat="39.7075240" lon="-0.4278280">
        <ele>627.6</ele>
        <time>2022-11-06T07:43:14Z</time>
      </trkpt>
      <trkpt lat="39.7075270" lon="-0.4278120">
        <ele>627.8</ele>
        <time>2022-11-06T07:43:15Z</time>
      </trkpt>
      <trkpt lat="39.7075270" lon="-0.4278120">
        <ele>627.8</ele>
        <time>2022-11-06T07:43:16Z</time>
      </trkpt>
      <trkpt lat="39.7075320" lon="-0.4277580">
        <ele>628.3</ele>
        <time>2022-11-06T07:43:17Z</time>
      </trkpt>
      <trkpt lat="39.7075350" lon="-0.4277420">
        <ele>628.5</ele>
        <time>2022-11-06T07:43:18Z</time>
      </trkpt>
      <trkpt lat="39.7075350" lon="-0.4277230">
        <ele>628.7</ele>
        <time>2022-11-06T07:43:19Z</time>
      </trkpt>
      <trkpt lat="39.7075350" lon="-0.4277230">
        <ele>628.7</ele>
        <time>2022-11-06T07:43:20Z</time>
      </trkpt>
      <trkpt lat="39.7075380" lon="-0.4277030">
        <ele>628.9</ele>
        <time>2022-11-06T07:43:21Z</time>
      </trkpt>
      <trkpt lat="39.7075380" lon="-0.4276870">
        <ele>629.0</ele>
        <time>2022-11-06T07:43:22Z</time>
      </trkpt>
      <trkpt lat="39.7075430" lon="-0.4276680">
        <ele>629.2</ele>
        <time>2022-11-06T07:43:23Z</time>
      </trkpt>
      <trkpt lat="39.7075430" lon="-0.4276480">
        <ele>629.4</ele>
        <time>2022-11-06T07:43:24Z</time>
      </trkpt>
      <trkpt lat="39.7075460" lon="-0.4276300">
        <ele>629.6</ele>
        <time>2022-11-06T07:43:25Z</time>
      </trkpt>
      <trkpt lat="39.7075460" lon="-0.4275920">
        <ele>630.0</ele>
        <time>2022-11-06T07:43:26Z</time>
      </trkpt>
      <trkpt lat="39.7075430" lon="-0.4275730">
        <ele>630.2</ele>
        <time>2022-11-06T07:43:27Z</time>
      </trkpt>
      <trkpt lat="39.7075430" lon="-0.4275550">
        <ele>630.4</ele>
        <time>2022-11-06T07:43:28Z</time>
      </trkpt>
      <trkpt lat="39.7075460" lon="-0.4275320">
        <ele>630.7</ele>
        <time>2022-11-06T07:43:29Z</time>
      </trkpt>
      <trkpt lat="39.7075460" lon="-0.4275130">
        <ele>630.9</ele>
        <time>2022-11-06T07:43:30Z</time>
      </trkpt>
      <trkpt lat="39.7075460" lon="-0.4275130">
        <ele>630.9</ele>
        <time>2022-11-06T07:43:31Z</time>
      </trkpt>
      <trkpt lat="39.7075460" lon="-0.4274930">
        <ele>631.1</ele>
        <time>2022-11-06T07:43:32Z</time>
      </trkpt>
      <trkpt lat="39.7075460" lon="-0.4274750">
        <ele>631.3</ele>
        <time>2022-11-06T07:43:33Z</time>
      </trkpt>
      <trkpt lat="39.7075460" lon="-0.4274550">
        <ele>631.5</ele>
        <time>2022-11-06T07:43:34Z</time>
      </trkpt>
      <trkpt lat="39.7075460" lon="-0.4274370">
        <ele>631.7</ele>
        <time>2022-11-06T07:43:35Z</time>
      </trkpt>
      <trkpt lat="39.7075380" lon="-0.4274180">
        <ele>632.0</ele>
        <time>2022-11-06T07:43:36Z</time>
      </trkpt>
      <trkpt lat="39.7075350" lon="-0.4273850">
        <ele>632.4</ele>
        <time>2022-11-06T07:43:37Z</time>
      </trkpt>
      <trkpt lat="39.7075320" lon="-0.4273620">
        <ele>632.6</ele>
        <time>2022-11-06T07:43:38Z</time>
      </trkpt>
      <trkpt lat="39.7075320" lon="-0.4273430">
        <ele>632.9</ele>
        <time>2022-11-06T07:43:39Z</time>
      </trkpt>
      <trkpt lat="39.7075320" lon="-0.4273230">
        <ele>633.1</ele>
        <time>2022-11-06T07:43:40Z</time>
      </trkpt>
      <trkpt lat="39.7075320" lon="-0.4273230">
        <ele>633.1</ele>
        <time>2022-11-06T07:43:41Z</time>
      </trkpt>
      <trkpt lat="39.7075320" lon="-0.4273000">
        <ele>633.4</ele>
        <time>2022-11-06T07:43:42Z</time>
      </trkpt>
      <trkpt lat="39.7075240" lon="-0.4272800">
        <ele>633.7</ele>
        <time>2022-11-06T07:43:43Z</time>
      </trkpt>
      <trkpt lat="39.7075160" lon="-0.4272670">
        <ele>633.9</ele>
        <time>2022-11-06T07:43:44Z</time>
      </trkpt>
      <trkpt lat="39.7075050" lon="-0.4272550">
        <ele>634.2</ele>
        <time>2022-11-06T07:43:45Z</time>
      </trkpt>
      <trkpt lat="39.7074890" lon="-0.4272480">
        <ele>634.4</ele>
        <time>2022-11-06T07:43:46Z</time>
      </trkpt>
      <trkpt lat="39.7074710" lon="-0.4272580">
        <ele>634.8</ele>
        <time>2022-11-06T07:43:47Z</time>
      </trkpt>
      <trkpt lat="39.7074600" lon="-0.4272680">
        <ele>635.0</ele>
        <time>2022-11-06T07:43:48Z</time>
      </trkpt>
      <trkpt lat="39.7074520" lon="-0.4272830">
        <ele>635.2</ele>
        <time>2022-11-06T07:43:49Z</time>
      </trkpt>
      <trkpt lat="39.7074440" lon="-0.4273000">
        <ele>635.5</ele>
        <time>2022-11-06T07:43:50Z</time>
      </trkpt>
      <trkpt lat="39.7074330" lon="-0.4273150">
        <ele>635.7</ele>
        <time>2022-11-06T07:43:51Z</time>
      </trkpt>
      <trkpt lat="39.7074330" lon="-0.4273150">
        <ele>635.7</ele>
        <time>2022-11-06T07:43:52Z</time>
      </trkpt>
      <trkpt lat="39.7074250" lon="-0.4273280">
        <ele>635.9</ele>
        <time>2022-11-06T07:43:53Z</time>
      </trkpt>
      <trkpt lat="39.7074120" lon="-0.4273400">
        <ele>636.2</ele>
        <time>2022-11-06T07:43:54Z</time>
      </trkpt>
      <trkpt lat="39.7074060" lon="-0.4273530">
        <ele>636.4</ele>
        <time>2022-11-06T07:43:55Z</time>
      </trkpt>
      <trkpt lat="39.7073930" lon="-0.4273700">
        <ele>636.6</ele>
        <time>2022-11-06T07:43:56Z</time>
      </trkpt>
      <trkpt lat="39.7073850" lon="-0.4273870">
        <ele>636.9</ele>
        <time>2022-11-06T07:43:57Z</time>
      </trkpt>
      <trkpt lat="39.7073610" lon="-0.4274130">
        <ele>637.3</ele>
        <time>2022-11-06T07:43:58Z</time>
      </trkpt>
      <trkpt lat="39.7073440" lon="-0.4274300">
        <ele>637.6</ele>
        <time>2022-11-06T07:43:59Z</time>
      </trkpt>
      <trkpt lat="39.7073280" lon="-0.4274450">
        <ele>637.9</ele>
        <time>2022-11-06T07:44:00Z</time>
      </trkpt>
      <trkpt lat="39.7073200" lon="-0.4274620">
        <ele>638.1</ele>
        <time>2022-11-06T07:44:01Z</time>
      </trkpt>
      <trkpt lat="39.7073200" lon="-0.4274620">
        <ele>638.1</ele>
        <time>2022-11-06T07:44:02Z</time>
      </trkpt>
      <trkpt lat="39.7073100" lon="-0.4274730">
        <ele>638.3</ele>
        <time>2022-11-06T07:44:03Z</time>
      </trkpt>
      <trkpt lat="39.7072990" lon="-0.4274850">
        <ele>638.5</ele>
        <time>2022-11-06T07:44:04Z</time>
      </trkpt>
      <trkpt lat="39.7072880" lon="-0.4275020">
        <ele>638.7</ele>
        <time>2022-11-06T07:44:05Z</time>
      </trkpt>
      <trkpt lat="39.7072750" lon="-0.4275180">
        <ele>639.0</ele>
        <time>2022-11-06T07:44:06Z</time>
      </trkpt>
      <trkpt lat="39.7072750" lon="-0.4275180">
        <ele>639.0</ele>
        <time>2022-11-06T07:44:07Z</time>
      </trkpt>
      <trkpt lat="39.7072450" lon="-0.4275580">
        <ele>639.6</ele>
        <time>2022-11-06T07:44:08Z</time>
      </trkpt>
      <trkpt lat="39.7072350" lon="-0.4275680">
        <ele>639.8</ele>
        <time>2022-11-06T07:44:09Z</time>
      </trkpt>
      <trkpt lat="39.7072180" lon="-0.4275800">
        <ele>640.1</ele>
        <time>2022-11-06T07:44:10Z</time>
      </trkpt>
      <trkpt lat="39.7072080" lon="-0.4275880">
        <ele>640.2</ele>
        <time>2022-11-06T07:44:11Z</time>
      </trkpt>
      <trkpt lat="39.7071920" lon="-0.4275980">
        <ele>640.5</ele>
        <time>2022-11-06T07:44:12Z</time>
      </trkpt>
      <trkpt lat="39.7071920" lon="-0.4275980">
        <ele>640.5</ele>
        <time>2022-11-06T07:44:13Z</time>
      </trkpt>
      <trkpt lat="39.7071810" lon="-0.4276070">
        <ele>640.7</ele>
        <time>2022-11-06T07:44:14Z</time>
      </trkpt>
      <trkpt lat="39.7071670" lon="-0.4276180">
        <ele>641.0</ele>
        <time>2022-11-06T07:44:15Z</time>
      </trkpt>
      <trkpt lat="39.7071570" lon="-0.4276250">
        <ele>641.1</ele>
        <time>2022-11-06T07:44:16Z</time>
      </trkpt>
      <trkpt lat="39.7071410" lon="-0.4276350">
        <ele>641.4</ele>
        <time>2022-11-06T07:44:17Z</time>
      </trkpt>
      <trkpt lat="39.7071410" lon="-0.4276350">
        <ele>641.4</ele>
        <time>2022-11-06T07:44:18Z</time>
      </trkpt>
      <trkpt lat="39.7071080" lon="-0.4276720">
        <ele>642.1</ele>
        <time>2022-11-06T07:44:19Z</time>
      </trkpt>
      <trkpt lat="39.7070950" lon="-0.4276830">
        <ele>642.4</ele>
        <time>2022-11-06T07:44:20Z</time>
      </trkpt>
      <trkpt lat="39.7070820" lon="-0.4276950">
        <ele>642.7</ele>
        <time>2022-11-06T07:44:21Z</time>
      </trkpt>
      <trkpt lat="39.7070680" lon="-0.4277050">
        <ele>643.0</ele>
        <time>2022-11-06T07:44:22Z</time>
      </trkpt>
      <trkpt lat="39.7070680" lon="-0.4277050">
        <ele>643.0</ele>
        <time>2022-11-06T07:44:23Z</time>
      </trkpt>
      <trkpt lat="39.7070570" lon="-0.4277170">
        <ele>643.2</ele>
        <time>2022-11-06T07:44:24Z</time>
      </trkpt>
      <trkpt lat="39.7070470" lon="-0.4277250">
        <ele>643.4</ele>
        <time>2022-11-06T07:44:25Z</time>
      </trkpt>
      <trkpt lat="39.7070360" lon="-0.4277380">
        <ele>643.7</ele>
        <time>2022-11-06T07:44:26Z</time>
      </trkpt>
      <trkpt lat="39.7070230" lon="-0.4277480">
        <ele>643.9</ele>
        <time>2022-11-06T07:44:27Z</time>
      </trkpt>
      <trkpt lat="39.7070040" lon="-0.4277650">
        <ele>644.4</ele>
        <time>2022-11-06T07:44:28Z</time>
      </trkpt>
      <trkpt lat="39.7069930" lon="-0.4277720">
        <ele>644.6</ele>
        <time>2022-11-06T07:44:29Z</time>
      </trkpt>
      <trkpt lat="39.7069770" lon="-0.4277720">
        <ele>644.9</ele>
        <time>2022-11-06T07:44:30Z</time>
      </trkpt>
      <trkpt lat="39.7069660" lon="-0.4277720">
        <ele>645.1</ele>
        <time>2022-11-06T07:44:31Z</time>
      </trkpt>
      <trkpt lat="39.7069560" lon="-0.4277720">
        <ele>645.3</ele>
        <time>2022-11-06T07:44:32Z</time>
      </trkpt>
      <trkpt lat="39.7069450" lon="-0.4277720">
        <ele>645.5</ele>
        <time>2022-11-06T07:44:33Z</time>
      </trkpt>
      <trkpt lat="39.7069450" lon="-0.4277720">
        <ele>645.5</ele>
        <time>2022-11-06T07:44:34Z</time>
      </trkpt>
      <trkpt lat="39.7069310" lon="-0.4277770">
        <ele>645.8</ele>
        <time>2022-11-06T07:44:35Z</time>
      </trkpt>
      <trkpt lat="39.7069230" lon="-0.4277870">
        <ele>646.0</ele>
        <time>2022-11-06T07:44:36Z</time>
      </trkpt>
      <trkpt lat="39.7069180" lon="-0.4277970">
        <ele>646.2</ele>
        <time>2022-11-06T07:44:37Z</time>
      </trkpt>
      <trkpt lat="39.7069050" lon="-0.4278070">
        <ele>646.5</ele>
        <time>2022-11-06T07:44:38Z</time>
      </trkpt>
      <trkpt lat="39.7068830" lon="-0.4278200">
        <ele>647.0</ele>
        <time>2022-11-06T07:44:39Z</time>
      </trkpt>
      <trkpt lat="39.7068700" lon="-0.4278270">
        <ele>647.3</ele>
        <time>2022-11-06T07:44:40Z</time>
      </trkpt>
      <trkpt lat="39.7068590" lon="-0.4278270">
        <ele>647.5</ele>
        <time>2022-11-06T07:44:41Z</time>
      </trkpt>
      <trkpt lat="39.7068560" lon="-0.4278270">
        <ele>647.5</ele>
        <time>2022-11-06T07:44:42Z</time>
      </trkpt>
      <trkpt lat="39.7067920" lon="-0.4278280">
        <ele>648.8</ele>
        <time>2022-11-06T07:45:10Z</time>
      </trkpt>
      <trkpt lat="39.7067840" lon="-0.4278300">
        <ele>649.0</ele>
        <time>2022-11-06T07:45:11Z</time>
      </trkpt>
      <trkpt lat="39.7067200" lon="-0.4278570">
        <ele>650.4</ele>
        <time>2022-11-06T07:45:34Z</time>
      </trkpt>
      <trkpt lat="39.7067110" lon="-0.4278680">
        <ele>650.6</ele>
        <time>2022-11-06T07:45:35Z</time>
      </trkpt>
      <trkpt lat="39.7066980" lon="-0.4278800">
        <ele>651.0</ele>
        <time>2022-11-06T07:45:36Z</time>
      </trkpt>
      <trkpt lat="39.7066980" lon="-0.4278800">
        <ele>651.0</ele>
        <time>2022-11-06T07:45:37Z</time>
      </trkpt>
      <trkpt lat="39.7066930" lon="-0.4278820">
        <ele>651.1</ele>
        <time>2022-11-06T07:45:38Z</time>
      </trkpt>
      <trkpt lat="39.7066930" lon="-0.4278830">
        <ele>651.1</ele>
        <time>2022-11-06T07:45:39Z</time>
      </trkpt>
      <trkpt lat="39.7066740" lon="-0.4278730">
        <ele>651.5</ele>
        <time>2022-11-06T07:45:41Z</time>
      </trkpt>
      <trkpt lat="39.7066660" lon="-0.4278720">
        <ele>651.6</ele>
        <time>2022-11-06T07:45:42Z</time>
      </trkpt>
      <trkpt lat="39.7066660" lon="-0.4278720">
        <ele>651.6</ele>
        <time>2022-11-06T07:45:43Z</time>
      </trkpt>
      <trkpt lat="39.7066070" lon="-0.4278730">
        <ele>652.7</ele>
        <time>2022-11-06T07:46:00Z</time>
      </trkpt>
      <trkpt lat="39.7065880" lon="-0.4278800">
        <ele>653.1</ele>
        <time>2022-11-06T07:46:01Z</time>
      </trkpt>
      <trkpt lat="39.7065750" lon="-0.4278780">
        <ele>653.3</ele>
        <time>2022-11-06T07:46:02Z</time>
      </trkpt>
      <trkpt lat="39.7065530" lon="-0.4278770">
        <ele>653.7</ele>
        <time>2022-11-06T07:46:03Z</time>
      </trkpt>
      <trkpt lat="39.7065400" lon="-0.4278770">
        <ele>653.9</ele>
        <time>2022-11-06T07:46:04Z</time>
      </trkpt>
      <trkpt lat="39.7065260" lon="-0.4278780">
        <ele>654.1</ele>
        <time>2022-11-06T07:46:05Z</time>
      </trkpt>
      <trkpt lat="39.7065130" lon="-0.4278820">
        <ele>654.4</ele>
        <time>2022-11-06T07:46:06Z</time>
      </trkpt>
      <trkpt lat="39.7065020" lon="-0.4278870">
        <ele>654.6</ele>
        <time>2022-11-06T07:46:07Z</time>
      </trkpt>
      <trkpt lat="39.7065020" lon="-0.4278870">
        <ele>654.6</ele>
        <time>2022-11-06T07:46:08Z</time>
      </trkpt>
      <trkpt lat="39.7064860" lon="-0.4278880">
        <ele>654.8</ele>
        <time>2022-11-06T07:46:09Z</time>
      </trkpt>
      <trkpt lat="39.7064750" lon="-0.4278920">
        <ele>655.0</ele>
        <time>2022-11-06T07:46:10Z</time>
      </trkpt>
      <trkpt lat="39.7064490" lon="-0.4278930">
        <ele>655.4</ele>
        <time>2022-11-06T07:46:11Z</time>
      </trkpt>
      <trkpt lat="39.7064300" lon="-0.4278900">
        <ele>655.7</ele>
        <time>2022-11-06T07:46:12Z</time>
      </trkpt>
      <trkpt lat="39.7064140" lon="-0.4278880">
        <ele>656.0</ele>
        <time>2022-11-06T07:46:13Z</time>
      </trkpt>
      <trkpt lat="39.7064030" lon="-0.4278880">
        <ele>656.1</ele>
        <time>2022-11-06T07:46:14Z</time>
      </trkpt>
      <trkpt lat="39.7063870" lon="-0.4278880">
        <ele>656.4</ele>
        <time>2022-11-06T07:46:15Z</time>
      </trkpt>
      <trkpt lat="39.7063760" lon="-0.4278930">
        <ele>656.6</ele>
        <time>2022-11-06T07:46:16Z</time>
      </trkpt>
      <trkpt lat="39.7063600" lon="-0.4279020">
        <ele>656.8</ele>
        <time>2022-11-06T07:46:17Z</time>
      </trkpt>
      <trkpt lat="39.7063490" lon="-0.4279120">
        <ele>657.0</ele>
        <time>2022-11-06T07:46:18Z</time>
      </trkpt>
      <trkpt lat="39.7063490" lon="-0.4279120">
        <ele>657.0</ele>
        <time>2022-11-06T07:46:19Z</time>
      </trkpt>
      <trkpt lat="39.7063360" lon="-0.4279230">
        <ele>657.3</ele>
        <time>2022-11-06T07:46:20Z</time>
      </trkpt>
      <trkpt lat="39.7063360" lon="-0.4279230">
        <ele>657.3</ele>
        <time>2022-11-06T07:46:21Z</time>
      </trkpt>
      <trkpt lat="39.7063040" lon="-0.4279430">
        <ele>657.8</ele>
        <time>2022-11-06T07:46:22Z</time>
      </trkpt>
      <trkpt lat="39.7062900" lon="-0.4279420">
        <ele>658.0</ele>
        <time>2022-11-06T07:46:23Z</time>
      </trkpt>
      <trkpt lat="39.7062770" lon="-0.4279400">
        <ele>658.2</ele>
        <time>2022-11-06T07:46:24Z</time>
      </trkpt>
      <trkpt lat="39.7062690" lon="-0.4279320">
        <ele>658.3</ele>
        <time>2022-11-06T07:46:25Z</time>
      </trkpt>
      <trkpt lat="39.7062580" lon="-0.4279200">
        <ele>658.5</ele>
        <time>2022-11-06T07:46:26Z</time>
      </trkpt>
      <trkpt lat="39.7062450" lon="-0.4279100">
        <ele>658.7</ele>
        <time>2022-11-06T07:46:27Z</time>
      </trkpt>
      <trkpt lat="39.7062420" lon="-0.4278980">
        <ele>658.9</ele>
        <time>2022-11-06T07:46:28Z</time>
      </trkpt>
      <trkpt lat="39.7062420" lon="-0.4278980">
        <ele>658.9</ele>
        <time>2022-11-06T07:46:29Z</time>
      </trkpt>
      <trkpt lat="39.7062370" lon="-0.4278820">
        <ele>659.0</ele>
        <time>2022-11-06T07:46:30Z</time>
      </trkpt>
      <trkpt lat="39.7062370" lon="-0.4278820">
        <ele>659.0</ele>
        <time>2022-11-06T07:46:31Z</time>
      </trkpt>
      <trkpt lat="39.7062370" lon="-0.4278380">
        <ele>659.5</ele>
        <time>2022-11-06T07:46:32Z</time>
      </trkpt>
      <trkpt lat="39.7062500" lon="-0.4278250">
        <ele>659.7</ele>
        <time>2022-11-06T07:46:33Z</time>
      </trkpt>
      <trkpt lat="39.7062610" lon="-0.4278170">
        <ele>659.8</ele>
        <time>2022-11-06T07:46:34Z</time>
      </trkpt>
      <trkpt lat="39.7062720" lon="-0.4278120">
        <ele>660.0</ele>
        <time>2022-11-06T07:46:35Z</time>
      </trkpt>
      <trkpt lat="39.7062880" lon="-0.4278070">
        <ele>660.2</ele>
        <time>2022-11-06T07:46:36Z</time>
      </trkpt>
      <trkpt lat="39.7062960" lon="-0.4277970">
        <ele>660.3</ele>
        <time>2022-11-06T07:46:37Z</time>
      </trkpt>
      <trkpt lat="39.7063090" lon="-0.4277900">
        <ele>660.5</ele>
        <time>2022-11-06T07:46:38Z</time>
      </trkpt>
      <trkpt lat="39.7063230" lon="-0.4277800">
        <ele>660.6</ele>
        <time>2022-11-06T07:46:39Z</time>
      </trkpt>
      <trkpt lat="39.7063230" lon="-0.4277800">
        <ele>660.6</ele>
        <time>2022-11-06T07:46:40Z</time>
      </trkpt>
      <trkpt lat="39.7063330" lon="-0.4277700">
        <ele>660.8</ele>
        <time>2022-11-06T07:46:41Z</time>
      </trkpt>
      <trkpt lat="39.7063550" lon="-0.4277450">
        <ele>661.1</ele>
        <time>2022-11-06T07:46:42Z</time>
      </trkpt>
      <trkpt lat="39.7063680" lon="-0.4277320">
        <ele>661.3</ele>
        <time>2022-11-06T07:46:43Z</time>
      </trkpt>
      <trkpt lat="39.7063760" lon="-0.4277170">
        <ele>661.4</ele>
        <time>2022-11-06T07:46:44Z</time>
      </trkpt>
      <trkpt lat="39.7063870" lon="-0.4277020">
        <ele>661.6</ele>
        <time>2022-11-06T07:46:45Z</time>
      </trkpt>
      <trkpt lat="39.7063980" lon="-0.4276870">
        <ele>661.7</ele>
        <time>2022-11-06T07:46:46Z</time>
      </trkpt>
      <trkpt lat="39.7064060" lon="-0.4276720">
        <ele>661.8</ele>
        <time>2022-11-06T07:46:47Z</time>
      </trkpt>
      <trkpt lat="39.7064140" lon="-0.4276570">
        <ele>662.0</ele>
        <time>2022-11-06T07:46:48Z</time>
      </trkpt>
      <trkpt lat="39.7064160" lon="-0.4276400">
        <ele>662.1</ele>
        <time>2022-11-06T07:46:49Z</time>
      </trkpt>
      <trkpt lat="39.7064160" lon="-0.4276400">
        <ele>662.1</ele>
        <time>2022-11-06T07:46:50Z</time>
      </trkpt>
      <trkpt lat="39.7064240" lon="-0.4276230">
        <ele>662.2</ele>
        <time>2022-11-06T07:46:51Z</time>
      </trkpt>
      <trkpt lat="39.7064410" lon="-0.4275970">
        <ele>662.4</ele>
        <time>2022-11-06T07:46:52Z</time>
      </trkpt>
      <trkpt lat="39.7064430" lon="-0.4275780">
        <ele>662.6</ele>
        <time>2022-11-06T07:46:53Z</time>
      </trkpt>
      <trkpt lat="39.7064490" lon="-0.4275620">
        <ele>662.7</ele>
        <time>2022-11-06T07:46:54Z</time>
      </trkpt>
      <trkpt lat="39.7064540" lon="-0.4275450">
        <ele>662.8</ele>
        <time>2022-11-06T07:46:55Z</time>
      </trkpt>
      <trkpt lat="39.7064620" lon="-0.4275300">
        <ele>662.9</ele>
        <time>2022-11-06T07:46:56Z</time>
      </trkpt>
      <trkpt lat="39.7064670" lon="-0.4275130">
        <ele>662.9</ele>
        <time>2022-11-06T07:46:57Z</time>
      </trkpt>
      <trkpt lat="39.7064750" lon="-0.4274980">
        <ele>663.0</ele>
        <time>2022-11-06T07:46:58Z</time>
      </trkpt>
      <trkpt lat="39.7064810" lon="-0.4274800">
        <ele>663.1</ele>
        <time>2022-11-06T07:46:59Z</time>
      </trkpt>
      <trkpt lat="39.7064890" lon="-0.4274620">
        <ele>663.3</ele>
        <time>2022-11-06T07:47:00Z</time>
      </trkpt>
      <trkpt lat="39.7064890" lon="-0.4274620">
        <ele>663.3</ele>
        <time>2022-11-06T07:47:01Z</time>
      </trkpt>
      <trkpt lat="39.7064940" lon="-0.4274450">
        <ele>663.3</ele>
        <time>2022-11-06T07:47:02Z</time>
      </trkpt>
      <trkpt lat="39.7065020" lon="-0.4274100">
        <ele>663.5</ele>
        <time>2022-11-06T07:47:03Z</time>
      </trkpt>
      <trkpt lat="39.7065050" lon="-0.4273920">
        <ele>663.6</ele>
        <time>2022-11-06T07:47:04Z</time>
      </trkpt>
      <trkpt lat="39.7065130" lon="-0.4273720">
        <ele>663.8</ele>
        <time>2022-11-06T07:47:05Z</time>
      </trkpt>
      <trkpt lat="39.7065160" lon="-0.4273550">
        <ele>663.9</ele>
        <time>2022-11-06T07:47:06Z</time>
      </trkpt>
      <trkpt lat="39.7065210" lon="-0.4273370">
        <ele>664.0</ele>
        <time>2022-11-06T07:47:07Z</time>
      </trkpt>
      <trkpt lat="39.7065240" lon="-0.4273170">
        <ele>664.1</ele>
        <time>2022-11-06T07:47:08Z</time>
      </trkpt>
      <trkpt lat="39.7065320" lon="-0.4272970">
        <ele>664.3</ele>
        <time>2022-11-06T07:47:09Z</time>
      </trkpt>
      <trkpt lat="39.7065340" lon="-0.4272780">
        <ele>664.4</ele>
        <time>2022-11-06T07:47:10Z</time>
      </trkpt>
      <trkpt lat="39.7065340" lon="-0.4272780">
        <ele>664.4</ele>
        <time>2022-11-06T07:47:11Z</time>
      </trkpt>
      <trkpt lat="39.7065340" lon="-0.4272780">
        <ele>664.4</ele>
        <time>2022-11-06T07:47:12Z</time>
      </trkpt>
      <trkpt lat="39.7065480" lon="-0.4272200">
        <ele>664.8</ele>
        <time>2022-11-06T07:47:13Z</time>
      </trkpt>
      <trkpt lat="39.7065480" lon="-0.4272000">
        <ele>665.0</ele>
        <time>2022-11-06T07:47:14Z</time>
      </trkpt>
      <trkpt lat="39.7065510" lon="-0.4271820">
        <ele>665.1</ele>
        <time>2022-11-06T07:47:15Z</time>
      </trkpt>
      <trkpt lat="39.7065530" lon="-0.4271630">
        <ele>665.3</ele>
        <time>2022-11-06T07:47:16Z</time>
      </trkpt>
      <trkpt lat="39.7065590" lon="-0.4271430">
        <ele>665.5</ele>
        <time>2022-11-06T07:47:17Z</time>
      </trkpt>
      <trkpt lat="39.7065590" lon="-0.4271220">
        <ele>665.6</ele>
        <time>2022-11-06T07:47:18Z</time>
      </trkpt>
      <trkpt lat="39.7065610" lon="-0.4271020">
        <ele>665.8</ele>
        <time>2022-11-06T07:47:19Z</time>
      </trkpt>
      <trkpt lat="39.7065610" lon="-0.4270830">
        <ele>666.0</ele>
        <time>2022-11-06T07:47:20Z</time>
      </trkpt>
      <trkpt lat="39.7065610" lon="-0.4270620">
        <ele>666.1</ele>
        <time>2022-11-06T07:47:21Z</time>
      </trkpt>
      <trkpt lat="39.7065610" lon="-0.4270620">
        <ele>666.1</ele>
        <time>2022-11-06T07:47:22Z</time>
      </trkpt>
      <trkpt lat="39.7065610" lon="-0.4270620">
        <ele>666.1</ele>
        <time>2022-11-06T07:47:23Z</time>
      </trkpt>
      <trkpt lat="39.7065530" lon="-0.4270080">
        <ele>666.6</ele>
        <time>2022-11-06T07:47:24Z</time>
      </trkpt>
      <trkpt lat="39.7065510" lon="-0.4269900">
        <ele>666.8</ele>
        <time>2022-11-06T07:47:25Z</time>
      </trkpt>
      <trkpt lat="39.7065480" lon="-0.4269700">
        <ele>667.0</ele>
        <time>2022-11-06T07:47:26Z</time>
      </trkpt>
      <trkpt lat="39.7065420" lon="-0.4269500">
        <ele>667.2</ele>
        <time>2022-11-06T07:47:27Z</time>
      </trkpt>
      <trkpt lat="39.7065420" lon="-0.4269320">
        <ele>667.4</ele>
        <time>2022-11-06T07:47:28Z</time>
      </trkpt>
      <trkpt lat="39.7065400" lon="-0.4269120">
        <ele>667.6</ele>
        <time>2022-11-06T07:47:29Z</time>
      </trkpt>
      <trkpt lat="39.7065420" lon="-0.4268900">
        <ele>667.8</ele>
        <time>2022-11-06T07:47:30Z</time>
      </trkpt>
      <trkpt lat="39.7065400" lon="-0.4268650">
        <ele>668.0</ele>
        <time>2022-11-06T07:47:31Z</time>
      </trkpt>
      <trkpt lat="39.7065400" lon="-0.4268650">
        <ele>668.0</ele>
        <time>2022-11-06T07:47:32Z</time>
      </trkpt>
      <trkpt lat="39.7065340" lon="-0.4268250">
        <ele>668.4</ele>
        <time>2022-11-06T07:47:33Z</time>
      </trkpt>
      <trkpt lat="39.7065320" lon="-0.4268050">
        <ele>668.6</ele>
        <time>2022-11-06T07:47:34Z</time>
      </trkpt>
      <trkpt lat="39.7065240" lon="-0.4267870">
        <ele>668.8</ele>
        <time>2022-11-06T07:47:35Z</time>
      </trkpt>
      <trkpt lat="39.7065210" lon="-0.4267670">
        <ele>668.9</ele>
        <time>2022-11-06T07:47:36Z</time>
      </trkpt>
      <trkpt lat="39.7065160" lon="-0.4267470">
        <ele>669.1</ele>
        <time>2022-11-06T07:47:37Z</time>
      </trkpt>
      <trkpt lat="39.7065080" lon="-0.4267280">
        <ele>669.3</ele>
        <time>2022-11-06T07:47:38Z</time>
      </trkpt>
      <trkpt lat="39.7065020" lon="-0.4267120">
        <ele>669.5</ele>
        <time>2022-11-06T07:47:39Z</time>
      </trkpt>
      <trkpt lat="39.7064970" lon="-0.4266920">
        <ele>669.7</ele>
        <time>2022-11-06T07:47:40Z</time>
      </trkpt>
      <trkpt lat="39.7064940" lon="-0.4266750">
        <ele>669.8</ele>
        <time>2022-11-06T07:47:41Z</time>
      </trkpt>
      <trkpt lat="39.7064860" lon="-0.4266550">
        <ele>670.0</ele>
        <time>2022-11-06T07:47:42Z</time>
      </trkpt>
      <trkpt lat="39.7064860" lon="-0.4266550">
        <ele>670.0</ele>
        <time>2022-11-06T07:47:43Z</time>
      </trkpt>
      <trkpt lat="39.7064750" lon="-0.4266180">
        <ele>670.4</ele>
        <time>2022-11-06T07:47:44Z</time>
      </trkpt>
      <trkpt lat="39.7064700" lon="-0.4266020">
        <ele>670.5</ele>
        <time>2022-11-06T07:47:45Z</time>
      </trkpt>
      <trkpt lat="39.7064670" lon="-0.4265880">
        <ele>670.7</ele>
        <time>2022-11-06T07:47:46Z</time>
      </trkpt>
      <trkpt lat="39.7064590" lon="-0.4265700">
        <ele>670.8</ele>
        <time>2022-11-06T07:47:47Z</time>
      </trkpt>
      <trkpt lat="39.7064510" lon="-0.4265520">
        <ele>671.0</ele>
        <time>2022-11-06T07:47:48Z</time>
      </trkpt>
      <trkpt lat="39.7064490" lon="-0.4265320">
        <ele>671.2</ele>
        <time>2022-11-06T07:47:49Z</time>
      </trkpt>
      <trkpt lat="39.7064410" lon="-0.4265100">
        <ele>671.4</ele>
        <time>2022-11-06T07:47:50Z</time>
      </trkpt>
      <trkpt lat="39.7064300" lon="-0.4264950">
        <ele>671.6</ele>
        <time>2022-11-06T07:47:51Z</time>
      </trkpt>
      <trkpt lat="39.7064300" lon="-0.4264950">
        <ele>671.6</ele>
        <time>2022-11-06T07:47:52Z</time>
      </trkpt>
      <trkpt lat="39.7064300" lon="-0.4264950">
        <ele>671.6</ele>
        <time>2022-11-06T07:47:53Z</time>
      </trkpt>
      <trkpt lat="39.7064030" lon="-0.4264550">
        <ele>672.1</ele>
        <time>2022-11-06T07:47:54Z</time>
      </trkpt>
      <trkpt lat="39.7063950" lon="-0.4264380">
        <ele>672.3</ele>
        <time>2022-11-06T07:47:55Z</time>
      </trkpt>
      <trkpt lat="39.7063870" lon="-0.4264230">
        <ele>672.4</ele>
        <time>2022-11-06T07:47:56Z</time>
      </trkpt>
      <trkpt lat="39.7063790" lon="-0.4264070">
        <ele>672.6</ele>
        <time>2022-11-06T07:47:57Z</time>
      </trkpt>
      <trkpt lat="39.7063710" lon="-0.4263900">
        <ele>672.8</ele>
        <time>2022-11-06T07:47:58Z</time>
      </trkpt>
      <trkpt lat="39.7063630" lon="-0.4263730">
        <ele>673.0</ele>
        <time>2022-11-06T07:47:59Z</time>
      </trkpt>
      <trkpt lat="39.7063600" lon="-0.4263570">
        <ele>673.1</ele>
        <time>2022-11-06T07:48:00Z</time>
      </trkpt>
      <trkpt lat="39.7063550" lon="-0.4263420">
        <ele>673.3</ele>
        <time>2022-11-06T07:48:01Z</time>
      </trkpt>
      <trkpt lat="39.7063490" lon="-0.4263250">
        <ele>673.4</ele>
        <time>2022-11-06T07:48:02Z</time>
      </trkpt>
      <trkpt lat="39.7063490" lon="-0.4263250">
        <ele>673.4</ele>
        <time>2022-11-06T07:48:03Z</time>
      </trkpt>
      <trkpt lat="39.7063490" lon="-0.4263250">
        <ele>673.4</ele>
        <time>2022-11-06T07:48:04Z</time>
      </trkpt>
      <trkpt lat="39.7063330" lon="-0.4262730">
        <ele>674.0</ele>
        <time>2022-11-06T07:48:05Z</time>
      </trkpt>
      <trkpt lat="39.7063250" lon="-0.4262600">
        <ele>674.1</ele>
        <time>2022-11-06T07:48:06Z</time>
      </trkpt>
      <trkpt lat="39.7063170" lon="-0.4262470">
        <ele>674.3</ele>
        <time>2022-11-06T07:48:07Z</time>
      </trkpt>
      <trkpt lat="39.7063090" lon="-0.4262330">
        <ele>674.5</ele>
        <time>2022-11-06T07:48:08Z</time>
      </trkpt>
      <trkpt lat="39.7063040" lon="-0.4262170">
        <ele>674.7</ele>
        <time>2022-11-06T07:48:09Z</time>
      </trkpt>
      <trkpt lat="39.7062960" lon="-0.4262000">
        <ele>674.9</ele>
        <time>2022-11-06T07:48:10Z</time>
      </trkpt>
      <trkpt lat="39.7062880" lon="-0.4261830">
        <ele>675.1</ele>
        <time>2022-11-06T07:48:11Z</time>
      </trkpt>
      <trkpt lat="39.7062820" lon="-0.4261650">
        <ele>675.3</ele>
        <time>2022-11-06T07:48:12Z</time>
      </trkpt>
      <trkpt lat="39.7062820" lon="-0.4261650">
        <ele>675.3</ele>
        <time>2022-11-06T07:48:13Z</time>
      </trkpt>
      <trkpt lat="39.7062820" lon="-0.4261650">
        <ele>675.3</ele>
        <time>2022-11-06T07:48:14Z</time>
      </trkpt>
      <trkpt lat="39.7062580" lon="-0.4261120">
        <ele>676.1</ele>
        <time>2022-11-06T07:48:15Z</time>
      </trkpt>
      <trkpt lat="39.7062450" lon="-0.4260970">
        <ele>676.4</ele>
        <time>2022-11-06T07:48:16Z</time>
      </trkpt>
      <trkpt lat="39.7062340" lon="-0.4260820">
        <ele>676.6</ele>
        <time>2022-11-06T07:48:17Z</time>
      </trkpt>
      <trkpt lat="39.7062230" lon="-0.4260700">
        <ele>676.9</ele>
        <time>2022-11-06T07:48:18Z</time>
      </trkpt>
      <trkpt lat="39.7062070" lon="-0.4260700">
        <ele>677.1</ele>
        <time>2022-11-06T07:48:19Z</time>
      </trkpt>
      <trkpt lat="39.7061960" lon="-0.4260750">
        <ele>677.3</ele>
        <time>2022-11-06T07:48:20Z</time>
      </trkpt>
      <trkpt lat="39.7061830" lon="-0.4260820">
        <ele>677.5</ele>
        <time>2022-11-06T07:48:21Z</time>
      </trkpt>
      <trkpt lat="39.7061780" lon="-0.4260970">
        <ele>677.7</ele>
        <time>2022-11-06T07:48:22Z</time>
      </trkpt>
      <trkpt lat="39.7061780" lon="-0.4261150">
        <ele>678.0</ele>
        <time>2022-11-06T07:48:23Z</time>
      </trkpt>
      <trkpt lat="39.7061780" lon="-0.4261150">
        <ele>678.0</ele>
        <time>2022-11-06T07:48:24Z</time>
      </trkpt>
      <trkpt lat="39.7061700" lon="-0.4261530">
        <ele>678.4</ele>
        <time>2022-11-06T07:48:25Z</time>
      </trkpt>
      <trkpt lat="39.7061700" lon="-0.4261720">
        <ele>678.6</ele>
        <time>2022-11-06T07:48:26Z</time>
      </trkpt>
      <trkpt lat="39.7061700" lon="-0.4261880">
        <ele>678.8</ele>
        <time>2022-11-06T07:48:27Z</time>
      </trkpt>
      <trkpt lat="39.7061720" lon="-0.4262070">
        <ele>679.0</ele>
        <time>2022-11-06T07:48:28Z</time>
      </trkpt>
      <trkpt lat="39.7061700" lon="-0.4262270">
        <ele>679.2</ele>
        <time>2022-11-06T07:48:29Z</time>
      </trkpt>
      <trkpt lat="39.7061720" lon="-0.4262450">
        <ele>679.3</ele>
        <time>2022-11-06T07:48:30Z</time>
      </trkpt>
      <trkpt lat="39.7061720" lon="-0.4262650">
        <ele>679.5</ele>
        <time>2022-11-06T07:48:31Z</time>
      </trkpt>
      <trkpt lat="39.7061780" lon="-0.4262830">
        <ele>679.7</ele>
        <time>2022-11-06T07:48:32Z</time>
      </trkpt>
      <trkpt lat="39.7061780" lon="-0.4263050">
        <ele>679.9</ele>
        <time>2022-11-06T07:48:33Z</time>
      </trkpt>
      <trkpt lat="39.7061780" lon="-0.4263050">
        <ele>679.9</ele>
        <time>2022-11-06T07:48:34Z</time>
      </trkpt>
      <trkpt lat="39.7061780" lon="-0.4263430">
        <ele>680.2</ele>
        <time>2022-11-06T07:48:35Z</time>
      </trkpt>
      <trkpt lat="39.7061780" lon="-0.4263600">
        <ele>680.3</ele>
        <time>2022-11-06T07:48:36Z</time>
      </trkpt>
      <trkpt lat="39.7061780" lon="-0.4263780">
        <ele>680.5</ele>
        <time>2022-11-06T07:48:37Z</time>
      </trkpt>
      <trkpt lat="39.7061780" lon="-0.4263970">
        <ele>680.6</ele>
        <time>2022-11-06T07:48:38Z</time>
      </trkpt>
      <trkpt lat="39.7061780" lon="-0.4264130">
        <ele>680.7</ele>
        <time>2022-11-06T07:48:39Z</time>
      </trkpt>
      <trkpt lat="39.7061780" lon="-0.4264320">
        <ele>680.9</ele>
        <time>2022-11-06T07:48:40Z</time>
      </trkpt>
      <trkpt lat="39.7061780" lon="-0.4264530">
        <ele>681.1</ele>
        <time>2022-11-06T07:48:41Z</time>
      </trkpt>
      <trkpt lat="39.7061780" lon="-0.4264720">
        <ele>681.2</ele>
        <time>2022-11-06T07:48:42Z</time>
      </trkpt>
      <trkpt lat="39.7061720" lon="-0.4264920">
        <ele>681.4</ele>
        <time>2022-11-06T07:48:43Z</time>
      </trkpt>
      <trkpt lat="39.7061700" lon="-0.4265100">
        <ele>681.6</ele>
        <time>2022-11-06T07:48:44Z</time>
      </trkpt>
      <trkpt lat="39.7061700" lon="-0.4265100">
        <ele>681.6</ele>
        <time>2022-11-06T07:48:45Z</time>
      </trkpt>
      <trkpt lat="39.7061720" lon="-0.4265500">
        <ele>682.0</ele>
        <time>2022-11-06T07:48:46Z</time>
      </trkpt>
      <trkpt lat="39.7061700" lon="-0.4265680">
        <ele>682.2</ele>
        <time>2022-11-06T07:48:47Z</time>
      </trkpt>
      <trkpt lat="39.7061640" lon="-0.4265880">
        <ele>682.5</ele>
        <time>2022-11-06T07:48:48Z</time>
      </trkpt>
      <trkpt lat="39.7061640" lon="-0.4266050">
        <ele>682.7</ele>
        <time>2022-11-06T07:48:49Z</time>
      </trkpt>
      <trkpt lat="39.7061620" lon="-0.4266220">
        <ele>682.9</ele>
        <time>2022-11-06T07:48:50Z</time>
      </trkpt>
      <trkpt lat="39.7061620" lon="-0.4266420">
        <ele>683.1</ele>
        <time>2022-11-06T07:48:51Z</time>
      </trkpt>
      <trkpt lat="39.7061590" lon="-0.4266600">
        <ele>683.3</ele>
        <time>2022-11-06T07:48:52Z</time>
      </trkpt>
      <trkpt lat="39.7061590" lon="-0.4266830">
        <ele>683.6</ele>
        <time>2022-11-06T07:48:53Z</time>
      </trkpt>
      <trkpt lat="39.7061590" lon="-0.4266830">
        <ele>683.6</ele>
        <time>2022-11-06T07:48:54Z</time>
      </trkpt>
      <trkpt lat="39.7061590" lon="-0.4266830">
        <ele>683.6</ele>
        <time>2022-11-06T07:48:55Z</time>
      </trkpt>
      <trkpt lat="39.7061350" lon="-0.4267400">
        <ele>684.4</ele>
        <time>2022-11-06T07:48:56Z</time>
      </trkpt>
      <trkpt lat="39.7061240" lon="-0.4267470">
        <ele>684.6</ele>
        <time>2022-11-06T07:48:57Z</time>
      </trkpt>
      <trkpt lat="39.7061110" lon="-0.4267480">
        <ele>684.8</ele>
        <time>2022-11-06T07:48:58Z</time>
      </trkpt>
      <trkpt lat="39.7061000" lon="-0.4267400">
        <ele>685.0</ele>
        <time>2022-11-06T07:48:59Z</time>
      </trkpt>
      <trkpt lat="39.7060970" lon="-0.4267280">
        <ele>685.2</ele>
        <time>2022-11-06T07:49:00Z</time>
      </trkpt>
      <trkpt lat="39.7060890" lon="-0.4267130">
        <ele>685.4</ele>
        <time>2022-11-06T07:49:01Z</time>
      </trkpt>
      <trkpt lat="39.7060810" lon="-0.4266970">
        <ele>685.6</ele>
        <time>2022-11-06T07:49:02Z</time>
      </trkpt>
      <trkpt lat="39.7060730" lon="-0.4266780">
        <ele>685.9</ele>
        <time>2022-11-06T07:49:03Z</time>
      </trkpt>
      <trkpt lat="39.7060700" lon="-0.4266580">
        <ele>686.1</ele>
        <time>2022-11-06T07:49:04Z</time>
      </trkpt>
      <trkpt lat="39.7060700" lon="-0.4266580">
        <ele>686.1</ele>
        <time>2022-11-06T07:49:05Z</time>
      </trkpt>
      <trkpt lat="39.7060700" lon="-0.4266580">
        <ele>686.1</ele>
        <time>2022-11-06T07:49:06Z</time>
      </trkpt>
      <trkpt lat="39.7060600" lon="-0.4265980">
        <ele>686.9</ele>
        <time>2022-11-06T07:49:07Z</time>
      </trkpt>
      <trkpt lat="39.7060540" lon="-0.4265800">
        <ele>687.1</ele>
        <time>2022-11-06T07:49:08Z</time>
      </trkpt>
      <trkpt lat="39.7060460" lon="-0.4265620">
        <ele>687.4</ele>
        <time>2022-11-06T07:49:09Z</time>
      </trkpt>
      <trkpt lat="39.7060380" lon="-0.4265480">
        <ele>687.6</ele>
        <time>2022-11-06T07:49:10Z</time>
      </trkpt>
      <trkpt lat="39.7060330" lon="-0.4265330">
        <ele>687.8</ele>
        <time>2022-11-06T07:49:11Z</time>
      </trkpt>
      <trkpt lat="39.7060280" lon="-0.4265180">
        <ele>687.9</ele>
        <time>2022-11-06T07:49:12Z</time>
      </trkpt>
      <trkpt lat="39.7060170" lon="-0.4265020">
        <ele>688.2</ele>
        <time>2022-11-06T07:49:13Z</time>
      </trkpt>
      <trkpt lat="39.7060170" lon="-0.4264870">
        <ele>688.4</ele>
        <time>2022-11-06T07:49:14Z</time>
      </trkpt>
      <trkpt lat="39.7060170" lon="-0.4264870">
        <ele>688.4</ele>
        <time>2022-11-06T07:49:15Z</time>
      </trkpt>
      <trkpt lat="39.7060060" lon="-0.4264530">
        <ele>688.8</ele>
        <time>2022-11-06T07:49:16Z</time>
      </trkpt>
      <trkpt lat="39.7060010" lon="-0.4264370">
        <ele>689.0</ele>
        <time>2022-11-06T07:49:17Z</time>
      </trkpt>
      <trkpt lat="39.7059900" lon="-0.4264200">
        <ele>689.3</ele>
        <time>2022-11-06T07:49:18Z</time>
      </trkpt>
      <trkpt lat="39.7059820" lon="-0.4264070">
        <ele>689.5</ele>
        <time>2022-11-06T07:49:19Z</time>
      </trkpt>
      <trkpt lat="39.7059710" lon="-0.4263950">
        <ele>689.7</ele>
        <time>2022-11-06T07:49:20Z</time>
      </trkpt>
      <trkpt lat="39.7059630" lon="-0.4263800">
        <ele>689.9</ele>
        <time>2022-11-06T07:49:21Z</time>
      </trkpt>
      <trkpt lat="39.7059520" lon="-0.4263630">
        <ele>690.2</ele>
        <time>2022-11-06T07:49:22Z</time>
      </trkpt>
      <trkpt lat="39.7059390" lon="-0.4263480">
        <ele>690.4</ele>
        <time>2022-11-06T07:49:23Z</time>
      </trkpt>
      <trkpt lat="39.7059340" lon="-0.4263330">
        <ele>690.6</ele>
        <time>2022-11-06T07:49:24Z</time>
      </trkpt>
      <trkpt lat="39.7059260" lon="-0.4263200">
        <ele>690.8</ele>
        <time>2022-11-06T07:49:25Z</time>
      </trkpt>
      <trkpt lat="39.7059260" lon="-0.4263200">
        <ele>690.8</ele>
        <time>2022-11-06T07:49:26Z</time>
      </trkpt>
      <trkpt lat="39.7059010" lon="-0.4262950">
        <ele>691.3</ele>
        <time>2022-11-06T07:49:27Z</time>
      </trkpt>
      <trkpt lat="39.7058910" lon="-0.4262820">
        <ele>691.5</ele>
        <time>2022-11-06T07:49:28Z</time>
      </trkpt>
      <trkpt lat="39.7058830" lon="-0.4262680">
        <ele>691.7</ele>
        <time>2022-11-06T07:49:29Z</time>
      </trkpt>
      <trkpt lat="39.7058750" lon="-0.4262550">
        <ele>691.9</ele>
        <time>2022-11-06T07:49:30Z</time>
      </trkpt>
      <trkpt lat="39.7058670" lon="-0.4262430">
        <ele>692.1</ele>
        <time>2022-11-06T07:49:31Z</time>
      </trkpt>
      <trkpt lat="39.7058560" lon="-0.4262300">
        <ele>692.3</ele>
        <time>2022-11-06T07:49:32Z</time>
      </trkpt>
      <trkpt lat="39.7058450" lon="-0.4262180">
        <ele>692.6</ele>
        <time>2022-11-06T07:49:33Z</time>
      </trkpt>
      <trkpt lat="39.7058340" lon="-0.4262050">
        <ele>692.8</ele>
        <time>2022-11-06T07:49:34Z</time>
      </trkpt>
      <trkpt lat="39.7058340" lon="-0.4262050">
        <ele>692.8</ele>
        <time>2022-11-06T07:49:35Z</time>
      </trkpt>
      <trkpt lat="39.7058340" lon="-0.4262050">
        <ele>692.8</ele>
        <time>2022-11-06T07:49:36Z</time>
      </trkpt>
      <trkpt lat="39.7058000" lon="-0.4261780">
        <ele>693.4</ele>
        <time>2022-11-06T07:49:37Z</time>
      </trkpt>
      <trkpt lat="39.7057910" lon="-0.4261700">
        <ele>693.6</ele>
        <time>2022-11-06T07:49:38Z</time>
      </trkpt>
      <trkpt lat="39.7057750" lon="-0.4261600">
        <ele>693.8</ele>
        <time>2022-11-06T07:49:39Z</time>
      </trkpt>
      <trkpt lat="39.7057650" lon="-0.4261480">
        <ele>694.0</ele>
        <time>2022-11-06T07:49:40Z</time>
      </trkpt>
      <trkpt lat="39.7057570" lon="-0.4261370">
        <ele>694.2</ele>
        <time>2022-11-06T07:49:41Z</time>
      </trkpt>
      <trkpt lat="39.7057490" lon="-0.4261230">
        <ele>694.4</ele>
        <time>2022-11-06T07:49:42Z</time>
      </trkpt>
      <trkpt lat="39.7057430" lon="-0.4261100">
        <ele>694.5</ele>
        <time>2022-11-06T07:49:43Z</time>
      </trkpt>
      <trkpt lat="39.7057350" lon="-0.4260920">
        <ele>694.8</ele>
        <time>2022-11-06T07:49:44Z</time>
      </trkpt>
      <trkpt lat="39.7057270" lon="-0.4260750">
        <ele>695.0</ele>
        <time>2022-11-06T07:49:45Z</time>
      </trkpt>
      <trkpt lat="39.7057270" lon="-0.4260750">
        <ele>695.0</ele>
        <time>2022-11-06T07:49:46Z</time>
      </trkpt>
      <trkpt lat="39.7057270" lon="-0.4260750">
        <ele>695.0</ele>
        <time>2022-11-06T07:49:47Z</time>
      </trkpt>
      <trkpt lat="39.7056950" lon="-0.4260430">
        <ele>695.5</ele>
        <time>2022-11-06T07:49:48Z</time>
      </trkpt>
      <trkpt lat="39.7056840" lon="-0.4260380">
        <ele>695.6</ele>
        <time>2022-11-06T07:49:49Z</time>
      </trkpt>
      <trkpt lat="39.7056730" lon="-0.4260320">
        <ele>695.8</ele>
        <time>2022-11-06T07:49:50Z</time>
      </trkpt>
      <trkpt lat="39.7056630" lon="-0.4260220">
        <ele>695.9</ele>
        <time>2022-11-06T07:49:51Z</time>
      </trkpt>
      <trkpt lat="39.7056550" lon="-0.4260100">
        <ele>696.1</ele>
        <time>2022-11-06T07:49:52Z</time>
      </trkpt>
      <trkpt lat="39.7056470" lon="-0.4259980">
        <ele>696.2</ele>
        <time>2022-11-06T07:49:53Z</time>
      </trkpt>
      <trkpt lat="39.7056360" lon="-0.4259850">
        <ele>696.4</ele>
        <time>2022-11-06T07:49:54Z</time>
      </trkpt>
      <trkpt lat="39.7056220" lon="-0.4259720">
        <ele>696.5</ele>
        <time>2022-11-06T07:49:55Z</time>
      </trkpt>
      <trkpt lat="39.7056220" lon="-0.4259720">
        <ele>696.5</ele>
        <time>2022-11-06T07:49:56Z</time>
      </trkpt>
      <trkpt lat="39.7056120" lon="-0.4259450">
        <ele>696.7</ele>
        <time>2022-11-06T07:49:57Z</time>
      </trkpt>
      <trkpt lat="39.7056040" lon="-0.4259350">
        <ele>696.9</ele>
        <time>2022-11-06T07:49:58Z</time>
      </trkpt>
      <trkpt lat="39.7055960" lon="-0.4259250">
        <ele>697.0</ele>
        <time>2022-11-06T07:49:59Z</time>
      </trkpt>
      <trkpt lat="39.7055900" lon="-0.4259130">
        <ele>697.1</ele>
        <time>2022-11-06T07:50:00Z</time>
      </trkpt>
      <trkpt lat="39.7055770" lon="-0.4259000">
        <ele>697.2</ele>
        <time>2022-11-06T07:50:01Z</time>
      </trkpt>
      <trkpt lat="39.7055720" lon="-0.4258880">
        <ele>697.3</ele>
        <time>2022-11-06T07:50:02Z</time>
      </trkpt>
      <trkpt lat="39.7055660" lon="-0.4258800">
        <ele>697.4</ele>
        <time>2022-11-06T07:50:03Z</time>
      </trkpt>
      <trkpt lat="39.7055630" lon="-0.4258680">
        <ele>697.4</ele>
        <time>2022-11-06T07:50:04Z</time>
      </trkpt>
      <trkpt lat="39.7055550" lon="-0.4258550">
        <ele>697.5</ele>
        <time>2022-11-06T07:50:05Z</time>
      </trkpt>
      <trkpt lat="39.7055470" lon="-0.4258420">
        <ele>697.6</ele>
        <time>2022-11-06T07:50:06Z</time>
      </trkpt>
      <trkpt lat="39.7055470" lon="-0.4258420">
        <ele>697.6</ele>
        <time>2022-11-06T07:50:07Z</time>
      </trkpt>
      <trkpt lat="39.7055290" lon="-0.4258130">
        <ele>697.9</ele>
        <time>2022-11-06T07:50:08Z</time>
      </trkpt>
      <trkpt lat="39.7055210" lon="-0.4258020">
        <ele>697.9</ele>
        <time>2022-11-06T07:50:09Z</time>
      </trkpt>
      <trkpt lat="39.7055130" lon="-0.4257920">
        <ele>698.0</ele>
        <time>2022-11-06T07:50:10Z</time>
      </trkpt>
      <trkpt lat="39.7055100" lon="-0.4257750">
        <ele>698.1</ele>
        <time>2022-11-06T07:50:11Z</time>
      </trkpt>
      <trkpt lat="39.7054960" lon="-0.4257580">
        <ele>698.3</ele>
        <time>2022-11-06T07:50:12Z</time>
      </trkpt>
      <trkpt lat="39.7054910" lon="-0.4257470">
        <ele>698.3</ele>
        <time>2022-11-06T07:50:13Z</time>
      </trkpt>
      <trkpt lat="39.7054780" lon="-0.4257330">
        <ele>698.4</ele>
        <time>2022-11-06T07:50:14Z</time>
      </trkpt>
      <trkpt lat="39.7054750" lon="-0.4257200">
        <ele>698.5</ele>
        <time>2022-11-06T07:50:15Z</time>
      </trkpt>
      <trkpt lat="39.7054750" lon="-0.4257200">
        <ele>698.5</ele>
        <time>2022-11-06T07:50:16Z</time>
      </trkpt>
      <trkpt lat="39.7054750" lon="-0.4257200">
        <ele>698.5</ele>
        <time>2022-11-06T07:50:17Z</time>
      </trkpt>
      <trkpt lat="39.7054510" lon="-0.4256770">
        <ele>698.8</ele>
        <time>2022-11-06T07:50:18Z</time>
      </trkpt>
      <trkpt lat="39.7054480" lon="-0.4256550">
        <ele>698.9</ele>
        <time>2022-11-06T07:50:19Z</time>
      </trkpt>
      <trkpt lat="39.7054370" lon="-0.4256380">
        <ele>699.0</ele>
        <time>2022-11-06T07:50:20Z</time>
      </trkpt>
      <trkpt lat="39.7054320" lon="-0.4256230">
        <ele>699.1</ele>
        <time>2022-11-06T07:50:21Z</time>
      </trkpt>
      <trkpt lat="39.7054210" lon="-0.4256100">
        <ele>699.2</ele>
        <time>2022-11-06T07:50:22Z</time>
      </trkpt>
      <trkpt lat="39.7054190" lon="-0.4255950">
        <ele>699.3</ele>
        <time>2022-11-06T07:50:23Z</time>
      </trkpt>
      <trkpt lat="39.7054110" lon="-0.4255780">
        <ele>699.4</ele>
        <time>2022-11-06T07:50:24Z</time>
      </trkpt>
      <trkpt lat="39.7054000" lon="-0.4255630">
        <ele>699.5</ele>
        <time>2022-11-06T07:50:25Z</time>
      </trkpt>
      <trkpt lat="39.7053920" lon="-0.4255520">
        <ele>699.5</ele>
        <time>2022-11-06T07:50:26Z</time>
      </trkpt>
      <trkpt lat="39.7053920" lon="-0.4255520">
        <ele>699.5</ele>
        <time>2022-11-06T07:50:27Z</time>
      </trkpt>
      <trkpt lat="39.7053920" lon="-0.4255520">
        <ele>699.5</ele>
        <time>2022-11-06T07:50:28Z</time>
      </trkpt>
      <trkpt lat="39.7053650" lon="-0.4255100">
        <ele>699.8</ele>
        <time>2022-11-06T07:50:29Z</time>
      </trkpt>
      <trkpt lat="39.7053520" lon="-0.4255000">
        <ele>699.9</ele>
        <time>2022-11-06T07:50:30Z</time>
      </trkpt>
      <trkpt lat="39.7053460" lon="-0.4254720">
        <ele>700.1</ele>
        <time>2022-11-06T07:50:31Z</time>
      </trkpt>
      <trkpt lat="39.7053330" lon="-0.4254570">
        <ele>700.2</ele>
        <time>2022-11-06T07:50:32Z</time>
      </trkpt>
      <trkpt lat="39.7053220" lon="-0.4254380">
        <ele>700.4</ele>
        <time>2022-11-06T07:50:33Z</time>
      </trkpt>
      <trkpt lat="39.7053060" lon="-0.4254230">
        <ele>700.5</ele>
        <time>2022-11-06T07:50:34Z</time>
      </trkpt>
      <trkpt lat="39.7053010" lon="-0.4254070">
        <ele>700.6</ele>
        <time>2022-11-06T07:50:35Z</time>
      </trkpt>
      <trkpt lat="39.7052930" lon="-0.4253900">
        <ele>700.7</ele>
        <time>2022-11-06T07:50:36Z</time>
      </trkpt>
      <trkpt lat="39.7052930" lon="-0.4253900">
        <ele>700.7</ele>
        <time>2022-11-06T07:50:37Z</time>
      </trkpt>
      <trkpt lat="39.7052930" lon="-0.4253900">
        <ele>700.7</ele>
        <time>2022-11-06T07:50:38Z</time>
      </trkpt>
      <trkpt lat="39.7052580" lon="-0.4253380">
        <ele>701.2</ele>
        <time>2022-11-06T07:50:39Z</time>
      </trkpt>
      <trkpt lat="39.7052420" lon="-0.4253270">
        <ele>701.4</ele>
        <time>2022-11-06T07:50:40Z</time>
      </trkpt>
      <trkpt lat="39.7052310" lon="-0.4253130">
        <ele>701.5</ele>
        <time>2022-11-06T07:50:41Z</time>
      </trkpt>
      <trkpt lat="39.7052230" lon="-0.4253000">
        <ele>701.6</ele>
        <time>2022-11-06T07:50:42Z</time>
      </trkpt>
      <trkpt lat="39.7052120" lon="-0.4252850">
        <ele>701.8</ele>
        <time>2022-11-06T07:50:43Z</time>
      </trkpt>
      <trkpt lat="39.7052010" lon="-0.4252700">
        <ele>702.0</ele>
        <time>2022-11-06T07:50:44Z</time>
      </trkpt>
      <trkpt lat="39.7051880" lon="-0.4252550">
        <ele>702.2</ele>
        <time>2022-11-06T07:50:45Z</time>
      </trkpt>
      <trkpt lat="39.7051800" lon="-0.4252330">
        <ele>702.4</ele>
        <time>2022-11-06T07:50:46Z</time>
      </trkpt>
      <trkpt lat="39.7051750" lon="-0.4252250">
        <ele>702.5</ele>
        <time>2022-11-06T07:50:47Z</time>
      </trkpt>
      <trkpt lat="39.7051750" lon="-0.4252250">
        <ele>702.5</ele>
        <time>2022-11-06T07:50:48Z</time>
      </trkpt>
      <trkpt lat="39.7051500" lon="-0.4251980">
        <ele>702.9</ele>
        <time>2022-11-06T07:50:49Z</time>
      </trkpt>
      <trkpt lat="39.7051400" lon="-0.4251870">
        <ele>703.0</ele>
        <time>2022-11-06T07:50:50Z</time>
      </trkpt>
      <trkpt lat="39.7051290" lon="-0.4251750">
        <ele>703.2</ele>
        <time>2022-11-06T07:50:51Z</time>
      </trkpt>
      <trkpt lat="39.7051130" lon="-0.4251630">
        <ele>703.4</ele>
        <time>2022-11-06T07:50:52Z</time>
      </trkpt>
      <trkpt lat="39.7051020" lon="-0.4251500">
        <ele>703.6</ele>
        <time>2022-11-06T07:50:53Z</time>
      </trkpt>
      <trkpt lat="39.7050890" lon="-0.4251370">
        <ele>703.8</ele>
        <time>2022-11-06T07:50:54Z</time>
      </trkpt>
      <trkpt lat="39.7050780" lon="-0.4251200">
        <ele>704.0</ele>
        <time>2022-11-06T07:50:55Z</time>
      </trkpt>
      <trkpt lat="39.7050670" lon="-0.4251030">
        <ele>704.2</ele>
        <time>2022-11-06T07:50:56Z</time>
      </trkpt>
      <trkpt lat="39.7050510" lon="-0.4250880">
        <ele>704.5</ele>
        <time>2022-11-06T07:50:57Z</time>
      </trkpt>
      <trkpt lat="39.7050510" lon="-0.4250880">
        <ele>704.5</ele>
        <time>2022-11-06T07:50:58Z</time>
      </trkpt>
      <trkpt lat="39.7050300" lon="-0.4250500">
        <ele>705.0</ele>
        <time>2022-11-06T07:50:59Z</time>
      </trkpt>
      <trkpt lat="39.7050140" lon="-0.4250330">
        <ele>705.2</ele>
        <time>2022-11-06T07:51:00Z</time>
      </trkpt>
      <trkpt lat="39.7049980" lon="-0.4250250">
        <ele>705.5</ele>
        <time>2022-11-06T07:51:01Z</time>
      </trkpt>
      <trkpt lat="39.7049810" lon="-0.4250170">
        <ele>705.7</ele>
        <time>2022-11-06T07:51:02Z</time>
      </trkpt>
      <trkpt lat="39.7049680" lon="-0.4250080">
        <ele>705.9</ele>
        <time>2022-11-06T07:51:03Z</time>
      </trkpt>
      <trkpt lat="39.7049520" lon="-0.4250050">
        <ele>706.1</ele>
        <time>2022-11-06T07:51:04Z</time>
      </trkpt>
      <trkpt lat="39.7049360" lon="-0.4250130">
        <ele>706.3</ele>
        <time>2022-11-06T07:51:05Z</time>
      </trkpt>
      <trkpt lat="39.7049330" lon="-0.4250250">
        <ele>706.5</ele>
        <time>2022-11-06T07:51:06Z</time>
      </trkpt>
      <trkpt lat="39.7049250" lon="-0.4250420">
        <ele>706.7</ele>
        <time>2022-11-06T07:51:07Z</time>
      </trkpt>
      <trkpt lat="39.7049330" lon="-0.4250580">
        <ele>706.9</ele>
        <time>2022-11-06T07:51:08Z</time>
      </trkpt>
      <trkpt lat="39.7049330" lon="-0.4250580">
        <ele>706.9</ele>
        <time>2022-11-06T07:51:09Z</time>
      </trkpt>
      <trkpt lat="39.7049490" lon="-0.4250880">
        <ele>707.2</ele>
        <time>2022-11-06T07:51:10Z</time>
      </trkpt>
      <trkpt lat="39.7049570" lon="-0.4251030">
        <ele>707.4</ele>
        <time>2022-11-06T07:51:11Z</time>
      </trkpt>
      <trkpt lat="39.7049630" lon="-0.4251220">
        <ele>707.5</ele>
        <time>2022-11-06T07:51:12Z</time>
      </trkpt>
      <trkpt lat="39.7049710" lon="-0.4251370">
        <ele>707.7</ele>
        <time>2022-11-06T07:51:13Z</time>
      </trkpt>
      <trkpt lat="39.7049760" lon="-0.4251530">
        <ele>707.9</ele>
        <time>2022-11-06T07:51:14Z</time>
      </trkpt>
      <trkpt lat="39.7049810" lon="-0.4251700">
        <ele>708.0</ele>
        <time>2022-11-06T07:51:15Z</time>
      </trkpt>
      <trkpt lat="39.7049870" lon="-0.4251830">
        <ele>708.2</ele>
        <time>2022-11-06T07:51:16Z</time>
      </trkpt>
      <trkpt lat="39.7049950" lon="-0.4252000">
        <ele>708.3</ele>
        <time>2022-11-06T07:51:17Z</time>
      </trkpt>
      <trkpt lat="39.7049950" lon="-0.4252000">
        <ele>708.3</ele>
        <time>2022-11-06T07:51:18Z</time>
      </trkpt>
      <trkpt lat="39.7049950" lon="-0.4252000">
        <ele>708.3</ele>
        <time>2022-11-06T07:51:19Z</time>
      </trkpt>
      <trkpt lat="39.7050080" lon="-0.4252470">
        <ele>708.8</ele>
        <time>2022-11-06T07:51:20Z</time>
      </trkpt>
      <trkpt lat="39.7050140" lon="-0.4252630">
        <ele>708.9</ele>
        <time>2022-11-06T07:51:21Z</time>
      </trkpt>
      <trkpt lat="39.7050220" lon="-0.4252830">
        <ele>709.2</ele>
        <time>2022-11-06T07:51:22Z</time>
      </trkpt>
      <trkpt lat="39.7050240" lon="-0.4253000">
        <ele>709.3</ele>
        <time>2022-11-06T07:51:23Z</time>
      </trkpt>
      <trkpt lat="39.7050350" lon="-0.4253170">
        <ele>709.6</ele>
        <time>2022-11-06T07:51:24Z</time>
      </trkpt>
      <trkpt lat="39.7050430" lon="-0.4253320">
        <ele>709.8</ele>
        <time>2022-11-06T07:51:25Z</time>
      </trkpt>
      <trkpt lat="39.7050490" lon="-0.4253480">
        <ele>710.0</ele>
        <time>2022-11-06T07:51:26Z</time>
      </trkpt>
      <trkpt lat="39.7050510" lon="-0.4253680">
        <ele>710.2</ele>
        <time>2022-11-06T07:51:27Z</time>
      </trkpt>
      <trkpt lat="39.7050490" lon="-0.4253870">
        <ele>710.5</ele>
        <time>2022-11-06T07:51:28Z</time>
      </trkpt>
      <trkpt lat="39.7050490" lon="-0.4253870">
        <ele>710.5</ele>
        <time>2022-11-06T07:51:29Z</time>
      </trkpt>
      <trkpt lat="39.7050490" lon="-0.4253870">
        <ele>710.5</ele>
        <time>2022-11-06T07:51:30Z</time>
      </trkpt>
      <trkpt lat="39.7050240" lon="-0.4254350">
        <ele>711.2</ele>
        <time>2022-11-06T07:51:31Z</time>
      </trkpt>
      <trkpt lat="39.7050140" lon="-0.4254450">
        <ele>711.4</ele>
        <time>2022-11-06T07:51:32Z</time>
      </trkpt>
      <trkpt lat="39.7050030" lon="-0.4254430">
        <ele>711.6</ele>
        <time>2022-11-06T07:51:33Z</time>
      </trkpt>
      <trkpt lat="39.7049890" lon="-0.4254400">
        <ele>711.8</ele>
        <time>2022-11-06T07:51:34Z</time>
      </trkpt>
      <trkpt lat="39.7049810" lon="-0.4254370">
        <ele>712.0</ele>
        <time>2022-11-06T07:51:35Z</time>
      </trkpt>
      <trkpt lat="39.7049760" lon="-0.4254300">
        <ele>712.1</ele>
        <time>2022-11-06T07:51:36Z</time>
      </trkpt>
      <trkpt lat="39.7049630" lon="-0.4254200">
        <ele>712.3</ele>
        <time>2022-11-06T07:51:37Z</time>
      </trkpt>
      <trkpt lat="39.7049520" lon="-0.4254120">
        <ele>712.5</ele>
        <time>2022-11-06T07:51:38Z</time>
      </trkpt>
      <trkpt lat="39.7049520" lon="-0.4254120">
        <ele>712.5</ele>
        <time>2022-11-06T07:51:39Z</time>
      </trkpt>
      <trkpt lat="39.7049300" lon="-0.4253970">
        <ele>712.9</ele>
        <time>2022-11-06T07:51:40Z</time>
      </trkpt>
      <trkpt lat="39.7049220" lon="-0.4253870">
        <ele>713.0</ele>
        <time>2022-11-06T07:51:41Z</time>
      </trkpt>
      <trkpt lat="39.7049060" lon="-0.4253720">
        <ele>713.3</ele>
        <time>2022-11-06T07:51:42Z</time>
      </trkpt>
      <trkpt lat="39.7048960" lon="-0.4253570">
        <ele>713.5</ele>
        <time>2022-11-06T07:51:43Z</time>
      </trkpt>
      <trkpt lat="39.7048850" lon="-0.4253450">
        <ele>713.7</ele>
        <time>2022-11-06T07:51:44Z</time>
      </trkpt>
      <trkpt lat="39.7048710" lon="-0.4253320">
        <ele>713.9</ele>
        <time>2022-11-06T07:51:45Z</time>
      </trkpt>
      <trkpt lat="39.7048610" lon="-0.4253200">
        <ele>714.1</ele>
        <time>2022-11-06T07:51:46Z</time>
      </trkpt>
      <trkpt lat="39.7048500" lon="-0.4253100">
        <ele>714.3</ele>
        <time>2022-11-06T07:51:47Z</time>
      </trkpt>
      <trkpt lat="39.7048420" lon="-0.4253030">
        <ele>714.4</ele>
        <time>2022-11-06T07:51:48Z</time>
      </trkpt>
      <trkpt lat="39.7048310" lon="-0.4252950">
        <ele>714.6</ele>
        <time>2022-11-06T07:51:49Z</time>
      </trkpt>
      <trkpt lat="39.7048310" lon="-0.4252950">
        <ele>714.6</ele>
        <time>2022-11-06T07:51:50Z</time>
      </trkpt>
      <trkpt lat="39.7048100" lon="-0.4252650">
        <ele>715.0</ele>
        <time>2022-11-06T07:51:51Z</time>
      </trkpt>
      <trkpt lat="39.7047990" lon="-0.4252530">
        <ele>715.2</ele>
        <time>2022-11-06T07:51:52Z</time>
      </trkpt>
      <trkpt lat="39.7047880" lon="-0.4252420">
        <ele>715.4</ele>
        <time>2022-11-06T07:51:53Z</time>
      </trkpt>
      <trkpt lat="39.7047780" lon="-0.4252280">
        <ele>715.6</ele>
        <time>2022-11-06T07:51:54Z</time>
      </trkpt>
      <trkpt lat="39.7047640" lon="-0.4252180">
        <ele>715.8</ele>
        <time>2022-11-06T07:51:55Z</time>
      </trkpt>
      <trkpt lat="39.7047530" lon="-0.4252100">
        <ele>716.0</ele>
        <time>2022-11-06T07:51:56Z</time>
      </trkpt>
      <trkpt lat="39.7047430" lon="-0.4251980">
        <ele>716.2</ele>
        <time>2022-11-06T07:51:57Z</time>
      </trkpt>
      <trkpt lat="39.7047320" lon="-0.4251820">
        <ele>716.5</ele>
        <time>2022-11-06T07:51:58Z</time>
      </trkpt>
      <trkpt lat="39.7047320" lon="-0.4251820">
        <ele>716.5</ele>
        <time>2022-11-06T07:51:59Z</time>
      </trkpt>
      <trkpt lat="39.7047320" lon="-0.4251820">
        <ele>716.5</ele>
        <time>2022-11-06T07:52:00Z</time>
      </trkpt>
      <trkpt lat="39.7046920" lon="-0.4251470">
        <ele>717.3</ele>
        <time>2022-11-06T07:52:01Z</time>
      </trkpt>
      <trkpt lat="39.7046810" lon="-0.4251380">
        <ele>717.5</ele>
        <time>2022-11-06T07:52:02Z</time>
      </trkpt>
      <trkpt lat="39.7046700" lon="-0.4251300">
        <ele>717.7</ele>
        <time>2022-11-06T07:52:03Z</time>
      </trkpt>
      <trkpt lat="39.7046540" lon="-0.4251220">
        <ele>718.0</ele>
        <time>2022-11-06T07:52:04Z</time>
      </trkpt>
      <trkpt lat="39.7046430" lon="-0.4251150">
        <ele>718.2</ele>
        <time>2022-11-06T07:52:05Z</time>
      </trkpt>
      <trkpt lat="39.7046330" lon="-0.4251100">
        <ele>718.4</ele>
        <time>2022-11-06T07:52:06Z</time>
      </trkpt>
      <trkpt lat="39.7046170" lon="-0.4251050">
        <ele>718.7</ele>
        <time>2022-11-06T07:52:07Z</time>
      </trkpt>
      <trkpt lat="39.7046060" lon="-0.4251000">
        <ele>719.0</ele>
        <time>2022-11-06T07:52:08Z</time>
      </trkpt>
      <trkpt lat="39.7045900" lon="-0.4250930">
        <ele>719.3</ele>
        <time>2022-11-06T07:52:09Z</time>
      </trkpt>
      <trkpt lat="39.7045900" lon="-0.4250930">
        <ele>719.3</ele>
        <time>2022-11-06T07:52:10Z</time>
      </trkpt>
      <trkpt lat="39.7045900" lon="-0.4250930">
        <ele>719.3</ele>
        <time>2022-11-06T07:52:11Z</time>
      </trkpt>
      <trkpt lat="39.7045520" lon="-0.4250900">
        <ele>720.0</ele>
        <time>2022-11-06T07:52:12Z</time>
      </trkpt>
      <trkpt lat="39.7045360" lon="-0.4250870">
        <ele>720.3</ele>
        <time>2022-11-06T07:52:13Z</time>
      </trkpt>
      <trkpt lat="39.7045200" lon="-0.4250830">
        <ele>720.6</ele>
        <time>2022-11-06T07:52:14Z</time>
      </trkpt>
      <trkpt lat="39.7045090" lon="-0.4250800">
        <ele>720.8</ele>
        <time>2022-11-06T07:52:15Z</time>
      </trkpt>
      <trkpt lat="39.7044990" lon="-0.4250780">
        <ele>721.0</ele>
        <time>2022-11-06T07:52:16Z</time>
      </trkpt>
      <trkpt lat="39.7044830" lon="-0.4250770">
        <ele>721.3</ele>
        <time>2022-11-06T07:52:17Z</time>
      </trkpt>
      <trkpt lat="39.7044720" lon="-0.4250750">
        <ele>721.5</ele>
        <time>2022-11-06T07:52:18Z</time>
      </trkpt>
      <trkpt lat="39.7044610" lon="-0.4250700">
        <ele>721.7</ele>
        <time>2022-11-06T07:52:19Z</time>
      </trkpt>
      <trkpt lat="39.7044610" lon="-0.4250700">
        <ele>721.7</ele>
        <time>2022-11-06T07:52:20Z</time>
      </trkpt>
      <trkpt lat="39.7044340" lon="-0.4250600">
        <ele>722.2</ele>
        <time>2022-11-06T07:52:21Z</time>
      </trkpt>
      <trkpt lat="39.7044210" lon="-0.4250550">
        <ele>722.5</ele>
        <time>2022-11-06T07:52:22Z</time>
      </trkpt>
      <trkpt lat="39.7044100" lon="-0.4250520">
        <ele>722.7</ele>
        <time>2022-11-06T07:52:23Z</time>
      </trkpt>
      <trkpt lat="39.7043990" lon="-0.4250480">
        <ele>722.9</ele>
        <time>2022-11-06T07:52:24Z</time>
      </trkpt>
      <trkpt lat="39.7043830" lon="-0.4250450">
        <ele>723.2</ele>
        <time>2022-11-06T07:52:25Z</time>
      </trkpt>
      <trkpt lat="39.7043730" lon="-0.4250420">
        <ele>723.3</ele>
        <time>2022-11-06T07:52:26Z</time>
      </trkpt>
      <trkpt lat="39.7043620" lon="-0.4250380">
        <ele>723.5</ele>
        <time>2022-11-06T07:52:27Z</time>
      </trkpt>
      <trkpt lat="39.7043460" lon="-0.4250380">
        <ele>723.8</ele>
        <time>2022-11-06T07:52:28Z</time>
      </trkpt>
      <trkpt lat="39.7043350" lon="-0.4250400">
        <ele>724.0</ele>
        <time>2022-11-06T07:52:29Z</time>
      </trkpt>
      <trkpt lat="39.7043220" lon="-0.4250480">
        <ele>724.3</ele>
        <time>2022-11-06T07:52:30Z</time>
      </trkpt>
      <trkpt lat="39.7043220" lon="-0.4250480">
        <ele>724.3</ele>
        <time>2022-11-06T07:52:31Z</time>
      </trkpt>
      <trkpt lat="39.7043000" lon="-0.4250670">
        <ele>724.7</ele>
        <time>2022-11-06T07:52:32Z</time>
      </trkpt>
      <trkpt lat="39.7042890" lon="-0.4250720">
        <ele>724.9</ele>
        <time>2022-11-06T07:52:33Z</time>
      </trkpt>
      <trkpt lat="39.7042730" lon="-0.4250770">
        <ele>725.1</ele>
        <time>2022-11-06T07:52:34Z</time>
      </trkpt>
      <trkpt lat="39.7042630" lon="-0.4250830">
        <ele>725.3</ele>
        <time>2022-11-06T07:52:35Z</time>
      </trkpt>
      <trkpt lat="39.7042490" lon="-0.4250950">
        <ele>725.6</ele>
        <time>2022-11-06T07:52:36Z</time>
      </trkpt>
      <trkpt lat="39.7042380" lon="-0.4251020">
        <ele>725.7</ele>
        <time>2022-11-06T07:52:37Z</time>
      </trkpt>
      <trkpt lat="39.7042300" lon="-0.4251150">
        <ele>725.9</ele>
        <time>2022-11-06T07:52:38Z</time>
      </trkpt>
      <trkpt lat="39.7042170" lon="-0.4251180">
        <ele>726.1</ele>
        <time>2022-11-06T07:52:39Z</time>
      </trkpt>
      <trkpt lat="39.7042010" lon="-0.4251270">
        <ele>726.3</ele>
        <time>2022-11-06T07:52:40Z</time>
      </trkpt>
      <trkpt lat="39.7042010" lon="-0.4251270">
        <ele>726.3</ele>
        <time>2022-11-06T07:52:41Z</time>
      </trkpt>
      <trkpt lat="39.7041770" lon="-0.4251430">
        <ele>726.6</ele>
        <time>2022-11-06T07:52:42Z</time>
      </trkpt>
      <trkpt lat="39.7041660" lon="-0.4251530">
        <ele>726.7</ele>
        <time>2022-11-06T07:52:43Z</time>
      </trkpt>
      <trkpt lat="39.7041550" lon="-0.4251630">
        <ele>726.8</ele>
        <time>2022-11-06T07:52:44Z</time>
      </trkpt>
      <trkpt lat="39.7041470" lon="-0.4251750">
        <ele>726.9</ele>
        <time>2022-11-06T07:52:45Z</time>
      </trkpt>
      <trkpt lat="39.7041390" lon="-0.4251900">
        <ele>727.1</ele>
        <time>2022-11-06T07:52:46Z</time>
      </trkpt>
      <trkpt lat="39.7041290" lon="-0.4252000">
        <ele>727.2</ele>
        <time>2022-11-06T07:52:47Z</time>
      </trkpt>
      <trkpt lat="39.7041180" lon="-0.4252120">
        <ele>727.3</ele>
        <time>2022-11-06T07:52:48Z</time>
      </trkpt>
      <trkpt lat="39.7041040" lon="-0.4252250">
        <ele>727.4</ele>
        <time>2022-11-06T07:52:49Z</time>
      </trkpt>
      <trkpt lat="39.7040990" lon="-0.4252370">
        <ele>727.5</ele>
        <time>2022-11-06T07:52:50Z</time>
      </trkpt>
      <trkpt lat="39.7040990" lon="-0.4252370">
        <ele>727.5</ele>
        <time>2022-11-06T07:52:51Z</time>
      </trkpt>
      <trkpt lat="39.7040990" lon="-0.4252370">
        <ele>727.5</ele>
        <time>2022-11-06T07:52:52Z</time>
      </trkpt>
      <trkpt lat="39.7040670" lon="-0.4252770">
        <ele>727.8</ele>
        <time>2022-11-06T07:52:53Z</time>
      </trkpt>
      <trkpt lat="39.7040640" lon="-0.4252950">
        <ele>727.9</ele>
        <time>2022-11-06T07:52:54Z</time>
      </trkpt>
      <trkpt lat="39.7040560" lon="-0.4253120">
        <ele>727.9</ele>
        <time>2022-11-06T07:52:55Z</time>
      </trkpt>
      <trkpt lat="39.7040480" lon="-0.4253280">
        <ele>728.0</ele>
        <time>2022-11-06T07:52:56Z</time>
      </trkpt>
      <trkpt lat="39.7040450" lon="-0.4253430">
        <ele>728.1</ele>
        <time>2022-11-06T07:52:57Z</time>
      </trkpt>
      <trkpt lat="39.7040370" lon="-0.4253580">
        <ele>728.1</ele>
        <time>2022-11-06T07:52:58Z</time>
      </trkpt>
      <trkpt lat="39.7040320" lon="-0.4253750">
        <ele>728.2</ele>
        <time>2022-11-06T07:52:59Z</time>
      </trkpt>
      <trkpt lat="39.7040290" lon="-0.4253920">
        <ele>728.2</ele>
        <time>2022-11-06T07:53:00Z</time>
      </trkpt>
      <trkpt lat="39.7040290" lon="-0.4253920">
        <ele>728.2</ele>
        <time>2022-11-06T07:53:01Z</time>
      </trkpt>
      <trkpt lat="39.7040290" lon="-0.4253920">
        <ele>728.2</ele>
        <time>2022-11-06T07:53:02Z</time>
      </trkpt>
      <trkpt lat="39.7040210" lon="-0.4254400">
        <ele>728.3</ele>
        <time>2022-11-06T07:53:03Z</time>
      </trkpt>
      <trkpt lat="39.7040190" lon="-0.4254580">
        <ele>728.3</ele>
        <time>2022-11-06T07:53:04Z</time>
      </trkpt>
      <trkpt lat="39.7040100" lon="-0.4254770">
        <ele>728.4</ele>
        <time>2022-11-06T07:53:05Z</time>
      </trkpt>
      <trkpt lat="39.7040100" lon="-0.4254970">
        <ele>728.4</ele>
        <time>2022-11-06T07:53:06Z</time>
      </trkpt>
      <trkpt lat="39.7040050" lon="-0.4255180">
        <ele>728.4</ele>
        <time>2022-11-06T07:53:07Z</time>
      </trkpt>
      <trkpt lat="39.7040020" lon="-0.4255420">
        <ele>728.4</ele>
        <time>2022-11-06T07:53:08Z</time>
      </trkpt>
      <trkpt lat="39.7040000" lon="-0.4255670">
        <ele>728.4</ele>
        <time>2022-11-06T07:53:09Z</time>
      </trkpt>
      <trkpt lat="39.7040000" lon="-0.4255930">
        <ele>728.4</ele>
        <time>2022-11-06T07:53:10Z</time>
      </trkpt>
      <trkpt lat="39.7040020" lon="-0.4256270">
        <ele>728.4</ele>
        <time>2022-11-06T07:53:11Z</time>
      </trkpt>
      <trkpt lat="39.7040020" lon="-0.4256270">
        <ele>728.4</ele>
        <time>2022-11-06T07:53:12Z</time>
      </trkpt>
      <trkpt lat="39.7040270" lon="-0.4256900">
        <ele>728.4</ele>
        <time>2022-11-06T07:53:13Z</time>
      </trkpt>
      <trkpt lat="39.7040370" lon="-0.4257220">
        <ele>728.4</ele>
        <time>2022-11-06T07:53:14Z</time>
      </trkpt>
      <trkpt lat="39.7040510" lon="-0.4257500">
        <ele>728.4</ele>
        <time>2022-11-06T07:53:15Z</time>
      </trkpt>
      <trkpt lat="39.7040670" lon="-0.4257780">
        <ele>728.4</ele>
        <time>2022-11-06T07:53:16Z</time>
      </trkpt>
      <trkpt lat="39.7040750" lon="-0.4258130">
        <ele>728.4</ele>
        <time>2022-11-06T07:53:17Z</time>
      </trkpt>
      <trkpt lat="39.7040640" lon="-0.4258400">
        <ele>728.4</ele>
        <time>2022-11-06T07:53:18Z</time>
      </trkpt>
      <trkpt lat="39.7040510" lon="-0.4258570">
        <ele>728.4</ele>
        <time>2022-11-06T07:53:19Z</time>
      </trkpt>
      <trkpt lat="39.7040400" lon="-0.4258680">
        <ele>728.4</ele>
        <time>2022-11-06T07:53:20Z</time>
      </trkpt>
      <trkpt lat="39.7040320" lon="-0.4258730">
        <ele>728.4</ele>
        <time>2022-11-06T07:53:21Z</time>
      </trkpt>
      <trkpt lat="39.7040320" lon="-0.4258730">
        <ele>728.4</ele>
        <time>2022-11-06T07:53:22Z</time>
      </trkpt>
      <trkpt lat="39.7040320" lon="-0.4258800">
        <ele>728.4</ele>
        <time>2022-11-06T07:53:23Z</time>
      </trkpt>
      <trkpt lat="39.7040130" lon="-0.4258300">
        <ele>728.4</ele>
        <time>2022-11-06T07:58:58Z</time>
      </trkpt>
      <trkpt lat="39.7040210" lon="-0.4258250">
        <ele>728.4</ele>
        <time>2022-11-06T07:58:59Z</time>
      </trkpt>
      <trkpt lat="39.7040320" lon="-0.4258170">
        <ele>728.4</ele>
        <time>2022-11-06T07:59:00Z</time>
      </trkpt>
      <trkpt lat="39.7040400" lon="-0.4257970">
        <ele>728.4</ele>
        <time>2022-11-06T07:59:01Z</time>
      </trkpt>
      <trkpt lat="39.7040370" lon="-0.4257630">
        <ele>728.4</ele>
        <time>2022-11-06T07:59:02Z</time>
      </trkpt>
      <trkpt lat="39.7040210" lon="-0.4257580">
        <ele>728.4</ele>
        <time>2022-11-06T07:59:03Z</time>
      </trkpt>
      <trkpt lat="39.7040050" lon="-0.4257520">
        <ele>728.4</ele>
        <time>2022-11-06T07:59:04Z</time>
      </trkpt>
      <trkpt lat="39.7040050" lon="-0.4257520">
        <ele>728.4</ele>
        <time>2022-11-06T07:59:05Z</time>
      </trkpt>
      <trkpt lat="39.7039920" lon="-0.4257380">
        <ele>728.4</ele>
        <time>2022-11-06T07:59:06Z</time>
      </trkpt>
      <trkpt lat="39.7039840" lon="-0.4257230">
        <ele>728.4</ele>
        <time>2022-11-06T07:59:07Z</time>
      </trkpt>
      <trkpt lat="39.7039840" lon="-0.4257080">
        <ele>728.4</ele>
        <time>2022-11-06T07:59:08Z</time>
      </trkpt>
      <trkpt lat="39.7039780" lon="-0.4256900">
        <ele>728.4</ele>
        <time>2022-11-06T07:59:09Z</time>
      </trkpt>
      <trkpt lat="39.7039780" lon="-0.4256720">
        <ele>728.3</ele>
        <time>2022-11-06T07:59:10Z</time>
      </trkpt>
      <trkpt lat="39.7039780" lon="-0.4256720">
        <ele>728.3</ele>
        <time>2022-11-06T07:59:11Z</time>
      </trkpt>
      <trkpt lat="39.7039730" lon="-0.4256220">
        <ele>728.3</ele>
        <time>2022-11-06T07:59:12Z</time>
      </trkpt>
      <trkpt lat="39.7039730" lon="-0.4256030">
        <ele>728.2</ele>
        <time>2022-11-06T07:59:13Z</time>
      </trkpt>
      <trkpt lat="39.7039730" lon="-0.4255870">
        <ele>728.2</ele>
        <time>2022-11-06T07:59:14Z</time>
      </trkpt>
      <trkpt lat="39.7039730" lon="-0.4255700">
        <ele>728.1</ele>
        <time>2022-11-06T07:59:15Z</time>
      </trkpt>
      <trkpt lat="39.7039730" lon="-0.4255700">
        <ele>728.1</ele>
        <time>2022-11-06T07:59:16Z</time>
      </trkpt>
      <trkpt lat="39.7039760" lon="-0.4255530">
        <ele>728.1</ele>
        <time>2022-11-06T07:59:17Z</time>
      </trkpt>
      <trkpt lat="39.7039780" lon="-0.4255330">
        <ele>728.0</ele>
        <time>2022-11-06T07:59:18Z</time>
      </trkpt>
      <trkpt lat="39.7039840" lon="-0.4255170">
        <ele>727.9</ele>
        <time>2022-11-06T07:59:19Z</time>
      </trkpt>
      <trkpt lat="39.7039840" lon="-0.4255000">
        <ele>727.9</ele>
        <time>2022-11-06T07:59:20Z</time>
      </trkpt>
      <trkpt lat="39.7039840" lon="-0.4254830">
        <ele>727.8</ele>
        <time>2022-11-06T07:59:21Z</time>
      </trkpt>
      <trkpt lat="39.7039840" lon="-0.4254830">
        <ele>727.8</ele>
        <time>2022-11-06T07:59:22Z</time>
      </trkpt>
      <trkpt lat="39.7039920" lon="-0.4254630">
        <ele>727.7</ele>
        <time>2022-11-06T07:59:23Z</time>
      </trkpt>
      <trkpt lat="39.7040020" lon="-0.4254220">
        <ele>727.5</ele>
        <time>2022-11-06T08:00:31Z</time>
      </trkpt>
      <trkpt lat="39.7040130" lon="-0.4254020">
        <ele>727.3</ele>
        <time>2022-11-06T08:00:32Z</time>
      </trkpt>
      <trkpt lat="39.7040270" lon="-0.4253830">
        <ele>727.2</ele>
        <time>2022-11-06T08:00:33Z</time>
      </trkpt>
      <trkpt lat="39.7040480" lon="-0.4253300">
        <ele>726.7</ele>
        <time>2022-11-06T08:00:34Z</time>
      </trkpt>
      <trkpt lat="39.7040590" lon="-0.4252950">
        <ele>726.4</ele>
        <time>2022-11-06T08:00:35Z</time>
      </trkpt>
      <trkpt lat="39.7040670" lon="-0.4252700">
        <ele>726.2</ele>
        <time>2022-11-06T08:00:36Z</time>
      </trkpt>
      <trkpt lat="39.7040830" lon="-0.4252500">
        <ele>725.9</ele>
        <time>2022-11-06T08:00:37Z</time>
      </trkpt>
      <trkpt lat="39.7040910" lon="-0.4252280">
        <ele>725.7</ele>
        <time>2022-11-06T08:00:38Z</time>
      </trkpt>
      <trkpt lat="39.7041020" lon="-0.4252100">
        <ele>725.4</ele>
        <time>2022-11-06T08:00:39Z</time>
      </trkpt>
      <trkpt lat="39.7041020" lon="-0.4252100">
        <ele>725.4</ele>
        <time>2022-11-06T08:00:40Z</time>
      </trkpt>
      <trkpt lat="39.7041040" lon="-0.4251980">
        <ele>725.3</ele>
        <time>2022-11-06T08:00:41Z</time>
      </trkpt>
      <trkpt lat="39.7041040" lon="-0.4251930">
        <ele>725.2</ele>
        <time>2022-11-06T08:00:42Z</time>
      </trkpt>
      <trkpt lat="39.7041290" lon="-0.4251600">
        <ele>724.7</ele>
        <time>2022-11-06T08:01:19Z</time>
      </trkpt>
      <trkpt lat="39.7041450" lon="-0.4251500">
        <ele>724.3</ele>
        <time>2022-11-06T08:01:20Z</time>
      </trkpt>
      <trkpt lat="39.7041630" lon="-0.4251370">
        <ele>724.0</ele>
        <time>2022-11-06T08:01:21Z</time>
      </trkpt>
      <trkpt lat="39.7041630" lon="-0.4251370">
        <ele>724.0</ele>
        <time>2022-11-06T08:01:22Z</time>
      </trkpt>
      <trkpt lat="39.7041850" lon="-0.4251200">
        <ele>723.5</ele>
        <time>2022-11-06T08:01:23Z</time>
      </trkpt>
      <trkpt lat="39.7042090" lon="-0.4251000">
        <ele>723.0</ele>
        <time>2022-11-06T08:01:24Z</time>
      </trkpt>
      <trkpt lat="39.7042300" lon="-0.4250770">
        <ele>722.5</ele>
        <time>2022-11-06T08:01:25Z</time>
      </trkpt>
      <trkpt lat="39.7042810" lon="-0.4250350">
        <ele>721.4</ele>
        <time>2022-11-06T08:01:26Z</time>
      </trkpt>
      <trkpt lat="39.7043190" lon="-0.4250250">
        <ele>720.7</ele>
        <time>2022-11-06T08:01:27Z</time>
      </trkpt>
      <trkpt lat="39.7043650" lon="-0.4250270">
        <ele>719.8</ele>
        <time>2022-11-06T08:01:28Z</time>
      </trkpt>
      <trkpt lat="39.7044070" lon="-0.4250280">
        <ele>719.0</ele>
        <time>2022-11-06T08:01:29Z</time>
      </trkpt>
      <trkpt lat="39.7044530" lon="-0.4250370">
        <ele>718.2</ele>
        <time>2022-11-06T08:01:30Z</time>
      </trkpt>
      <trkpt lat="39.7044990" lon="-0.4250470">
        <ele>717.4</ele>
        <time>2022-11-06T08:01:31Z</time>
      </trkpt>
      <trkpt lat="39.7044990" lon="-0.4250470">
        <ele>717.4</ele>
        <time>2022-11-06T08:01:32Z</time>
      </trkpt>
      <trkpt lat="39.7045360" lon="-0.4250630">
        <ele>716.7</ele>
        <time>2022-11-06T08:01:33Z</time>
      </trkpt>
      <trkpt lat="39.7045790" lon="-0.4250880">
        <ele>716.0</ele>
        <time>2022-11-06T08:01:34Z</time>
      </trkpt>
      <trkpt lat="39.7046250" lon="-0.4251130">
        <ele>715.2</ele>
        <time>2022-11-06T08:01:35Z</time>
      </trkpt>
      <trkpt lat="39.7047160" lon="-0.4251730">
        <ele>713.8</ele>
        <time>2022-11-06T08:01:36Z</time>
      </trkpt>
      <trkpt lat="39.7047620" lon="-0.4252130">
        <ele>713.1</ele>
        <time>2022-11-06T08:01:37Z</time>
      </trkpt>
      <trkpt lat="39.7048040" lon="-0.4252600">
        <ele>712.3</ele>
        <time>2022-11-06T08:01:38Z</time>
      </trkpt>
      <trkpt lat="39.7048500" lon="-0.4253020">
        <ele>711.3</ele>
        <time>2022-11-06T08:01:39Z</time>
      </trkpt>
      <trkpt lat="39.7048900" lon="-0.4253450">
        <ele>710.5</ele>
        <time>2022-11-06T08:01:40Z</time>
      </trkpt>
      <trkpt lat="39.7049300" lon="-0.4253920">
        <ele>709.6</ele>
        <time>2022-11-06T08:01:41Z</time>
      </trkpt>
      <trkpt lat="39.7049600" lon="-0.4254300">
        <ele>709.1</ele>
        <time>2022-11-06T08:01:42Z</time>
      </trkpt>
      <trkpt lat="39.7049600" lon="-0.4254300">
        <ele>709.1</ele>
        <time>2022-11-06T08:01:43Z</time>
      </trkpt>
      <trkpt lat="39.7049870" lon="-0.4254530">
        <ele>708.7</ele>
        <time>2022-11-06T08:01:44Z</time>
      </trkpt>
      <trkpt lat="39.7050080" lon="-0.4254570">
        <ele>708.4</ele>
        <time>2022-11-06T08:01:45Z</time>
      </trkpt>
      <trkpt lat="39.7050080" lon="-0.4254570">
        <ele>708.4</ele>
        <time>2022-11-06T08:01:46Z</time>
      </trkpt>
      <trkpt lat="39.7050400" lon="-0.4253850">
        <ele>707.7</ele>
        <time>2022-11-06T08:01:47Z</time>
      </trkpt>
      <trkpt lat="39.7050350" lon="-0.4253450">
        <ele>707.3</ele>
        <time>2022-11-06T08:01:48Z</time>
      </trkpt>
      <trkpt lat="39.7050220" lon="-0.4253100">
        <ele>706.9</ele>
        <time>2022-11-06T08:01:49Z</time>
      </trkpt>
      <trkpt lat="39.7050030" lon="-0.4252680">
        <ele>706.5</ele>
        <time>2022-11-06T08:01:50Z</time>
      </trkpt>
      <trkpt lat="39.7049810" lon="-0.4252300">
        <ele>706.0</ele>
        <time>2022-11-06T08:01:51Z</time>
      </trkpt>
      <trkpt lat="39.7049600" lon="-0.4251920">
        <ele>705.5</ele>
        <time>2022-11-06T08:01:52Z</time>
      </trkpt>
      <trkpt lat="39.7049600" lon="-0.4251920">
        <ele>705.5</ele>
        <time>2022-11-06T08:01:53Z</time>
      </trkpt>
      <trkpt lat="39.7049410" lon="-0.4251420">
        <ele>704.9</ele>
        <time>2022-11-06T08:01:54Z</time>
      </trkpt>
      <trkpt lat="39.7049220" lon="-0.4251000">
        <ele>704.4</ele>
        <time>2022-11-06T08:01:55Z</time>
      </trkpt>
      <trkpt lat="39.7049410" lon="-0.4250470">
        <ele>703.8</ele>
        <time>2022-11-06T08:01:56Z</time>
      </trkpt>
      <trkpt lat="39.7049570" lon="-0.4250300">
        <ele>703.6</ele>
        <time>2022-11-06T08:01:57Z</time>
      </trkpt>
      <trkpt lat="39.7049790" lon="-0.4250130">
        <ele>703.3</ele>
        <time>2022-11-06T08:01:58Z</time>
      </trkpt>
      <trkpt lat="39.7049950" lon="-0.4250170">
        <ele>703.1</ele>
        <time>2022-11-06T08:01:59Z</time>
      </trkpt>
      <trkpt lat="39.7050140" lon="-0.4250320">
        <ele>702.8</ele>
        <time>2022-11-06T08:02:00Z</time>
      </trkpt>
      <trkpt lat="39.7050350" lon="-0.4250580">
        <ele>702.5</ele>
        <time>2022-11-06T08:02:01Z</time>
      </trkpt>
      <trkpt lat="39.7050590" lon="-0.4250950">
        <ele>702.0</ele>
        <time>2022-11-06T08:02:02Z</time>
      </trkpt>
      <trkpt lat="39.7050810" lon="-0.4251420">
        <ele>701.6</ele>
        <time>2022-11-06T08:02:03Z</time>
      </trkpt>
      <trkpt lat="39.7050810" lon="-0.4251420">
        <ele>701.6</ele>
        <time>2022-11-06T08:02:04Z</time>
      </trkpt>
      <trkpt lat="39.7051130" lon="-0.4251880">
        <ele>701.1</ele>
        <time>2022-11-06T08:02:05Z</time>
      </trkpt>
      <trkpt lat="39.7051530" lon="-0.4252420">
        <ele>700.6</ele>
        <time>2022-11-06T08:02:06Z</time>
      </trkpt>
      <trkpt lat="39.7052470" lon="-0.4253580">
        <ele>699.7</ele>
        <time>2022-11-06T08:02:07Z</time>
      </trkpt>
      <trkpt lat="39.7052930" lon="-0.4254250">
        <ele>699.2</ele>
        <time>2022-11-06T08:02:08Z</time>
      </trkpt>
      <trkpt lat="39.7053330" lon="-0.4254950">
        <ele>698.8</ele>
        <time>2022-11-06T08:02:09Z</time>
      </trkpt>
      <trkpt lat="39.7053680" lon="-0.4255720">
        <ele>698.3</ele>
        <time>2022-11-06T08:02:10Z</time>
      </trkpt>
      <trkpt lat="39.7054050" lon="-0.4256430">
        <ele>697.8</ele>
        <time>2022-11-06T08:02:11Z</time>
      </trkpt>
      <trkpt lat="39.7054450" lon="-0.4257120">
        <ele>697.3</ele>
        <time>2022-11-06T08:02:12Z</time>
      </trkpt>
      <trkpt lat="39.7054860" lon="-0.4257780">
        <ele>696.7</ele>
        <time>2022-11-06T08:02:13Z</time>
      </trkpt>
      <trkpt lat="39.7054860" lon="-0.4257780">
        <ele>696.7</ele>
        <time>2022-11-06T08:02:14Z</time>
      </trkpt>
      <trkpt lat="39.7055230" lon="-0.4258420">
        <ele>696.0</ele>
        <time>2022-11-06T08:02:15Z</time>
      </trkpt>
      <trkpt lat="39.7055580" lon="-0.4259050">
        <ele>695.3</ele>
        <time>2022-11-06T08:02:16Z</time>
      </trkpt>
      <trkpt lat="39.7056220" lon="-0.4259980">
        <ele>694.0</ele>
        <time>2022-11-06T08:02:17Z</time>
      </trkpt>
      <trkpt lat="39.7056570" lon="-0.4260200">
        <ele>693.4</ele>
        <time>2022-11-06T08:02:18Z</time>
      </trkpt>
      <trkpt lat="39.7056900" lon="-0.4260470">
        <ele>692.8</ele>
        <time>2022-11-06T08:02:19Z</time>
      </trkpt>
      <trkpt lat="39.7057220" lon="-0.4260770">
        <ele>692.2</ele>
        <time>2022-11-06T08:02:20Z</time>
      </trkpt>
      <trkpt lat="39.7057620" lon="-0.4261130">
        <ele>691.4</ele>
        <time>2022-11-06T08:02:21Z</time>
      </trkpt>
      <trkpt lat="39.7057940" lon="-0.4261450">
        <ele>690.8</ele>
        <time>2022-11-06T08:02:22Z</time>
      </trkpt>
      <trkpt lat="39.7058340" lon="-0.4261870">
        <ele>690.0</ele>
        <time>2022-11-06T08:02:23Z</time>
      </trkpt>
      <trkpt lat="39.7058670" lon="-0.4262300">
        <ele>689.3</ele>
        <time>2022-11-06T08:02:24Z</time>
      </trkpt>
      <trkpt lat="39.7058670" lon="-0.4262300">
        <ele>689.3</ele>
        <time>2022-11-06T08:02:25Z</time>
      </trkpt>
      <trkpt lat="39.7059010" lon="-0.4262750">
        <ele>688.5</ele>
        <time>2022-11-06T08:02:26Z</time>
      </trkpt>
      <trkpt lat="39.7059010" lon="-0.4262750">
        <ele>688.5</ele>
        <time>2022-11-06T08:02:27Z</time>
      </trkpt>
      <trkpt lat="39.7059820" lon="-0.4264180">
        <ele>686.4</ele>
        <time>2022-11-06T08:02:28Z</time>
      </trkpt>
      <trkpt lat="39.7060010" lon="-0.4264650">
        <ele>685.8</ele>
        <time>2022-11-06T08:02:29Z</time>
      </trkpt>
      <trkpt lat="39.7060170" lon="-0.4265130">
        <ele>685.1</ele>
        <time>2022-11-06T08:02:30Z</time>
      </trkpt>
      <trkpt lat="39.7060280" lon="-0.4265600">
        <ele>684.5</ele>
        <time>2022-11-06T08:02:31Z</time>
      </trkpt>
      <trkpt lat="39.7060330" lon="-0.4266120">
        <ele>683.8</ele>
        <time>2022-11-06T08:02:32Z</time>
      </trkpt>
      <trkpt lat="39.7060460" lon="-0.4266600">
        <ele>683.2</ele>
        <time>2022-11-06T08:02:33Z</time>
      </trkpt>
      <trkpt lat="39.7060700" lon="-0.4266880">
        <ele>682.7</ele>
        <time>2022-11-06T08:02:34Z</time>
      </trkpt>
      <trkpt lat="39.7060700" lon="-0.4266880">
        <ele>682.7</ele>
        <time>2022-11-06T08:02:35Z</time>
      </trkpt>
      <trkpt lat="39.7060970" lon="-0.4267050">
        <ele>682.3</ele>
        <time>2022-11-06T08:02:36Z</time>
      </trkpt>
      <trkpt lat="39.7060970" lon="-0.4267050">
        <ele>682.3</ele>
        <time>2022-11-06T08:02:37Z</time>
      </trkpt>
      <trkpt lat="39.7061540" lon="-0.4266800">
        <ele>681.5</ele>
        <time>2022-11-06T08:02:38Z</time>
      </trkpt>
      <trkpt lat="39.7061620" lon="-0.4266530">
        <ele>681.2</ele>
        <time>2022-11-06T08:02:39Z</time>
      </trkpt>
      <trkpt lat="39.7061620" lon="-0.4266230">
        <ele>680.9</ele>
        <time>2022-11-06T08:02:40Z</time>
      </trkpt>
      <trkpt lat="39.7061640" lon="-0.4265870">
        <ele>680.6</ele>
        <time>2022-11-06T08:02:41Z</time>
      </trkpt>
      <trkpt lat="39.7061640" lon="-0.4265370">
        <ele>680.2</ele>
        <time>2022-11-06T08:02:42Z</time>
      </trkpt>
      <trkpt lat="39.7061700" lon="-0.4264850">
        <ele>679.8</ele>
        <time>2022-11-06T08:02:43Z</time>
      </trkpt>
      <trkpt lat="39.7061700" lon="-0.4264230">
        <ele>679.2</ele>
        <time>2022-11-06T08:02:44Z</time>
      </trkpt>
      <trkpt lat="39.7061640" lon="-0.4263650">
        <ele>678.6</ele>
        <time>2022-11-06T08:02:45Z</time>
      </trkpt>
      <trkpt lat="39.7061640" lon="-0.4263650">
        <ele>678.6</ele>
        <time>2022-11-06T08:02:46Z</time>
      </trkpt>
      <trkpt lat="39.7061620" lon="-0.4263070">
        <ele>678.0</ele>
        <time>2022-11-06T08:02:47Z</time>
      </trkpt>
      <trkpt lat="39.7061590" lon="-0.4261900">
        <ele>676.5</ele>
        <time>2022-11-06T08:02:48Z</time>
      </trkpt>
      <trkpt lat="39.7061620" lon="-0.4261420">
        <ele>675.9</ele>
        <time>2022-11-06T08:02:49Z</time>
      </trkpt>
      <trkpt lat="39.7061700" lon="-0.4261250">
        <ele>675.7</ele>
        <time>2022-11-06T08:02:50Z</time>
      </trkpt>
      <trkpt lat="39.7061830" lon="-0.4261100">
        <ele>675.4</ele>
        <time>2022-11-06T08:02:51Z</time>
      </trkpt>
      <trkpt lat="39.7062070" lon="-0.4261130">
        <ele>675.0</ele>
        <time>2022-11-06T08:02:52Z</time>
      </trkpt>
      <trkpt lat="39.7062420" lon="-0.4261220">
        <ele>674.5</ele>
        <time>2022-11-06T08:02:53Z</time>
      </trkpt>
      <trkpt lat="39.7062690" lon="-0.4261450">
        <ele>674.1</ele>
        <time>2022-11-06T08:02:54Z</time>
      </trkpt>
      <trkpt lat="39.7062880" lon="-0.4261870">
        <ele>673.6</ele>
        <time>2022-11-06T08:02:55Z</time>
      </trkpt>
      <trkpt lat="39.7062880" lon="-0.4261870">
        <ele>673.6</ele>
        <time>2022-11-06T08:02:56Z</time>
      </trkpt>
      <trkpt lat="39.7063060" lon="-0.4262330">
        <ele>673.1</ele>
        <time>2022-11-06T08:02:57Z</time>
      </trkpt>
      <trkpt lat="39.7063600" lon="-0.4263550">
        <ele>671.8</ele>
        <time>2022-11-06T08:02:58Z</time>
      </trkpt>
      <trkpt lat="39.7063900" lon="-0.4264170">
        <ele>671.2</ele>
        <time>2022-11-06T08:02:59Z</time>
      </trkpt>
      <trkpt lat="39.7064220" lon="-0.4264770">
        <ele>670.5</ele>
        <time>2022-11-06T08:03:00Z</time>
      </trkpt>
      <trkpt lat="39.7064490" lon="-0.4265380">
        <ele>669.9</ele>
        <time>2022-11-06T08:03:01Z</time>
      </trkpt>
      <trkpt lat="39.7064670" lon="-0.4265970">
        <ele>669.3</ele>
        <time>2022-11-06T08:03:02Z</time>
      </trkpt>
      <trkpt lat="39.7064860" lon="-0.4266630">
        <ele>668.7</ele>
        <time>2022-11-06T08:03:03Z</time>
      </trkpt>
      <trkpt lat="39.7065020" lon="-0.4267320">
        <ele>668.0</ele>
        <time>2022-11-06T08:03:04Z</time>
      </trkpt>
      <trkpt lat="39.7065160" lon="-0.4267980">
        <ele>667.3</ele>
        <time>2022-11-06T08:03:05Z</time>
      </trkpt>
      <trkpt lat="39.7065240" lon="-0.4268650">
        <ele>666.7</ele>
        <time>2022-11-06T08:03:06Z</time>
      </trkpt>
      <trkpt lat="39.7065240" lon="-0.4268650">
        <ele>666.7</ele>
        <time>2022-11-06T08:03:07Z</time>
      </trkpt>
      <trkpt lat="39.7065320" lon="-0.4269280">
        <ele>666.1</ele>
        <time>2022-11-06T08:03:08Z</time>
      </trkpt>
      <trkpt lat="39.7065320" lon="-0.4270670">
        <ele>665.0</ele>
        <time>2022-11-06T08:03:09Z</time>
      </trkpt>
      <trkpt lat="39.7065240" lon="-0.4271420">
        <ele>664.4</ele>
        <time>2022-11-06T08:03:10Z</time>
      </trkpt>
      <trkpt lat="39.7065130" lon="-0.4272180">
        <ele>663.9</ele>
        <time>2022-11-06T08:03:11Z</time>
      </trkpt>
      <trkpt lat="39.7064970" lon="-0.4272970">
        <ele>663.4</ele>
        <time>2022-11-06T08:03:12Z</time>
      </trkpt>
      <trkpt lat="39.7064810" lon="-0.4273630">
        <ele>663.1</ele>
        <time>2022-11-06T08:03:13Z</time>
      </trkpt>
      <trkpt lat="39.7064670" lon="-0.4274230">
        <ele>662.7</ele>
        <time>2022-11-06T08:03:14Z</time>
      </trkpt>
      <trkpt lat="39.7064430" lon="-0.4274770">
        <ele>662.4</ele>
        <time>2022-11-06T08:03:15Z</time>
      </trkpt>
      <trkpt lat="39.7064240" lon="-0.4275300">
        <ele>662.0</ele>
        <time>2022-11-06T08:03:16Z</time>
      </trkpt>
      <trkpt lat="39.7064240" lon="-0.4275300">
        <ele>662.0</ele>
        <time>2022-11-06T08:03:17Z</time>
      </trkpt>
      <trkpt lat="39.7064240" lon="-0.4275300">
        <ele>662.0</ele>
        <time>2022-11-06T08:03:18Z</time>
      </trkpt>
      <trkpt lat="39.7063520" lon="-0.4276700">
        <ele>660.7</ele>
        <time>2022-11-06T08:03:19Z</time>
      </trkpt>
      <trkpt lat="39.7063330" lon="-0.4276970">
        <ele>660.3</ele>
        <time>2022-11-06T08:03:20Z</time>
      </trkpt>
      <trkpt lat="39.7063090" lon="-0.4277170">
        <ele>660.0</ele>
        <time>2022-11-06T08:03:21Z</time>
      </trkpt>
      <trkpt lat="39.7062820" lon="-0.4277300">
        <ele>659.6</ele>
        <time>2022-11-06T08:03:22Z</time>
      </trkpt>
      <trkpt lat="39.7062530" lon="-0.4277550">
        <ele>659.2</ele>
        <time>2022-11-06T08:03:23Z</time>
      </trkpt>
      <trkpt lat="39.7062310" lon="-0.4277820">
        <ele>658.8</ele>
        <time>2022-11-06T08:03:24Z</time>
      </trkpt>
      <trkpt lat="39.7062310" lon="-0.4278200">
        <ele>658.4</ele>
        <time>2022-11-06T08:03:25Z</time>
      </trkpt>
      <trkpt lat="39.7062370" lon="-0.4278530">
        <ele>658.0</ele>
        <time>2022-11-06T08:03:26Z</time>
      </trkpt>
      <trkpt lat="39.7062580" lon="-0.4278670">
        <ele>657.7</ele>
        <time>2022-11-06T08:03:27Z</time>
      </trkpt>
      <trkpt lat="39.7062580" lon="-0.4278670">
        <ele>657.7</ele>
        <time>2022-11-06T08:03:28Z</time>
      </trkpt>
      <trkpt lat="39.7062580" lon="-0.4278670">
        <ele>657.7</ele>
        <time>2022-11-06T08:03:29Z</time>
      </trkpt>
      <trkpt lat="39.7063410" lon="-0.4278670">
        <ele>656.4</ele>
        <time>2022-11-06T08:03:30Z</time>
      </trkpt>
      <trkpt lat="39.7063820" lon="-0.4278620">
        <ele>655.8</ele>
        <time>2022-11-06T08:03:31Z</time>
      </trkpt>
      <trkpt lat="39.7064220" lon="-0.4278570">
        <ele>655.1</ele>
        <time>2022-11-06T08:03:32Z</time>
      </trkpt>
      <trkpt lat="39.7064590" lon="-0.4278500">
        <ele>654.5</ele>
        <time>2022-11-06T08:03:33Z</time>
      </trkpt>
      <trkpt lat="39.7064940" lon="-0.4278400">
        <ele>653.9</ele>
        <time>2022-11-06T08:03:34Z</time>
      </trkpt>
      <trkpt lat="39.7065320" lon="-0.4278350">
        <ele>653.3</ele>
        <time>2022-11-06T08:03:35Z</time>
      </trkpt>
      <trkpt lat="39.7065690" lon="-0.4278270">
        <ele>652.6</ele>
        <time>2022-11-06T08:03:36Z</time>
      </trkpt>
      <trkpt lat="39.7066070" lon="-0.4278220">
        <ele>651.8</ele>
        <time>2022-11-06T08:03:37Z</time>
      </trkpt>
      <trkpt lat="39.7066070" lon="-0.4278220">
        <ele>651.8</ele>
        <time>2022-11-06T08:03:38Z</time>
      </trkpt>
      <trkpt lat="39.7066850" lon="-0.4278120">
        <ele>650.3</ele>
        <time>2022-11-06T08:03:39Z</time>
      </trkpt>
      <trkpt lat="39.7067200" lon="-0.4278030">
        <ele>649.6</ele>
        <time>2022-11-06T08:03:40Z</time>
      </trkpt>
      <trkpt lat="39.7067520" lon="-0.4277920">
        <ele>648.9</ele>
        <time>2022-11-06T08:03:41Z</time>
      </trkpt>
      <trkpt lat="39.7067840" lon="-0.4277750">
        <ele>648.2</ele>
        <time>2022-11-06T08:03:42Z</time>
      </trkpt>
      <trkpt lat="39.7068110" lon="-0.4277650">
        <ele>647.6</ele>
        <time>2022-11-06T08:03:43Z</time>
      </trkpt>
      <trkpt lat="39.7068400" lon="-0.4277530">
        <ele>647.0</ele>
        <time>2022-11-06T08:03:44Z</time>
      </trkpt>
      <trkpt lat="39.7068670" lon="-0.4277470">
        <ele>646.4</ele>
        <time>2022-11-06T08:03:45Z</time>
      </trkpt>
      <trkpt lat="39.7069020" lon="-0.4277430">
        <ele>645.7</ele>
        <time>2022-11-06T08:03:46Z</time>
      </trkpt>
      <trkpt lat="39.7069450" lon="-0.4277330">
        <ele>644.9</ele>
        <time>2022-11-06T08:03:47Z</time>
      </trkpt>
      <trkpt lat="39.7069850" lon="-0.4277220">
        <ele>644.1</ele>
        <time>2022-11-06T08:03:48Z</time>
      </trkpt>
      <trkpt lat="39.7069850" lon="-0.4277220">
        <ele>644.1</ele>
        <time>2022-11-06T08:03:49Z</time>
      </trkpt>
      <trkpt lat="39.7070570" lon="-0.4276820">
        <ele>642.7</ele>
        <time>2022-11-06T08:03:50Z</time>
      </trkpt>
      <trkpt lat="39.7070950" lon="-0.4276630">
        <ele>642.0</ele>
        <time>2022-11-06T08:03:51Z</time>
      </trkpt>
      <trkpt lat="39.7071300" lon="-0.4276380">
        <ele>641.4</ele>
        <time>2022-11-06T08:03:52Z</time>
      </trkpt>
      <trkpt lat="39.7071670" lon="-0.4276150">
        <ele>640.8</ele>
        <time>2022-11-06T08:03:53Z</time>
      </trkpt>
      <trkpt lat="39.7072000" lon="-0.4275800">
        <ele>640.1</ele>
        <time>2022-11-06T08:03:54Z</time>
      </trkpt>
      <trkpt lat="39.7072350" lon="-0.4275420">
        <ele>639.4</ele>
        <time>2022-11-06T08:03:55Z</time>
      </trkpt>
      <trkpt lat="39.7072670" lon="-0.4275070">
        <ele>638.9</ele>
        <time>2022-11-06T08:03:56Z</time>
      </trkpt>
      <trkpt lat="39.7072990" lon="-0.4274700">
        <ele>638.2</ele>
        <time>2022-11-06T08:03:57Z</time>
      </trkpt>
      <trkpt lat="39.7072990" lon="-0.4274700">
        <ele>638.2</ele>
        <time>2022-11-06T08:03:58Z</time>
      </trkpt>
      <trkpt lat="39.7072990" lon="-0.4274700">
        <ele>638.2</ele>
        <time>2022-11-06T08:03:59Z</time>
      </trkpt>
      <trkpt lat="39.7073660" lon="-0.4273350">
        <ele>636.5</ele>
        <time>2022-11-06T08:04:00Z</time>
      </trkpt>
      <trkpt lat="39.7073980" lon="-0.4272920">
        <ele>635.7</ele>
        <time>2022-11-06T08:04:01Z</time>
      </trkpt>
      <trkpt lat="39.7074280" lon="-0.4272720">
        <ele>635.2</ele>
        <time>2022-11-06T08:04:02Z</time>
      </trkpt>
      <trkpt lat="39.7074620" lon="-0.4272750">
        <ele>634.6</ele>
        <time>2022-11-06T08:04:03Z</time>
      </trkpt>
      <trkpt lat="39.7074840" lon="-0.4272930">
        <ele>634.2</ele>
        <time>2022-11-06T08:04:04Z</time>
      </trkpt>
      <trkpt lat="39.7075050" lon="-0.4273170">
        <ele>633.7</ele>
        <time>2022-11-06T08:04:05Z</time>
      </trkpt>
      <trkpt lat="39.7075110" lon="-0.4273520">
        <ele>633.2</ele>
        <time>2022-11-06T08:04:06Z</time>
      </trkpt>
      <trkpt lat="39.7075110" lon="-0.4273970">
        <ele>632.7</ele>
        <time>2022-11-06T08:04:07Z</time>
      </trkpt>
      <trkpt lat="39.7075160" lon="-0.4274480">
        <ele>632.1</ele>
        <time>2022-11-06T08:04:08Z</time>
      </trkpt>
      <trkpt lat="39.7075160" lon="-0.4274480">
        <ele>632.1</ele>
        <time>2022-11-06T08:04:09Z</time>
      </trkpt>
      <trkpt lat="39.7075160" lon="-0.4274480">
        <ele>632.1</ele>
        <time>2022-11-06T08:04:10Z</time>
      </trkpt>
      <trkpt lat="39.7075190" lon="-0.4276320">
        <ele>630.0</ele>
        <time>2022-11-06T08:04:11Z</time>
      </trkpt>
      <trkpt lat="39.7075160" lon="-0.4276880">
        <ele>629.4</ele>
        <time>2022-11-06T08:04:12Z</time>
      </trkpt>
      <trkpt lat="39.7075110" lon="-0.4277480">
        <ele>628.8</ele>
        <time>2022-11-06T08:04:13Z</time>
      </trkpt>
      <trkpt lat="39.7075080" lon="-0.4278080">
        <ele>628.2</ele>
        <time>2022-11-06T08:04:14Z</time>
      </trkpt>
      <trkpt lat="39.7074920" lon="-0.4278630">
        <ele>627.6</ele>
        <time>2022-11-06T08:04:15Z</time>
      </trkpt>
      <trkpt lat="39.7074810" lon="-0.4279220">
        <ele>627.0</ele>
        <time>2022-11-06T08:04:16Z</time>
      </trkpt>
      <trkpt lat="39.7074710" lon="-0.4279800">
        <ele>626.4</ele>
        <time>2022-11-06T08:04:17Z</time>
      </trkpt>
      <trkpt lat="39.7074540" lon="-0.4280320">
        <ele>625.8</ele>
        <time>2022-11-06T08:04:18Z</time>
      </trkpt>
      <trkpt lat="39.7074540" lon="-0.4280320">
        <ele>625.8</ele>
        <time>2022-11-06T08:04:19Z</time>
      </trkpt>
      <trkpt lat="39.7074120" lon="-0.4281200">
        <ele>624.6</ele>
        <time>2022-11-06T08:04:20Z</time>
      </trkpt>
      <trkpt lat="39.7073980" lon="-0.4281620">
        <ele>624.1</ele>
        <time>2022-11-06T08:04:21Z</time>
      </trkpt>
      <trkpt lat="39.7073740" lon="-0.4282020">
        <ele>623.5</ele>
        <time>2022-11-06T08:04:22Z</time>
      </trkpt>
      <trkpt lat="39.7073530" lon="-0.4282470">
        <ele>622.9</ele>
        <time>2022-11-06T08:04:23Z</time>
      </trkpt>
      <trkpt lat="39.7073280" lon="-0.4282900">
        <ele>622.3</ele>
        <time>2022-11-06T08:04:24Z</time>
      </trkpt>
      <trkpt lat="39.7073100" lon="-0.4283300">
        <ele>621.7</ele>
        <time>2022-11-06T08:04:25Z</time>
      </trkpt>
      <trkpt lat="39.7072910" lon="-0.4283720">
        <ele>621.2</ele>
        <time>2022-11-06T08:04:26Z</time>
      </trkpt>
      <trkpt lat="39.7072670" lon="-0.4284070">
        <ele>620.7</ele>
        <time>2022-11-06T08:04:27Z</time>
      </trkpt>
      <trkpt lat="39.7072450" lon="-0.4284480">
        <ele>620.1</ele>
        <time>2022-11-06T08:04:28Z</time>
      </trkpt>
      <trkpt lat="39.7072180" lon="-0.4284920">
        <ele>619.4</ele>
        <time>2022-11-06T08:04:29Z</time>
      </trkpt>
      <trkpt lat="39.7072180" lon="-0.4284920">
        <ele>619.4</ele>
        <time>2022-11-06T08:04:30Z</time>
      </trkpt>
      <trkpt lat="39.7071750" lon="-0.4285730">
        <ele>618.2</ele>
        <time>2022-11-06T08:04:31Z</time>
      </trkpt>
      <trkpt lat="39.7071670" lon="-0.4286130">
        <ele>617.7</ele>
        <time>2022-11-06T08:04:32Z</time>
      </trkpt>
      <trkpt lat="39.7071670" lon="-0.4286520">
        <ele>617.2</ele>
        <time>2022-11-06T08:04:33Z</time>
      </trkpt>
      <trkpt lat="39.7071840" lon="-0.4286630">
        <ele>616.9</ele>
        <time>2022-11-06T08:04:34Z</time>
      </trkpt>
      <trkpt lat="39.7072080" lon="-0.4286750">
        <ele>616.5</ele>
        <time>2022-11-06T08:04:35Z</time>
      </trkpt>
      <trkpt lat="39.7072350" lon="-0.4286750">
        <ele>616.0</ele>
        <time>2022-11-06T08:04:36Z</time>
      </trkpt>
      <trkpt lat="39.7072670" lon="-0.4286730">
        <ele>615.4</ele>
        <time>2022-11-06T08:04:37Z</time>
      </trkpt>
      <trkpt lat="39.7073020" lon="-0.4286550">
        <ele>614.9</ele>
        <time>2022-11-06T08:04:38Z</time>
      </trkpt>
      <trkpt lat="39.7073390" lon="-0.4286330">
        <ele>614.3</ele>
        <time>2022-11-06T08:04:39Z</time>
      </trkpt>
      <trkpt lat="39.7073390" lon="-0.4286330">
        <ele>614.3</ele>
        <time>2022-11-06T08:04:40Z</time>
      </trkpt>
      <trkpt lat="39.7074200" lon="-0.4285780">
        <ele>613.3</ele>
        <time>2022-11-06T08:04:41Z</time>
      </trkpt>
      <trkpt lat="39.7074650" lon="-0.4285600">
        <ele>612.9</ele>
        <time>2022-11-06T08:04:42Z</time>
      </trkpt>
      <trkpt lat="39.7075190" lon="-0.4285500">
        <ele>612.5</ele>
        <time>2022-11-06T08:04:43Z</time>
      </trkpt>
      <trkpt lat="39.7075780" lon="-0.4285450">
        <ele>612.1</ele>
        <time>2022-11-06T08:04:44Z</time>
      </trkpt>
      <trkpt lat="39.7076340" lon="-0.4285520">
        <ele>611.7</ele>
        <time>2022-11-06T08:04:45Z</time>
      </trkpt>
      <trkpt lat="39.7076900" lon="-0.4285650">
        <ele>611.3</ele>
        <time>2022-11-06T08:04:46Z</time>
      </trkpt>
      <trkpt lat="39.7077520" lon="-0.4285800">
        <ele>610.9</ele>
        <time>2022-11-06T08:04:47Z</time>
      </trkpt>
      <trkpt lat="39.7078170" lon="-0.4286050">
        <ele>610.4</ele>
        <time>2022-11-06T08:04:48Z</time>
      </trkpt>
      <trkpt lat="39.7078810" lon="-0.4286380">
        <ele>610.0</ele>
        <time>2022-11-06T08:04:49Z</time>
      </trkpt>
      <trkpt lat="39.7078810" lon="-0.4286380">
        <ele>610.0</ele>
        <time>2022-11-06T08:04:50Z</time>
      </trkpt>
      <trkpt lat="39.7078810" lon="-0.4286380">
        <ele>610.0</ele>
        <time>2022-11-06T08:04:51Z</time>
      </trkpt>
      <trkpt lat="39.7080580" lon="-0.4286930">
        <ele>608.8</ele>
        <time>2022-11-06T08:04:52Z</time>
      </trkpt>
      <trkpt lat="39.7081120" lon="-0.4287070">
        <ele>608.5</ele>
        <time>2022-11-06T08:04:53Z</time>
      </trkpt>
      <trkpt lat="39.7081570" lon="-0.4287170">
        <ele>608.2</ele>
        <time>2022-11-06T08:04:54Z</time>
      </trkpt>
      <trkpt lat="39.7081970" lon="-0.4287250">
        <ele>607.7</ele>
        <time>2022-11-06T08:04:55Z</time>
      </trkpt>
      <trkpt lat="39.7082380" lon="-0.4287230">
        <ele>607.6</ele>
        <time>2022-11-06T08:04:56Z</time>
      </trkpt>
      <trkpt lat="39.7082700" lon="-0.4287200">
        <ele>607.6</ele>
        <time>2022-11-06T08:04:57Z</time>
      </trkpt>
      <trkpt lat="39.7083100" lon="-0.4287030">
        <ele>607.5</ele>
        <time>2022-11-06T08:04:58Z</time>
      </trkpt>
      <trkpt lat="39.7083400" lon="-0.4286770">
        <ele>607.4</ele>
        <time>2022-11-06T08:04:59Z</time>
      </trkpt>
      <trkpt lat="39.7083400" lon="-0.4286770">
        <ele>607.4</ele>
        <time>2022-11-06T08:05:00Z</time>
      </trkpt>
      <trkpt lat="39.7083400" lon="-0.4286770">
        <ele>607.4</ele>
        <time>2022-11-06T08:05:01Z</time>
      </trkpt>
      <trkpt lat="39.7084120" lon="-0.4286230">
        <ele>607.2</ele>
        <time>2022-11-06T08:05:02Z</time>
      </trkpt>
      <trkpt lat="39.7084280" lon="-0.4286070">
        <ele>607.2</ele>
        <time>2022-11-06T08:05:03Z</time>
      </trkpt>
      <trkpt lat="39.7084470" lon="-0.4285920">
        <ele>607.1</ele>
        <time>2022-11-06T08:05:04Z</time>
      </trkpt>
      <trkpt lat="39.7084630" lon="-0.4285780">
        <ele>607.1</ele>
        <time>2022-11-06T08:05:05Z</time>
      </trkpt>
      <trkpt lat="39.7084820" lon="-0.4285720">
        <ele>607.1</ele>
        <time>2022-11-06T08:05:06Z</time>
      </trkpt>
      <trkpt lat="39.7084900" lon="-0.4285630">
        <ele>607.0</ele>
        <time>2022-11-06T08:05:07Z</time>
      </trkpt>
      <trkpt lat="39.7084950" lon="-0.4285550">
        <ele>607.0</ele>
        <time>2022-11-06T08:05:08Z</time>
      </trkpt>
      <trkpt lat="39.7084950" lon="-0.4285530">
        <ele>607.0</ele>
        <time>2022-11-06T08:05:09Z</time>
      </trkpt>
      <trkpt lat="39.7085300" lon="-0.4284180">
        <ele>606.7</ele>
        <time>2022-11-06T08:06:27Z</time>
      </trkpt>
      <trkpt lat="39.7085410" lon="-0.4284150">
        <ele>606.7</ele>
        <time>2022-11-06T08:06:28Z</time>
      </trkpt>
      <trkpt lat="39.7085540" lon="-0.4284030">
        <ele>606.6</ele>
        <time>2022-11-06T08:06:29Z</time>
      </trkpt>
      <trkpt lat="39.7085650" lon="-0.4283830">
        <ele>606.5</ele>
        <time>2022-11-06T08:06:30Z</time>
      </trkpt>
      <trkpt lat="39.7085760" lon="-0.4283600">
        <ele>606.4</ele>
        <time>2022-11-06T08:06:31Z</time>
      </trkpt>
      <trkpt lat="39.7085840" lon="-0.4283320">
        <ele>606.3</ele>
        <time>2022-11-06T08:06:32Z</time>
      </trkpt>
      <trkpt lat="39.7085840" lon="-0.4283320">
        <ele>606.3</ele>
        <time>2022-11-06T08:06:33Z</time>
      </trkpt>
      <trkpt lat="39.7085840" lon="-0.4283320">
        <ele>606.3</ele>
        <time>2022-11-06T08:06:34Z</time>
      </trkpt>
      <trkpt lat="39.7086270" lon="-0.4282330">
        <ele>605.8</ele>
        <time>2022-11-06T08:06:35Z</time>
      </trkpt>
      <trkpt lat="39.7086450" lon="-0.4281930">
        <ele>605.6</ele>
        <time>2022-11-06T08:06:36Z</time>
      </trkpt>
      <trkpt lat="39.7086640" lon="-0.4281430">
        <ele>605.3</ele>
        <time>2022-11-06T08:06:37Z</time>
      </trkpt>
      <trkpt lat="39.7086940" lon="-0.4280880">
        <ele>604.8</ele>
        <time>2022-11-06T08:06:38Z</time>
      </trkpt>
      <trkpt lat="39.7087070" lon="-0.4280220">
        <ele>603.9</ele>
        <time>2022-11-06T08:06:39Z</time>
      </trkpt>
      <trkpt lat="39.7087070" lon="-0.4279580">
        <ele>603.3</ele>
        <time>2022-11-06T08:06:40Z</time>
      </trkpt>
      <trkpt lat="39.7087100" lon="-0.4278950">
        <ele>602.6</ele>
        <time>2022-11-06T08:06:41Z</time>
      </trkpt>
      <trkpt lat="39.7087070" lon="-0.4278180">
        <ele>601.9</ele>
        <time>2022-11-06T08:06:42Z</time>
      </trkpt>
      <trkpt lat="39.7087070" lon="-0.4278180">
        <ele>601.9</ele>
        <time>2022-11-06T08:06:43Z</time>
      </trkpt>
      <trkpt lat="39.7087070" lon="-0.4278180">
        <ele>601.9</ele>
        <time>2022-11-06T08:06:44Z</time>
      </trkpt>
      <trkpt lat="39.7087260" lon="-0.4276150">
        <ele>600.1</ele>
        <time>2022-11-06T08:06:45Z</time>
      </trkpt>
      <trkpt lat="39.7087390" lon="-0.4275720">
        <ele>599.6</ele>
        <time>2022-11-06T08:06:46Z</time>
      </trkpt>
      <trkpt lat="39.7087660" lon="-0.4275330">
        <ele>599.0</ele>
        <time>2022-11-06T08:06:47Z</time>
      </trkpt>
      <trkpt lat="39.7087930" lon="-0.4275080">
        <ele>598.4</ele>
        <time>2022-11-06T08:06:48Z</time>
      </trkpt>
      <trkpt lat="39.7088330" lon="-0.4275080">
        <ele>597.7</ele>
        <time>2022-11-06T08:06:49Z</time>
      </trkpt>
      <trkpt lat="39.7088650" lon="-0.4275280">
        <ele>597.0</ele>
        <time>2022-11-06T08:06:50Z</time>
      </trkpt>
      <trkpt lat="39.7089240" lon="-0.4275570">
        <ele>595.9</ele>
        <time>2022-11-06T08:06:51Z</time>
      </trkpt>
      <trkpt lat="39.7089810" lon="-0.4275730">
        <ele>595.0</ele>
        <time>2022-11-06T08:06:52Z</time>
      </trkpt>
      <trkpt lat="39.7090500" lon="-0.4275720">
        <ele>594.0</ele>
        <time>2022-11-06T08:06:53Z</time>
      </trkpt>
      <trkpt lat="39.7090500" lon="-0.4275720">
        <ele>594.0</ele>
        <time>2022-11-06T08:06:54Z</time>
      </trkpt>
      <trkpt lat="39.7091630" lon="-0.4275480">
        <ele>592.6</ele>
        <time>2022-11-06T08:06:55Z</time>
      </trkpt>
      <trkpt lat="39.7092090" lon="-0.4275220">
        <ele>592.0</ele>
        <time>2022-11-06T08:06:56Z</time>
      </trkpt>
      <trkpt lat="39.7092540" lon="-0.4274950">
        <ele>591.4</ele>
        <time>2022-11-06T08:06:57Z</time>
      </trkpt>
      <trkpt lat="39.7092970" lon="-0.4274720">
        <ele>590.8</ele>
        <time>2022-11-06T08:06:58Z</time>
      </trkpt>
      <trkpt lat="39.7093400" lon="-0.4274150">
        <ele>590.0</ele>
        <time>2022-11-06T08:06:59Z</time>
      </trkpt>
      <trkpt lat="39.7093780" lon="-0.4273400">
        <ele>589.2</ele>
        <time>2022-11-06T08:07:00Z</time>
      </trkpt>
      <trkpt lat="39.7094120" lon="-0.4272450">
        <ele>588.3</ele>
        <time>2022-11-06T08:07:01Z</time>
      </trkpt>
      <trkpt lat="39.7094530" lon="-0.4271520">
        <ele>587.5</ele>
        <time>2022-11-06T08:07:02Z</time>
      </trkpt>
      <trkpt lat="39.7094930" lon="-0.4270720">
        <ele>586.8</ele>
        <time>2022-11-06T08:07:03Z</time>
      </trkpt>
      <trkpt lat="39.7094930" lon="-0.4270720">
        <ele>586.8</ele>
        <time>2022-11-06T08:07:04Z</time>
      </trkpt>
      <trkpt lat="39.7095920" lon="-0.4269170">
        <ele>585.6</ele>
        <time>2022-11-06T08:07:05Z</time>
      </trkpt>
      <trkpt lat="39.7096480" lon="-0.4268480">
        <ele>585.1</ele>
        <time>2022-11-06T08:07:06Z</time>
      </trkpt>
      <trkpt lat="39.7097100" lon="-0.4267830">
        <ele>584.7</ele>
        <time>2022-11-06T08:07:07Z</time>
      </trkpt>
      <trkpt lat="39.7097750" lon="-0.4267230">
        <ele>584.3</ele>
        <time>2022-11-06T08:07:08Z</time>
      </trkpt>
      <trkpt lat="39.7098470" lon="-0.4267000">
        <ele>584.0</ele>
        <time>2022-11-06T08:07:09Z</time>
      </trkpt>
      <trkpt lat="39.7099140" lon="-0.4266430">
        <ele>583.6</ele>
        <time>2022-11-06T08:07:10Z</time>
      </trkpt>
      <trkpt lat="39.7099810" lon="-0.4265780">
        <ele>583.4</ele>
        <time>2022-11-06T08:07:11Z</time>
      </trkpt>
      <trkpt lat="39.7100450" lon="-0.4265200">
        <ele>583.2</ele>
        <time>2022-11-06T08:07:12Z</time>
      </trkpt>
      <trkpt lat="39.7101070" lon="-0.4264550">
        <ele>583.0</ele>
        <time>2022-11-06T08:07:13Z</time>
      </trkpt>
      <trkpt lat="39.7101580" lon="-0.4263950">
        <ele>582.9</ele>
        <time>2022-11-06T08:07:14Z</time>
      </trkpt>
      <trkpt lat="39.7101580" lon="-0.4263950">
        <ele>582.9</ele>
        <time>2022-11-06T08:07:15Z</time>
      </trkpt>
      <trkpt lat="39.7102840" lon="-0.4262600">
        <ele>582.5</ele>
        <time>2022-11-06T08:07:16Z</time>
      </trkpt>
      <trkpt lat="39.7103460" lon="-0.4261870">
        <ele>582.3</ele>
        <time>2022-11-06T08:07:17Z</time>
      </trkpt>
      <trkpt lat="39.7104080" lon="-0.4261150">
        <ele>582.0</ele>
        <time>2022-11-06T08:07:18Z</time>
      </trkpt>
      <trkpt lat="39.7104640" lon="-0.4260380">
        <ele>581.7</ele>
        <time>2022-11-06T08:07:19Z</time>
      </trkpt>
      <trkpt lat="39.7105260" lon="-0.4259380">
        <ele>581.1</ele>
        <time>2022-11-06T08:07:20Z</time>
      </trkpt>
      <trkpt lat="39.7105900" lon="-0.4258520">
        <ele>580.5</ele>
        <time>2022-11-06T08:07:21Z</time>
      </trkpt>
      <trkpt lat="39.7106540" lon="-0.4257620">
        <ele>579.8</ele>
        <time>2022-11-06T08:07:22Z</time>
      </trkpt>
      <trkpt lat="39.7107240" lon="-0.4256700">
        <ele>579.0</ele>
        <time>2022-11-06T08:07:23Z</time>
      </trkpt>
      <trkpt lat="39.7107240" lon="-0.4256700">
        <ele>579.0</ele>
        <time>2022-11-06T08:07:24Z</time>
      </trkpt>
      <trkpt lat="39.7107240" lon="-0.4256700">
        <ele>579.0</ele>
        <time>2022-11-06T08:07:25Z</time>
      </trkpt>
      <trkpt lat="39.7109310" lon="-0.4254450">
        <ele>577.2</ele>
        <time>2022-11-06T08:07:26Z</time>
      </trkpt>
      <trkpt lat="39.7109980" lon="-0.4253750">
        <ele>576.6</ele>
        <time>2022-11-06T08:07:27Z</time>
      </trkpt>
      <trkpt lat="39.7110590" lon="-0.4253050">
        <ele>576.1</ele>
        <time>2022-11-06T08:07:28Z</time>
      </trkpt>
      <trkpt lat="39.7111050" lon="-0.4252320">
        <ele>575.6</ele>
        <time>2022-11-06T08:07:29Z</time>
      </trkpt>
      <trkpt lat="39.7111510" lon="-0.4251650">
        <ele>575.1</ele>
        <time>2022-11-06T08:07:30Z</time>
      </trkpt>
      <trkpt lat="39.7112010" lon="-0.4251020">
        <ele>574.5</ele>
        <time>2022-11-06T08:07:31Z</time>
      </trkpt>
      <trkpt lat="39.7112500" lon="-0.4250400">
        <ele>573.9</ele>
        <time>2022-11-06T08:07:32Z</time>
      </trkpt>
      <trkpt lat="39.7113090" lon="-0.4249800">
        <ele>573.2</ele>
        <time>2022-11-06T08:07:33Z</time>
      </trkpt>
      <trkpt lat="39.7113680" lon="-0.4249270">
        <ele>572.6</ele>
        <time>2022-11-06T08:07:34Z</time>
      </trkpt>
      <trkpt lat="39.7113680" lon="-0.4249270">
        <ele>572.6</ele>
        <time>2022-11-06T08:07:35Z</time>
      </trkpt>
      <trkpt lat="39.7113680" lon="-0.4249270">
        <ele>572.6</ele>
        <time>2022-11-06T08:07:36Z</time>
      </trkpt>
      <trkpt lat="39.7115640" lon="-0.4247450">
        <ele>570.5</ele>
        <time>2022-11-06T08:07:37Z</time>
      </trkpt>
      <trkpt lat="39.7116250" lon="-0.4246870">
        <ele>569.9</ele>
        <time>2022-11-06T08:07:38Z</time>
      </trkpt>
      <trkpt lat="39.7116760" lon="-0.4246180">
        <ele>569.3</ele>
        <time>2022-11-06T08:07:39Z</time>
      </trkpt>
      <trkpt lat="39.7117300" lon="-0.4245600">
        <ele>568.7</ele>
        <time>2022-11-06T08:07:40Z</time>
      </trkpt>
      <trkpt lat="39.7117890" lon="-0.4245080">
        <ele>568.0</ele>
        <time>2022-11-06T08:07:41Z</time>
      </trkpt>
      <trkpt lat="39.7118340" lon="-0.4244400">
        <ele>567.3</ele>
        <time>2022-11-06T08:07:42Z</time>
      </trkpt>
      <trkpt lat="39.7118720" lon="-0.4243670">
        <ele>566.6</ele>
        <time>2022-11-06T08:07:43Z</time>
      </trkpt>
      <trkpt lat="39.7119020" lon="-0.4242870">
        <ele>565.9</ele>
        <time>2022-11-06T08:07:44Z</time>
      </trkpt>
      <trkpt lat="39.7119020" lon="-0.4242870">
        <ele>565.9</ele>
        <time>2022-11-06T08:07:45Z</time>
      </trkpt>
      <trkpt lat="39.7119740" lon="-0.4241430">
        <ele>564.6</ele>
        <time>2022-11-06T08:07:46Z</time>
      </trkpt>
      <trkpt lat="39.7120140" lon="-0.4240750">
        <ele>564.0</ele>
        <time>2022-11-06T08:07:47Z</time>
      </trkpt>
      <trkpt lat="39.7120440" lon="-0.4240270">
        <ele>563.6</ele>
        <time>2022-11-06T08:07:48Z</time>
      </trkpt>
      <trkpt lat="39.7120790" lon="-0.4239830">
        <ele>563.1</ele>
        <time>2022-11-06T08:07:49Z</time>
      </trkpt>
      <trkpt lat="39.7121050" lon="-0.4239430">
        <ele>562.6</ele>
        <time>2022-11-06T08:07:50Z</time>
      </trkpt>
      <trkpt lat="39.7121350" lon="-0.4238900">
        <ele>561.9</ele>
        <time>2022-11-06T08:07:51Z</time>
      </trkpt>
      <trkpt lat="39.7121620" lon="-0.4238400">
        <ele>561.2</ele>
        <time>2022-11-06T08:07:52Z</time>
      </trkpt>
      <trkpt lat="39.7121890" lon="-0.4237950">
        <ele>560.5</ele>
        <time>2022-11-06T08:07:53Z</time>
      </trkpt>
      <trkpt lat="39.7122150" lon="-0.4237530">
        <ele>559.7</ele>
        <time>2022-11-06T08:07:54Z</time>
      </trkpt>
      <trkpt lat="39.7122400" lon="-0.4237170">
        <ele>559.0</ele>
        <time>2022-11-06T08:07:55Z</time>
      </trkpt>
      <trkpt lat="39.7122400" lon="-0.4237170">
        <ele>559.0</ele>
        <time>2022-11-06T08:07:56Z</time>
      </trkpt>
      <trkpt lat="39.7123040" lon="-0.4236280">
        <ele>557.2</ele>
        <time>2022-11-06T08:07:57Z</time>
      </trkpt>
      <trkpt lat="39.7123330" lon="-0.4235820">
        <ele>556.2</ele>
        <time>2022-11-06T08:07:58Z</time>
      </trkpt>
      <trkpt lat="39.7123710" lon="-0.4235430">
        <ele>555.3</ele>
        <time>2022-11-06T08:07:59Z</time>
      </trkpt>
      <trkpt lat="39.7124140" lon="-0.4235200">
        <ele>554.5</ele>
        <time>2022-11-06T08:08:00Z</time>
      </trkpt>
      <trkpt lat="39.7124590" lon="-0.4235100">
        <ele>553.6</ele>
        <time>2022-11-06T08:08:01Z</time>
      </trkpt>
      <trkpt lat="39.7125020" lon="-0.4235130">
        <ele>552.9</ele>
        <time>2022-11-06T08:08:02Z</time>
      </trkpt>
      <trkpt lat="39.7125510" lon="-0.4235270">
        <ele>552.0</ele>
        <time>2022-11-06T08:08:03Z</time>
      </trkpt>
      <trkpt lat="39.7125940" lon="-0.4235420">
        <ele>551.3</ele>
        <time>2022-11-06T08:08:04Z</time>
      </trkpt>
      <trkpt lat="39.7125940" lon="-0.4235420">
        <ele>551.3</ele>
        <time>2022-11-06T08:08:05Z</time>
      </trkpt>
      <trkpt lat="39.7125940" lon="-0.4235420">
        <ele>551.3</ele>
        <time>2022-11-06T08:08:06Z</time>
      </trkpt>
      <trkpt lat="39.7127220" lon="-0.4236030">
        <ele>549.2</ele>
        <time>2022-11-06T08:08:07Z</time>
      </trkpt>
      <trkpt lat="39.7127680" lon="-0.4236230">
        <ele>548.5</ele>
        <time>2022-11-06T08:08:08Z</time>
      </trkpt>
      <trkpt lat="39.7128130" lon="-0.4236430">
        <ele>547.7</ele>
        <time>2022-11-06T08:08:09Z</time>
      </trkpt>
      <trkpt lat="39.7128730" lon="-0.4236600">
        <ele>546.8</ele>
        <time>2022-11-06T08:08:10Z</time>
      </trkpt>
      <trkpt lat="39.7129260" lon="-0.4236700">
        <ele>545.9</ele>
        <time>2022-11-06T08:08:11Z</time>
      </trkpt>
      <trkpt lat="39.7129770" lon="-0.4236750">
        <ele>545.1</ele>
        <time>2022-11-06T08:08:12Z</time>
      </trkpt>
      <trkpt lat="39.7130310" lon="-0.4236700">
        <ele>544.1</ele>
        <time>2022-11-06T08:08:13Z</time>
      </trkpt>
      <trkpt lat="39.7130760" lon="-0.4236570">
        <ele>543.3</ele>
        <time>2022-11-06T08:08:14Z</time>
      </trkpt>
      <trkpt lat="39.7131030" lon="-0.4236070">
        <ele>542.4</ele>
        <time>2022-11-06T08:08:15Z</time>
      </trkpt>
      <trkpt lat="39.7131030" lon="-0.4236070">
        <ele>542.4</ele>
        <time>2022-11-06T08:08:16Z</time>
      </trkpt>
      <trkpt lat="39.7131030" lon="-0.4236070">
        <ele>542.4</ele>
        <time>2022-11-06T08:08:17Z</time>
      </trkpt>
      <trkpt lat="39.7130820" lon="-0.4234130">
        <ele>539.8</ele>
        <time>2022-11-06T08:08:18Z</time>
      </trkpt>
      <trkpt lat="39.7130580" lon="-0.4233550">
        <ele>538.9</ele>
        <time>2022-11-06T08:08:19Z</time>
      </trkpt>
      <trkpt lat="39.7130280" lon="-0.4232980">
        <ele>538.1</ele>
        <time>2022-11-06T08:08:20Z</time>
      </trkpt>
      <trkpt lat="39.7129930" lon="-0.4232420">
        <ele>537.3</ele>
        <time>2022-11-06T08:08:21Z</time>
      </trkpt>
      <trkpt lat="39.7129660" lon="-0.4231830">
        <ele>536.5</ele>
        <time>2022-11-06T08:08:22Z</time>
      </trkpt>
      <trkpt lat="39.7129530" lon="-0.4231170">
        <ele>535.7</ele>
        <time>2022-11-06T08:08:23Z</time>
      </trkpt>
      <trkpt lat="39.7129530" lon="-0.4230380">
        <ele>534.8</ele>
        <time>2022-11-06T08:08:24Z</time>
      </trkpt>
      <trkpt lat="39.7129850" lon="-0.4229630">
        <ele>533.9</ele>
        <time>2022-11-06T08:08:25Z</time>
      </trkpt>
      <trkpt lat="39.7129850" lon="-0.4229630">
        <ele>533.9</ele>
        <time>2022-11-06T08:08:26Z</time>
      </trkpt>
      <trkpt lat="39.7130090" lon="-0.4227970">
        <ele>532.1</ele>
        <time>2022-11-06T08:08:27Z</time>
      </trkpt>
      <trkpt lat="39.7129910" lon="-0.4227380">
        <ele>531.4</ele>
        <time>2022-11-06T08:08:28Z</time>
      </trkpt>
      <trkpt lat="39.7129660" lon="-0.4227220">
        <ele>531.0</ele>
        <time>2022-11-06T08:08:29Z</time>
      </trkpt>
      <trkpt lat="39.7129370" lon="-0.4227180">
        <ele>530.6</ele>
        <time>2022-11-06T08:08:30Z</time>
      </trkpt>
      <trkpt lat="39.7128990" lon="-0.4227270">
        <ele>530.0</ele>
        <time>2022-11-06T08:08:31Z</time>
      </trkpt>
      <trkpt lat="39.7128540" lon="-0.4227450">
        <ele>529.3</ele>
        <time>2022-11-06T08:08:32Z</time>
      </trkpt>
      <trkpt lat="39.7128030" lon="-0.4227680">
        <ele>528.6</ele>
        <time>2022-11-06T08:08:33Z</time>
      </trkpt>
      <trkpt lat="39.7127540" lon="-0.4227920">
        <ele>527.9</ele>
        <time>2022-11-06T08:08:34Z</time>
      </trkpt>
      <trkpt lat="39.7126930" lon="-0.4228170">
        <ele>527.1</ele>
        <time>2022-11-06T08:08:35Z</time>
      </trkpt>
      <trkpt lat="39.7126310" lon="-0.4228500">
        <ele>526.3</ele>
        <time>2022-11-06T08:08:36Z</time>
      </trkpt>
      <trkpt lat="39.7126310" lon="-0.4228500">
        <ele>526.3</ele>
        <time>2022-11-06T08:08:37Z</time>
      </trkpt>
      <trkpt lat="39.7125020" lon="-0.4229450">
        <ele>524.6</ele>
        <time>2022-11-06T08:08:38Z</time>
      </trkpt>
      <trkpt lat="39.7124380" lon="-0.4229970">
        <ele>523.8</ele>
        <time>2022-11-06T08:08:39Z</time>
      </trkpt>
      <trkpt lat="39.7123600" lon="-0.4230470">
        <ele>522.9</ele>
        <time>2022-11-06T08:08:40Z</time>
      </trkpt>
      <trkpt lat="39.7122800" lon="-0.4230950">
        <ele>522.1</ele>
        <time>2022-11-06T08:08:41Z</time>
      </trkpt>
      <trkpt lat="39.7122050" lon="-0.4231400">
        <ele>521.4</ele>
        <time>2022-11-06T08:08:42Z</time>
      </trkpt>
      <trkpt lat="39.7121240" lon="-0.4231830">
        <ele>520.8</ele>
        <time>2022-11-06T08:08:43Z</time>
      </trkpt>
      <trkpt lat="39.7120440" lon="-0.4232230">
        <ele>520.2</ele>
        <time>2022-11-06T08:08:44Z</time>
      </trkpt>
      <trkpt lat="39.7119710" lon="-0.4232750">
        <ele>519.6</ele>
        <time>2022-11-06T08:08:45Z</time>
      </trkpt>
      <trkpt lat="39.7119710" lon="-0.4232750">
        <ele>519.6</ele>
        <time>2022-11-06T08:08:46Z</time>
      </trkpt>
      <trkpt lat="39.7119710" lon="-0.4232750">
        <ele>519.6</ele>
        <time>2022-11-06T08:08:47Z</time>
      </trkpt>
      <trkpt lat="39.7117380" lon="-0.4234380">
        <ele>517.6</ele>
        <time>2022-11-06T08:08:48Z</time>
      </trkpt>
      <trkpt lat="39.7116550" lon="-0.4234950">
        <ele>516.8</ele>
        <time>2022-11-06T08:08:49Z</time>
      </trkpt>
      <trkpt lat="39.7115660" lon="-0.4235480">
        <ele>516.0</ele>
        <time>2022-11-06T08:08:50Z</time>
      </trkpt>
      <trkpt lat="39.7114800" lon="-0.4235970">
        <ele>515.2</ele>
        <time>2022-11-06T08:08:51Z</time>
      </trkpt>
      <trkpt lat="39.7113920" lon="-0.4236380">
        <ele>514.4</ele>
        <time>2022-11-06T08:08:52Z</time>
      </trkpt>
      <trkpt lat="39.7113010" lon="-0.4236780">
        <ele>513.5</ele>
        <time>2022-11-06T08:08:53Z</time>
      </trkpt>
      <trkpt lat="39.7112100" lon="-0.4237250">
        <ele>512.7</ele>
        <time>2022-11-06T08:08:54Z</time>
      </trkpt>
      <trkpt lat="39.7111160" lon="-0.4237800">
        <ele>511.7</ele>
        <time>2022-11-06T08:08:55Z</time>
      </trkpt>
      <trkpt lat="39.7110240" lon="-0.4238420">
        <ele>510.9</ele>
        <time>2022-11-06T08:08:56Z</time>
      </trkpt>
      <trkpt lat="39.7110240" lon="-0.4238420">
        <ele>510.9</ele>
        <time>2022-11-06T08:08:57Z</time>
      </trkpt>
      <trkpt lat="39.7110240" lon="-0.4238420">
        <ele>510.9</ele>
        <time>2022-11-06T08:08:58Z</time>
      </trkpt>
      <trkpt lat="39.7107620" lon="-0.4239880">
        <ele>509.1</ele>
        <time>2022-11-06T08:08:59Z</time>
      </trkpt>
      <trkpt lat="39.7106730" lon="-0.4240070">
        <ele>508.6</ele>
        <time>2022-11-06T08:09:00Z</time>
      </trkpt>
      <trkpt lat="39.7105870" lon="-0.4240230">
        <ele>508.2</ele>
        <time>2022-11-06T08:09:01Z</time>
      </trkpt>
      <trkpt lat="39.7105010" lon="-0.4240430">
        <ele>507.8</ele>
        <time>2022-11-06T08:09:02Z</time>
      </trkpt>
      <trkpt lat="39.7104160" lon="-0.4240680">
        <ele>507.4</ele>
        <time>2022-11-06T08:09:03Z</time>
      </trkpt>
      <trkpt lat="39.7103350" lon="-0.4241030">
        <ele>507.1</ele>
        <time>2022-11-06T08:09:04Z</time>
      </trkpt>
      <trkpt lat="39.7102470" lon="-0.4241330">
        <ele>506.7</ele>
        <time>2022-11-06T08:09:05Z</time>
      </trkpt>
      <trkpt lat="39.7101660" lon="-0.4241630">
        <ele>506.5</ele>
        <time>2022-11-06T08:09:06Z</time>
      </trkpt>
      <trkpt lat="39.7101660" lon="-0.4241630">
        <ele>506.5</ele>
        <time>2022-11-06T08:09:07Z</time>
      </trkpt>
      <trkpt lat="39.7101660" lon="-0.4241630">
        <ele>506.5</ele>
        <time>2022-11-06T08:09:08Z</time>
      </trkpt>
      <trkpt lat="39.7099270" lon="-0.4242350">
        <ele>506.6</ele>
        <time>2022-11-06T08:09:09Z</time>
      </trkpt>
      <trkpt lat="39.7098630" lon="-0.4242170">
        <ele>506.7</ele>
        <time>2022-11-06T08:09:10Z</time>
      </trkpt>
      <trkpt lat="39.7098040" lon="-0.4241930">
        <ele>506.8</ele>
        <time>2022-11-06T08:09:11Z</time>
      </trkpt>
      <trkpt lat="39.7097690" lon="-0.4241550">
        <ele>506.9</ele>
        <time>2022-11-06T08:09:12Z</time>
      </trkpt>
      <trkpt lat="39.7097850" lon="-0.4241050">
        <ele>506.9</ele>
        <time>2022-11-06T08:09:13Z</time>
      </trkpt>
      <trkpt lat="39.7097830" lon="-0.4240530">
        <ele>506.9</ele>
        <time>2022-11-06T08:09:14Z</time>
      </trkpt>
      <trkpt lat="39.7097750" lon="-0.4239830">
        <ele>506.9</ele>
        <time>2022-11-06T08:09:15Z</time>
      </trkpt>
      <trkpt lat="39.7097690" lon="-0.4239320">
        <ele>506.9</ele>
        <time>2022-11-06T08:09:16Z</time>
      </trkpt>
      <trkpt lat="39.7097640" lon="-0.4238920">
        <ele>506.9</ele>
        <time>2022-11-06T08:09:17Z</time>
      </trkpt>
      <trkpt lat="39.7097640" lon="-0.4238920">
        <ele>506.9</ele>
        <time>2022-11-06T08:09:18Z</time>
      </trkpt>
      <trkpt lat="39.7097400" lon="-0.4238370">
        <ele>506.9</ele>
        <time>2022-11-06T08:09:19Z</time>
      </trkpt>
      <trkpt lat="39.7097240" lon="-0.4238150">
        <ele>506.9</ele>
        <time>2022-11-06T08:09:20Z</time>
      </trkpt>
      <trkpt lat="39.7097130" lon="-0.4237920">
        <ele>507.0</ele>
        <time>2022-11-06T08:09:21Z</time>
      </trkpt>
      <trkpt lat="39.7096970" lon="-0.4237680">
        <ele>507.0</ele>
        <time>2022-11-06T08:09:22Z</time>
      </trkpt>
      <trkpt lat="39.7096860" lon="-0.4237370">
        <ele>507.1</ele>
        <time>2022-11-06T08:09:23Z</time>
      </trkpt>
      <trkpt lat="39.7096700" lon="-0.4237150">
        <ele>507.2</ele>
        <time>2022-11-06T08:09:24Z</time>
      </trkpt>
      <trkpt lat="39.7096480" lon="-0.4236880">
        <ele>507.3</ele>
        <time>2022-11-06T08:09:25Z</time>
      </trkpt>
      <trkpt lat="39.7096320" lon="-0.4236600">
        <ele>507.5</ele>
        <time>2022-11-06T08:09:26Z</time>
      </trkpt>
      <trkpt lat="39.7096160" lon="-0.4236220">
        <ele>507.7</ele>
        <time>2022-11-06T08:09:27Z</time>
      </trkpt>
      <trkpt lat="39.7096160" lon="-0.4236220">
        <ele>507.7</ele>
        <time>2022-11-06T08:09:28Z</time>
      </trkpt>
      <trkpt lat="39.7095920" lon="-0.4235550">
        <ele>508.1</ele>
        <time>2022-11-06T08:09:29Z</time>
      </trkpt>
      <trkpt lat="39.7095760" lon="-0.4235200">
        <ele>508.4</ele>
        <time>2022-11-06T08:09:30Z</time>
      </trkpt>
      <trkpt lat="39.7095600" lon="-0.4234930">
        <ele>508.6</ele>
        <time>2022-11-06T08:09:31Z</time>
      </trkpt>
      <trkpt lat="39.7095440" lon="-0.4234670">
        <ele>508.9</ele>
        <time>2022-11-06T08:09:32Z</time>
      </trkpt>
      <trkpt lat="39.7095300" lon="-0.4234300">
        <ele>509.2</ele>
        <time>2022-11-06T08:09:33Z</time>
      </trkpt>
      <trkpt lat="39.7095200" lon="-0.4233930">
        <ele>509.5</ele>
        <time>2022-11-06T08:09:34Z</time>
      </trkpt>
      <trkpt lat="39.7095040" lon="-0.4233620">
        <ele>509.8</ele>
        <time>2022-11-06T08:09:35Z</time>
      </trkpt>
      <trkpt lat="39.7094980" lon="-0.4233420">
        <ele>510.0</ele>
        <time>2022-11-06T08:09:36Z</time>
      </trkpt>
      <trkpt lat="39.7094880" lon="-0.4233030">
        <ele>510.3</ele>
        <time>2022-11-06T08:09:37Z</time>
      </trkpt>
      <trkpt lat="39.7094880" lon="-0.4233030">
        <ele>510.3</ele>
        <time>2022-11-06T08:09:38Z</time>
      </trkpt>
      <trkpt lat="39.7094880" lon="-0.4233030">
        <ele>510.3</ele>
        <time>2022-11-06T08:09:39Z</time>
      </trkpt>
      <trkpt lat="39.7094610" lon="-0.4232170">
        <ele>511.1</ele>
        <time>2022-11-06T08:09:40Z</time>
      </trkpt>
      <trkpt lat="39.7094450" lon="-0.4231800">
        <ele>511.5</ele>
        <time>2022-11-06T08:09:41Z</time>
      </trkpt>
      <trkpt lat="39.7094390" lon="-0.4231380">
        <ele>511.8</ele>
        <time>2022-11-06T08:09:42Z</time>
      </trkpt>
      <trkpt lat="39.7094310" lon="-0.4231020">
        <ele>512.1</ele>
        <time>2022-11-06T08:09:43Z</time>
      </trkpt>
      <trkpt lat="39.7094260" lon="-0.4230600">
        <ele>512.5</ele>
        <time>2022-11-06T08:09:44Z</time>
      </trkpt>
      <trkpt lat="39.7094260" lon="-0.4230430">
        <ele>512.7</ele>
        <time>2022-11-06T08:09:45Z</time>
      </trkpt>
      <trkpt lat="39.7094260" lon="-0.4230150">
        <ele>512.9</ele>
        <time>2022-11-06T08:09:46Z</time>
      </trkpt>
      <trkpt lat="39.7094310" lon="-0.4229800">
        <ele>513.2</ele>
        <time>2022-11-06T08:09:47Z</time>
      </trkpt>
      <trkpt lat="39.7094310" lon="-0.4229800">
        <ele>513.2</ele>
        <time>2022-11-06T08:09:48Z</time>
      </trkpt>
      <trkpt lat="39.7094310" lon="-0.4229800">
        <ele>513.2</ele>
        <time>2022-11-06T08:09:49Z</time>
      </trkpt>
      <trkpt lat="39.7094310" lon="-0.4228770">
        <ele>514.0</ele>
        <time>2022-11-06T08:09:50Z</time>
      </trkpt>
      <trkpt lat="39.7094340" lon="-0.4228400">
        <ele>514.3</ele>
        <time>2022-11-06T08:09:51Z</time>
      </trkpt>
      <trkpt lat="39.7094390" lon="-0.4228070">
        <ele>514.6</ele>
        <time>2022-11-06T08:09:52Z</time>
      </trkpt>
      <trkpt lat="39.7094500" lon="-0.4227830">
        <ele>514.8</ele>
        <time>2022-11-06T08:09:53Z</time>
      </trkpt>
      <trkpt lat="39.7094610" lon="-0.4227520">
        <ele>515.1</ele>
        <time>2022-11-06T08:09:54Z</time>
      </trkpt>
      <trkpt lat="39.7094660" lon="-0.4227050">
        <ele>515.5</ele>
        <time>2022-11-06T08:09:55Z</time>
      </trkpt>
      <trkpt lat="39.7094770" lon="-0.4226720">
        <ele>515.7</ele>
        <time>2022-11-06T08:09:56Z</time>
      </trkpt>
      <trkpt lat="39.7094980" lon="-0.4226450">
        <ele>516.0</ele>
        <time>2022-11-06T08:09:57Z</time>
      </trkpt>
      <trkpt lat="39.7095140" lon="-0.4226070">
        <ele>516.4</ele>
        <time>2022-11-06T08:09:58Z</time>
      </trkpt>
      <trkpt lat="39.7095140" lon="-0.4226070">
        <ele>516.4</ele>
        <time>2022-11-06T08:09:59Z</time>
      </trkpt>
      <trkpt lat="39.7095140" lon="-0.4226070">
        <ele>516.4</ele>
        <time>2022-11-06T08:10:00Z</time>
      </trkpt>
      <trkpt lat="39.7095520" lon="-0.4224800">
        <ele>517.3</ele>
        <time>2022-11-06T08:10:01Z</time>
      </trkpt>
      <trkpt lat="39.7095710" lon="-0.4224470">
        <ele>517.6</ele>
        <time>2022-11-06T08:10:02Z</time>
      </trkpt>
      <trkpt lat="39.7095840" lon="-0.4224170">
        <ele>517.8</ele>
        <time>2022-11-06T08:10:03Z</time>
      </trkpt>
      <trkpt lat="39.7096030" lon="-0.4223470">
        <ele>518.3</ele>
        <time>2022-11-06T08:10:04Z</time>
      </trkpt>
      <trkpt lat="39.7096160" lon="-0.4223000">
        <ele>518.6</ele>
        <time>2022-11-06T08:10:05Z</time>
      </trkpt>
      <trkpt lat="39.7096300" lon="-0.4222630">
        <ele>518.8</ele>
        <time>2022-11-06T08:10:06Z</time>
      </trkpt>
      <trkpt lat="39.7096480" lon="-0.4222250">
        <ele>519.1</ele>
        <time>2022-11-06T08:10:07Z</time>
      </trkpt>
      <trkpt lat="39.7096670" lon="-0.4221920">
        <ele>519.3</ele>
        <time>2022-11-06T08:10:08Z</time>
      </trkpt>
      <trkpt lat="39.7096670" lon="-0.4221920">
        <ele>519.3</ele>
        <time>2022-11-06T08:10:09Z</time>
      </trkpt>
      <trkpt lat="39.7097130" lon="-0.4221020">
        <ele>519.9</ele>
        <time>2022-11-06T08:10:10Z</time>
      </trkpt>
      <trkpt lat="39.7097370" lon="-0.4220550">
        <ele>520.1</ele>
        <time>2022-11-06T08:10:11Z</time>
      </trkpt>
      <trkpt lat="39.7097560" lon="-0.4220080">
        <ele>520.3</ele>
        <time>2022-11-06T08:10:12Z</time>
      </trkpt>
      <trkpt lat="39.7097690" lon="-0.4219700">
        <ele>520.5</ele>
        <time>2022-11-06T08:10:13Z</time>
      </trkpt>
      <trkpt lat="39.7097850" lon="-0.4219320">
        <ele>520.6</ele>
        <time>2022-11-06T08:10:14Z</time>
      </trkpt>
      <trkpt lat="39.7098090" lon="-0.4219000">
        <ele>520.6</ele>
        <time>2022-11-06T08:10:15Z</time>
      </trkpt>
      <trkpt lat="39.7098230" lon="-0.4218650">
        <ele>520.7</ele>
        <time>2022-11-06T08:10:16Z</time>
      </trkpt>
      <trkpt lat="39.7098390" lon="-0.4218230">
        <ele>520.7</ele>
        <time>2022-11-06T08:10:17Z</time>
      </trkpt>
      <trkpt lat="39.7098580" lon="-0.4217780">
        <ele>520.6</ele>
        <time>2022-11-06T08:10:18Z</time>
      </trkpt>
      <trkpt lat="39.7098760" lon="-0.4217330">
        <ele>520.6</ele>
        <time>2022-11-06T08:10:19Z</time>
      </trkpt>
      <trkpt lat="39.7098760" lon="-0.4217330">
        <ele>520.6</ele>
        <time>2022-11-06T08:10:20Z</time>
      </trkpt>
      <trkpt lat="39.7099140" lon="-0.4216430">
        <ele>520.3</ele>
        <time>2022-11-06T08:10:21Z</time>
      </trkpt>
      <trkpt lat="39.7099350" lon="-0.4216000">
        <ele>520.2</ele>
        <time>2022-11-06T08:10:22Z</time>
      </trkpt>
      <trkpt lat="39.7099540" lon="-0.4215570">
        <ele>520.0</ele>
        <time>2022-11-06T08:10:23Z</time>
      </trkpt>
      <trkpt lat="39.7099730" lon="-0.4215080">
        <ele>519.8</ele>
        <time>2022-11-06T08:10:24Z</time>
      </trkpt>
      <trkpt lat="39.7099860" lon="-0.4214550">
        <ele>519.5</ele>
        <time>2022-11-06T08:10:25Z</time>
      </trkpt>
      <trkpt lat="39.7100030" lon="-0.4213950">
        <ele>519.2</ele>
        <time>2022-11-06T08:10:26Z</time>
      </trkpt>
      <trkpt lat="39.7100210" lon="-0.4213300">
        <ele>518.8</ele>
        <time>2022-11-06T08:10:27Z</time>
      </trkpt>
      <trkpt lat="39.7100370" lon="-0.4212580">
        <ele>518.3</ele>
        <time>2022-11-06T08:10:28Z</time>
      </trkpt>
      <trkpt lat="39.7100370" lon="-0.4212580">
        <ele>518.3</ele>
        <time>2022-11-06T08:10:29Z</time>
      </trkpt>
      <trkpt lat="39.7100370" lon="-0.4212580">
        <ele>518.3</ele>
        <time>2022-11-06T08:10:30Z</time>
      </trkpt>
      <trkpt lat="39.7100400" lon="-0.4209980">
        <ele>516.7</ele>
        <time>2022-11-06T08:10:31Z</time>
      </trkpt>
      <trkpt lat="39.7100400" lon="-0.4209020">
        <ele>516.1</ele>
        <time>2022-11-06T08:10:32Z</time>
      </trkpt>
      <trkpt lat="39.7100400" lon="-0.4208070">
        <ele>515.5</ele>
        <time>2022-11-06T08:10:33Z</time>
      </trkpt>
      <trkpt lat="39.7100350" lon="-0.4206920">
        <ele>514.9</ele>
        <time>2022-11-06T08:10:34Z</time>
      </trkpt>
      <trkpt lat="39.7100270" lon="-0.4205850">
        <ele>514.3</ele>
        <time>2022-11-06T08:10:35Z</time>
      </trkpt>
      <trkpt lat="39.7100130" lon="-0.4204800">
        <ele>513.7</ele>
        <time>2022-11-06T08:10:36Z</time>
      </trkpt>
      <trkpt lat="39.7100000" lon="-0.4203900">
        <ele>513.3</ele>
        <time>2022-11-06T08:10:37Z</time>
      </trkpt>
      <trkpt lat="39.7099730" lon="-0.4202980">
        <ele>512.8</ele>
        <time>2022-11-06T08:10:38Z</time>
      </trkpt>
      <trkpt lat="39.7099300" lon="-0.4202130">
        <ele>512.3</ele>
        <time>2022-11-06T08:10:39Z</time>
      </trkpt>
      <trkpt lat="39.7099300" lon="-0.4202130">
        <ele>512.3</ele>
        <time>2022-11-06T08:10:40Z</time>
      </trkpt>
      <trkpt lat="39.7099300" lon="-0.4202130">
        <ele>512.3</ele>
        <time>2022-11-06T08:10:41Z</time>
      </trkpt>
      <trkpt lat="39.7097690" lon="-0.4200120">
        <ele>511.1</ele>
        <time>2022-11-06T08:10:42Z</time>
      </trkpt>
      <trkpt lat="39.7097100" lon="-0.4199620">
        <ele>510.9</ele>
        <time>2022-11-06T08:10:43Z</time>
      </trkpt>
      <trkpt lat="39.7096430" lon="-0.4199200">
        <ele>510.8</ele>
        <time>2022-11-06T08:10:44Z</time>
      </trkpt>
      <trkpt lat="39.7095790" lon="-0.4198850">
        <ele>510.7</ele>
        <time>2022-11-06T08:10:45Z</time>
      </trkpt>
      <trkpt lat="39.7095200" lon="-0.4198430">
        <ele>510.6</ele>
        <time>2022-11-06T08:10:46Z</time>
      </trkpt>
      <trkpt lat="39.7094690" lon="-0.4197880">
        <ele>510.5</ele>
        <time>2022-11-06T08:10:47Z</time>
      </trkpt>
      <trkpt lat="39.7094230" lon="-0.4197320">
        <ele>510.5</ele>
        <time>2022-11-06T08:10:48Z</time>
      </trkpt>
      <trkpt lat="39.7094070" lon="-0.4196670">
        <ele>510.5</ele>
        <time>2022-11-06T08:10:49Z</time>
      </trkpt>
      <trkpt lat="39.7094070" lon="-0.4196670">
        <ele>510.5</ele>
        <time>2022-11-06T08:10:50Z</time>
      </trkpt>
      <trkpt lat="39.7094500" lon="-0.4195220">
        <ele>510.5</ele>
        <time>2022-11-06T08:10:51Z</time>
      </trkpt>
      <trkpt lat="39.7094660" lon="-0.4194530">
        <ele>510.6</ele>
        <time>2022-11-06T08:10:52Z</time>
      </trkpt>
      <trkpt lat="39.7094770" lon="-0.4193900">
        <ele>510.6</ele>
        <time>2022-11-06T08:10:53Z</time>
      </trkpt>
      <trkpt lat="39.7094930" lon="-0.4193150">
        <ele>510.7</ele>
        <time>2022-11-06T08:10:54Z</time>
      </trkpt>
      <trkpt lat="39.7095060" lon="-0.4192420">
        <ele>510.7</ele>
        <time>2022-11-06T08:10:55Z</time>
      </trkpt>
      <trkpt lat="39.7095200" lon="-0.4191620">
        <ele>510.8</ele>
        <time>2022-11-06T08:10:56Z</time>
      </trkpt>
      <trkpt lat="39.7095300" lon="-0.4190820">
        <ele>510.9</ele>
        <time>2022-11-06T08:10:57Z</time>
      </trkpt>
      <trkpt lat="39.7095330" lon="-0.4190020">
        <ele>511.0</ele>
        <time>2022-11-06T08:10:58Z</time>
      </trkpt>
      <trkpt lat="39.7095330" lon="-0.4189250">
        <ele>511.2</ele>
        <time>2022-11-06T08:10:59Z</time>
      </trkpt>
      <trkpt lat="39.7095250" lon="-0.4188520">
        <ele>511.3</ele>
        <time>2022-11-06T08:11:00Z</time>
      </trkpt>
      <trkpt lat="39.7095250" lon="-0.4188520">
        <ele>511.3</ele>
        <time>2022-11-06T08:11:01Z</time>
      </trkpt>
      <trkpt lat="39.7094930" lon="-0.4187170">
        <ele>511.7</ele>
        <time>2022-11-06T08:11:02Z</time>
      </trkpt>
      <trkpt lat="39.7094770" lon="-0.4186520">
        <ele>511.8</ele>
        <time>2022-11-06T08:11:03Z</time>
      </trkpt>
      <trkpt lat="39.7094660" lon="-0.4185850">
        <ele>512.0</ele>
        <time>2022-11-06T08:11:04Z</time>
      </trkpt>
      <trkpt lat="39.7094500" lon="-0.4185200">
        <ele>512.2</ele>
        <time>2022-11-06T08:11:05Z</time>
      </trkpt>
      <trkpt lat="39.7094260" lon="-0.4184550">
        <ele>512.4</ele>
        <time>2022-11-06T08:11:06Z</time>
      </trkpt>
      <trkpt lat="39.7093990" lon="-0.4183920">
        <ele>512.6</ele>
        <time>2022-11-06T08:11:07Z</time>
      </trkpt>
      <trkpt lat="39.7093700" lon="-0.4183370">
        <ele>512.8</ele>
        <time>2022-11-06T08:11:08Z</time>
      </trkpt>
      <trkpt lat="39.7093320" lon="-0.4182830">
        <ele>513.0</ele>
        <time>2022-11-06T08:11:09Z</time>
      </trkpt>
      <trkpt lat="39.7092940" lon="-0.4182350">
        <ele>513.2</ele>
        <time>2022-11-06T08:11:10Z</time>
      </trkpt>
      <trkpt lat="39.7092940" lon="-0.4182350">
        <ele>513.2</ele>
        <time>2022-11-06T08:11:11Z</time>
      </trkpt>
      <trkpt lat="39.7092010" lon="-0.4181550">
        <ele>513.7</ele>
        <time>2022-11-06T08:11:12Z</time>
      </trkpt>
      <trkpt lat="39.7091600" lon="-0.4181200">
        <ele>513.9</ele>
        <time>2022-11-06T08:11:13Z</time>
      </trkpt>
      <trkpt lat="39.7091150" lon="-0.4180930">
        <ele>514.2</ele>
        <time>2022-11-06T08:11:14Z</time>
      </trkpt>
      <trkpt lat="39.7090720" lon="-0.4180720">
        <ele>514.5</ele>
        <time>2022-11-06T08:11:15Z</time>
      </trkpt>
      <trkpt lat="39.7090290" lon="-0.4180530">
        <ele>514.8</ele>
        <time>2022-11-06T08:11:16Z</time>
      </trkpt>
      <trkpt lat="39.7089830" lon="-0.4180470">
        <ele>515.0</ele>
        <time>2022-11-06T08:11:17Z</time>
      </trkpt>
      <trkpt lat="39.7089430" lon="-0.4180450">
        <ele>515.3</ele>
        <time>2022-11-06T08:11:18Z</time>
      </trkpt>
      <trkpt lat="39.7089060" lon="-0.4180480">
        <ele>515.4</ele>
        <time>2022-11-06T08:11:19Z</time>
      </trkpt>
      <trkpt lat="39.7088710" lon="-0.4180500">
        <ele>515.6</ele>
        <time>2022-11-06T08:11:20Z</time>
      </trkpt>
      <trkpt lat="39.7088710" lon="-0.4180500">
        <ele>515.6</ele>
        <time>2022-11-06T08:11:21Z</time>
      </trkpt>
      <trkpt lat="39.7088710" lon="-0.4180500">
        <ele>515.6</ele>
        <time>2022-11-06T08:11:22Z</time>
      </trkpt>
      <trkpt lat="39.7087660" lon="-0.4180700">
        <ele>515.8</ele>
        <time>2022-11-06T08:11:23Z</time>
      </trkpt>
      <trkpt lat="39.7087370" lon="-0.4180800">
        <ele>515.8</ele>
        <time>2022-11-06T08:11:24Z</time>
      </trkpt>
      <trkpt lat="39.7087020" lon="-0.4181030">
        <ele>515.8</ele>
        <time>2022-11-06T08:11:25Z</time>
      </trkpt>
      <trkpt lat="39.7086670" lon="-0.4181370">
        <ele>515.7</ele>
        <time>2022-11-06T08:11:26Z</time>
      </trkpt>
      <trkpt lat="39.7086370" lon="-0.4181800">
        <ele>515.6</ele>
        <time>2022-11-06T08:11:27Z</time>
      </trkpt>
      <trkpt lat="39.7086100" lon="-0.4182230">
        <ele>515.5</ele>
        <time>2022-11-06T08:11:28Z</time>
      </trkpt>
      <trkpt lat="39.7085650" lon="-0.4182620">
        <ele>515.3</ele>
        <time>2022-11-06T08:11:29Z</time>
      </trkpt>
      <trkpt lat="39.7085270" lon="-0.4183020">
        <ele>515.1</ele>
        <time>2022-11-06T08:11:30Z</time>
      </trkpt>
      <trkpt lat="39.7085270" lon="-0.4183020">
        <ele>515.1</ele>
        <time>2022-11-06T08:11:31Z</time>
      </trkpt>
      <trkpt lat="39.7085270" lon="-0.4183020">
        <ele>515.1</ele>
        <time>2022-11-06T08:11:32Z</time>
      </trkpt>
      <trkpt lat="39.7083580" lon="-0.4184050">
        <ele>514.5</ele>
        <time>2022-11-06T08:11:33Z</time>
      </trkpt>
      <trkpt lat="39.7083020" lon="-0.4184370">
        <ele>514.3</ele>
        <time>2022-11-06T08:11:34Z</time>
      </trkpt>
      <trkpt lat="39.7082380" lon="-0.4184650">
        <ele>514.1</ele>
        <time>2022-11-06T08:11:35Z</time>
      </trkpt>
      <trkpt lat="39.7081710" lon="-0.4184980">
        <ele>513.9</ele>
        <time>2022-11-06T08:11:36Z</time>
      </trkpt>
      <trkpt lat="39.7081060" lon="-0.4185300">
        <ele>513.8</ele>
        <time>2022-11-06T08:11:37Z</time>
      </trkpt>
      <trkpt lat="39.7080470" lon="-0.4185620">
        <ele>513.8</ele>
        <time>2022-11-06T08:11:38Z</time>
      </trkpt>
      <trkpt lat="39.7079860" lon="-0.4185980">
        <ele>513.8</ele>
        <time>2022-11-06T08:11:39Z</time>
      </trkpt>
      <trkpt lat="39.7079270" lon="-0.4186330">
        <ele>513.8</ele>
        <time>2022-11-06T08:11:40Z</time>
      </trkpt>
      <trkpt lat="39.7078700" lon="-0.4186700">
        <ele>513.7</ele>
        <time>2022-11-06T08:11:41Z</time>
      </trkpt>
      <trkpt lat="39.7078700" lon="-0.4186700">
        <ele>513.7</ele>
        <time>2022-11-06T08:11:42Z</time>
      </trkpt>
      <trkpt lat="39.7078700" lon="-0.4186700">
        <ele>513.7</ele>
        <time>2022-11-06T08:11:43Z</time>
      </trkpt>
      <trkpt lat="39.7076990" lon="-0.4187130">
        <ele>513.5</ele>
        <time>2022-11-06T08:11:44Z</time>
      </trkpt>
      <trkpt lat="39.7076420" lon="-0.4187100">
        <ele>513.3</ele>
        <time>2022-11-06T08:11:45Z</time>
      </trkpt>
      <trkpt lat="39.7075830" lon="-0.4187020">
        <ele>513.1</ele>
        <time>2022-11-06T08:11:46Z</time>
      </trkpt>
      <trkpt lat="39.7075240" lon="-0.4186920">
        <ele>512.8</ele>
        <time>2022-11-06T08:11:47Z</time>
      </trkpt>
      <trkpt lat="39.7074650" lon="-0.4186780">
        <ele>512.4</ele>
        <time>2022-11-06T08:11:48Z</time>
      </trkpt>
      <trkpt lat="39.7074060" lon="-0.4186550">
        <ele>512.1</ele>
        <time>2022-11-06T08:11:49Z</time>
      </trkpt>
      <trkpt lat="39.7073530" lon="-0.4186220">
        <ele>511.7</ele>
        <time>2022-11-06T08:11:50Z</time>
      </trkpt>
      <trkpt lat="39.7072880" lon="-0.4185770">
        <ele>511.2</ele>
        <time>2022-11-06T08:11:51Z</time>
      </trkpt>
      <trkpt lat="39.7072880" lon="-0.4185770">
        <ele>511.2</ele>
        <time>2022-11-06T08:11:52Z</time>
      </trkpt>
      <trkpt lat="39.7071650" lon="-0.4185520">
        <ele>510.4</ele>
        <time>2022-11-06T08:11:53Z</time>
      </trkpt>
      <trkpt lat="39.7070920" lon="-0.4185570">
        <ele>510.0</ele>
        <time>2022-11-06T08:11:54Z</time>
      </trkpt>
      <trkpt lat="39.7070200" lon="-0.4185780">
        <ele>509.5</ele>
        <time>2022-11-06T08:11:55Z</time>
      </trkpt>
      <trkpt lat="39.7069560" lon="-0.4186230">
        <ele>509.1</ele>
        <time>2022-11-06T08:11:56Z</time>
      </trkpt>
      <trkpt lat="39.7068940" lon="-0.4186700">
        <ele>508.6</ele>
        <time>2022-11-06T08:11:57Z</time>
      </trkpt>
      <trkpt lat="39.7068240" lon="-0.4187200">
        <ele>508.1</ele>
        <time>2022-11-06T08:11:58Z</time>
      </trkpt>
      <trkpt lat="39.7067520" lon="-0.4187420">
        <ele>507.6</ele>
        <time>2022-11-06T08:11:59Z</time>
      </trkpt>
      <trkpt lat="39.7066850" lon="-0.4187570">
        <ele>507.2</ele>
        <time>2022-11-06T08:12:00Z</time>
      </trkpt>
      <trkpt lat="39.7066150" lon="-0.4187550">
        <ele>506.7</ele>
        <time>2022-11-06T08:12:01Z</time>
      </trkpt>
      <trkpt lat="39.7065400" lon="-0.4187380">
        <ele>506.1</ele>
        <time>2022-11-06T08:12:02Z</time>
      </trkpt>
      <trkpt lat="39.7065400" lon="-0.4187380">
        <ele>506.1</ele>
        <time>2022-11-06T08:12:03Z</time>
      </trkpt>
      <trkpt lat="39.7063550" lon="-0.4187080">
        <ele>504.4</ele>
        <time>2022-11-06T08:12:04Z</time>
      </trkpt>
      <trkpt lat="39.7062690" lon="-0.4186980">
        <ele>503.6</ele>
        <time>2022-11-06T08:12:05Z</time>
      </trkpt>
      <trkpt lat="39.7061880" lon="-0.4186830">
        <ele>502.9</ele>
        <time>2022-11-06T08:12:06Z</time>
      </trkpt>
      <trkpt lat="39.7061270" lon="-0.4186530">
        <ele>502.3</ele>
        <time>2022-11-06T08:12:07Z</time>
      </trkpt>
      <trkpt lat="39.7060780" lon="-0.4186050">
        <ele>501.8</ele>
        <time>2022-11-06T08:12:08Z</time>
      </trkpt>
      <trkpt lat="39.7060380" lon="-0.4185180">
        <ele>501.1</ele>
        <time>2022-11-06T08:12:09Z</time>
      </trkpt>
      <trkpt lat="39.7060060" lon="-0.4184130">
        <ele>500.2</ele>
        <time>2022-11-06T08:12:10Z</time>
      </trkpt>
      <trkpt lat="39.7059870" lon="-0.4183170">
        <ele>499.5</ele>
        <time>2022-11-06T08:12:11Z</time>
      </trkpt>
      <trkpt lat="39.7059870" lon="-0.4183170">
        <ele>499.5</ele>
        <time>2022-11-06T08:12:12Z</time>
      </trkpt>
      <trkpt lat="39.7059870" lon="-0.4183170">
        <ele>499.5</ele>
        <time>2022-11-06T08:12:13Z</time>
      </trkpt>
      <trkpt lat="39.7058880" lon="-0.4180050">
        <ele>497.1</ele>
        <time>2022-11-06T08:12:14Z</time>
      </trkpt>
      <trkpt lat="39.7058480" lon="-0.4179030">
        <ele>496.4</ele>
        <time>2022-11-06T08:12:15Z</time>
      </trkpt>
      <trkpt lat="39.7058100" lon="-0.4178050">
        <ele>495.9</ele>
        <time>2022-11-06T08:12:16Z</time>
      </trkpt>
      <trkpt lat="39.7057670" lon="-0.4177080">
        <ele>495.5</ele>
        <time>2022-11-06T08:12:17Z</time>
      </trkpt>
      <trkpt lat="39.7057220" lon="-0.4176230">
        <ele>495.1</ele>
        <time>2022-11-06T08:12:18Z</time>
      </trkpt>
      <trkpt lat="39.7056730" lon="-0.4175430">
        <ele>494.7</ele>
        <time>2022-11-06T08:12:19Z</time>
      </trkpt>
      <trkpt lat="39.7056200" lon="-0.4174800">
        <ele>494.5</ele>
        <time>2022-11-06T08:12:20Z</time>
      </trkpt>
      <trkpt lat="39.7055720" lon="-0.4174330">
        <ele>494.3</ele>
        <time>2022-11-06T08:12:21Z</time>
      </trkpt>
      <trkpt lat="39.7055180" lon="-0.4174020">
        <ele>494.1</ele>
        <time>2022-11-06T08:12:22Z</time>
      </trkpt>
      <trkpt lat="39.7055180" lon="-0.4174020">
        <ele>494.1</ele>
        <time>2022-11-06T08:12:23Z</time>
      </trkpt>
      <trkpt lat="39.7055180" lon="-0.4174020">
        <ele>494.1</ele>
        <time>2022-11-06T08:12:24Z</time>
      </trkpt>
      <trkpt lat="39.7053380" lon="-0.4173930">
        <ele>493.3</ele>
        <time>2022-11-06T08:12:25Z</time>
      </trkpt>
      <trkpt lat="39.7052760" lon="-0.4174000">
        <ele>493.0</ele>
        <time>2022-11-06T08:12:26Z</time>
      </trkpt>
      <trkpt lat="39.7052150" lon="-0.4174170">
        <ele>492.6</ele>
        <time>2022-11-06T08:12:27Z</time>
      </trkpt>
      <trkpt lat="39.7051610" lon="-0.4174500">
        <ele>492.2</ele>
        <time>2022-11-06T08:12:28Z</time>
      </trkpt>
      <trkpt lat="39.7051080" lon="-0.4174850">
        <ele>491.7</ele>
        <time>2022-11-06T08:12:29Z</time>
      </trkpt>
      <trkpt lat="39.7050590" lon="-0.4175170">
        <ele>491.3</ele>
        <time>2022-11-06T08:12:30Z</time>
      </trkpt>
      <trkpt lat="39.7050060" lon="-0.4175380">
        <ele>490.9</ele>
        <time>2022-11-06T08:12:31Z</time>
      </trkpt>
      <trkpt lat="39.7049600" lon="-0.4175500">
        <ele>490.5</ele>
        <time>2022-11-06T08:12:32Z</time>
      </trkpt>
      <trkpt lat="39.7048800" lon="-0.4175550">
        <ele>490.0</ele>
        <time>2022-11-06T08:12:33Z</time>
      </trkpt>
      <trkpt lat="39.7048800" lon="-0.4175550">
        <ele>490.0</ele>
        <time>2022-11-06T08:12:34Z</time>
      </trkpt>
      <trkpt lat="39.7048580" lon="-0.4175470">
        <ele>489.8</ele>
        <time>2022-11-06T08:12:35Z</time>
      </trkpt>
      <trkpt lat="39.7048420" lon="-0.4175400">
        <ele>489.7</ele>
        <time>2022-11-06T08:12:36Z</time>
      </trkpt>
      <trkpt lat="39.7048260" lon="-0.4175370">
        <ele>489.6</ele>
        <time>2022-11-06T08:12:37Z</time>
      </trkpt>
      <trkpt lat="39.7048070" lon="-0.4175250">
        <ele>489.4</ele>
        <time>2022-11-06T08:12:38Z</time>
      </trkpt>
      <trkpt lat="39.7047910" lon="-0.4175080">
        <ele>489.3</ele>
        <time>2022-11-06T08:12:39Z</time>
      </trkpt>
      <trkpt lat="39.7047880" lon="-0.4174950">
        <ele>489.2</ele>
        <time>2022-11-06T08:12:40Z</time>
      </trkpt>
      <trkpt lat="39.7047880" lon="-0.4174820">
        <ele>489.2</ele>
        <time>2022-11-06T08:12:41Z</time>
      </trkpt>
      <trkpt lat="39.7047910" lon="-0.4174680">
        <ele>489.1</ele>
        <time>2022-11-06T08:12:42Z</time>
      </trkpt>
      <trkpt lat="39.7047910" lon="-0.4174580">
        <ele>489.1</ele>
        <time>2022-11-06T08:12:43Z</time>
      </trkpt>
      <trkpt lat="39.7047910" lon="-0.4174580">
        <ele>489.1</ele>
        <time>2022-11-06T08:12:44Z</time>
      </trkpt>
      <trkpt lat="39.7048070" lon="-0.4174430">
        <ele>488.9</ele>
        <time>2022-11-06T08:12:45Z</time>
      </trkpt>
      <trkpt lat="39.7048150" lon="-0.4174420">
        <ele>488.8</ele>
        <time>2022-11-06T08:12:46Z</time>
      </trkpt>
      <trkpt lat="39.7048230" lon="-0.4174430">
        <ele>488.8</ele>
        <time>2022-11-06T08:12:47Z</time>
      </trkpt>
      <trkpt lat="39.7048180" lon="-0.4174500">
        <ele>488.7</ele>
        <time>2022-11-06T08:12:48Z</time>
      </trkpt>
      <trkpt lat="39.7048180" lon="-0.4174650">
        <ele>488.6</ele>
        <time>2022-11-06T08:12:49Z</time>
      </trkpt>
      <trkpt lat="39.7048070" lon="-0.4174770">
        <ele>488.5</ele>
        <time>2022-11-06T08:12:50Z</time>
      </trkpt>
      <trkpt lat="39.7047960" lon="-0.4174870">
        <ele>488.4</ele>
        <time>2022-11-06T08:12:51Z</time>
      </trkpt>
      <trkpt lat="39.7047800" lon="-0.4174950">
        <ele>488.3</ele>
        <time>2022-11-06T08:12:52Z</time>
      </trkpt>
      <trkpt lat="39.7047800" lon="-0.4174950">
        <ele>488.3</ele>
        <time>2022-11-06T08:12:53Z</time>
      </trkpt>
      <trkpt lat="39.7047530" lon="-0.4175280">
        <ele>488.2</ele>
        <time>2022-11-06T08:12:54Z</time>
      </trkpt>
      <trkpt lat="39.7047530" lon="-0.4175280">
        <ele>488.2</ele>
        <time>2022-11-06T08:12:55Z</time>
      </trkpt>
      <trkpt lat="39.7047450" lon="-0.4175420">
        <ele>488.2</ele>
        <time>2022-11-06T08:12:56Z</time>
      </trkpt>
      <trkpt lat="39.7047370" lon="-0.4175550">
        <ele>488.2</ele>
        <time>2022-11-06T08:12:57Z</time>
      </trkpt>
      <trkpt lat="39.7047320" lon="-0.4175700">
        <ele>488.2</ele>
        <time>2022-11-06T08:12:58Z</time>
      </trkpt>
      <trkpt lat="39.7047190" lon="-0.4175900">
        <ele>488.1</ele>
        <time>2022-11-06T08:12:59Z</time>
      </trkpt>
      <trkpt lat="39.7047080" lon="-0.4176130">
        <ele>488.1</ele>
        <time>2022-11-06T08:13:00Z</time>
      </trkpt>
      <trkpt lat="39.7046920" lon="-0.4176400">
        <ele>488.1</ele>
        <time>2022-11-06T08:13:01Z</time>
      </trkpt>
      <trkpt lat="39.7046780" lon="-0.4176680">
        <ele>488.1</ele>
        <time>2022-11-06T08:13:02Z</time>
      </trkpt>
      <trkpt lat="39.7046600" lon="-0.4177000">
        <ele>488.0</ele>
        <time>2022-11-06T08:13:03Z</time>
      </trkpt>
      <trkpt lat="39.7046600" lon="-0.4177000">
        <ele>488.0</ele>
        <time>2022-11-06T08:13:04Z</time>
      </trkpt>
      <trkpt lat="39.7046600" lon="-0.4177000">
        <ele>488.0</ele>
        <time>2022-11-06T08:13:05Z</time>
      </trkpt>
      <trkpt lat="39.7046010" lon="-0.4178150">
        <ele>487.9</ele>
        <time>2022-11-06T08:13:06Z</time>
      </trkpt>
      <trkpt lat="39.7045740" lon="-0.4178600">
        <ele>487.8</ele>
        <time>2022-11-06T08:13:07Z</time>
      </trkpt>
      <trkpt lat="39.7045520" lon="-0.4179070">
        <ele>487.7</ele>
        <time>2022-11-06T08:13:08Z</time>
      </trkpt>
      <trkpt lat="39.7045250" lon="-0.4179520">
        <ele>487.7</ele>
        <time>2022-11-06T08:13:09Z</time>
      </trkpt>
      <trkpt lat="39.7044990" lon="-0.4179980">
        <ele>487.6</ele>
        <time>2022-11-06T08:13:10Z</time>
      </trkpt>
      <trkpt lat="39.7044720" lon="-0.4180480">
        <ele>487.5</ele>
        <time>2022-11-06T08:13:11Z</time>
      </trkpt>
      <trkpt lat="39.7044450" lon="-0.4180980">
        <ele>487.5</ele>
        <time>2022-11-06T08:13:12Z</time>
      </trkpt>
      <trkpt lat="39.7044180" lon="-0.4181480">
        <ele>487.4</ele>
        <time>2022-11-06T08:13:13Z</time>
      </trkpt>
      <trkpt lat="39.7043650" lon="-0.4182570">
        <ele>487.2</ele>
        <time>2022-11-06T08:13:14Z</time>
      </trkpt>
      <trkpt lat="39.7043350" lon="-0.4183100">
        <ele>487.1</ele>
        <time>2022-11-06T08:13:15Z</time>
      </trkpt>
      <trkpt lat="39.7043350" lon="-0.4183100">
        <ele>487.1</ele>
        <time>2022-11-06T08:13:16Z</time>
      </trkpt>
      <trkpt lat="39.7043000" lon="-0.4183620">
        <ele>487.0</ele>
        <time>2022-11-06T08:13:17Z</time>
      </trkpt>
      <trkpt lat="39.7042650" lon="-0.4184100">
        <ele>486.9</ele>
        <time>2022-11-06T08:13:18Z</time>
      </trkpt>
      <trkpt lat="39.7042280" lon="-0.4184570">
        <ele>486.8</ele>
        <time>2022-11-06T08:13:19Z</time>
      </trkpt>
      <trkpt lat="39.7041850" lon="-0.4185000">
        <ele>486.7</ele>
        <time>2022-11-06T08:13:20Z</time>
      </trkpt>
      <trkpt lat="39.7041390" lon="-0.4185420">
        <ele>486.5</ele>
        <time>2022-11-06T08:13:21Z</time>
      </trkpt>
      <trkpt lat="39.7040860" lon="-0.4185780">
        <ele>486.4</ele>
        <time>2022-11-06T08:13:22Z</time>
      </trkpt>
      <trkpt lat="39.7040370" lon="-0.4186150">
        <ele>486.2</ele>
        <time>2022-11-06T08:13:23Z</time>
      </trkpt>
      <trkpt lat="39.7039840" lon="-0.4186520">
        <ele>486.0</ele>
        <time>2022-11-06T08:13:24Z</time>
      </trkpt>
      <trkpt lat="39.7038680" lon="-0.4187250">
        <ele>485.6</ele>
        <time>2022-11-06T08:13:25Z</time>
      </trkpt>
      <trkpt lat="39.7038680" lon="-0.4187250">
        <ele>485.6</ele>
        <time>2022-11-06T08:13:26Z</time>
      </trkpt>
      <trkpt lat="39.7038120" lon="-0.4187600">
        <ele>485.4</ele>
        <time>2022-11-06T08:13:27Z</time>
      </trkpt>
      <trkpt lat="39.7037580" lon="-0.4187980">
        <ele>485.2</ele>
        <time>2022-11-06T08:13:28Z</time>
      </trkpt>
      <trkpt lat="39.7037050" lon="-0.4188330">
        <ele>484.9</ele>
        <time>2022-11-06T08:13:29Z</time>
      </trkpt>
      <trkpt lat="39.7036510" lon="-0.4188680">
        <ele>484.7</ele>
        <time>2022-11-06T08:13:30Z</time>
      </trkpt>
      <trkpt lat="39.7036030" lon="-0.4189000">
        <ele>484.4</ele>
        <time>2022-11-06T08:13:31Z</time>
      </trkpt>
      <trkpt lat="39.7035490" lon="-0.4189200">
        <ele>484.2</ele>
        <time>2022-11-06T08:13:32Z</time>
      </trkpt>
      <trkpt lat="39.7034960" lon="-0.4189120">
        <ele>484.0</ele>
        <time>2022-11-06T08:13:33Z</time>
      </trkpt>
      <trkpt lat="39.7034530" lon="-0.4188680">
        <ele>483.9</ele>
        <time>2022-11-06T08:13:34Z</time>
      </trkpt>
      <trkpt lat="39.7034040" lon="-0.4187650">
        <ele>484.1</ele>
        <time>2022-11-06T08:13:35Z</time>
      </trkpt>
      <trkpt lat="39.7033770" lon="-0.4187080">
        <ele>484.1</ele>
        <time>2022-11-06T08:13:36Z</time>
      </trkpt>
      <trkpt lat="39.7033770" lon="-0.4187080">
        <ele>484.1</ele>
        <time>2022-11-06T08:13:37Z</time>
      </trkpt>
      <trkpt lat="39.7033530" lon="-0.4186580">
        <ele>484.2</ele>
        <time>2022-11-06T08:13:38Z</time>
      </trkpt>
      <trkpt lat="39.7033320" lon="-0.4186170">
        <ele>484.3</ele>
        <time>2022-11-06T08:13:39Z</time>
      </trkpt>
      <trkpt lat="39.7032970" lon="-0.4185820">
        <ele>484.4</ele>
        <time>2022-11-06T08:13:40Z</time>
      </trkpt>
      <trkpt lat="39.7032650" lon="-0.4185630">
        <ele>484.5</ele>
        <time>2022-11-06T08:13:41Z</time>
      </trkpt>
      <trkpt lat="39.7032330" lon="-0.4185470">
        <ele>484.6</ele>
        <time>2022-11-06T08:13:42Z</time>
      </trkpt>
      <trkpt lat="39.7031900" lon="-0.4185370">
        <ele>484.8</ele>
        <time>2022-11-06T08:13:43Z</time>
      </trkpt>
      <trkpt lat="39.7031520" lon="-0.4185300">
        <ele>484.9</ele>
        <time>2022-11-06T08:13:44Z</time>
      </trkpt>
      <trkpt lat="39.7031520" lon="-0.4185300">
        <ele>484.9</ele>
        <time>2022-11-06T08:13:45Z</time>
      </trkpt>
      <trkpt lat="39.7030480" lon="-0.4185280">
        <ele>485.3</ele>
        <time>2022-11-06T08:13:46Z</time>
      </trkpt>
      <trkpt lat="39.7030480" lon="-0.4185280">
        <ele>485.3</ele>
        <time>2022-11-06T08:13:47Z</time>
      </trkpt>
      <trkpt lat="39.7030100" lon="-0.4185270">
        <ele>485.5</ele>
        <time>2022-11-06T08:13:48Z</time>
      </trkpt>
      <trkpt lat="39.7029700" lon="-0.4185230">
        <ele>485.7</ele>
        <time>2022-11-06T08:13:49Z</time>
      </trkpt>
      <trkpt lat="39.7029270" lon="-0.4185230">
        <ele>485.9</ele>
        <time>2022-11-06T08:13:50Z</time>
      </trkpt>
      <trkpt lat="39.7028840" lon="-0.4185230">
        <ele>486.1</ele>
        <time>2022-11-06T08:13:51Z</time>
      </trkpt>
      <trkpt lat="39.7028460" lon="-0.4185280">
        <ele>486.2</ele>
        <time>2022-11-06T08:13:52Z</time>
      </trkpt>
      <trkpt lat="39.7028030" lon="-0.4185350">
        <ele>486.5</ele>
        <time>2022-11-06T08:13:53Z</time>
      </trkpt>
      <trkpt lat="39.7027660" lon="-0.4185370">
        <ele>486.7</ele>
        <time>2022-11-06T08:13:54Z</time>
      </trkpt>
      <trkpt lat="39.7027660" lon="-0.4185370">
        <ele>486.7</ele>
        <time>2022-11-06T08:13:55Z</time>
      </trkpt>
      <trkpt lat="39.7026480" lon="-0.4185270">
        <ele>487.3</ele>
        <time>2022-11-06T08:13:56Z</time>
      </trkpt>
      <trkpt lat="39.7026290" lon="-0.4185120">
        <ele>487.4</ele>
        <time>2022-11-06T08:13:57Z</time>
      </trkpt>
      <trkpt lat="39.7026290" lon="-0.4185120">
        <ele>487.4</ele>
        <time>2022-11-06T08:13:58Z</time>
      </trkpt>
      <trkpt lat="39.7025860" lon="-0.4184970">
        <ele>487.7</ele>
        <time>2022-11-06T08:13:59Z</time>
      </trkpt>
      <trkpt lat="39.7025490" lon="-0.4184820">
        <ele>487.9</ele>
        <time>2022-11-06T08:14:00Z</time>
      </trkpt>
      <trkpt lat="39.7025110" lon="-0.4184720">
        <ele>488.1</ele>
        <time>2022-11-06T08:14:01Z</time>
      </trkpt>
      <trkpt lat="39.7024740" lon="-0.4184600">
        <ele>488.3</ele>
        <time>2022-11-06T08:14:02Z</time>
      </trkpt>
      <trkpt lat="39.7024390" lon="-0.4184400">
        <ele>488.6</ele>
        <time>2022-11-06T08:14:03Z</time>
      </trkpt>
      <trkpt lat="39.7024010" lon="-0.4184230">
        <ele>488.8</ele>
        <time>2022-11-06T08:14:04Z</time>
      </trkpt>
      <trkpt lat="39.7023690" lon="-0.4183980">
        <ele>489.0</ele>
        <time>2022-11-06T08:14:05Z</time>
      </trkpt>
      <trkpt lat="39.7023100" lon="-0.4183430">
        <ele>489.4</ele>
        <time>2022-11-06T08:14:06Z</time>
      </trkpt>
      <trkpt lat="39.7022750" lon="-0.4183150">
        <ele>489.7</ele>
        <time>2022-11-06T08:14:07Z</time>
      </trkpt>
      <trkpt lat="39.7022750" lon="-0.4183150">
        <ele>489.7</ele>
        <time>2022-11-06T08:14:08Z</time>
      </trkpt>
      <trkpt lat="39.7022560" lon="-0.4182820">
        <ele>489.9</ele>
        <time>2022-11-06T08:14:09Z</time>
      </trkpt>
      <trkpt lat="39.7022210" lon="-0.4182570">
        <ele>490.1</ele>
        <time>2022-11-06T08:14:10Z</time>
      </trkpt>
      <trkpt lat="39.7021870" lon="-0.4182330">
        <ele>490.3</ele>
        <time>2022-11-06T08:14:11Z</time>
      </trkpt>
      <trkpt lat="39.7021520" lon="-0.4182120">
        <ele>490.5</ele>
        <time>2022-11-06T08:14:12Z</time>
      </trkpt>
      <trkpt lat="39.7021170" lon="-0.4181800">
        <ele>490.7</ele>
        <time>2022-11-06T08:14:13Z</time>
      </trkpt>
      <trkpt lat="39.7020870" lon="-0.4181470">
        <ele>491.0</ele>
        <time>2022-11-06T08:14:14Z</time>
      </trkpt>
      <trkpt lat="39.7020580" lon="-0.4181170">
        <ele>491.2</ele>
        <time>2022-11-06T08:14:15Z</time>
      </trkpt>
      <trkpt lat="39.7019990" lon="-0.4180520">
        <ele>491.6</ele>
        <time>2022-11-06T08:14:16Z</time>
      </trkpt>
      <trkpt lat="39.7019690" lon="-0.4180230">
        <ele>491.8</ele>
        <time>2022-11-06T08:14:17Z</time>
      </trkpt>
      <trkpt lat="39.7019400" lon="-0.4179950">
        <ele>492.0</ele>
        <time>2022-11-06T08:14:18Z</time>
      </trkpt>
      <trkpt lat="39.7019400" lon="-0.4179950">
        <ele>492.0</ele>
        <time>2022-11-06T08:14:19Z</time>
      </trkpt>
      <trkpt lat="39.7019080" lon="-0.4179680">
        <ele>492.2</ele>
        <time>2022-11-06T08:14:20Z</time>
      </trkpt>
      <trkpt lat="39.7018780" lon="-0.4179430">
        <ele>492.4</ele>
        <time>2022-11-06T08:14:21Z</time>
      </trkpt>
      <trkpt lat="39.7018510" lon="-0.4179200">
        <ele>492.5</ele>
        <time>2022-11-06T08:14:22Z</time>
      </trkpt>
      <trkpt lat="39.7018240" lon="-0.4178950">
        <ele>492.7</ele>
        <time>2022-11-06T08:14:23Z</time>
      </trkpt>
      <trkpt lat="39.7017950" lon="-0.4178650">
        <ele>493.0</ele>
        <time>2022-11-06T08:14:24Z</time>
      </trkpt>
      <trkpt lat="39.7017680" lon="-0.4178380">
        <ele>493.2</ele>
        <time>2022-11-06T08:14:25Z</time>
      </trkpt>
      <trkpt lat="39.7017410" lon="-0.4178100">
        <ele>493.4</ele>
        <time>2022-11-06T08:14:26Z</time>
      </trkpt>
      <trkpt lat="39.7016880" lon="-0.4177600">
        <ele>493.8</ele>
        <time>2022-11-06T08:14:27Z</time>
      </trkpt>
      <trkpt lat="39.7016610" lon="-0.4177330">
        <ele>494.0</ele>
        <time>2022-11-06T08:14:28Z</time>
      </trkpt>
      <trkpt lat="39.7016610" lon="-0.4177330">
        <ele>494.0</ele>
        <time>2022-11-06T08:14:29Z</time>
      </trkpt>
      <trkpt lat="39.7016340" lon="-0.4177050">
        <ele>494.2</ele>
        <time>2022-11-06T08:14:30Z</time>
      </trkpt>
      <trkpt lat="39.7016070" lon="-0.4176750">
        <ele>494.5</ele>
        <time>2022-11-06T08:14:31Z</time>
      </trkpt>
      <trkpt lat="39.7015800" lon="-0.4176470">
        <ele>494.7</ele>
        <time>2022-11-06T08:14:32Z</time>
      </trkpt>
      <trkpt lat="39.7015560" lon="-0.4176220">
        <ele>494.9</ele>
        <time>2022-11-06T08:14:33Z</time>
      </trkpt>
      <trkpt lat="39.7015290" lon="-0.4175970">
        <ele>495.1</ele>
        <time>2022-11-06T08:14:34Z</time>
      </trkpt>
      <trkpt lat="39.7015080" lon="-0.4175750">
        <ele>495.3</ele>
        <time>2022-11-06T08:14:35Z</time>
      </trkpt>
      <trkpt lat="39.7015080" lon="-0.4175750">
        <ele>495.3</ele>
        <time>2022-11-06T08:14:36Z</time>
      </trkpt>
      <trkpt lat="39.7014300" lon="-0.4175070">
        <ele>495.9</ele>
        <time>2022-11-06T08:14:37Z</time>
      </trkpt>
      <trkpt lat="39.7014030" lon="-0.4174850">
        <ele>496.2</ele>
        <time>2022-11-06T08:14:38Z</time>
      </trkpt>
      <trkpt lat="39.7013770" lon="-0.4174630">
        <ele>496.4</ele>
        <time>2022-11-06T08:14:39Z</time>
      </trkpt>
      <trkpt lat="39.7013770" lon="-0.4174630">
        <ele>496.4</ele>
        <time>2022-11-06T08:14:40Z</time>
      </trkpt>
      <trkpt lat="39.7013470" lon="-0.4174380">
        <ele>496.6</ele>
        <time>2022-11-06T08:14:41Z</time>
      </trkpt>
      <trkpt lat="39.7013120" lon="-0.4174220">
        <ele>496.8</ele>
        <time>2022-11-06T08:14:42Z</time>
      </trkpt>
      <trkpt lat="39.7012830" lon="-0.4174020">
        <ele>497.0</ele>
        <time>2022-11-06T08:14:43Z</time>
      </trkpt>
      <trkpt lat="39.7012480" lon="-0.4173820">
        <ele>497.3</ele>
        <time>2022-11-06T08:14:44Z</time>
      </trkpt>
      <trkpt lat="39.7012180" lon="-0.4173620">
        <ele>497.5</ele>
        <time>2022-11-06T08:14:45Z</time>
      </trkpt>
      <trkpt lat="39.7011830" lon="-0.4173430">
        <ele>497.7</ele>
        <time>2022-11-06T08:14:46Z</time>
      </trkpt>
      <trkpt lat="39.7011830" lon="-0.4173430">
        <ele>497.7</ele>
        <time>2022-11-06T08:14:47Z</time>
      </trkpt>
      <trkpt lat="39.7010870" lon="-0.4172870">
        <ele>498.3</ele>
        <time>2022-11-06T08:14:48Z</time>
      </trkpt>
      <trkpt lat="39.7010550" lon="-0.4172680">
        <ele>498.5</ele>
        <time>2022-11-06T08:14:49Z</time>
      </trkpt>
      <trkpt lat="39.7010550" lon="-0.4172680">
        <ele>498.5</ele>
        <time>2022-11-06T08:14:50Z</time>
      </trkpt>
      <trkpt lat="39.7010230" lon="-0.4172500">
        <ele>498.7</ele>
        <time>2022-11-06T08:14:51Z</time>
      </trkpt>
      <trkpt lat="39.7009880" lon="-0.4172320">
        <ele>498.9</ele>
        <time>2022-11-06T08:14:52Z</time>
      </trkpt>
      <trkpt lat="39.7009580" lon="-0.4172130">
        <ele>499.1</ele>
        <time>2022-11-06T08:14:53Z</time>
      </trkpt>
      <trkpt lat="39.7009230" lon="-0.4171950">
        <ele>499.3</ele>
        <time>2022-11-06T08:14:54Z</time>
      </trkpt>
      <trkpt lat="39.7008940" lon="-0.4171780">
        <ele>499.4</ele>
        <time>2022-11-06T08:14:55Z</time>
      </trkpt>
      <trkpt lat="39.7008620" lon="-0.4171620">
        <ele>499.6</ele>
        <time>2022-11-06T08:14:56Z</time>
      </trkpt>
      <trkpt lat="39.7007970" lon="-0.4171280">
        <ele>500.0</ele>
        <time>2022-11-06T08:14:57Z</time>
      </trkpt>
      <trkpt lat="39.7007680" lon="-0.4171100">
        <ele>500.2</ele>
        <time>2022-11-06T08:14:58Z</time>
      </trkpt>
      <trkpt lat="39.7007330" lon="-0.4170950">
        <ele>500.4</ele>
        <time>2022-11-06T08:14:59Z</time>
      </trkpt>
      <trkpt lat="39.7006980" lon="-0.4170780">
        <ele>500.6</ele>
        <time>2022-11-06T08:15:00Z</time>
      </trkpt>
      <trkpt lat="39.7006980" lon="-0.4170780">
        <ele>500.6</ele>
        <time>2022-11-06T08:15:01Z</time>
      </trkpt>
      <trkpt lat="39.7006680" lon="-0.4170620">
        <ele>500.7</ele>
        <time>2022-11-06T08:15:02Z</time>
      </trkpt>
      <trkpt lat="39.7006340" lon="-0.4170470">
        <ele>500.9</ele>
        <time>2022-11-06T08:15:03Z</time>
      </trkpt>
      <trkpt lat="39.7006040" lon="-0.4170300">
        <ele>501.1</ele>
        <time>2022-11-06T08:15:04Z</time>
      </trkpt>
      <trkpt lat="39.7005720" lon="-0.4170130">
        <ele>501.3</ele>
        <time>2022-11-06T08:15:05Z</time>
      </trkpt>
      <trkpt lat="39.7005400" lon="-0.4169970">
        <ele>501.5</ele>
        <time>2022-11-06T08:15:06Z</time>
      </trkpt>
      <trkpt lat="39.7005080" lon="-0.4169780">
        <ele>501.7</ele>
        <time>2022-11-06T08:15:07Z</time>
      </trkpt>
      <trkpt lat="39.7004430" lon="-0.4169420">
        <ele>502.1</ele>
        <time>2022-11-06T08:15:08Z</time>
      </trkpt>
      <trkpt lat="39.7004140" lon="-0.4169230">
        <ele>502.3</ele>
        <time>2022-11-06T08:15:09Z</time>
      </trkpt>
      <trkpt lat="39.7003790" lon="-0.4169070">
        <ele>502.5</ele>
        <time>2022-11-06T08:15:10Z</time>
      </trkpt>
      <trkpt lat="39.7003790" lon="-0.4169070">
        <ele>502.5</ele>
        <time>2022-11-06T08:15:11Z</time>
      </trkpt>
      <trkpt lat="39.7003470" lon="-0.4168900">
        <ele>502.7</ele>
        <time>2022-11-06T08:15:12Z</time>
      </trkpt>
      <trkpt lat="39.7003170" lon="-0.4168730">
        <ele>502.9</ele>
        <time>2022-11-06T08:15:13Z</time>
      </trkpt>
      <trkpt lat="39.7002820" lon="-0.4168580">
        <ele>503.2</ele>
        <time>2022-11-06T08:15:14Z</time>
      </trkpt>
      <trkpt lat="39.7002530" lon="-0.4168400">
        <ele>503.4</ele>
        <time>2022-11-06T08:15:15Z</time>
      </trkpt>
      <trkpt lat="39.7002180" lon="-0.4168230">
        <ele>503.6</ele>
        <time>2022-11-06T08:15:16Z</time>
      </trkpt>
      <trkpt lat="39.7002180" lon="-0.4168230">
        <ele>503.6</ele>
        <time>2022-11-06T08:15:17Z</time>
      </trkpt>
      <trkpt lat="39.7001270" lon="-0.4167720">
        <ele>504.2</ele>
        <time>2022-11-06T08:15:18Z</time>
      </trkpt>
      <trkpt lat="39.7000920" lon="-0.4167530">
        <ele>504.5</ele>
        <time>2022-11-06T08:15:19Z</time>
      </trkpt>
      <trkpt lat="39.7000620" lon="-0.4167380">
        <ele>504.7</ele>
        <time>2022-11-06T08:15:20Z</time>
      </trkpt>
      <trkpt lat="39.7000270" lon="-0.4167220">
        <ele>505.0</ele>
        <time>2022-11-06T08:15:21Z</time>
      </trkpt>
      <trkpt lat="39.7000270" lon="-0.4167220">
        <ele>505.0</ele>
        <time>2022-11-06T08:15:22Z</time>
      </trkpt>
      <trkpt lat="39.6999930" lon="-0.4167030">
        <ele>505.3</ele>
        <time>2022-11-06T08:15:23Z</time>
      </trkpt>
      <trkpt lat="39.6999580" lon="-0.4166880">
        <ele>505.6</ele>
        <time>2022-11-06T08:15:24Z</time>
      </trkpt>
      <trkpt lat="39.6999280" lon="-0.4166750">
        <ele>505.8</ele>
        <time>2022-11-06T08:15:25Z</time>
      </trkpt>
      <trkpt lat="39.6998930" lon="-0.4166580">
        <ele>506.2</ele>
        <time>2022-11-06T08:15:26Z</time>
      </trkpt>
      <trkpt lat="39.6998640" lon="-0.4166400">
        <ele>506.4</ele>
        <time>2022-11-06T08:15:27Z</time>
      </trkpt>
      <trkpt lat="39.6998640" lon="-0.4166400">
        <ele>506.4</ele>
        <time>2022-11-06T08:15:28Z</time>
      </trkpt>
      <trkpt lat="39.6997750" lon="-0.4165770">
        <ele>507.3</ele>
        <time>2022-11-06T08:15:29Z</time>
      </trkpt>
      <trkpt lat="39.6997540" lon="-0.4165450">
        <ele>507.6</ele>
        <time>2022-11-06T08:15:30Z</time>
      </trkpt>
      <trkpt lat="39.6997380" lon="-0.4165130">
        <ele>507.8</ele>
        <time>2022-11-06T08:15:31Z</time>
      </trkpt>
      <trkpt lat="39.6997380" lon="-0.4165130">
        <ele>507.8</ele>
        <time>2022-11-06T08:15:32Z</time>
      </trkpt>
      <trkpt lat="39.6997300" lon="-0.4164770">
        <ele>508.0</ele>
        <time>2022-11-06T08:15:33Z</time>
      </trkpt>
      <trkpt lat="39.6997300" lon="-0.4164430">
        <ele>508.1</ele>
        <time>2022-11-06T08:15:34Z</time>
      </trkpt>
      <trkpt lat="39.6997350" lon="-0.4164180">
        <ele>508.2</ele>
        <time>2022-11-06T08:15:35Z</time>
      </trkpt>
      <trkpt lat="39.6997480" lon="-0.4163950">
        <ele>508.3</ele>
        <time>2022-11-06T08:15:36Z</time>
      </trkpt>
      <trkpt lat="39.6997730" lon="-0.4163750">
        <ele>508.4</ele>
        <time>2022-11-06T08:15:37Z</time>
      </trkpt>
      <trkpt lat="39.6998210" lon="-0.4163630">
        <ele>508.5</ele>
        <time>2022-11-06T08:15:38Z</time>
      </trkpt>
      <trkpt lat="39.6998480" lon="-0.4163680">
        <ele>508.5</ele>
        <time>2022-11-06T08:15:39Z</time>
      </trkpt>
      <trkpt lat="39.6998750" lon="-0.4163730">
        <ele>508.6</ele>
        <time>2022-11-06T08:15:40Z</time>
      </trkpt>
      <trkpt lat="39.6999010" lon="-0.4163780">
        <ele>508.6</ele>
        <time>2022-11-06T08:15:41Z</time>
      </trkpt>
      <trkpt lat="39.6999280" lon="-0.4163880">
        <ele>508.6</ele>
        <time>2022-11-06T08:15:42Z</time>
      </trkpt>
      <trkpt lat="39.6999280" lon="-0.4163880">
        <ele>508.6</ele>
        <time>2022-11-06T08:15:43Z</time>
      </trkpt>
      <trkpt lat="39.6999550" lon="-0.4163980">
        <ele>508.6</ele>
        <time>2022-11-06T08:15:44Z</time>
      </trkpt>
      <trkpt lat="39.6999840" lon="-0.4164100">
        <ele>508.6</ele>
        <time>2022-11-06T08:15:45Z</time>
      </trkpt>
      <trkpt lat="39.7000170" lon="-0.4164220">
        <ele>508.7</ele>
        <time>2022-11-06T08:15:46Z</time>
      </trkpt>
      <trkpt lat="39.7000430" lon="-0.4164350">
        <ele>508.7</ele>
        <time>2022-11-06T08:15:47Z</time>
      </trkpt>
      <trkpt lat="39.7000700" lon="-0.4164480">
        <ele>508.7</ele>
        <time>2022-11-06T08:15:48Z</time>
      </trkpt>
      <trkpt lat="39.7001270" lon="-0.4164770">
        <ele>508.8</ele>
        <time>2022-11-06T08:15:49Z</time>
      </trkpt>
      <trkpt lat="39.7001530" lon="-0.4164880">
        <ele>508.9</ele>
        <time>2022-11-06T08:15:50Z</time>
      </trkpt>
      <trkpt lat="39.7001830" lon="-0.4165000">
        <ele>508.9</ele>
        <time>2022-11-06T08:15:51Z</time>
      </trkpt>
      <trkpt lat="39.7002100" lon="-0.4165130">
        <ele>509.0</ele>
        <time>2022-11-06T08:15:52Z</time>
      </trkpt>
      <trkpt lat="39.7002100" lon="-0.4165130">
        <ele>509.0</ele>
        <time>2022-11-06T08:15:53Z</time>
      </trkpt>
      <trkpt lat="39.7002420" lon="-0.4165270">
        <ele>509.1</ele>
        <time>2022-11-06T08:15:54Z</time>
      </trkpt>
      <trkpt lat="39.7002690" lon="-0.4165380">
        <ele>509.2</ele>
        <time>2022-11-06T08:15:55Z</time>
      </trkpt>
      <trkpt lat="39.7002980" lon="-0.4165520">
        <ele>509.3</ele>
        <time>2022-11-06T08:15:56Z</time>
      </trkpt>
      <trkpt lat="39.7003250" lon="-0.4165650">
        <ele>509.4</ele>
        <time>2022-11-06T08:15:57Z</time>
      </trkpt>
      <trkpt lat="39.7003520" lon="-0.4165780">
        <ele>509.5</ele>
        <time>2022-11-06T08:15:58Z</time>
      </trkpt>
      <trkpt lat="39.7004080" lon="-0.4166000">
        <ele>509.7</ele>
        <time>2022-11-06T08:15:59Z</time>
      </trkpt>
      <trkpt lat="39.7004350" lon="-0.4166100">
        <ele>509.9</ele>
        <time>2022-11-06T08:16:00Z</time>
      </trkpt>
      <trkpt lat="39.7004670" lon="-0.4166180">
        <ele>510.0</ele>
        <time>2022-11-06T08:16:01Z</time>
      </trkpt>
      <trkpt lat="39.7004940" lon="-0.4166300">
        <ele>510.2</ele>
        <time>2022-11-06T08:16:02Z</time>
      </trkpt>
      <trkpt lat="39.7005180" lon="-0.4166400">
        <ele>510.3</ele>
        <time>2022-11-06T08:16:03Z</time>
      </trkpt>
      <trkpt lat="39.7005180" lon="-0.4166400">
        <ele>510.3</ele>
        <time>2022-11-06T08:16:04Z</time>
      </trkpt>
      <trkpt lat="39.7005450" lon="-0.4166520">
        <ele>510.4</ele>
        <time>2022-11-06T08:16:05Z</time>
      </trkpt>
      <trkpt lat="39.7005770" lon="-0.4166580">
        <ele>510.6</ele>
        <time>2022-11-06T08:16:06Z</time>
      </trkpt>
      <trkpt lat="39.7006040" lon="-0.4166670">
        <ele>510.7</ele>
        <time>2022-11-06T08:16:07Z</time>
      </trkpt>
      <trkpt lat="39.7006310" lon="-0.4166780">
        <ele>510.9</ele>
        <time>2022-11-06T08:16:08Z</time>
      </trkpt>
      <trkpt lat="39.7006310" lon="-0.4166780">
        <ele>510.9</ele>
        <time>2022-11-06T08:16:09Z</time>
      </trkpt>
      <trkpt lat="39.7007140" lon="-0.4167020">
        <ele>511.3</ele>
        <time>2022-11-06T08:16:10Z</time>
      </trkpt>
      <trkpt lat="39.7007440" lon="-0.4167080">
        <ele>511.4</ele>
        <time>2022-11-06T08:16:11Z</time>
      </trkpt>
      <trkpt lat="39.7007700" lon="-0.4167170">
        <ele>511.6</ele>
        <time>2022-11-06T08:16:12Z</time>
      </trkpt>
      <trkpt lat="39.7008030" lon="-0.4167220">
        <ele>511.7</ele>
        <time>2022-11-06T08:16:13Z</time>
      </trkpt>
      <trkpt lat="39.7008030" lon="-0.4167220">
        <ele>511.7</ele>
        <time>2022-11-06T08:16:14Z</time>
      </trkpt>
      <trkpt lat="39.7008290" lon="-0.4167280">
        <ele>511.9</ele>
        <time>2022-11-06T08:16:15Z</time>
      </trkpt>
      <trkpt lat="39.7008590" lon="-0.4167370">
        <ele>512.0</ele>
        <time>2022-11-06T08:16:16Z</time>
      </trkpt>
      <trkpt lat="39.7008860" lon="-0.4167500">
        <ele>512.2</ele>
        <time>2022-11-06T08:16:17Z</time>
      </trkpt>
      <trkpt lat="39.7009130" lon="-0.4167550">
        <ele>512.3</ele>
        <time>2022-11-06T08:16:18Z</time>
      </trkpt>
      <trkpt lat="39.7009130" lon="-0.4167550">
        <ele>512.3</ele>
        <time>2022-11-06T08:16:19Z</time>
      </trkpt>
      <trkpt lat="39.7009960" lon="-0.4167770">
        <ele>512.8</ele>
        <time>2022-11-06T08:16:20Z</time>
      </trkpt>
      <trkpt lat="39.7010280" lon="-0.4167850">
        <ele>512.9</ele>
        <time>2022-11-06T08:16:21Z</time>
      </trkpt>
      <trkpt lat="39.7010570" lon="-0.4167920">
        <ele>513.1</ele>
        <time>2022-11-06T08:16:22Z</time>
      </trkpt>
      <trkpt lat="39.7010870" lon="-0.4167970">
        <ele>513.3</ele>
        <time>2022-11-06T08:16:23Z</time>
      </trkpt>
      <trkpt lat="39.7011140" lon="-0.4168030">
        <ele>513.4</ele>
        <time>2022-11-06T08:16:24Z</time>
      </trkpt>
      <trkpt lat="39.7011140" lon="-0.4168030">
        <ele>513.4</ele>
        <time>2022-11-06T08:16:25Z</time>
      </trkpt>
      <trkpt lat="39.7011410" lon="-0.4168100">
        <ele>513.6</ele>
        <time>2022-11-06T08:16:26Z</time>
      </trkpt>
      <trkpt lat="39.7011750" lon="-0.4168150">
        <ele>513.8</ele>
        <time>2022-11-06T08:16:27Z</time>
      </trkpt>
      <trkpt lat="39.7012050" lon="-0.4168280">
        <ele>514.0</ele>
        <time>2022-11-06T08:16:28Z</time>
      </trkpt>
      <trkpt lat="39.7012370" lon="-0.4168420">
        <ele>514.1</ele>
        <time>2022-11-06T08:16:29Z</time>
      </trkpt>
      <trkpt lat="39.7012370" lon="-0.4168420">
        <ele>514.1</ele>
        <time>2022-11-06T08:16:30Z</time>
      </trkpt>
      <trkpt lat="39.7013260" lon="-0.4168770">
        <ele>514.6</ele>
        <time>2022-11-06T08:16:31Z</time>
      </trkpt>
      <trkpt lat="39.7013550" lon="-0.4168880">
        <ele>514.8</ele>
        <time>2022-11-06T08:16:32Z</time>
      </trkpt>
      <trkpt lat="39.7013820" lon="-0.4169020">
        <ele>515.0</ele>
        <time>2022-11-06T08:16:33Z</time>
      </trkpt>
      <trkpt lat="39.7014110" lon="-0.4169170">
        <ele>515.1</ele>
        <time>2022-11-06T08:16:34Z</time>
      </trkpt>
      <trkpt lat="39.7014110" lon="-0.4169170">
        <ele>515.1</ele>
        <time>2022-11-06T08:16:35Z</time>
      </trkpt>
      <trkpt lat="39.7014380" lon="-0.4169270">
        <ele>515.3</ele>
        <time>2022-11-06T08:16:36Z</time>
      </trkpt>
      <trkpt lat="39.7014700" lon="-0.4169420">
        <ele>515.5</ele>
        <time>2022-11-06T08:16:37Z</time>
      </trkpt>
      <trkpt lat="39.7014970" lon="-0.4169500">
        <ele>515.6</ele>
        <time>2022-11-06T08:16:38Z</time>
      </trkpt>
      <trkpt lat="39.7015240" lon="-0.4169650">
        <ele>515.8</ele>
        <time>2022-11-06T08:16:39Z</time>
      </trkpt>
      <trkpt lat="39.7015800" lon="-0.4169970">
        <ele>516.1</ele>
        <time>2022-11-06T08:16:40Z</time>
      </trkpt>
      <trkpt lat="39.7016100" lon="-0.4170070">
        <ele>516.2</ele>
        <time>2022-11-06T08:16:41Z</time>
      </trkpt>
      <trkpt lat="39.7016450" lon="-0.4170220">
        <ele>516.4</ele>
        <time>2022-11-06T08:16:42Z</time>
      </trkpt>
      <trkpt lat="39.7016720" lon="-0.4170380">
        <ele>516.6</ele>
        <time>2022-11-06T08:16:43Z</time>
      </trkpt>
      <trkpt lat="39.7017010" lon="-0.4170570">
        <ele>516.8</ele>
        <time>2022-11-06T08:16:44Z</time>
      </trkpt>
      <trkpt lat="39.7017280" lon="-0.4170680">
        <ele>516.9</ele>
        <time>2022-11-06T08:16:45Z</time>
      </trkpt>
      <trkpt lat="39.7017280" lon="-0.4170680">
        <ele>516.9</ele>
        <time>2022-11-06T08:16:46Z</time>
      </trkpt>
      <trkpt lat="39.7017550" lon="-0.4170830">
        <ele>517.1</ele>
        <time>2022-11-06T08:16:47Z</time>
      </trkpt>
      <trkpt lat="39.7017870" lon="-0.4171000">
        <ele>517.3</ele>
        <time>2022-11-06T08:16:48Z</time>
      </trkpt>
      <trkpt lat="39.7018160" lon="-0.4171170">
        <ele>517.5</ele>
        <time>2022-11-06T08:16:49Z</time>
      </trkpt>
      <trkpt lat="39.7018460" lon="-0.4171370">
        <ele>517.7</ele>
        <time>2022-11-06T08:16:50Z</time>
      </trkpt>
      <trkpt lat="39.7019080" lon="-0.4171680">
        <ele>518.0</ele>
        <time>2022-11-06T08:16:51Z</time>
      </trkpt>
      <trkpt lat="39.7019340" lon="-0.4171830">
        <ele>518.2</ele>
        <time>2022-11-06T08:16:52Z</time>
      </trkpt>
      <trkpt lat="39.7019670" lon="-0.4172000">
        <ele>518.4</ele>
        <time>2022-11-06T08:16:53Z</time>
      </trkpt>
      <trkpt lat="39.7019910" lon="-0.4172180">
        <ele>518.5</ele>
        <time>2022-11-06T08:16:54Z</time>
      </trkpt>
      <trkpt lat="39.7020180" lon="-0.4172330">
        <ele>518.7</ele>
        <time>2022-11-06T08:16:55Z</time>
      </trkpt>
      <trkpt lat="39.7020180" lon="-0.4172330">
        <ele>518.7</ele>
        <time>2022-11-06T08:16:56Z</time>
      </trkpt>
      <trkpt lat="39.7020500" lon="-0.4172500">
        <ele>518.9</ele>
        <time>2022-11-06T08:16:57Z</time>
      </trkpt>
      <trkpt lat="39.7020770" lon="-0.4172680">
        <ele>519.0</ele>
        <time>2022-11-06T08:16:58Z</time>
      </trkpt>
      <trkpt lat="39.7021030" lon="-0.4172850">
        <ele>519.2</ele>
        <time>2022-11-06T08:16:59Z</time>
      </trkpt>
      <trkpt lat="39.7021030" lon="-0.4172850">
        <ele>519.2</ele>
        <time>2022-11-06T08:17:00Z</time>
      </trkpt>
      <trkpt lat="39.7021870" lon="-0.4173320">
        <ele>519.7</ele>
        <time>2022-11-06T08:17:01Z</time>
      </trkpt>
      <trkpt lat="39.7022130" lon="-0.4173480">
        <ele>519.9</ele>
        <time>2022-11-06T08:17:02Z</time>
      </trkpt>
      <trkpt lat="39.7022400" lon="-0.4173630">
        <ele>520.1</ele>
        <time>2022-11-06T08:17:03Z</time>
      </trkpt>
      <trkpt lat="39.7022700" lon="-0.4173800">
        <ele>520.3</ele>
        <time>2022-11-06T08:17:04Z</time>
      </trkpt>
      <trkpt lat="39.7022970" lon="-0.4173970">
        <ele>520.5</ele>
        <time>2022-11-06T08:17:05Z</time>
      </trkpt>
      <trkpt lat="39.7023290" lon="-0.4174150">
        <ele>520.7</ele>
        <time>2022-11-06T08:17:06Z</time>
      </trkpt>
      <trkpt lat="39.7023290" lon="-0.4174150">
        <ele>520.7</ele>
        <time>2022-11-06T08:17:07Z</time>
      </trkpt>
      <trkpt lat="39.7023580" lon="-0.4174280">
        <ele>520.9</ele>
        <time>2022-11-06T08:17:08Z</time>
      </trkpt>
      <trkpt lat="39.7023850" lon="-0.4174470">
        <ele>521.1</ele>
        <time>2022-11-06T08:17:09Z</time>
      </trkpt>
      <trkpt lat="39.7024150" lon="-0.4174600">
        <ele>521.3</ele>
        <time>2022-11-06T08:17:10Z</time>
      </trkpt>
      <trkpt lat="39.7024150" lon="-0.4174600">
        <ele>521.3</ele>
        <time>2022-11-06T08:17:11Z</time>
      </trkpt>
      <trkpt lat="39.7025030" lon="-0.4175080">
        <ele>522.0</ele>
        <time>2022-11-06T08:17:12Z</time>
      </trkpt>
      <trkpt lat="39.7025330" lon="-0.4175220">
        <ele>522.2</ele>
        <time>2022-11-06T08:17:13Z</time>
      </trkpt>
      <trkpt lat="39.7025650" lon="-0.4175330">
        <ele>522.4</ele>
        <time>2022-11-06T08:17:14Z</time>
      </trkpt>
      <trkpt lat="39.7025940" lon="-0.4175450">
        <ele>522.6</ele>
        <time>2022-11-06T08:17:15Z</time>
      </trkpt>
      <trkpt lat="39.7026260" lon="-0.4175570">
        <ele>522.8</ele>
        <time>2022-11-06T08:17:16Z</time>
      </trkpt>
      <trkpt lat="39.7026260" lon="-0.4175570">
        <ele>522.8</ele>
        <time>2022-11-06T08:17:17Z</time>
      </trkpt>
      <trkpt lat="39.7026530" lon="-0.4175680">
        <ele>523.0</ele>
        <time>2022-11-06T08:17:18Z</time>
      </trkpt>
      <trkpt lat="39.7026830" lon="-0.4175770">
        <ele>523.2</ele>
        <time>2022-11-06T08:17:19Z</time>
      </trkpt>
      <trkpt lat="39.7027120" lon="-0.4175830">
        <ele>523.4</ele>
        <time>2022-11-06T08:17:20Z</time>
      </trkpt>
      <trkpt lat="39.7027740" lon="-0.4175950">
        <ele>523.8</ele>
        <time>2022-11-06T08:17:21Z</time>
      </trkpt>
      <trkpt lat="39.7028090" lon="-0.4175970">
        <ele>524.0</ele>
        <time>2022-11-06T08:17:22Z</time>
      </trkpt>
      <trkpt lat="39.7028440" lon="-0.4175970">
        <ele>524.2</ele>
        <time>2022-11-06T08:17:23Z</time>
      </trkpt>
      <trkpt lat="39.7028730" lon="-0.4175930">
        <ele>524.4</ele>
        <time>2022-11-06T08:17:24Z</time>
      </trkpt>
      <trkpt lat="39.7029080" lon="-0.4175880">
        <ele>524.6</ele>
        <time>2022-11-06T08:17:25Z</time>
      </trkpt>
      <trkpt lat="39.7029430" lon="-0.4175830">
        <ele>524.8</ele>
        <time>2022-11-06T08:17:26Z</time>
      </trkpt>
      <trkpt lat="39.7029720" lon="-0.4175750">
        <ele>525.0</ele>
        <time>2022-11-06T08:17:27Z</time>
      </trkpt>
      <trkpt lat="39.7029720" lon="-0.4175750">
        <ele>525.0</ele>
        <time>2022-11-06T08:17:28Z</time>
      </trkpt>
      <trkpt lat="39.7030020" lon="-0.4175630">
        <ele>525.2</ele>
        <time>2022-11-06T08:17:29Z</time>
      </trkpt>
      <trkpt lat="39.7030340" lon="-0.4175500">
        <ele>525.4</ele>
        <time>2022-11-06T08:17:30Z</time>
      </trkpt>
      <trkpt lat="39.7030640" lon="-0.4175330">
        <ele>525.6</ele>
        <time>2022-11-06T08:17:31Z</time>
      </trkpt>
      <trkpt lat="39.7031170" lon="-0.4174930">
        <ele>525.9</ele>
        <time>2022-11-06T08:17:32Z</time>
      </trkpt>
      <trkpt lat="39.7031440" lon="-0.4174720">
        <ele>526.1</ele>
        <time>2022-11-06T08:17:33Z</time>
      </trkpt>
      <trkpt lat="39.7031710" lon="-0.4174500">
        <ele>526.3</ele>
        <time>2022-11-06T08:17:34Z</time>
      </trkpt>
      <trkpt lat="39.7031980" lon="-0.4174250">
        <ele>526.5</ele>
        <time>2022-11-06T08:17:35Z</time>
      </trkpt>
      <trkpt lat="39.7032170" lon="-0.4173970">
        <ele>526.6</ele>
        <time>2022-11-06T08:17:36Z</time>
      </trkpt>
      <trkpt lat="39.7032410" lon="-0.4173700">
        <ele>526.8</ele>
        <time>2022-11-06T08:17:37Z</time>
      </trkpt>
      <trkpt lat="39.7032410" lon="-0.4173700">
        <ele>526.8</ele>
        <time>2022-11-06T08:17:38Z</time>
      </trkpt>
      <trkpt lat="39.7032620" lon="-0.4173430">
        <ele>527.0</ele>
        <time>2022-11-06T08:17:39Z</time>
      </trkpt>
      <trkpt lat="39.7032860" lon="-0.4173150">
        <ele>527.2</ele>
        <time>2022-11-06T08:17:40Z</time>
      </trkpt>
      <trkpt lat="39.7032860" lon="-0.4173150">
        <ele>527.2</ele>
        <time>2022-11-06T08:17:41Z</time>
      </trkpt>
      <trkpt lat="39.7033400" lon="-0.4172180">
        <ele>527.8</ele>
        <time>2022-11-06T08:17:42Z</time>
      </trkpt>
      <trkpt lat="39.7033510" lon="-0.4171850">
        <ele>527.9</ele>
        <time>2022-11-06T08:17:43Z</time>
      </trkpt>
      <trkpt lat="39.7033610" lon="-0.4171500">
        <ele>528.1</ele>
        <time>2022-11-06T08:17:44Z</time>
      </trkpt>
      <trkpt lat="39.7033770" lon="-0.4171170">
        <ele>528.3</ele>
        <time>2022-11-06T08:17:45Z</time>
      </trkpt>
      <trkpt lat="39.7033880" lon="-0.4170800">
        <ele>528.5</ele>
        <time>2022-11-06T08:17:46Z</time>
      </trkpt>
      <trkpt lat="39.7033990" lon="-0.4170430">
        <ele>528.6</ele>
        <time>2022-11-06T08:17:47Z</time>
      </trkpt>
      <trkpt lat="39.7034070" lon="-0.4170070">
        <ele>528.8</ele>
        <time>2022-11-06T08:17:48Z</time>
      </trkpt>
      <trkpt lat="39.7034070" lon="-0.4170070">
        <ele>528.8</ele>
        <time>2022-11-06T08:17:49Z</time>
      </trkpt>
      <trkpt lat="39.7034150" lon="-0.4169700">
        <ele>529.0</ele>
        <time>2022-11-06T08:17:50Z</time>
      </trkpt>
      <trkpt lat="39.7034180" lon="-0.4169330">
        <ele>529.1</ele>
        <time>2022-11-06T08:17:51Z</time>
      </trkpt>
      <trkpt lat="39.7034180" lon="-0.4169330">
        <ele>529.1</ele>
        <time>2022-11-06T08:17:52Z</time>
      </trkpt>
      <trkpt lat="39.7034310" lon="-0.4168220">
        <ele>529.6</ele>
        <time>2022-11-06T08:17:53Z</time>
      </trkpt>
      <trkpt lat="39.7034340" lon="-0.4167920">
        <ele>529.7</ele>
        <time>2022-11-06T08:17:54Z</time>
      </trkpt>
      <trkpt lat="39.7034420" lon="-0.4167600">
        <ele>529.8</ele>
        <time>2022-11-06T08:17:55Z</time>
      </trkpt>
      <trkpt lat="39.7034420" lon="-0.4167280">
        <ele>529.9</ele>
        <time>2022-11-06T08:17:56Z</time>
      </trkpt>
      <trkpt lat="39.7034420" lon="-0.4166880">
        <ele>530.1</ele>
        <time>2022-11-06T08:17:57Z</time>
      </trkpt>
      <trkpt lat="39.7034450" lon="-0.4166480">
        <ele>530.3</ele>
        <time>2022-11-06T08:17:58Z</time>
      </trkpt>
      <trkpt lat="39.7034450" lon="-0.4166480">
        <ele>530.3</ele>
        <time>2022-11-06T08:17:59Z</time>
      </trkpt>
      <trkpt lat="39.7034420" lon="-0.4166100">
        <ele>530.5</ele>
        <time>2022-11-06T08:18:00Z</time>
      </trkpt>
      <trkpt lat="39.7034420" lon="-0.4165750">
        <ele>530.6</ele>
        <time>2022-11-06T08:18:01Z</time>
      </trkpt>
      <trkpt lat="39.7034420" lon="-0.4165070">
        <ele>530.9</ele>
        <time>2022-11-06T08:18:02Z</time>
      </trkpt>
      <trkpt lat="39.7034310" lon="-0.4164770">
        <ele>531.1</ele>
        <time>2022-11-06T08:18:03Z</time>
      </trkpt>
      <trkpt lat="39.7034260" lon="-0.4164380">
        <ele>531.3</ele>
        <time>2022-11-06T08:18:04Z</time>
      </trkpt>
      <trkpt lat="39.7034230" lon="-0.4164020">
        <ele>531.4</ele>
        <time>2022-11-06T08:18:05Z</time>
      </trkpt>
      <trkpt lat="39.7034150" lon="-0.4163670">
        <ele>531.6</ele>
        <time>2022-11-06T08:18:06Z</time>
      </trkpt>
      <trkpt lat="39.7034120" lon="-0.4163270">
        <ele>531.8</ele>
        <time>2022-11-06T08:18:07Z</time>
      </trkpt>
      <trkpt lat="39.7034040" lon="-0.4162900">
        <ele>532.0</ele>
        <time>2022-11-06T08:18:08Z</time>
      </trkpt>
      <trkpt lat="39.7033990" lon="-0.4162520">
        <ele>532.1</ele>
        <time>2022-11-06T08:18:09Z</time>
      </trkpt>
      <trkpt lat="39.7033990" lon="-0.4162520">
        <ele>532.1</ele>
        <time>2022-11-06T08:18:10Z</time>
      </trkpt>
      <trkpt lat="39.7033880" lon="-0.4162150">
        <ele>532.3</ele>
        <time>2022-11-06T08:18:11Z</time>
      </trkpt>
      <trkpt lat="39.7033860" lon="-0.4161770">
        <ele>532.5</ele>
        <time>2022-11-06T08:18:12Z</time>
      </trkpt>
      <trkpt lat="39.7033640" lon="-0.4161050">
        <ele>532.8</ele>
        <time>2022-11-06T08:18:13Z</time>
      </trkpt>
      <trkpt lat="39.7033590" lon="-0.4160650">
        <ele>533.0</ele>
        <time>2022-11-06T08:18:14Z</time>
      </trkpt>
      <trkpt lat="39.7033450" lon="-0.4160230">
        <ele>533.2</ele>
        <time>2022-11-06T08:18:15Z</time>
      </trkpt>
      <trkpt lat="39.7033350" lon="-0.4159850">
        <ele>533.3</ele>
        <time>2022-11-06T08:18:16Z</time>
      </trkpt>
      <trkpt lat="39.7033320" lon="-0.4159500">
        <ele>533.5</ele>
        <time>2022-11-06T08:18:17Z</time>
      </trkpt>
      <trkpt lat="39.7033180" lon="-0.4159100">
        <ele>533.6</ele>
        <time>2022-11-06T08:18:18Z</time>
      </trkpt>
      <trkpt lat="39.7033130" lon="-0.4158730">
        <ele>533.8</ele>
        <time>2022-11-06T08:18:19Z</time>
      </trkpt>
      <trkpt lat="39.7033130" lon="-0.4158730">
        <ele>533.8</ele>
        <time>2022-11-06T08:18:20Z</time>
      </trkpt>
      <trkpt lat="39.7033080" lon="-0.4158350">
        <ele>533.9</ele>
        <time>2022-11-06T08:18:21Z</time>
      </trkpt>
      <trkpt lat="39.7032970" lon="-0.4157970">
        <ele>534.0</ele>
        <time>2022-11-06T08:18:22Z</time>
      </trkpt>
      <trkpt lat="39.7032780" lon="-0.4157200">
        <ele>534.3</ele>
        <time>2022-11-06T08:18:23Z</time>
      </trkpt>
      <trkpt lat="39.7032650" lon="-0.4156830">
        <ele>534.5</ele>
        <time>2022-11-06T08:18:24Z</time>
      </trkpt>
      <trkpt lat="39.7032540" lon="-0.4156470">
        <ele>534.6</ele>
        <time>2022-11-06T08:18:25Z</time>
      </trkpt>
      <trkpt lat="39.7032430" lon="-0.4156100">
        <ele>534.7</ele>
        <time>2022-11-06T08:18:26Z</time>
      </trkpt>
      <trkpt lat="39.7032270" lon="-0.4155750">
        <ele>534.9</ele>
        <time>2022-11-06T08:18:27Z</time>
      </trkpt>
      <trkpt lat="39.7032140" lon="-0.4155380">
        <ele>535.0</ele>
        <time>2022-11-06T08:18:28Z</time>
      </trkpt>
      <trkpt lat="39.7031920" lon="-0.4155070">
        <ele>535.2</ele>
        <time>2022-11-06T08:18:29Z</time>
      </trkpt>
      <trkpt lat="39.7031740" lon="-0.4154780">
        <ele>535.3</ele>
        <time>2022-11-06T08:18:30Z</time>
      </trkpt>
      <trkpt lat="39.7031740" lon="-0.4154780">
        <ele>535.3</ele>
        <time>2022-11-06T08:18:31Z</time>
      </trkpt>
      <trkpt lat="39.7031520" lon="-0.4154580">
        <ele>535.4</ele>
        <time>2022-11-06T08:18:32Z</time>
      </trkpt>
      <trkpt lat="39.7031520" lon="-0.4154580">
        <ele>535.4</ele>
        <time>2022-11-06T08:18:33Z</time>
      </trkpt>
      <trkpt lat="39.7030720" lon="-0.4154000">
        <ele>535.9</ele>
        <time>2022-11-06T08:18:34Z</time>
      </trkpt>
      <trkpt lat="39.7030480" lon="-0.4153800">
        <ele>536.1</ele>
        <time>2022-11-06T08:18:35Z</time>
      </trkpt>
      <trkpt lat="39.7030260" lon="-0.4153630">
        <ele>536.2</ele>
        <time>2022-11-06T08:18:36Z</time>
      </trkpt>
      <trkpt lat="39.7030020" lon="-0.4153480">
        <ele>536.3</ele>
        <time>2022-11-06T08:18:37Z</time>
      </trkpt>
      <trkpt lat="39.7029750" lon="-0.4153330">
        <ele>536.5</ele>
        <time>2022-11-06T08:18:38Z</time>
      </trkpt>
      <trkpt lat="39.7029480" lon="-0.4153170">
        <ele>536.6</ele>
        <time>2022-11-06T08:18:39Z</time>
      </trkpt>
      <trkpt lat="39.7029220" lon="-0.4152930">
        <ele>536.8</ele>
        <time>2022-11-06T08:18:40Z</time>
      </trkpt>
      <trkpt lat="39.7029220" lon="-0.4152930">
        <ele>536.8</ele>
        <time>2022-11-06T08:18:41Z</time>
      </trkpt>
      <trkpt lat="39.7029000" lon="-0.4152770">
        <ele>537.0</ele>
        <time>2022-11-06T08:18:42Z</time>
      </trkpt>
      <trkpt lat="39.7029000" lon="-0.4152770">
        <ele>537.0</ele>
        <time>2022-11-06T08:18:43Z</time>
      </trkpt>
      <trkpt lat="39.7028280" lon="-0.4152400">
        <ele>537.5</ele>
        <time>2022-11-06T08:18:44Z</time>
      </trkpt>
      <trkpt lat="39.7028030" lon="-0.4152230">
        <ele>537.7</ele>
        <time>2022-11-06T08:18:45Z</time>
      </trkpt>
      <trkpt lat="39.7027820" lon="-0.4152050">
        <ele>537.9</ele>
        <time>2022-11-06T08:18:46Z</time>
      </trkpt>
      <trkpt lat="39.7027580" lon="-0.4151870">
        <ele>538.1</ele>
        <time>2022-11-06T08:18:47Z</time>
      </trkpt>
      <trkpt lat="39.7027360" lon="-0.4151750">
        <ele>538.3</ele>
        <time>2022-11-06T08:18:48Z</time>
      </trkpt>
      <trkpt lat="39.7027120" lon="-0.4151630">
        <ele>538.5</ele>
        <time>2022-11-06T08:18:49Z</time>
      </trkpt>
      <trkpt lat="39.7026940" lon="-0.4151450">
        <ele>538.7</ele>
        <time>2022-11-06T08:18:50Z</time>
      </trkpt>
      <trkpt lat="39.7026720" lon="-0.4151250">
        <ele>538.9</ele>
        <time>2022-11-06T08:18:51Z</time>
      </trkpt>
      <trkpt lat="39.7026720" lon="-0.4151250">
        <ele>538.9</ele>
        <time>2022-11-06T08:18:52Z</time>
      </trkpt>
      <trkpt lat="39.7026480" lon="-0.4151070">
        <ele>539.1</ele>
        <time>2022-11-06T08:18:53Z</time>
      </trkpt>
      <trkpt lat="39.7026100" lon="-0.4150650">
        <ele>539.5</ele>
        <time>2022-11-06T08:18:54Z</time>
      </trkpt>
      <trkpt lat="39.7025940" lon="-0.4150430">
        <ele>539.6</ele>
        <time>2022-11-06T08:18:55Z</time>
      </trkpt>
      <trkpt lat="39.7025760" lon="-0.4150170">
        <ele>539.8</ele>
        <time>2022-11-06T08:18:56Z</time>
      </trkpt>
      <trkpt lat="39.7025650" lon="-0.4149880">
        <ele>540.0</ele>
        <time>2022-11-06T08:18:57Z</time>
      </trkpt>
      <trkpt lat="39.7025540" lon="-0.4149530">
        <ele>540.1</ele>
        <time>2022-11-06T08:18:58Z</time>
      </trkpt>
      <trkpt lat="39.7025460" lon="-0.4149100">
        <ele>540.3</ele>
        <time>2022-11-06T08:18:59Z</time>
      </trkpt>
      <trkpt lat="39.7025410" lon="-0.4148630">
        <ele>540.5</ele>
        <time>2022-11-06T08:19:00Z</time>
      </trkpt>
      <trkpt lat="39.7025380" lon="-0.4148180">
        <ele>540.7</ele>
        <time>2022-11-06T08:19:01Z</time>
      </trkpt>
      <trkpt lat="39.7025380" lon="-0.4148180">
        <ele>540.7</ele>
        <time>2022-11-06T08:19:02Z</time>
      </trkpt>
      <trkpt lat="39.7025410" lon="-0.4147780">
        <ele>540.8</ele>
        <time>2022-11-06T08:19:03Z</time>
      </trkpt>
      <trkpt lat="39.7025570" lon="-0.4147030">
        <ele>541.1</ele>
        <time>2022-11-06T08:19:04Z</time>
      </trkpt>
      <trkpt lat="39.7025730" lon="-0.4146630">
        <ele>541.2</ele>
        <time>2022-11-06T08:19:05Z</time>
      </trkpt>
      <trkpt lat="39.7025860" lon="-0.4146280">
        <ele>541.3</ele>
        <time>2022-11-06T08:19:06Z</time>
      </trkpt>
      <trkpt lat="39.7026050" lon="-0.4145930">
        <ele>541.5</ele>
        <time>2022-11-06T08:19:07Z</time>
      </trkpt>
      <trkpt lat="39.7026210" lon="-0.4145570">
        <ele>541.6</ele>
        <time>2022-11-06T08:19:08Z</time>
      </trkpt>
      <trkpt lat="39.7026320" lon="-0.4145200">
        <ele>541.7</ele>
        <time>2022-11-06T08:19:09Z</time>
      </trkpt>
      <trkpt lat="39.7026480" lon="-0.4144820">
        <ele>541.8</ele>
        <time>2022-11-06T08:19:10Z</time>
      </trkpt>
      <trkpt lat="39.7026640" lon="-0.4144420">
        <ele>541.9</ele>
        <time>2022-11-06T08:19:11Z</time>
      </trkpt>
      <trkpt lat="39.7026770" lon="-0.4143950">
        <ele>542.0</ele>
        <time>2022-11-06T08:19:12Z</time>
      </trkpt>
      <trkpt lat="39.7026770" lon="-0.4143950">
        <ele>542.0</ele>
        <time>2022-11-06T08:19:13Z</time>
      </trkpt>
      <trkpt lat="39.7026940" lon="-0.4143570">
        <ele>542.1</ele>
        <time>2022-11-06T08:19:14Z</time>
      </trkpt>
      <trkpt lat="39.7027260" lon="-0.4142800">
        <ele>542.3</ele>
        <time>2022-11-06T08:19:15Z</time>
      </trkpt>
      <trkpt lat="39.7027310" lon="-0.4142420">
        <ele>542.4</ele>
        <time>2022-11-06T08:19:16Z</time>
      </trkpt>
      <trkpt lat="39.7027440" lon="-0.4142020">
        <ele>542.5</ele>
        <time>2022-11-06T08:19:17Z</time>
      </trkpt>
      <trkpt lat="39.7027470" lon="-0.4141650">
        <ele>542.5</ele>
        <time>2022-11-06T08:19:18Z</time>
      </trkpt>
      <trkpt lat="39.7027550" lon="-0.4141230">
        <ele>542.6</ele>
        <time>2022-11-06T08:19:19Z</time>
      </trkpt>
      <trkpt lat="39.7027550" lon="-0.4140820">
        <ele>542.7</ele>
        <time>2022-11-06T08:19:20Z</time>
      </trkpt>
      <trkpt lat="39.7027500" lon="-0.4140400">
        <ele>542.7</ele>
        <time>2022-11-06T08:19:21Z</time>
      </trkpt>
      <trkpt lat="39.7027500" lon="-0.4139980">
        <ele>542.8</ele>
        <time>2022-11-06T08:19:22Z</time>
      </trkpt>
      <trkpt lat="39.7027500" lon="-0.4139980">
        <ele>542.8</ele>
        <time>2022-11-06T08:19:23Z</time>
      </trkpt>
      <trkpt lat="39.7027500" lon="-0.4139980">
        <ele>542.8</ele>
        <time>2022-11-06T08:19:24Z</time>
      </trkpt>
      <trkpt lat="39.7027310" lon="-0.4138620">
        <ele>542.9</ele>
        <time>2022-11-06T08:19:25Z</time>
      </trkpt>
      <trkpt lat="39.7027260" lon="-0.4138150">
        <ele>542.9</ele>
        <time>2022-11-06T08:19:26Z</time>
      </trkpt>
      <trkpt lat="39.7027180" lon="-0.4137670">
        <ele>543.0</ele>
        <time>2022-11-06T08:19:27Z</time>
      </trkpt>
      <trkpt lat="39.7027100" lon="-0.4137180">
        <ele>543.0</ele>
        <time>2022-11-06T08:19:28Z</time>
      </trkpt>
      <trkpt lat="39.7027020" lon="-0.4136720">
        <ele>543.0</ele>
        <time>2022-11-06T08:19:29Z</time>
      </trkpt>
      <trkpt lat="39.7026910" lon="-0.4136230">
        <ele>543.1</ele>
        <time>2022-11-06T08:19:30Z</time>
      </trkpt>
      <trkpt lat="39.7026830" lon="-0.4135750">
        <ele>543.1</ele>
        <time>2022-11-06T08:19:31Z</time>
      </trkpt>
      <trkpt lat="39.7026750" lon="-0.4135250">
        <ele>543.1</ele>
        <time>2022-11-06T08:19:32Z</time>
      </trkpt>
      <trkpt lat="39.7026640" lon="-0.4134720">
        <ele>543.2</ele>
        <time>2022-11-06T08:19:33Z</time>
      </trkpt>
      <trkpt lat="39.7026640" lon="-0.4134720">
        <ele>543.2</ele>
        <time>2022-11-06T08:19:34Z</time>
      </trkpt>
      <trkpt lat="39.7026640" lon="-0.4134720">
        <ele>543.2</ele>
        <time>2022-11-06T08:19:35Z</time>
      </trkpt>
      <trkpt lat="39.7026400" lon="-0.4133150">
        <ele>543.3</ele>
        <time>2022-11-06T08:19:36Z</time>
      </trkpt>
      <trkpt lat="39.7026320" lon="-0.4132650">
        <ele>543.3</ele>
        <time>2022-11-06T08:19:37Z</time>
      </trkpt>
      <trkpt lat="39.7026260" lon="-0.4132150">
        <ele>543.4</ele>
        <time>2022-11-06T08:19:38Z</time>
      </trkpt>
      <trkpt lat="39.7026180" lon="-0.4131670">
        <ele>543.4</ele>
        <time>2022-11-06T08:19:39Z</time>
      </trkpt>
      <trkpt lat="39.7026100" lon="-0.4131170">
        <ele>543.4</ele>
        <time>2022-11-06T08:19:40Z</time>
      </trkpt>
      <trkpt lat="39.7026050" lon="-0.4130680">
        <ele>543.5</ele>
        <time>2022-11-06T08:19:41Z</time>
      </trkpt>
      <trkpt lat="39.7026000" lon="-0.4130170">
        <ele>543.5</ele>
        <time>2022-11-06T08:19:42Z</time>
      </trkpt>
      <trkpt lat="39.7025920" lon="-0.4129670">
        <ele>543.6</ele>
        <time>2022-11-06T08:19:43Z</time>
      </trkpt>
      <trkpt lat="39.7025920" lon="-0.4129670">
        <ele>543.6</ele>
        <time>2022-11-06T08:19:44Z</time>
      </trkpt>
      <trkpt lat="39.7025760" lon="-0.4128670">
        <ele>543.7</ele>
        <time>2022-11-06T08:19:45Z</time>
      </trkpt>
      <trkpt lat="39.7025730" lon="-0.4128220">
        <ele>543.8</ele>
        <time>2022-11-06T08:19:46Z</time>
      </trkpt>
      <trkpt lat="39.7025650" lon="-0.4127780">
        <ele>543.8</ele>
        <time>2022-11-06T08:19:47Z</time>
      </trkpt>
      <trkpt lat="39.7025590" lon="-0.4127320">
        <ele>543.9</ele>
        <time>2022-11-06T08:19:48Z</time>
      </trkpt>
      <trkpt lat="39.7025570" lon="-0.4126820">
        <ele>543.9</ele>
        <time>2022-11-06T08:19:49Z</time>
      </trkpt>
      <trkpt lat="39.7025490" lon="-0.4126330">
        <ele>543.9</ele>
        <time>2022-11-06T08:19:50Z</time>
      </trkpt>
      <trkpt lat="39.7025460" lon="-0.4125800">
        <ele>544.0</ele>
        <time>2022-11-06T08:19:51Z</time>
      </trkpt>
      <trkpt lat="39.7025330" lon="-0.4125280">
        <ele>544.0</ele>
        <time>2022-11-06T08:19:52Z</time>
      </trkpt>
      <trkpt lat="39.7025270" lon="-0.4124730">
        <ele>544.1</ele>
        <time>2022-11-06T08:19:53Z</time>
      </trkpt>
      <trkpt lat="39.7025190" lon="-0.4124170">
        <ele>544.1</ele>
        <time>2022-11-06T08:19:54Z</time>
      </trkpt>
      <trkpt lat="39.7025190" lon="-0.4124170">
        <ele>544.1</ele>
        <time>2022-11-06T08:19:55Z</time>
      </trkpt>
      <trkpt lat="39.7025000" lon="-0.4123120">
        <ele>544.2</ele>
        <time>2022-11-06T08:19:56Z</time>
      </trkpt>
      <trkpt lat="39.7024870" lon="-0.4122580">
        <ele>544.3</ele>
        <time>2022-11-06T08:19:57Z</time>
      </trkpt>
      <trkpt lat="39.7024760" lon="-0.4122050">
        <ele>544.3</ele>
        <time>2022-11-06T08:19:58Z</time>
      </trkpt>
      <trkpt lat="39.7024660" lon="-0.4121530">
        <ele>544.4</ele>
        <time>2022-11-06T08:19:59Z</time>
      </trkpt>
      <trkpt lat="39.7024490" lon="-0.4121050">
        <ele>544.4</ele>
        <time>2022-11-06T08:20:00Z</time>
      </trkpt>
      <trkpt lat="39.7024310" lon="-0.4120570">
        <ele>544.5</ele>
        <time>2022-11-06T08:20:01Z</time>
      </trkpt>
      <trkpt lat="39.7024070" lon="-0.4120130">
        <ele>544.5</ele>
        <time>2022-11-06T08:20:02Z</time>
      </trkpt>
      <trkpt lat="39.7023850" lon="-0.4119730">
        <ele>544.6</ele>
        <time>2022-11-06T08:20:03Z</time>
      </trkpt>
      <trkpt lat="39.7023850" lon="-0.4119730">
        <ele>544.6</ele>
        <time>2022-11-06T08:20:04Z</time>
      </trkpt>
      <trkpt lat="39.7023850" lon="-0.4119730">
        <ele>544.6</ele>
        <time>2022-11-06T08:20:05Z</time>
      </trkpt>
      <trkpt lat="39.7022940" lon="-0.4118750">
        <ele>544.8</ele>
        <time>2022-11-06T08:20:06Z</time>
      </trkpt>
      <trkpt lat="39.7022620" lon="-0.4118480">
        <ele>544.8</ele>
        <time>2022-11-06T08:20:07Z</time>
      </trkpt>
      <trkpt lat="39.7022320" lon="-0.4118180">
        <ele>544.9</ele>
        <time>2022-11-06T08:20:08Z</time>
      </trkpt>
      <trkpt lat="39.7021950" lon="-0.4117900">
        <ele>544.9</ele>
        <time>2022-11-06T08:20:09Z</time>
      </trkpt>
      <trkpt lat="39.7021600" lon="-0.4117650">
        <ele>545.0</ele>
        <time>2022-11-06T08:20:10Z</time>
      </trkpt>
      <trkpt lat="39.7021250" lon="-0.4117400">
        <ele>545.0</ele>
        <time>2022-11-06T08:20:11Z</time>
      </trkpt>
      <trkpt lat="39.7020870" lon="-0.4117130">
        <ele>545.1</ele>
        <time>2022-11-06T08:20:12Z</time>
      </trkpt>
      <trkpt lat="39.7020520" lon="-0.4116850">
        <ele>545.2</ele>
        <time>2022-11-06T08:20:13Z</time>
      </trkpt>
      <trkpt lat="39.7020150" lon="-0.4116530">
        <ele>545.2</ele>
        <time>2022-11-06T08:20:14Z</time>
      </trkpt>
      <trkpt lat="39.7020150" lon="-0.4116530">
        <ele>545.2</ele>
        <time>2022-11-06T08:20:15Z</time>
      </trkpt>
      <trkpt lat="39.7020150" lon="-0.4116530">
        <ele>545.2</ele>
        <time>2022-11-06T08:20:16Z</time>
      </trkpt>
      <trkpt lat="39.7019130" lon="-0.4115720">
        <ele>545.4</ele>
        <time>2022-11-06T08:20:17Z</time>
      </trkpt>
      <trkpt lat="39.7018730" lon="-0.4115420">
        <ele>545.5</ele>
        <time>2022-11-06T08:20:18Z</time>
      </trkpt>
      <trkpt lat="39.7018430" lon="-0.4115080">
        <ele>545.5</ele>
        <time>2022-11-06T08:20:19Z</time>
      </trkpt>
      <trkpt lat="39.7018160" lon="-0.4114720">
        <ele>545.6</ele>
        <time>2022-11-06T08:20:20Z</time>
      </trkpt>
      <trkpt lat="39.7017950" lon="-0.4114250">
        <ele>545.6</ele>
        <time>2022-11-06T08:20:21Z</time>
      </trkpt>
      <trkpt lat="39.7017790" lon="-0.4113680">
        <ele>545.6</ele>
        <time>2022-11-06T08:20:22Z</time>
      </trkpt>
      <trkpt lat="39.7017630" lon="-0.4113100">
        <ele>545.6</ele>
        <time>2022-11-06T08:20:23Z</time>
      </trkpt>
      <trkpt lat="39.7017630" lon="-0.4112520">
        <ele>545.6</ele>
        <time>2022-11-06T08:20:24Z</time>
      </trkpt>
      <trkpt lat="39.7017630" lon="-0.4112520">
        <ele>545.6</ele>
        <time>2022-11-06T08:20:25Z</time>
      </trkpt>
      <trkpt lat="39.7017740" lon="-0.4111330">
        <ele>545.7</ele>
        <time>2022-11-06T08:20:26Z</time>
      </trkpt>
      <trkpt lat="39.7017950" lon="-0.4110750">
        <ele>545.8</ele>
        <time>2022-11-06T08:20:27Z</time>
      </trkpt>
      <trkpt lat="39.7018160" lon="-0.4110180">
        <ele>545.8</ele>
        <time>2022-11-06T08:20:28Z</time>
      </trkpt>
      <trkpt lat="39.7018410" lon="-0.4109650">
        <ele>545.9</ele>
        <time>2022-11-06T08:20:29Z</time>
      </trkpt>
      <trkpt lat="39.7018670" lon="-0.4109130">
        <ele>546.0</ele>
        <time>2022-11-06T08:20:30Z</time>
      </trkpt>
      <trkpt lat="39.7018890" lon="-0.4108630">
        <ele>546.1</ele>
        <time>2022-11-06T08:20:31Z</time>
      </trkpt>
      <trkpt lat="39.7019160" lon="-0.4108130">
        <ele>546.2</ele>
        <time>2022-11-06T08:20:32Z</time>
      </trkpt>
      <trkpt lat="39.7019400" lon="-0.4107630">
        <ele>546.3</ele>
        <time>2022-11-06T08:20:33Z</time>
      </trkpt>
      <trkpt lat="39.7019670" lon="-0.4107170">
        <ele>546.4</ele>
        <time>2022-11-06T08:20:34Z</time>
      </trkpt>
      <trkpt lat="39.7019880" lon="-0.4106680">
        <ele>546.5</ele>
        <time>2022-11-06T08:20:35Z</time>
      </trkpt>
      <trkpt lat="39.7019880" lon="-0.4106680">
        <ele>546.5</ele>
        <time>2022-11-06T08:20:36Z</time>
      </trkpt>
      <trkpt lat="39.7020230" lon="-0.4105670">
        <ele>546.7</ele>
        <time>2022-11-06T08:20:37Z</time>
      </trkpt>
      <trkpt lat="39.7020310" lon="-0.4105150">
        <ele>546.9</ele>
        <time>2022-11-06T08:20:38Z</time>
      </trkpt>
      <trkpt lat="39.7020340" lon="-0.4104600">
        <ele>547.0</ele>
        <time>2022-11-06T08:20:39Z</time>
      </trkpt>
      <trkpt lat="39.7020340" lon="-0.4104050">
        <ele>547.1</ele>
        <time>2022-11-06T08:20:40Z</time>
      </trkpt>
      <trkpt lat="39.7020260" lon="-0.4103530">
        <ele>547.3</ele>
        <time>2022-11-06T08:20:41Z</time>
      </trkpt>
      <trkpt lat="39.7020120" lon="-0.4103070">
        <ele>547.4</ele>
        <time>2022-11-06T08:20:42Z</time>
      </trkpt>
      <trkpt lat="39.7019960" lon="-0.4102630">
        <ele>547.6</ele>
        <time>2022-11-06T08:20:43Z</time>
      </trkpt>
      <trkpt lat="39.7019770" lon="-0.4102180">
        <ele>547.7</ele>
        <time>2022-11-06T08:20:44Z</time>
      </trkpt>
      <trkpt lat="39.7019510" lon="-0.4101800">
        <ele>547.9</ele>
        <time>2022-11-06T08:20:45Z</time>
      </trkpt>
      <trkpt lat="39.7019510" lon="-0.4101800">
        <ele>547.9</ele>
        <time>2022-11-06T08:20:46Z</time>
      </trkpt>
      <trkpt lat="39.7019000" lon="-0.4101120">
        <ele>548.2</ele>
        <time>2022-11-06T08:20:47Z</time>
      </trkpt>
      <trkpt lat="39.7018730" lon="-0.4100780">
        <ele>548.3</ele>
        <time>2022-11-06T08:20:48Z</time>
      </trkpt>
      <trkpt lat="39.7018460" lon="-0.4100430">
        <ele>548.4</ele>
        <time>2022-11-06T08:20:49Z</time>
      </trkpt>
      <trkpt lat="39.7018240" lon="-0.4100100">
        <ele>548.5</ele>
        <time>2022-11-06T08:20:50Z</time>
      </trkpt>
      <trkpt lat="39.7017950" lon="-0.4099780">
        <ele>548.6</ele>
        <time>2022-11-06T08:20:51Z</time>
      </trkpt>
      <trkpt lat="39.7017680" lon="-0.4099400">
        <ele>548.7</ele>
        <time>2022-11-06T08:20:52Z</time>
      </trkpt>
      <trkpt lat="39.7017360" lon="-0.4099050">
        <ele>548.8</ele>
        <time>2022-11-06T08:20:53Z</time>
      </trkpt>
      <trkpt lat="39.7017090" lon="-0.4098700">
        <ele>548.9</ele>
        <time>2022-11-06T08:20:54Z</time>
      </trkpt>
      <trkpt lat="39.7016800" lon="-0.4098400">
        <ele>549.0</ele>
        <time>2022-11-06T08:20:55Z</time>
      </trkpt>
      <trkpt lat="39.7016800" lon="-0.4098400">
        <ele>549.0</ele>
        <time>2022-11-06T08:20:56Z</time>
      </trkpt>
      <trkpt lat="39.7016800" lon="-0.4098400">
        <ele>549.0</ele>
        <time>2022-11-06T08:20:57Z</time>
      </trkpt>
      <trkpt lat="39.7015910" lon="-0.4097350">
        <ele>549.4</ele>
        <time>2022-11-06T08:20:58Z</time>
      </trkpt>
      <trkpt lat="39.7015700" lon="-0.4096980">
        <ele>549.6</ele>
        <time>2022-11-06T08:20:59Z</time>
      </trkpt>
      <trkpt lat="39.7015430" lon="-0.4096620">
        <ele>549.7</ele>
        <time>2022-11-06T08:21:00Z</time>
      </trkpt>
      <trkpt lat="39.7015190" lon="-0.4096230">
        <ele>549.9</ele>
        <time>2022-11-06T08:21:01Z</time>
      </trkpt>
      <trkpt lat="39.7014970" lon="-0.4095850">
        <ele>550.1</ele>
        <time>2022-11-06T08:21:02Z</time>
      </trkpt>
      <trkpt lat="39.7014730" lon="-0.4095420">
        <ele>550.3</ele>
        <time>2022-11-06T08:21:03Z</time>
      </trkpt>
      <trkpt lat="39.7014460" lon="-0.4095020">
        <ele>550.5</ele>
        <time>2022-11-06T08:21:04Z</time>
      </trkpt>
      <trkpt lat="39.7014280" lon="-0.4094600">
        <ele>550.6</ele>
        <time>2022-11-06T08:21:05Z</time>
      </trkpt>
      <trkpt lat="39.7014280" lon="-0.4094600">
        <ele>550.6</ele>
        <time>2022-11-06T08:21:06Z</time>
      </trkpt>
      <trkpt lat="39.7014280" lon="-0.4094600">
        <ele>550.6</ele>
        <time>2022-11-06T08:21:07Z</time>
      </trkpt>
      <trkpt lat="39.7013630" lon="-0.4093320">
        <ele>551.2</ele>
        <time>2022-11-06T08:21:08Z</time>
      </trkpt>
      <trkpt lat="39.7013440" lon="-0.4092920">
        <ele>551.3</ele>
        <time>2022-11-06T08:21:09Z</time>
      </trkpt>
      <trkpt lat="39.7013280" lon="-0.4092520">
        <ele>551.5</ele>
        <time>2022-11-06T08:21:10Z</time>
      </trkpt>
      <trkpt lat="39.7013120" lon="-0.4092100">
        <ele>551.7</ele>
        <time>2022-11-06T08:21:11Z</time>
      </trkpt>
      <trkpt lat="39.7012930" lon="-0.4091730">
        <ele>551.8</ele>
        <time>2022-11-06T08:21:12Z</time>
      </trkpt>
      <trkpt lat="39.7012800" lon="-0.4091350">
        <ele>552.0</ele>
        <time>2022-11-06T08:21:13Z</time>
      </trkpt>
      <trkpt lat="39.7012640" lon="-0.4090970">
        <ele>552.2</ele>
        <time>2022-11-06T08:21:14Z</time>
      </trkpt>
      <trkpt lat="39.7012450" lon="-0.4090550">
        <ele>552.3</ele>
        <time>2022-11-06T08:21:15Z</time>
      </trkpt>
      <trkpt lat="39.7012290" lon="-0.4090170">
        <ele>552.5</ele>
        <time>2022-11-06T08:21:16Z</time>
      </trkpt>
      <trkpt lat="39.7012290" lon="-0.4090170">
        <ele>552.5</ele>
        <time>2022-11-06T08:21:17Z</time>
      </trkpt>
      <trkpt lat="39.7012290" lon="-0.4090170">
        <ele>552.5</ele>
        <time>2022-11-06T08:21:18Z</time>
      </trkpt>
      <trkpt lat="39.7011810" lon="-0.4088950">
        <ele>553.0</ele>
        <time>2022-11-06T08:21:19Z</time>
      </trkpt>
      <trkpt lat="39.7011650" lon="-0.4088530">
        <ele>553.2</ele>
        <time>2022-11-06T08:21:20Z</time>
      </trkpt>
      <trkpt lat="39.7011460" lon="-0.4088130">
        <ele>553.4</ele>
        <time>2022-11-06T08:21:21Z</time>
      </trkpt>
      <trkpt lat="39.7011300" lon="-0.4087720">
        <ele>553.5</ele>
        <time>2022-11-06T08:21:22Z</time>
      </trkpt>
      <trkpt lat="39.7011110" lon="-0.4087350">
        <ele>553.7</ele>
        <time>2022-11-06T08:21:23Z</time>
      </trkpt>
      <trkpt lat="39.7010920" lon="-0.4086980">
        <ele>553.9</ele>
        <time>2022-11-06T08:21:24Z</time>
      </trkpt>
      <trkpt lat="39.7010760" lon="-0.4086630">
        <ele>554.0</ele>
        <time>2022-11-06T08:21:25Z</time>
      </trkpt>
      <trkpt lat="39.7010570" lon="-0.4086200">
        <ele>554.2</ele>
        <time>2022-11-06T08:21:26Z</time>
      </trkpt>
      <trkpt lat="39.7010570" lon="-0.4086200">
        <ele>554.2</ele>
        <time>2022-11-06T08:21:27Z</time>
      </trkpt>
      <trkpt lat="39.7010280" lon="-0.4085430">
        <ele>554.5</ele>
        <time>2022-11-06T08:21:28Z</time>
      </trkpt>
      <trkpt lat="39.7010120" lon="-0.4085030">
        <ele>554.7</ele>
        <time>2022-11-06T08:21:29Z</time>
      </trkpt>
      <trkpt lat="39.7009960" lon="-0.4084630">
        <ele>554.8</ele>
        <time>2022-11-06T08:21:30Z</time>
      </trkpt>
      <trkpt lat="39.7009770" lon="-0.4084250">
        <ele>555.0</ele>
        <time>2022-11-06T08:21:31Z</time>
      </trkpt>
      <trkpt lat="39.7009610" lon="-0.4083870">
        <ele>555.1</ele>
        <time>2022-11-06T08:21:32Z</time>
      </trkpt>
      <trkpt lat="39.7009470" lon="-0.4083480">
        <ele>555.3</ele>
        <time>2022-11-06T08:21:33Z</time>
      </trkpt>
      <trkpt lat="39.7009290" lon="-0.4083070">
        <ele>555.4</ele>
        <time>2022-11-06T08:21:34Z</time>
      </trkpt>
      <trkpt lat="39.7009130" lon="-0.4082680">
        <ele>555.6</ele>
        <time>2022-11-06T08:21:35Z</time>
      </trkpt>
      <trkpt lat="39.7008960" lon="-0.4082300">
        <ele>555.7</ele>
        <time>2022-11-06T08:21:36Z</time>
      </trkpt>
      <trkpt lat="39.7008780" lon="-0.4081920">
        <ele>555.8</ele>
        <time>2022-11-06T08:21:37Z</time>
      </trkpt>
      <trkpt lat="39.7008780" lon="-0.4081920">
        <ele>555.8</ele>
        <time>2022-11-06T08:21:38Z</time>
      </trkpt>
      <trkpt lat="39.7008560" lon="-0.4081130">
        <ele>556.1</ele>
        <time>2022-11-06T08:21:39Z</time>
      </trkpt>
      <trkpt lat="39.7008400" lon="-0.4080720">
        <ele>556.2</ele>
        <time>2022-11-06T08:21:40Z</time>
      </trkpt>
      <trkpt lat="39.7008210" lon="-0.4080330">
        <ele>556.3</ele>
        <time>2022-11-06T08:21:41Z</time>
      </trkpt>
      <trkpt lat="39.7008030" lon="-0.4079950">
        <ele>556.5</ele>
        <time>2022-11-06T08:21:42Z</time>
      </trkpt>
      <trkpt lat="39.7007890" lon="-0.4079620">
        <ele>556.6</ele>
        <time>2022-11-06T08:21:43Z</time>
      </trkpt>
      <trkpt lat="39.7007700" lon="-0.4079230">
        <ele>556.7</ele>
        <time>2022-11-06T08:21:44Z</time>
      </trkpt>
      <trkpt lat="39.7007570" lon="-0.4078830">
        <ele>556.8</ele>
        <time>2022-11-06T08:21:45Z</time>
      </trkpt>
      <trkpt lat="39.7007380" lon="-0.4078420">
        <ele>556.9</ele>
        <time>2022-11-06T08:21:46Z</time>
      </trkpt>
      <trkpt lat="39.7007380" lon="-0.4078420">
        <ele>556.9</ele>
        <time>2022-11-06T08:21:47Z</time>
      </trkpt>
      <trkpt lat="39.7007380" lon="-0.4078420">
        <ele>556.9</ele>
        <time>2022-11-06T08:21:48Z</time>
      </trkpt>
      <trkpt lat="39.7006870" lon="-0.4077100">
        <ele>557.2</ele>
        <time>2022-11-06T08:21:49Z</time>
      </trkpt>
      <trkpt lat="39.7006680" lon="-0.4076630">
        <ele>557.3</ele>
        <time>2022-11-06T08:21:50Z</time>
      </trkpt>
      <trkpt lat="39.7006520" lon="-0.4076200">
        <ele>557.4</ele>
        <time>2022-11-06T08:21:51Z</time>
      </trkpt>
      <trkpt lat="39.7006340" lon="-0.4075750">
        <ele>557.5</ele>
        <time>2022-11-06T08:21:52Z</time>
      </trkpt>
      <trkpt lat="39.7006150" lon="-0.4075320">
        <ele>557.6</ele>
        <time>2022-11-06T08:21:53Z</time>
      </trkpt>
      <trkpt lat="39.7005990" lon="-0.4074900">
        <ele>557.6</ele>
        <time>2022-11-06T08:21:54Z</time>
      </trkpt>
      <trkpt lat="39.7005850" lon="-0.4074450">
        <ele>557.7</ele>
        <time>2022-11-06T08:21:55Z</time>
      </trkpt>
      <trkpt lat="39.7005690" lon="-0.4074030">
        <ele>557.8</ele>
        <time>2022-11-06T08:21:56Z</time>
      </trkpt>
      <trkpt lat="39.7005530" lon="-0.4073630">
        <ele>557.9</ele>
        <time>2022-11-06T08:21:57Z</time>
      </trkpt>
      <trkpt lat="39.7005530" lon="-0.4073630">
        <ele>557.9</ele>
        <time>2022-11-06T08:21:58Z</time>
      </trkpt>
      <trkpt lat="39.7005530" lon="-0.4073630">
        <ele>557.9</ele>
        <time>2022-11-06T08:21:59Z</time>
      </trkpt>
      <trkpt lat="39.7004970" lon="-0.4072400">
        <ele>558.2</ele>
        <time>2022-11-06T08:22:00Z</time>
      </trkpt>
      <trkpt lat="39.7004780" lon="-0.4071980">
        <ele>558.2</ele>
        <time>2022-11-06T08:22:01Z</time>
      </trkpt>
      <trkpt lat="39.7004620" lon="-0.4071580">
        <ele>558.3</ele>
        <time>2022-11-06T08:22:02Z</time>
      </trkpt>
      <trkpt lat="39.7004430" lon="-0.4071170">
        <ele>558.4</ele>
        <time>2022-11-06T08:22:03Z</time>
      </trkpt>
      <trkpt lat="39.7004270" lon="-0.4070750">
        <ele>558.5</ele>
        <time>2022-11-06T08:22:04Z</time>
      </trkpt>
      <trkpt lat="39.7004140" lon="-0.4070350">
        <ele>558.6</ele>
        <time>2022-11-06T08:22:05Z</time>
      </trkpt>
      <trkpt lat="39.7003980" lon="-0.4069950">
        <ele>558.6</ele>
        <time>2022-11-06T08:22:06Z</time>
      </trkpt>
      <trkpt lat="39.7003810" lon="-0.4069530">
        <ele>558.7</ele>
        <time>2022-11-06T08:22:07Z</time>
      </trkpt>
      <trkpt lat="39.7003810" lon="-0.4069530">
        <ele>558.7</ele>
        <time>2022-11-06T08:22:08Z</time>
      </trkpt>
      <trkpt lat="39.7003520" lon="-0.4068680">
        <ele>558.5</ele>
        <time>2022-11-06T08:22:09Z</time>
      </trkpt>
      <trkpt lat="39.7003410" lon="-0.4068230">
        <ele>558.4</ele>
        <time>2022-11-06T08:22:10Z</time>
      </trkpt>
      <trkpt lat="39.7003280" lon="-0.4067770">
        <ele>558.3</ele>
        <time>2022-11-06T08:22:11Z</time>
      </trkpt>
      <trkpt lat="39.7003170" lon="-0.4067320">
        <ele>558.2</ele>
        <time>2022-11-06T08:22:12Z</time>
      </trkpt>
      <trkpt lat="39.7003010" lon="-0.4066800">
        <ele>558.1</ele>
        <time>2022-11-06T08:22:13Z</time>
      </trkpt>
      <trkpt lat="39.7002960" lon="-0.4066300">
        <ele>557.9</ele>
        <time>2022-11-06T08:22:14Z</time>
      </trkpt>
      <trkpt lat="39.7002880" lon="-0.4065730">
        <ele>557.8</ele>
        <time>2022-11-06T08:22:15Z</time>
      </trkpt>
      <trkpt lat="39.7002820" lon="-0.4065120">
        <ele>557.6</ele>
        <time>2022-11-06T08:22:16Z</time>
      </trkpt>
      <trkpt lat="39.7002880" lon="-0.4064500">
        <ele>557.4</ele>
        <time>2022-11-06T08:22:17Z</time>
      </trkpt>
      <trkpt lat="39.7002880" lon="-0.4063870">
        <ele>557.2</ele>
        <time>2022-11-06T08:22:18Z</time>
      </trkpt>
      <trkpt lat="39.7002880" lon="-0.4063870">
        <ele>557.2</ele>
        <time>2022-11-06T08:22:19Z</time>
      </trkpt>
      <trkpt lat="39.7003010" lon="-0.4062600">
        <ele>556.8</ele>
        <time>2022-11-06T08:22:20Z</time>
      </trkpt>
      <trkpt lat="39.7003090" lon="-0.4061950">
        <ele>556.6</ele>
        <time>2022-11-06T08:22:21Z</time>
      </trkpt>
      <trkpt lat="39.7003170" lon="-0.4061230">
        <ele>556.4</ele>
        <time>2022-11-06T08:22:22Z</time>
      </trkpt>
      <trkpt lat="39.7003220" lon="-0.4060530">
        <ele>556.2</ele>
        <time>2022-11-06T08:22:23Z</time>
      </trkpt>
      <trkpt lat="39.7003280" lon="-0.4059850">
        <ele>556.1</ele>
        <time>2022-11-06T08:22:24Z</time>
      </trkpt>
      <trkpt lat="39.7003280" lon="-0.4059170">
        <ele>555.9</ele>
        <time>2022-11-06T08:22:25Z</time>
      </trkpt>
      <trkpt lat="39.7003360" lon="-0.4058520">
        <ele>555.7</ele>
        <time>2022-11-06T08:22:26Z</time>
      </trkpt>
      <trkpt lat="39.7003520" lon="-0.4057820">
        <ele>555.4</ele>
        <time>2022-11-06T08:22:27Z</time>
      </trkpt>
      <trkpt lat="39.7003520" lon="-0.4057820">
        <ele>555.4</ele>
        <time>2022-11-06T08:22:28Z</time>
      </trkpt>
      <trkpt lat="39.7003520" lon="-0.4057820">
        <ele>555.4</ele>
        <time>2022-11-06T08:22:29Z</time>
      </trkpt>
      <trkpt lat="39.7003870" lon="-0.4055520">
        <ele>554.6</ele>
        <time>2022-11-06T08:22:30Z</time>
      </trkpt>
      <trkpt lat="39.7003950" lon="-0.4054900">
        <ele>554.4</ele>
        <time>2022-11-06T08:22:31Z</time>
      </trkpt>
      <trkpt lat="39.7004000" lon="-0.4054150">
        <ele>554.1</ele>
        <time>2022-11-06T08:22:32Z</time>
      </trkpt>
      <trkpt lat="39.7004160" lon="-0.4053380">
        <ele>553.8</ele>
        <time>2022-11-06T08:22:33Z</time>
      </trkpt>
      <trkpt lat="39.7004320" lon="-0.4052620">
        <ele>553.4</ele>
        <time>2022-11-06T08:22:34Z</time>
      </trkpt>
      <trkpt lat="39.7004430" lon="-0.4051780">
        <ele>553.0</ele>
        <time>2022-11-06T08:22:35Z</time>
      </trkpt>
      <trkpt lat="39.7004590" lon="-0.4051020">
        <ele>552.6</ele>
        <time>2022-11-06T08:22:36Z</time>
      </trkpt>
      <trkpt lat="39.7004700" lon="-0.4050180">
        <ele>552.1</ele>
        <time>2022-11-06T08:22:37Z</time>
      </trkpt>
      <trkpt lat="39.7004890" lon="-0.4049280">
        <ele>551.6</ele>
        <time>2022-11-06T08:22:38Z</time>
      </trkpt>
      <trkpt lat="39.7004890" lon="-0.4049280">
        <ele>551.6</ele>
        <time>2022-11-06T08:22:39Z</time>
      </trkpt>
      <trkpt lat="39.7004890" lon="-0.4049280">
        <ele>551.6</ele>
        <time>2022-11-06T08:22:40Z</time>
      </trkpt>
      <trkpt lat="39.7005320" lon="-0.4046080">
        <ele>549.9</ele>
        <time>2022-11-06T08:22:41Z</time>
      </trkpt>
      <trkpt lat="39.7005450" lon="-0.4045030">
        <ele>549.3</ele>
        <time>2022-11-06T08:22:42Z</time>
      </trkpt>
      <trkpt lat="39.7005610" lon="-0.4043980">
        <ele>548.7</ele>
        <time>2022-11-06T08:22:43Z</time>
      </trkpt>
      <trkpt lat="39.7005770" lon="-0.4042870">
        <ele>548.2</ele>
        <time>2022-11-06T08:22:44Z</time>
      </trkpt>
      <trkpt lat="39.7005800" lon="-0.4041700">
        <ele>547.6</ele>
        <time>2022-11-06T08:22:45Z</time>
      </trkpt>
      <trkpt lat="39.7005720" lon="-0.4040380">
        <ele>547.0</ele>
        <time>2022-11-06T08:22:46Z</time>
      </trkpt>
      <trkpt lat="39.7005530" lon="-0.4039100">
        <ele>546.6</ele>
        <time>2022-11-06T08:22:47Z</time>
      </trkpt>
      <trkpt lat="39.7005240" lon="-0.4037870">
        <ele>546.1</ele>
        <time>2022-11-06T08:22:48Z</time>
      </trkpt>
      <trkpt lat="39.7005240" lon="-0.4037870">
        <ele>546.1</ele>
        <time>2022-11-06T08:22:49Z</time>
      </trkpt>
      <trkpt lat="39.7004350" lon="-0.4035730">
        <ele>545.3</ele>
        <time>2022-11-06T08:22:50Z</time>
      </trkpt>
      <trkpt lat="39.7003790" lon="-0.4034870">
        <ele>544.9</ele>
        <time>2022-11-06T08:22:51Z</time>
      </trkpt>
      <trkpt lat="39.7003250" lon="-0.4034070">
        <ele>544.5</ele>
        <time>2022-11-06T08:22:52Z</time>
      </trkpt>
      <trkpt lat="39.7002690" lon="-0.4033250">
        <ele>544.1</ele>
        <time>2022-11-06T08:22:53Z</time>
      </trkpt>
      <trkpt lat="39.7002150" lon="-0.4032430">
        <ele>543.7</ele>
        <time>2022-11-06T08:22:54Z</time>
      </trkpt>
      <trkpt lat="39.7001640" lon="-0.4031570">
        <ele>543.3</ele>
        <time>2022-11-06T08:22:55Z</time>
      </trkpt>
      <trkpt lat="39.7001080" lon="-0.4030770">
        <ele>542.8</ele>
        <time>2022-11-06T08:22:56Z</time>
      </trkpt>
      <trkpt lat="39.7000460" lon="-0.4029970">
        <ele>542.3</ele>
        <time>2022-11-06T08:22:57Z</time>
      </trkpt>
      <trkpt lat="39.6999790" lon="-0.4029320">
        <ele>541.9</ele>
        <time>2022-11-06T08:22:58Z</time>
      </trkpt>
      <trkpt lat="39.6998930" lon="-0.4028900">
        <ele>541.4</ele>
        <time>2022-11-06T08:22:59Z</time>
      </trkpt>
      <trkpt lat="39.6998930" lon="-0.4028900">
        <ele>541.4</ele>
        <time>2022-11-06T08:23:00Z</time>
      </trkpt>
      <trkpt lat="39.6997270" lon="-0.4028870">
        <ele>540.5</ele>
        <time>2022-11-06T08:23:01Z</time>
      </trkpt>
      <trkpt lat="39.6996490" lon="-0.4029170">
        <ele>540.1</ele>
        <time>2022-11-06T08:23:02Z</time>
      </trkpt>
      <trkpt lat="39.6995740" lon="-0.4029750">
        <ele>539.7</ele>
        <time>2022-11-06T08:23:03Z</time>
      </trkpt>
      <trkpt lat="39.6995150" lon="-0.4030420">
        <ele>539.3</ele>
        <time>2022-11-06T08:23:04Z</time>
      </trkpt>
      <trkpt lat="39.6994640" lon="-0.4031200">
        <ele>538.9</ele>
        <time>2022-11-06T08:23:05Z</time>
      </trkpt>
      <trkpt lat="39.6994100" lon="-0.4031970">
        <ele>538.5</ele>
        <time>2022-11-06T08:23:06Z</time>
      </trkpt>
      <trkpt lat="39.6993510" lon="-0.4032680">
        <ele>538.2</ele>
        <time>2022-11-06T08:23:07Z</time>
      </trkpt>
      <trkpt lat="39.6992870" lon="-0.4033320">
        <ele>537.8</ele>
        <time>2022-11-06T08:23:08Z</time>
      </trkpt>
      <trkpt lat="39.6992870" lon="-0.4033320">
        <ele>537.8</ele>
        <time>2022-11-06T08:23:09Z</time>
      </trkpt>
      <trkpt lat="39.6992870" lon="-0.4033320">
        <ele>537.8</ele>
        <time>2022-11-06T08:23:10Z</time>
      </trkpt>
      <trkpt lat="39.6990810" lon="-0.4035020">
        <ele>536.7</ele>
        <time>2022-11-06T08:23:11Z</time>
      </trkpt>
      <trkpt lat="39.6990080" lon="-0.4035520">
        <ele>536.3</ele>
        <time>2022-11-06T08:23:12Z</time>
      </trkpt>
      <trkpt lat="39.6989360" lon="-0.4035980">
        <ele>536.0</ele>
        <time>2022-11-06T08:23:13Z</time>
      </trkpt>
      <trkpt lat="39.6988610" lon="-0.4036370">
        <ele>535.6</ele>
        <time>2022-11-06T08:23:14Z</time>
      </trkpt>
      <trkpt lat="39.6987830" lon="-0.4036600">
        <ele>535.3</ele>
        <time>2022-11-06T08:23:15Z</time>
      </trkpt>
      <trkpt lat="39.6987100" lon="-0.4036620">
        <ele>534.9</ele>
        <time>2022-11-06T08:23:16Z</time>
      </trkpt>
      <trkpt lat="39.6986430" lon="-0.4036280">
        <ele>534.4</ele>
        <time>2022-11-06T08:23:17Z</time>
      </trkpt>
      <trkpt lat="39.6985900" lon="-0.4035750">
        <ele>534.0</ele>
        <time>2022-11-06T08:23:18Z</time>
      </trkpt>
      <trkpt lat="39.6985470" lon="-0.4035020">
        <ele>533.6</ele>
        <time>2022-11-06T08:23:19Z</time>
      </trkpt>
      <trkpt lat="39.6985470" lon="-0.4035020">
        <ele>533.6</ele>
        <time>2022-11-06T08:23:20Z</time>
      </trkpt>
      <trkpt lat="39.6985470" lon="-0.4035020">
        <ele>533.6</ele>
        <time>2022-11-06T08:23:21Z</time>
      </trkpt>
      <trkpt lat="39.6984660" lon="-0.4032330">
        <ele>532.4</ele>
        <time>2022-11-06T08:23:22Z</time>
      </trkpt>
      <trkpt lat="39.6984450" lon="-0.4031350">
        <ele>532.0</ele>
        <time>2022-11-06T08:23:23Z</time>
      </trkpt>
      <trkpt lat="39.6984260" lon="-0.4030320">
        <ele>531.6</ele>
        <time>2022-11-06T08:23:24Z</time>
      </trkpt>
      <trkpt lat="39.6984070" lon="-0.4029270">
        <ele>531.3</ele>
        <time>2022-11-06T08:23:25Z</time>
      </trkpt>
      <trkpt lat="39.6983830" lon="-0.4028200">
        <ele>530.9</ele>
        <time>2022-11-06T08:23:26Z</time>
      </trkpt>
      <trkpt lat="39.6983560" lon="-0.4027150">
        <ele>530.6</ele>
        <time>2022-11-06T08:23:27Z</time>
      </trkpt>
      <trkpt lat="39.6983270" lon="-0.4026130">
        <ele>530.2</ele>
        <time>2022-11-06T08:23:28Z</time>
      </trkpt>
      <trkpt lat="39.6982950" lon="-0.4025130">
        <ele>529.9</ele>
        <time>2022-11-06T08:23:29Z</time>
      </trkpt>
      <trkpt lat="39.6982950" lon="-0.4025130">
        <ele>529.9</ele>
        <time>2022-11-06T08:23:30Z</time>
      </trkpt>
      <trkpt lat="39.6982950" lon="-0.4025130">
        <ele>529.9</ele>
        <time>2022-11-06T08:23:31Z</time>
      </trkpt>
      <trkpt lat="39.6982360" lon="-0.4022120">
        <ele>529.0</ele>
        <time>2022-11-06T08:23:32Z</time>
      </trkpt>
      <trkpt lat="39.6982300" lon="-0.4021080">
        <ele>528.7</ele>
        <time>2022-11-06T08:23:33Z</time>
      </trkpt>
      <trkpt lat="39.6982300" lon="-0.4020050">
        <ele>528.5</ele>
        <time>2022-11-06T08:23:34Z</time>
      </trkpt>
      <trkpt lat="39.6982360" lon="-0.4019000">
        <ele>528.2</ele>
        <time>2022-11-06T08:23:35Z</time>
      </trkpt>
      <trkpt lat="39.6982380" lon="-0.4017970">
        <ele>528.0</ele>
        <time>2022-11-06T08:23:36Z</time>
      </trkpt>
      <trkpt lat="39.6982460" lon="-0.4016930">
        <ele>527.7</ele>
        <time>2022-11-06T08:23:37Z</time>
      </trkpt>
      <trkpt lat="39.6982570" lon="-0.4015900">
        <ele>527.5</ele>
        <time>2022-11-06T08:23:38Z</time>
      </trkpt>
      <trkpt lat="39.6982730" lon="-0.4014870">
        <ele>527.3</ele>
        <time>2022-11-06T08:23:39Z</time>
      </trkpt>
      <trkpt lat="39.6982920" lon="-0.4013830">
        <ele>527.1</ele>
        <time>2022-11-06T08:23:40Z</time>
      </trkpt>
      <trkpt lat="39.6982920" lon="-0.4013830">
        <ele>527.1</ele>
        <time>2022-11-06T08:23:41Z</time>
      </trkpt>
      <trkpt lat="39.6983350" lon="-0.4011780">
        <ele>526.8</ele>
        <time>2022-11-06T08:23:42Z</time>
      </trkpt>
      <trkpt lat="39.6983460" lon="-0.4010750">
        <ele>526.6</ele>
        <time>2022-11-06T08:23:43Z</time>
      </trkpt>
      <trkpt lat="39.6983400" lon="-0.4009680">
        <ele>526.5</ele>
        <time>2022-11-06T08:23:44Z</time>
      </trkpt>
      <trkpt lat="39.6983220" lon="-0.4008730">
        <ele>526.4</ele>
        <time>2022-11-06T08:23:45Z</time>
      </trkpt>
      <trkpt lat="39.6982870" lon="-0.4007820">
        <ele>526.3</ele>
        <time>2022-11-06T08:23:46Z</time>
      </trkpt>
      <trkpt lat="39.6982490" lon="-0.4006970">
        <ele>526.2</ele>
        <time>2022-11-06T08:23:47Z</time>
      </trkpt>
      <trkpt lat="39.6982140" lon="-0.4006130">
        <ele>526.1</ele>
        <time>2022-11-06T08:23:48Z</time>
      </trkpt>
      <trkpt lat="39.6981850" lon="-0.4005300">
        <ele>526.0</ele>
        <time>2022-11-06T08:23:49Z</time>
      </trkpt>
      <trkpt lat="39.6981660" lon="-0.4004430">
        <ele>525.9</ele>
        <time>2022-11-06T08:23:50Z</time>
      </trkpt>
      <trkpt lat="39.6981660" lon="-0.4004430">
        <ele>525.9</ele>
        <time>2022-11-06T08:23:51Z</time>
      </trkpt>
      <trkpt lat="39.6981360" lon="-0.4002670">
        <ele>525.7</ele>
        <time>2022-11-06T08:23:52Z</time>
      </trkpt>
      <trkpt lat="39.6981230" lon="-0.4001820">
        <ele>525.5</ele>
        <time>2022-11-06T08:23:53Z</time>
      </trkpt>
      <trkpt lat="39.6981120" lon="-0.4000920">
        <ele>525.4</ele>
        <time>2022-11-06T08:23:54Z</time>
      </trkpt>
      <trkpt lat="39.6981020" lon="-0.3999980">
        <ele>525.3</ele>
        <time>2022-11-06T08:23:55Z</time>
      </trkpt>
      <trkpt lat="39.6980940" lon="-0.3999050">
        <ele>525.2</ele>
        <time>2022-11-06T08:23:56Z</time>
      </trkpt>
      <trkpt lat="39.6980940" lon="-0.3998120">
        <ele>525.1</ele>
        <time>2022-11-06T08:23:57Z</time>
      </trkpt>
      <trkpt lat="39.6980910" lon="-0.3997200">
        <ele>524.9</ele>
        <time>2022-11-06T08:23:58Z</time>
      </trkpt>
      <trkpt lat="39.6980910" lon="-0.3996280">
        <ele>524.8</ele>
        <time>2022-11-06T08:23:59Z</time>
      </trkpt>
      <trkpt lat="39.6980940" lon="-0.3995370">
        <ele>524.7</ele>
        <time>2022-11-06T08:24:00Z</time>
      </trkpt>
      <trkpt lat="39.6980940" lon="-0.3995370">
        <ele>524.7</ele>
        <time>2022-11-06T08:24:01Z</time>
      </trkpt>
      <trkpt lat="39.6980940" lon="-0.3995370">
        <ele>524.7</ele>
        <time>2022-11-06T08:24:02Z</time>
      </trkpt>
      <trkpt lat="39.6981040" lon="-0.3992570">
        <ele>524.5</ele>
        <time>2022-11-06T08:24:03Z</time>
      </trkpt>
      <trkpt lat="39.6981150" lon="-0.3991650">
        <ele>524.4</ele>
        <time>2022-11-06T08:24:04Z</time>
      </trkpt>
      <trkpt lat="39.6981200" lon="-0.3990700">
        <ele>524.4</ele>
        <time>2022-11-06T08:24:05Z</time>
      </trkpt>
      <trkpt lat="39.6981230" lon="-0.3989770">
        <ele>524.4</ele>
        <time>2022-11-06T08:24:06Z</time>
      </trkpt>
      <trkpt lat="39.6981310" lon="-0.3988870">
        <ele>524.4</ele>
        <time>2022-11-06T08:24:07Z</time>
      </trkpt>
      <trkpt lat="39.6981360" lon="-0.3987970">
        <ele>524.4</ele>
        <time>2022-11-06T08:24:08Z</time>
      </trkpt>
      <trkpt lat="39.6981420" lon="-0.3987080">
        <ele>524.4</ele>
        <time>2022-11-06T08:24:09Z</time>
      </trkpt>
      <trkpt lat="39.6981470" lon="-0.3986220">
        <ele>524.5</ele>
        <time>2022-11-06T08:24:10Z</time>
      </trkpt>
      <trkpt lat="39.6981470" lon="-0.3986220">
        <ele>524.5</ele>
        <time>2022-11-06T08:24:11Z</time>
      </trkpt>
      <trkpt lat="39.6981470" lon="-0.3986220">
        <ele>524.5</ele>
        <time>2022-11-06T08:24:12Z</time>
      </trkpt>
      <trkpt lat="39.6981360" lon="-0.3983630">
        <ele>524.9</ele>
        <time>2022-11-06T08:24:13Z</time>
      </trkpt>
      <trkpt lat="39.6981310" lon="-0.3982730">
        <ele>525.0</ele>
        <time>2022-11-06T08:24:14Z</time>
      </trkpt>
      <trkpt lat="39.6981310" lon="-0.3981870">
        <ele>525.2</ele>
        <time>2022-11-06T08:24:15Z</time>
      </trkpt>
      <trkpt lat="39.6981390" lon="-0.3981070">
        <ele>525.5</ele>
        <time>2022-11-06T08:24:16Z</time>
      </trkpt>
      <trkpt lat="39.6981420" lon="-0.3980280">
        <ele>525.9</ele>
        <time>2022-11-06T08:24:17Z</time>
      </trkpt>
      <trkpt lat="39.6981420" lon="-0.3979570">
        <ele>526.2</ele>
        <time>2022-11-06T08:24:18Z</time>
      </trkpt>
      <trkpt lat="39.6981360" lon="-0.3978880">
        <ele>526.5</ele>
        <time>2022-11-06T08:24:19Z</time>
      </trkpt>
      <trkpt lat="39.6981120" lon="-0.3978270">
        <ele>526.8</ele>
        <time>2022-11-06T08:24:20Z</time>
      </trkpt>
      <trkpt lat="39.6980940" lon="-0.3977630">
        <ele>527.1</ele>
        <time>2022-11-06T08:24:21Z</time>
      </trkpt>
      <trkpt lat="39.6980940" lon="-0.3977630">
        <ele>527.1</ele>
        <time>2022-11-06T08:24:22Z</time>
      </trkpt>
      <trkpt lat="39.6980940" lon="-0.3977630">
        <ele>527.1</ele>
        <time>2022-11-06T08:24:23Z</time>
      </trkpt>
      <trkpt lat="39.6980290" lon="-0.3976300">
        <ele>527.8</ele>
        <time>2022-11-06T08:24:24Z</time>
      </trkpt>
      <trkpt lat="39.6980050" lon="-0.3975850">
        <ele>528.0</ele>
        <time>2022-11-06T08:24:25Z</time>
      </trkpt>
      <trkpt lat="39.6979860" lon="-0.3975420">
        <ele>528.2</ele>
        <time>2022-11-06T08:24:26Z</time>
      </trkpt>
      <trkpt lat="39.6979590" lon="-0.3974950">
        <ele>528.5</ele>
        <time>2022-11-06T08:24:27Z</time>
      </trkpt>
      <trkpt lat="39.6979380" lon="-0.3974500">
        <ele>528.7</ele>
        <time>2022-11-06T08:24:28Z</time>
      </trkpt>
      <trkpt lat="39.6979140" lon="-0.3974080">
        <ele>529.0</ele>
        <time>2022-11-06T08:24:29Z</time>
      </trkpt>
      <trkpt lat="39.6978950" lon="-0.3973780">
        <ele>529.2</ele>
        <time>2022-11-06T08:24:30Z</time>
      </trkpt>
      <trkpt lat="39.6978760" lon="-0.3973550">
        <ele>529.4</ele>
        <time>2022-11-06T08:24:31Z</time>
      </trkpt>
      <trkpt lat="39.6978760" lon="-0.3973550">
        <ele>529.4</ele>
        <time>2022-11-06T08:24:32Z</time>
      </trkpt>
      <trkpt lat="39.6978520" lon="-0.3973330">
        <ele>529.6</ele>
        <time>2022-11-06T08:24:33Z</time>
      </trkpt>
      <trkpt lat="39.6978520" lon="-0.3973320">
        <ele>529.6</ele>
        <time>2022-11-06T08:24:34Z</time>
      </trkpt>
      <trkpt lat="39.6978520" lon="-0.3972650">
        <ele>530.0</ele>
        <time>2022-11-06T08:25:15Z</time>
      </trkpt>
      <trkpt lat="39.6978490" lon="-0.3972570">
        <ele>530.1</ele>
        <time>2022-11-06T08:25:16Z</time>
      </trkpt>
      <trkpt lat="39.6978410" lon="-0.3972470">
        <ele>530.1</ele>
        <time>2022-11-06T08:25:17Z</time>
      </trkpt>
      <trkpt lat="39.6978310" lon="-0.3972350">
        <ele>530.2</ele>
        <time>2022-11-06T08:25:18Z</time>
      </trkpt>
      <trkpt lat="39.6978250" lon="-0.3972220">
        <ele>530.3</ele>
        <time>2022-11-06T08:25:19Z</time>
      </trkpt>
      <trkpt lat="39.6978150" lon="-0.3972120">
        <ele>530.4</ele>
        <time>2022-11-06T08:25:20Z</time>
      </trkpt>
      <trkpt lat="39.6977960" lon="-0.3972000">
        <ele>530.6</ele>
        <time>2022-11-06T08:25:21Z</time>
      </trkpt>
      <trkpt lat="39.6977800" lon="-0.3971870">
        <ele>530.7</ele>
        <time>2022-11-06T08:25:22Z</time>
      </trkpt>
      <trkpt lat="39.6977610" lon="-0.3971720">
        <ele>530.9</ele>
        <time>2022-11-06T08:25:23Z</time>
      </trkpt>
      <trkpt lat="39.6977610" lon="-0.3971720">
        <ele>530.9</ele>
        <time>2022-11-06T08:25:24Z</time>
      </trkpt>
      <trkpt lat="39.6977210" lon="-0.3971530">
        <ele>531.2</ele>
        <time>2022-11-06T08:25:25Z</time>
      </trkpt>
      <trkpt lat="39.6976990" lon="-0.3971400">
        <ele>531.4</ele>
        <time>2022-11-06T08:25:26Z</time>
      </trkpt>
      <trkpt lat="39.6976800" lon="-0.3971330">
        <ele>531.6</ele>
        <time>2022-11-06T08:25:27Z</time>
      </trkpt>
      <trkpt lat="39.6976620" lon="-0.3971270">
        <ele>531.7</ele>
        <time>2022-11-06T08:25:28Z</time>
      </trkpt>
      <trkpt lat="39.6976430" lon="-0.3971230">
        <ele>531.9</ele>
        <time>2022-11-06T08:25:29Z</time>
      </trkpt>
      <trkpt lat="39.6976210" lon="-0.3971120">
        <ele>532.0</ele>
        <time>2022-11-06T08:25:30Z</time>
      </trkpt>
      <trkpt lat="39.6976050" lon="-0.3971070">
        <ele>532.2</ele>
        <time>2022-11-06T08:25:31Z</time>
      </trkpt>
      <trkpt lat="39.6975810" lon="-0.3971080">
        <ele>532.4</ele>
        <time>2022-11-06T08:25:32Z</time>
      </trkpt>
      <trkpt lat="39.6975620" lon="-0.3971120">
        <ele>532.5</ele>
        <time>2022-11-06T08:25:33Z</time>
      </trkpt>
      <trkpt lat="39.6975620" lon="-0.3971120">
        <ele>532.5</ele>
        <time>2022-11-06T08:25:34Z</time>
      </trkpt>
      <trkpt lat="39.6975170" lon="-0.3971130">
        <ele>532.9</ele>
        <time>2022-11-06T08:25:35Z</time>
      </trkpt>
      <trkpt lat="39.6974950" lon="-0.3971200">
        <ele>533.1</ele>
        <time>2022-11-06T08:25:36Z</time>
      </trkpt>
      <trkpt lat="39.6974690" lon="-0.3971280">
        <ele>533.3</ele>
        <time>2022-11-06T08:25:37Z</time>
      </trkpt>
      <trkpt lat="39.6974440" lon="-0.3971350">
        <ele>533.6</ele>
        <time>2022-11-06T08:25:38Z</time>
      </trkpt>
      <trkpt lat="39.6974230" lon="-0.3971430">
        <ele>533.8</ele>
        <time>2022-11-06T08:25:39Z</time>
      </trkpt>
      <trkpt lat="39.6973990" lon="-0.3971480">
        <ele>534.0</ele>
        <time>2022-11-06T08:25:40Z</time>
      </trkpt>
      <trkpt lat="39.6973770" lon="-0.3971500">
        <ele>534.2</ele>
        <time>2022-11-06T08:25:41Z</time>
      </trkpt>
      <trkpt lat="39.6973530" lon="-0.3971500">
        <ele>534.4</ele>
        <time>2022-11-06T08:25:42Z</time>
      </trkpt>
      <trkpt lat="39.6973320" lon="-0.3971480">
        <ele>534.6</ele>
        <time>2022-11-06T08:25:43Z</time>
      </trkpt>
      <trkpt lat="39.6973320" lon="-0.3971480">
        <ele>534.6</ele>
        <time>2022-11-06T08:25:44Z</time>
      </trkpt>
      <trkpt lat="39.6973320" lon="-0.3971480">
        <ele>534.6</ele>
        <time>2022-11-06T08:25:45Z</time>
      </trkpt>
      <trkpt lat="39.6972620" lon="-0.3971430">
        <ele>535.2</ele>
        <time>2022-11-06T08:25:46Z</time>
      </trkpt>
      <trkpt lat="39.6972350" lon="-0.3971430">
        <ele>535.5</ele>
        <time>2022-11-06T08:25:47Z</time>
      </trkpt>
      <trkpt lat="39.6972080" lon="-0.3971470">
        <ele>535.7</ele>
        <time>2022-11-06T08:25:48Z</time>
      </trkpt>
      <trkpt lat="39.6971820" lon="-0.3971500">
        <ele>535.9</ele>
        <time>2022-11-06T08:25:49Z</time>
      </trkpt>
      <trkpt lat="39.6971650" lon="-0.3971380">
        <ele>536.1</ele>
        <time>2022-11-06T08:25:50Z</time>
      </trkpt>
      <trkpt lat="39.6971520" lon="-0.3971250">
        <ele>536.2</ele>
        <time>2022-11-06T08:25:51Z</time>
      </trkpt>
      <trkpt lat="39.6971280" lon="-0.3970870">
        <ele>536.5</ele>
        <time>2022-11-06T08:25:52Z</time>
      </trkpt>
      <trkpt lat="39.6971090" lon="-0.3970620">
        <ele>536.6</ele>
        <time>2022-11-06T08:25:53Z</time>
      </trkpt>
      <trkpt lat="39.6971090" lon="-0.3970620">
        <ele>536.6</ele>
        <time>2022-11-06T08:25:54Z</time>
      </trkpt>
      <trkpt lat="39.6971090" lon="-0.3970620">
        <ele>536.6</ele>
        <time>2022-11-06T08:25:55Z</time>
      </trkpt>
      <trkpt lat="39.6970720" lon="-0.3969530">
        <ele>537.0</ele>
        <time>2022-11-06T08:25:56Z</time>
      </trkpt>
      <trkpt lat="39.6970640" lon="-0.3969130">
        <ele>537.2</ele>
        <time>2022-11-06T08:25:57Z</time>
      </trkpt>
      <trkpt lat="39.6970610" lon="-0.3968730">
        <ele>537.3</ele>
        <time>2022-11-06T08:25:58Z</time>
      </trkpt>
      <trkpt lat="39.6970560" lon="-0.3968230">
        <ele>537.5</ele>
        <time>2022-11-06T08:25:59Z</time>
      </trkpt>
      <trkpt lat="39.6970450" lon="-0.3967780">
        <ele>537.7</ele>
        <time>2022-11-06T08:26:00Z</time>
      </trkpt>
      <trkpt lat="39.6970260" lon="-0.3967380">
        <ele>537.8</ele>
        <time>2022-11-06T08:26:01Z</time>
      </trkpt>
      <trkpt lat="39.6970130" lon="-0.3966980">
        <ele>538.0</ele>
        <time>2022-11-06T08:26:02Z</time>
      </trkpt>
      <trkpt lat="39.6970070" lon="-0.3966650">
        <ele>538.1</ele>
        <time>2022-11-06T08:26:03Z</time>
      </trkpt>
      <trkpt lat="39.6969910" lon="-0.3966270">
        <ele>538.2</ele>
        <time>2022-11-06T08:26:04Z</time>
      </trkpt>
      <trkpt lat="39.6969910" lon="-0.3966270">
        <ele>538.2</ele>
        <time>2022-11-06T08:26:05Z</time>
      </trkpt>
      <trkpt lat="39.6969990" lon="-0.3965480">
        <ele>538.5</ele>
        <time>2022-11-06T08:26:06Z</time>
      </trkpt>
      <trkpt lat="39.6970100" lon="-0.3965150">
        <ele>538.6</ele>
        <time>2022-11-06T08:26:07Z</time>
      </trkpt>
      <trkpt lat="39.6970260" lon="-0.3964830">
        <ele>538.7</ele>
        <time>2022-11-06T08:26:08Z</time>
      </trkpt>
      <trkpt lat="39.6970290" lon="-0.3964430">
        <ele>538.8</ele>
        <time>2022-11-06T08:26:09Z</time>
      </trkpt>
      <trkpt lat="39.6970290" lon="-0.3964020">
        <ele>538.9</ele>
        <time>2022-11-06T08:26:10Z</time>
      </trkpt>
      <trkpt lat="39.6970390" lon="-0.3963600">
        <ele>539.0</ele>
        <time>2022-11-06T08:26:11Z</time>
      </trkpt>
      <trkpt lat="39.6970450" lon="-0.3963270">
        <ele>539.1</ele>
        <time>2022-11-06T08:26:12Z</time>
      </trkpt>
      <trkpt lat="39.6970470" lon="-0.3962970">
        <ele>539.1</ele>
        <time>2022-11-06T08:26:13Z</time>
      </trkpt>
      <trkpt lat="39.6970610" lon="-0.3962670">
        <ele>539.2</ele>
        <time>2022-11-06T08:26:14Z</time>
      </trkpt>
      <trkpt lat="39.6970610" lon="-0.3962670">
        <ele>539.2</ele>
        <time>2022-11-06T08:26:15Z</time>
      </trkpt>
      <trkpt lat="39.6970660" lon="-0.3961820">
        <ele>539.4</ele>
        <time>2022-11-06T08:26:16Z</time>
      </trkpt>
      <trkpt lat="39.6970800" lon="-0.3961430">
        <ele>539.5</ele>
        <time>2022-11-06T08:26:17Z</time>
      </trkpt>
      <trkpt lat="39.6970900" lon="-0.3961030">
        <ele>539.6</ele>
        <time>2022-11-06T08:26:18Z</time>
      </trkpt>
      <trkpt lat="39.6970980" lon="-0.3960620">
        <ele>539.7</ele>
        <time>2022-11-06T08:26:19Z</time>
      </trkpt>
      <trkpt lat="39.6971060" lon="-0.3960230">
        <ele>539.8</ele>
        <time>2022-11-06T08:26:20Z</time>
      </trkpt>
      <trkpt lat="39.6971250" lon="-0.3959820">
        <ele>539.9</ele>
        <time>2022-11-06T08:26:21Z</time>
      </trkpt>
      <trkpt lat="39.6971390" lon="-0.3959400">
        <ele>540.1</ele>
        <time>2022-11-06T08:26:22Z</time>
      </trkpt>
      <trkpt lat="39.6971600" lon="-0.3958970">
        <ele>540.2</ele>
        <time>2022-11-06T08:26:23Z</time>
      </trkpt>
      <trkpt lat="39.6971650" lon="-0.3958530">
        <ele>540.3</ele>
        <time>2022-11-06T08:26:24Z</time>
      </trkpt>
      <trkpt lat="39.6971790" lon="-0.3958130">
        <ele>540.4</ele>
        <time>2022-11-06T08:26:25Z</time>
      </trkpt>
      <trkpt lat="39.6971790" lon="-0.3958130">
        <ele>540.4</ele>
        <time>2022-11-06T08:26:26Z</time>
      </trkpt>
      <trkpt lat="39.6972080" lon="-0.3957470">
        <ele>540.6</ele>
        <time>2022-11-06T08:26:27Z</time>
      </trkpt>
      <trkpt lat="39.6972190" lon="-0.3957100">
        <ele>540.7</ele>
        <time>2022-11-06T08:26:28Z</time>
      </trkpt>
      <trkpt lat="39.6972330" lon="-0.3956770">
        <ele>540.9</ele>
        <time>2022-11-06T08:26:29Z</time>
      </trkpt>
      <trkpt lat="39.6972430" lon="-0.3956500">
        <ele>540.9</ele>
        <time>2022-11-06T08:26:30Z</time>
      </trkpt>
      <trkpt lat="39.6972570" lon="-0.3956180">
        <ele>541.0</ele>
        <time>2022-11-06T08:26:31Z</time>
      </trkpt>
      <trkpt lat="39.6972890" lon="-0.3955830">
        <ele>541.2</ele>
        <time>2022-11-06T08:26:32Z</time>
      </trkpt>
      <trkpt lat="39.6973050" lon="-0.3955500">
        <ele>541.3</ele>
        <time>2022-11-06T08:26:33Z</time>
      </trkpt>
      <trkpt lat="39.6973160" lon="-0.3955170">
        <ele>541.4</ele>
        <time>2022-11-06T08:26:34Z</time>
      </trkpt>
      <trkpt lat="39.6973160" lon="-0.3955170">
        <ele>541.4</ele>
        <time>2022-11-06T08:26:35Z</time>
      </trkpt>
      <trkpt lat="39.6973160" lon="-0.3955170">
        <ele>541.4</ele>
        <time>2022-11-06T08:26:36Z</time>
      </trkpt>
      <trkpt lat="39.6973830" lon="-0.3954170">
        <ele>541.8</ele>
        <time>2022-11-06T08:26:37Z</time>
      </trkpt>
      <trkpt lat="39.6974040" lon="-0.3953730">
        <ele>541.9</ele>
        <time>2022-11-06T08:26:38Z</time>
      </trkpt>
      <trkpt lat="39.6974260" lon="-0.3953370">
        <ele>542.1</ele>
        <time>2022-11-06T08:26:39Z</time>
      </trkpt>
      <trkpt lat="39.6974500" lon="-0.3953020">
        <ele>542.2</ele>
        <time>2022-11-06T08:26:40Z</time>
      </trkpt>
      <trkpt lat="39.6974710" lon="-0.3952670">
        <ele>542.3</ele>
        <time>2022-11-06T08:26:41Z</time>
      </trkpt>
      <trkpt lat="39.6974950" lon="-0.3952270">
        <ele>542.5</ele>
        <time>2022-11-06T08:26:42Z</time>
      </trkpt>
      <trkpt lat="39.6975090" lon="-0.3951870">
        <ele>542.6</ele>
        <time>2022-11-06T08:26:43Z</time>
      </trkpt>
      <trkpt lat="39.6975250" lon="-0.3951500">
        <ele>542.8</ele>
        <time>2022-11-06T08:26:44Z</time>
      </trkpt>
      <trkpt lat="39.6975440" lon="-0.3951080">
        <ele>542.9</ele>
        <time>2022-11-06T08:26:45Z</time>
      </trkpt>
      <trkpt lat="39.6975440" lon="-0.3951080">
        <ele>542.9</ele>
        <time>2022-11-06T08:26:46Z</time>
      </trkpt>
      <trkpt lat="39.6975440" lon="-0.3951080">
        <ele>542.9</ele>
        <time>2022-11-06T08:26:47Z</time>
      </trkpt>
      <trkpt lat="39.6975950" lon="-0.3949920">
        <ele>543.3</ele>
        <time>2022-11-06T08:26:48Z</time>
      </trkpt>
      <trkpt lat="39.6976050" lon="-0.3949500">
        <ele>543.4</ele>
        <time>2022-11-06T08:26:49Z</time>
      </trkpt>
      <trkpt lat="39.6976050" lon="-0.3949100">
        <ele>543.6</ele>
        <time>2022-11-06T08:26:50Z</time>
      </trkpt>
      <trkpt lat="39.6976130" lon="-0.3948680">
        <ele>543.7</ele>
        <time>2022-11-06T08:26:51Z</time>
      </trkpt>
      <trkpt lat="39.6976160" lon="-0.3948270">
        <ele>543.8</ele>
        <time>2022-11-06T08:26:52Z</time>
      </trkpt>
      <trkpt lat="39.6976210" lon="-0.3947870">
        <ele>543.9</ele>
        <time>2022-11-06T08:26:53Z</time>
      </trkpt>
      <trkpt lat="39.6976130" lon="-0.3947400">
        <ele>544.1</ele>
        <time>2022-11-06T08:26:54Z</time>
      </trkpt>
      <trkpt lat="39.6976160" lon="-0.3946980">
        <ele>544.2</ele>
        <time>2022-11-06T08:26:55Z</time>
      </trkpt>
      <trkpt lat="39.6976160" lon="-0.3946980">
        <ele>544.2</ele>
        <time>2022-11-06T08:26:56Z</time>
      </trkpt>
      <trkpt lat="39.6976590" lon="-0.3946120">
        <ele>544.5</ele>
        <time>2022-11-06T08:26:57Z</time>
      </trkpt>
      <trkpt lat="39.6976700" lon="-0.3945700">
        <ele>544.7</ele>
        <time>2022-11-06T08:26:58Z</time>
      </trkpt>
      <trkpt lat="39.6976700" lon="-0.3945230">
        <ele>544.8</ele>
        <time>2022-11-06T08:26:59Z</time>
      </trkpt>
      <trkpt lat="39.6976780" lon="-0.3944800">
        <ele>545.0</ele>
        <time>2022-11-06T08:27:00Z</time>
      </trkpt>
      <trkpt lat="39.6976860" lon="-0.3944320">
        <ele>545.2</ele>
        <time>2022-11-06T08:27:01Z</time>
      </trkpt>
      <trkpt lat="39.6976860" lon="-0.3943870">
        <ele>545.4</ele>
        <time>2022-11-06T08:27:02Z</time>
      </trkpt>
      <trkpt lat="39.6976890" lon="-0.3943400">
        <ele>545.5</ele>
        <time>2022-11-06T08:27:03Z</time>
      </trkpt>
      <trkpt lat="39.6976970" lon="-0.3942880">
        <ele>545.7</ele>
        <time>2022-11-06T08:27:04Z</time>
      </trkpt>
      <trkpt lat="39.6976970" lon="-0.3942420">
        <ele>545.9</ele>
        <time>2022-11-06T08:27:05Z</time>
      </trkpt>
      <trkpt lat="39.6976940" lon="-0.3942000">
        <ele>546.1</ele>
        <time>2022-11-06T08:27:06Z</time>
      </trkpt>
      <trkpt lat="39.6976940" lon="-0.3942000">
        <ele>546.1</ele>
        <time>2022-11-06T08:27:07Z</time>
      </trkpt>
      <trkpt lat="39.6976940" lon="-0.3941070">
        <ele>546.5</ele>
        <time>2022-11-06T08:27:08Z</time>
      </trkpt>
      <trkpt lat="39.6976970" lon="-0.3940580">
        <ele>546.8</ele>
        <time>2022-11-06T08:27:09Z</time>
      </trkpt>
      <trkpt lat="39.6976970" lon="-0.3940100">
        <ele>547.0</ele>
        <time>2022-11-06T08:27:10Z</time>
      </trkpt>
      <trkpt lat="39.6976940" lon="-0.3939650">
        <ele>547.2</ele>
        <time>2022-11-06T08:27:11Z</time>
      </trkpt>
      <trkpt lat="39.6976940" lon="-0.3939200">
        <ele>547.5</ele>
        <time>2022-11-06T08:27:12Z</time>
      </trkpt>
      <trkpt lat="39.6976970" lon="-0.3938820">
        <ele>547.7</ele>
        <time>2022-11-06T08:27:13Z</time>
      </trkpt>
      <trkpt lat="39.6976940" lon="-0.3938450">
        <ele>547.9</ele>
        <time>2022-11-06T08:27:14Z</time>
      </trkpt>
      <trkpt lat="39.6976990" lon="-0.3938070">
        <ele>548.1</ele>
        <time>2022-11-06T08:27:15Z</time>
      </trkpt>
      <trkpt lat="39.6976990" lon="-0.3938070">
        <ele>548.1</ele>
        <time>2022-11-06T08:27:16Z</time>
      </trkpt>
      <trkpt lat="39.6976990" lon="-0.3938070">
        <ele>548.1</ele>
        <time>2022-11-06T08:27:17Z</time>
      </trkpt>
      <trkpt lat="39.6977390" lon="-0.3936920">
        <ele>548.3</ele>
        <time>2022-11-06T08:27:18Z</time>
      </trkpt>
      <trkpt lat="39.6977480" lon="-0.3936480">
        <ele>548.4</ele>
        <time>2022-11-06T08:27:19Z</time>
      </trkpt>
      <trkpt lat="39.6977690" lon="-0.3936100">
        <ele>548.4</ele>
        <time>2022-11-06T08:27:20Z</time>
      </trkpt>
      <trkpt lat="39.6977880" lon="-0.3935730">
        <ele>548.5</ele>
        <time>2022-11-06T08:27:21Z</time>
      </trkpt>
      <trkpt lat="39.6978070" lon="-0.3935350">
        <ele>548.6</ele>
        <time>2022-11-06T08:27:22Z</time>
      </trkpt>
      <trkpt lat="39.6978230" lon="-0.3934980">
        <ele>548.6</ele>
        <time>2022-11-06T08:27:23Z</time>
      </trkpt>
      <trkpt lat="39.6978410" lon="-0.3934620">
        <ele>548.7</ele>
        <time>2022-11-06T08:27:24Z</time>
      </trkpt>
      <trkpt lat="39.6978600" lon="-0.3934270">
        <ele>548.7</ele>
        <time>2022-11-06T08:27:25Z</time>
      </trkpt>
      <trkpt lat="39.6978790" lon="-0.3933950">
        <ele>548.8</ele>
        <time>2022-11-06T08:27:26Z</time>
      </trkpt>
      <trkpt lat="39.6978790" lon="-0.3933950">
        <ele>548.8</ele>
        <time>2022-11-06T08:27:27Z</time>
      </trkpt>
      <trkpt lat="39.6978790" lon="-0.3933950">
        <ele>548.8</ele>
        <time>2022-11-06T08:27:28Z</time>
      </trkpt>
      <trkpt lat="39.6979510" lon="-0.3932900">
        <ele>549.0</ele>
        <time>2022-11-06T08:27:29Z</time>
      </trkpt>
      <trkpt lat="39.6979780" lon="-0.3932520">
        <ele>549.0</ele>
        <time>2022-11-06T08:27:30Z</time>
      </trkpt>
      <trkpt lat="39.6980100" lon="-0.3932130">
        <ele>549.1</ele>
        <time>2022-11-06T08:27:31Z</time>
      </trkpt>
      <trkpt lat="39.6980320" lon="-0.3931780">
        <ele>549.1</ele>
        <time>2022-11-06T08:27:32Z</time>
      </trkpt>
      <trkpt lat="39.6980560" lon="-0.3931420">
        <ele>549.2</ele>
        <time>2022-11-06T08:27:33Z</time>
      </trkpt>
      <trkpt lat="39.6980770" lon="-0.3931030">
        <ele>549.2</ele>
        <time>2022-11-06T08:27:34Z</time>
      </trkpt>
      <trkpt lat="39.6980960" lon="-0.3930620">
        <ele>549.3</ele>
        <time>2022-11-06T08:27:35Z</time>
      </trkpt>
      <trkpt lat="39.6981150" lon="-0.3930200">
        <ele>549.4</ele>
        <time>2022-11-06T08:27:36Z</time>
      </trkpt>
      <trkpt lat="39.6981150" lon="-0.3930200">
        <ele>549.4</ele>
        <time>2022-11-06T08:27:37Z</time>
      </trkpt>
      <trkpt lat="39.6981390" lon="-0.3929330">
        <ele>549.7</ele>
        <time>2022-11-06T08:27:38Z</time>
      </trkpt>
      <trkpt lat="39.6981500" lon="-0.3928950">
        <ele>549.8</ele>
        <time>2022-11-06T08:27:39Z</time>
      </trkpt>
      <trkpt lat="39.6981580" lon="-0.3928530">
        <ele>549.9</ele>
        <time>2022-11-06T08:27:40Z</time>
      </trkpt>
      <trkpt lat="39.6981660" lon="-0.3928170">
        <ele>550.0</ele>
        <time>2022-11-06T08:27:41Z</time>
      </trkpt>
      <trkpt lat="39.6981770" lon="-0.3927800">
        <ele>550.1</ele>
        <time>2022-11-06T08:27:42Z</time>
      </trkpt>
      <trkpt lat="39.6981770" lon="-0.3927320">
        <ele>550.3</ele>
        <time>2022-11-06T08:27:43Z</time>
      </trkpt>
      <trkpt lat="39.6981900" lon="-0.3926820">
        <ele>550.4</ele>
        <time>2022-11-06T08:27:44Z</time>
      </trkpt>
      <trkpt lat="39.6981930" lon="-0.3926370">
        <ele>550.5</ele>
        <time>2022-11-06T08:27:45Z</time>
      </trkpt>
      <trkpt lat="39.6981930" lon="-0.3925880">
        <ele>550.7</ele>
        <time>2022-11-06T08:27:46Z</time>
      </trkpt>
      <trkpt lat="39.6981950" lon="-0.3925430">
        <ele>550.8</ele>
        <time>2022-11-06T08:27:47Z</time>
      </trkpt>
      <trkpt lat="39.6981950" lon="-0.3925430">
        <ele>550.8</ele>
        <time>2022-11-06T08:27:48Z</time>
      </trkpt>
      <trkpt lat="39.6982090" lon="-0.3924420">
        <ele>551.1</ele>
        <time>2022-11-06T08:27:49Z</time>
      </trkpt>
      <trkpt lat="39.6982120" lon="-0.3923950">
        <ele>551.3</ele>
        <time>2022-11-06T08:27:50Z</time>
      </trkpt>
      <trkpt lat="39.6982140" lon="-0.3923500">
        <ele>551.4</ele>
        <time>2022-11-06T08:27:51Z</time>
      </trkpt>
      <trkpt lat="39.6982200" lon="-0.3923070">
        <ele>551.6</ele>
        <time>2022-11-06T08:27:52Z</time>
      </trkpt>
      <trkpt lat="39.6982200" lon="-0.3922630">
        <ele>551.7</ele>
        <time>2022-11-06T08:27:53Z</time>
      </trkpt>
      <trkpt lat="39.6982220" lon="-0.3922180">
        <ele>551.9</ele>
        <time>2022-11-06T08:27:54Z</time>
      </trkpt>
      <trkpt lat="39.6982280" lon="-0.3921770">
        <ele>552.0</ele>
        <time>2022-11-06T08:27:55Z</time>
      </trkpt>
      <trkpt lat="39.6982300" lon="-0.3921320">
        <ele>552.2</ele>
        <time>2022-11-06T08:27:56Z</time>
      </trkpt>
      <trkpt lat="39.6982360" lon="-0.3920870">
        <ele>552.4</ele>
        <time>2022-11-06T08:27:57Z</time>
      </trkpt>
      <trkpt lat="39.6982360" lon="-0.3920870">
        <ele>552.4</ele>
        <time>2022-11-06T08:27:58Z</time>
      </trkpt>
      <trkpt lat="39.6982410" lon="-0.3920030">
        <ele>552.6</ele>
        <time>2022-11-06T08:27:59Z</time>
      </trkpt>
      <trkpt lat="39.6982490" lon="-0.3919570">
        <ele>552.8</ele>
        <time>2022-11-06T08:28:00Z</time>
      </trkpt>
      <trkpt lat="39.6982490" lon="-0.3919150">
        <ele>553.0</ele>
        <time>2022-11-06T08:28:01Z</time>
      </trkpt>
      <trkpt lat="39.6982490" lon="-0.3918720">
        <ele>553.1</ele>
        <time>2022-11-06T08:28:02Z</time>
      </trkpt>
      <trkpt lat="39.6982570" lon="-0.3918300">
        <ele>553.3</ele>
        <time>2022-11-06T08:28:03Z</time>
      </trkpt>
      <trkpt lat="39.6982570" lon="-0.3917820">
        <ele>553.4</ele>
        <time>2022-11-06T08:28:04Z</time>
      </trkpt>
      <trkpt lat="39.6982630" lon="-0.3917370">
        <ele>553.6</ele>
        <time>2022-11-06T08:28:05Z</time>
      </trkpt>
      <trkpt lat="39.6982630" lon="-0.3916880">
        <ele>553.8</ele>
        <time>2022-11-06T08:28:06Z</time>
      </trkpt>
      <trkpt lat="39.6982630" lon="-0.3916400">
        <ele>553.9</ele>
        <time>2022-11-06T08:28:07Z</time>
      </trkpt>
      <trkpt lat="39.6982630" lon="-0.3916400">
        <ele>553.9</ele>
        <time>2022-11-06T08:28:08Z</time>
      </trkpt>
      <trkpt lat="39.6982630" lon="-0.3916400">
        <ele>553.9</ele>
        <time>2022-11-06T08:28:09Z</time>
      </trkpt>
      <trkpt lat="39.6982540" lon="-0.3915000">
        <ele>554.4</ele>
        <time>2022-11-06T08:28:10Z</time>
      </trkpt>
      <trkpt lat="39.6982490" lon="-0.3914530">
        <ele>554.6</ele>
        <time>2022-11-06T08:28:11Z</time>
      </trkpt>
      <trkpt lat="39.6982460" lon="-0.3914050">
        <ele>554.8</ele>
        <time>2022-11-06T08:28:12Z</time>
      </trkpt>
      <trkpt lat="39.6982380" lon="-0.3913600">
        <ele>555.0</ele>
        <time>2022-11-06T08:28:13Z</time>
      </trkpt>
      <trkpt lat="39.6982300" lon="-0.3913130">
        <ele>555.1</ele>
        <time>2022-11-06T08:28:14Z</time>
      </trkpt>
      <trkpt lat="39.6982280" lon="-0.3912700">
        <ele>555.3</ele>
        <time>2022-11-06T08:28:15Z</time>
      </trkpt>
      <trkpt lat="39.6982220" lon="-0.3912230">
        <ele>555.5</ele>
        <time>2022-11-06T08:28:16Z</time>
      </trkpt>
      <trkpt lat="39.6982200" lon="-0.3911780">
        <ele>555.7</ele>
        <time>2022-11-06T08:28:17Z</time>
      </trkpt>
      <trkpt lat="39.6982200" lon="-0.3911780">
        <ele>555.7</ele>
        <time>2022-11-06T08:28:18Z</time>
      </trkpt>
      <trkpt lat="39.6982200" lon="-0.3911780">
        <ele>555.7</ele>
        <time>2022-11-06T08:28:19Z</time>
      </trkpt>
      <trkpt lat="39.6981950" lon="-0.3910570">
        <ele>556.3</ele>
        <time>2022-11-06T08:28:20Z</time>
      </trkpt>
      <trkpt lat="39.6981930" lon="-0.3910180">
        <ele>556.6</ele>
        <time>2022-11-06T08:28:21Z</time>
      </trkpt>
      <trkpt lat="39.6981820" lon="-0.3909820">
        <ele>556.8</ele>
        <time>2022-11-06T08:28:22Z</time>
      </trkpt>
      <trkpt lat="39.6981740" lon="-0.3909450">
        <ele>557.0</ele>
        <time>2022-11-06T08:28:23Z</time>
      </trkpt>
      <trkpt lat="39.6981630" lon="-0.3909070">
        <ele>557.2</ele>
        <time>2022-11-06T08:28:24Z</time>
      </trkpt>
      <trkpt lat="39.6981500" lon="-0.3908720">
        <ele>557.4</ele>
        <time>2022-11-06T08:28:25Z</time>
      </trkpt>
      <trkpt lat="39.6981390" lon="-0.3908330">
        <ele>557.7</ele>
        <time>2022-11-06T08:28:26Z</time>
      </trkpt>
      <trkpt lat="39.6981310" lon="-0.3907950">
        <ele>557.9</ele>
        <time>2022-11-06T08:28:27Z</time>
      </trkpt>
      <trkpt lat="39.6981150" lon="-0.3907620">
        <ele>558.2</ele>
        <time>2022-11-06T08:28:28Z</time>
      </trkpt>
      <trkpt lat="39.6981150" lon="-0.3907620">
        <ele>558.2</ele>
        <time>2022-11-06T08:28:29Z</time>
      </trkpt>
      <trkpt lat="39.6980940" lon="-0.3906900">
        <ele>558.7</ele>
        <time>2022-11-06T08:28:30Z</time>
      </trkpt>
      <trkpt lat="39.6980830" lon="-0.3906530">
        <ele>558.9</ele>
        <time>2022-11-06T08:28:31Z</time>
      </trkpt>
      <trkpt lat="39.6980690" lon="-0.3906180">
        <ele>559.2</ele>
        <time>2022-11-06T08:28:32Z</time>
      </trkpt>
      <trkpt lat="39.6980510" lon="-0.3905830">
        <ele>559.4</ele>
        <time>2022-11-06T08:28:33Z</time>
      </trkpt>
      <trkpt lat="39.6980400" lon="-0.3905500">
        <ele>559.7</ele>
        <time>2022-11-06T08:28:34Z</time>
      </trkpt>
      <trkpt lat="39.6980210" lon="-0.3905180">
        <ele>560.0</ele>
        <time>2022-11-06T08:28:35Z</time>
      </trkpt>
      <trkpt lat="39.6980050" lon="-0.3904900">
        <ele>560.2</ele>
        <time>2022-11-06T08:28:36Z</time>
      </trkpt>
      <trkpt lat="39.6979860" lon="-0.3904470">
        <ele>560.5</ele>
        <time>2022-11-06T08:28:37Z</time>
      </trkpt>
      <trkpt lat="39.6979760" lon="-0.3904130">
        <ele>560.8</ele>
        <time>2022-11-06T08:28:38Z</time>
      </trkpt>
      <trkpt lat="39.6979330" lon="-0.3903480">
        <ele>561.4</ele>
        <time>2022-11-06T08:28:39Z</time>
      </trkpt>
      <trkpt lat="39.6979330" lon="-0.3903480">
        <ele>561.4</ele>
        <time>2022-11-06T08:28:40Z</time>
      </trkpt>
      <trkpt lat="39.6979140" lon="-0.3903150">
        <ele>561.6</ele>
        <time>2022-11-06T08:28:41Z</time>
      </trkpt>
      <trkpt lat="39.6978950" lon="-0.3902900">
        <ele>561.9</ele>
        <time>2022-11-06T08:28:42Z</time>
      </trkpt>
      <trkpt lat="39.6978760" lon="-0.3902650">
        <ele>562.1</ele>
        <time>2022-11-06T08:28:43Z</time>
      </trkpt>
      <trkpt lat="39.6978570" lon="-0.3902380">
        <ele>562.4</ele>
        <time>2022-11-06T08:28:44Z</time>
      </trkpt>
      <trkpt lat="39.6978310" lon="-0.3902120">
        <ele>562.7</ele>
        <time>2022-11-06T08:28:45Z</time>
      </trkpt>
      <trkpt lat="39.6978070" lon="-0.3901830">
        <ele>562.9</ele>
        <time>2022-11-06T08:28:46Z</time>
      </trkpt>
      <trkpt lat="39.6977850" lon="-0.3901570">
        <ele>563.2</ele>
        <time>2022-11-06T08:28:47Z</time>
      </trkpt>
      <trkpt lat="39.6977610" lon="-0.3901280">
        <ele>563.5</ele>
        <time>2022-11-06T08:28:48Z</time>
      </trkpt>
      <trkpt lat="39.6977390" lon="-0.3901030">
        <ele>563.8</ele>
        <time>2022-11-06T08:28:49Z</time>
      </trkpt>
      <trkpt lat="39.6977390" lon="-0.3901030">
        <ele>563.8</ele>
        <time>2022-11-06T08:28:50Z</time>
      </trkpt>
      <trkpt lat="39.6976940" lon="-0.3900480">
        <ele>564.3</ele>
        <time>2022-11-06T08:28:51Z</time>
      </trkpt>
      <trkpt lat="39.6976700" lon="-0.3900230">
        <ele>564.6</ele>
        <time>2022-11-06T08:28:52Z</time>
      </trkpt>
      <trkpt lat="39.6976480" lon="-0.3899950">
        <ele>564.9</ele>
        <time>2022-11-06T08:28:53Z</time>
      </trkpt>
      <trkpt lat="39.6976270" lon="-0.3899680">
        <ele>565.2</ele>
        <time>2022-11-06T08:28:54Z</time>
      </trkpt>
      <trkpt lat="39.6976050" lon="-0.3899380">
        <ele>565.4</ele>
        <time>2022-11-06T08:28:55Z</time>
      </trkpt>
      <trkpt lat="39.6975810" lon="-0.3899120">
        <ele>565.7</ele>
        <time>2022-11-06T08:28:56Z</time>
      </trkpt>
      <trkpt lat="39.6975620" lon="-0.3898830">
        <ele>566.0</ele>
        <time>2022-11-06T08:28:57Z</time>
      </trkpt>
      <trkpt lat="39.6975490" lon="-0.3898520">
        <ele>566.0</ele>
        <time>2022-11-06T08:28:58Z</time>
      </trkpt>
      <trkpt lat="39.6975490" lon="-0.3898520">
        <ele>566.0</ele>
        <time>2022-11-06T08:28:59Z</time>
      </trkpt>
      <trkpt lat="39.6975060" lon="-0.3897650">
        <ele>566.0</ele>
        <time>2022-11-06T08:29:00Z</time>
      </trkpt>
      <trkpt lat="39.6975060" lon="-0.3897650">
        <ele>566.0</ele>
        <time>2022-11-06T08:29:01Z</time>
      </trkpt>
      <trkpt lat="39.6974900" lon="-0.3897330">
        <ele>566.1</ele>
        <time>2022-11-06T08:29:02Z</time>
      </trkpt>
      <trkpt lat="39.6974770" lon="-0.3897070">
        <ele>566.2</ele>
        <time>2022-11-06T08:29:03Z</time>
      </trkpt>
      <trkpt lat="39.6974550" lon="-0.3896800">
        <ele>566.5</ele>
        <time>2022-11-06T08:29:04Z</time>
      </trkpt>
      <trkpt lat="39.6974440" lon="-0.3896500">
        <ele>566.7</ele>
        <time>2022-11-06T08:29:05Z</time>
      </trkpt>
      <trkpt lat="39.6974340" lon="-0.3896200">
        <ele>566.9</ele>
        <time>2022-11-06T08:29:06Z</time>
      </trkpt>
      <trkpt lat="39.6974180" lon="-0.3895900">
        <ele>567.1</ele>
        <time>2022-11-06T08:29:07Z</time>
      </trkpt>
      <trkpt lat="39.6974070" lon="-0.3895600">
        <ele>567.3</ele>
        <time>2022-11-06T08:29:08Z</time>
      </trkpt>
      <trkpt lat="39.6973910" lon="-0.3895300">
        <ele>567.5</ele>
        <time>2022-11-06T08:29:09Z</time>
      </trkpt>
      <trkpt lat="39.6973910" lon="-0.3895300">
        <ele>567.5</ele>
        <time>2022-11-06T08:29:10Z</time>
      </trkpt>
      <trkpt lat="39.6973910" lon="-0.3895300">
        <ele>567.5</ele>
        <time>2022-11-06T08:29:11Z</time>
      </trkpt>
      <trkpt lat="39.6973530" lon="-0.3894400">
        <ele>568.1</ele>
        <time>2022-11-06T08:29:12Z</time>
      </trkpt>
      <trkpt lat="39.6973430" lon="-0.3894080">
        <ele>568.3</ele>
        <time>2022-11-06T08:29:13Z</time>
      </trkpt>
      <trkpt lat="39.6973260" lon="-0.3893780">
        <ele>568.5</ele>
        <time>2022-11-06T08:29:14Z</time>
      </trkpt>
      <trkpt lat="39.6973100" lon="-0.3893470">
        <ele>568.8</ele>
        <time>2022-11-06T08:29:15Z</time>
      </trkpt>
      <trkpt lat="39.6973000" lon="-0.3893130">
        <ele>569.0</ele>
        <time>2022-11-06T08:29:16Z</time>
      </trkpt>
      <trkpt lat="39.6972840" lon="-0.3892830">
        <ele>569.2</ele>
        <time>2022-11-06T08:29:17Z</time>
      </trkpt>
      <trkpt lat="39.6972730" lon="-0.3892520">
        <ele>569.4</ele>
        <time>2022-11-06T08:29:18Z</time>
      </trkpt>
      <trkpt lat="39.6972570" lon="-0.3892230">
        <ele>569.6</ele>
        <time>2022-11-06T08:29:19Z</time>
      </trkpt>
      <trkpt lat="39.6972330" lon="-0.3891650">
        <ele>570.0</ele>
        <time>2022-11-06T08:29:20Z</time>
      </trkpt>
      <trkpt lat="39.6972190" lon="-0.3891350">
        <ele>570.3</ele>
        <time>2022-11-06T08:29:21Z</time>
      </trkpt>
      <trkpt lat="39.6972190" lon="-0.3891350">
        <ele>570.3</ele>
        <time>2022-11-06T08:29:22Z</time>
      </trkpt>
      <trkpt lat="39.6972060" lon="-0.3891070">
        <ele>570.5</ele>
        <time>2022-11-06T08:29:23Z</time>
      </trkpt>
      <trkpt lat="39.6971920" lon="-0.3890780">
        <ele>570.7</ele>
        <time>2022-11-06T08:29:24Z</time>
      </trkpt>
      <trkpt lat="39.6971820" lon="-0.3890480">
        <ele>570.9</ele>
        <time>2022-11-06T08:29:25Z</time>
      </trkpt>
      <trkpt lat="39.6971650" lon="-0.3890200">
        <ele>571.1</ele>
        <time>2022-11-06T08:29:26Z</time>
      </trkpt>
      <trkpt lat="39.6971520" lon="-0.3889920">
        <ele>571.3</ele>
        <time>2022-11-06T08:29:27Z</time>
      </trkpt>
      <trkpt lat="39.6971360" lon="-0.3889630">
        <ele>571.6</ele>
        <time>2022-11-06T08:29:28Z</time>
      </trkpt>
      <trkpt lat="39.6971250" lon="-0.3889330">
        <ele>571.8</ele>
        <time>2022-11-06T08:29:29Z</time>
      </trkpt>
      <trkpt lat="39.6971120" lon="-0.3889050">
        <ele>572.0</ele>
        <time>2022-11-06T08:29:30Z</time>
      </trkpt>
      <trkpt lat="39.6970850" lon="-0.3888430">
        <ele>572.4</ele>
        <time>2022-11-06T08:29:31Z</time>
      </trkpt>
      <trkpt lat="39.6970850" lon="-0.3888430">
        <ele>572.4</ele>
        <time>2022-11-06T08:29:32Z</time>
      </trkpt>
      <trkpt lat="39.6970800" lon="-0.3888130">
        <ele>572.6</ele>
        <time>2022-11-06T08:29:33Z</time>
      </trkpt>
      <trkpt lat="39.6970660" lon="-0.3887830">
        <ele>572.9</ele>
        <time>2022-11-06T08:29:34Z</time>
      </trkpt>
      <trkpt lat="39.6970560" lon="-0.3887520">
        <ele>573.1</ele>
        <time>2022-11-06T08:29:35Z</time>
      </trkpt>
      <trkpt lat="39.6970390" lon="-0.3887200">
        <ele>573.3</ele>
        <time>2022-11-06T08:29:36Z</time>
      </trkpt>
      <trkpt lat="39.6970290" lon="-0.3886900">
        <ele>573.6</ele>
        <time>2022-11-06T08:29:37Z</time>
      </trkpt>
      <trkpt lat="39.6970210" lon="-0.3886600">
        <ele>573.8</ele>
        <time>2022-11-06T08:29:38Z</time>
      </trkpt>
      <trkpt lat="39.6970100" lon="-0.3886300">
        <ele>574.0</ele>
        <time>2022-11-06T08:29:39Z</time>
      </trkpt>
      <trkpt lat="39.6970100" lon="-0.3886300">
        <ele>574.0</ele>
        <time>2022-11-06T08:29:40Z</time>
      </trkpt>
      <trkpt lat="39.6969910" lon="-0.3885370">
        <ele>574.7</ele>
        <time>2022-11-06T08:29:41Z</time>
      </trkpt>
      <trkpt lat="39.6969880" lon="-0.3885030">
        <ele>574.9</ele>
        <time>2022-11-06T08:29:42Z</time>
      </trkpt>
      <trkpt lat="39.6969880" lon="-0.3885030">
        <ele>574.9</ele>
        <time>2022-11-06T08:29:43Z</time>
      </trkpt>
      <trkpt lat="39.6969830" lon="-0.3884720">
        <ele>575.1</ele>
        <time>2022-11-06T08:29:44Z</time>
      </trkpt>
      <trkpt lat="39.6969830" lon="-0.3884400">
        <ele>575.3</ele>
        <time>2022-11-06T08:29:45Z</time>
      </trkpt>
      <trkpt lat="39.6969800" lon="-0.3884050">
        <ele>575.6</ele>
        <time>2022-11-06T08:29:46Z</time>
      </trkpt>
      <trkpt lat="39.6969800" lon="-0.3883720">
        <ele>575.8</ele>
        <time>2022-11-06T08:29:47Z</time>
      </trkpt>
      <trkpt lat="39.6969750" lon="-0.3883380">
        <ele>576.0</ele>
        <time>2022-11-06T08:29:48Z</time>
      </trkpt>
      <trkpt lat="39.6969750" lon="-0.3883070">
        <ele>576.2</ele>
        <time>2022-11-06T08:29:49Z</time>
      </trkpt>
      <trkpt lat="39.6969750" lon="-0.3882730">
        <ele>576.4</ele>
        <time>2022-11-06T08:29:50Z</time>
      </trkpt>
      <trkpt lat="39.6969750" lon="-0.3882730">
        <ele>576.4</ele>
        <time>2022-11-06T08:29:51Z</time>
      </trkpt>
      <trkpt lat="39.6969670" lon="-0.3881730">
        <ele>577.1</ele>
        <time>2022-11-06T08:29:52Z</time>
      </trkpt>
      <trkpt lat="39.6969670" lon="-0.3881730">
        <ele>577.1</ele>
        <time>2022-11-06T08:29:53Z</time>
      </trkpt>
      <trkpt lat="39.6969670" lon="-0.3881380">
        <ele>577.4</ele>
        <time>2022-11-06T08:29:54Z</time>
      </trkpt>
      <trkpt lat="39.6969620" lon="-0.3881070">
        <ele>577.6</ele>
        <time>2022-11-06T08:29:55Z</time>
      </trkpt>
      <trkpt lat="39.6969560" lon="-0.3880770">
        <ele>577.8</ele>
        <time>2022-11-06T08:29:56Z</time>
      </trkpt>
      <trkpt lat="39.6969540" lon="-0.3880480">
        <ele>578.0</ele>
        <time>2022-11-06T08:29:57Z</time>
      </trkpt>
      <trkpt lat="39.6969460" lon="-0.3880150">
        <ele>578.2</ele>
        <time>2022-11-06T08:29:58Z</time>
      </trkpt>
      <trkpt lat="39.6969380" lon="-0.3879870">
        <ele>578.4</ele>
        <time>2022-11-06T08:29:59Z</time>
      </trkpt>
      <trkpt lat="39.6969290" lon="-0.3879500">
        <ele>578.7</ele>
        <time>2022-11-06T08:30:00Z</time>
      </trkpt>
      <trkpt lat="39.6969130" lon="-0.3878920">
        <ele>579.1</ele>
        <time>2022-11-06T08:30:01Z</time>
      </trkpt>
      <trkpt lat="39.6969110" lon="-0.3878650">
        <ele>579.3</ele>
        <time>2022-11-06T08:30:02Z</time>
      </trkpt>
      <trkpt lat="39.6969000" lon="-0.3878380">
        <ele>579.5</ele>
        <time>2022-11-06T08:30:03Z</time>
      </trkpt>
      <trkpt lat="39.6969000" lon="-0.3878380">
        <ele>579.5</ele>
        <time>2022-11-06T08:30:04Z</time>
      </trkpt>
      <trkpt lat="39.6968840" lon="-0.3878100">
        <ele>579.8</ele>
        <time>2022-11-06T08:30:05Z</time>
      </trkpt>
      <trkpt lat="39.6968730" lon="-0.3877800">
        <ele>580.0</ele>
        <time>2022-11-06T08:30:06Z</time>
      </trkpt>
      <trkpt lat="39.6968650" lon="-0.3877500">
        <ele>580.2</ele>
        <time>2022-11-06T08:30:07Z</time>
      </trkpt>
      <trkpt lat="39.6968490" lon="-0.3877180">
        <ele>580.4</ele>
        <time>2022-11-06T08:30:08Z</time>
      </trkpt>
      <trkpt lat="39.6968410" lon="-0.3876850">
        <ele>580.7</ele>
        <time>2022-11-06T08:30:09Z</time>
      </trkpt>
      <trkpt lat="39.6968300" lon="-0.3876570">
        <ele>580.9</ele>
        <time>2022-11-06T08:30:10Z</time>
      </trkpt>
      <trkpt lat="39.6968190" lon="-0.3876230">
        <ele>581.1</ele>
        <time>2022-11-06T08:30:11Z</time>
      </trkpt>
      <trkpt lat="39.6967950" lon="-0.3875650">
        <ele>581.6</ele>
        <time>2022-11-06T08:30:12Z</time>
      </trkpt>
      <trkpt lat="39.6967850" lon="-0.3875380">
        <ele>581.8</ele>
        <time>2022-11-06T08:30:13Z</time>
      </trkpt>
      <trkpt lat="39.6967850" lon="-0.3875380">
        <ele>581.8</ele>
        <time>2022-11-06T08:30:14Z</time>
      </trkpt>
      <trkpt lat="39.6967740" lon="-0.3875100">
        <ele>582.0</ele>
        <time>2022-11-06T08:30:15Z</time>
      </trkpt>
      <trkpt lat="39.6967660" lon="-0.3874820">
        <ele>582.2</ele>
        <time>2022-11-06T08:30:16Z</time>
      </trkpt>
      <trkpt lat="39.6967550" lon="-0.3874520">
        <ele>582.4</ele>
        <time>2022-11-06T08:30:17Z</time>
      </trkpt>
      <trkpt lat="39.6967390" lon="-0.3874200">
        <ele>582.6</ele>
        <time>2022-11-06T08:30:18Z</time>
      </trkpt>
      <trkpt lat="39.6967310" lon="-0.3873900">
        <ele>582.8</ele>
        <time>2022-11-06T08:30:19Z</time>
      </trkpt>
      <trkpt lat="39.6967200" lon="-0.3873580">
        <ele>583.0</ele>
        <time>2022-11-06T08:30:20Z</time>
      </trkpt>
      <trkpt lat="39.6967120" lon="-0.3873300">
        <ele>583.2</ele>
        <time>2022-11-06T08:30:21Z</time>
      </trkpt>
      <trkpt lat="39.6966850" lon="-0.3872650">
        <ele>583.7</ele>
        <time>2022-11-06T08:30:22Z</time>
      </trkpt>
      <trkpt lat="39.6966770" lon="-0.3872370">
        <ele>583.9</ele>
        <time>2022-11-06T08:30:23Z</time>
      </trkpt>
      <trkpt lat="39.6966640" lon="-0.3872080">
        <ele>584.1</ele>
        <time>2022-11-06T08:30:24Z</time>
      </trkpt>
      <trkpt lat="39.6966640" lon="-0.3872080">
        <ele>584.1</ele>
        <time>2022-11-06T08:30:25Z</time>
      </trkpt>
      <trkpt lat="39.6966510" lon="-0.3871800">
        <ele>584.3</ele>
        <time>2022-11-06T08:30:26Z</time>
      </trkpt>
      <trkpt lat="39.6966370" lon="-0.3871500">
        <ele>584.5</ele>
        <time>2022-11-06T08:30:27Z</time>
      </trkpt>
      <trkpt lat="39.6966320" lon="-0.3871270">
        <ele>584.6</ele>
        <time>2022-11-06T08:30:28Z</time>
      </trkpt>
      <trkpt lat="39.6966210" lon="-0.3870950">
        <ele>584.8</ele>
        <time>2022-11-06T08:30:29Z</time>
      </trkpt>
      <trkpt lat="39.6966050" lon="-0.3870630">
        <ele>585.1</ele>
        <time>2022-11-06T08:30:30Z</time>
      </trkpt>
      <trkpt lat="39.6965940" lon="-0.3870350">
        <ele>585.3</ele>
        <time>2022-11-06T08:30:31Z</time>
      </trkpt>
      <trkpt lat="39.6965940" lon="-0.3870350">
        <ele>585.3</ele>
        <time>2022-11-06T08:30:32Z</time>
      </trkpt>
      <trkpt lat="39.6965700" lon="-0.3869400">
        <ele>585.8</ele>
        <time>2022-11-06T08:30:33Z</time>
      </trkpt>
      <trkpt lat="39.6965650" lon="-0.3869080">
        <ele>586.0</ele>
        <time>2022-11-06T08:30:34Z</time>
      </trkpt>
      <trkpt lat="39.6965650" lon="-0.3869080">
        <ele>586.0</ele>
        <time>2022-11-06T08:30:35Z</time>
      </trkpt>
      <trkpt lat="39.6965490" lon="-0.3868820">
        <ele>586.2</ele>
        <time>2022-11-06T08:30:36Z</time>
      </trkpt>
      <trkpt lat="39.6965410" lon="-0.3868550">
        <ele>586.4</ele>
        <time>2022-11-06T08:30:37Z</time>
      </trkpt>
      <trkpt lat="39.6965320" lon="-0.3868250">
        <ele>586.5</ele>
        <time>2022-11-06T08:30:38Z</time>
      </trkpt>
      <trkpt lat="39.6965240" lon="-0.3867970">
        <ele>586.7</ele>
        <time>2022-11-06T08:30:39Z</time>
      </trkpt>
      <trkpt lat="39.6965220" lon="-0.3867650">
        <ele>586.8</ele>
        <time>2022-11-06T08:30:40Z</time>
      </trkpt>
      <trkpt lat="39.6965140" lon="-0.3867330">
        <ele>586.9</ele>
        <time>2022-11-06T08:30:41Z</time>
      </trkpt>
      <trkpt lat="39.6965140" lon="-0.3867330">
        <ele>586.9</ele>
        <time>2022-11-06T08:30:42Z</time>
      </trkpt>
      <trkpt lat="39.6965030" lon="-0.3866200">
        <ele>587.2</ele>
        <time>2022-11-06T08:30:43Z</time>
      </trkpt>
      <trkpt lat="39.6964980" lon="-0.3865770">
        <ele>587.3</ele>
        <time>2022-11-06T08:30:44Z</time>
      </trkpt>
      <trkpt lat="39.6965060" lon="-0.3865370">
        <ele>587.3</ele>
        <time>2022-11-06T08:30:45Z</time>
      </trkpt>
      <trkpt lat="39.6965060" lon="-0.3865370">
        <ele>587.3</ele>
        <time>2022-11-06T08:30:46Z</time>
      </trkpt>
      <trkpt lat="39.6965140" lon="-0.3864970">
        <ele>587.3</ele>
        <time>2022-11-06T08:30:47Z</time>
      </trkpt>
      <trkpt lat="39.6965220" lon="-0.3864550">
        <ele>587.2</ele>
        <time>2022-11-06T08:30:48Z</time>
      </trkpt>
      <trkpt lat="39.6965320" lon="-0.3864100">
        <ele>587.1</ele>
        <time>2022-11-06T08:30:49Z</time>
      </trkpt>
      <trkpt lat="39.6965410" lon="-0.3863670">
        <ele>587.0</ele>
        <time>2022-11-06T08:30:50Z</time>
      </trkpt>
      <trkpt lat="39.6965570" lon="-0.3863180">
        <ele>586.9</ele>
        <time>2022-11-06T08:30:51Z</time>
      </trkpt>
      <trkpt lat="39.6965700" lon="-0.3862650">
        <ele>586.7</ele>
        <time>2022-11-06T08:30:52Z</time>
      </trkpt>
      <trkpt lat="39.6965700" lon="-0.3862650">
        <ele>586.7</ele>
        <time>2022-11-06T08:30:53Z</time>
      </trkpt>
      <trkpt lat="39.6966180" lon="-0.3860830">
        <ele>586.0</ele>
        <time>2022-11-06T08:30:54Z</time>
      </trkpt>
      <trkpt lat="39.6966370" lon="-0.3860120">
        <ele>585.6</ele>
        <time>2022-11-06T08:30:55Z</time>
      </trkpt>
      <trkpt lat="39.6966370" lon="-0.3860120">
        <ele>585.6</ele>
        <time>2022-11-06T08:30:56Z</time>
      </trkpt>
      <trkpt lat="39.6966480" lon="-0.3859400">
        <ele>585.3</ele>
        <time>2022-11-06T08:30:57Z</time>
      </trkpt>
      <trkpt lat="39.6966640" lon="-0.3858680">
        <ele>585.0</ele>
        <time>2022-11-06T08:30:58Z</time>
      </trkpt>
      <trkpt lat="39.6966770" lon="-0.3857950">
        <ele>584.6</ele>
        <time>2022-11-06T08:30:59Z</time>
      </trkpt>
      <trkpt lat="39.6966910" lon="-0.3857200">
        <ele>584.2</ele>
        <time>2022-11-06T08:31:00Z</time>
      </trkpt>
      <trkpt lat="39.6967010" lon="-0.3856400">
        <ele>583.8</ele>
        <time>2022-11-06T08:31:01Z</time>
      </trkpt>
      <trkpt lat="39.6967040" lon="-0.3855580">
        <ele>583.3</ele>
        <time>2022-11-06T08:31:02Z</time>
      </trkpt>
      <trkpt lat="39.6966930" lon="-0.3853850">
        <ele>582.3</ele>
        <time>2022-11-06T08:31:03Z</time>
      </trkpt>
      <trkpt lat="39.6966850" lon="-0.3852970">
        <ele>581.9</ele>
        <time>2022-11-06T08:31:04Z</time>
      </trkpt>
      <trkpt lat="39.6966750" lon="-0.3852120">
        <ele>581.4</ele>
        <time>2022-11-06T08:31:05Z</time>
      </trkpt>
      <trkpt lat="39.6966640" lon="-0.3851320">
        <ele>581.0</ele>
        <time>2022-11-06T08:31:06Z</time>
      </trkpt>
      <trkpt lat="39.6966640" lon="-0.3851320">
        <ele>581.0</ele>
        <time>2022-11-06T08:31:07Z</time>
      </trkpt>
      <trkpt lat="39.6966510" lon="-0.3850550">
        <ele>580.7</ele>
        <time>2022-11-06T08:31:08Z</time>
      </trkpt>
      <trkpt lat="39.6966450" lon="-0.3849870">
        <ele>580.4</ele>
        <time>2022-11-06T08:31:09Z</time>
      </trkpt>
      <trkpt lat="39.6966320" lon="-0.3849250">
        <ele>580.1</ele>
        <time>2022-11-06T08:31:10Z</time>
      </trkpt>
      <trkpt lat="39.6966240" lon="-0.3848680">
        <ele>579.9</ele>
        <time>2022-11-06T08:31:11Z</time>
      </trkpt>
      <trkpt lat="39.6965970" lon="-0.3848250">
        <ele>579.6</ele>
        <time>2022-11-06T08:31:12Z</time>
      </trkpt>
      <trkpt lat="39.6965670" lon="-0.3848000">
        <ele>579.0</ele>
        <time>2022-11-06T08:31:13Z</time>
      </trkpt>
      <trkpt lat="39.6965220" lon="-0.3848300">
        <ele>578.7</ele>
        <time>2022-11-06T08:31:14Z</time>
      </trkpt>
      <trkpt lat="39.6965140" lon="-0.3848580">
        <ele>578.6</ele>
        <time>2022-11-06T08:31:15Z</time>
      </trkpt>
      <trkpt lat="39.6965220" lon="-0.3848900">
        <ele>578.5</ele>
        <time>2022-11-06T08:31:16Z</time>
      </trkpt>
      <trkpt lat="39.6965220" lon="-0.3848900">
        <ele>578.5</ele>
        <time>2022-11-06T08:31:17Z</time>
      </trkpt>
      <trkpt lat="39.6965300" lon="-0.3849280">
        <ele>578.3</ele>
        <time>2022-11-06T08:31:18Z</time>
      </trkpt>
      <trkpt lat="39.6965380" lon="-0.3849680">
        <ele>578.2</ele>
        <time>2022-11-06T08:31:19Z</time>
      </trkpt>
      <trkpt lat="39.6965460" lon="-0.3850130">
        <ele>578.0</ele>
        <time>2022-11-06T08:31:20Z</time>
      </trkpt>
      <trkpt lat="39.6965510" lon="-0.3850670">
        <ele>577.8</ele>
        <time>2022-11-06T08:31:21Z</time>
      </trkpt>
      <trkpt lat="39.6965570" lon="-0.3851100">
        <ele>577.6</ele>
        <time>2022-11-06T08:31:22Z</time>
      </trkpt>
      <trkpt lat="39.6965570" lon="-0.3851100">
        <ele>577.6</ele>
        <time>2022-11-06T08:31:23Z</time>
      </trkpt>
      <trkpt lat="39.6965510" lon="-0.3852730">
        <ele>576.7</ele>
        <time>2022-11-06T08:31:24Z</time>
      </trkpt>
      <trkpt lat="39.6965490" lon="-0.3853270">
        <ele>576.3</ele>
        <time>2022-11-06T08:31:25Z</time>
      </trkpt>
      <trkpt lat="39.6965300" lon="-0.3853730">
        <ele>575.9</ele>
        <time>2022-11-06T08:31:26Z</time>
      </trkpt>
      <trkpt lat="39.6964950" lon="-0.3854100">
        <ele>575.3</ele>
        <time>2022-11-06T08:31:27Z</time>
      </trkpt>
      <trkpt lat="39.6964950" lon="-0.3854100">
        <ele>575.3</ele>
        <time>2022-11-06T08:31:28Z</time>
      </trkpt>
      <trkpt lat="39.6964490" lon="-0.3854350">
        <ele>574.7</ele>
        <time>2022-11-06T08:31:29Z</time>
      </trkpt>
      <trkpt lat="39.6963880" lon="-0.3854530">
        <ele>573.8</ele>
        <time>2022-11-06T08:31:30Z</time>
      </trkpt>
      <trkpt lat="39.6963230" lon="-0.3854670">
        <ele>572.8</ele>
        <time>2022-11-06T08:31:31Z</time>
      </trkpt>
      <trkpt lat="39.6962540" lon="-0.3854800">
        <ele>571.6</ele>
        <time>2022-11-06T08:31:32Z</time>
      </trkpt>
      <trkpt lat="39.6961780" lon="-0.3854780">
        <ele>570.4</ele>
        <time>2022-11-06T08:31:33Z</time>
      </trkpt>
      <trkpt lat="39.6961780" lon="-0.3854780">
        <ele>570.4</ele>
        <time>2022-11-06T08:31:34Z</time>
      </trkpt>
      <trkpt lat="39.6959080" lon="-0.3854220">
        <ele>566.1</ele>
        <time>2022-11-06T08:31:35Z</time>
      </trkpt>
      <trkpt lat="39.6958160" lon="-0.3853850">
        <ele>564.7</ele>
        <time>2022-11-06T08:31:36Z</time>
      </trkpt>
      <trkpt lat="39.6957200" lon="-0.3853330">
        <ele>563.3</ele>
        <time>2022-11-06T08:31:37Z</time>
      </trkpt>
      <trkpt lat="39.6957200" lon="-0.3853330">
        <ele>563.3</ele>
        <time>2022-11-06T08:31:38Z</time>
      </trkpt>
      <trkpt lat="39.6956210" lon="-0.3852780">
        <ele>562.1</ele>
        <time>2022-11-06T08:31:39Z</time>
      </trkpt>
      <trkpt lat="39.6955190" lon="-0.3852400">
        <ele>561.2</ele>
        <time>2022-11-06T08:31:40Z</time>
      </trkpt>
      <trkpt lat="39.6954110" lon="-0.3852120">
        <ele>560.5</ele>
        <time>2022-11-06T08:31:41Z</time>
      </trkpt>
      <trkpt lat="39.6953040" lon="-0.3851920">
        <ele>560.0</ele>
        <time>2022-11-06T08:31:42Z</time>
      </trkpt>
      <trkpt lat="39.6952020" lon="-0.3851800">
        <ele>559.8</ele>
        <time>2022-11-06T08:31:43Z</time>
      </trkpt>
      <trkpt lat="39.6950010" lon="-0.3851800">
        <ele>559.6</ele>
        <time>2022-11-06T08:31:44Z</time>
      </trkpt>
      <trkpt lat="39.6949070" lon="-0.3852050">
        <ele>559.6</ele>
        <time>2022-11-06T08:31:45Z</time>
      </trkpt>
      <trkpt lat="39.6948320" lon="-0.3852450">
        <ele>559.7</ele>
        <time>2022-11-06T08:31:46Z</time>
      </trkpt>
      <trkpt lat="39.6947600" lon="-0.3852900">
        <ele>559.7</ele>
        <time>2022-11-06T08:31:47Z</time>
      </trkpt>
      <trkpt lat="39.6946980" lon="-0.3853370">
        <ele>559.6</ele>
        <time>2022-11-06T08:31:48Z</time>
      </trkpt>
      <trkpt lat="39.6946980" lon="-0.3853370">
        <ele>559.6</ele>
        <time>2022-11-06T08:31:49Z</time>
      </trkpt>
      <trkpt lat="39.6946440" lon="-0.3853920">
        <ele>559.3</ele>
        <time>2022-11-06T08:31:50Z</time>
      </trkpt>
      <trkpt lat="39.6946070" lon="-0.3854630">
        <ele>558.8</ele>
        <time>2022-11-06T08:31:51Z</time>
      </trkpt>
      <trkpt lat="39.6945690" lon="-0.3855400">
        <ele>558.1</ele>
        <time>2022-11-06T08:31:52Z</time>
      </trkpt>
      <trkpt lat="39.6945530" lon="-0.3856270">
        <ele>557.3</ele>
        <time>2022-11-06T08:31:53Z</time>
      </trkpt>
      <trkpt lat="39.6945420" lon="-0.3857250">
        <ele>556.5</ele>
        <time>2022-11-06T08:31:54Z</time>
      </trkpt>
      <trkpt lat="39.6945180" lon="-0.3859400">
        <ele>554.8</ele>
        <time>2022-11-06T08:31:55Z</time>
      </trkpt>
      <trkpt lat="39.6945070" lon="-0.3860630">
        <ele>553.9</ele>
        <time>2022-11-06T08:31:56Z</time>
      </trkpt>
      <trkpt lat="39.6944990" lon="-0.3861830">
        <ele>553.0</ele>
        <time>2022-11-06T08:31:57Z</time>
      </trkpt>
      <trkpt lat="39.6944990" lon="-0.3863150">
        <ele>552.3</ele>
        <time>2022-11-06T08:31:58Z</time>
      </trkpt>
      <trkpt lat="39.6944990" lon="-0.3863150">
        <ele>552.3</ele>
        <time>2022-11-06T08:31:59Z</time>
      </trkpt>
      <trkpt lat="39.6944990" lon="-0.3864470">
        <ele>551.6</ele>
        <time>2022-11-06T08:32:00Z</time>
      </trkpt>
      <trkpt lat="39.6944970" lon="-0.3865850">
        <ele>550.9</ele>
        <time>2022-11-06T08:32:01Z</time>
      </trkpt>
      <trkpt lat="39.6944970" lon="-0.3867200">
        <ele>550.5</ele>
        <time>2022-11-06T08:32:02Z</time>
      </trkpt>
      <trkpt lat="39.6944910" lon="-0.3868530">
        <ele>550.1</ele>
        <time>2022-11-06T08:32:03Z</time>
      </trkpt>
      <trkpt lat="39.6944910" lon="-0.3868530">
        <ele>550.1</ele>
        <time>2022-11-06T08:32:04Z</time>
      </trkpt>
      <trkpt lat="39.6944730" lon="-0.3871970">
        <ele>549.1</ele>
        <time>2022-11-06T08:32:05Z</time>
      </trkpt>
      <trkpt lat="39.6944350" lon="-0.3872820">
        <ele>548.8</ele>
        <time>2022-11-06T08:32:06Z</time>
      </trkpt>
      <trkpt lat="39.6943810" lon="-0.3873500">
        <ele>548.1</ele>
        <time>2022-11-06T08:32:07Z</time>
      </trkpt>
      <trkpt lat="39.6943250" lon="-0.3874230">
        <ele>547.5</ele>
        <time>2022-11-06T08:32:08Z</time>
      </trkpt>
      <trkpt lat="39.6942530" lon="-0.3874930">
        <ele>546.8</ele>
        <time>2022-11-06T08:32:09Z</time>
      </trkpt>
      <trkpt lat="39.6942530" lon="-0.3874930">
        <ele>546.8</ele>
        <time>2022-11-06T08:32:10Z</time>
      </trkpt>
      <trkpt lat="39.6941750" lon="-0.3875700">
        <ele>546.1</ele>
        <time>2022-11-06T08:32:11Z</time>
      </trkpt>
      <trkpt lat="39.6941000" lon="-0.3876400">
        <ele>545.5</ele>
        <time>2022-11-06T08:32:12Z</time>
      </trkpt>
      <trkpt lat="39.6940190" lon="-0.3877100">
        <ele>544.9</ele>
        <time>2022-11-06T08:32:13Z</time>
      </trkpt>
      <trkpt lat="39.6939440" lon="-0.3877800">
        <ele>544.4</ele>
        <time>2022-11-06T08:32:14Z</time>
      </trkpt>
      <trkpt lat="39.6939440" lon="-0.3877800">
        <ele>544.4</ele>
        <time>2022-11-06T08:32:15Z</time>
      </trkpt>
      <trkpt lat="39.6936920" lon="-0.3879570">
        <ele>543.5</ele>
        <time>2022-11-06T08:32:16Z</time>
      </trkpt>
      <trkpt lat="39.6936040" lon="-0.3880020">
        <ele>543.3</ele>
        <time>2022-11-06T08:32:17Z</time>
      </trkpt>
      <trkpt lat="39.6935200" lon="-0.3880370">
        <ele>543.1</ele>
        <time>2022-11-06T08:32:18Z</time>
      </trkpt>
      <trkpt lat="39.6934320" lon="-0.3880500">
        <ele>543.0</ele>
        <time>2022-11-06T08:32:19Z</time>
      </trkpt>
      <trkpt lat="39.6934320" lon="-0.3880500">
        <ele>543.0</ele>
        <time>2022-11-06T08:32:20Z</time>
      </trkpt>
      <trkpt lat="39.6933590" lon="-0.3880450">
        <ele>542.8</ele>
        <time>2022-11-06T08:32:21Z</time>
      </trkpt>
      <trkpt lat="39.6933030" lon="-0.3880030">
        <ele>542.7</ele>
        <time>2022-11-06T08:32:22Z</time>
      </trkpt>
      <trkpt lat="39.6932360" lon="-0.3879350">
        <ele>542.6</ele>
        <time>2022-11-06T08:32:23Z</time>
      </trkpt>
      <trkpt lat="39.6931800" lon="-0.3878830">
        <ele>542.5</ele>
        <time>2022-11-06T08:32:24Z</time>
      </trkpt>
      <trkpt lat="39.6930620" lon="-0.3878620">
        <ele>542.3</ele>
        <time>2022-11-06T08:32:25Z</time>
      </trkpt>
      <trkpt lat="39.6930190" lon="-0.3878900">
        <ele>542.3</ele>
        <time>2022-11-06T08:32:26Z</time>
      </trkpt>
      <trkpt lat="39.6929650" lon="-0.3879200">
        <ele>542.1</ele>
        <time>2022-11-06T08:32:27Z</time>
      </trkpt>
      <trkpt lat="39.6929140" lon="-0.3879550">
        <ele>541.9</ele>
        <time>2022-11-06T08:32:28Z</time>
      </trkpt>
      <trkpt lat="39.6928550" lon="-0.3879850">
        <ele>541.7</ele>
        <time>2022-11-06T08:32:29Z</time>
      </trkpt>
      <trkpt lat="39.6927880" lon="-0.3880080">
        <ele>541.4</ele>
        <time>2022-11-06T08:32:30Z</time>
      </trkpt>
      <trkpt lat="39.6927880" lon="-0.3880080">
        <ele>541.4</ele>
        <time>2022-11-06T08:32:31Z</time>
      </trkpt>
      <trkpt lat="39.6927160" lon="-0.3880370">
        <ele>541.2</ele>
        <time>2022-11-06T08:32:32Z</time>
      </trkpt>
      <trkpt lat="39.6926380" lon="-0.3880670">
        <ele>540.9</ele>
        <time>2022-11-06T08:32:33Z</time>
      </trkpt>
      <trkpt lat="39.6925710" lon="-0.3880950">
        <ele>540.6</ele>
        <time>2022-11-06T08:32:34Z</time>
      </trkpt>
      <trkpt lat="39.6924930" lon="-0.3881170">
        <ele>540.3</ele>
        <time>2022-11-06T08:32:35Z</time>
      </trkpt>
      <trkpt lat="39.6923590" lon="-0.3881850">
        <ele>539.8</ele>
        <time>2022-11-06T08:32:36Z</time>
      </trkpt>
      <trkpt lat="39.6923000" lon="-0.3882320">
        <ele>539.5</ele>
        <time>2022-11-06T08:32:37Z</time>
      </trkpt>
      <trkpt lat="39.6922410" lon="-0.3882850">
        <ele>539.3</ele>
        <time>2022-11-06T08:32:38Z</time>
      </trkpt>
      <trkpt lat="39.6921870" lon="-0.3883430">
        <ele>539.1</ele>
        <time>2022-11-06T08:32:39Z</time>
      </trkpt>
      <trkpt lat="39.6921280" lon="-0.3884050">
        <ele>538.8</ele>
        <time>2022-11-06T08:32:40Z</time>
      </trkpt>
      <trkpt lat="39.6921280" lon="-0.3884050">
        <ele>538.8</ele>
        <time>2022-11-06T08:32:41Z</time>
      </trkpt>
      <trkpt lat="39.6920690" lon="-0.3884680">
        <ele>538.5</ele>
        <time>2022-11-06T08:32:42Z</time>
      </trkpt>
      <trkpt lat="39.6920210" lon="-0.3885470">
        <ele>538.3</ele>
        <time>2022-11-06T08:32:43Z</time>
      </trkpt>
      <trkpt lat="39.6919750" lon="-0.3886250">
        <ele>538.1</ele>
        <time>2022-11-06T08:32:44Z</time>
      </trkpt>
      <trkpt lat="39.6919410" lon="-0.3887080">
        <ele>538.0</ele>
        <time>2022-11-06T08:32:45Z</time>
      </trkpt>
      <trkpt lat="39.6918630" lon="-0.3888620">
        <ele>537.8</ele>
        <time>2022-11-06T08:32:46Z</time>
      </trkpt>
      <trkpt lat="39.6918040" lon="-0.3889170">
        <ele>537.7</ele>
        <time>2022-11-06T08:32:47Z</time>
      </trkpt>
      <trkpt lat="39.6917450" lon="-0.3889720">
        <ele>537.6</ele>
        <time>2022-11-06T08:32:48Z</time>
      </trkpt>
      <trkpt lat="39.6916860" lon="-0.3890230">
        <ele>537.4</ele>
        <time>2022-11-06T08:32:49Z</time>
      </trkpt>
      <trkpt lat="39.6916190" lon="-0.3890700">
        <ele>537.2</ele>
        <time>2022-11-06T08:32:50Z</time>
      </trkpt>
      <trkpt lat="39.6915540" lon="-0.3891120">
        <ele>537.0</ele>
        <time>2022-11-06T08:32:51Z</time>
      </trkpt>
      <trkpt lat="39.6915540" lon="-0.3891120">
        <ele>537.0</ele>
        <time>2022-11-06T08:32:52Z</time>
      </trkpt>
      <trkpt lat="39.6914900" lon="-0.3891480">
        <ele>536.8</ele>
        <time>2022-11-06T08:32:53Z</time>
      </trkpt>
      <trkpt lat="39.6914200" lon="-0.3891780">
        <ele>536.5</ele>
        <time>2022-11-06T08:32:54Z</time>
      </trkpt>
      <trkpt lat="39.6913530" lon="-0.3892030">
        <ele>536.2</ele>
        <time>2022-11-06T08:32:55Z</time>
      </trkpt>
      <trkpt lat="39.6913530" lon="-0.3892030">
        <ele>536.2</ele>
        <time>2022-11-06T08:32:56Z</time>
      </trkpt>
      <trkpt lat="39.6911310" lon="-0.3892680">
        <ele>534.9</ele>
        <time>2022-11-06T08:32:57Z</time>
      </trkpt>
      <trkpt lat="39.6910580" lon="-0.3892720">
        <ele>534.4</ele>
        <time>2022-11-06T08:32:58Z</time>
      </trkpt>
      <trkpt lat="39.6909860" lon="-0.3892680">
        <ele>533.9</ele>
        <time>2022-11-06T08:32:59Z</time>
      </trkpt>
      <trkpt lat="39.6909290" lon="-0.3892400">
        <ele>533.4</ele>
        <time>2022-11-06T08:33:00Z</time>
      </trkpt>
      <trkpt lat="39.6908650" lon="-0.3892100">
        <ele>532.9</ele>
        <time>2022-11-06T08:33:01Z</time>
      </trkpt>
      <trkpt lat="39.6908650" lon="-0.3892100">
        <ele>532.9</ele>
        <time>2022-11-06T08:33:02Z</time>
      </trkpt>
      <trkpt lat="39.6907930" lon="-0.3891920">
        <ele>532.3</ele>
        <time>2022-11-06T08:33:03Z</time>
      </trkpt>
      <trkpt lat="39.6907230" lon="-0.3891720">
        <ele>531.8</ele>
        <time>2022-11-06T08:33:04Z</time>
      </trkpt>
      <trkpt lat="39.6906370" lon="-0.3891700">
        <ele>531.3</ele>
        <time>2022-11-06T08:33:05Z</time>
      </trkpt>
      <trkpt lat="39.6906370" lon="-0.3891700">
        <ele>531.3</ele>
        <time>2022-11-06T08:33:06Z</time>
      </trkpt>
      <trkpt lat="39.6903660" lon="-0.3891470">
        <ele>529.7</ele>
        <time>2022-11-06T08:33:07Z</time>
      </trkpt>
      <trkpt lat="39.6902610" lon="-0.3891280">
        <ele>529.4</ele>
        <time>2022-11-06T08:33:08Z</time>
      </trkpt>
      <trkpt lat="39.6901540" lon="-0.3891080">
        <ele>529.1</ele>
        <time>2022-11-06T08:33:09Z</time>
      </trkpt>
      <trkpt lat="39.6900550" lon="-0.3890970">
        <ele>528.8</ele>
        <time>2022-11-06T08:33:10Z</time>
      </trkpt>
      <trkpt lat="39.6899610" lon="-0.3890870">
        <ele>528.6</ele>
        <time>2022-11-06T08:33:11Z</time>
      </trkpt>
      <trkpt lat="39.6898700" lon="-0.3890650">
        <ele>528.5</ele>
        <time>2022-11-06T08:33:12Z</time>
      </trkpt>
      <trkpt lat="39.6898700" lon="-0.3890650">
        <ele>528.5</ele>
        <time>2022-11-06T08:33:13Z</time>
      </trkpt>
      <trkpt lat="39.6897840" lon="-0.3890370">
        <ele>528.5</ele>
        <time>2022-11-06T08:33:14Z</time>
      </trkpt>
      <trkpt lat="39.6897090" lon="-0.3890080">
        <ele>528.5</ele>
        <time>2022-11-06T08:33:15Z</time>
      </trkpt>
      <trkpt lat="39.6896370" lon="-0.3889720">
        <ele>528.6</ele>
        <time>2022-11-06T08:33:16Z</time>
      </trkpt>
      <trkpt lat="39.6896370" lon="-0.3889720">
        <ele>528.6</ele>
        <time>2022-11-06T08:33:17Z</time>
      </trkpt>
      <trkpt lat="39.6894650" lon="-0.3888600">
        <ele>529.2</ele>
        <time>2022-11-06T08:33:18Z</time>
      </trkpt>
      <trkpt lat="39.6894140" lon="-0.3888250">
        <ele>529.4</ele>
        <time>2022-11-06T08:33:19Z</time>
      </trkpt>
      <trkpt lat="39.6893740" lon="-0.3887850">
        <ele>529.6</ele>
        <time>2022-11-06T08:33:20Z</time>
      </trkpt>
      <trkpt lat="39.6893230" lon="-0.3887520">
        <ele>529.9</ele>
        <time>2022-11-06T08:33:21Z</time>
      </trkpt>
      <trkpt lat="39.6892820" lon="-0.3887180">
        <ele>530.2</ele>
        <time>2022-11-06T08:33:22Z</time>
      </trkpt>
      <trkpt lat="39.6892820" lon="-0.3887180">
        <ele>530.2</ele>
        <time>2022-11-06T08:33:23Z</time>
      </trkpt>
      <trkpt lat="39.6892560" lon="-0.3886850">
        <ele>530.5</ele>
        <time>2022-11-06T08:33:24Z</time>
      </trkpt>
      <trkpt lat="39.6892230" lon="-0.3886520">
        <ele>530.7</ele>
        <time>2022-11-06T08:33:25Z</time>
      </trkpt>
      <trkpt lat="39.6891970" lon="-0.3886300">
        <ele>530.9</ele>
        <time>2022-11-06T08:33:26Z</time>
      </trkpt>
      <trkpt lat="39.6891430" lon="-0.3885600">
        <ele>531.4</ele>
        <time>2022-11-06T08:33:27Z</time>
      </trkpt>
      <trkpt lat="39.6891130" lon="-0.3885200">
        <ele>531.8</ele>
        <time>2022-11-06T08:33:28Z</time>
      </trkpt>
      <trkpt lat="39.6890840" lon="-0.3884870">
        <ele>532.1</ele>
        <time>2022-11-06T08:33:29Z</time>
      </trkpt>
      <trkpt lat="39.6890520" lon="-0.3884570">
        <ele>532.4</ele>
        <time>2022-11-06T08:33:30Z</time>
      </trkpt>
      <trkpt lat="39.6890220" lon="-0.3884250">
        <ele>532.7</ele>
        <time>2022-11-06T08:33:31Z</time>
      </trkpt>
      <trkpt lat="39.6889950" lon="-0.3883950">
        <ele>533.1</ele>
        <time>2022-11-06T08:33:32Z</time>
      </trkpt>
      <trkpt lat="39.6889660" lon="-0.3883600">
        <ele>533.4</ele>
        <time>2022-11-06T08:33:33Z</time>
      </trkpt>
      <trkpt lat="39.6889660" lon="-0.3883600">
        <ele>533.4</ele>
        <time>2022-11-06T08:33:34Z</time>
      </trkpt>
      <trkpt lat="39.6889340" lon="-0.3883280">
        <ele>533.8</ele>
        <time>2022-11-06T08:33:35Z</time>
      </trkpt>
      <trkpt lat="39.6889070" lon="-0.3882980">
        <ele>534.2</ele>
        <time>2022-11-06T08:33:36Z</time>
      </trkpt>
      <trkpt lat="39.6888770" lon="-0.3882650">
        <ele>534.5</ele>
        <time>2022-11-06T08:33:37Z</time>
      </trkpt>
      <trkpt lat="39.6888080" lon="-0.3881930">
        <ele>535.4</ele>
        <time>2022-11-06T08:33:38Z</time>
      </trkpt>
      <trkpt lat="39.6887670" lon="-0.3881620">
        <ele>535.8</ele>
        <time>2022-11-06T08:33:39Z</time>
      </trkpt>
      <trkpt lat="39.6887270" lon="-0.3881380">
        <ele>536.0</ele>
        <time>2022-11-06T08:33:40Z</time>
      </trkpt>
      <trkpt lat="39.6886870" lon="-0.3881180">
        <ele>535.8</ele>
        <time>2022-11-06T08:33:41Z</time>
      </trkpt>
      <trkpt lat="39.6886410" lon="-0.3881020">
        <ele>535.7</ele>
        <time>2022-11-06T08:33:42Z</time>
      </trkpt>
      <trkpt lat="39.6885990" lon="-0.3880850">
        <ele>535.6</ele>
        <time>2022-11-06T08:33:43Z</time>
      </trkpt>
      <trkpt lat="39.6885990" lon="-0.3880850">
        <ele>535.6</ele>
        <time>2022-11-06T08:33:44Z</time>
      </trkpt>
      <trkpt lat="39.6885560" lon="-0.3880650">
        <ele>535.4</ele>
        <time>2022-11-06T08:33:45Z</time>
      </trkpt>
      <trkpt lat="39.6885070" lon="-0.3880480">
        <ele>535.3</ele>
        <time>2022-11-06T08:33:46Z</time>
      </trkpt>
      <trkpt lat="39.6885070" lon="-0.3880480">
        <ele>535.3</ele>
        <time>2022-11-06T08:33:47Z</time>
      </trkpt>
      <trkpt lat="39.6883540" lon="-0.3879930">
        <ele>534.8</ele>
        <time>2022-11-06T08:33:48Z</time>
      </trkpt>
      <trkpt lat="39.6882930" lon="-0.3879670">
        <ele>534.8</ele>
        <time>2022-11-06T08:33:49Z</time>
      </trkpt>
      <trkpt lat="39.6882360" lon="-0.3879430">
        <ele>534.7</ele>
        <time>2022-11-06T08:33:50Z</time>
      </trkpt>
      <trkpt lat="39.6881800" lon="-0.3879200">
        <ele>534.7</ele>
        <time>2022-11-06T08:33:51Z</time>
      </trkpt>
      <trkpt lat="39.6881210" lon="-0.3879070">
        <ele>534.7</ele>
        <time>2022-11-06T08:33:52Z</time>
      </trkpt>
      <trkpt lat="39.6880650" lon="-0.3878970">
        <ele>534.7</ele>
        <time>2022-11-06T08:33:53Z</time>
      </trkpt>
      <trkpt lat="39.6880080" lon="-0.3878820">
        <ele>534.7</ele>
        <time>2022-11-06T08:33:54Z</time>
      </trkpt>
      <trkpt lat="39.6880080" lon="-0.3878820">
        <ele>534.7</ele>
        <time>2022-11-06T08:33:55Z</time>
      </trkpt>
      <trkpt lat="39.6879630" lon="-0.3878800">
        <ele>534.8</ele>
        <time>2022-11-06T08:33:56Z</time>
      </trkpt>
      <trkpt lat="39.6879200" lon="-0.3878680">
        <ele>534.8</ele>
        <time>2022-11-06T08:33:57Z</time>
      </trkpt>
      <trkpt lat="39.6879200" lon="-0.3878680">
        <ele>534.8</ele>
        <time>2022-11-06T08:33:58Z</time>
      </trkpt>
      <trkpt lat="39.6877780" lon="-0.3878380">
        <ele>535.1</ele>
        <time>2022-11-06T08:33:59Z</time>
      </trkpt>
      <trkpt lat="39.6877290" lon="-0.3878120">
        <ele>535.2</ele>
        <time>2022-11-06T08:34:00Z</time>
      </trkpt>
      <trkpt lat="39.6876790" lon="-0.3877830">
        <ele>535.5</ele>
        <time>2022-11-06T08:34:01Z</time>
      </trkpt>
      <trkpt lat="39.6876330" lon="-0.3877580">
        <ele>535.7</ele>
        <time>2022-11-06T08:34:02Z</time>
      </trkpt>
      <trkpt lat="39.6875980" lon="-0.3877350">
        <ele>535.9</ele>
        <time>2022-11-06T08:34:03Z</time>
      </trkpt>
      <trkpt lat="39.6875660" lon="-0.3877070">
        <ele>536.1</ele>
        <time>2022-11-06T08:34:04Z</time>
      </trkpt>
      <trkpt lat="39.6875660" lon="-0.3877070">
        <ele>536.1</ele>
        <time>2022-11-06T08:34:05Z</time>
      </trkpt>
      <trkpt lat="39.6875310" lon="-0.3876850">
        <ele>536.4</ele>
        <time>2022-11-06T08:34:06Z</time>
      </trkpt>
      <trkpt lat="39.6875040" lon="-0.3876630">
        <ele>536.6</ele>
        <time>2022-11-06T08:34:07Z</time>
      </trkpt>
      <trkpt lat="39.6874240" lon="-0.3875870">
        <ele>537.2</ele>
        <time>2022-11-06T08:34:08Z</time>
      </trkpt>
      <trkpt lat="39.6873810" lon="-0.3875520">
        <ele>537.5</ele>
        <time>2022-11-06T08:34:09Z</time>
      </trkpt>
      <trkpt lat="39.6873430" lon="-0.3875180">
        <ele>537.8</ele>
        <time>2022-11-06T08:34:10Z</time>
      </trkpt>
      <trkpt lat="39.6873080" lon="-0.3874870">
        <ele>538.1</ele>
        <time>2022-11-06T08:34:11Z</time>
      </trkpt>
      <trkpt lat="39.6872790" lon="-0.3874520">
        <ele>538.2</ele>
        <time>2022-11-06T08:34:12Z</time>
      </trkpt>
      <trkpt lat="39.6872520" lon="-0.3874130">
        <ele>538.4</ele>
        <time>2022-11-06T08:34:13Z</time>
      </trkpt>
      <trkpt lat="39.6872330" lon="-0.3873700">
        <ele>538.6</ele>
        <time>2022-11-06T08:34:14Z</time>
      </trkpt>
      <trkpt lat="39.6872090" lon="-0.3873230">
        <ele>538.8</ele>
        <time>2022-11-06T08:34:15Z</time>
      </trkpt>
      <trkpt lat="39.6872090" lon="-0.3873230">
        <ele>538.8</ele>
        <time>2022-11-06T08:34:16Z</time>
      </trkpt>
      <trkpt lat="39.6871900" lon="-0.3872780">
        <ele>538.9</ele>
        <time>2022-11-06T08:34:17Z</time>
      </trkpt>
      <trkpt lat="39.6871720" lon="-0.3872280">
        <ele>539.1</ele>
        <time>2022-11-06T08:34:18Z</time>
      </trkpt>
      <trkpt lat="39.6871340" lon="-0.3871300">
        <ele>539.6</ele>
        <time>2022-11-06T08:34:19Z</time>
      </trkpt>
      <trkpt lat="39.6871180" lon="-0.3870780">
        <ele>539.8</ele>
        <time>2022-11-06T08:34:20Z</time>
      </trkpt>
      <trkpt lat="39.6870990" lon="-0.3870270">
        <ele>540.0</ele>
        <time>2022-11-06T08:34:21Z</time>
      </trkpt>
      <trkpt lat="39.6870800" lon="-0.3869830">
        <ele>540.2</ele>
        <time>2022-11-06T08:34:22Z</time>
      </trkpt>
      <trkpt lat="39.6870560" lon="-0.3869370">
        <ele>540.4</ele>
        <time>2022-11-06T08:34:23Z</time>
      </trkpt>
      <trkpt lat="39.6870270" lon="-0.3868850">
        <ele>540.6</ele>
        <time>2022-11-06T08:34:24Z</time>
      </trkpt>
      <trkpt lat="39.6870050" lon="-0.3868420">
        <ele>540.7</ele>
        <time>2022-11-06T08:34:25Z</time>
      </trkpt>
      <trkpt lat="39.6870050" lon="-0.3868420">
        <ele>540.7</ele>
        <time>2022-11-06T08:34:26Z</time>
      </trkpt>
      <trkpt lat="39.6869730" lon="-0.3868000">
        <ele>540.8</ele>
        <time>2022-11-06T08:34:27Z</time>
      </trkpt>
      <trkpt lat="39.6869730" lon="-0.3868000">
        <ele>540.8</ele>
        <time>2022-11-06T08:34:28Z</time>
      </trkpt>
      <trkpt lat="39.6868710" lon="-0.3866870">
        <ele>541.2</ele>
        <time>2022-11-06T08:34:29Z</time>
      </trkpt>
      <trkpt lat="39.6868340" lon="-0.3866530">
        <ele>541.3</ele>
        <time>2022-11-06T08:34:30Z</time>
      </trkpt>
      <trkpt lat="39.6867990" lon="-0.3866230">
        <ele>541.5</ele>
        <time>2022-11-06T08:34:31Z</time>
      </trkpt>
      <trkpt lat="39.6867610" lon="-0.3865950">
        <ele>541.6</ele>
        <time>2022-11-06T08:34:32Z</time>
      </trkpt>
      <trkpt lat="39.6867260" lon="-0.3865670">
        <ele>541.8</ele>
        <time>2022-11-06T08:34:33Z</time>
      </trkpt>
      <trkpt lat="39.6866910" lon="-0.3865380">
        <ele>541.9</ele>
        <time>2022-11-06T08:34:34Z</time>
      </trkpt>
      <trkpt lat="39.6866620" lon="-0.3865130">
        <ele>542.1</ele>
        <time>2022-11-06T08:34:35Z</time>
      </trkpt>
      <trkpt lat="39.6866220" lon="-0.3864870">
        <ele>542.3</ele>
        <time>2022-11-06T08:34:36Z</time>
      </trkpt>
      <trkpt lat="39.6866220" lon="-0.3864870">
        <ele>542.3</ele>
        <time>2022-11-06T08:34:37Z</time>
      </trkpt>
      <trkpt lat="39.6865900" lon="-0.3864670">
        <ele>542.4</ele>
        <time>2022-11-06T08:34:38Z</time>
      </trkpt>
      <trkpt lat="39.6865900" lon="-0.3864670">
        <ele>542.4</ele>
        <time>2022-11-06T08:34:39Z</time>
      </trkpt>
      <trkpt lat="39.6864900" lon="-0.3864270">
        <ele>542.9</ele>
        <time>2022-11-06T08:34:40Z</time>
      </trkpt>
      <trkpt lat="39.6864550" lon="-0.3864170">
        <ele>543.1</ele>
        <time>2022-11-06T08:34:41Z</time>
      </trkpt>
      <trkpt lat="39.6864180" lon="-0.3864100">
        <ele>543.2</ele>
        <time>2022-11-06T08:34:42Z</time>
      </trkpt>
      <trkpt lat="39.6863830" lon="-0.3864020">
        <ele>543.4</ele>
        <time>2022-11-06T08:34:43Z</time>
      </trkpt>
      <trkpt lat="39.6863480" lon="-0.3863970">
        <ele>543.6</ele>
        <time>2022-11-06T08:34:44Z</time>
      </trkpt>
      <trkpt lat="39.6863110" lon="-0.3863930">
        <ele>543.7</ele>
        <time>2022-11-06T08:34:45Z</time>
      </trkpt>
      <trkpt lat="39.6862700" lon="-0.3863880">
        <ele>543.9</ele>
        <time>2022-11-06T08:34:46Z</time>
      </trkpt>
      <trkpt lat="39.6862700" lon="-0.3863880">
        <ele>543.9</ele>
        <time>2022-11-06T08:34:47Z</time>
      </trkpt>
      <trkpt lat="39.6862330" lon="-0.3863830">
        <ele>544.1</ele>
        <time>2022-11-06T08:34:48Z</time>
      </trkpt>
      <trkpt lat="39.6862330" lon="-0.3863830">
        <ele>544.1</ele>
        <time>2022-11-06T08:34:49Z</time>
      </trkpt>
      <trkpt lat="39.6861120" lon="-0.3863870">
        <ele>544.5</ele>
        <time>2022-11-06T08:34:50Z</time>
      </trkpt>
      <trkpt lat="39.6860770" lon="-0.3863980">
        <ele>544.6</ele>
        <time>2022-11-06T08:34:51Z</time>
      </trkpt>
      <trkpt lat="39.6860400" lon="-0.3864120">
        <ele>544.7</ele>
        <time>2022-11-06T08:34:52Z</time>
      </trkpt>
      <trkpt lat="39.6860020" lon="-0.3864280">
        <ele>544.7</ele>
        <time>2022-11-06T08:34:53Z</time>
      </trkpt>
      <trkpt lat="39.6859590" lon="-0.3864470">
        <ele>544.8</ele>
        <time>2022-11-06T08:34:54Z</time>
      </trkpt>
      <trkpt lat="39.6859220" lon="-0.3864700">
        <ele>544.8</ele>
        <time>2022-11-06T08:34:55Z</time>
      </trkpt>
      <trkpt lat="39.6858810" lon="-0.3864920">
        <ele>544.9</ele>
        <time>2022-11-06T08:34:56Z</time>
      </trkpt>
      <trkpt lat="39.6858410" lon="-0.3865130">
        <ele>544.9</ele>
        <time>2022-11-06T08:34:57Z</time>
      </trkpt>
      <trkpt lat="39.6858410" lon="-0.3865130">
        <ele>544.9</ele>
        <time>2022-11-06T08:34:58Z</time>
      </trkpt>
      <trkpt lat="39.6857980" lon="-0.3865330">
        <ele>544.9</ele>
        <time>2022-11-06T08:34:59Z</time>
      </trkpt>
      <trkpt lat="39.6857180" lon="-0.3865800">
        <ele>545.0</ele>
        <time>2022-11-06T08:35:00Z</time>
      </trkpt>
      <trkpt lat="39.6856780" lon="-0.3866030">
        <ele>545.0</ele>
        <time>2022-11-06T08:35:01Z</time>
      </trkpt>
      <trkpt lat="39.6856370" lon="-0.3866270">
        <ele>545.0</ele>
        <time>2022-11-06T08:35:02Z</time>
      </trkpt>
      <trkpt lat="39.6855970" lon="-0.3866470">
        <ele>545.1</ele>
        <time>2022-11-06T08:35:03Z</time>
      </trkpt>
      <trkpt lat="39.6855520" lon="-0.3866680">
        <ele>545.1</ele>
        <time>2022-11-06T08:35:04Z</time>
      </trkpt>
      <trkpt lat="39.6855090" lon="-0.3866880">
        <ele>545.1</ele>
        <time>2022-11-06T08:35:05Z</time>
      </trkpt>
      <trkpt lat="39.6854660" lon="-0.3867120">
        <ele>545.2</ele>
        <time>2022-11-06T08:35:06Z</time>
      </trkpt>
      <trkpt lat="39.6854200" lon="-0.3867370">
        <ele>545.2</ele>
        <time>2022-11-06T08:35:07Z</time>
      </trkpt>
      <trkpt lat="39.6854200" lon="-0.3867370">
        <ele>545.2</ele>
        <time>2022-11-06T08:35:08Z</time>
      </trkpt>
      <trkpt lat="39.6853800" lon="-0.3867620">
        <ele>545.2</ele>
        <time>2022-11-06T08:35:09Z</time>
      </trkpt>
      <trkpt lat="39.6852940" lon="-0.3868050">
        <ele>545.3</ele>
        <time>2022-11-06T08:35:10Z</time>
      </trkpt>
      <trkpt lat="39.6852480" lon="-0.3868250">
        <ele>545.4</ele>
        <time>2022-11-06T08:35:11Z</time>
      </trkpt>
      <trkpt lat="39.6852080" lon="-0.3868430">
        <ele>545.4</ele>
        <time>2022-11-06T08:35:12Z</time>
      </trkpt>
      <trkpt lat="39.6851630" lon="-0.3868630">
        <ele>545.4</ele>
        <time>2022-11-06T08:35:13Z</time>
      </trkpt>
      <trkpt lat="39.6851200" lon="-0.3868830">
        <ele>545.4</ele>
        <time>2022-11-06T08:35:14Z</time>
      </trkpt>
      <trkpt lat="39.6850770" lon="-0.3869050">
        <ele>545.4</ele>
        <time>2022-11-06T08:35:15Z</time>
      </trkpt>
      <trkpt lat="39.6850310" lon="-0.3869270">
        <ele>545.5</ele>
        <time>2022-11-06T08:35:16Z</time>
      </trkpt>
      <trkpt lat="39.6849910" lon="-0.3869480">
        <ele>545.4</ele>
        <time>2022-11-06T08:35:17Z</time>
      </trkpt>
      <trkpt lat="39.6849480" lon="-0.3869680">
        <ele>545.4</ele>
        <time>2022-11-06T08:35:18Z</time>
      </trkpt>
      <trkpt lat="39.6849480" lon="-0.3869680">
        <ele>545.4</ele>
        <time>2022-11-06T08:35:19Z</time>
      </trkpt>
      <trkpt lat="39.6849050" lon="-0.3869950">
        <ele>545.4</ele>
        <time>2022-11-06T08:35:20Z</time>
      </trkpt>
      <trkpt lat="39.6848300" lon="-0.3870670">
        <ele>545.2</ele>
        <time>2022-11-06T08:35:21Z</time>
      </trkpt>
      <trkpt lat="39.6847950" lon="-0.3871120">
        <ele>545.0</ele>
        <time>2022-11-06T08:35:22Z</time>
      </trkpt>
      <trkpt lat="39.6847660" lon="-0.3871650">
        <ele>544.8</ele>
        <time>2022-11-06T08:35:23Z</time>
      </trkpt>
      <trkpt lat="39.6847390" lon="-0.3872220">
        <ele>544.6</ele>
        <time>2022-11-06T08:35:24Z</time>
      </trkpt>
      <trkpt lat="39.6847070" lon="-0.3872850">
        <ele>544.3</ele>
        <time>2022-11-06T08:35:25Z</time>
      </trkpt>
      <trkpt lat="39.6846800" lon="-0.3873520">
        <ele>544.0</ele>
        <time>2022-11-06T08:35:26Z</time>
      </trkpt>
      <trkpt lat="39.6846500" lon="-0.3874230">
        <ele>543.7</ele>
        <time>2022-11-06T08:35:27Z</time>
      </trkpt>
      <trkpt lat="39.6846210" lon="-0.3874980">
        <ele>543.4</ele>
        <time>2022-11-06T08:35:28Z</time>
      </trkpt>
      <trkpt lat="39.6846210" lon="-0.3874980">
        <ele>543.4</ele>
        <time>2022-11-06T08:35:29Z</time>
      </trkpt>
      <trkpt lat="39.6846210" lon="-0.3874980">
        <ele>543.4</ele>
        <time>2022-11-06T08:35:30Z</time>
      </trkpt>
      <trkpt lat="39.6845300" lon="-0.3877320">
        <ele>542.6</ele>
        <time>2022-11-06T08:35:31Z</time>
      </trkpt>
      <trkpt lat="39.6844970" lon="-0.3878050">
        <ele>542.3</ele>
        <time>2022-11-06T08:35:32Z</time>
      </trkpt>
      <trkpt lat="39.6844680" lon="-0.3878820">
        <ele>542.0</ele>
        <time>2022-11-06T08:35:33Z</time>
      </trkpt>
      <trkpt lat="39.6844300" lon="-0.3879570">
        <ele>541.7</ele>
        <time>2022-11-06T08:35:34Z</time>
      </trkpt>
      <trkpt lat="39.6843820" lon="-0.3880250">
        <ele>541.3</ele>
        <time>2022-11-06T08:35:35Z</time>
      </trkpt>
      <trkpt lat="39.6843340" lon="-0.3880720">
        <ele>540.8</ele>
        <time>2022-11-06T08:35:36Z</time>
      </trkpt>
      <trkpt lat="39.6842800" lon="-0.3881330">
        <ele>540.3</ele>
        <time>2022-11-06T08:35:37Z</time>
      </trkpt>
      <trkpt lat="39.6842180" lon="-0.3881970">
        <ele>539.6</ele>
        <time>2022-11-06T08:35:38Z</time>
      </trkpt>
      <trkpt lat="39.6841460" lon="-0.3882600">
        <ele>538.9</ele>
        <time>2022-11-06T08:35:39Z</time>
      </trkpt>
      <trkpt lat="39.6841460" lon="-0.3882600">
        <ele>538.9</ele>
        <time>2022-11-06T08:35:40Z</time>
      </trkpt>
      <trkpt lat="39.6841460" lon="-0.3882600">
        <ele>538.9</ele>
        <time>2022-11-06T08:35:41Z</time>
      </trkpt>
      <trkpt lat="39.6839530" lon="-0.3884350">
        <ele>537.0</ele>
        <time>2022-11-06T08:35:42Z</time>
      </trkpt>
      <trkpt lat="39.6838990" lon="-0.3885080">
        <ele>536.3</ele>
        <time>2022-11-06T08:35:43Z</time>
      </trkpt>
      <trkpt lat="39.6838620" lon="-0.3886020">
        <ele>535.4</ele>
        <time>2022-11-06T08:35:44Z</time>
      </trkpt>
      <trkpt lat="39.6838460" lon="-0.3887000">
        <ele>534.4</ele>
        <time>2022-11-06T08:35:45Z</time>
      </trkpt>
      <trkpt lat="39.6838430" lon="-0.3888030">
        <ele>533.4</ele>
        <time>2022-11-06T08:35:46Z</time>
      </trkpt>
      <trkpt lat="39.6838300" lon="-0.3889080">
        <ele>532.2</ele>
        <time>2022-11-06T08:35:47Z</time>
      </trkpt>
      <trkpt lat="39.6838190" lon="-0.3890280">
        <ele>530.8</ele>
        <time>2022-11-06T08:35:48Z</time>
      </trkpt>
      <trkpt lat="39.6838000" lon="-0.3891550">
        <ele>529.3</ele>
        <time>2022-11-06T08:35:49Z</time>
      </trkpt>
      <trkpt lat="39.6838000" lon="-0.3891550">
        <ele>529.3</ele>
        <time>2022-11-06T08:35:50Z</time>
      </trkpt>
      <trkpt lat="39.6837490" lon="-0.3893950">
        <ele>527.3</ele>
        <time>2022-11-06T08:35:51Z</time>
      </trkpt>
      <trkpt lat="39.6837170" lon="-0.3895220">
        <ele>526.3</ele>
        <time>2022-11-06T08:35:52Z</time>
      </trkpt>
      <trkpt lat="39.6836770" lon="-0.3896280">
        <ele>525.5</ele>
        <time>2022-11-06T08:35:53Z</time>
      </trkpt>
      <trkpt lat="39.6836120" lon="-0.3897570">
        <ele>524.3</ele>
        <time>2022-11-06T08:35:54Z</time>
      </trkpt>
      <trkpt lat="39.6835510" lon="-0.3898720">
        <ele>523.4</ele>
        <time>2022-11-06T08:35:55Z</time>
      </trkpt>
      <trkpt lat="39.6834780" lon="-0.3899880">
        <ele>522.5</ele>
        <time>2022-11-06T08:35:56Z</time>
      </trkpt>
      <trkpt lat="39.6834030" lon="-0.3900980">
        <ele>521.9</ele>
        <time>2022-11-06T08:35:57Z</time>
      </trkpt>
      <trkpt lat="39.6833280" lon="-0.3902000">
        <ele>521.5</ele>
        <time>2022-11-06T08:35:58Z</time>
      </trkpt>
      <trkpt lat="39.6832480" lon="-0.3903000">
        <ele>521.2</ele>
        <time>2022-11-06T08:35:59Z</time>
      </trkpt>
      <trkpt lat="39.6831670" lon="-0.3903900">
        <ele>520.9</ele>
        <time>2022-11-06T08:36:00Z</time>
      </trkpt>
      <trkpt lat="39.6831670" lon="-0.3903900">
        <ele>520.9</ele>
        <time>2022-11-06T08:36:01Z</time>
      </trkpt>
      <trkpt lat="39.6830220" lon="-0.3905570">
        <ele>520.2</ele>
        <time>2022-11-06T08:36:02Z</time>
      </trkpt>
      <trkpt lat="39.6829520" lon="-0.3906400">
        <ele>519.7</ele>
        <time>2022-11-06T08:36:03Z</time>
      </trkpt>
      <trkpt lat="39.6828850" lon="-0.3907250">
        <ele>519.2</ele>
        <time>2022-11-06T08:36:04Z</time>
      </trkpt>
      <trkpt lat="39.6828130" lon="-0.3908200">
        <ele>518.7</ele>
        <time>2022-11-06T08:36:05Z</time>
      </trkpt>
      <trkpt lat="39.6827460" lon="-0.3909150">
        <ele>518.2</ele>
        <time>2022-11-06T08:36:06Z</time>
      </trkpt>
      <trkpt lat="39.6826790" lon="-0.3910070">
        <ele>517.9</ele>
        <time>2022-11-06T08:36:07Z</time>
      </trkpt>
      <trkpt lat="39.6826150" lon="-0.3910830">
        <ele>517.8</ele>
        <time>2022-11-06T08:36:08Z</time>
      </trkpt>
      <trkpt lat="39.6825530" lon="-0.3911380">
        <ele>517.8</ele>
        <time>2022-11-06T08:36:09Z</time>
      </trkpt>
      <trkpt lat="39.6825530" lon="-0.3911380">
        <ele>517.8</ele>
        <time>2022-11-06T08:36:10Z</time>
      </trkpt>
      <trkpt lat="39.6825530" lon="-0.3911380">
        <ele>517.8</ele>
        <time>2022-11-06T08:36:11Z</time>
      </trkpt>
      <trkpt lat="39.6823890" lon="-0.3911450">
        <ele>517.6</ele>
        <time>2022-11-06T08:36:12Z</time>
      </trkpt>
      <trkpt lat="39.6823440" lon="-0.3911220">
        <ele>517.5</ele>
        <time>2022-11-06T08:36:13Z</time>
      </trkpt>
      <trkpt lat="39.6822980" lon="-0.3911030">
        <ele>517.2</ele>
        <time>2022-11-06T08:36:14Z</time>
      </trkpt>
      <trkpt lat="39.6822470" lon="-0.3910870">
        <ele>516.7</ele>
        <time>2022-11-06T08:36:15Z</time>
      </trkpt>
      <trkpt lat="39.6821990" lon="-0.3910700">
        <ele>516.3</ele>
        <time>2022-11-06T08:36:16Z</time>
      </trkpt>
      <trkpt lat="39.6821450" lon="-0.3910480">
        <ele>515.8</ele>
        <time>2022-11-06T08:36:17Z</time>
      </trkpt>
      <trkpt lat="39.6820910" lon="-0.3910150">
        <ele>515.3</ele>
        <time>2022-11-06T08:36:18Z</time>
      </trkpt>
      <trkpt lat="39.6820410" lon="-0.3909580">
        <ele>514.7</ele>
        <time>2022-11-06T08:36:19Z</time>
      </trkpt>
      <trkpt lat="39.6819950" lon="-0.3908850">
        <ele>514.1</ele>
        <time>2022-11-06T08:36:20Z</time>
      </trkpt>
      <trkpt lat="39.6819950" lon="-0.3908850">
        <ele>514.1</ele>
        <time>2022-11-06T08:36:21Z</time>
      </trkpt>
      <trkpt lat="39.6819950" lon="-0.3908850">
        <ele>514.1</ele>
        <time>2022-11-06T08:36:22Z</time>
      </trkpt>
      <trkpt lat="39.6819060" lon="-0.3905800">
        <ele>512.6</ele>
        <time>2022-11-06T08:36:23Z</time>
      </trkpt>
      <trkpt lat="39.6818770" lon="-0.3904730">
        <ele>512.3</ele>
        <time>2022-11-06T08:36:24Z</time>
      </trkpt>
      <trkpt lat="39.6818500" lon="-0.3903670">
        <ele>512.0</ele>
        <time>2022-11-06T08:36:25Z</time>
      </trkpt>
      <trkpt lat="39.6818390" lon="-0.3902600">
        <ele>511.6</ele>
        <time>2022-11-06T08:36:26Z</time>
      </trkpt>
      <trkpt lat="39.6818310" lon="-0.3901500">
        <ele>511.3</ele>
        <time>2022-11-06T08:36:27Z</time>
      </trkpt>
      <trkpt lat="39.6818310" lon="-0.3900420">
        <ele>510.9</ele>
        <time>2022-11-06T08:36:28Z</time>
      </trkpt>
      <trkpt lat="39.6818340" lon="-0.3899330">
        <ele>510.5</ele>
        <time>2022-11-06T08:36:29Z</time>
      </trkpt>
      <trkpt lat="39.6818500" lon="-0.3898270">
        <ele>510.1</ele>
        <time>2022-11-06T08:36:30Z</time>
      </trkpt>
      <trkpt lat="39.6818500" lon="-0.3898270">
        <ele>510.1</ele>
        <time>2022-11-06T08:36:31Z</time>
      </trkpt>
      <trkpt lat="39.6819010" lon="-0.3896170">
        <ele>509.2</ele>
        <time>2022-11-06T08:36:32Z</time>
      </trkpt>
      <trkpt lat="39.6819310" lon="-0.3895100">
        <ele>508.8</ele>
        <time>2022-11-06T08:36:33Z</time>
      </trkpt>
      <trkpt lat="39.6819650" lon="-0.3894030">
        <ele>508.3</ele>
        <time>2022-11-06T08:36:34Z</time>
      </trkpt>
      <trkpt lat="39.6819870" lon="-0.3892900">
        <ele>507.8</ele>
        <time>2022-11-06T08:36:35Z</time>
      </trkpt>
      <trkpt lat="39.6819920" lon="-0.3891750">
        <ele>507.1</ele>
        <time>2022-11-06T08:36:36Z</time>
      </trkpt>
      <trkpt lat="39.6819870" lon="-0.3890480">
        <ele>506.3</ele>
        <time>2022-11-06T08:36:37Z</time>
      </trkpt>
      <trkpt lat="39.6819950" lon="-0.3889270">
        <ele>505.4</ele>
        <time>2022-11-06T08:36:38Z</time>
      </trkpt>
      <trkpt lat="39.6820030" lon="-0.3888150">
        <ele>504.4</ele>
        <time>2022-11-06T08:36:39Z</time>
      </trkpt>
      <trkpt lat="39.6820030" lon="-0.3887130">
        <ele>503.4</ele>
        <time>2022-11-06T08:36:40Z</time>
      </trkpt>
      <trkpt lat="39.6819840" lon="-0.3886200">
        <ele>502.4</ele>
        <time>2022-11-06T08:36:41Z</time>
      </trkpt>
      <trkpt lat="39.6819840" lon="-0.3886200">
        <ele>502.4</ele>
        <time>2022-11-06T08:36:42Z</time>
      </trkpt>
      <trkpt lat="39.6818660" lon="-0.3885300">
        <ele>500.0</ele>
        <time>2022-11-06T08:36:43Z</time>
      </trkpt>
      <trkpt lat="39.6817780" lon="-0.3885300">
        <ele>498.5</ele>
        <time>2022-11-06T08:36:44Z</time>
      </trkpt>
      <trkpt lat="39.6816780" lon="-0.3885580">
        <ele>496.7</ele>
        <time>2022-11-06T08:36:45Z</time>
      </trkpt>
      <trkpt lat="39.6815760" lon="-0.3885930">
        <ele>494.8</ele>
        <time>2022-11-06T08:36:46Z</time>
      </trkpt>
      <trkpt lat="39.6814640" lon="-0.3886030">
        <ele>492.7</ele>
        <time>2022-11-06T08:36:47Z</time>
      </trkpt>
      <trkpt lat="39.6813510" lon="-0.3885820">
        <ele>490.3</ele>
        <time>2022-11-06T08:36:48Z</time>
      </trkpt>
      <trkpt lat="39.6812280" lon="-0.3885200">
        <ele>487.4</ele>
        <time>2022-11-06T08:36:49Z</time>
      </trkpt>
      <trkpt lat="39.6811100" lon="-0.3884370">
        <ele>484.7</ele>
        <time>2022-11-06T08:36:50Z</time>
      </trkpt>
      <trkpt lat="39.6811100" lon="-0.3884370">
        <ele>484.7</ele>
        <time>2022-11-06T08:36:51Z</time>
      </trkpt>
      <trkpt lat="39.6811100" lon="-0.3884370">
        <ele>484.7</ele>
        <time>2022-11-06T08:36:52Z</time>
      </trkpt>
      <trkpt lat="39.6806990" lon="-0.3882400">
        <ele>479.4</ele>
        <time>2022-11-06T08:36:53Z</time>
      </trkpt>
      <trkpt lat="39.6805600" lon="-0.3881900">
        <ele>479.1</ele>
        <time>2022-11-06T08:36:54Z</time>
      </trkpt>
      <trkpt lat="39.6804340" lon="-0.3881430">
        <ele>479.1</ele>
        <time>2022-11-06T08:36:55Z</time>
      </trkpt>
      <trkpt lat="39.6803240" lon="-0.3880920">
        <ele>479.1</ele>
        <time>2022-11-06T08:36:56Z</time>
      </trkpt>
      <trkpt lat="39.6802300" lon="-0.3880370">
        <ele>479.2</ele>
        <time>2022-11-06T08:36:57Z</time>
      </trkpt>
      <trkpt lat="39.6801420" lon="-0.3879980">
        <ele>479.2</ele>
        <time>2022-11-06T08:36:58Z</time>
      </trkpt>
      <trkpt lat="39.6800660" lon="-0.3879700">
        <ele>479.2</ele>
        <time>2022-11-06T08:36:59Z</time>
      </trkpt>
      <trkpt lat="39.6800050" lon="-0.3880030">
        <ele>479.7</ele>
        <time>2022-11-06T08:37:00Z</time>
      </trkpt>
      <trkpt lat="39.6799510" lon="-0.3880370">
        <ele>480.0</ele>
        <time>2022-11-06T08:37:01Z</time>
      </trkpt>
      <trkpt lat="39.6799510" lon="-0.3880370">
        <ele>480.0</ele>
        <time>2022-11-06T08:37:02Z</time>
      </trkpt>
      <trkpt lat="39.6799510" lon="-0.3880370">
        <ele>480.0</ele>
        <time>2022-11-06T08:37:03Z</time>
      </trkpt>
      <trkpt lat="39.6798060" lon="-0.3881620">
        <ele>481.0</ele>
        <time>2022-11-06T08:37:04Z</time>
      </trkpt>
      <trkpt lat="39.6797550" lon="-0.3882130">
        <ele>481.4</ele>
        <time>2022-11-06T08:37:05Z</time>
      </trkpt>
      <trkpt lat="39.6797020" lon="-0.3882630">
        <ele>481.7</ele>
        <time>2022-11-06T08:37:06Z</time>
      </trkpt>
      <trkpt lat="39.6796530" lon="-0.3883100">
        <ele>482.1</ele>
        <time>2022-11-06T08:37:07Z</time>
      </trkpt>
      <trkpt lat="39.6795970" lon="-0.3883530">
        <ele>482.5</ele>
        <time>2022-11-06T08:37:08Z</time>
      </trkpt>
      <trkpt lat="39.6795510" lon="-0.3883930">
        <ele>482.7</ele>
        <time>2022-11-06T08:37:09Z</time>
      </trkpt>
      <trkpt lat="39.6795000" lon="-0.3884370">
        <ele>482.9</ele>
        <time>2022-11-06T08:37:10Z</time>
      </trkpt>
      <trkpt lat="39.6794550" lon="-0.3884770">
        <ele>483.2</ele>
        <time>2022-11-06T08:37:11Z</time>
      </trkpt>
      <trkpt lat="39.6794550" lon="-0.3884770">
        <ele>483.2</ele>
        <time>2022-11-06T08:37:12Z</time>
      </trkpt>
      <trkpt lat="39.6793740" lon="-0.3885420">
        <ele>483.7</ele>
        <time>2022-11-06T08:37:13Z</time>
      </trkpt>
      <trkpt lat="39.6793400" lon="-0.3885630">
        <ele>483.9</ele>
        <time>2022-11-06T08:37:14Z</time>
      </trkpt>
      <trkpt lat="39.6793070" lon="-0.3885950">
        <ele>484.2</ele>
        <time>2022-11-06T08:37:15Z</time>
      </trkpt>
      <trkpt lat="39.6792720" lon="-0.3886230">
        <ele>484.5</ele>
        <time>2022-11-06T08:37:16Z</time>
      </trkpt>
      <trkpt lat="39.6792400" lon="-0.3886500">
        <ele>484.8</ele>
        <time>2022-11-06T08:37:17Z</time>
      </trkpt>
      <trkpt lat="39.6792080" lon="-0.3886750">
        <ele>485.1</ele>
        <time>2022-11-06T08:37:18Z</time>
      </trkpt>
      <trkpt lat="39.6791760" lon="-0.3886980">
        <ele>485.3</ele>
        <time>2022-11-06T08:37:19Z</time>
      </trkpt>
      <trkpt lat="39.6791410" lon="-0.3887250">
        <ele>485.6</ele>
        <time>2022-11-06T08:37:20Z</time>
      </trkpt>
      <trkpt lat="39.6791090" lon="-0.3887470">
        <ele>485.9</ele>
        <time>2022-11-06T08:37:21Z</time>
      </trkpt>
      <trkpt lat="39.6790770" lon="-0.3887730">
        <ele>486.2</ele>
        <time>2022-11-06T08:37:22Z</time>
      </trkpt>
      <trkpt lat="39.6790770" lon="-0.3887730">
        <ele>486.2</ele>
        <time>2022-11-06T08:37:23Z</time>
      </trkpt>
      <trkpt lat="39.6790150" lon="-0.3888200">
        <ele>486.7</ele>
        <time>2022-11-06T08:37:24Z</time>
      </trkpt>
      <trkpt lat="39.6789880" lon="-0.3888350">
        <ele>486.9</ele>
        <time>2022-11-06T08:37:25Z</time>
      </trkpt>
      <trkpt lat="39.6789560" lon="-0.3888500">
        <ele>487.1</ele>
        <time>2022-11-06T08:37:26Z</time>
      </trkpt>
      <trkpt lat="39.6789290" lon="-0.3888570">
        <ele>487.3</ele>
        <time>2022-11-06T08:37:27Z</time>
      </trkpt>
      <trkpt lat="39.6788940" lon="-0.3888620">
        <ele>487.5</ele>
        <time>2022-11-06T08:37:28Z</time>
      </trkpt>
      <trkpt lat="39.6788650" lon="-0.3888670">
        <ele>487.7</ele>
        <time>2022-11-06T08:37:29Z</time>
      </trkpt>
      <trkpt lat="39.6788300" lon="-0.3888700">
        <ele>487.8</ele>
        <time>2022-11-06T08:37:30Z</time>
      </trkpt>
      <trkpt lat="39.6787980" lon="-0.3888680">
        <ele>487.8</ele>
        <time>2022-11-06T08:37:31Z</time>
      </trkpt>
      <trkpt lat="39.6787760" lon="-0.3888650">
        <ele>487.8</ele>
        <time>2022-11-06T08:37:32Z</time>
      </trkpt>
      <trkpt lat="39.6787760" lon="-0.3888650">
        <ele>487.8</ele>
        <time>2022-11-06T08:37:33Z</time>
      </trkpt>
      <trkpt lat="39.6787170" lon="-0.3888430">
        <ele>487.8</ele>
        <time>2022-11-06T08:37:34Z</time>
      </trkpt>
      <trkpt lat="39.6786850" lon="-0.3888180">
        <ele>487.7</ele>
        <time>2022-11-06T08:37:35Z</time>
      </trkpt>
      <trkpt lat="39.6786500" lon="-0.3887870">
        <ele>487.6</ele>
        <time>2022-11-06T08:37:36Z</time>
      </trkpt>
      <trkpt lat="39.6786150" lon="-0.3887570">
        <ele>487.4</ele>
        <time>2022-11-06T08:37:37Z</time>
      </trkpt>
      <trkpt lat="39.6785780" lon="-0.3887250">
        <ele>487.1</ele>
        <time>2022-11-06T08:37:38Z</time>
      </trkpt>
      <trkpt lat="39.6785400" lon="-0.3886900">
        <ele>486.9</ele>
        <time>2022-11-06T08:37:39Z</time>
      </trkpt>
      <trkpt lat="39.6784950" lon="-0.3886520">
        <ele>486.7</ele>
        <time>2022-11-06T08:37:40Z</time>
      </trkpt>
      <trkpt lat="39.6784440" lon="-0.3886130">
        <ele>486.5</ele>
        <time>2022-11-06T08:37:41Z</time>
      </trkpt>
      <trkpt lat="39.6783900" lon="-0.3885770">
        <ele>486.4</ele>
        <time>2022-11-06T08:37:42Z</time>
      </trkpt>
      <trkpt lat="39.6783420" lon="-0.3885450">
        <ele>486.3</ele>
        <time>2022-11-06T08:37:43Z</time>
      </trkpt>
      <trkpt lat="39.6783420" lon="-0.3885450">
        <ele>486.3</ele>
        <time>2022-11-06T08:37:44Z</time>
      </trkpt>
      <trkpt lat="39.6782640" lon="-0.3884880">
        <ele>486.3</ele>
        <time>2022-11-06T08:37:45Z</time>
      </trkpt>
      <trkpt lat="39.6782290" lon="-0.3884670">
        <ele>486.2</ele>
        <time>2022-11-06T08:37:46Z</time>
      </trkpt>
      <trkpt lat="39.6782000" lon="-0.3884350">
        <ele>486.2</ele>
        <time>2022-11-06T08:37:47Z</time>
      </trkpt>
      <trkpt lat="39.6781620" lon="-0.3883980">
        <ele>486.2</ele>
        <time>2022-11-06T08:37:48Z</time>
      </trkpt>
      <trkpt lat="39.6781240" lon="-0.3883670">
        <ele>486.1</ele>
        <time>2022-11-06T08:37:49Z</time>
      </trkpt>
      <trkpt lat="39.6780840" lon="-0.3883220">
        <ele>486.0</ele>
        <time>2022-11-06T08:37:50Z</time>
      </trkpt>
      <trkpt lat="39.6780440" lon="-0.3882850">
        <ele>485.9</ele>
        <time>2022-11-06T08:37:51Z</time>
      </trkpt>
      <trkpt lat="39.6780010" lon="-0.3882530">
        <ele>485.7</ele>
        <time>2022-11-06T08:37:52Z</time>
      </trkpt>
      <trkpt lat="39.6780010" lon="-0.3882530">
        <ele>485.7</ele>
        <time>2022-11-06T08:37:53Z</time>
      </trkpt>
      <trkpt lat="39.6780010" lon="-0.3882530">
        <ele>485.7</ele>
        <time>2022-11-06T08:37:54Z</time>
      </trkpt>
      <trkpt lat="39.6778750" lon="-0.3881750">
        <ele>484.7</ele>
        <time>2022-11-06T08:37:55Z</time>
      </trkpt>
      <trkpt lat="39.6778460" lon="-0.3881670">
        <ele>484.4</ele>
        <time>2022-11-06T08:37:56Z</time>
      </trkpt>
      <trkpt lat="39.6778110" lon="-0.3881570">
        <ele>484.2</ele>
        <time>2022-11-06T08:37:57Z</time>
      </trkpt>
      <trkpt lat="39.6777810" lon="-0.3881500">
        <ele>483.6</ele>
        <time>2022-11-06T08:37:58Z</time>
      </trkpt>
      <trkpt lat="39.6777460" lon="-0.3881280">
        <ele>483.1</ele>
        <time>2022-11-06T08:37:59Z</time>
      </trkpt>
      <trkpt lat="39.6777220" lon="-0.3881050">
        <ele>482.8</ele>
        <time>2022-11-06T08:38:00Z</time>
      </trkpt>
      <trkpt lat="39.6776950" lon="-0.3880680">
        <ele>482.3</ele>
        <time>2022-11-06T08:38:01Z</time>
      </trkpt>
      <trkpt lat="39.6776740" lon="-0.3880280">
        <ele>481.8</ele>
        <time>2022-11-06T08:38:02Z</time>
      </trkpt>
      <trkpt lat="39.6776580" lon="-0.3879800">
        <ele>481.3</ele>
        <time>2022-11-06T08:38:03Z</time>
      </trkpt>
      <trkpt lat="39.6776580" lon="-0.3879800">
        <ele>481.3</ele>
        <time>2022-11-06T08:38:04Z</time>
      </trkpt>
      <trkpt lat="39.6776580" lon="-0.3879800">
        <ele>481.3</ele>
        <time>2022-11-06T08:38:05Z</time>
      </trkpt>
      <trkpt lat="39.6776690" lon="-0.3878150">
        <ele>479.6</ele>
        <time>2022-11-06T08:38:06Z</time>
      </trkpt>
      <trkpt lat="39.6776740" lon="-0.3877500">
        <ele>478.9</ele>
        <time>2022-11-06T08:38:07Z</time>
      </trkpt>
      <trkpt lat="39.6776870" lon="-0.3876770">
        <ele>478.1</ele>
        <time>2022-11-06T08:38:08Z</time>
      </trkpt>
      <trkpt lat="39.6776930" lon="-0.3876020">
        <ele>477.3</ele>
        <time>2022-11-06T08:38:09Z</time>
      </trkpt>
      <trkpt lat="39.6777010" lon="-0.3875330">
        <ele>476.6</ele>
        <time>2022-11-06T08:38:10Z</time>
      </trkpt>
      <trkpt lat="39.6777110" lon="-0.3874770">
        <ele>476.0</ele>
        <time>2022-11-06T08:38:11Z</time>
      </trkpt>
      <trkpt lat="39.6777280" lon="-0.3874120">
        <ele>475.4</ele>
        <time>2022-11-06T08:38:12Z</time>
      </trkpt>
      <trkpt lat="39.6777460" lon="-0.3873520">
        <ele>474.8</ele>
        <time>2022-11-06T08:38:13Z</time>
      </trkpt>
      <trkpt lat="39.6777460" lon="-0.3873520">
        <ele>474.8</ele>
        <time>2022-11-06T08:38:14Z</time>
      </trkpt>
      <trkpt lat="39.6777870" lon="-0.3872220">
        <ele>473.5</ele>
        <time>2022-11-06T08:38:15Z</time>
      </trkpt>
      <trkpt lat="39.6778110" lon="-0.3871530">
        <ele>472.9</ele>
        <time>2022-11-06T08:38:16Z</time>
      </trkpt>
      <trkpt lat="39.6778400" lon="-0.3870850">
        <ele>472.2</ele>
        <time>2022-11-06T08:38:17Z</time>
      </trkpt>
      <trkpt lat="39.6778720" lon="-0.3870230">
        <ele>471.5</ele>
        <time>2022-11-06T08:38:18Z</time>
      </trkpt>
      <trkpt lat="39.6779070" lon="-0.3869730">
        <ele>470.9</ele>
        <time>2022-11-06T08:38:19Z</time>
      </trkpt>
      <trkpt lat="39.6779580" lon="-0.3869230">
        <ele>470.2</ele>
        <time>2022-11-06T08:38:20Z</time>
      </trkpt>
      <trkpt lat="39.6780010" lon="-0.3868750">
        <ele>469.6</ele>
        <time>2022-11-06T08:38:21Z</time>
      </trkpt>
      <trkpt lat="39.6780360" lon="-0.3868250">
        <ele>469.1</ele>
        <time>2022-11-06T08:38:22Z</time>
      </trkpt>
      <trkpt lat="39.6780550" lon="-0.3867530">
        <ele>468.6</ele>
        <time>2022-11-06T08:38:23Z</time>
      </trkpt>
      <trkpt lat="39.6780740" lon="-0.3866870">
        <ele>468.0</ele>
        <time>2022-11-06T08:38:24Z</time>
      </trkpt>
      <trkpt lat="39.6780740" lon="-0.3866870">
        <ele>468.0</ele>
        <time>2022-11-06T08:38:25Z</time>
      </trkpt>
      <trkpt lat="39.6781080" lon="-0.3865620">
        <ele>466.8</ele>
        <time>2022-11-06T08:38:26Z</time>
      </trkpt>
      <trkpt lat="39.6781080" lon="-0.3865180">
        <ele>466.3</ele>
        <time>2022-11-06T08:38:27Z</time>
      </trkpt>
      <trkpt lat="39.6780920" lon="-0.3864920">
        <ele>465.9</ele>
        <time>2022-11-06T08:38:28Z</time>
      </trkpt>
      <trkpt lat="39.6780740" lon="-0.3864850">
        <ele>465.6</ele>
        <time>2022-11-06T08:38:29Z</time>
      </trkpt>
      <trkpt lat="39.6780550" lon="-0.3864970">
        <ele>465.2</ele>
        <time>2022-11-06T08:38:30Z</time>
      </trkpt>
      <trkpt lat="39.6780440" lon="-0.3865200">
        <ele>464.9</ele>
        <time>2022-11-06T08:38:31Z</time>
      </trkpt>
      <trkpt lat="39.6780250" lon="-0.3865520">
        <ele>464.4</ele>
        <time>2022-11-06T08:38:32Z</time>
      </trkpt>
      <trkpt lat="39.6780090" lon="-0.3866050">
        <ele>463.6</ele>
        <time>2022-11-06T08:38:33Z</time>
      </trkpt>
      <trkpt lat="39.6780090" lon="-0.3866050">
        <ele>463.6</ele>
        <time>2022-11-06T08:38:34Z</time>
      </trkpt>
      <trkpt lat="39.6780090" lon="-0.3866050">
        <ele>463.6</ele>
        <time>2022-11-06T08:38:35Z</time>
      </trkpt>
      <trkpt lat="39.6778670" lon="-0.3867470">
        <ele>460.8</ele>
        <time>2022-11-06T08:38:36Z</time>
      </trkpt>
      <trkpt lat="39.6778000" lon="-0.3867880">
        <ele>459.8</ele>
        <time>2022-11-06T08:38:37Z</time>
      </trkpt>
      <trkpt lat="39.6777190" lon="-0.3868300">
        <ele>458.9</ele>
        <time>2022-11-06T08:38:38Z</time>
      </trkpt>
      <trkpt lat="39.6776470" lon="-0.3868720">
        <ele>458.1</ele>
        <time>2022-11-06T08:38:39Z</time>
      </trkpt>
      <trkpt lat="39.6775690" lon="-0.3869120">
        <ele>457.3</ele>
        <time>2022-11-06T08:38:40Z</time>
      </trkpt>
      <trkpt lat="39.6774970" lon="-0.3869470">
        <ele>456.7</ele>
        <time>2022-11-06T08:38:41Z</time>
      </trkpt>
      <trkpt lat="39.6774320" lon="-0.3869800">
        <ele>456.1</ele>
        <time>2022-11-06T08:38:42Z</time>
      </trkpt>
      <trkpt lat="39.6773790" lon="-0.3870100">
        <ele>455.6</ele>
        <time>2022-11-06T08:38:43Z</time>
      </trkpt>
      <trkpt lat="39.6773310" lon="-0.3870370">
        <ele>455.1</ele>
        <time>2022-11-06T08:38:44Z</time>
      </trkpt>
      <trkpt lat="39.6773310" lon="-0.3870370">
        <ele>455.1</ele>
        <time>2022-11-06T08:38:45Z</time>
      </trkpt>
      <trkpt lat="39.6773310" lon="-0.3870370">
        <ele>455.1</ele>
        <time>2022-11-06T08:38:46Z</time>
      </trkpt>
      <trkpt lat="39.6771780" lon="-0.3871280">
        <ele>453.0</ele>
        <time>2022-11-06T08:38:47Z</time>
      </trkpt>
      <trkpt lat="39.6771210" lon="-0.3871470">
        <ele>452.0</ele>
        <time>2022-11-06T08:38:48Z</time>
      </trkpt>
      <trkpt lat="39.6770600" lon="-0.3871470">
        <ele>450.9</ele>
        <time>2022-11-06T08:38:49Z</time>
      </trkpt>
      <trkpt lat="39.6769980" lon="-0.3871300">
        <ele>449.6</ele>
        <time>2022-11-06T08:38:50Z</time>
      </trkpt>
      <trkpt lat="39.6769340" lon="-0.3870970">
        <ele>448.2</ele>
        <time>2022-11-06T08:38:51Z</time>
      </trkpt>
      <trkpt lat="39.6768610" lon="-0.3870550">
        <ele>446.6</ele>
        <time>2022-11-06T08:38:52Z</time>
      </trkpt>
      <trkpt lat="39.6767970" lon="-0.3869980">
        <ele>445.1</ele>
        <time>2022-11-06T08:38:53Z</time>
      </trkpt>
      <trkpt lat="39.6767350" lon="-0.3869320">
        <ele>443.9</ele>
        <time>2022-11-06T08:38:54Z</time>
      </trkpt>
      <trkpt lat="39.6767350" lon="-0.3869320">
        <ele>443.9</ele>
        <time>2022-11-06T08:38:55Z</time>
      </trkpt>
      <trkpt lat="39.6766090" lon="-0.3867980">
        <ele>441.9</ele>
        <time>2022-11-06T08:38:56Z</time>
      </trkpt>
      <trkpt lat="39.6765530" lon="-0.3867250">
        <ele>441.3</ele>
        <time>2022-11-06T08:38:57Z</time>
      </trkpt>
      <trkpt lat="39.6764940" lon="-0.3866520">
        <ele>440.7</ele>
        <time>2022-11-06T08:38:58Z</time>
      </trkpt>
      <trkpt lat="39.6764290" lon="-0.3865820">
        <ele>440.1</ele>
        <time>2022-11-06T08:38:59Z</time>
      </trkpt>
      <trkpt lat="39.6763680" lon="-0.3865120">
        <ele>439.6</ele>
        <time>2022-11-06T08:39:00Z</time>
      </trkpt>
      <trkpt lat="39.6763030" lon="-0.3864380">
        <ele>439.1</ele>
        <time>2022-11-06T08:39:01Z</time>
      </trkpt>
      <trkpt lat="39.6762360" lon="-0.3863700">
        <ele>438.6</ele>
        <time>2022-11-06T08:39:02Z</time>
      </trkpt>
      <trkpt lat="39.6761660" lon="-0.3862950">
        <ele>438.1</ele>
        <time>2022-11-06T08:39:03Z</time>
      </trkpt>
      <trkpt lat="39.6760970" lon="-0.3862180">
        <ele>437.6</ele>
        <time>2022-11-06T08:39:04Z</time>
      </trkpt>
      <trkpt lat="39.6760380" lon="-0.3861370">
        <ele>437.3</ele>
        <time>2022-11-06T08:39:05Z</time>
      </trkpt>
      <trkpt lat="39.6760380" lon="-0.3861370">
        <ele>437.3</ele>
        <time>2022-11-06T08:39:06Z</time>
      </trkpt>
      <trkpt lat="39.6759200" lon="-0.3859880">
        <ele>437.6</ele>
        <time>2022-11-06T08:39:07Z</time>
      </trkpt>
      <trkpt lat="39.6758660" lon="-0.3859280">
        <ele>437.9</ele>
        <time>2022-11-06T08:39:08Z</time>
      </trkpt>
      <trkpt lat="39.6758070" lon="-0.3858870">
        <ele>438.4</ele>
        <time>2022-11-06T08:39:09Z</time>
      </trkpt>
      <trkpt lat="39.6757510" lon="-0.3858580">
        <ele>438.9</ele>
        <time>2022-11-06T08:39:10Z</time>
      </trkpt>
      <trkpt lat="39.6757020" lon="-0.3858300">
        <ele>439.3</ele>
        <time>2022-11-06T08:39:11Z</time>
      </trkpt>
      <trkpt lat="39.6756430" lon="-0.3858120">
        <ele>439.7</ele>
        <time>2022-11-06T08:39:12Z</time>
      </trkpt>
      <trkpt lat="39.6755900" lon="-0.3857950">
        <ele>440.1</ele>
        <time>2022-11-06T08:39:13Z</time>
      </trkpt>
      <trkpt lat="39.6755360" lon="-0.3857800">
        <ele>440.5</ele>
        <time>2022-11-06T08:39:14Z</time>
      </trkpt>
      <trkpt lat="39.6755360" lon="-0.3857800">
        <ele>440.5</ele>
        <time>2022-11-06T08:39:15Z</time>
      </trkpt>
      <trkpt lat="39.6755360" lon="-0.3857800">
        <ele>440.5</ele>
        <time>2022-11-06T08:39:16Z</time>
      </trkpt>
      <trkpt lat="39.6753780" lon="-0.3857420">
        <ele>441.2</ele>
        <time>2022-11-06T08:39:17Z</time>
      </trkpt>
      <trkpt lat="39.6753190" lon="-0.3857300">
        <ele>441.4</ele>
        <time>2022-11-06T08:39:18Z</time>
      </trkpt>
      <trkpt lat="39.6752630" lon="-0.3857100">
        <ele>441.7</ele>
        <time>2022-11-06T08:39:19Z</time>
      </trkpt>
      <trkpt lat="39.6752120" lon="-0.3856920">
        <ele>442.0</ele>
        <time>2022-11-06T08:39:20Z</time>
      </trkpt>
      <trkpt lat="39.6751550" lon="-0.3856720">
        <ele>442.5</ele>
        <time>2022-11-06T08:39:21Z</time>
      </trkpt>
      <trkpt lat="39.6751020" lon="-0.3856480">
        <ele>443.0</ele>
        <time>2022-11-06T08:39:22Z</time>
      </trkpt>
      <trkpt lat="39.6750530" lon="-0.3856300">
        <ele>443.5</ele>
        <time>2022-11-06T08:39:23Z</time>
      </trkpt>
      <trkpt lat="39.6750020" lon="-0.3856170">
        <ele>444.2</ele>
        <time>2022-11-06T08:39:24Z</time>
      </trkpt>
      <trkpt lat="39.6749620" lon="-0.3856050">
        <ele>444.8</ele>
        <time>2022-11-06T08:39:25Z</time>
      </trkpt>
      <trkpt lat="39.6749620" lon="-0.3856050">
        <ele>444.8</ele>
        <time>2022-11-06T08:39:26Z</time>
      </trkpt>
      <trkpt lat="39.6749620" lon="-0.3856050">
        <ele>444.8</ele>
        <time>2022-11-06T08:39:27Z</time>
      </trkpt>
      <trkpt lat="39.6748470" lon="-0.3856000">
        <ele>446.7</ele>
        <time>2022-11-06T08:39:28Z</time>
      </trkpt>
      <trkpt lat="39.6748090" lon="-0.3856020">
        <ele>447.3</ele>
        <time>2022-11-06T08:39:29Z</time>
      </trkpt>
      <trkpt lat="39.6747690" lon="-0.3856080">
        <ele>447.9</ele>
        <time>2022-11-06T08:39:30Z</time>
      </trkpt>
      <trkpt lat="39.6747370" lon="-0.3856100">
        <ele>448.4</ele>
        <time>2022-11-06T08:39:31Z</time>
      </trkpt>
      <trkpt lat="39.6747050" lon="-0.3856030">
        <ele>448.8</ele>
        <time>2022-11-06T08:39:32Z</time>
      </trkpt>
      <trkpt lat="39.6746750" lon="-0.3855980">
        <ele>449.2</ele>
        <time>2022-11-06T08:39:33Z</time>
      </trkpt>
      <trkpt lat="39.6746480" lon="-0.3855900">
        <ele>449.5</ele>
        <time>2022-11-06T08:39:34Z</time>
      </trkpt>
      <trkpt lat="39.6746220" lon="-0.3855770">
        <ele>449.7</ele>
        <time>2022-11-06T08:39:35Z</time>
      </trkpt>
      <trkpt lat="39.6746220" lon="-0.3855770">
        <ele>449.7</ele>
        <time>2022-11-06T08:39:36Z</time>
      </trkpt>
      <trkpt lat="39.6746220" lon="-0.3855770">
        <ele>449.7</ele>
        <time>2022-11-06T08:39:37Z</time>
      </trkpt>
      <trkpt lat="39.6745300" lon="-0.3855320">
        <ele>450.3</ele>
        <time>2022-11-06T08:39:38Z</time>
      </trkpt>
      <trkpt lat="39.6745140" lon="-0.3855120">
        <ele>450.3</ele>
        <time>2022-11-06T08:39:39Z</time>
      </trkpt>
      <trkpt lat="39.6745010" lon="-0.3854850">
        <ele>450.3</ele>
        <time>2022-11-06T08:39:40Z</time>
      </trkpt>
      <trkpt lat="39.6744870" lon="-0.3854580">
        <ele>450.2</ele>
        <time>2022-11-06T08:39:41Z</time>
      </trkpt>
      <trkpt lat="39.6744740" lon="-0.3854280">
        <ele>450.0</ele>
        <time>2022-11-06T08:39:42Z</time>
      </trkpt>
      <trkpt lat="39.6744580" lon="-0.3853970">
        <ele>449.8</ele>
        <time>2022-11-06T08:39:43Z</time>
      </trkpt>
      <trkpt lat="39.6744420" lon="-0.3853570">
        <ele>449.6</ele>
        <time>2022-11-06T08:39:44Z</time>
      </trkpt>
      <trkpt lat="39.6744260" lon="-0.3853050">
        <ele>448.9</ele>
        <time>2022-11-06T08:39:45Z</time>
      </trkpt>
      <trkpt lat="39.6744120" lon="-0.3852500">
        <ele>448.1</ele>
        <time>2022-11-06T08:39:46Z</time>
      </trkpt>
      <trkpt lat="39.6744120" lon="-0.3852500">
        <ele>448.1</ele>
        <time>2022-11-06T08:39:47Z</time>
      </trkpt>
      <trkpt lat="39.6743880" lon="-0.3851120">
        <ele>446.1</ele>
        <time>2022-11-06T08:39:48Z</time>
      </trkpt>
      <trkpt lat="39.6743800" lon="-0.3850370">
        <ele>445.0</ele>
        <time>2022-11-06T08:39:49Z</time>
      </trkpt>
      <trkpt lat="39.6743850" lon="-0.3849600">
        <ele>444.0</ele>
        <time>2022-11-06T08:39:50Z</time>
      </trkpt>
      <trkpt lat="39.6743940" lon="-0.3848780">
        <ele>442.9</ele>
        <time>2022-11-06T08:39:51Z</time>
      </trkpt>
      <trkpt lat="39.6744020" lon="-0.3847900">
        <ele>441.9</ele>
        <time>2022-11-06T08:39:52Z</time>
      </trkpt>
      <trkpt lat="39.6744040" lon="-0.3846900">
        <ele>440.8</ele>
        <time>2022-11-06T08:39:53Z</time>
      </trkpt>
      <trkpt lat="39.6744120" lon="-0.3846020">
        <ele>440.0</ele>
        <time>2022-11-06T08:39:54Z</time>
      </trkpt>
      <trkpt lat="39.6744120" lon="-0.3845230">
        <ele>439.3</ele>
        <time>2022-11-06T08:39:55Z</time>
      </trkpt>
      <trkpt lat="39.6744020" lon="-0.3844450">
        <ele>438.6</ele>
        <time>2022-11-06T08:39:56Z</time>
      </trkpt>
      <trkpt lat="39.6744020" lon="-0.3844450">
        <ele>438.6</ele>
        <time>2022-11-06T08:39:57Z</time>
      </trkpt>
      <trkpt lat="39.6743670" lon="-0.3843220">
        <ele>437.7</ele>
        <time>2022-11-06T08:39:58Z</time>
      </trkpt>
      <trkpt lat="39.6743240" lon="-0.3842850">
        <ele>437.2</ele>
        <time>2022-11-06T08:39:59Z</time>
      </trkpt>
      <trkpt lat="39.6742860" lon="-0.3842430">
        <ele>436.8</ele>
        <time>2022-11-06T08:40:00Z</time>
      </trkpt>
      <trkpt lat="39.6742590" lon="-0.3842230">
        <ele>436.6</ele>
        <time>2022-11-06T08:40:01Z</time>
      </trkpt>
      <trkpt lat="39.6742430" lon="-0.3842130">
        <ele>436.6</ele>
        <time>2022-11-06T08:40:02Z</time>
      </trkpt>
      <trkpt lat="39.6742350" lon="-0.3841980">
        <ele>436.5</ele>
        <time>2022-11-06T08:40:03Z</time>
      </trkpt>
      <trkpt lat="39.6742330" lon="-0.3841930">
        <ele>436.5</ele>
        <time>2022-11-06T08:40:04Z</time>
      </trkpt>
      <trkpt lat="39.6742250" lon="-0.3841780">
        <ele>436.5</ele>
        <time>2022-11-06T08:40:23Z</time>
      </trkpt>
      <trkpt lat="39.6742140" lon="-0.3841850">
        <ele>436.4</ele>
        <time>2022-11-06T08:40:24Z</time>
      </trkpt>
      <trkpt lat="39.6741980" lon="-0.3841930">
        <ele>436.4</ele>
        <time>2022-11-06T08:40:25Z</time>
      </trkpt>
      <trkpt lat="39.6741760" lon="-0.3841980">
        <ele>436.3</ele>
        <time>2022-11-06T08:40:26Z</time>
      </trkpt>
      <trkpt lat="39.6741520" lon="-0.3842130">
        <ele>436.2</ele>
        <time>2022-11-06T08:40:27Z</time>
      </trkpt>
      <trkpt lat="39.6741520" lon="-0.3842130">
        <ele>436.2</ele>
        <time>2022-11-06T08:40:28Z</time>
      </trkpt>
      <trkpt lat="39.6741520" lon="-0.3842130">
        <ele>436.2</ele>
        <time>2022-11-06T08:40:29Z</time>
      </trkpt>
      <trkpt lat="39.6740610" lon="-0.3842480">
        <ele>436.0</ele>
        <time>2022-11-06T08:40:30Z</time>
      </trkpt>
      <trkpt lat="39.6740230" lon="-0.3842630">
        <ele>435.9</ele>
        <time>2022-11-06T08:40:31Z</time>
      </trkpt>
      <trkpt lat="39.6739860" lon="-0.3842770">
        <ele>435.8</ele>
        <time>2022-11-06T08:40:32Z</time>
      </trkpt>
      <trkpt lat="39.6739460" lon="-0.3842920">
        <ele>435.7</ele>
        <time>2022-11-06T08:40:33Z</time>
      </trkpt>
      <trkpt lat="39.6739000" lon="-0.3843030">
        <ele>435.7</ele>
        <time>2022-11-06T08:40:34Z</time>
      </trkpt>
      <trkpt lat="39.6738540" lon="-0.3843130">
        <ele>435.6</ele>
        <time>2022-11-06T08:40:35Z</time>
      </trkpt>
      <trkpt lat="39.6738170" lon="-0.3843250">
        <ele>435.5</ele>
        <time>2022-11-06T08:40:36Z</time>
      </trkpt>
      <trkpt lat="39.6737740" lon="-0.3843350">
        <ele>435.5</ele>
        <time>2022-11-06T08:40:37Z</time>
      </trkpt>
      <trkpt lat="39.6737740" lon="-0.3843350">
        <ele>435.5</ele>
        <time>2022-11-06T08:40:38Z</time>
      </trkpt>
      <trkpt lat="39.6736930" lon="-0.3843580">
        <ele>435.4</ele>
        <time>2022-11-06T08:40:39Z</time>
      </trkpt>
      <trkpt lat="39.6736560" lon="-0.3843750">
        <ele>435.4</ele>
        <time>2022-11-06T08:40:40Z</time>
      </trkpt>
      <trkpt lat="39.6736160" lon="-0.3843980">
        <ele>435.3</ele>
        <time>2022-11-06T08:40:41Z</time>
      </trkpt>
      <trkpt lat="39.6735730" lon="-0.3844200">
        <ele>435.3</ele>
        <time>2022-11-06T08:40:42Z</time>
      </trkpt>
      <trkpt lat="39.6735350" lon="-0.3844380">
        <ele>435.3</ele>
        <time>2022-11-06T08:40:43Z</time>
      </trkpt>
      <trkpt lat="39.6734950" lon="-0.3844520">
        <ele>435.3</ele>
        <time>2022-11-06T08:40:44Z</time>
      </trkpt>
      <trkpt lat="39.6734570" lon="-0.3844670">
        <ele>435.2</ele>
        <time>2022-11-06T08:40:45Z</time>
      </trkpt>
      <trkpt lat="39.6734200" lon="-0.3844800">
        <ele>435.2</ele>
        <time>2022-11-06T08:40:46Z</time>
      </trkpt>
      <trkpt lat="39.6733820" lon="-0.3844930">
        <ele>435.2</ele>
        <time>2022-11-06T08:40:47Z</time>
      </trkpt>
      <trkpt lat="39.6733390" lon="-0.3845100">
        <ele>435.2</ele>
        <time>2022-11-06T08:40:48Z</time>
      </trkpt>
      <trkpt lat="39.6733390" lon="-0.3845100">
        <ele>435.2</ele>
        <time>2022-11-06T08:40:49Z</time>
      </trkpt>
      <trkpt lat="39.6732560" lon="-0.3845300">
        <ele>435.1</ele>
        <time>2022-11-06T08:40:50Z</time>
      </trkpt>
      <trkpt lat="39.6732130" lon="-0.3845420">
        <ele>435.1</ele>
        <time>2022-11-06T08:40:51Z</time>
      </trkpt>
      <trkpt lat="39.6731730" lon="-0.3845550">
        <ele>435.1</ele>
        <time>2022-11-06T08:40:52Z</time>
      </trkpt>
      <trkpt lat="39.6731300" lon="-0.3845650">
        <ele>435.1</ele>
        <time>2022-11-06T08:40:53Z</time>
      </trkpt>
      <trkpt lat="39.6730850" lon="-0.3845780">
        <ele>435.0</ele>
        <time>2022-11-06T08:40:54Z</time>
      </trkpt>
      <trkpt lat="39.6730420" lon="-0.3845900">
        <ele>435.0</ele>
        <time>2022-11-06T08:40:55Z</time>
      </trkpt>
      <trkpt lat="39.6729960" lon="-0.3846020">
        <ele>434.9</ele>
        <time>2022-11-06T08:40:56Z</time>
      </trkpt>
      <trkpt lat="39.6729590" lon="-0.3846100">
        <ele>434.8</ele>
        <time>2022-11-06T08:40:57Z</time>
      </trkpt>
      <trkpt lat="39.6729590" lon="-0.3846100">
        <ele>434.8</ele>
        <time>2022-11-06T08:40:58Z</time>
      </trkpt>
      <trkpt lat="39.6729590" lon="-0.3846100">
        <ele>434.8</ele>
        <time>2022-11-06T08:40:59Z</time>
      </trkpt>
      <trkpt lat="39.6728350" lon="-0.3846180">
        <ele>434.4</ele>
        <time>2022-11-06T08:41:00Z</time>
      </trkpt>
      <trkpt lat="39.6727980" lon="-0.3846130">
        <ele>434.2</ele>
        <time>2022-11-06T08:41:01Z</time>
      </trkpt>
      <trkpt lat="39.6727570" lon="-0.3846100">
        <ele>434.0</ele>
        <time>2022-11-06T08:41:02Z</time>
      </trkpt>
      <trkpt lat="39.6727170" lon="-0.3845980">
        <ele>433.7</ele>
        <time>2022-11-06T08:41:03Z</time>
      </trkpt>
      <trkpt lat="39.6726770" lon="-0.3845870">
        <ele>433.4</ele>
        <time>2022-11-06T08:41:04Z</time>
      </trkpt>
      <trkpt lat="39.6726340" lon="-0.3845700">
        <ele>433.0</ele>
        <time>2022-11-06T08:41:05Z</time>
      </trkpt>
      <trkpt lat="39.6725910" lon="-0.3845550">
        <ele>432.7</ele>
        <time>2022-11-06T08:41:06Z</time>
      </trkpt>
      <trkpt lat="39.6725510" lon="-0.3845300">
        <ele>432.2</ele>
        <time>2022-11-06T08:41:07Z</time>
      </trkpt>
      <trkpt lat="39.6725050" lon="-0.3845070">
        <ele>431.7</ele>
        <time>2022-11-06T08:41:08Z</time>
      </trkpt>
      <trkpt lat="39.6725050" lon="-0.3845070">
        <ele>431.7</ele>
        <time>2022-11-06T08:41:09Z</time>
      </trkpt>
      <trkpt lat="39.6725050" lon="-0.3845070">
        <ele>431.7</ele>
        <time>2022-11-06T08:41:10Z</time>
      </trkpt>
      <trkpt lat="39.6723550" lon="-0.3844050">
        <ele>430.0</ele>
        <time>2022-11-06T08:41:11Z</time>
      </trkpt>
      <trkpt lat="39.6722990" lon="-0.3843650">
        <ele>429.3</ele>
        <time>2022-11-06T08:41:12Z</time>
      </trkpt>
      <trkpt lat="39.6722370" lon="-0.3843220">
        <ele>428.7</ele>
        <time>2022-11-06T08:41:13Z</time>
      </trkpt>
      <trkpt lat="39.6721810" lon="-0.3842730">
        <ele>428.1</ele>
        <time>2022-11-06T08:41:14Z</time>
      </trkpt>
      <trkpt lat="39.6721190" lon="-0.3842230">
        <ele>427.4</ele>
        <time>2022-11-06T08:41:15Z</time>
      </trkpt>
      <trkpt lat="39.6720550" lon="-0.3841720">
        <ele>426.8</ele>
        <time>2022-11-06T08:41:16Z</time>
      </trkpt>
      <trkpt lat="39.6719930" lon="-0.3841170">
        <ele>426.1</ele>
        <time>2022-11-06T08:41:17Z</time>
      </trkpt>
      <trkpt lat="39.6719310" lon="-0.3840620">
        <ele>425.5</ele>
        <time>2022-11-06T08:41:18Z</time>
      </trkpt>
      <trkpt lat="39.6719310" lon="-0.3840620">
        <ele>425.5</ele>
        <time>2022-11-06T08:41:19Z</time>
      </trkpt>
      <trkpt lat="39.6718210" lon="-0.3839280">
        <ele>424.2</ele>
        <time>2022-11-06T08:41:20Z</time>
      </trkpt>
      <trkpt lat="39.6717650" lon="-0.3838580">
        <ele>423.5</ele>
        <time>2022-11-06T08:41:21Z</time>
      </trkpt>
      <trkpt lat="39.6717060" lon="-0.3837850">
        <ele>422.8</ele>
        <time>2022-11-06T08:41:22Z</time>
      </trkpt>
      <trkpt lat="39.6716500" lon="-0.3837220">
        <ele>422.2</ele>
        <time>2022-11-06T08:41:23Z</time>
      </trkpt>
      <trkpt lat="39.6715880" lon="-0.3836770">
        <ele>421.7</ele>
        <time>2022-11-06T08:41:24Z</time>
      </trkpt>
      <trkpt lat="39.6715210" lon="-0.3836370">
        <ele>421.3</ele>
        <time>2022-11-06T08:41:25Z</time>
      </trkpt>
      <trkpt lat="39.6714570" lon="-0.3836080">
        <ele>420.8</ele>
        <time>2022-11-06T08:41:26Z</time>
      </trkpt>
      <trkpt lat="39.6713870" lon="-0.3835880">
        <ele>420.3</ele>
        <time>2022-11-06T08:41:27Z</time>
      </trkpt>
      <trkpt lat="39.6713220" lon="-0.3835650">
        <ele>419.8</ele>
        <time>2022-11-06T08:41:28Z</time>
      </trkpt>
      <trkpt lat="39.6712530" lon="-0.3835350">
        <ele>419.2</ele>
        <time>2022-11-06T08:41:29Z</time>
      </trkpt>
      <trkpt lat="39.6712530" lon="-0.3835350">
        <ele>419.2</ele>
        <time>2022-11-06T08:41:30Z</time>
      </trkpt>
      <trkpt lat="39.6711400" lon="-0.3834620">
        <ele>418.0</ele>
        <time>2022-11-06T08:41:31Z</time>
      </trkpt>
      <trkpt lat="39.6710920" lon="-0.3834120">
        <ele>417.2</ele>
        <time>2022-11-06T08:41:32Z</time>
      </trkpt>
      <trkpt lat="39.6710520" lon="-0.3833570">
        <ele>416.4</ele>
        <time>2022-11-06T08:41:33Z</time>
      </trkpt>
      <trkpt lat="39.6710170" lon="-0.3832950">
        <ele>415.5</ele>
        <time>2022-11-06T08:41:34Z</time>
      </trkpt>
      <trkpt lat="39.6709710" lon="-0.3832280">
        <ele>414.4</ele>
        <time>2022-11-06T08:41:35Z</time>
      </trkpt>
      <trkpt lat="39.6709200" lon="-0.3831570">
        <ele>413.2</ele>
        <time>2022-11-06T08:41:36Z</time>
      </trkpt>
      <trkpt lat="39.6708610" lon="-0.3830800">
        <ele>411.8</ele>
        <time>2022-11-06T08:41:37Z</time>
      </trkpt>
      <trkpt lat="39.6708020" lon="-0.3830130">
        <ele>410.7</ele>
        <time>2022-11-06T08:41:38Z</time>
      </trkpt>
      <trkpt lat="39.6707380" lon="-0.3829630">
        <ele>409.7</ele>
        <time>2022-11-06T08:41:39Z</time>
      </trkpt>
      <trkpt lat="39.6707380" lon="-0.3829630">
        <ele>409.7</ele>
        <time>2022-11-06T08:41:40Z</time>
      </trkpt>
      <trkpt lat="39.6706120" lon="-0.3828770">
        <ele>408.0</ele>
        <time>2022-11-06T08:41:41Z</time>
      </trkpt>
      <trkpt lat="39.6705580" lon="-0.3828380">
        <ele>407.3</ele>
        <time>2022-11-06T08:41:42Z</time>
      </trkpt>
      <trkpt lat="39.6705100" lon="-0.3828050">
        <ele>406.8</ele>
        <time>2022-11-06T08:41:43Z</time>
      </trkpt>
      <trkpt lat="39.6704560" lon="-0.3827770">
        <ele>406.1</ele>
        <time>2022-11-06T08:41:44Z</time>
      </trkpt>
      <trkpt lat="39.6704050" lon="-0.3827450">
        <ele>405.5</ele>
        <time>2022-11-06T08:41:45Z</time>
      </trkpt>
      <trkpt lat="39.6703540" lon="-0.3827070">
        <ele>404.9</ele>
        <time>2022-11-06T08:41:46Z</time>
      </trkpt>
      <trkpt lat="39.6703000" lon="-0.3826530">
        <ele>404.3</ele>
        <time>2022-11-06T08:41:47Z</time>
      </trkpt>
      <trkpt lat="39.6702390" lon="-0.3826000">
        <ele>403.5</ele>
        <time>2022-11-06T08:41:48Z</time>
      </trkpt>
      <trkpt lat="39.6701820" lon="-0.3825470">
        <ele>402.8</ele>
        <time>2022-11-06T08:41:49Z</time>
      </trkpt>
      <trkpt lat="39.6701820" lon="-0.3825470">
        <ele>402.8</ele>
        <time>2022-11-06T08:41:50Z</time>
      </trkpt>
      <trkpt lat="39.6701820" lon="-0.3825470">
        <ele>402.8</ele>
        <time>2022-11-06T08:41:51Z</time>
      </trkpt>
      <trkpt lat="39.6699970" lon="-0.3823630">
        <ele>400.4</ele>
        <time>2022-11-06T08:41:52Z</time>
      </trkpt>
      <trkpt lat="39.6699410" lon="-0.3822920">
        <ele>399.6</ele>
        <time>2022-11-06T08:41:53Z</time>
      </trkpt>
      <trkpt lat="39.6698870" lon="-0.3822270">
        <ele>398.7</ele>
        <time>2022-11-06T08:41:54Z</time>
      </trkpt>
      <trkpt lat="39.6698310" lon="-0.3821620">
        <ele>397.8</ele>
        <time>2022-11-06T08:41:55Z</time>
      </trkpt>
      <trkpt lat="39.6697770" lon="-0.3820930">
        <ele>396.8</ele>
        <time>2022-11-06T08:41:56Z</time>
      </trkpt>
      <trkpt lat="39.6697240" lon="-0.3820250">
        <ele>395.8</ele>
        <time>2022-11-06T08:41:57Z</time>
      </trkpt>
      <trkpt lat="39.6696700" lon="-0.3819600">
        <ele>394.7</ele>
        <time>2022-11-06T08:41:58Z</time>
      </trkpt>
      <trkpt lat="39.6696080" lon="-0.3819050">
        <ele>393.6</ele>
        <time>2022-11-06T08:41:59Z</time>
      </trkpt>
      <trkpt lat="39.6696080" lon="-0.3819050">
        <ele>393.6</ele>
        <time>2022-11-06T08:42:00Z</time>
      </trkpt>
      <trkpt lat="39.6696080" lon="-0.3819050">
        <ele>393.6</ele>
        <time>2022-11-06T08:42:01Z</time>
      </trkpt>
      <trkpt lat="39.6693990" lon="-0.3818280">
        <ele>390.2</ele>
        <time>2022-11-06T08:42:02Z</time>
      </trkpt>
      <trkpt lat="39.6693240" lon="-0.3818200">
        <ele>388.9</ele>
        <time>2022-11-06T08:42:03Z</time>
      </trkpt>
      <trkpt lat="39.6692440" lon="-0.3818080">
        <ele>387.6</ele>
        <time>2022-11-06T08:42:04Z</time>
      </trkpt>
      <trkpt lat="39.6691710" lon="-0.3817920">
        <ele>386.6</ele>
        <time>2022-11-06T08:42:05Z</time>
      </trkpt>
      <trkpt lat="39.6691020" lon="-0.3817680">
        <ele>385.5</ele>
        <time>2022-11-06T08:42:06Z</time>
      </trkpt>
      <trkpt lat="39.6690320" lon="-0.3817450">
        <ele>384.5</ele>
        <time>2022-11-06T08:42:07Z</time>
      </trkpt>
      <trkpt lat="39.6689730" lon="-0.3817130">
        <ele>383.6</ele>
        <time>2022-11-06T08:42:08Z</time>
      </trkpt>
      <trkpt lat="39.6689110" lon="-0.3816720">
        <ele>382.6</ele>
        <time>2022-11-06T08:42:09Z</time>
      </trkpt>
      <trkpt lat="39.6688550" lon="-0.3816180">
        <ele>381.7</ele>
        <time>2022-11-06T08:42:10Z</time>
      </trkpt>
      <trkpt lat="39.6688550" lon="-0.3816180">
        <ele>381.7</ele>
        <time>2022-11-06T08:42:11Z</time>
      </trkpt>
      <trkpt lat="39.6687390" lon="-0.3814820">
        <ele>379.6</ele>
        <time>2022-11-06T08:42:12Z</time>
      </trkpt>
      <trkpt lat="39.6686780" lon="-0.3814230">
        <ele>378.6</ele>
        <time>2022-11-06T08:42:13Z</time>
      </trkpt>
      <trkpt lat="39.6686240" lon="-0.3813900">
        <ele>377.9</ele>
        <time>2022-11-06T08:42:14Z</time>
      </trkpt>
      <trkpt lat="39.6685700" lon="-0.3813830">
        <ele>377.3</ele>
        <time>2022-11-06T08:42:15Z</time>
      </trkpt>
      <trkpt lat="39.6685220" lon="-0.3814000">
        <ele>376.6</ele>
        <time>2022-11-06T08:42:16Z</time>
      </trkpt>
      <trkpt lat="39.6684790" lon="-0.3814270">
        <ele>376.0</ele>
        <time>2022-11-06T08:42:17Z</time>
      </trkpt>
      <trkpt lat="39.6684340" lon="-0.3814680">
        <ele>375.2</ele>
        <time>2022-11-06T08:42:18Z</time>
      </trkpt>
      <trkpt lat="39.6683990" lon="-0.3815180">
        <ele>374.6</ele>
        <time>2022-11-06T08:42:19Z</time>
      </trkpt>
      <trkpt lat="39.6683690" lon="-0.3815720">
        <ele>374.0</ele>
        <time>2022-11-06T08:42:20Z</time>
      </trkpt>
      <trkpt lat="39.6683690" lon="-0.3815720">
        <ele>374.0</ele>
        <time>2022-11-06T08:42:21Z</time>
      </trkpt>
      <trkpt lat="39.6683210" lon="-0.3816820">
        <ele>372.7</ele>
        <time>2022-11-06T08:42:22Z</time>
      </trkpt>
      <trkpt lat="39.6682970" lon="-0.3817400">
        <ele>372.1</ele>
        <time>2022-11-06T08:42:23Z</time>
      </trkpt>
      <trkpt lat="39.6682730" lon="-0.3818100">
        <ele>371.4</ele>
        <time>2022-11-06T08:42:24Z</time>
      </trkpt>
      <trkpt lat="39.6682460" lon="-0.3818850">
        <ele>370.6</ele>
        <time>2022-11-06T08:42:25Z</time>
      </trkpt>
      <trkpt lat="39.6682160" lon="-0.3819680">
        <ele>369.7</ele>
        <time>2022-11-06T08:42:26Z</time>
      </trkpt>
      <trkpt lat="39.6681900" lon="-0.3820520">
        <ele>368.9</ele>
        <time>2022-11-06T08:42:27Z</time>
      </trkpt>
      <trkpt lat="39.6681680" lon="-0.3821370">
        <ele>368.0</ele>
        <time>2022-11-06T08:42:28Z</time>
      </trkpt>
      <trkpt lat="39.6681490" lon="-0.3822180">
        <ele>367.1</ele>
        <time>2022-11-06T08:42:29Z</time>
      </trkpt>
      <trkpt lat="39.6681280" lon="-0.3822980">
        <ele>366.2</ele>
        <time>2022-11-06T08:42:30Z</time>
      </trkpt>
      <trkpt lat="39.6681280" lon="-0.3822980">
        <ele>366.2</ele>
        <time>2022-11-06T08:42:31Z</time>
      </trkpt>
      <trkpt lat="39.6681280" lon="-0.3822980">
        <ele>366.2</ele>
        <time>2022-11-06T08:42:32Z</time>
      </trkpt>
      <trkpt lat="39.6680800" lon="-0.3825370">
        <ele>363.4</ele>
        <time>2022-11-06T08:42:33Z</time>
      </trkpt>
      <trkpt lat="39.6680640" lon="-0.3826080">
        <ele>362.6</ele>
        <time>2022-11-06T08:42:34Z</time>
      </trkpt>
      <trkpt lat="39.6680450" lon="-0.3826770">
        <ele>361.8</ele>
        <time>2022-11-06T08:42:35Z</time>
      </trkpt>
      <trkpt lat="39.6680370" lon="-0.3827520">
        <ele>361.0</ele>
        <time>2022-11-06T08:42:36Z</time>
      </trkpt>
      <trkpt lat="39.6680290" lon="-0.3828220">
        <ele>360.3</ele>
        <time>2022-11-06T08:42:37Z</time>
      </trkpt>
      <trkpt lat="39.6680290" lon="-0.3828850">
        <ele>359.6</ele>
        <time>2022-11-06T08:42:38Z</time>
      </trkpt>
      <trkpt lat="39.6680260" lon="-0.3829420">
        <ele>359.1</ele>
        <time>2022-11-06T08:42:39Z</time>
      </trkpt>
      <trkpt lat="39.6680230" lon="-0.3830070">
        <ele>358.5</ele>
        <time>2022-11-06T08:42:40Z</time>
      </trkpt>
      <trkpt lat="39.6680230" lon="-0.3830070">
        <ele>358.5</ele>
        <time>2022-11-06T08:42:41Z</time>
      </trkpt>
      <trkpt lat="39.6680230" lon="-0.3830070">
        <ele>358.5</ele>
        <time>2022-11-06T08:42:42Z</time>
      </trkpt>
      <trkpt lat="39.6680530" lon="-0.3832200">
        <ele>356.7</ele>
        <time>2022-11-06T08:42:43Z</time>
      </trkpt>
      <trkpt lat="39.6680900" lon="-0.3832950">
        <ele>355.9</ele>
        <time>2022-11-06T08:42:44Z</time>
      </trkpt>
      <trkpt lat="39.6681330" lon="-0.3833780">
        <ele>355.1</ele>
        <time>2022-11-06T08:42:45Z</time>
      </trkpt>
      <trkpt lat="39.6681730" lon="-0.3834680">
        <ele>354.1</ele>
        <time>2022-11-06T08:42:46Z</time>
      </trkpt>
      <trkpt lat="39.6682060" lon="-0.3835680">
        <ele>353.1</ele>
        <time>2022-11-06T08:42:47Z</time>
      </trkpt>
      <trkpt lat="39.6682240" lon="-0.3836750">
        <ele>352.1</ele>
        <time>2022-11-06T08:42:48Z</time>
      </trkpt>
      <trkpt lat="39.6682410" lon="-0.3837850">
        <ele>351.0</ele>
        <time>2022-11-06T08:42:49Z</time>
      </trkpt>
      <trkpt lat="39.6682430" lon="-0.3838880">
        <ele>349.9</ele>
        <time>2022-11-06T08:42:50Z</time>
      </trkpt>
      <trkpt lat="39.6682330" lon="-0.3840050">
        <ele>348.7</ele>
        <time>2022-11-06T08:42:51Z</time>
      </trkpt>
      <trkpt lat="39.6682330" lon="-0.3840050">
        <ele>348.7</ele>
        <time>2022-11-06T08:42:52Z</time>
      </trkpt>
      <trkpt lat="39.6682330" lon="-0.3840050">
        <ele>348.7</ele>
        <time>2022-11-06T08:42:53Z</time>
      </trkpt>
      <trkpt lat="39.6681950" lon="-0.3843820">
        <ele>345.2</ele>
        <time>2022-11-06T08:42:54Z</time>
      </trkpt>
      <trkpt lat="39.6681730" lon="-0.3845170">
        <ele>344.0</ele>
        <time>2022-11-06T08:42:55Z</time>
      </trkpt>
      <trkpt lat="39.6681600" lon="-0.3846600">
        <ele>342.7</ele>
        <time>2022-11-06T08:42:56Z</time>
      </trkpt>
      <trkpt lat="39.6681360" lon="-0.3848080">
        <ele>341.4</ele>
        <time>2022-11-06T08:42:57Z</time>
      </trkpt>
      <trkpt lat="39.6681140" lon="-0.3849580">
        <ele>340.1</ele>
        <time>2022-11-06T08:42:58Z</time>
      </trkpt>
      <trkpt lat="39.6680900" lon="-0.3851070">
        <ele>338.7</ele>
        <time>2022-11-06T08:42:59Z</time>
      </trkpt>
      <trkpt lat="39.6680640" lon="-0.3852530">
        <ele>337.4</ele>
        <time>2022-11-06T08:43:00Z</time>
      </trkpt>
      <trkpt lat="39.6680230" lon="-0.3853950">
        <ele>336.0</ele>
        <time>2022-11-06T08:43:01Z</time>
      </trkpt>
      <trkpt lat="39.6680230" lon="-0.3853950">
        <ele>336.0</ele>
        <time>2022-11-06T08:43:02Z</time>
      </trkpt>
      <trkpt lat="39.6679620" lon="-0.3856530">
        <ele>333.3</ele>
        <time>2022-11-06T08:43:03Z</time>
      </trkpt>
      <trkpt lat="39.6679370" lon="-0.3857630">
        <ele>332.0</ele>
        <time>2022-11-06T08:43:04Z</time>
      </trkpt>
      <trkpt lat="39.6679240" lon="-0.3858720">
        <ele>330.7</ele>
        <time>2022-11-06T08:43:05Z</time>
      </trkpt>
      <trkpt lat="39.6679000" lon="-0.3859580">
        <ele>329.7</ele>
        <time>2022-11-06T08:43:06Z</time>
      </trkpt>
      <trkpt lat="39.6678810" lon="-0.3860520">
        <ele>328.5</ele>
        <time>2022-11-06T08:43:07Z</time>
      </trkpt>
      <trkpt lat="39.6678730" lon="-0.3861380">
        <ele>327.4</ele>
        <time>2022-11-06T08:43:08Z</time>
      </trkpt>
      <trkpt lat="39.6678650" lon="-0.3862230">
        <ele>326.3</ele>
        <time>2022-11-06T08:43:09Z</time>
      </trkpt>
      <trkpt lat="39.6678650" lon="-0.3863080">
        <ele>325.2</ele>
        <time>2022-11-06T08:43:10Z</time>
      </trkpt>
      <trkpt lat="39.6678700" lon="-0.3863980">
        <ele>323.9</ele>
        <time>2022-11-06T08:43:11Z</time>
      </trkpt>
      <trkpt lat="39.6678730" lon="-0.3864920">
        <ele>322.5</ele>
        <time>2022-11-06T08:43:12Z</time>
      </trkpt>
      <trkpt lat="39.6678730" lon="-0.3864920">
        <ele>322.5</ele>
        <time>2022-11-06T08:43:13Z</time>
      </trkpt>
      <trkpt lat="39.6678840" lon="-0.3866600">
        <ele>320.2</ele>
        <time>2022-11-06T08:43:14Z</time>
      </trkpt>
      <trkpt lat="39.6678890" lon="-0.3867230">
        <ele>319.3</ele>
        <time>2022-11-06T08:43:15Z</time>
      </trkpt>
      <trkpt lat="39.6678920" lon="-0.3868020">
        <ele>318.2</ele>
        <time>2022-11-06T08:43:16Z</time>
      </trkpt>
      <trkpt lat="39.6678920" lon="-0.3868780">
        <ele>317.2</ele>
        <time>2022-11-06T08:43:17Z</time>
      </trkpt>
      <trkpt lat="39.6678840" lon="-0.3869450">
        <ele>316.3</ele>
        <time>2022-11-06T08:43:18Z</time>
      </trkpt>
      <trkpt lat="39.6678730" lon="-0.3869970">
        <ele>315.7</ele>
        <time>2022-11-06T08:43:19Z</time>
      </trkpt>
      <trkpt lat="39.6678520" lon="-0.3870330">
        <ele>315.1</ele>
        <time>2022-11-06T08:43:20Z</time>
      </trkpt>
      <trkpt lat="39.6678250" lon="-0.3870680">
        <ele>314.3</ele>
        <time>2022-11-06T08:43:21Z</time>
      </trkpt>
      <trkpt lat="39.6678250" lon="-0.3870680">
        <ele>314.3</ele>
        <time>2022-11-06T08:43:22Z</time>
      </trkpt>
      <trkpt lat="39.6678250" lon="-0.3870680">
        <ele>314.3</ele>
        <time>2022-11-06T08:43:23Z</time>
      </trkpt>
      <trkpt lat="39.6677090" lon="-0.3870630">
        <ele>312.9</ele>
        <time>2022-11-06T08:43:24Z</time>
      </trkpt>
      <trkpt lat="39.6676750" lon="-0.3870150">
        <ele>312.4</ele>
        <time>2022-11-06T08:43:25Z</time>
      </trkpt>
      <trkpt lat="39.6676450" lon="-0.3869650">
        <ele>311.9</ele>
        <time>2022-11-06T08:43:26Z</time>
      </trkpt>
      <trkpt lat="39.6676080" lon="-0.3869000">
        <ele>311.4</ele>
        <time>2022-11-06T08:43:27Z</time>
      </trkpt>
      <trkpt lat="39.6675650" lon="-0.3868450">
        <ele>311.0</ele>
        <time>2022-11-06T08:43:28Z</time>
      </trkpt>
      <trkpt lat="39.6675220" lon="-0.3867830">
        <ele>310.5</ele>
        <time>2022-11-06T08:43:29Z</time>
      </trkpt>
      <trkpt lat="39.6674760" lon="-0.3867230">
        <ele>310.0</ele>
        <time>2022-11-06T08:43:30Z</time>
      </trkpt>
      <trkpt lat="39.6674140" lon="-0.3866800">
        <ele>309.5</ele>
        <time>2022-11-06T08:43:31Z</time>
      </trkpt>
      <trkpt lat="39.6673470" lon="-0.3866470">
        <ele>309.0</ele>
        <time>2022-11-06T08:43:32Z</time>
      </trkpt>
      <trkpt lat="39.6673470" lon="-0.3866470">
        <ele>309.0</ele>
        <time>2022-11-06T08:43:33Z</time>
      </trkpt>
      <trkpt lat="39.6673470" lon="-0.3866470">
        <ele>309.0</ele>
        <time>2022-11-06T08:43:34Z</time>
      </trkpt>
      <trkpt lat="39.6671490" lon="-0.3865500">
        <ele>306.8</ele>
        <time>2022-11-06T08:43:35Z</time>
      </trkpt>
      <trkpt lat="39.6670950" lon="-0.3865020">
        <ele>306.0</ele>
        <time>2022-11-06T08:43:36Z</time>
      </trkpt>
      <trkpt lat="39.6670500" lon="-0.3864380">
        <ele>305.2</ele>
        <time>2022-11-06T08:43:37Z</time>
      </trkpt>
      <trkpt lat="39.6670040" lon="-0.3863670">
        <ele>304.4</ele>
        <time>2022-11-06T08:43:38Z</time>
      </trkpt>
      <trkpt lat="39.6669610" lon="-0.3862950">
        <ele>303.6</ele>
        <time>2022-11-06T08:43:39Z</time>
      </trkpt>
      <trkpt lat="39.6669070" lon="-0.3862380">
        <ele>303.0</ele>
        <time>2022-11-06T08:43:40Z</time>
      </trkpt>
      <trkpt lat="39.6668510" lon="-0.3862000">
        <ele>302.6</ele>
        <time>2022-11-06T08:43:41Z</time>
      </trkpt>
      <trkpt lat="39.6667890" lon="-0.3861800">
        <ele>302.2</ele>
        <time>2022-11-06T08:43:42Z</time>
      </trkpt>
      <trkpt lat="39.6667890" lon="-0.3861800">
        <ele>302.2</ele>
        <time>2022-11-06T08:43:43Z</time>
      </trkpt>
      <trkpt lat="39.6666630" lon="-0.3861670">
        <ele>301.5</ele>
        <time>2022-11-06T08:43:44Z</time>
      </trkpt>
      <trkpt lat="39.6666040" lon="-0.3861550">
        <ele>301.1</ele>
        <time>2022-11-06T08:43:45Z</time>
      </trkpt>
      <trkpt lat="39.6665370" lon="-0.3861250">
        <ele>300.5</ele>
        <time>2022-11-06T08:43:46Z</time>
      </trkpt>
      <trkpt lat="39.6664620" lon="-0.3860930">
        <ele>299.9</ele>
        <time>2022-11-06T08:43:47Z</time>
      </trkpt>
      <trkpt lat="39.6663980" lon="-0.3860480">
        <ele>299.2</ele>
        <time>2022-11-06T08:43:48Z</time>
      </trkpt>
      <trkpt lat="39.6663250" lon="-0.3859970">
        <ele>298.4</ele>
        <time>2022-11-06T08:43:49Z</time>
      </trkpt>
      <trkpt lat="39.6662480" lon="-0.3859500">
        <ele>297.7</ele>
        <time>2022-11-06T08:43:50Z</time>
      </trkpt>
      <trkpt lat="39.6661560" lon="-0.3859250">
        <ele>296.9</ele>
        <time>2022-11-06T08:43:51Z</time>
      </trkpt>
      <trkpt lat="39.6660630" lon="-0.3859120">
        <ele>296.2</ele>
        <time>2022-11-06T08:43:52Z</time>
      </trkpt>
      <trkpt lat="39.6659660" lon="-0.3858980">
        <ele>295.7</ele>
        <time>2022-11-06T08:43:53Z</time>
      </trkpt>
      <trkpt lat="39.6659660" lon="-0.3858980">
        <ele>295.7</ele>
        <time>2022-11-06T08:43:54Z</time>
      </trkpt>
      <trkpt lat="39.6658130" lon="-0.3858130">
        <ele>295.0</ele>
        <time>2022-11-06T08:43:55Z</time>
      </trkpt>
      <trkpt lat="39.6657600" lon="-0.3857300">
        <ele>294.8</ele>
        <time>2022-11-06T08:43:56Z</time>
      </trkpt>
      <trkpt lat="39.6657140" lon="-0.3856450">
        <ele>294.6</ele>
        <time>2022-11-06T08:43:57Z</time>
      </trkpt>
      <trkpt lat="39.6656710" lon="-0.3855720">
        <ele>294.3</ele>
        <time>2022-11-06T08:43:58Z</time>
      </trkpt>
      <trkpt lat="39.6656230" lon="-0.3855150">
        <ele>294.0</ele>
        <time>2022-11-06T08:43:59Z</time>
      </trkpt>
      <trkpt lat="39.6655740" lon="-0.3855000">
        <ele>293.6</ele>
        <time>2022-11-06T08:44:00Z</time>
      </trkpt>
      <trkpt lat="39.6655150" lon="-0.3855070">
        <ele>293.2</ele>
        <time>2022-11-06T08:44:01Z</time>
      </trkpt>
      <trkpt lat="39.6654670" lon="-0.3855230">
        <ele>292.7</ele>
        <time>2022-11-06T08:44:02Z</time>
      </trkpt>
      <trkpt lat="39.6654030" lon="-0.3855570">
        <ele>292.0</ele>
        <time>2022-11-06T08:44:03Z</time>
      </trkpt>
      <trkpt lat="39.6654030" lon="-0.3855570">
        <ele>292.0</ele>
        <time>2022-11-06T08:44:04Z</time>
      </trkpt>
      <trkpt lat="39.6652770" lon="-0.3856530">
        <ele>290.3</ele>
        <time>2022-11-06T08:44:05Z</time>
      </trkpt>
      <trkpt lat="39.6652100" lon="-0.3856930">
        <ele>289.5</ele>
        <time>2022-11-06T08:44:06Z</time>
      </trkpt>
      <trkpt lat="39.6651530" lon="-0.3857030">
        <ele>288.9</ele>
        <time>2022-11-06T08:44:07Z</time>
      </trkpt>
      <trkpt lat="39.6651050" lon="-0.3856970">
        <ele>288.3</ele>
        <time>2022-11-06T08:44:08Z</time>
      </trkpt>
      <trkpt lat="39.6650460" lon="-0.3856720">
        <ele>287.7</ele>
        <time>2022-11-06T08:44:09Z</time>
      </trkpt>
      <trkpt lat="39.6649920" lon="-0.3856270">
        <ele>287.0</ele>
        <time>2022-11-06T08:44:10Z</time>
      </trkpt>
      <trkpt lat="39.6649330" lon="-0.3855720">
        <ele>286.3</ele>
        <time>2022-11-06T08:44:11Z</time>
      </trkpt>
      <trkpt lat="39.6648640" lon="-0.3855170">
        <ele>285.5</ele>
        <time>2022-11-06T08:44:12Z</time>
      </trkpt>
      <trkpt lat="39.6647890" lon="-0.3854580">
        <ele>284.7</ele>
        <time>2022-11-06T08:44:13Z</time>
      </trkpt>
      <trkpt lat="39.6647890" lon="-0.3854580">
        <ele>284.7</ele>
        <time>2022-11-06T08:44:14Z</time>
      </trkpt>
      <trkpt lat="39.6647890" lon="-0.3854580">
        <ele>284.7</ele>
        <time>2022-11-06T08:44:15Z</time>
      </trkpt>
      <trkpt lat="39.6645930" lon="-0.3852330">
        <ele>281.3</ele>
        <time>2022-11-06T08:44:16Z</time>
      </trkpt>
      <trkpt lat="39.6645390" lon="-0.3851420">
        <ele>279.9</ele>
        <time>2022-11-06T08:44:17Z</time>
      </trkpt>
      <trkpt lat="39.6644960" lon="-0.3850480">
        <ele>278.7</ele>
        <time>2022-11-06T08:44:18Z</time>
      </trkpt>
      <trkpt lat="39.6644450" lon="-0.3849620">
        <ele>277.5</ele>
        <time>2022-11-06T08:44:19Z</time>
      </trkpt>
      <trkpt lat="39.6643840" lon="-0.3848870">
        <ele>276.3</ele>
        <time>2022-11-06T08:44:20Z</time>
      </trkpt>
      <trkpt lat="39.6643220" lon="-0.3848200">
        <ele>275.1</ele>
        <time>2022-11-06T08:44:21Z</time>
      </trkpt>
      <trkpt lat="39.6642660" lon="-0.3847520">
        <ele>273.8</ele>
        <time>2022-11-06T08:44:22Z</time>
      </trkpt>
      <trkpt lat="39.6642200" lon="-0.3846800">
        <ele>272.5</ele>
        <time>2022-11-06T08:44:23Z</time>
      </trkpt>
      <trkpt lat="39.6642200" lon="-0.3846800">
        <ele>272.5</ele>
        <time>2022-11-06T08:44:24Z</time>
      </trkpt>
      <trkpt lat="39.6642200" lon="-0.3846800">
        <ele>272.5</ele>
        <time>2022-11-06T08:44:25Z</time>
      </trkpt>
      <trkpt lat="39.6640860" lon="-0.3843950">
        <ele>267.7</ele>
        <time>2022-11-06T08:44:26Z</time>
      </trkpt>
      <trkpt lat="39.6640290" lon="-0.3842930">
        <ele>266.3</ele>
        <time>2022-11-06T08:44:27Z</time>
      </trkpt>
      <trkpt lat="39.6639600" lon="-0.3842030">
        <ele>265.0</ele>
        <time>2022-11-06T08:44:28Z</time>
      </trkpt>
      <trkpt lat="39.6638820" lon="-0.3841170">
        <ele>263.6</ele>
        <time>2022-11-06T08:44:29Z</time>
      </trkpt>
      <trkpt lat="39.6638070" lon="-0.3840280">
        <ele>262.2</ele>
        <time>2022-11-06T08:44:30Z</time>
      </trkpt>
      <trkpt lat="39.6637260" lon="-0.3839370">
        <ele>260.8</ele>
        <time>2022-11-06T08:44:31Z</time>
      </trkpt>
      <trkpt lat="39.6636430" lon="-0.3838350">
        <ele>259.6</ele>
        <time>2022-11-06T08:44:32Z</time>
      </trkpt>
      <trkpt lat="39.6635650" lon="-0.3837350">
        <ele>258.7</ele>
        <time>2022-11-06T08:44:33Z</time>
      </trkpt>
      <trkpt lat="39.6634900" lon="-0.3836330">
        <ele>258.0</ele>
        <time>2022-11-06T08:44:34Z</time>
      </trkpt>
      <trkpt lat="39.6634900" lon="-0.3836330">
        <ele>258.0</ele>
        <time>2022-11-06T08:44:35Z</time>
      </trkpt>
      <trkpt lat="39.6633350" lon="-0.3834480">
        <ele>257.1</ele>
        <time>2022-11-06T08:44:36Z</time>
      </trkpt>
      <trkpt lat="39.6632490" lon="-0.3833670">
        <ele>256.9</ele>
        <time>2022-11-06T08:44:37Z</time>
      </trkpt>
      <trkpt lat="39.6631580" lon="-0.3832820">
        <ele>257.0</ele>
        <time>2022-11-06T08:44:38Z</time>
      </trkpt>
      <trkpt lat="39.6630750" lon="-0.3832080">
        <ele>257.2</ele>
        <time>2022-11-06T08:44:39Z</time>
      </trkpt>
      <trkpt lat="39.6630000" lon="-0.3831370">
        <ele>257.6</ele>
        <time>2022-11-06T08:44:40Z</time>
      </trkpt>
      <trkpt lat="39.6629300" lon="-0.3830670">
        <ele>258.1</ele>
        <time>2022-11-06T08:44:41Z</time>
      </trkpt>
      <trkpt lat="39.6628650" lon="-0.3830000">
        <ele>258.5</ele>
        <time>2022-11-06T08:44:42Z</time>
      </trkpt>
      <trkpt lat="39.6628060" lon="-0.3829430">
        <ele>258.9</ele>
        <time>2022-11-06T08:44:43Z</time>
      </trkpt>
      <trkpt lat="39.6627610" lon="-0.3828870">
        <ele>259.1</ele>
        <time>2022-11-06T08:44:44Z</time>
      </trkpt>
      <trkpt lat="39.6626700" lon="-0.3827830">
        <ele>259.2</ele>
        <time>2022-11-06T08:44:45Z</time>
      </trkpt>
      <trkpt lat="39.6626700" lon="-0.3827830">
        <ele>259.2</ele>
        <time>2022-11-06T08:44:46Z</time>
      </trkpt>
      <trkpt lat="39.6626290" lon="-0.3827370">
        <ele>259.1</ele>
        <time>2022-11-06T08:44:47Z</time>
      </trkpt>
      <trkpt lat="39.6625810" lon="-0.3826870">
        <ele>258.8</ele>
        <time>2022-11-06T08:44:48Z</time>
      </trkpt>
      <trkpt lat="39.6625410" lon="-0.3826270">
        <ele>258.5</ele>
        <time>2022-11-06T08:44:49Z</time>
      </trkpt>
      <trkpt lat="39.6624980" lon="-0.3825650">
        <ele>258.0</ele>
        <time>2022-11-06T08:44:50Z</time>
      </trkpt>
      <trkpt lat="39.6624580" lon="-0.3824950">
        <ele>257.6</ele>
        <time>2022-11-06T08:44:51Z</time>
      </trkpt>
      <trkpt lat="39.6624090" lon="-0.3824200">
        <ele>257.0</ele>
        <time>2022-11-06T08:44:52Z</time>
      </trkpt>
      <trkpt lat="39.6623610" lon="-0.3823430">
        <ele>256.5</ele>
        <time>2022-11-06T08:44:53Z</time>
      </trkpt>
      <trkpt lat="39.6623130" lon="-0.3822600">
        <ele>256.0</ele>
        <time>2022-11-06T08:44:54Z</time>
      </trkpt>
      <trkpt lat="39.6622700" lon="-0.3821730">
        <ele>255.5</ele>
        <time>2022-11-06T08:44:55Z</time>
      </trkpt>
      <trkpt lat="39.6622700" lon="-0.3821730">
        <ele>255.5</ele>
        <time>2022-11-06T08:44:56Z</time>
      </trkpt>
      <trkpt lat="39.6621650" lon="-0.3820080">
        <ele>254.4</ele>
        <time>2022-11-06T08:44:57Z</time>
      </trkpt>
      <trkpt lat="39.6621140" lon="-0.3819300">
        <ele>253.9</ele>
        <time>2022-11-06T08:44:58Z</time>
      </trkpt>
      <trkpt lat="39.6620610" lon="-0.3818470">
        <ele>253.3</ele>
        <time>2022-11-06T08:44:59Z</time>
      </trkpt>
      <trkpt lat="39.6620070" lon="-0.3817600">
        <ele>252.8</ele>
        <time>2022-11-06T08:45:00Z</time>
      </trkpt>
      <trkpt lat="39.6619530" lon="-0.3816700">
        <ele>252.3</ele>
        <time>2022-11-06T08:45:01Z</time>
      </trkpt>
      <trkpt lat="39.6618940" lon="-0.3815800">
        <ele>251.8</ele>
        <time>2022-11-06T08:45:02Z</time>
      </trkpt>
      <trkpt lat="39.6618380" lon="-0.3814950">
        <ele>251.3</ele>
        <time>2022-11-06T08:45:03Z</time>
      </trkpt>
      <trkpt lat="39.6617760" lon="-0.3814180">
        <ele>250.8</ele>
        <time>2022-11-06T08:45:04Z</time>
      </trkpt>
      <trkpt lat="39.6617760" lon="-0.3814180">
        <ele>250.8</ele>
        <time>2022-11-06T08:45:05Z</time>
      </trkpt>
      <trkpt lat="39.6615650" lon="-0.3812430">
        <ele>248.8</ele>
        <time>2022-11-06T08:45:06Z</time>
      </trkpt>
      <trkpt lat="39.6615650" lon="-0.3812430">
        <ele>248.8</ele>
        <time>2022-11-06T08:45:07Z</time>
      </trkpt>
      <trkpt lat="39.6614870" lon="-0.3811830">
        <ele>247.9</ele>
        <time>2022-11-06T08:45:08Z</time>
      </trkpt>
      <trkpt lat="39.6614120" lon="-0.3811150">
        <ele>247.1</ele>
        <time>2022-11-06T08:45:09Z</time>
      </trkpt>
      <trkpt lat="39.6613340" lon="-0.3810400">
        <ele>246.2</ele>
        <time>2022-11-06T08:45:10Z</time>
      </trkpt>
      <trkpt lat="39.6612590" lon="-0.3809600">
        <ele>245.3</ele>
        <time>2022-11-06T08:45:11Z</time>
      </trkpt>
      <trkpt lat="39.6611890" lon="-0.3808820">
        <ele>244.3</ele>
        <time>2022-11-06T08:45:12Z</time>
      </trkpt>
      <trkpt lat="39.6611250" lon="-0.3808200">
        <ele>243.5</ele>
        <time>2022-11-06T08:45:13Z</time>
      </trkpt>
      <trkpt lat="39.6610680" lon="-0.3807480">
        <ele>242.5</ele>
        <time>2022-11-06T08:45:14Z</time>
      </trkpt>
      <trkpt lat="39.6610120" lon="-0.3806680">
        <ele>241.5</ele>
        <time>2022-11-06T08:45:15Z</time>
      </trkpt>
      <trkpt lat="39.6610120" lon="-0.3806680">
        <ele>241.5</ele>
        <time>2022-11-06T08:45:16Z</time>
      </trkpt>
      <trkpt lat="39.6610120" lon="-0.3806680">
        <ele>241.5</ele>
        <time>2022-11-06T08:45:17Z</time>
      </trkpt>
      <trkpt lat="39.6607970" lon="-0.3804500">
        <ele>238.5</ele>
        <time>2022-11-06T08:45:18Z</time>
      </trkpt>
      <trkpt lat="39.6607140" lon="-0.3803880">
        <ele>237.7</ele>
        <time>2022-11-06T08:45:19Z</time>
      </trkpt>
      <trkpt lat="39.6606280" lon="-0.3803230">
        <ele>236.9</ele>
        <time>2022-11-06T08:45:20Z</time>
      </trkpt>
      <trkpt lat="39.6605530" lon="-0.3802620">
        <ele>236.3</ele>
        <time>2022-11-06T08:45:21Z</time>
      </trkpt>
      <trkpt lat="39.6604840" lon="-0.3802170">
        <ele>235.9</ele>
        <time>2022-11-06T08:45:22Z</time>
      </trkpt>
      <trkpt lat="39.6604350" lon="-0.3801930">
        <ele>235.6</ele>
        <time>2022-11-06T08:45:23Z</time>
      </trkpt>
      <trkpt lat="39.6603920" lon="-0.3801770">
        <ele>235.2</ele>
        <time>2022-11-06T08:45:24Z</time>
      </trkpt>
      <trkpt lat="39.6603630" lon="-0.3801630">
        <ele>235.4</ele>
        <time>2022-11-06T08:45:25Z</time>
      </trkpt>
      <trkpt lat="39.6603470" lon="-0.3801320">
        <ele>235.5</ele>
        <time>2022-11-06T08:45:26Z</time>
      </trkpt>
      <trkpt lat="39.6603490" lon="-0.3801150">
        <ele>235.6</ele>
        <time>2022-11-06T08:45:27Z</time>
      </trkpt>
      <trkpt lat="39.6603490" lon="-0.3801150">
        <ele>235.6</ele>
        <time>2022-11-06T08:45:28Z</time>
      </trkpt>
      <trkpt lat="39.6603660" lon="-0.3801030">
        <ele>235.7</ele>
        <time>2022-11-06T08:45:29Z</time>
      </trkpt>
      <trkpt lat="39.6603740" lon="-0.3800920">
        <ele>235.8</ele>
        <time>2022-11-06T08:45:30Z</time>
      </trkpt>
      <trkpt lat="39.6603760" lon="-0.3800950">
        <ele>235.8</ele>
        <time>2022-11-06T08:45:31Z</time>
      </trkpt>
      <trkpt lat="39.6603900" lon="-0.3801050">
        <ele>235.9</ele>
        <time>2022-11-06T08:45:32Z</time>
      </trkpt>
      <trkpt lat="39.6603980" lon="-0.3801230">
        <ele>236.0</ele>
        <time>2022-11-06T08:45:33Z</time>
      </trkpt>
      <trkpt lat="39.6603980" lon="-0.3801380">
        <ele>236.0</ele>
        <time>2022-11-06T08:45:34Z</time>
      </trkpt>
      <trkpt lat="39.6603900" lon="-0.3801430">
        <ele>236.1</ele>
        <time>2022-11-06T08:45:35Z</time>
      </trkpt>
      <trkpt lat="39.6603760" lon="-0.3801430">
        <ele>236.1</ele>
        <time>2022-11-06T08:45:36Z</time>
      </trkpt>
      <trkpt lat="39.6603490" lon="-0.3801400">
        <ele>236.3</ele>
        <time>2022-11-06T08:45:37Z</time>
      </trkpt>
      <trkpt lat="39.6603490" lon="-0.3801400">
        <ele>236.3</ele>
        <time>2022-11-06T08:45:38Z</time>
      </trkpt>
      <trkpt lat="39.6603470" lon="-0.3801470">
        <ele>236.3</ele>
        <time>2022-11-06T08:45:39Z</time>
      </trkpt>
      <trkpt lat="39.6603440" lon="-0.3801570">
        <ele>236.3</ele>
        <time>2022-11-06T08:45:40Z</time>
      </trkpt>
      <trkpt lat="39.6603440" lon="-0.3801580">
        <ele>236.3</ele>
        <time>2022-11-06T08:45:41Z</time>
      </trkpt>
      <trkpt lat="39.6603470" lon="-0.3801700">
        <ele>236.4</ele>
        <time>2022-11-06T08:45:52Z</time>
      </trkpt>
      <trkpt lat="39.6603470" lon="-0.3801800">
        <ele>236.4</ele>
        <time>2022-11-06T08:45:53Z</time>
      </trkpt>
      <trkpt lat="39.6603470" lon="-0.3801930">
        <ele>236.5</ele>
        <time>2022-11-06T08:45:54Z</time>
      </trkpt>
      <trkpt lat="39.6603440" lon="-0.3802150">
        <ele>236.6</ele>
        <time>2022-11-06T08:45:55Z</time>
      </trkpt>
      <trkpt lat="39.6603440" lon="-0.3802370">
        <ele>236.7</ele>
        <time>2022-11-06T08:45:56Z</time>
      </trkpt>
      <trkpt lat="39.6603440" lon="-0.3802370">
        <ele>236.7</ele>
        <time>2022-11-06T08:45:57Z</time>
      </trkpt>
      <trkpt lat="39.6603280" lon="-0.3803130">
        <ele>237.0</ele>
        <time>2022-11-06T08:45:58Z</time>
      </trkpt>
      <trkpt lat="39.6603280" lon="-0.3803130">
        <ele>237.0</ele>
        <time>2022-11-06T08:45:59Z</time>
      </trkpt>
      <trkpt lat="39.6603250" lon="-0.3803350">
        <ele>237.1</ele>
        <time>2022-11-06T08:46:00Z</time>
      </trkpt>
      <trkpt lat="39.6603170" lon="-0.3803670">
        <ele>237.2</ele>
        <time>2022-11-06T08:46:01Z</time>
      </trkpt>
      <trkpt lat="39.6603090" lon="-0.3803920">
        <ele>237.3</ele>
        <time>2022-11-06T08:46:02Z</time>
      </trkpt>
      <trkpt lat="39.6603040" lon="-0.3804180">
        <ele>237.5</ele>
        <time>2022-11-06T08:46:03Z</time>
      </trkpt>
      <trkpt lat="39.6602990" lon="-0.3804470">
        <ele>237.6</ele>
        <time>2022-11-06T08:46:04Z</time>
      </trkpt>
      <trkpt lat="39.6602930" lon="-0.3804750">
        <ele>237.7</ele>
        <time>2022-11-06T08:46:05Z</time>
      </trkpt>
      <trkpt lat="39.6602850" lon="-0.3805030">
        <ele>237.8</ele>
        <time>2022-11-06T08:46:06Z</time>
      </trkpt>
      <trkpt lat="39.6602740" lon="-0.3805650">
        <ele>238.1</ele>
        <time>2022-11-06T08:46:07Z</time>
      </trkpt>
      <trkpt lat="39.6602660" lon="-0.3806020">
        <ele>238.2</ele>
        <time>2022-11-06T08:46:08Z</time>
      </trkpt>
      <trkpt lat="39.6602640" lon="-0.3806420">
        <ele>238.3</ele>
        <time>2022-11-06T08:46:09Z</time>
      </trkpt>
      <trkpt lat="39.6602640" lon="-0.3806420">
        <ele>238.3</ele>
        <time>2022-11-06T08:46:10Z</time>
      </trkpt>
      <trkpt lat="39.6602640" lon="-0.3806780">
        <ele>238.5</ele>
        <time>2022-11-06T08:46:11Z</time>
      </trkpt>
      <trkpt lat="39.6602560" lon="-0.3807050">
        <ele>238.6</ele>
        <time>2022-11-06T08:46:12Z</time>
      </trkpt>
      <trkpt lat="39.6602530" lon="-0.3807430">
        <ele>238.7</ele>
        <time>2022-11-06T08:46:13Z</time>
      </trkpt>
      <trkpt lat="39.6602530" lon="-0.3807820">
        <ele>238.8</ele>
        <time>2022-11-06T08:46:14Z</time>
      </trkpt>
      <trkpt lat="39.6602530" lon="-0.3808170">
        <ele>238.9</ele>
        <time>2022-11-06T08:46:15Z</time>
      </trkpt>
      <trkpt lat="39.6602530" lon="-0.3808630">
        <ele>239.1</ele>
        <time>2022-11-06T08:46:16Z</time>
      </trkpt>
      <trkpt lat="39.6602530" lon="-0.3809050">
        <ele>239.2</ele>
        <time>2022-11-06T08:46:17Z</time>
      </trkpt>
      <trkpt lat="39.6602530" lon="-0.3809800">
        <ele>239.4</ele>
        <time>2022-11-06T08:46:18Z</time>
      </trkpt>
      <trkpt lat="39.6602480" lon="-0.3810220">
        <ele>239.5</ele>
        <time>2022-11-06T08:46:19Z</time>
      </trkpt>
      <trkpt lat="39.6602480" lon="-0.3810220">
        <ele>239.5</ele>
        <time>2022-11-06T08:46:20Z</time>
      </trkpt>
      <trkpt lat="39.6602400" lon="-0.3810580">
        <ele>239.6</ele>
        <time>2022-11-06T08:46:21Z</time>
      </trkpt>
      <trkpt lat="39.6602370" lon="-0.3810880">
        <ele>239.7</ele>
        <time>2022-11-06T08:46:22Z</time>
      </trkpt>
      <trkpt lat="39.6602290" lon="-0.3811320">
        <ele>239.8</ele>
        <time>2022-11-06T08:46:23Z</time>
      </trkpt>
      <trkpt lat="39.6602260" lon="-0.3811750">
        <ele>239.9</ele>
        <time>2022-11-06T08:46:24Z</time>
      </trkpt>
      <trkpt lat="39.6602210" lon="-0.3812130">
        <ele>240.0</ele>
        <time>2022-11-06T08:46:25Z</time>
      </trkpt>
      <trkpt lat="39.6602130" lon="-0.3812470">
        <ele>240.1</ele>
        <time>2022-11-06T08:46:26Z</time>
      </trkpt>
      <trkpt lat="39.6602130" lon="-0.3812470">
        <ele>240.1</ele>
        <time>2022-11-06T08:46:27Z</time>
      </trkpt>
      <trkpt lat="39.6601860" lon="-0.3813570">
        <ele>240.3</ele>
        <time>2022-11-06T08:46:28Z</time>
      </trkpt>
      <trkpt lat="39.6601780" lon="-0.3813980">
        <ele>240.5</ele>
        <time>2022-11-06T08:46:29Z</time>
      </trkpt>
      <trkpt lat="39.6601780" lon="-0.3814470">
        <ele>240.5</ele>
        <time>2022-11-06T08:46:30Z</time>
      </trkpt>
      <trkpt lat="39.6601780" lon="-0.3814470">
        <ele>240.5</ele>
        <time>2022-11-06T08:46:31Z</time>
      </trkpt>
      <trkpt lat="39.6601830" lon="-0.3814930">
        <ele>240.5</ele>
        <time>2022-11-06T08:46:32Z</time>
      </trkpt>
      <trkpt lat="39.6601940" lon="-0.3815400">
        <ele>240.4</ele>
        <time>2022-11-06T08:46:33Z</time>
      </trkpt>
      <trkpt lat="39.6602100" lon="-0.3815850">
        <ele>240.4</ele>
        <time>2022-11-06T08:46:34Z</time>
      </trkpt>
      <trkpt lat="39.6602370" lon="-0.3816270">
        <ele>240.2</ele>
        <time>2022-11-06T08:46:35Z</time>
      </trkpt>
      <trkpt lat="39.6602560" lon="-0.3816770">
        <ele>240.1</ele>
        <time>2022-11-06T08:46:36Z</time>
      </trkpt>
      <trkpt lat="39.6602770" lon="-0.3817220">
        <ele>240.0</ele>
        <time>2022-11-06T08:46:37Z</time>
      </trkpt>
      <trkpt lat="39.6602770" lon="-0.3817220">
        <ele>240.0</ele>
        <time>2022-11-06T08:46:38Z</time>
      </trkpt>
      <trkpt lat="39.6603710" lon="-0.3818920">
        <ele>239.3</ele>
        <time>2022-11-06T08:46:39Z</time>
      </trkpt>
      <trkpt lat="39.6603980" lon="-0.3819450">
        <ele>239.1</ele>
        <time>2022-11-06T08:46:40Z</time>
      </trkpt>
      <trkpt lat="39.6603980" lon="-0.3819450">
        <ele>239.1</ele>
        <time>2022-11-06T08:46:41Z</time>
      </trkpt>
      <trkpt lat="39.6604190" lon="-0.3820170">
        <ele>238.8</ele>
        <time>2022-11-06T08:46:42Z</time>
      </trkpt>
      <trkpt lat="39.6604430" lon="-0.3820970">
        <ele>238.5</ele>
        <time>2022-11-06T08:46:43Z</time>
      </trkpt>
      <trkpt lat="39.6604620" lon="-0.3821770">
        <ele>238.1</ele>
        <time>2022-11-06T08:46:44Z</time>
      </trkpt>
      <trkpt lat="39.6604810" lon="-0.3822580">
        <ele>237.8</ele>
        <time>2022-11-06T08:46:45Z</time>
      </trkpt>
      <trkpt lat="39.6605000" lon="-0.3823370">
        <ele>237.4</ele>
        <time>2022-11-06T08:46:46Z</time>
      </trkpt>
      <trkpt lat="39.6605290" lon="-0.3824130">
        <ele>237.0</ele>
        <time>2022-11-06T08:46:47Z</time>
      </trkpt>
      <trkpt lat="39.6605290" lon="-0.3824130">
        <ele>237.0</ele>
        <time>2022-11-06T08:46:48Z</time>
      </trkpt>
      <trkpt lat="39.6606360" lon="-0.3826400">
        <ele>235.8</ele>
        <time>2022-11-06T08:46:49Z</time>
      </trkpt>
      <trkpt lat="39.6606710" lon="-0.3827100">
        <ele>235.4</ele>
        <time>2022-11-06T08:46:50Z</time>
      </trkpt>
      <trkpt lat="39.6607060" lon="-0.3827900">
        <ele>235.1</ele>
        <time>2022-11-06T08:46:51Z</time>
      </trkpt>
      <trkpt lat="39.6607060" lon="-0.3827900">
        <ele>235.1</ele>
        <time>2022-11-06T08:46:52Z</time>
      </trkpt>
      <trkpt lat="39.6607440" lon="-0.3828780">
        <ele>234.7</ele>
        <time>2022-11-06T08:46:53Z</time>
      </trkpt>
      <trkpt lat="39.6607810" lon="-0.3829600">
        <ele>234.4</ele>
        <time>2022-11-06T08:46:54Z</time>
      </trkpt>
      <trkpt lat="39.6608240" lon="-0.3830430">
        <ele>234.1</ele>
        <time>2022-11-06T08:46:55Z</time>
      </trkpt>
      <trkpt lat="39.6608700" lon="-0.3831270">
        <ele>233.9</ele>
        <time>2022-11-06T08:46:56Z</time>
      </trkpt>
      <trkpt lat="39.6609070" lon="-0.3832050">
        <ele>233.8</ele>
        <time>2022-11-06T08:46:57Z</time>
      </trkpt>
      <trkpt lat="39.6609420" lon="-0.3832820">
        <ele>233.8</ele>
        <time>2022-11-06T08:46:58Z</time>
      </trkpt>
      <trkpt lat="39.6610120" lon="-0.3834300">
        <ele>233.8</ele>
        <time>2022-11-06T08:46:59Z</time>
      </trkpt>
      <trkpt lat="39.6610440" lon="-0.3834930">
        <ele>233.8</ele>
        <time>2022-11-06T08:47:00Z</time>
      </trkpt>
      <trkpt lat="39.6610760" lon="-0.3835550">
        <ele>233.8</ele>
        <time>2022-11-06T08:47:01Z</time>
      </trkpt>
      <trkpt lat="39.6610760" lon="-0.3835550">
        <ele>233.8</ele>
        <time>2022-11-06T08:47:02Z</time>
      </trkpt>
      <trkpt lat="39.6611110" lon="-0.3836170">
        <ele>233.8</ele>
        <time>2022-11-06T08:47:03Z</time>
      </trkpt>
      <trkpt lat="39.6611410" lon="-0.3836720">
        <ele>233.8</ele>
        <time>2022-11-06T08:47:04Z</time>
      </trkpt>
      <trkpt lat="39.6611760" lon="-0.3837250">
        <ele>233.8</ele>
        <time>2022-11-06T08:47:05Z</time>
      </trkpt>
      <trkpt lat="39.6612050" lon="-0.3837720">
        <ele>233.8</ele>
        <time>2022-11-06T08:47:06Z</time>
      </trkpt>
      <trkpt lat="39.6612400" lon="-0.3838250">
        <ele>233.8</ele>
        <time>2022-11-06T08:47:07Z</time>
      </trkpt>
      <trkpt lat="39.6612690" lon="-0.3838830">
        <ele>233.8</ele>
        <time>2022-11-06T08:47:08Z</time>
      </trkpt>
      <trkpt lat="39.6613390" lon="-0.3839900">
        <ele>233.9</ele>
        <time>2022-11-06T08:47:09Z</time>
      </trkpt>
      <trkpt lat="39.6613740" lon="-0.3840430">
        <ele>234.0</ele>
        <time>2022-11-06T08:47:10Z</time>
      </trkpt>
      <trkpt lat="39.6614140" lon="-0.3840930">
        <ele>234.0</ele>
        <time>2022-11-06T08:47:11Z</time>
      </trkpt>
      <trkpt lat="39.6614550" lon="-0.3841430">
        <ele>234.1</ele>
        <time>2022-11-06T08:47:12Z</time>
      </trkpt>
      <trkpt lat="39.6614550" lon="-0.3841430">
        <ele>234.1</ele>
        <time>2022-11-06T08:47:13Z</time>
      </trkpt>
      <trkpt lat="39.6614920" lon="-0.3841920">
        <ele>234.1</ele>
        <time>2022-11-06T08:47:14Z</time>
      </trkpt>
      <trkpt lat="39.6615300" lon="-0.3842380">
        <ele>234.2</ele>
        <time>2022-11-06T08:47:15Z</time>
      </trkpt>
      <trkpt lat="39.6615670" lon="-0.3842830">
        <ele>234.2</ele>
        <time>2022-11-06T08:47:16Z</time>
      </trkpt>
      <trkpt lat="39.6616050" lon="-0.3843270">
        <ele>234.3</ele>
        <time>2022-11-06T08:47:17Z</time>
      </trkpt>
      <trkpt lat="39.6616400" lon="-0.3843680">
        <ele>234.3</ele>
        <time>2022-11-06T08:47:18Z</time>
      </trkpt>
      <trkpt lat="39.6616400" lon="-0.3843680">
        <ele>234.3</ele>
        <time>2022-11-06T08:47:19Z</time>
      </trkpt>
      <trkpt lat="39.6617440" lon="-0.3845100">
        <ele>234.2</ele>
        <time>2022-11-06T08:47:20Z</time>
      </trkpt>
      <trkpt lat="39.6617740" lon="-0.3845580">
        <ele>234.2</ele>
        <time>2022-11-06T08:47:21Z</time>
      </trkpt>
      <trkpt lat="39.6618090" lon="-0.3846070">
        <ele>234.2</ele>
        <time>2022-11-06T08:47:22Z</time>
      </trkpt>
      <trkpt lat="39.6618090" lon="-0.3846070">
        <ele>234.2</ele>
        <time>2022-11-06T08:47:23Z</time>
      </trkpt>
      <trkpt lat="39.6618380" lon="-0.3846570">
        <ele>234.2</ele>
        <time>2022-11-06T08:47:24Z</time>
      </trkpt>
      <trkpt lat="39.6618730" lon="-0.3847050">
        <ele>234.1</ele>
        <time>2022-11-06T08:47:25Z</time>
      </trkpt>
      <trkpt lat="39.6619020" lon="-0.3847550">
        <ele>234.0</ele>
        <time>2022-11-06T08:47:26Z</time>
      </trkpt>
      <trkpt lat="39.6619430" lon="-0.3848080">
        <ele>233.9</ele>
        <time>2022-11-06T08:47:27Z</time>
      </trkpt>
      <trkpt lat="39.6619750" lon="-0.3848620">
        <ele>233.8</ele>
        <time>2022-11-06T08:47:28Z</time>
      </trkpt>
      <trkpt lat="39.6619750" lon="-0.3848620">
        <ele>233.8</ele>
        <time>2022-11-06T08:47:29Z</time>
      </trkpt>
      <trkpt lat="39.6620710" lon="-0.3850450">
        <ele>233.1</ele>
        <time>2022-11-06T08:47:30Z</time>
      </trkpt>
      <trkpt lat="39.6621010" lon="-0.3851170">
        <ele>232.8</ele>
        <time>2022-11-06T08:47:31Z</time>
      </trkpt>
      <trkpt lat="39.6621280" lon="-0.3851920">
        <ele>232.5</ele>
        <time>2022-11-06T08:47:32Z</time>
      </trkpt>
      <trkpt lat="39.6621600" lon="-0.3852650">
        <ele>232.3</ele>
        <time>2022-11-06T08:47:33Z</time>
      </trkpt>
      <trkpt lat="39.6621600" lon="-0.3852650">
        <ele>232.3</ele>
        <time>2022-11-06T08:47:34Z</time>
      </trkpt>
      <trkpt lat="39.6621920" lon="-0.3853380">
        <ele>232.0</ele>
        <time>2022-11-06T08:47:35Z</time>
      </trkpt>
      <trkpt lat="39.6622190" lon="-0.3854100">
        <ele>231.9</ele>
        <time>2022-11-06T08:47:36Z</time>
      </trkpt>
      <trkpt lat="39.6622510" lon="-0.3854770">
        <ele>231.8</ele>
        <time>2022-11-06T08:47:37Z</time>
      </trkpt>
      <trkpt lat="39.6622810" lon="-0.3855350">
        <ele>231.8</ele>
        <time>2022-11-06T08:47:38Z</time>
      </trkpt>
      <trkpt lat="39.6623130" lon="-0.3855820">
        <ele>231.8</ele>
        <time>2022-11-06T08:47:39Z</time>
      </trkpt>
      <trkpt lat="39.6623610" lon="-0.3856780">
        <ele>231.9</ele>
        <time>2022-11-06T08:47:40Z</time>
      </trkpt>
      <trkpt lat="39.6623910" lon="-0.3857200">
        <ele>232.0</ele>
        <time>2022-11-06T08:47:41Z</time>
      </trkpt>
      <trkpt lat="39.6624260" lon="-0.3857500">
        <ele>232.1</ele>
        <time>2022-11-06T08:47:42Z</time>
      </trkpt>
      <trkpt lat="39.6624600" lon="-0.3857820">
        <ele>232.2</ele>
        <time>2022-11-06T08:47:43Z</time>
      </trkpt>
      <trkpt lat="39.6624600" lon="-0.3857820">
        <ele>232.2</ele>
        <time>2022-11-06T08:47:44Z</time>
      </trkpt>
      <trkpt lat="39.6624950" lon="-0.3858150">
        <ele>232.4</ele>
        <time>2022-11-06T08:47:45Z</time>
      </trkpt>
      <trkpt lat="39.6625350" lon="-0.3858350">
        <ele>232.5</ele>
        <time>2022-11-06T08:47:46Z</time>
      </trkpt>
      <trkpt lat="39.6625760" lon="-0.3858430">
        <ele>232.6</ele>
        <time>2022-11-06T08:47:47Z</time>
      </trkpt>
      <trkpt lat="39.6626130" lon="-0.3858480">
        <ele>232.8</ele>
        <time>2022-11-06T08:47:48Z</time>
      </trkpt>
      <trkpt lat="39.6626560" lon="-0.3858530">
        <ele>232.9</ele>
        <time>2022-11-06T08:47:49Z</time>
      </trkpt>
      <trkpt lat="39.6627390" lon="-0.3858580">
        <ele>233.3</ele>
        <time>2022-11-06T08:47:50Z</time>
      </trkpt>
      <trkpt lat="39.6627800" lon="-0.3858530">
        <ele>233.6</ele>
        <time>2022-11-06T08:47:51Z</time>
      </trkpt>
      <trkpt lat="39.6628140" lon="-0.3858470">
        <ele>233.8</ele>
        <time>2022-11-06T08:47:52Z</time>
      </trkpt>
      <trkpt lat="39.6628520" lon="-0.3858500">
        <ele>234.0</ele>
        <time>2022-11-06T08:47:53Z</time>
      </trkpt>
      <trkpt lat="39.6628950" lon="-0.3858600">
        <ele>234.4</ele>
        <time>2022-11-06T08:47:54Z</time>
      </trkpt>
      <trkpt lat="39.6628950" lon="-0.3858600">
        <ele>234.4</ele>
        <time>2022-11-06T08:47:55Z</time>
      </trkpt>
      <trkpt lat="39.6629320" lon="-0.3858720">
        <ele>234.7</ele>
        <time>2022-11-06T08:47:56Z</time>
      </trkpt>
      <trkpt lat="39.6629750" lon="-0.3858820">
        <ele>235.0</ele>
        <time>2022-11-06T08:47:57Z</time>
      </trkpt>
      <trkpt lat="39.6630100" lon="-0.3859000">
        <ele>235.4</ele>
        <time>2022-11-06T08:47:58Z</time>
      </trkpt>
      <trkpt lat="39.6630320" lon="-0.3859230">
        <ele>235.7</ele>
        <time>2022-11-06T08:47:59Z</time>
      </trkpt>
      <trkpt lat="39.6630450" lon="-0.3859550">
        <ele>236.6</ele>
        <time>2022-11-06T08:48:00Z</time>
      </trkpt>
      <trkpt lat="39.6630320" lon="-0.3859950">
        <ele>236.7</ele>
        <time>2022-11-06T08:48:01Z</time>
      </trkpt>
      <trkpt lat="39.6630130" lon="-0.3860150">
        <ele>236.8</ele>
        <time>2022-11-06T08:48:02Z</time>
      </trkpt>
      <trkpt lat="39.6629910" lon="-0.3860300">
        <ele>236.9</ele>
        <time>2022-11-06T08:48:03Z</time>
      </trkpt>
      <trkpt lat="39.6629670" lon="-0.3860430">
        <ele>237.0</ele>
        <time>2022-11-06T08:48:04Z</time>
      </trkpt>
      <trkpt lat="39.6629670" lon="-0.3860430">
        <ele>237.0</ele>
        <time>2022-11-06T08:48:05Z</time>
      </trkpt>
      <trkpt lat="39.6629410" lon="-0.3860570">
        <ele>237.1</ele>
        <time>2022-11-06T08:48:06Z</time>
      </trkpt>
      <trkpt lat="39.6629140" lon="-0.3860700">
        <ele>237.3</ele>
        <time>2022-11-06T08:48:07Z</time>
      </trkpt>
      <trkpt lat="39.6628840" lon="-0.3860830">
        <ele>237.4</ele>
        <time>2022-11-06T08:48:08Z</time>
      </trkpt>
      <trkpt lat="39.6628520" lon="-0.3860920">
        <ele>237.5</ele>
        <time>2022-11-06T08:48:09Z</time>
      </trkpt>
      <trkpt lat="39.6628520" lon="-0.3860920">
        <ele>237.5</ele>
        <time>2022-11-06T08:48:10Z</time>
      </trkpt>
      <trkpt lat="39.6627500" lon="-0.3861080">
        <ele>238.0</ele>
        <time>2022-11-06T08:48:11Z</time>
      </trkpt>
      <trkpt lat="39.6627150" lon="-0.3861080">
        <ele>238.1</ele>
        <time>2022-11-06T08:48:12Z</time>
      </trkpt>
      <trkpt lat="39.6626780" lon="-0.3861130">
        <ele>238.3</ele>
        <time>2022-11-06T08:48:13Z</time>
      </trkpt>
      <trkpt lat="39.6626430" lon="-0.3861200">
        <ele>238.5</ele>
        <time>2022-11-06T08:48:14Z</time>
      </trkpt>
      <trkpt lat="39.6626080" lon="-0.3861180">
        <ele>238.7</ele>
        <time>2022-11-06T08:48:15Z</time>
      </trkpt>
      <trkpt lat="39.6626080" lon="-0.3861180">
        <ele>238.7</ele>
        <time>2022-11-06T08:48:16Z</time>
      </trkpt>
      <trkpt lat="39.6625760" lon="-0.3861270">
        <ele>238.9</ele>
        <time>2022-11-06T08:48:17Z</time>
      </trkpt>
      <trkpt lat="39.6625410" lon="-0.3861250">
        <ele>239.1</ele>
        <time>2022-11-06T08:48:18Z</time>
      </trkpt>
      <trkpt lat="39.6625090" lon="-0.3861280">
        <ele>239.3</ele>
        <time>2022-11-06T08:48:19Z</time>
      </trkpt>
      <trkpt lat="39.6624760" lon="-0.3861350">
        <ele>239.5</ele>
        <time>2022-11-06T08:48:20Z</time>
      </trkpt>
      <trkpt lat="39.6624760" lon="-0.3861350">
        <ele>239.5</ele>
        <time>2022-11-06T08:48:21Z</time>
      </trkpt>
      <trkpt lat="39.6623800" lon="-0.3861580">
        <ele>240.2</ele>
        <time>2022-11-06T08:48:22Z</time>
      </trkpt>
      <trkpt lat="39.6623530" lon="-0.3861770">
        <ele>240.4</ele>
        <time>2022-11-06T08:48:23Z</time>
      </trkpt>
      <trkpt lat="39.6623240" lon="-0.3861950">
        <ele>240.6</ele>
        <time>2022-11-06T08:48:24Z</time>
      </trkpt>
      <trkpt lat="39.6622970" lon="-0.3862180">
        <ele>240.8</ele>
        <time>2022-11-06T08:48:25Z</time>
      </trkpt>
      <trkpt lat="39.6622970" lon="-0.3862180">
        <ele>240.8</ele>
        <time>2022-11-06T08:48:26Z</time>
      </trkpt>
      <trkpt lat="39.6622730" lon="-0.3862430">
        <ele>241.0</ele>
        <time>2022-11-06T08:48:27Z</time>
      </trkpt>
      <trkpt lat="39.6622540" lon="-0.3862720">
        <ele>241.2</ele>
        <time>2022-11-06T08:48:28Z</time>
      </trkpt>
      <trkpt lat="39.6622350" lon="-0.3863020">
        <ele>241.4</ele>
        <time>2022-11-06T08:48:29Z</time>
      </trkpt>
      <trkpt lat="39.6622190" lon="-0.3863300">
        <ele>241.5</ele>
        <time>2022-11-06T08:48:30Z</time>
      </trkpt>
      <trkpt lat="39.6621810" lon="-0.3863900">
        <ele>241.9</ele>
        <time>2022-11-06T08:48:31Z</time>
      </trkpt>
      <trkpt lat="39.6621630" lon="-0.3864200">
        <ele>242.0</ele>
        <time>2022-11-06T08:48:32Z</time>
      </trkpt>
      <trkpt lat="39.6621410" lon="-0.3864500">
        <ele>242.2</ele>
        <time>2022-11-06T08:48:33Z</time>
      </trkpt>
      <trkpt lat="39.6621140" lon="-0.3864780">
        <ele>242.3</ele>
        <time>2022-11-06T08:48:34Z</time>
      </trkpt>
      <trkpt lat="39.6620880" lon="-0.3864980">
        <ele>242.4</ele>
        <time>2022-11-06T08:48:35Z</time>
      </trkpt>
      <trkpt lat="39.6620610" lon="-0.3865120">
        <ele>242.6</ele>
        <time>2022-11-06T08:48:36Z</time>
      </trkpt>
      <trkpt lat="39.6620610" lon="-0.3865120">
        <ele>242.6</ele>
        <time>2022-11-06T08:48:37Z</time>
      </trkpt>
      <trkpt lat="39.6620210" lon="-0.3865080">
        <ele>242.7</ele>
        <time>2022-11-06T08:48:38Z</time>
      </trkpt>
      <trkpt lat="39.6619910" lon="-0.3865070">
        <ele>242.8</ele>
        <time>2022-11-06T08:48:39Z</time>
      </trkpt>
      <trkpt lat="39.6619560" lon="-0.3864970">
        <ele>242.9</ele>
        <time>2022-11-06T08:48:40Z</time>
      </trkpt>
      <trkpt lat="39.6619290" lon="-0.3864800">
        <ele>242.9</ele>
        <time>2022-11-06T08:48:41Z</time>
      </trkpt>
      <trkpt lat="39.6618760" lon="-0.3864300">
        <ele>243.0</ele>
        <time>2022-11-06T08:48:42Z</time>
      </trkpt>
      <trkpt lat="39.6618540" lon="-0.3864030">
        <ele>243.1</ele>
        <time>2022-11-06T08:48:43Z</time>
      </trkpt>
      <trkpt lat="39.6618270" lon="-0.3863780">
        <ele>243.2</ele>
        <time>2022-11-06T08:48:44Z</time>
      </trkpt>
      <trkpt lat="39.6617980" lon="-0.3863570">
        <ele>243.2</ele>
        <time>2022-11-06T08:48:45Z</time>
      </trkpt>
      <trkpt lat="39.6617710" lon="-0.3863370">
        <ele>243.2</ele>
        <time>2022-11-06T08:48:46Z</time>
      </trkpt>
      <trkpt lat="39.6617710" lon="-0.3863370">
        <ele>243.2</ele>
        <time>2022-11-06T08:48:47Z</time>
      </trkpt>
      <trkpt lat="39.6617360" lon="-0.3863180">
        <ele>243.2</ele>
        <time>2022-11-06T08:48:48Z</time>
      </trkpt>
      <trkpt lat="39.6616990" lon="-0.3863020">
        <ele>243.2</ele>
        <time>2022-11-06T08:48:49Z</time>
      </trkpt>
      <trkpt lat="39.6616640" lon="-0.3862880">
        <ele>243.2</ele>
        <time>2022-11-06T08:48:50Z</time>
      </trkpt>
      <trkpt lat="39.6616640" lon="-0.3862880">
        <ele>243.2</ele>
        <time>2022-11-06T08:48:51Z</time>
      </trkpt>
      <trkpt lat="39.6615320" lon="-0.3862730">
        <ele>243.3</ele>
        <time>2022-11-06T08:48:52Z</time>
      </trkpt>
      <trkpt lat="39.6614920" lon="-0.3862800">
        <ele>243.3</ele>
        <time>2022-11-06T08:48:53Z</time>
      </trkpt>
      <trkpt lat="39.6614470" lon="-0.3862920">
        <ele>243.3</ele>
        <time>2022-11-06T08:48:54Z</time>
      </trkpt>
      <trkpt lat="39.6614010" lon="-0.3863070">
        <ele>243.4</ele>
        <time>2022-11-06T08:48:55Z</time>
      </trkpt>
      <trkpt lat="39.6613580" lon="-0.3863220">
        <ele>243.4</ele>
        <time>2022-11-06T08:48:56Z</time>
      </trkpt>
      <trkpt lat="39.6613150" lon="-0.3863430">
        <ele>243.4</ele>
        <time>2022-11-06T08:48:57Z</time>
      </trkpt>
      <trkpt lat="39.6613150" lon="-0.3863430">
        <ele>243.4</ele>
        <time>2022-11-06T08:48:58Z</time>
      </trkpt>
      <trkpt lat="39.6612750" lon="-0.3863680">
        <ele>243.5</ele>
        <time>2022-11-06T08:48:59Z</time>
      </trkpt>
      <trkpt lat="39.6612320" lon="-0.3863880">
        <ele>243.5</ele>
        <time>2022-11-06T08:49:00Z</time>
      </trkpt>
      <trkpt lat="39.6611890" lon="-0.3864100">
        <ele>243.6</ele>
        <time>2022-11-06T08:49:01Z</time>
      </trkpt>
      <trkpt lat="39.6611890" lon="-0.3864100">
        <ele>243.6</ele>
        <time>2022-11-06T08:49:02Z</time>
      </trkpt>
      <trkpt lat="39.6610710" lon="-0.3864670">
        <ele>243.8</ele>
        <time>2022-11-06T08:49:03Z</time>
      </trkpt>
      <trkpt lat="39.6610330" lon="-0.3864870">
        <ele>243.8</ele>
        <time>2022-11-06T08:49:04Z</time>
      </trkpt>
      <trkpt lat="39.6609960" lon="-0.3865070">
        <ele>243.9</ele>
        <time>2022-11-06T08:49:05Z</time>
      </trkpt>
      <trkpt lat="39.6609610" lon="-0.3865270">
        <ele>243.9</ele>
        <time>2022-11-06T08:49:06Z</time>
      </trkpt>
      <trkpt lat="39.6609230" lon="-0.3865480">
        <ele>243.9</ele>
        <time>2022-11-06T08:49:07Z</time>
      </trkpt>
      <trkpt lat="39.6609230" lon="-0.3865480">
        <ele>243.9</ele>
        <time>2022-11-06T08:49:08Z</time>
      </trkpt>
      <trkpt lat="39.6608860" lon="-0.3865700">
        <ele>244.0</ele>
        <time>2022-11-06T08:49:09Z</time>
      </trkpt>
      <trkpt lat="39.6608510" lon="-0.3865930">
        <ele>244.0</ele>
        <time>2022-11-06T08:49:10Z</time>
      </trkpt>
      <trkpt lat="39.6608160" lon="-0.3866200">
        <ele>243.9</ele>
        <time>2022-11-06T08:49:11Z</time>
      </trkpt>
      <trkpt lat="39.6607520" lon="-0.3866870">
        <ele>243.9</ele>
        <time>2022-11-06T08:49:12Z</time>
      </trkpt>
      <trkpt lat="39.6607200" lon="-0.3867250">
        <ele>243.8</ele>
        <time>2022-11-06T08:49:13Z</time>
      </trkpt>
      <trkpt lat="39.6606930" lon="-0.3867630">
        <ele>243.8</ele>
        <time>2022-11-06T08:49:14Z</time>
      </trkpt>
      <trkpt lat="39.6606690" lon="-0.3868050">
        <ele>243.7</ele>
        <time>2022-11-06T08:49:15Z</time>
      </trkpt>
      <trkpt lat="39.6606360" lon="-0.3868430">
        <ele>243.6</ele>
        <time>2022-11-06T08:49:16Z</time>
      </trkpt>
      <trkpt lat="39.6606100" lon="-0.3868830">
        <ele>243.5</ele>
        <time>2022-11-06T08:49:17Z</time>
      </trkpt>
      <trkpt lat="39.6605830" lon="-0.3869230">
        <ele>243.4</ele>
        <time>2022-11-06T08:49:18Z</time>
      </trkpt>
      <trkpt lat="39.6605830" lon="-0.3869230">
        <ele>243.4</ele>
        <time>2022-11-06T08:49:19Z</time>
      </trkpt>
      <trkpt lat="39.6605610" lon="-0.3869680">
        <ele>243.2</ele>
        <time>2022-11-06T08:49:20Z</time>
      </trkpt>
      <trkpt lat="39.6605350" lon="-0.3870130">
        <ele>243.1</ele>
        <time>2022-11-06T08:49:21Z</time>
      </trkpt>
      <trkpt lat="39.6605020" lon="-0.3870600">
        <ele>242.9</ele>
        <time>2022-11-06T08:49:22Z</time>
      </trkpt>
      <trkpt lat="39.6604270" lon="-0.3871470">
        <ele>242.5</ele>
        <time>2022-11-06T08:49:23Z</time>
      </trkpt>
      <trkpt lat="39.6603840" lon="-0.3871850">
        <ele>242.4</ele>
        <time>2022-11-06T08:49:24Z</time>
      </trkpt>
      <trkpt lat="39.6603440" lon="-0.3872230">
        <ele>242.2</ele>
        <time>2022-11-06T08:49:25Z</time>
      </trkpt>
      <trkpt lat="39.6603040" lon="-0.3872570">
        <ele>242.0</ele>
        <time>2022-11-06T08:49:26Z</time>
      </trkpt>
      <trkpt lat="39.6602580" lon="-0.3872880">
        <ele>241.8</ele>
        <time>2022-11-06T08:49:27Z</time>
      </trkpt>
      <trkpt lat="39.6602130" lon="-0.3873100">
        <ele>241.7</ele>
        <time>2022-11-06T08:49:28Z</time>
      </trkpt>
      <trkpt lat="39.6602130" lon="-0.3873100">
        <ele>241.7</ele>
        <time>2022-11-06T08:49:29Z</time>
      </trkpt>
      <trkpt lat="39.6601720" lon="-0.3873370">
        <ele>241.5</ele>
        <time>2022-11-06T08:49:30Z</time>
      </trkpt>
      <trkpt lat="39.6601220" lon="-0.3873620">
        <ele>241.3</ele>
        <time>2022-11-06T08:49:31Z</time>
      </trkpt>
      <trkpt lat="39.6600760" lon="-0.3873850">
        <ele>241.2</ele>
        <time>2022-11-06T08:49:32Z</time>
      </trkpt>
      <trkpt lat="39.6599820" lon="-0.3874500">
        <ele>240.9</ele>
        <time>2022-11-06T08:49:33Z</time>
      </trkpt>
      <trkpt lat="39.6599310" lon="-0.3874870">
        <ele>240.8</ele>
        <time>2022-11-06T08:49:34Z</time>
      </trkpt>
      <trkpt lat="39.6598850" lon="-0.3875220">
        <ele>240.7</ele>
        <time>2022-11-06T08:49:35Z</time>
      </trkpt>
      <trkpt lat="39.6598350" lon="-0.3875550">
        <ele>240.7</ele>
        <time>2022-11-06T08:49:36Z</time>
      </trkpt>
      <trkpt lat="39.6597890" lon="-0.3875880">
        <ele>240.7</ele>
        <time>2022-11-06T08:49:37Z</time>
      </trkpt>
      <trkpt lat="39.6597410" lon="-0.3876200">
        <ele>240.6</ele>
        <time>2022-11-06T08:49:38Z</time>
      </trkpt>
      <trkpt lat="39.6596870" lon="-0.3876470">
        <ele>240.6</ele>
        <time>2022-11-06T08:49:39Z</time>
      </trkpt>
      <trkpt lat="39.6596870" lon="-0.3876470">
        <ele>240.6</ele>
        <time>2022-11-06T08:49:40Z</time>
      </trkpt>
      <trkpt lat="39.6596390" lon="-0.3876720">
        <ele>240.7</ele>
        <time>2022-11-06T08:49:41Z</time>
      </trkpt>
      <trkpt lat="39.6595900" lon="-0.3877000">
        <ele>240.7</ele>
        <time>2022-11-06T08:49:42Z</time>
      </trkpt>
      <trkpt lat="39.6595900" lon="-0.3877000">
        <ele>240.7</ele>
        <time>2022-11-06T08:49:43Z</time>
      </trkpt>
      <trkpt lat="39.6594540" lon="-0.3877880">
        <ele>240.9</ele>
        <time>2022-11-06T08:49:44Z</time>
      </trkpt>
      <trkpt lat="39.6594160" lon="-0.3878200">
        <ele>241.0</ele>
        <time>2022-11-06T08:49:45Z</time>
      </trkpt>
      <trkpt lat="39.6593810" lon="-0.3878580">
        <ele>241.1</ele>
        <time>2022-11-06T08:49:46Z</time>
      </trkpt>
      <trkpt lat="39.6593410" lon="-0.3878930">
        <ele>241.2</ele>
        <time>2022-11-06T08:49:47Z</time>
      </trkpt>
      <trkpt lat="39.6593060" lon="-0.3879250">
        <ele>241.3</ele>
        <time>2022-11-06T08:49:48Z</time>
      </trkpt>
      <trkpt lat="39.6592690" lon="-0.3879530">
        <ele>241.4</ele>
        <time>2022-11-06T08:49:49Z</time>
      </trkpt>
      <trkpt lat="39.6592690" lon="-0.3879530">
        <ele>241.4</ele>
        <time>2022-11-06T08:49:50Z</time>
      </trkpt>
      <trkpt lat="39.6592340" lon="-0.3879750">
        <ele>241.5</ele>
        <time>2022-11-06T08:49:51Z</time>
      </trkpt>
      <trkpt lat="39.6591960" lon="-0.3879970">
        <ele>241.6</ele>
        <time>2022-11-06T08:49:52Z</time>
      </trkpt>
      <trkpt lat="39.6591960" lon="-0.3879970">
        <ele>241.6</ele>
        <time>2022-11-06T08:49:53Z</time>
      </trkpt>
      <trkpt lat="39.6590970" lon="-0.3880730">
        <ele>241.9</ele>
        <time>2022-11-06T08:49:54Z</time>
      </trkpt>
      <trkpt lat="39.6590650" lon="-0.3881100">
        <ele>242.0</ele>
        <time>2022-11-06T08:49:55Z</time>
      </trkpt>
      <trkpt lat="39.6590430" lon="-0.3881520">
        <ele>242.1</ele>
        <time>2022-11-06T08:49:56Z</time>
      </trkpt>
      <trkpt lat="39.6590240" lon="-0.3881970">
        <ele>242.1</ele>
        <time>2022-11-06T08:49:57Z</time>
      </trkpt>
      <trkpt lat="39.6590110" lon="-0.3882420">
        <ele>242.2</ele>
        <time>2022-11-06T08:49:58Z</time>
      </trkpt>
      <trkpt lat="39.6590160" lon="-0.3882930">
        <ele>242.2</ele>
        <time>2022-11-06T08:49:59Z</time>
      </trkpt>
      <trkpt lat="39.6590240" lon="-0.3883420">
        <ele>242.3</ele>
        <time>2022-11-06T08:50:00Z</time>
      </trkpt>
      <trkpt lat="39.6590240" lon="-0.3883420">
        <ele>242.3</ele>
        <time>2022-11-06T08:50:01Z</time>
      </trkpt>
      <trkpt lat="39.6590190" lon="-0.3883900">
        <ele>242.3</ele>
        <time>2022-11-06T08:50:02Z</time>
      </trkpt>
      <trkpt lat="39.6590160" lon="-0.3884400">
        <ele>242.3</ele>
        <time>2022-11-06T08:50:03Z</time>
      </trkpt>
      <trkpt lat="39.6589840" lon="-0.3885280">
        <ele>242.4</ele>
        <time>2022-11-06T08:50:04Z</time>
      </trkpt>
      <trkpt lat="39.6589520" lon="-0.3885680">
        <ele>242.4</ele>
        <time>2022-11-06T08:50:05Z</time>
      </trkpt>
      <trkpt lat="39.6589250" lon="-0.3885870">
        <ele>242.4</ele>
        <time>2022-11-06T08:50:06Z</time>
      </trkpt>
      <trkpt lat="39.6588900" lon="-0.3886020">
        <ele>242.5</ele>
        <time>2022-11-06T08:50:07Z</time>
      </trkpt>
      <trkpt lat="39.6588550" lon="-0.3886170">
        <ele>242.5</ele>
        <time>2022-11-06T08:50:08Z</time>
      </trkpt>
      <trkpt lat="39.6588210" lon="-0.3886250">
        <ele>242.5</ele>
        <time>2022-11-06T08:50:09Z</time>
      </trkpt>
      <trkpt lat="39.6587830" lon="-0.3886330">
        <ele>242.5</ele>
        <time>2022-11-06T08:50:10Z</time>
      </trkpt>
      <trkpt lat="39.6587830" lon="-0.3886330">
        <ele>242.5</ele>
        <time>2022-11-06T08:50:11Z</time>
      </trkpt>
      <trkpt lat="39.6587460" lon="-0.3886420">
        <ele>242.5</ele>
        <time>2022-11-06T08:50:12Z</time>
      </trkpt>
      <trkpt lat="39.6587030" lon="-0.3886530">
        <ele>242.6</ele>
        <time>2022-11-06T08:50:13Z</time>
      </trkpt>
      <trkpt lat="39.6586220" lon="-0.3886770">
        <ele>242.7</ele>
        <time>2022-11-06T08:50:14Z</time>
      </trkpt>
      <trkpt lat="39.6585850" lon="-0.3886880">
        <ele>242.7</ele>
        <time>2022-11-06T08:50:15Z</time>
      </trkpt>
      <trkpt lat="39.6585470" lon="-0.3887050">
        <ele>242.7</ele>
        <time>2022-11-06T08:50:16Z</time>
      </trkpt>
      <trkpt lat="39.6585040" lon="-0.3887230">
        <ele>242.8</ele>
        <time>2022-11-06T08:50:17Z</time>
      </trkpt>
      <trkpt lat="39.6584690" lon="-0.3887470">
        <ele>242.8</ele>
        <time>2022-11-06T08:50:18Z</time>
      </trkpt>
      <trkpt lat="39.6584290" lon="-0.3887750">
        <ele>242.8</ele>
        <time>2022-11-06T08:50:19Z</time>
      </trkpt>
      <trkpt lat="39.6583890" lon="-0.3888070">
        <ele>242.8</ele>
        <time>2022-11-06T08:50:20Z</time>
      </trkpt>
      <trkpt lat="39.6583510" lon="-0.3888400">
        <ele>242.8</ele>
        <time>2022-11-06T08:50:21Z</time>
      </trkpt>
      <trkpt lat="39.6583510" lon="-0.3888400">
        <ele>242.8</ele>
        <time>2022-11-06T08:50:22Z</time>
      </trkpt>
      <trkpt lat="39.6583160" lon="-0.3888770">
        <ele>242.8</ele>
        <time>2022-11-06T08:50:23Z</time>
      </trkpt>
      <trkpt lat="39.6582790" lon="-0.3889180">
        <ele>242.8</ele>
        <time>2022-11-06T08:50:24Z</time>
      </trkpt>
      <trkpt lat="39.6582040" lon="-0.3889980">
        <ele>242.7</ele>
        <time>2022-11-06T08:50:25Z</time>
      </trkpt>
      <trkpt lat="39.6581660" lon="-0.3890380">
        <ele>242.6</ele>
        <time>2022-11-06T08:50:26Z</time>
      </trkpt>
      <trkpt lat="39.6581180" lon="-0.3890680">
        <ele>242.6</ele>
        <time>2022-11-06T08:50:27Z</time>
      </trkpt>
      <trkpt lat="39.6580720" lon="-0.3890900">
        <ele>242.5</ele>
        <time>2022-11-06T08:50:28Z</time>
      </trkpt>
      <trkpt lat="39.6580240" lon="-0.3891050">
        <ele>242.5</ele>
        <time>2022-11-06T08:50:29Z</time>
      </trkpt>
      <trkpt lat="39.6579700" lon="-0.3891170">
        <ele>242.4</ele>
        <time>2022-11-06T08:50:30Z</time>
      </trkpt>
      <trkpt lat="39.6579220" lon="-0.3891280">
        <ele>242.3</ele>
        <time>2022-11-06T08:50:31Z</time>
      </trkpt>
      <trkpt lat="39.6579220" lon="-0.3891280">
        <ele>242.3</ele>
        <time>2022-11-06T08:50:32Z</time>
      </trkpt>
      <trkpt lat="39.6578680" lon="-0.3891370">
        <ele>242.3</ele>
        <time>2022-11-06T08:50:33Z</time>
      </trkpt>
      <trkpt lat="39.6578680" lon="-0.3891370">
        <ele>242.3</ele>
        <time>2022-11-06T08:50:34Z</time>
      </trkpt>
      <trkpt lat="39.6577160" lon="-0.3891600">
        <ele>242.1</ele>
        <time>2022-11-06T08:50:35Z</time>
      </trkpt>
      <trkpt lat="39.6576620" lon="-0.3891720">
        <ele>242.0</ele>
        <time>2022-11-06T08:50:36Z</time>
      </trkpt>
      <trkpt lat="39.6576110" lon="-0.3891920">
        <ele>242.0</ele>
        <time>2022-11-06T08:50:37Z</time>
      </trkpt>
      <trkpt lat="39.6575570" lon="-0.3892130">
        <ele>241.9</ele>
        <time>2022-11-06T08:50:38Z</time>
      </trkpt>
      <trkpt lat="39.6575090" lon="-0.3892380">
        <ele>241.8</ele>
        <time>2022-11-06T08:50:39Z</time>
      </trkpt>
      <trkpt lat="39.6574580" lon="-0.3892650">
        <ele>241.8</ele>
        <time>2022-11-06T08:50:40Z</time>
      </trkpt>
      <trkpt lat="39.6574070" lon="-0.3892950">
        <ele>241.7</ele>
        <time>2022-11-06T08:50:41Z</time>
      </trkpt>
      <trkpt lat="39.6573560" lon="-0.3893280">
        <ele>241.6</ele>
        <time>2022-11-06T08:50:42Z</time>
      </trkpt>
      <trkpt lat="39.6573560" lon="-0.3893280">
        <ele>241.6</ele>
        <time>2022-11-06T08:50:43Z</time>
      </trkpt>
      <trkpt lat="39.6573080" lon="-0.3893680">
        <ele>241.5</ele>
        <time>2022-11-06T08:50:44Z</time>
      </trkpt>
      <trkpt lat="39.6573080" lon="-0.3893680">
        <ele>241.5</ele>
        <time>2022-11-06T08:50:45Z</time>
      </trkpt>
      <trkpt lat="39.6571630" lon="-0.3894870">
        <ele>241.2</ele>
        <time>2022-11-06T08:50:46Z</time>
      </trkpt>
      <trkpt lat="39.6571120" lon="-0.3895280">
        <ele>241.1</ele>
        <time>2022-11-06T08:50:47Z</time>
      </trkpt>
      <trkpt lat="39.6570660" lon="-0.3895680">
        <ele>241.0</ele>
        <time>2022-11-06T08:50:48Z</time>
      </trkpt>
      <trkpt lat="39.6570160" lon="-0.3896120">
        <ele>240.8</ele>
        <time>2022-11-06T08:50:49Z</time>
      </trkpt>
      <trkpt lat="39.6569750" lon="-0.3896570">
        <ele>240.6</ele>
        <time>2022-11-06T08:50:50Z</time>
      </trkpt>
      <trkpt lat="39.6569380" lon="-0.3897050">
        <ele>240.4</ele>
        <time>2022-11-06T08:50:51Z</time>
      </trkpt>
      <trkpt lat="39.6569110" lon="-0.3897430">
        <ele>240.3</ele>
        <time>2022-11-06T08:50:52Z</time>
      </trkpt>
      <trkpt lat="39.6569110" lon="-0.3897430">
        <ele>240.3</ele>
        <time>2022-11-06T08:50:53Z</time>
      </trkpt>
      <trkpt lat="39.6568920" lon="-0.3897880">
        <ele>240.1</ele>
        <time>2022-11-06T08:50:54Z</time>
      </trkpt>
      <trkpt lat="39.6568680" lon="-0.3898920">
        <ele>239.8</ele>
        <time>2022-11-06T08:50:55Z</time>
      </trkpt>
      <trkpt lat="39.6568490" lon="-0.3899480">
        <ele>239.6</ele>
        <time>2022-11-06T08:50:56Z</time>
      </trkpt>
      <trkpt lat="39.6568330" lon="-0.3900020">
        <ele>239.4</ele>
        <time>2022-11-06T08:50:57Z</time>
      </trkpt>
      <trkpt lat="39.6568200" lon="-0.3900670">
        <ele>239.2</ele>
        <time>2022-11-06T08:50:58Z</time>
      </trkpt>
      <trkpt lat="39.6568060" lon="-0.3901400">
        <ele>239.0</ele>
        <time>2022-11-06T08:50:59Z</time>
      </trkpt>
      <trkpt lat="39.6567930" lon="-0.3902070">
        <ele>238.8</ele>
        <time>2022-11-06T08:51:00Z</time>
      </trkpt>
      <trkpt lat="39.6567770" lon="-0.3902720">
        <ele>238.6</ele>
        <time>2022-11-06T08:51:01Z</time>
      </trkpt>
      <trkpt lat="39.6567500" lon="-0.3903380">
        <ele>238.5</ele>
        <time>2022-11-06T08:51:02Z</time>
      </trkpt>
      <trkpt lat="39.6567200" lon="-0.3904030">
        <ele>238.3</ele>
        <time>2022-11-06T08:51:03Z</time>
      </trkpt>
      <trkpt lat="39.6567200" lon="-0.3904030">
        <ele>238.3</ele>
        <time>2022-11-06T08:51:04Z</time>
      </trkpt>
      <trkpt lat="39.6566860" lon="-0.3904680">
        <ele>238.2</ele>
        <time>2022-11-06T08:51:05Z</time>
      </trkpt>
      <trkpt lat="39.6566270" lon="-0.3906050">
        <ele>238.0</ele>
        <time>2022-11-06T08:51:06Z</time>
      </trkpt>
      <trkpt lat="39.6566080" lon="-0.3906780">
        <ele>237.9</ele>
        <time>2022-11-06T08:51:07Z</time>
      </trkpt>
      <trkpt lat="39.6565890" lon="-0.3907520">
        <ele>237.8</ele>
        <time>2022-11-06T08:51:08Z</time>
      </trkpt>
      <trkpt lat="39.6565730" lon="-0.3908280">
        <ele>237.7</ele>
        <time>2022-11-06T08:51:09Z</time>
      </trkpt>
      <trkpt lat="39.6565620" lon="-0.3909070">
        <ele>237.6</ele>
        <time>2022-11-06T08:51:10Z</time>
      </trkpt>
      <trkpt lat="39.6565540" lon="-0.3909850">
        <ele>237.5</ele>
        <time>2022-11-06T08:51:11Z</time>
      </trkpt>
      <trkpt lat="39.6565490" lon="-0.3910620">
        <ele>237.4</ele>
        <time>2022-11-06T08:51:12Z</time>
      </trkpt>
      <trkpt lat="39.6565490" lon="-0.3911380">
        <ele>237.4</ele>
        <time>2022-11-06T08:51:13Z</time>
      </trkpt>
      <trkpt lat="39.6565490" lon="-0.3911380">
        <ele>237.4</ele>
        <time>2022-11-06T08:51:14Z</time>
      </trkpt>
      <trkpt lat="39.6565490" lon="-0.3911380">
        <ele>237.4</ele>
        <time>2022-11-06T08:51:15Z</time>
      </trkpt>
      <trkpt lat="39.6565350" lon="-0.3913650">
        <ele>237.2</ele>
        <time>2022-11-06T08:51:16Z</time>
      </trkpt>
      <trkpt lat="39.6565250" lon="-0.3914380">
        <ele>237.2</ele>
        <time>2022-11-06T08:51:17Z</time>
      </trkpt>
      <trkpt lat="39.6565140" lon="-0.3915120">
        <ele>237.2</ele>
        <time>2022-11-06T08:51:18Z</time>
      </trkpt>
      <trkpt lat="39.6564980" lon="-0.3915850">
        <ele>237.1</ele>
        <time>2022-11-06T08:51:19Z</time>
      </trkpt>
      <trkpt lat="39.6564820" lon="-0.3916580">
        <ele>237.1</ele>
        <time>2022-11-06T08:51:20Z</time>
      </trkpt>
      <trkpt lat="39.6564710" lon="-0.3917330">
        <ele>237.1</ele>
        <time>2022-11-06T08:51:21Z</time>
      </trkpt>
      <trkpt lat="39.6564550" lon="-0.3918070">
        <ele>237.0</ele>
        <time>2022-11-06T08:51:22Z</time>
      </trkpt>
      <trkpt lat="39.6564440" lon="-0.3918820">
        <ele>237.0</ele>
        <time>2022-11-06T08:51:23Z</time>
      </trkpt>
      <trkpt lat="39.6564280" lon="-0.3919530">
        <ele>237.0</ele>
        <time>2022-11-06T08:51:24Z</time>
      </trkpt>
      <trkpt lat="39.6564280" lon="-0.3919530">
        <ele>237.0</ele>
        <time>2022-11-06T08:51:25Z</time>
      </trkpt>
      <trkpt lat="39.6564280" lon="-0.3919530">
        <ele>237.0</ele>
        <time>2022-11-06T08:51:26Z</time>
      </trkpt>
      <trkpt lat="39.6563690" lon="-0.3921550">
        <ele>237.1</ele>
        <time>2022-11-06T08:51:27Z</time>
      </trkpt>
      <trkpt lat="39.6563450" lon="-0.3922250">
        <ele>237.1</ele>
        <time>2022-11-06T08:51:28Z</time>
      </trkpt>
      <trkpt lat="39.6563180" lon="-0.3922880">
        <ele>237.2</ele>
        <time>2022-11-06T08:51:29Z</time>
      </trkpt>
      <trkpt lat="39.6562910" lon="-0.3923500">
        <ele>237.2</ele>
        <time>2022-11-06T08:51:30Z</time>
      </trkpt>
      <trkpt lat="39.6562640" lon="-0.3924150">
        <ele>237.3</ele>
        <time>2022-11-06T08:51:31Z</time>
      </trkpt>
      <trkpt lat="39.6562350" lon="-0.3924750">
        <ele>237.4</ele>
        <time>2022-11-06T08:51:32Z</time>
      </trkpt>
      <trkpt lat="39.6562000" lon="-0.3925350">
        <ele>237.5</ele>
        <time>2022-11-06T08:51:33Z</time>
      </trkpt>
      <trkpt lat="39.6561730" lon="-0.3925950">
        <ele>237.6</ele>
        <time>2022-11-06T08:51:34Z</time>
      </trkpt>
      <trkpt lat="39.6561730" lon="-0.3925950">
        <ele>237.6</ele>
        <time>2022-11-06T08:51:35Z</time>
      </trkpt>
      <trkpt lat="39.6561200" lon="-0.3927150">
        <ele>237.8</ele>
        <time>2022-11-06T08:51:36Z</time>
      </trkpt>
      <trkpt lat="39.6561010" lon="-0.3927800">
        <ele>237.9</ele>
        <time>2022-11-06T08:51:37Z</time>
      </trkpt>
      <trkpt lat="39.6560820" lon="-0.3928450">
        <ele>238.0</ele>
        <time>2022-11-06T08:51:38Z</time>
      </trkpt>
      <trkpt lat="39.6560660" lon="-0.3929100">
        <ele>238.1</ele>
        <time>2022-11-06T08:51:39Z</time>
      </trkpt>
      <trkpt lat="39.6560530" lon="-0.3929720">
        <ele>238.2</ele>
        <time>2022-11-06T08:51:40Z</time>
      </trkpt>
      <trkpt lat="39.6560390" lon="-0.3930320">
        <ele>238.3</ele>
        <time>2022-11-06T08:51:41Z</time>
      </trkpt>
      <trkpt lat="39.6560200" lon="-0.3930850">
        <ele>238.5</ele>
        <time>2022-11-06T08:51:42Z</time>
      </trkpt>
      <trkpt lat="39.6560070" lon="-0.3931380">
        <ele>238.6</ele>
        <time>2022-11-06T08:51:43Z</time>
      </trkpt>
      <trkpt lat="39.6559860" lon="-0.3931880">
        <ele>238.7</ele>
        <time>2022-11-06T08:51:44Z</time>
      </trkpt>
      <trkpt lat="39.6559720" lon="-0.3932420">
        <ele>238.8</ele>
        <time>2022-11-06T08:51:45Z</time>
      </trkpt>
      <trkpt lat="39.6559720" lon="-0.3932420">
        <ele>238.8</ele>
        <time>2022-11-06T08:51:46Z</time>
      </trkpt>
      <trkpt lat="39.6559370" lon="-0.3933450">
        <ele>239.0</ele>
        <time>2022-11-06T08:51:47Z</time>
      </trkpt>
      <trkpt lat="39.6559270" lon="-0.3933980">
        <ele>239.1</ele>
        <time>2022-11-06T08:51:48Z</time>
      </trkpt>
      <trkpt lat="39.6559080" lon="-0.3934500">
        <ele>239.1</ele>
        <time>2022-11-06T08:51:49Z</time>
      </trkpt>
      <trkpt lat="39.6558940" lon="-0.3935050">
        <ele>239.2</ele>
        <time>2022-11-06T08:51:50Z</time>
      </trkpt>
      <trkpt lat="39.6558810" lon="-0.3935600">
        <ele>239.2</ele>
        <time>2022-11-06T08:51:51Z</time>
      </trkpt>
      <trkpt lat="39.6558650" lon="-0.3936150">
        <ele>239.2</ele>
        <time>2022-11-06T08:51:52Z</time>
      </trkpt>
      <trkpt lat="39.6558540" lon="-0.3936700">
        <ele>239.2</ele>
        <time>2022-11-06T08:51:53Z</time>
      </trkpt>
      <trkpt lat="39.6558380" lon="-0.3937320">
        <ele>239.1</ele>
        <time>2022-11-06T08:51:54Z</time>
      </trkpt>
      <trkpt lat="39.6558380" lon="-0.3937320">
        <ele>239.1</ele>
        <time>2022-11-06T08:51:55Z</time>
      </trkpt>
      <trkpt lat="39.6558380" lon="-0.3937320">
        <ele>239.1</ele>
        <time>2022-11-06T08:51:56Z</time>
      </trkpt>
      <trkpt lat="39.6557820" lon="-0.3939370">
        <ele>238.9</ele>
        <time>2022-11-06T08:51:57Z</time>
      </trkpt>
      <trkpt lat="39.6557630" lon="-0.3940100">
        <ele>238.8</ele>
        <time>2022-11-06T08:51:58Z</time>
      </trkpt>
      <trkpt lat="39.6557410" lon="-0.3940900">
        <ele>238.8</ele>
        <time>2022-11-06T08:51:59Z</time>
      </trkpt>
      <trkpt lat="39.6557150" lon="-0.3941650">
        <ele>238.8</ele>
        <time>2022-11-06T08:52:00Z</time>
      </trkpt>
      <trkpt lat="39.6556960" lon="-0.3942400">
        <ele>238.9</ele>
        <time>2022-11-06T08:52:01Z</time>
      </trkpt>
      <trkpt lat="39.6556740" lon="-0.3943070">
        <ele>239.0</ele>
        <time>2022-11-06T08:52:02Z</time>
      </trkpt>
      <trkpt lat="39.6556500" lon="-0.3943720">
        <ele>239.2</ele>
        <time>2022-11-06T08:52:03Z</time>
      </trkpt>
      <trkpt lat="39.6556230" lon="-0.3944350">
        <ele>239.3</ele>
        <time>2022-11-06T08:52:04Z</time>
      </trkpt>
      <trkpt lat="39.6555940" lon="-0.3944900">
        <ele>239.4</ele>
        <time>2022-11-06T08:52:05Z</time>
      </trkpt>
      <trkpt lat="39.6555940" lon="-0.3944900">
        <ele>239.4</ele>
        <time>2022-11-06T08:52:06Z</time>
      </trkpt>
      <trkpt lat="39.6555940" lon="-0.3944900">
        <ele>239.4</ele>
        <time>2022-11-06T08:52:07Z</time>
      </trkpt>
      <trkpt lat="39.6554870" lon="-0.3946380">
        <ele>239.6</ele>
        <time>2022-11-06T08:52:08Z</time>
      </trkpt>
      <trkpt lat="39.6554490" lon="-0.3946830">
        <ele>239.6</ele>
        <time>2022-11-06T08:52:09Z</time>
      </trkpt>
      <trkpt lat="39.6554140" lon="-0.3947250">
        <ele>239.6</ele>
        <time>2022-11-06T08:52:10Z</time>
      </trkpt>
      <trkpt lat="39.6553770" lon="-0.3947680">
        <ele>239.5</ele>
        <time>2022-11-06T08:52:11Z</time>
      </trkpt>
      <trkpt lat="39.6553310" lon="-0.3948070">
        <ele>239.4</ele>
        <time>2022-11-06T08:52:12Z</time>
      </trkpt>
      <trkpt lat="39.6552850" lon="-0.3948450">
        <ele>239.3</ele>
        <time>2022-11-06T08:52:13Z</time>
      </trkpt>
      <trkpt lat="39.6552400" lon="-0.3948830">
        <ele>239.1</ele>
        <time>2022-11-06T08:52:14Z</time>
      </trkpt>
      <trkpt lat="39.6551940" lon="-0.3949180">
        <ele>238.9</ele>
        <time>2022-11-06T08:52:15Z</time>
      </trkpt>
      <trkpt lat="39.6551940" lon="-0.3949180">
        <ele>238.9</ele>
        <time>2022-11-06T08:52:16Z</time>
      </trkpt>
      <trkpt lat="39.6551940" lon="-0.3949180">
        <ele>238.9</ele>
        <time>2022-11-06T08:52:17Z</time>
      </trkpt>
      <trkpt lat="39.6550280" lon="-0.3950030">
        <ele>238.2</ele>
        <time>2022-11-06T08:52:18Z</time>
      </trkpt>
      <trkpt lat="39.6549770" lon="-0.3950380">
        <ele>238.0</ele>
        <time>2022-11-06T08:52:19Z</time>
      </trkpt>
      <trkpt lat="39.6549180" lon="-0.3950830">
        <ele>237.8</ele>
        <time>2022-11-06T08:52:20Z</time>
      </trkpt>
      <trkpt lat="39.6548700" lon="-0.3951270">
        <ele>237.6</ele>
        <time>2022-11-06T08:52:21Z</time>
      </trkpt>
      <trkpt lat="39.6548110" lon="-0.3951730">
        <ele>237.3</ele>
        <time>2022-11-06T08:52:22Z</time>
      </trkpt>
      <trkpt lat="39.6547600" lon="-0.3952220">
        <ele>237.1</ele>
        <time>2022-11-06T08:52:23Z</time>
      </trkpt>
      <trkpt lat="39.6547060" lon="-0.3952680">
        <ele>236.9</ele>
        <time>2022-11-06T08:52:24Z</time>
      </trkpt>
      <trkpt lat="39.6546470" lon="-0.3953170">
        <ele>236.7</ele>
        <time>2022-11-06T08:52:25Z</time>
      </trkpt>
      <trkpt lat="39.6545910" lon="-0.3953630">
        <ele>236.5</ele>
        <time>2022-11-06T08:52:26Z</time>
      </trkpt>
      <trkpt lat="39.6545910" lon="-0.3953630">
        <ele>236.5</ele>
        <time>2022-11-06T08:52:27Z</time>
      </trkpt>
      <trkpt lat="39.6545910" lon="-0.3953630">
        <ele>236.5</ele>
        <time>2022-11-06T08:52:28Z</time>
      </trkpt>
      <trkpt lat="39.6544190" lon="-0.3954830">
        <ele>235.7</ele>
        <time>2022-11-06T08:52:29Z</time>
      </trkpt>
      <trkpt lat="39.6543630" lon="-0.3955180">
        <ele>235.3</ele>
        <time>2022-11-06T08:52:30Z</time>
      </trkpt>
      <trkpt lat="39.6543040" lon="-0.3955630">
        <ele>234.9</ele>
        <time>2022-11-06T08:52:31Z</time>
      </trkpt>
      <trkpt lat="39.6542470" lon="-0.3956220">
        <ele>234.5</ele>
        <time>2022-11-06T08:52:32Z</time>
      </trkpt>
      <trkpt lat="39.6541940" lon="-0.3956900">
        <ele>234.0</ele>
        <time>2022-11-06T08:52:33Z</time>
      </trkpt>
      <trkpt lat="39.6541460" lon="-0.3957650">
        <ele>233.6</ele>
        <time>2022-11-06T08:52:34Z</time>
      </trkpt>
      <trkpt lat="39.6540970" lon="-0.3958380">
        <ele>233.2</ele>
        <time>2022-11-06T08:52:35Z</time>
      </trkpt>
      <trkpt lat="39.6540460" lon="-0.3959070">
        <ele>232.9</ele>
        <time>2022-11-06T08:52:36Z</time>
      </trkpt>
      <trkpt lat="39.6540460" lon="-0.3959070">
        <ele>232.9</ele>
        <time>2022-11-06T08:52:37Z</time>
      </trkpt>
      <trkpt lat="39.6539230" lon="-0.3960180">
        <ele>232.2</ele>
        <time>2022-11-06T08:52:38Z</time>
      </trkpt>
      <trkpt lat="39.6538530" lon="-0.3960570">
        <ele>231.9</ele>
        <time>2022-11-06T08:52:39Z</time>
      </trkpt>
      <trkpt lat="39.6537860" lon="-0.3960880">
        <ele>231.6</ele>
        <time>2022-11-06T08:52:40Z</time>
      </trkpt>
      <trkpt lat="39.6537140" lon="-0.3961130">
        <ele>231.3</ele>
        <time>2022-11-06T08:52:41Z</time>
      </trkpt>
      <trkpt lat="39.6536490" lon="-0.3961450">
        <ele>230.9</ele>
        <time>2022-11-06T08:52:42Z</time>
      </trkpt>
      <trkpt lat="39.6535800" lon="-0.3961920">
        <ele>230.5</ele>
        <time>2022-11-06T08:52:43Z</time>
      </trkpt>
      <trkpt lat="39.6535150" lon="-0.3962450">
        <ele>230.0</ele>
        <time>2022-11-06T08:52:44Z</time>
      </trkpt>
      <trkpt lat="39.6534510" lon="-0.3962970">
        <ele>229.6</ele>
        <time>2022-11-06T08:52:45Z</time>
      </trkpt>
      <trkpt lat="39.6533860" lon="-0.3963400">
        <ele>229.1</ele>
        <time>2022-11-06T08:52:46Z</time>
      </trkpt>
      <trkpt lat="39.6533090" lon="-0.3963670">
        <ele>228.7</ele>
        <time>2022-11-06T08:52:47Z</time>
      </trkpt>
      <trkpt lat="39.6533090" lon="-0.3963670">
        <ele>228.7</ele>
        <time>2022-11-06T08:52:48Z</time>
      </trkpt>
      <trkpt lat="39.6531640" lon="-0.3963870">
        <ele>227.8</ele>
        <time>2022-11-06T08:52:49Z</time>
      </trkpt>
      <trkpt lat="39.6530910" lon="-0.3963880">
        <ele>227.4</ele>
        <time>2022-11-06T08:52:50Z</time>
      </trkpt>
      <trkpt lat="39.6530160" lon="-0.3963870">
        <ele>226.9</ele>
        <time>2022-11-06T08:52:51Z</time>
      </trkpt>
      <trkpt lat="39.6529440" lon="-0.3963850">
        <ele>226.4</ele>
        <time>2022-11-06T08:52:52Z</time>
      </trkpt>
      <trkpt lat="39.6528710" lon="-0.3963920">
        <ele>225.9</ele>
        <time>2022-11-06T08:52:53Z</time>
      </trkpt>
      <trkpt lat="39.6527960" lon="-0.3964080">
        <ele>225.4</ele>
        <time>2022-11-06T08:52:54Z</time>
      </trkpt>
      <trkpt lat="39.6527210" lon="-0.3964280">
        <ele>224.8</ele>
        <time>2022-11-06T08:52:55Z</time>
      </trkpt>
      <trkpt lat="39.6526490" lon="-0.3964570">
        <ele>224.1</ele>
        <time>2022-11-06T08:52:56Z</time>
      </trkpt>
      <trkpt lat="39.6526490" lon="-0.3964570">
        <ele>224.1</ele>
        <time>2022-11-06T08:52:57Z</time>
      </trkpt>
      <trkpt lat="39.6526490" lon="-0.3964570">
        <ele>224.1</ele>
        <time>2022-11-06T08:52:58Z</time>
      </trkpt>
      <trkpt lat="39.6524400" lon="-0.3965830">
        <ele>221.9</ele>
        <time>2022-11-06T08:52:59Z</time>
      </trkpt>
      <trkpt lat="39.6523700" lon="-0.3966370">
        <ele>221.0</ele>
        <time>2022-11-06T08:53:00Z</time>
      </trkpt>
      <trkpt lat="39.6522950" lon="-0.3966920">
        <ele>220.1</ele>
        <time>2022-11-06T08:53:01Z</time>
      </trkpt>
      <trkpt lat="39.6522060" lon="-0.3967520">
        <ele>219.2</ele>
        <time>2022-11-06T08:53:02Z</time>
      </trkpt>
      <trkpt lat="39.6521180" lon="-0.3968170">
        <ele>218.6</ele>
        <time>2022-11-06T08:53:03Z</time>
      </trkpt>
      <trkpt lat="39.6520350" lon="-0.3968820">
        <ele>218.2</ele>
        <time>2022-11-06T08:53:04Z</time>
      </trkpt>
      <trkpt lat="39.6519700" lon="-0.3969670">
        <ele>218.0</ele>
        <time>2022-11-06T08:53:05Z</time>
      </trkpt>
      <trkpt lat="39.6519170" lon="-0.3970550">
        <ele>218.1</ele>
        <time>2022-11-06T08:53:06Z</time>
      </trkpt>
      <trkpt lat="39.6518790" lon="-0.3971370">
        <ele>218.2</ele>
        <time>2022-11-06T08:53:07Z</time>
      </trkpt>
      <trkpt lat="39.6518790" lon="-0.3971370">
        <ele>218.2</ele>
        <time>2022-11-06T08:53:08Z</time>
      </trkpt>
      <trkpt lat="39.6518790" lon="-0.3971370">
        <ele>218.2</ele>
        <time>2022-11-06T08:53:09Z</time>
      </trkpt>
      <trkpt lat="39.6517290" lon="-0.3973400">
        <ele>218.8</ele>
        <time>2022-11-06T08:53:10Z</time>
      </trkpt>
      <trkpt lat="39.6516750" lon="-0.3973920">
        <ele>219.0</ele>
        <time>2022-11-06T08:53:11Z</time>
      </trkpt>
      <trkpt lat="39.6516300" lon="-0.3974380">
        <ele>219.2</ele>
        <time>2022-11-06T08:53:12Z</time>
      </trkpt>
      <trkpt lat="39.6515840" lon="-0.3974820">
        <ele>219.5</ele>
        <time>2022-11-06T08:53:13Z</time>
      </trkpt>
      <trkpt lat="39.6515360" lon="-0.3975280">
        <ele>219.7</ele>
        <time>2022-11-06T08:53:14Z</time>
      </trkpt>
      <trkpt lat="39.6514980" lon="-0.3975700">
        <ele>219.9</ele>
        <time>2022-11-06T08:53:15Z</time>
      </trkpt>
      <trkpt lat="39.6514580" lon="-0.3976180">
        <ele>220.1</ele>
        <time>2022-11-06T08:53:16Z</time>
      </trkpt>
      <trkpt lat="39.6514230" lon="-0.3976680">
        <ele>220.4</ele>
        <time>2022-11-06T08:53:17Z</time>
      </trkpt>
      <trkpt lat="39.6514230" lon="-0.3976680">
        <ele>220.4</ele>
        <time>2022-11-06T08:53:18Z</time>
      </trkpt>
      <trkpt lat="39.6513510" lon="-0.3977480">
        <ele>220.9</ele>
        <time>2022-11-06T08:53:19Z</time>
      </trkpt>
      <trkpt lat="39.6513180" lon="-0.3977850">
        <ele>221.3</ele>
        <time>2022-11-06T08:53:20Z</time>
      </trkpt>
      <trkpt lat="39.6512840" lon="-0.3978120">
        <ele>221.7</ele>
        <time>2022-11-06T08:53:21Z</time>
      </trkpt>
      <trkpt lat="39.6512570" lon="-0.3978350">
        <ele>222.0</ele>
        <time>2022-11-06T08:53:22Z</time>
      </trkpt>
      <trkpt lat="39.6512300" lon="-0.3978570">
        <ele>222.4</ele>
        <time>2022-11-06T08:53:23Z</time>
      </trkpt>
      <trkpt lat="39.6512110" lon="-0.3978730">
        <ele>222.7</ele>
        <time>2022-11-06T08:53:24Z</time>
      </trkpt>
      <trkpt lat="39.6511870" lon="-0.3978930">
        <ele>223.0</ele>
        <time>2022-11-06T08:53:25Z</time>
      </trkpt>
      <trkpt lat="39.6511660" lon="-0.3979130">
        <ele>223.4</ele>
        <time>2022-11-06T08:53:26Z</time>
      </trkpt>
      <trkpt lat="39.6511410" lon="-0.3979330">
        <ele>223.8</ele>
        <time>2022-11-06T08:53:27Z</time>
      </trkpt>
      <trkpt lat="39.6511200" lon="-0.3979480">
        <ele>224.1</ele>
        <time>2022-11-06T08:53:28Z</time>
      </trkpt>
      <trkpt lat="39.6511200" lon="-0.3979480">
        <ele>224.1</ele>
        <time>2022-11-06T08:53:29Z</time>
      </trkpt>
      <trkpt lat="39.6510800" lon="-0.3979720">
        <ele>224.7</ele>
        <time>2022-11-06T08:53:30Z</time>
      </trkpt>
      <trkpt lat="39.6510580" lon="-0.3979900">
        <ele>225.0</ele>
        <time>2022-11-06T08:53:31Z</time>
      </trkpt>
      <trkpt lat="39.6510420" lon="-0.3980080">
        <ele>225.3</ele>
        <time>2022-11-06T08:53:32Z</time>
      </trkpt>
      <trkpt lat="39.6510230" lon="-0.3980300">
        <ele>225.6</ele>
        <time>2022-11-06T08:53:33Z</time>
      </trkpt>
      <trkpt lat="39.6510070" lon="-0.3980480">
        <ele>225.9</ele>
        <time>2022-11-06T08:53:34Z</time>
      </trkpt>
      <trkpt lat="39.6509890" lon="-0.3980650">
        <ele>226.2</ele>
        <time>2022-11-06T08:53:35Z</time>
      </trkpt>
      <trkpt lat="39.6509700" lon="-0.3980870">
        <ele>226.5</ele>
        <time>2022-11-06T08:53:36Z</time>
      </trkpt>
      <trkpt lat="39.6509510" lon="-0.3981080">
        <ele>226.8</ele>
        <time>2022-11-06T08:53:37Z</time>
      </trkpt>
      <trkpt lat="39.6509510" lon="-0.3981080">
        <ele>226.8</ele>
        <time>2022-11-06T08:53:38Z</time>
      </trkpt>
      <trkpt lat="39.6509510" lon="-0.3981080">
        <ele>226.8</ele>
        <time>2022-11-06T08:53:39Z</time>
      </trkpt>
      <trkpt lat="39.6508950" lon="-0.3981870">
        <ele>227.8</ele>
        <time>2022-11-06T08:53:40Z</time>
      </trkpt>
      <trkpt lat="39.6508760" lon="-0.3982120">
        <ele>228.2</ele>
        <time>2022-11-06T08:53:41Z</time>
      </trkpt>
      <trkpt lat="39.6508520" lon="-0.3982400">
        <ele>228.5</ele>
        <time>2022-11-06T08:53:42Z</time>
      </trkpt>
      <trkpt lat="39.6508360" lon="-0.3982700">
        <ele>228.9</ele>
        <time>2022-11-06T08:53:43Z</time>
      </trkpt>
      <trkpt lat="39.6508220" lon="-0.3983000">
        <ele>229.2</ele>
        <time>2022-11-06T08:53:44Z</time>
      </trkpt>
      <trkpt lat="39.6508040" lon="-0.3983300">
        <ele>229.5</ele>
        <time>2022-11-06T08:53:45Z</time>
      </trkpt>
      <trkpt lat="39.6507850" lon="-0.3983580">
        <ele>229.9</ele>
        <time>2022-11-06T08:53:46Z</time>
      </trkpt>
      <trkpt lat="39.6507690" lon="-0.3983850">
        <ele>230.2</ele>
        <time>2022-11-06T08:53:47Z</time>
      </trkpt>
      <trkpt lat="39.6507500" lon="-0.3984180">
        <ele>230.6</ele>
        <time>2022-11-06T08:53:48Z</time>
      </trkpt>
      <trkpt lat="39.6507500" lon="-0.3984180">
        <ele>230.6</ele>
        <time>2022-11-06T08:53:49Z</time>
      </trkpt>
      <trkpt lat="39.6507500" lon="-0.3984180">
        <ele>230.6</ele>
        <time>2022-11-06T08:53:50Z</time>
      </trkpt>
      <trkpt lat="39.6507040" lon="-0.3984930">
        <ele>231.5</ele>
        <time>2022-11-06T08:53:51Z</time>
      </trkpt>
      <trkpt lat="39.6506880" lon="-0.3985170">
        <ele>231.9</ele>
        <time>2022-11-06T08:53:52Z</time>
      </trkpt>
      <trkpt lat="39.6506690" lon="-0.3985420">
        <ele>232.3</ele>
        <time>2022-11-06T08:53:53Z</time>
      </trkpt>
      <trkpt lat="39.6506590" lon="-0.3985680">
        <ele>232.6</ele>
        <time>2022-11-06T08:53:54Z</time>
      </trkpt>
      <trkpt lat="39.6506450" lon="-0.3985920">
        <ele>233.0</ele>
        <time>2022-11-06T08:53:55Z</time>
      </trkpt>
      <trkpt lat="39.6506320" lon="-0.3986170">
        <ele>233.4</ele>
        <time>2022-11-06T08:53:56Z</time>
      </trkpt>
      <trkpt lat="39.6506180" lon="-0.3986400">
        <ele>233.7</ele>
        <time>2022-11-06T08:53:57Z</time>
      </trkpt>
      <trkpt lat="39.6506050" lon="-0.3986630">
        <ele>234.1</ele>
        <time>2022-11-06T08:53:58Z</time>
      </trkpt>
      <trkpt lat="39.6506050" lon="-0.3986630">
        <ele>234.1</ele>
        <time>2022-11-06T08:53:59Z</time>
      </trkpt>
      <trkpt lat="39.6505700" lon="-0.3987050">
        <ele>234.8</ele>
        <time>2022-11-06T08:54:00Z</time>
      </trkpt>
      <trkpt lat="39.6505540" lon="-0.3987270">
        <ele>235.2</ele>
        <time>2022-11-06T08:54:01Z</time>
      </trkpt>
      <trkpt lat="39.6505430" lon="-0.3987480">
        <ele>235.5</ele>
        <time>2022-11-06T08:54:02Z</time>
      </trkpt>
      <trkpt lat="39.6505330" lon="-0.3987730">
        <ele>235.8</ele>
        <time>2022-11-06T08:54:03Z</time>
      </trkpt>
      <trkpt lat="39.6505170" lon="-0.3987980">
        <ele>236.2</ele>
        <time>2022-11-06T08:54:04Z</time>
      </trkpt>
      <trkpt lat="39.6505060" lon="-0.3988230">
        <ele>236.5</ele>
        <time>2022-11-06T08:54:05Z</time>
      </trkpt>
      <trkpt lat="39.6504900" lon="-0.3988520">
        <ele>236.9</ele>
        <time>2022-11-06T08:54:06Z</time>
      </trkpt>
      <trkpt lat="39.6504740" lon="-0.3988780">
        <ele>237.2</ele>
        <time>2022-11-06T08:54:07Z</time>
      </trkpt>
      <trkpt lat="39.6504630" lon="-0.3989020">
        <ele>237.5</ele>
        <time>2022-11-06T08:54:08Z</time>
      </trkpt>
      <trkpt lat="39.6504440" lon="-0.3989400">
        <ele>237.9</ele>
        <time>2022-11-06T08:54:09Z</time>
      </trkpt>
      <trkpt lat="39.6504440" lon="-0.3989400">
        <ele>237.9</ele>
        <time>2022-11-06T08:54:10Z</time>
      </trkpt>
      <trkpt lat="39.6504150" lon="-0.3989900">
        <ele>238.3</ele>
        <time>2022-11-06T08:54:11Z</time>
      </trkpt>
      <trkpt lat="39.6503980" lon="-0.3990170">
        <ele>238.6</ele>
        <time>2022-11-06T08:54:12Z</time>
      </trkpt>
      <trkpt lat="39.6503740" lon="-0.3990420">
        <ele>238.9</ele>
        <time>2022-11-06T08:54:13Z</time>
      </trkpt>
      <trkpt lat="39.6503610" lon="-0.3990630">
        <ele>239.0</ele>
        <time>2022-11-06T08:54:14Z</time>
      </trkpt>
      <trkpt lat="39.6503450" lon="-0.3990880">
        <ele>239.2</ele>
        <time>2022-11-06T08:54:15Z</time>
      </trkpt>
      <trkpt lat="39.6503290" lon="-0.3991100">
        <ele>239.4</ele>
        <time>2022-11-06T08:54:16Z</time>
      </trkpt>
      <trkpt lat="39.6503150" lon="-0.3991320">
        <ele>239.5</ele>
        <time>2022-11-06T08:54:17Z</time>
      </trkpt>
      <trkpt lat="39.6502970" lon="-0.3991530">
        <ele>239.7</ele>
        <time>2022-11-06T08:54:18Z</time>
      </trkpt>
      <trkpt lat="39.6502750" lon="-0.3991780">
        <ele>239.8</ele>
        <time>2022-11-06T08:54:19Z</time>
      </trkpt>
      <trkpt lat="39.6502750" lon="-0.3991780">
        <ele>239.8</ele>
        <time>2022-11-06T08:54:20Z</time>
      </trkpt>
      <trkpt lat="39.6502480" lon="-0.3992270">
        <ele>239.8</ele>
        <time>2022-11-06T08:54:21Z</time>
      </trkpt>
      <trkpt lat="39.6502300" lon="-0.3992480">
        <ele>239.8</ele>
        <time>2022-11-06T08:54:22Z</time>
      </trkpt>
      <trkpt lat="39.6502160" lon="-0.3992750">
        <ele>239.8</ele>
        <time>2022-11-06T08:54:23Z</time>
      </trkpt>
      <trkpt lat="39.6502000" lon="-0.3993030">
        <ele>239.8</ele>
        <time>2022-11-06T08:54:24Z</time>
      </trkpt>
      <trkpt lat="39.6501840" lon="-0.3993330">
        <ele>239.7</ele>
        <time>2022-11-06T08:54:25Z</time>
      </trkpt>
      <trkpt lat="39.6501710" lon="-0.3993670">
        <ele>239.7</ele>
        <time>2022-11-06T08:54:26Z</time>
      </trkpt>
      <trkpt lat="39.6501490" lon="-0.3994030">
        <ele>239.6</ele>
        <time>2022-11-06T08:54:27Z</time>
      </trkpt>
      <trkpt lat="39.6501360" lon="-0.3994450">
        <ele>239.5</ele>
        <time>2022-11-06T08:54:28Z</time>
      </trkpt>
      <trkpt lat="39.6501250" lon="-0.3994880">
        <ele>239.4</ele>
        <time>2022-11-06T08:54:29Z</time>
      </trkpt>
      <trkpt lat="39.6501250" lon="-0.3994880">
        <ele>239.4</ele>
        <time>2022-11-06T08:54:30Z</time>
      </trkpt>
      <trkpt lat="39.6501250" lon="-0.3994880">
        <ele>239.4</ele>
        <time>2022-11-06T08:54:31Z</time>
      </trkpt>
      <trkpt lat="39.6500980" lon="-0.3996530">
        <ele>238.9</ele>
        <time>2022-11-06T08:54:32Z</time>
      </trkpt>
      <trkpt lat="39.6500900" lon="-0.3997230">
        <ele>238.6</ele>
        <time>2022-11-06T08:54:33Z</time>
      </trkpt>
      <trkpt lat="39.6500850" lon="-0.3997980">
        <ele>238.3</ele>
        <time>2022-11-06T08:54:34Z</time>
      </trkpt>
      <trkpt lat="39.6500770" lon="-0.3998770">
        <ele>238.0</ele>
        <time>2022-11-06T08:54:35Z</time>
      </trkpt>
      <trkpt lat="39.6500710" lon="-0.3999550">
        <ele>237.8</ele>
        <time>2022-11-06T08:54:36Z</time>
      </trkpt>
      <trkpt lat="39.6500550" lon="-0.4000350">
        <ele>237.6</ele>
        <time>2022-11-06T08:54:37Z</time>
      </trkpt>
      <trkpt lat="39.6500440" lon="-0.4001170">
        <ele>237.4</ele>
        <time>2022-11-06T08:54:38Z</time>
      </trkpt>
      <trkpt lat="39.6500260" lon="-0.4002100">
        <ele>237.3</ele>
        <time>2022-11-06T08:54:39Z</time>
      </trkpt>
      <trkpt lat="39.6500260" lon="-0.4002100">
        <ele>237.3</ele>
        <time>2022-11-06T08:54:40Z</time>
      </trkpt>
      <trkpt lat="39.6500260" lon="-0.4002100">
        <ele>237.3</ele>
        <time>2022-11-06T08:54:41Z</time>
      </trkpt>
      <trkpt lat="39.6499770" lon="-0.4004630">
        <ele>237.1</ele>
        <time>2022-11-06T08:54:42Z</time>
      </trkpt>
      <trkpt lat="39.6499670" lon="-0.4005480">
        <ele>237.1</ele>
        <time>2022-11-06T08:54:43Z</time>
      </trkpt>
      <trkpt lat="39.6499560" lon="-0.4006330">
        <ele>237.0</ele>
        <time>2022-11-06T08:54:44Z</time>
      </trkpt>
      <trkpt lat="39.6499480" lon="-0.4007130">
        <ele>237.1</ele>
        <time>2022-11-06T08:54:45Z</time>
      </trkpt>
      <trkpt lat="39.6499450" lon="-0.4007950">
        <ele>237.2</ele>
        <time>2022-11-06T08:54:46Z</time>
      </trkpt>
      <trkpt lat="39.6499400" lon="-0.4008700">
        <ele>237.4</ele>
        <time>2022-11-06T08:54:47Z</time>
      </trkpt>
      <trkpt lat="39.6499400" lon="-0.4009300">
        <ele>237.7</ele>
        <time>2022-11-06T08:54:48Z</time>
      </trkpt>
      <trkpt lat="39.6499400" lon="-0.4009900">
        <ele>237.9</ele>
        <time>2022-11-06T08:54:49Z</time>
      </trkpt>
      <trkpt lat="39.6499450" lon="-0.4010450">
        <ele>238.2</ele>
        <time>2022-11-06T08:54:50Z</time>
      </trkpt>
      <trkpt lat="39.6499450" lon="-0.4010450">
        <ele>238.2</ele>
        <time>2022-11-06T08:54:51Z</time>
      </trkpt>
      <trkpt lat="39.6499450" lon="-0.4011530">
        <ele>238.7</ele>
        <time>2022-11-06T08:54:52Z</time>
      </trkpt>
      <trkpt lat="39.6499480" lon="-0.4011980">
        <ele>239.0</ele>
        <time>2022-11-06T08:54:53Z</time>
      </trkpt>
      <trkpt lat="39.6499530" lon="-0.4012380">
        <ele>239.2</ele>
        <time>2022-11-06T08:54:54Z</time>
      </trkpt>
      <trkpt lat="39.6499590" lon="-0.4012750">
        <ele>239.4</ele>
        <time>2022-11-06T08:54:55Z</time>
      </trkpt>
      <trkpt lat="39.6499590" lon="-0.4013080">
        <ele>239.6</ele>
        <time>2022-11-06T08:54:56Z</time>
      </trkpt>
      <trkpt lat="39.6499640" lon="-0.4013430">
        <ele>239.9</ele>
        <time>2022-11-06T08:54:57Z</time>
      </trkpt>
      <trkpt lat="39.6499720" lon="-0.4013700">
        <ele>240.0</ele>
        <time>2022-11-06T08:54:58Z</time>
      </trkpt>
      <trkpt lat="39.6499750" lon="-0.4014030">
        <ele>240.3</ele>
        <time>2022-11-06T08:54:59Z</time>
      </trkpt>
      <trkpt lat="39.6499770" lon="-0.4014500">
        <ele>240.5</ele>
        <time>2022-11-06T08:55:00Z</time>
      </trkpt>
      <trkpt lat="39.6499770" lon="-0.4014500">
        <ele>240.5</ele>
        <time>2022-11-06T08:55:01Z</time>
      </trkpt>
      <trkpt lat="39.6499910" lon="-0.4015330">
        <ele>241.1</ele>
        <time>2022-11-06T08:55:02Z</time>
      </trkpt>
      <trkpt lat="39.6499930" lon="-0.4015730">
        <ele>241.3</ele>
        <time>2022-11-06T08:55:03Z</time>
      </trkpt>
      <trkpt lat="39.6500020" lon="-0.4016120">
        <ele>241.6</ele>
        <time>2022-11-06T08:55:04Z</time>
      </trkpt>
      <trkpt lat="39.6500100" lon="-0.4016500">
        <ele>241.8</ele>
        <time>2022-11-06T08:55:05Z</time>
      </trkpt>
      <trkpt lat="39.6500120" lon="-0.4016880">
        <ele>242.0</ele>
        <time>2022-11-06T08:55:06Z</time>
      </trkpt>
      <trkpt lat="39.6500180" lon="-0.4017350">
        <ele>242.3</ele>
        <time>2022-11-06T08:55:07Z</time>
      </trkpt>
      <trkpt lat="39.6500260" lon="-0.4017770">
        <ele>242.5</ele>
        <time>2022-11-06T08:55:08Z</time>
      </trkpt>
      <trkpt lat="39.6500280" lon="-0.4018200">
        <ele>242.7</ele>
        <time>2022-11-06T08:55:09Z</time>
      </trkpt>
      <trkpt lat="39.6500310" lon="-0.4018620">
        <ele>242.9</ele>
        <time>2022-11-06T08:55:10Z</time>
      </trkpt>
      <trkpt lat="39.6500360" lon="-0.4019020">
        <ele>243.1</ele>
        <time>2022-11-06T08:55:11Z</time>
      </trkpt>
      <trkpt lat="39.6500360" lon="-0.4019020">
        <ele>243.1</ele>
        <time>2022-11-06T08:55:12Z</time>
      </trkpt>
      <trkpt lat="39.6500360" lon="-0.4019870">
        <ele>243.5</ele>
        <time>2022-11-06T08:55:13Z</time>
      </trkpt>
      <trkpt lat="39.6500390" lon="-0.4020230">
        <ele>243.7</ele>
        <time>2022-11-06T08:55:14Z</time>
      </trkpt>
      <trkpt lat="39.6500440" lon="-0.4020600">
        <ele>244.0</ele>
        <time>2022-11-06T08:55:15Z</time>
      </trkpt>
      <trkpt lat="39.6500440" lon="-0.4020930">
        <ele>244.2</ele>
        <time>2022-11-06T08:55:16Z</time>
      </trkpt>
      <trkpt lat="39.6500390" lon="-0.4021270">
        <ele>244.4</ele>
        <time>2022-11-06T08:55:17Z</time>
      </trkpt>
      <trkpt lat="39.6500440" lon="-0.4021570">
        <ele>244.5</ele>
        <time>2022-11-06T08:55:18Z</time>
      </trkpt>
      <trkpt lat="39.6500440" lon="-0.4021900">
        <ele>244.8</ele>
        <time>2022-11-06T08:55:19Z</time>
      </trkpt>
      <trkpt lat="39.6500440" lon="-0.4022200">
        <ele>245.0</ele>
        <time>2022-11-06T08:55:20Z</time>
      </trkpt>
      <trkpt lat="39.6500440" lon="-0.4022200">
        <ele>245.0</ele>
        <time>2022-11-06T08:55:21Z</time>
      </trkpt>
      <trkpt lat="39.6500440" lon="-0.4022200">
        <ele>245.0</ele>
        <time>2022-11-06T08:55:22Z</time>
      </trkpt>
      <trkpt lat="39.6500440" lon="-0.4023130">
        <ele>245.7</ele>
        <time>2022-11-06T08:55:23Z</time>
      </trkpt>
      <trkpt lat="39.6500440" lon="-0.4023520">
        <ele>246.0</ele>
        <time>2022-11-06T08:55:24Z</time>
      </trkpt>
      <trkpt lat="39.6500470" lon="-0.4023850">
        <ele>246.3</ele>
        <time>2022-11-06T08:55:25Z</time>
      </trkpt>
      <trkpt lat="39.6500550" lon="-0.4024130">
        <ele>246.6</ele>
        <time>2022-11-06T08:55:26Z</time>
      </trkpt>
      <trkpt lat="39.6500630" lon="-0.4024450">
        <ele>246.9</ele>
        <time>2022-11-06T08:55:27Z</time>
      </trkpt>
      <trkpt lat="39.6500710" lon="-0.4024700">
        <ele>247.1</ele>
        <time>2022-11-06T08:55:28Z</time>
      </trkpt>
      <trkpt lat="39.6500770" lon="-0.4024980">
        <ele>247.4</ele>
        <time>2022-11-06T08:55:29Z</time>
      </trkpt>
      <trkpt lat="39.6500930" lon="-0.4025350">
        <ele>247.8</ele>
        <time>2022-11-06T08:55:30Z</time>
      </trkpt>
      <trkpt lat="39.6501090" lon="-0.4025550">
        <ele>248.1</ele>
        <time>2022-11-06T08:55:31Z</time>
      </trkpt>
      <trkpt lat="39.6501090" lon="-0.4025550">
        <ele>248.1</ele>
        <time>2022-11-06T08:55:32Z</time>
      </trkpt>
      <trkpt lat="39.6501090" lon="-0.4025550">
        <ele>248.1</ele>
        <time>2022-11-06T08:55:33Z</time>
      </trkpt>
      <trkpt lat="39.6501650" lon="-0.4026370">
        <ele>249.3</ele>
        <time>2022-11-06T08:55:34Z</time>
      </trkpt>
      <trkpt lat="39.6501840" lon="-0.4026650">
        <ele>249.7</ele>
        <time>2022-11-06T08:55:35Z</time>
      </trkpt>
      <trkpt lat="39.6501970" lon="-0.4027050">
        <ele>250.2</ele>
        <time>2022-11-06T08:55:36Z</time>
      </trkpt>
      <trkpt lat="39.6502080" lon="-0.4027280">
        <ele>250.5</ele>
        <time>2022-11-06T08:55:37Z</time>
      </trkpt>
      <trkpt lat="39.6502210" lon="-0.4027530">
        <ele>250.8</ele>
        <time>2022-11-06T08:55:38Z</time>
      </trkpt>
      <trkpt lat="39.6502430" lon="-0.4027800">
        <ele>251.2</ele>
        <time>2022-11-06T08:55:39Z</time>
      </trkpt>
      <trkpt lat="39.6502620" lon="-0.4028120">
        <ele>251.6</ele>
        <time>2022-11-06T08:55:40Z</time>
      </trkpt>
      <trkpt lat="39.6502830" lon="-0.4028350">
        <ele>252.0</ele>
        <time>2022-11-06T08:55:41Z</time>
      </trkpt>
      <trkpt lat="39.6502830" lon="-0.4028350">
        <ele>252.0</ele>
        <time>2022-11-06T08:55:42Z</time>
      </trkpt>
      <trkpt lat="39.6503210" lon="-0.4029170">
        <ele>252.8</ele>
        <time>2022-11-06T08:55:43Z</time>
      </trkpt>
      <trkpt lat="39.6503420" lon="-0.4029480">
        <ele>253.1</ele>
        <time>2022-11-06T08:55:44Z</time>
      </trkpt>
      <trkpt lat="39.6503610" lon="-0.4029850">
        <ele>253.5</ele>
        <time>2022-11-06T08:55:45Z</time>
      </trkpt>
      <trkpt lat="39.6503740" lon="-0.4030130">
        <ele>253.7</ele>
        <time>2022-11-06T08:55:46Z</time>
      </trkpt>
      <trkpt lat="39.6503900" lon="-0.4030420">
        <ele>253.9</ele>
        <time>2022-11-06T08:55:47Z</time>
      </trkpt>
      <trkpt lat="39.6504090" lon="-0.4030720">
        <ele>254.2</ele>
        <time>2022-11-06T08:55:48Z</time>
      </trkpt>
      <trkpt lat="39.6504280" lon="-0.4031000">
        <ele>254.3</ele>
        <time>2022-11-06T08:55:49Z</time>
      </trkpt>
      <trkpt lat="39.6504470" lon="-0.4031300">
        <ele>254.3</ele>
        <time>2022-11-06T08:55:50Z</time>
      </trkpt>
      <trkpt lat="39.6504710" lon="-0.4031600">
        <ele>254.3</ele>
        <time>2022-11-06T08:55:51Z</time>
      </trkpt>
      <trkpt lat="39.6504980" lon="-0.4031920">
        <ele>254.3</ele>
        <time>2022-11-06T08:55:52Z</time>
      </trkpt>
      <trkpt lat="39.6504980" lon="-0.4031920">
        <ele>254.3</ele>
        <time>2022-11-06T08:55:53Z</time>
      </trkpt>
      <trkpt lat="39.6505510" lon="-0.4032550">
        <ele>254.3</ele>
        <time>2022-11-06T08:55:54Z</time>
      </trkpt>
      <trkpt lat="39.6505780" lon="-0.4032880">
        <ele>254.3</ele>
        <time>2022-11-06T08:55:55Z</time>
      </trkpt>
      <trkpt lat="39.6506080" lon="-0.4033200">
        <ele>254.3</ele>
        <time>2022-11-06T08:55:56Z</time>
      </trkpt>
      <trkpt lat="39.6506400" lon="-0.4033530">
        <ele>254.3</ele>
        <time>2022-11-06T08:55:57Z</time>
      </trkpt>
      <trkpt lat="39.6506610" lon="-0.4033880">
        <ele>254.3</ele>
        <time>2022-11-06T08:55:58Z</time>
      </trkpt>
      <trkpt lat="39.6506910" lon="-0.4034250">
        <ele>254.3</ele>
        <time>2022-11-06T08:55:59Z</time>
      </trkpt>
      <trkpt lat="39.6507230" lon="-0.4034600">
        <ele>254.3</ele>
        <time>2022-11-06T08:56:00Z</time>
      </trkpt>
      <trkpt lat="39.6507580" lon="-0.4034950">
        <ele>254.3</ele>
        <time>2022-11-06T08:56:01Z</time>
      </trkpt>
      <trkpt lat="39.6507580" lon="-0.4034950">
        <ele>254.3</ele>
        <time>2022-11-06T08:56:02Z</time>
      </trkpt>
      <trkpt lat="39.6507580" lon="-0.4034950">
        <ele>254.3</ele>
        <time>2022-11-06T08:56:03Z</time>
      </trkpt>
      <trkpt lat="39.6508630" lon="-0.4035880">
        <ele>254.3</ele>
        <time>2022-11-06T08:56:04Z</time>
      </trkpt>
      <trkpt lat="39.6509030" lon="-0.4036200">
        <ele>254.3</ele>
        <time>2022-11-06T08:56:05Z</time>
      </trkpt>
      <trkpt lat="39.6509350" lon="-0.4036600">
        <ele>254.3</ele>
        <time>2022-11-06T08:56:06Z</time>
      </trkpt>
      <trkpt lat="39.6509700" lon="-0.4036920">
        <ele>254.2</ele>
        <time>2022-11-06T08:56:07Z</time>
      </trkpt>
      <trkpt lat="39.6510130" lon="-0.4037230">
        <ele>254.1</ele>
        <time>2022-11-06T08:56:08Z</time>
      </trkpt>
      <trkpt lat="39.6510560" lon="-0.4037500">
        <ele>254.0</ele>
        <time>2022-11-06T08:56:09Z</time>
      </trkpt>
      <trkpt lat="39.6511010" lon="-0.4037730">
        <ele>253.9</ele>
        <time>2022-11-06T08:56:10Z</time>
      </trkpt>
      <trkpt lat="39.6511470" lon="-0.4037980">
        <ele>253.7</ele>
        <time>2022-11-06T08:56:11Z</time>
      </trkpt>
      <trkpt lat="39.6511950" lon="-0.4038270">
        <ele>253.6</ele>
        <time>2022-11-06T08:56:12Z</time>
      </trkpt>
      <trkpt lat="39.6511950" lon="-0.4038270">
        <ele>253.6</ele>
        <time>2022-11-06T08:56:13Z</time>
      </trkpt>
      <trkpt lat="39.6511950" lon="-0.4038270">
        <ele>253.6</ele>
        <time>2022-11-06T08:56:14Z</time>
      </trkpt>
      <trkpt lat="39.6513320" lon="-0.4039780">
        <ele>253.2</ele>
        <time>2022-11-06T08:56:15Z</time>
      </trkpt>
      <trkpt lat="39.6513590" lon="-0.4040430">
        <ele>253.1</ele>
        <time>2022-11-06T08:56:16Z</time>
      </trkpt>
      <trkpt lat="39.6513860" lon="-0.4041080">
        <ele>253.1</ele>
        <time>2022-11-06T08:56:17Z</time>
      </trkpt>
      <trkpt lat="39.6514040" lon="-0.4041680">
        <ele>253.0</ele>
        <time>2022-11-06T08:56:18Z</time>
      </trkpt>
      <trkpt lat="39.6514280" lon="-0.4042300">
        <ele>252.9</ele>
        <time>2022-11-06T08:56:19Z</time>
      </trkpt>
      <trkpt lat="39.6514580" lon="-0.4042880">
        <ele>252.8</ele>
        <time>2022-11-06T08:56:20Z</time>
      </trkpt>
      <trkpt lat="39.6514980" lon="-0.4043450">
        <ele>252.7</ele>
        <time>2022-11-06T08:56:21Z</time>
      </trkpt>
      <trkpt lat="39.6515360" lon="-0.4043950">
        <ele>252.6</ele>
        <time>2022-11-06T08:56:22Z</time>
      </trkpt>
      <trkpt lat="39.6515360" lon="-0.4043950">
        <ele>252.6</ele>
        <time>2022-11-06T08:56:23Z</time>
      </trkpt>
      <trkpt lat="39.6516380" lon="-0.4044880">
        <ele>252.3</ele>
        <time>2022-11-06T08:56:24Z</time>
      </trkpt>
      <trkpt lat="39.6516910" lon="-0.4045300">
        <ele>252.2</ele>
        <time>2022-11-06T08:56:25Z</time>
      </trkpt>
      <trkpt lat="39.6517450" lon="-0.4045700">
        <ele>252.0</ele>
        <time>2022-11-06T08:56:26Z</time>
      </trkpt>
      <trkpt lat="39.6518070" lon="-0.4046050">
        <ele>251.9</ele>
        <time>2022-11-06T08:56:27Z</time>
      </trkpt>
      <trkpt lat="39.6518630" lon="-0.4046380">
        <ele>251.8</ele>
        <time>2022-11-06T08:56:28Z</time>
      </trkpt>
      <trkpt lat="39.6519270" lon="-0.4046670">
        <ele>251.7</ele>
        <time>2022-11-06T08:56:29Z</time>
      </trkpt>
      <trkpt lat="39.6519920" lon="-0.4046870">
        <ele>251.6</ele>
        <time>2022-11-06T08:56:30Z</time>
      </trkpt>
      <trkpt lat="39.6520530" lon="-0.4047050">
        <ele>251.6</ele>
        <time>2022-11-06T08:56:31Z</time>
      </trkpt>
      <trkpt lat="39.6521180" lon="-0.4047200">
        <ele>251.5</ele>
        <time>2022-11-06T08:56:32Z</time>
      </trkpt>
      <trkpt lat="39.6521850" lon="-0.4047250">
        <ele>251.4</ele>
        <time>2022-11-06T08:56:33Z</time>
      </trkpt>
      <trkpt lat="39.6521850" lon="-0.4047250">
        <ele>251.4</ele>
        <time>2022-11-06T08:56:34Z</time>
      </trkpt>
      <trkpt lat="39.6523060" lon="-0.4047100">
        <ele>251.4</ele>
        <time>2022-11-06T08:56:35Z</time>
      </trkpt>
      <trkpt lat="39.6523670" lon="-0.4047030">
        <ele>251.4</ele>
        <time>2022-11-06T08:56:36Z</time>
      </trkpt>
      <trkpt lat="39.6524320" lon="-0.4046930">
        <ele>251.4</ele>
        <time>2022-11-06T08:56:37Z</time>
      </trkpt>
      <trkpt lat="39.6524880" lon="-0.4046830">
        <ele>251.4</ele>
        <time>2022-11-06T08:56:38Z</time>
      </trkpt>
      <trkpt lat="39.6525500" lon="-0.4046680">
        <ele>251.4</ele>
        <time>2022-11-06T08:56:39Z</time>
      </trkpt>
      <trkpt lat="39.6526110" lon="-0.4046470">
        <ele>251.3</ele>
        <time>2022-11-06T08:56:40Z</time>
      </trkpt>
      <trkpt lat="39.6526730" lon="-0.4046250">
        <ele>251.3</ele>
        <time>2022-11-06T08:56:41Z</time>
      </trkpt>
      <trkpt lat="39.6527370" lon="-0.4045950">
        <ele>251.1</ele>
        <time>2022-11-06T08:56:42Z</time>
      </trkpt>
      <trkpt lat="39.6528040" lon="-0.4045770">
        <ele>251.0</ele>
        <time>2022-11-06T08:56:43Z</time>
      </trkpt>
      <trkpt lat="39.6528040" lon="-0.4045770">
        <ele>251.0</ele>
        <time>2022-11-06T08:56:44Z</time>
      </trkpt>
      <trkpt lat="39.6529630" lon="-0.4045820">
        <ele>250.9</ele>
        <time>2022-11-06T08:56:45Z</time>
      </trkpt>
      <trkpt lat="39.6530430" lon="-0.4046050">
        <ele>251.1</ele>
        <time>2022-11-06T08:56:46Z</time>
      </trkpt>
      <trkpt lat="39.6531180" lon="-0.4046200">
        <ele>251.3</ele>
        <time>2022-11-06T08:56:47Z</time>
      </trkpt>
      <trkpt lat="39.6531910" lon="-0.4046420">
        <ele>251.6</ele>
        <time>2022-11-06T08:56:48Z</time>
      </trkpt>
      <trkpt lat="39.6532520" lon="-0.4046500">
        <ele>251.9</ele>
        <time>2022-11-06T08:56:49Z</time>
      </trkpt>
      <trkpt lat="39.6533090" lon="-0.4046670">
        <ele>252.2</ele>
        <time>2022-11-06T08:56:50Z</time>
      </trkpt>
      <trkpt lat="39.6533650" lon="-0.4046730">
        <ele>252.5</ele>
        <time>2022-11-06T08:56:51Z</time>
      </trkpt>
      <trkpt lat="39.6534190" lon="-0.4046700">
        <ele>252.8</ele>
        <time>2022-11-06T08:56:52Z</time>
      </trkpt>
      <trkpt lat="39.6534720" lon="-0.4046680">
        <ele>253.1</ele>
        <time>2022-11-06T08:56:53Z</time>
      </trkpt>
      <trkpt lat="39.6534720" lon="-0.4046680">
        <ele>253.1</ele>
        <time>2022-11-06T08:56:54Z</time>
      </trkpt>
      <trkpt lat="39.6534720" lon="-0.4046680">
        <ele>253.1</ele>
        <time>2022-11-06T08:56:55Z</time>
      </trkpt>
      <trkpt lat="39.6536140" lon="-0.4046380">
        <ele>253.8</ele>
        <time>2022-11-06T08:56:56Z</time>
      </trkpt>
      <trkpt lat="39.6536520" lon="-0.4046300">
        <ele>254.0</ele>
        <time>2022-11-06T08:56:57Z</time>
      </trkpt>
      <trkpt lat="39.6536900" lon="-0.4046170">
        <ele>254.3</ele>
        <time>2022-11-06T08:56:58Z</time>
      </trkpt>
      <trkpt lat="39.6537320" lon="-0.4046080">
        <ele>254.4</ele>
        <time>2022-11-06T08:56:59Z</time>
      </trkpt>
      <trkpt lat="39.6537750" lon="-0.4045930">
        <ele>254.5</ele>
        <time>2022-11-06T08:57:00Z</time>
      </trkpt>
      <trkpt lat="39.6538240" lon="-0.4045900">
        <ele>254.7</ele>
        <time>2022-11-06T08:57:01Z</time>
      </trkpt>
      <trkpt lat="39.6538670" lon="-0.4045750">
        <ele>254.9</ele>
        <time>2022-11-06T08:57:02Z</time>
      </trkpt>
      <trkpt lat="39.6539070" lon="-0.4045600">
        <ele>255.0</ele>
        <time>2022-11-06T08:57:03Z</time>
      </trkpt>
      <trkpt lat="39.6539070" lon="-0.4045600">
        <ele>255.0</ele>
        <time>2022-11-06T08:57:04Z</time>
      </trkpt>
      <trkpt lat="39.6539070" lon="-0.4045600">
        <ele>255.0</ele>
        <time>2022-11-06T08:57:05Z</time>
      </trkpt>
      <trkpt lat="39.6540380" lon="-0.4045230">
        <ele>255.4</ele>
        <time>2022-11-06T08:57:06Z</time>
      </trkpt>
      <trkpt lat="39.6540840" lon="-0.4045120">
        <ele>255.6</ele>
        <time>2022-11-06T08:57:07Z</time>
      </trkpt>
      <trkpt lat="39.6541290" lon="-0.4045050">
        <ele>255.7</ele>
        <time>2022-11-06T08:57:08Z</time>
      </trkpt>
      <trkpt lat="39.6541780" lon="-0.4044970">
        <ele>255.8</ele>
        <time>2022-11-06T08:57:09Z</time>
      </trkpt>
      <trkpt lat="39.6542230" lon="-0.4044920">
        <ele>256.0</ele>
        <time>2022-11-06T08:57:10Z</time>
      </trkpt>
      <trkpt lat="39.6542690" lon="-0.4044870">
        <ele>256.1</ele>
        <time>2022-11-06T08:57:11Z</time>
      </trkpt>
      <trkpt lat="39.6543170" lon="-0.4044830">
        <ele>256.2</ele>
        <time>2022-11-06T08:57:12Z</time>
      </trkpt>
      <trkpt lat="39.6543570" lon="-0.4044850">
        <ele>256.3</ele>
        <time>2022-11-06T08:57:13Z</time>
      </trkpt>
      <trkpt lat="39.6544000" lon="-0.4044900">
        <ele>256.5</ele>
        <time>2022-11-06T08:57:14Z</time>
      </trkpt>
      <trkpt lat="39.6544000" lon="-0.4044900">
        <ele>256.5</ele>
        <time>2022-11-06T08:57:15Z</time>
      </trkpt>
      <trkpt lat="39.6544830" lon="-0.4045000">
        <ele>256.6</ele>
        <time>2022-11-06T08:57:16Z</time>
      </trkpt>
      <trkpt lat="39.6545210" lon="-0.4045050">
        <ele>256.7</ele>
        <time>2022-11-06T08:57:17Z</time>
      </trkpt>
      <trkpt lat="39.6545640" lon="-0.4045120">
        <ele>256.7</ele>
        <time>2022-11-06T08:57:18Z</time>
      </trkpt>
      <trkpt lat="39.6546020" lon="-0.4045150">
        <ele>256.7</ele>
        <time>2022-11-06T08:57:19Z</time>
      </trkpt>
      <trkpt lat="39.6546390" lon="-0.4045200">
        <ele>256.6</ele>
        <time>2022-11-06T08:57:20Z</time>
      </trkpt>
      <trkpt lat="39.6546790" lon="-0.4045220">
        <ele>256.5</ele>
        <time>2022-11-06T08:57:21Z</time>
      </trkpt>
      <trkpt lat="39.6547110" lon="-0.4045230">
        <ele>256.4</ele>
        <time>2022-11-06T08:57:22Z</time>
      </trkpt>
      <trkpt lat="39.6547600" lon="-0.4045220">
        <ele>256.1</ele>
        <time>2022-11-06T08:57:23Z</time>
      </trkpt>
      <trkpt lat="39.6548050" lon="-0.4045200">
        <ele>255.8</ele>
        <time>2022-11-06T08:57:24Z</time>
      </trkpt>
      <trkpt lat="39.6548050" lon="-0.4045200">
        <ele>255.8</ele>
        <time>2022-11-06T08:57:25Z</time>
      </trkpt>
      <trkpt lat="39.6549340" lon="-0.4045130">
        <ele>254.5</ele>
        <time>2022-11-06T08:57:26Z</time>
      </trkpt>
      <trkpt lat="39.6550150" lon="-0.4045120">
        <ele>253.7</ele>
        <time>2022-11-06T08:57:27Z</time>
      </trkpt>
      <trkpt lat="39.6550980" lon="-0.4045330">
        <ele>252.7</ele>
        <time>2022-11-06T08:57:28Z</time>
      </trkpt>
      <trkpt lat="39.6551810" lon="-0.4045820">
        <ele>251.7</ele>
        <time>2022-11-06T08:57:29Z</time>
      </trkpt>
      <trkpt lat="39.6552480" lon="-0.4046650">
        <ele>250.9</ele>
        <time>2022-11-06T08:57:30Z</time>
      </trkpt>
      <trkpt lat="39.6553070" lon="-0.4047680">
        <ele>250.1</ele>
        <time>2022-11-06T08:57:31Z</time>
      </trkpt>
      <trkpt lat="39.6553580" lon="-0.4048580">
        <ele>249.4</ele>
        <time>2022-11-06T08:57:32Z</time>
      </trkpt>
      <trkpt lat="39.6553770" lon="-0.4049670">
        <ele>248.8</ele>
        <time>2022-11-06T08:57:33Z</time>
      </trkpt>
      <trkpt lat="39.6553930" lon="-0.4050530">
        <ele>248.4</ele>
        <time>2022-11-06T08:57:34Z</time>
      </trkpt>
      <trkpt lat="39.6553930" lon="-0.4050530">
        <ele>248.4</ele>
        <time>2022-11-06T08:57:35Z</time>
      </trkpt>
      <trkpt lat="39.6553930" lon="-0.4050530">
        <ele>248.4</ele>
        <time>2022-11-06T08:57:36Z</time>
      </trkpt>
      <trkpt lat="39.6554220" lon="-0.4052500">
        <ele>247.5</ele>
        <time>2022-11-06T08:57:37Z</time>
      </trkpt>
      <trkpt lat="39.6554330" lon="-0.4053220">
        <ele>247.2</ele>
        <time>2022-11-06T08:57:38Z</time>
      </trkpt>
      <trkpt lat="39.6554460" lon="-0.4053920">
        <ele>246.9</ele>
        <time>2022-11-06T08:57:39Z</time>
      </trkpt>
      <trkpt lat="39.6554570" lon="-0.4054750">
        <ele>246.3</ele>
        <time>2022-11-06T08:57:40Z</time>
      </trkpt>
      <trkpt lat="39.6554650" lon="-0.4055530">
        <ele>245.8</ele>
        <time>2022-11-06T08:57:41Z</time>
      </trkpt>
      <trkpt lat="39.6554760" lon="-0.4056370">
        <ele>245.2</ele>
        <time>2022-11-06T08:57:42Z</time>
      </trkpt>
      <trkpt lat="39.6554790" lon="-0.4057150">
        <ele>244.7</ele>
        <time>2022-11-06T08:57:43Z</time>
      </trkpt>
      <trkpt lat="39.6554710" lon="-0.4058070">
        <ele>244.2</ele>
        <time>2022-11-06T08:57:44Z</time>
      </trkpt>
      <trkpt lat="39.6554710" lon="-0.4058070">
        <ele>244.2</ele>
        <time>2022-11-06T08:57:45Z</time>
      </trkpt>
      <trkpt lat="39.6554710" lon="-0.4058070">
        <ele>244.2</ele>
        <time>2022-11-06T08:57:46Z</time>
      </trkpt>
      <trkpt lat="39.6554120" lon="-0.4061020">
        <ele>243.0</ele>
        <time>2022-11-06T08:57:47Z</time>
      </trkpt>
      <trkpt lat="39.6553770" lon="-0.4062070">
        <ele>242.8</ele>
        <time>2022-11-06T08:57:48Z</time>
      </trkpt>
      <trkpt lat="39.6553470" lon="-0.4062970">
        <ele>242.6</ele>
        <time>2022-11-06T08:57:49Z</time>
      </trkpt>
      <trkpt lat="39.6553120" lon="-0.4063800">
        <ele>242.6</ele>
        <time>2022-11-06T08:57:50Z</time>
      </trkpt>
      <trkpt lat="39.6552750" lon="-0.4064520">
        <ele>242.5</ele>
        <time>2022-11-06T08:57:51Z</time>
      </trkpt>
      <trkpt lat="39.6552320" lon="-0.4065350">
        <ele>242.6</ele>
        <time>2022-11-06T08:57:52Z</time>
      </trkpt>
      <trkpt lat="39.6551940" lon="-0.4066150">
        <ele>242.7</ele>
        <time>2022-11-06T08:57:53Z</time>
      </trkpt>
      <trkpt lat="39.6551540" lon="-0.4066870">
        <ele>242.9</ele>
        <time>2022-11-06T08:57:54Z</time>
      </trkpt>
      <trkpt lat="39.6551330" lon="-0.4067600">
        <ele>243.2</ele>
        <time>2022-11-06T08:57:55Z</time>
      </trkpt>
      <trkpt lat="39.6551330" lon="-0.4067600">
        <ele>243.2</ele>
        <time>2022-11-06T08:57:56Z</time>
      </trkpt>
      <trkpt lat="39.6551330" lon="-0.4067600">
        <ele>243.2</ele>
        <time>2022-11-06T08:57:57Z</time>
      </trkpt>
      <trkpt lat="39.6550760" lon="-0.4069770">
        <ele>244.0</ele>
        <time>2022-11-06T08:57:58Z</time>
      </trkpt>
      <trkpt lat="39.6550600" lon="-0.4070500">
        <ele>244.3</ele>
        <time>2022-11-06T08:57:59Z</time>
      </trkpt>
      <trkpt lat="39.6550410" lon="-0.4071180">
        <ele>244.6</ele>
        <time>2022-11-06T08:58:00Z</time>
      </trkpt>
      <trkpt lat="39.6550230" lon="-0.4071900">
        <ele>244.9</ele>
        <time>2022-11-06T08:58:01Z</time>
      </trkpt>
      <trkpt lat="39.6550070" lon="-0.4072550">
        <ele>245.2</ele>
        <time>2022-11-06T08:58:02Z</time>
      </trkpt>
      <trkpt lat="39.6549900" lon="-0.4073170">
        <ele>245.5</ele>
        <time>2022-11-06T08:58:03Z</time>
      </trkpt>
      <trkpt lat="39.6549800" lon="-0.4073730">
        <ele>245.7</ele>
        <time>2022-11-06T08:58:04Z</time>
      </trkpt>
      <trkpt lat="39.6549690" lon="-0.4074280">
        <ele>246.0</ele>
        <time>2022-11-06T08:58:05Z</time>
      </trkpt>
      <trkpt lat="39.6549690" lon="-0.4074280">
        <ele>246.0</ele>
        <time>2022-11-06T08:58:06Z</time>
      </trkpt>
      <trkpt lat="39.6549420" lon="-0.4075530">
        <ele>246.5</ele>
        <time>2022-11-06T08:58:07Z</time>
      </trkpt>
      <trkpt lat="39.6549260" lon="-0.4076150">
        <ele>246.8</ele>
        <time>2022-11-06T08:58:08Z</time>
      </trkpt>
      <trkpt lat="39.6549100" lon="-0.4076770">
        <ele>247.0</ele>
        <time>2022-11-06T08:58:09Z</time>
      </trkpt>
      <trkpt lat="39.6548990" lon="-0.4077320">
        <ele>247.2</ele>
        <time>2022-11-06T08:58:10Z</time>
      </trkpt>
      <trkpt lat="39.6548830" lon="-0.4077800">
        <ele>247.4</ele>
        <time>2022-11-06T08:58:11Z</time>
      </trkpt>
      <trkpt lat="39.6548720" lon="-0.4078350">
        <ele>247.6</ele>
        <time>2022-11-06T08:58:12Z</time>
      </trkpt>
      <trkpt lat="39.6548560" lon="-0.4078800">
        <ele>247.8</ele>
        <time>2022-11-06T08:58:13Z</time>
      </trkpt>
      <trkpt lat="39.6548430" lon="-0.4079300">
        <ele>248.0</ele>
        <time>2022-11-06T08:58:14Z</time>
      </trkpt>
      <trkpt lat="39.6548350" lon="-0.4079680">
        <ele>248.2</ele>
        <time>2022-11-06T08:58:15Z</time>
      </trkpt>
      <trkpt lat="39.6548270" lon="-0.4080150">
        <ele>248.5</ele>
        <time>2022-11-06T08:58:16Z</time>
      </trkpt>
      <trkpt lat="39.6548270" lon="-0.4080150">
        <ele>248.5</ele>
        <time>2022-11-06T08:58:17Z</time>
      </trkpt>
      <trkpt lat="39.6548110" lon="-0.4081030">
        <ele>249.0</ele>
        <time>2022-11-06T08:58:18Z</time>
      </trkpt>
      <trkpt lat="39.6547920" lon="-0.4081550">
        <ele>249.3</ele>
        <time>2022-11-06T08:58:19Z</time>
      </trkpt>
      <trkpt lat="39.6547840" lon="-0.4082000">
        <ele>249.7</ele>
        <time>2022-11-06T08:58:20Z</time>
      </trkpt>
      <trkpt lat="39.6547700" lon="-0.4082400">
        <ele>250.0</ele>
        <time>2022-11-06T08:58:21Z</time>
      </trkpt>
      <trkpt lat="39.6547620" lon="-0.4082800">
        <ele>250.3</ele>
        <time>2022-11-06T08:58:22Z</time>
      </trkpt>
      <trkpt lat="39.6547540" lon="-0.4083280">
        <ele>250.6</ele>
        <time>2022-11-06T08:58:23Z</time>
      </trkpt>
      <trkpt lat="39.6547460" lon="-0.4083680">
        <ele>250.9</ele>
        <time>2022-11-06T08:58:24Z</time>
      </trkpt>
      <trkpt lat="39.6547360" lon="-0.4084080">
        <ele>251.3</ele>
        <time>2022-11-06T08:58:25Z</time>
      </trkpt>
      <trkpt lat="39.6547360" lon="-0.4084080">
        <ele>251.3</ele>
        <time>2022-11-06T08:58:26Z</time>
      </trkpt>
      <trkpt lat="39.6547360" lon="-0.4084080">
        <ele>251.3</ele>
        <time>2022-11-06T08:58:27Z</time>
      </trkpt>
      <trkpt lat="39.6546930" lon="-0.4085250">
        <ele>252.3</ele>
        <time>2022-11-06T08:58:28Z</time>
      </trkpt>
      <trkpt lat="39.6546820" lon="-0.4085650">
        <ele>252.6</ele>
        <time>2022-11-06T08:58:29Z</time>
      </trkpt>
      <trkpt lat="39.6546710" lon="-0.4086080">
        <ele>253.0</ele>
        <time>2022-11-06T08:58:30Z</time>
      </trkpt>
      <trkpt lat="39.6546610" lon="-0.4086480">
        <ele>253.3</ele>
        <time>2022-11-06T08:58:31Z</time>
      </trkpt>
      <trkpt lat="39.6546440" lon="-0.4086900">
        <ele>253.7</ele>
        <time>2022-11-06T08:58:32Z</time>
      </trkpt>
      <trkpt lat="39.6546260" lon="-0.4087320">
        <ele>254.0</ele>
        <time>2022-11-06T08:58:33Z</time>
      </trkpt>
      <trkpt lat="39.6546100" lon="-0.4087770">
        <ele>254.3</ele>
        <time>2022-11-06T08:58:34Z</time>
      </trkpt>
      <trkpt lat="39.6545990" lon="-0.4088180">
        <ele>254.5</ele>
        <time>2022-11-06T08:58:35Z</time>
      </trkpt>
      <trkpt lat="39.6545880" lon="-0.4088670">
        <ele>254.7</ele>
        <time>2022-11-06T08:58:36Z</time>
      </trkpt>
      <trkpt lat="39.6545880" lon="-0.4088670">
        <ele>254.7</ele>
        <time>2022-11-06T08:58:37Z</time>
      </trkpt>
      <trkpt lat="39.6545880" lon="-0.4088670">
        <ele>254.7</ele>
        <time>2022-11-06T08:58:38Z</time>
      </trkpt>
      <trkpt lat="39.6545530" lon="-0.4090020">
        <ele>255.2</ele>
        <time>2022-11-06T08:58:39Z</time>
      </trkpt>
      <trkpt lat="39.6545450" lon="-0.4090480">
        <ele>255.3</ele>
        <time>2022-11-06T08:58:40Z</time>
      </trkpt>
      <trkpt lat="39.6545340" lon="-0.4090920">
        <ele>255.3</ele>
        <time>2022-11-06T08:58:41Z</time>
      </trkpt>
      <trkpt lat="39.6545260" lon="-0.4091400">
        <ele>255.4</ele>
        <time>2022-11-06T08:58:42Z</time>
      </trkpt>
      <trkpt lat="39.6545180" lon="-0.4091930">
        <ele>255.4</ele>
        <time>2022-11-06T08:58:43Z</time>
      </trkpt>
      <trkpt lat="39.6545080" lon="-0.4092470">
        <ele>255.4</ele>
        <time>2022-11-06T08:58:44Z</time>
      </trkpt>
      <trkpt lat="39.6545000" lon="-0.4092970">
        <ele>255.4</ele>
        <time>2022-11-06T08:58:45Z</time>
      </trkpt>
      <trkpt lat="39.6544940" lon="-0.4093450">
        <ele>255.4</ele>
        <time>2022-11-06T08:58:46Z</time>
      </trkpt>
      <trkpt lat="39.6544940" lon="-0.4093450">
        <ele>255.4</ele>
        <time>2022-11-06T08:58:47Z</time>
      </trkpt>
      <trkpt lat="39.6544730" lon="-0.4094470">
        <ele>255.3</ele>
        <time>2022-11-06T08:58:48Z</time>
      </trkpt>
      <trkpt lat="39.6544670" lon="-0.4095000">
        <ele>255.2</ele>
        <time>2022-11-06T08:58:49Z</time>
      </trkpt>
      <trkpt lat="39.6544570" lon="-0.4095550">
        <ele>255.1</ele>
        <time>2022-11-06T08:58:50Z</time>
      </trkpt>
      <trkpt lat="39.6544540" lon="-0.4096100">
        <ele>255.0</ele>
        <time>2022-11-06T08:58:51Z</time>
      </trkpt>
      <trkpt lat="39.6544410" lon="-0.4096680">
        <ele>254.8</ele>
        <time>2022-11-06T08:58:52Z</time>
      </trkpt>
      <trkpt lat="39.6544220" lon="-0.4097420">
        <ele>254.5</ele>
        <time>2022-11-06T08:58:53Z</time>
      </trkpt>
      <trkpt lat="39.6544080" lon="-0.4098170">
        <ele>254.1</ele>
        <time>2022-11-06T08:58:54Z</time>
      </trkpt>
      <trkpt lat="39.6543950" lon="-0.4098930">
        <ele>253.8</ele>
        <time>2022-11-06T08:58:55Z</time>
      </trkpt>
      <trkpt lat="39.6543840" lon="-0.4099730">
        <ele>253.6</ele>
        <time>2022-11-06T08:58:56Z</time>
      </trkpt>
      <trkpt lat="39.6543680" lon="-0.4100530">
        <ele>253.4</ele>
        <time>2022-11-06T08:58:57Z</time>
      </trkpt>
      <trkpt lat="39.6543680" lon="-0.4100530">
        <ele>253.4</ele>
        <time>2022-11-06T08:58:58Z</time>
      </trkpt>
      <trkpt lat="39.6543490" lon="-0.4102100">
        <ele>253.2</ele>
        <time>2022-11-06T08:58:59Z</time>
      </trkpt>
      <trkpt lat="39.6543410" lon="-0.4102870">
        <ele>253.2</ele>
        <time>2022-11-06T08:59:00Z</time>
      </trkpt>
      <trkpt lat="39.6543390" lon="-0.4103620">
        <ele>253.2</ele>
        <time>2022-11-06T08:59:01Z</time>
      </trkpt>
      <trkpt lat="39.6543360" lon="-0.4104350">
        <ele>253.2</ele>
        <time>2022-11-06T08:59:02Z</time>
      </trkpt>
      <trkpt lat="39.6543360" lon="-0.4105100">
        <ele>253.3</ele>
        <time>2022-11-06T08:59:03Z</time>
      </trkpt>
      <trkpt lat="39.6543360" lon="-0.4105820">
        <ele>253.4</ele>
        <time>2022-11-06T08:59:04Z</time>
      </trkpt>
      <trkpt lat="39.6543390" lon="-0.4106480">
        <ele>253.5</ele>
        <time>2022-11-06T08:59:05Z</time>
      </trkpt>
      <trkpt lat="39.6543410" lon="-0.4107130">
        <ele>253.6</ele>
        <time>2022-11-06T08:59:06Z</time>
      </trkpt>
      <trkpt lat="39.6543410" lon="-0.4107130">
        <ele>253.6</ele>
        <time>2022-11-06T08:59:07Z</time>
      </trkpt>
      <trkpt lat="39.6543410" lon="-0.4107130">
        <ele>253.6</ele>
        <time>2022-11-06T08:59:08Z</time>
      </trkpt>
      <trkpt lat="39.6543490" lon="-0.4109000">
        <ele>254.1</ele>
        <time>2022-11-06T08:59:09Z</time>
      </trkpt>
      <trkpt lat="39.6543550" lon="-0.4109600">
        <ele>254.3</ele>
        <time>2022-11-06T08:59:10Z</time>
      </trkpt>
      <trkpt lat="39.6543570" lon="-0.4110200">
        <ele>254.5</ele>
        <time>2022-11-06T08:59:11Z</time>
      </trkpt>
      <trkpt lat="39.6543630" lon="-0.4110770">
        <ele>254.6</ele>
        <time>2022-11-06T08:59:12Z</time>
      </trkpt>
      <trkpt lat="39.6543630" lon="-0.4111320">
        <ele>254.8</ele>
        <time>2022-11-06T08:59:13Z</time>
      </trkpt>
      <trkpt lat="39.6543630" lon="-0.4111850">
        <ele>255.0</ele>
        <time>2022-11-06T08:59:14Z</time>
      </trkpt>
      <trkpt lat="39.6543630" lon="-0.4112370">
        <ele>255.2</ele>
        <time>2022-11-06T08:59:15Z</time>
      </trkpt>
      <trkpt lat="39.6543630" lon="-0.4112870">
        <ele>255.3</ele>
        <time>2022-11-06T08:59:16Z</time>
      </trkpt>
      <trkpt lat="39.6543630" lon="-0.4113380">
        <ele>255.5</ele>
        <time>2022-11-06T08:59:17Z</time>
      </trkpt>
      <trkpt lat="39.6543630" lon="-0.4113380">
        <ele>255.5</ele>
        <time>2022-11-06T08:59:18Z</time>
      </trkpt>
      <trkpt lat="39.6543630" lon="-0.4113380">
        <ele>255.5</ele>
        <time>2022-11-06T08:59:19Z</time>
      </trkpt>
      <trkpt lat="39.6543360" lon="-0.4114930">
        <ele>256.1</ele>
        <time>2022-11-06T08:59:20Z</time>
      </trkpt>
      <trkpt lat="39.6543230" lon="-0.4115380">
        <ele>256.1</ele>
        <time>2022-11-06T08:59:21Z</time>
      </trkpt>
      <trkpt lat="39.6543090" lon="-0.4115870">
        <ele>256.2</ele>
        <time>2022-11-06T08:59:22Z</time>
      </trkpt>
      <trkpt lat="39.6542900" lon="-0.4116380">
        <ele>256.3</ele>
        <time>2022-11-06T08:59:23Z</time>
      </trkpt>
      <trkpt lat="39.6542660" lon="-0.4116950">
        <ele>256.3</ele>
        <time>2022-11-06T08:59:24Z</time>
      </trkpt>
      <trkpt lat="39.6542470" lon="-0.4117450">
        <ele>256.4</ele>
        <time>2022-11-06T08:59:25Z</time>
      </trkpt>
      <trkpt lat="39.6542230" lon="-0.4117930">
        <ele>256.5</ele>
        <time>2022-11-06T08:59:26Z</time>
      </trkpt>
      <trkpt lat="39.6542020" lon="-0.4118430">
        <ele>256.5</ele>
        <time>2022-11-06T08:59:27Z</time>
      </trkpt>
      <trkpt lat="39.6542020" lon="-0.4118430">
        <ele>256.5</ele>
        <time>2022-11-06T08:59:28Z</time>
      </trkpt>
      <trkpt lat="39.6542020" lon="-0.4118430">
        <ele>256.5</ele>
        <time>2022-11-06T08:59:29Z</time>
      </trkpt>
      <trkpt lat="39.6541320" lon="-0.4119930">
        <ele>256.7</ele>
        <time>2022-11-06T08:59:30Z</time>
      </trkpt>
      <trkpt lat="39.6541050" lon="-0.4120400">
        <ele>256.7</ele>
        <time>2022-11-06T08:59:31Z</time>
      </trkpt>
      <trkpt lat="39.6540760" lon="-0.4120850">
        <ele>256.7</ele>
        <time>2022-11-06T08:59:32Z</time>
      </trkpt>
      <trkpt lat="39.6540410" lon="-0.4121280">
        <ele>256.7</ele>
        <time>2022-11-06T08:59:33Z</time>
      </trkpt>
      <trkpt lat="39.6540060" lon="-0.4121650">
        <ele>256.7</ele>
        <time>2022-11-06T08:59:34Z</time>
      </trkpt>
      <trkpt lat="39.6539740" lon="-0.4122020">
        <ele>256.7</ele>
        <time>2022-11-06T08:59:35Z</time>
      </trkpt>
      <trkpt lat="39.6539390" lon="-0.4122400">
        <ele>256.6</ele>
        <time>2022-11-06T08:59:36Z</time>
      </trkpt>
      <trkpt lat="39.6539010" lon="-0.4122770">
        <ele>256.6</ele>
        <time>2022-11-06T08:59:37Z</time>
      </trkpt>
      <trkpt lat="39.6538690" lon="-0.4123180">
        <ele>256.5</ele>
        <time>2022-11-06T08:59:38Z</time>
      </trkpt>
      <trkpt lat="39.6538690" lon="-0.4123180">
        <ele>256.5</ele>
        <time>2022-11-06T08:59:39Z</time>
      </trkpt>
      <trkpt lat="39.6537940" lon="-0.4123980">
        <ele>256.2</ele>
        <time>2022-11-06T08:59:40Z</time>
      </trkpt>
      <trkpt lat="39.6537510" lon="-0.4124430">
        <ele>256.0</ele>
        <time>2022-11-06T08:59:41Z</time>
      </trkpt>
      <trkpt lat="39.6537060" lon="-0.4124930">
        <ele>255.7</ele>
        <time>2022-11-06T08:59:42Z</time>
      </trkpt>
      <trkpt lat="39.6536550" lon="-0.4125430">
        <ele>255.5</ele>
        <time>2022-11-06T08:59:43Z</time>
      </trkpt>
      <trkpt lat="39.6536060" lon="-0.4125950">
        <ele>255.3</ele>
        <time>2022-11-06T08:59:44Z</time>
      </trkpt>
      <trkpt lat="39.6535530" lon="-0.4126480">
        <ele>255.1</ele>
        <time>2022-11-06T08:59:45Z</time>
      </trkpt>
      <trkpt lat="39.6534960" lon="-0.4126970">
        <ele>254.9</ele>
        <time>2022-11-06T08:59:46Z</time>
      </trkpt>
      <trkpt lat="39.6534370" lon="-0.4127450">
        <ele>254.8</ele>
        <time>2022-11-06T08:59:47Z</time>
      </trkpt>
      <trkpt lat="39.6533860" lon="-0.4127880">
        <ele>254.7</ele>
        <time>2022-11-06T08:59:48Z</time>
      </trkpt>
      <trkpt lat="39.6533860" lon="-0.4127880">
        <ele>254.7</ele>
        <time>2022-11-06T08:59:49Z</time>
      </trkpt>
      <trkpt lat="39.6532710" lon="-0.4128720">
        <ele>254.6</ele>
        <time>2022-11-06T08:59:50Z</time>
      </trkpt>
      <trkpt lat="39.6532170" lon="-0.4129120">
        <ele>254.5</ele>
        <time>2022-11-06T08:59:51Z</time>
      </trkpt>
      <trkpt lat="39.6531670" lon="-0.4129520">
        <ele>254.4</ele>
        <time>2022-11-06T08:59:52Z</time>
      </trkpt>
      <trkpt lat="39.6531160" lon="-0.4129930">
        <ele>254.2</ele>
        <time>2022-11-06T08:59:53Z</time>
      </trkpt>
      <trkpt lat="39.6530670" lon="-0.4130330">
        <ele>254.1</ele>
        <time>2022-11-06T08:59:54Z</time>
      </trkpt>
      <trkpt lat="39.6530190" lon="-0.4130730">
        <ele>253.9</ele>
        <time>2022-11-06T08:59:55Z</time>
      </trkpt>
      <trkpt lat="39.6529680" lon="-0.4131080">
        <ele>253.8</ele>
        <time>2022-11-06T08:59:56Z</time>
      </trkpt>
      <trkpt lat="39.6529170" lon="-0.4131450">
        <ele>253.5</ele>
        <time>2022-11-06T08:59:57Z</time>
      </trkpt>
      <trkpt lat="39.6528660" lon="-0.4131830">
        <ele>253.2</ele>
        <time>2022-11-06T08:59:58Z</time>
      </trkpt>
      <trkpt lat="39.6528120" lon="-0.4132230">
        <ele>252.9</ele>
        <time>2022-11-06T08:59:59Z</time>
      </trkpt>
      <trkpt lat="39.6528120" lon="-0.4132230">
        <ele>252.9</ele>
        <time>2022-11-06T09:00:00Z</time>
      </trkpt>
      <trkpt lat="39.6527030" lon="-0.4133050">
        <ele>252.2</ele>
        <time>2022-11-06T09:00:01Z</time>
      </trkpt>
      <trkpt lat="39.6526410" lon="-0.4133470">
        <ele>251.9</ele>
        <time>2022-11-06T09:00:02Z</time>
      </trkpt>
      <trkpt lat="39.6525790" lon="-0.4133900">
        <ele>251.5</ele>
        <time>2022-11-06T09:00:03Z</time>
      </trkpt>
      <trkpt lat="39.6525230" lon="-0.4134380">
        <ele>251.1</ele>
        <time>2022-11-06T09:00:04Z</time>
      </trkpt>
      <trkpt lat="39.6524610" lon="-0.4134920">
        <ele>250.8</ele>
        <time>2022-11-06T09:00:05Z</time>
      </trkpt>
      <trkpt lat="39.6524050" lon="-0.4135520">
        <ele>250.6</ele>
        <time>2022-11-06T09:00:06Z</time>
      </trkpt>
      <trkpt lat="39.6523620" lon="-0.4136200">
        <ele>250.3</ele>
        <time>2022-11-06T09:00:07Z</time>
      </trkpt>
      <trkpt lat="39.6523220" lon="-0.4136950">
        <ele>250.1</ele>
        <time>2022-11-06T09:00:08Z</time>
      </trkpt>
      <trkpt lat="39.6523220" lon="-0.4136950">
        <ele>250.1</ele>
        <time>2022-11-06T09:00:09Z</time>
      </trkpt>
      <trkpt lat="39.6523220" lon="-0.4136950">
        <ele>250.1</ele>
        <time>2022-11-06T09:00:10Z</time>
      </trkpt>
      <trkpt lat="39.6521960" lon="-0.4139430">
        <ele>248.8</ele>
        <time>2022-11-06T09:00:11Z</time>
      </trkpt>
      <trkpt lat="39.6521500" lon="-0.4140250">
        <ele>248.1</ele>
        <time>2022-11-06T09:00:12Z</time>
      </trkpt>
      <trkpt lat="39.6521040" lon="-0.4141170">
        <ele>247.3</ele>
        <time>2022-11-06T09:00:13Z</time>
      </trkpt>
      <trkpt lat="39.6520510" lon="-0.4142120">
        <ele>246.4</ele>
        <time>2022-11-06T09:00:14Z</time>
      </trkpt>
      <trkpt lat="39.6519970" lon="-0.4143100">
        <ele>245.5</ele>
        <time>2022-11-06T09:00:15Z</time>
      </trkpt>
      <trkpt lat="39.6519460" lon="-0.4144120">
        <ele>244.5</ele>
        <time>2022-11-06T09:00:16Z</time>
      </trkpt>
      <trkpt lat="39.6518980" lon="-0.4145150">
        <ele>243.5</ele>
        <time>2022-11-06T09:00:17Z</time>
      </trkpt>
      <trkpt lat="39.6518520" lon="-0.4146230">
        <ele>242.6</ele>
        <time>2022-11-06T09:00:18Z</time>
      </trkpt>
      <trkpt lat="39.6517990" lon="-0.4147380">
        <ele>241.5</ele>
        <time>2022-11-06T09:00:19Z</time>
      </trkpt>
      <trkpt lat="39.6517990" lon="-0.4147380">
        <ele>241.5</ele>
        <time>2022-11-06T09:00:20Z</time>
      </trkpt>
      <trkpt lat="39.6517990" lon="-0.4147380">
        <ele>241.5</ele>
        <time>2022-11-06T09:00:21Z</time>
      </trkpt>
      <trkpt lat="39.6516460" lon="-0.4151000">
        <ele>238.5</ele>
        <time>2022-11-06T09:00:22Z</time>
      </trkpt>
      <trkpt lat="39.6516030" lon="-0.4152320">
        <ele>237.5</ele>
        <time>2022-11-06T09:00:23Z</time>
      </trkpt>
      <trkpt lat="39.6515710" lon="-0.4153670">
        <ele>236.5</ele>
        <time>2022-11-06T09:00:24Z</time>
      </trkpt>
      <trkpt lat="39.6515440" lon="-0.4155030">
        <ele>235.6</ele>
        <time>2022-11-06T09:00:25Z</time>
      </trkpt>
      <trkpt lat="39.6515220" lon="-0.4156450">
        <ele>234.7</ele>
        <time>2022-11-06T09:00:26Z</time>
      </trkpt>
      <trkpt lat="39.6515120" lon="-0.4157880">
        <ele>233.8</ele>
        <time>2022-11-06T09:00:27Z</time>
      </trkpt>
      <trkpt lat="39.6515090" lon="-0.4159300">
        <ele>233.0</ele>
        <time>2022-11-06T09:00:28Z</time>
      </trkpt>
      <trkpt lat="39.6515170" lon="-0.4160730">
        <ele>232.4</ele>
        <time>2022-11-06T09:00:29Z</time>
      </trkpt>
      <trkpt lat="39.6515570" lon="-0.4163550">
        <ele>231.9</ele>
        <time>2022-11-06T09:00:30Z</time>
      </trkpt>
      <trkpt lat="39.6515570" lon="-0.4163550">
        <ele>231.9</ele>
        <time>2022-11-06T09:00:31Z</time>
      </trkpt>
      <trkpt lat="39.6515760" lon="-0.4164850">
        <ele>231.8</ele>
        <time>2022-11-06T09:00:32Z</time>
      </trkpt>
      <trkpt lat="39.6516000" lon="-0.4166020">
        <ele>231.8</ele>
        <time>2022-11-06T09:00:33Z</time>
      </trkpt>
      <trkpt lat="39.6516160" lon="-0.4167230">
        <ele>231.8</ele>
        <time>2022-11-06T09:00:34Z</time>
      </trkpt>
      <trkpt lat="39.6516270" lon="-0.4168380">
        <ele>231.9</ele>
        <time>2022-11-06T09:00:35Z</time>
      </trkpt>
      <trkpt lat="39.6516380" lon="-0.4169500">
        <ele>232.0</ele>
        <time>2022-11-06T09:00:36Z</time>
      </trkpt>
      <trkpt lat="39.6516460" lon="-0.4170570">
        <ele>232.1</ele>
        <time>2022-11-06T09:00:37Z</time>
      </trkpt>
      <trkpt lat="39.6516480" lon="-0.4171550">
        <ele>232.2</ele>
        <time>2022-11-06T09:00:38Z</time>
      </trkpt>
      <trkpt lat="39.6516480" lon="-0.4172470">
        <ele>232.3</ele>
        <time>2022-11-06T09:00:39Z</time>
      </trkpt>
      <trkpt lat="39.6516540" lon="-0.4173370">
        <ele>232.3</ele>
        <time>2022-11-06T09:00:40Z</time>
      </trkpt>
      <trkpt lat="39.6516540" lon="-0.4173370">
        <ele>232.3</ele>
        <time>2022-11-06T09:00:41Z</time>
      </trkpt>
      <trkpt lat="39.6516540" lon="-0.4175100">
        <ele>232.3</ele>
        <time>2022-11-06T09:00:42Z</time>
      </trkpt>
      <trkpt lat="39.6516560" lon="-0.4175930">
        <ele>232.3</ele>
        <time>2022-11-06T09:00:43Z</time>
      </trkpt>
      <trkpt lat="39.6516560" lon="-0.4176750">
        <ele>232.2</ele>
        <time>2022-11-06T09:00:44Z</time>
      </trkpt>
      <trkpt lat="39.6516540" lon="-0.4177580">
        <ele>232.1</ele>
        <time>2022-11-06T09:00:45Z</time>
      </trkpt>
      <trkpt lat="39.6516460" lon="-0.4178420">
        <ele>232.0</ele>
        <time>2022-11-06T09:00:46Z</time>
      </trkpt>
      <trkpt lat="39.6516430" lon="-0.4179270">
        <ele>231.9</ele>
        <time>2022-11-06T09:00:47Z</time>
      </trkpt>
      <trkpt lat="39.6516430" lon="-0.4180120">
        <ele>231.8</ele>
        <time>2022-11-06T09:00:48Z</time>
      </trkpt>
      <trkpt lat="39.6516430" lon="-0.4180930">
        <ele>231.6</ele>
        <time>2022-11-06T09:00:49Z</time>
      </trkpt>
      <trkpt lat="39.6516430" lon="-0.4180930">
        <ele>231.6</ele>
        <time>2022-11-06T09:00:50Z</time>
      </trkpt>
      <trkpt lat="39.6516300" lon="-0.4183520">
        <ele>230.5</ele>
        <time>2022-11-06T09:00:51Z</time>
      </trkpt>
      <trkpt lat="39.6516300" lon="-0.4183520">
        <ele>230.5</ele>
        <time>2022-11-06T09:00:52Z</time>
      </trkpt>
      <trkpt lat="39.6516270" lon="-0.4184420">
        <ele>230.0</ele>
        <time>2022-11-06T09:00:53Z</time>
      </trkpt>
      <trkpt lat="39.6516110" lon="-0.4185380">
        <ele>229.2</ele>
        <time>2022-11-06T09:00:54Z</time>
      </trkpt>
      <trkpt lat="39.6515760" lon="-0.4186470">
        <ele>228.4</ele>
        <time>2022-11-06T09:00:55Z</time>
      </trkpt>
      <trkpt lat="39.6515440" lon="-0.4187550">
        <ele>227.7</ele>
        <time>2022-11-06T09:00:56Z</time>
      </trkpt>
      <trkpt lat="39.6515040" lon="-0.4188630">
        <ele>227.3</ele>
        <time>2022-11-06T09:00:57Z</time>
      </trkpt>
      <trkpt lat="39.6514740" lon="-0.4189700">
        <ele>227.0</ele>
        <time>2022-11-06T09:00:58Z</time>
      </trkpt>
      <trkpt lat="39.6514450" lon="-0.4190720">
        <ele>227.0</ele>
        <time>2022-11-06T09:00:59Z</time>
      </trkpt>
      <trkpt lat="39.6514200" lon="-0.4191700">
        <ele>227.0</ele>
        <time>2022-11-06T09:01:00Z</time>
      </trkpt>
      <trkpt lat="39.6514200" lon="-0.4191700">
        <ele>227.0</ele>
        <time>2022-11-06T09:01:01Z</time>
      </trkpt>
      <trkpt lat="39.6514200" lon="-0.4191700">
        <ele>227.0</ele>
        <time>2022-11-06T09:01:02Z</time>
      </trkpt>
      <trkpt lat="39.6513670" lon="-0.4194430">
        <ele>227.2</ele>
        <time>2022-11-06T09:01:03Z</time>
      </trkpt>
      <trkpt lat="39.6513510" lon="-0.4195270">
        <ele>227.2</ele>
        <time>2022-11-06T09:01:04Z</time>
      </trkpt>
      <trkpt lat="39.6513450" lon="-0.4196080">
        <ele>227.2</ele>
        <time>2022-11-06T09:01:05Z</time>
      </trkpt>
      <trkpt lat="39.6513290" lon="-0.4196880">
        <ele>227.1</ele>
        <time>2022-11-06T09:01:06Z</time>
      </trkpt>
      <trkpt lat="39.6513180" lon="-0.4197680">
        <ele>227.0</ele>
        <time>2022-11-06T09:01:07Z</time>
      </trkpt>
      <trkpt lat="39.6513050" lon="-0.4198470">
        <ele>227.0</ele>
        <time>2022-11-06T09:01:08Z</time>
      </trkpt>
      <trkpt lat="39.6512920" lon="-0.4199250">
        <ele>226.9</ele>
        <time>2022-11-06T09:01:09Z</time>
      </trkpt>
      <trkpt lat="39.6512760" lon="-0.4200050">
        <ele>226.7</ele>
        <time>2022-11-06T09:01:10Z</time>
      </trkpt>
      <trkpt lat="39.6512510" lon="-0.4201670">
        <ele>226.5</ele>
        <time>2022-11-06T09:01:11Z</time>
      </trkpt>
      <trkpt lat="39.6512490" lon="-0.4202500">
        <ele>226.4</ele>
        <time>2022-11-06T09:01:12Z</time>
      </trkpt>
      <trkpt lat="39.6512490" lon="-0.4202500">
        <ele>226.4</ele>
        <time>2022-11-06T09:01:13Z</time>
      </trkpt>
      <trkpt lat="39.6512490" lon="-0.4203370">
        <ele>226.2</ele>
        <time>2022-11-06T09:01:14Z</time>
      </trkpt>
      <trkpt lat="39.6512510" lon="-0.4204170">
        <ele>226.0</ele>
        <time>2022-11-06T09:01:15Z</time>
      </trkpt>
      <trkpt lat="39.6512590" lon="-0.4204920">
        <ele>225.8</ele>
        <time>2022-11-06T09:01:16Z</time>
      </trkpt>
      <trkpt lat="39.6512730" lon="-0.4205750">
        <ele>225.4</ele>
        <time>2022-11-06T09:01:17Z</time>
      </trkpt>
      <trkpt lat="39.6512840" lon="-0.4206650">
        <ele>224.8</ele>
        <time>2022-11-06T09:01:18Z</time>
      </trkpt>
      <trkpt lat="39.6513000" lon="-0.4207600">
        <ele>224.2</ele>
        <time>2022-11-06T09:01:19Z</time>
      </trkpt>
      <trkpt lat="39.6513100" lon="-0.4208600">
        <ele>223.4</ele>
        <time>2022-11-06T09:01:20Z</time>
      </trkpt>
      <trkpt lat="39.6513210" lon="-0.4209670">
        <ele>222.7</ele>
        <time>2022-11-06T09:01:21Z</time>
      </trkpt>
      <trkpt lat="39.6513560" lon="-0.4212020">
        <ele>221.0</ele>
        <time>2022-11-06T09:01:22Z</time>
      </trkpt>
      <trkpt lat="39.6513560" lon="-0.4212020">
        <ele>221.0</ele>
        <time>2022-11-06T09:01:23Z</time>
      </trkpt>
      <trkpt lat="39.6513720" lon="-0.4213220">
        <ele>220.2</ele>
        <time>2022-11-06T09:01:24Z</time>
      </trkpt>
      <trkpt lat="39.6513910" lon="-0.4214480">
        <ele>219.4</ele>
        <time>2022-11-06T09:01:25Z</time>
      </trkpt>
      <trkpt lat="39.6514100" lon="-0.4215750">
        <ele>218.7</ele>
        <time>2022-11-06T09:01:26Z</time>
      </trkpt>
      <trkpt lat="39.6514230" lon="-0.4217020">
        <ele>218.0</ele>
        <time>2022-11-06T09:01:27Z</time>
      </trkpt>
      <trkpt lat="39.6514450" lon="-0.4218280">
        <ele>217.3</ele>
        <time>2022-11-06T09:01:28Z</time>
      </trkpt>
      <trkpt lat="39.6514550" lon="-0.4219570">
        <ele>216.6</ele>
        <time>2022-11-06T09:01:29Z</time>
      </trkpt>
      <trkpt lat="39.6514710" lon="-0.4220870">
        <ele>215.8</ele>
        <time>2022-11-06T09:01:30Z</time>
      </trkpt>
      <trkpt lat="39.6514850" lon="-0.4222180">
        <ele>215.0</ele>
        <time>2022-11-06T09:01:31Z</time>
      </trkpt>
      <trkpt lat="39.6515220" lon="-0.4224830">
        <ele>213.5</ele>
        <time>2022-11-06T09:01:32Z</time>
      </trkpt>
      <trkpt lat="39.6515440" lon="-0.4226150">
        <ele>212.9</ele>
        <time>2022-11-06T09:01:33Z</time>
      </trkpt>
      <trkpt lat="39.6515440" lon="-0.4226150">
        <ele>212.9</ele>
        <time>2022-11-06T09:01:34Z</time>
      </trkpt>
      <trkpt lat="39.6515630" lon="-0.4227480">
        <ele>212.3</ele>
        <time>2022-11-06T09:01:35Z</time>
      </trkpt>
      <trkpt lat="39.6515810" lon="-0.4228800">
        <ele>211.7</ele>
        <time>2022-11-06T09:01:36Z</time>
      </trkpt>
      <trkpt lat="39.6516000" lon="-0.4230130">
        <ele>211.1</ele>
        <time>2022-11-06T09:01:37Z</time>
      </trkpt>
      <trkpt lat="39.6516160" lon="-0.4231470">
        <ele>210.6</ele>
        <time>2022-11-06T09:01:38Z</time>
      </trkpt>
      <trkpt lat="39.6516350" lon="-0.4232780">
        <ele>210.0</ele>
        <time>2022-11-06T09:01:39Z</time>
      </trkpt>
      <trkpt lat="39.6516540" lon="-0.4234070">
        <ele>209.5</ele>
        <time>2022-11-06T09:01:40Z</time>
      </trkpt>
      <trkpt lat="39.6516700" lon="-0.4235350">
        <ele>208.9</ele>
        <time>2022-11-06T09:01:41Z</time>
      </trkpt>
      <trkpt lat="39.6516700" lon="-0.4235350">
        <ele>208.9</ele>
        <time>2022-11-06T09:01:42Z</time>
      </trkpt>
      <trkpt lat="39.6517150" lon="-0.4239070">
        <ele>208.8</ele>
        <time>2022-11-06T09:01:43Z</time>
      </trkpt>
      <trkpt lat="39.6517150" lon="-0.4239070">
        <ele>208.8</ele>
        <time>2022-11-06T09:01:44Z</time>
      </trkpt>
      <trkpt lat="39.6517290" lon="-0.4240130">
        <ele>208.9</ele>
        <time>2022-11-06T09:01:45Z</time>
      </trkpt>
      <trkpt lat="39.6517450" lon="-0.4241180">
        <ele>208.9</ele>
        <time>2022-11-06T09:01:46Z</time>
      </trkpt>
      <trkpt lat="39.6517610" lon="-0.4242180">
        <ele>208.8</ele>
        <time>2022-11-06T09:01:47Z</time>
      </trkpt>
      <trkpt lat="39.6517720" lon="-0.4243270">
        <ele>208.7</ele>
        <time>2022-11-06T09:01:48Z</time>
      </trkpt>
      <trkpt lat="39.6517880" lon="-0.4244270">
        <ele>208.6</ele>
        <time>2022-11-06T09:01:49Z</time>
      </trkpt>
      <trkpt lat="39.6518010" lon="-0.4245270">
        <ele>208.5</ele>
        <time>2022-11-06T09:01:50Z</time>
      </trkpt>
      <trkpt lat="39.6518170" lon="-0.4246230">
        <ele>208.4</ele>
        <time>2022-11-06T09:01:51Z</time>
      </trkpt>
      <trkpt lat="39.6518170" lon="-0.4246230">
        <ele>208.4</ele>
        <time>2022-11-06T09:01:52Z</time>
      </trkpt>
      <trkpt lat="39.6518630" lon="-0.4249020">
        <ele>208.4</ele>
        <time>2022-11-06T09:01:53Z</time>
      </trkpt>
      <trkpt lat="39.6518710" lon="-0.4249800">
        <ele>208.4</ele>
        <time>2022-11-06T09:01:54Z</time>
      </trkpt>
      <trkpt lat="39.6518710" lon="-0.4249800">
        <ele>208.4</ele>
        <time>2022-11-06T09:01:55Z</time>
      </trkpt>
      <trkpt lat="39.6518790" lon="-0.4250330">
        <ele>208.4</ele>
        <time>2022-11-06T09:01:56Z</time>
      </trkpt>
      <trkpt lat="39.6518900" lon="-0.4251180">
        <ele>208.4</ele>
        <time>2022-11-06T09:01:57Z</time>
      </trkpt>
      <trkpt lat="39.6519010" lon="-0.4251930">
        <ele>208.4</ele>
        <time>2022-11-06T09:01:58Z</time>
      </trkpt>
      <trkpt lat="39.6519190" lon="-0.4253000">
        <ele>208.4</ele>
        <time>2022-11-06T09:01:59Z</time>
      </trkpt>
      <trkpt lat="39.6519380" lon="-0.4253930">
        <ele>208.1</ele>
        <time>2022-11-06T09:02:00Z</time>
      </trkpt>
      <trkpt lat="39.6519620" lon="-0.4254870">
        <ele>207.8</ele>
        <time>2022-11-06T09:02:01Z</time>
      </trkpt>
      <trkpt lat="39.6519780" lon="-0.4255770">
        <ele>207.6</ele>
        <time>2022-11-06T09:02:02Z</time>
      </trkpt>
      <trkpt lat="39.6519970" lon="-0.4257480">
        <ele>207.4</ele>
        <time>2022-11-06T09:02:03Z</time>
      </trkpt>
      <trkpt lat="39.6520080" lon="-0.4258250">
        <ele>207.4</ele>
        <time>2022-11-06T09:02:04Z</time>
      </trkpt>
      <trkpt lat="39.6520080" lon="-0.4258250">
        <ele>207.4</ele>
        <time>2022-11-06T09:02:05Z</time>
      </trkpt>
      <trkpt lat="39.6520160" lon="-0.4258900">
        <ele>207.5</ele>
        <time>2022-11-06T09:02:06Z</time>
      </trkpt>
      <trkpt lat="39.6520320" lon="-0.4259570">
        <ele>207.6</ele>
        <time>2022-11-06T09:02:07Z</time>
      </trkpt>
      <trkpt lat="39.6520370" lon="-0.4260270">
        <ele>207.7</ele>
        <time>2022-11-06T09:02:08Z</time>
      </trkpt>
      <trkpt lat="39.6520510" lon="-0.4260800">
        <ele>207.7</ele>
        <time>2022-11-06T09:02:09Z</time>
      </trkpt>
      <trkpt lat="39.6520590" lon="-0.4261450">
        <ele>207.8</ele>
        <time>2022-11-06T09:02:10Z</time>
      </trkpt>
      <trkpt lat="39.6520640" lon="-0.4262170">
        <ele>207.9</ele>
        <time>2022-11-06T09:02:11Z</time>
      </trkpt>
      <trkpt lat="39.6520780" lon="-0.4262830">
        <ele>207.9</ele>
        <time>2022-11-06T09:02:12Z</time>
      </trkpt>
      <trkpt lat="39.6520960" lon="-0.4264050">
        <ele>207.9</ele>
        <time>2022-11-06T09:02:13Z</time>
      </trkpt>
      <trkpt lat="39.6521040" lon="-0.4264680">
        <ele>207.9</ele>
        <time>2022-11-06T09:02:14Z</time>
      </trkpt>
      <trkpt lat="39.6521150" lon="-0.4265400">
        <ele>207.9</ele>
        <time>2022-11-06T09:02:15Z</time>
      </trkpt>
      <trkpt lat="39.6521150" lon="-0.4265400">
        <ele>207.9</ele>
        <time>2022-11-06T09:02:16Z</time>
      </trkpt>
      <trkpt lat="39.6521230" lon="-0.4265980">
        <ele>207.9</ele>
        <time>2022-11-06T09:02:17Z</time>
      </trkpt>
      <trkpt lat="39.6521310" lon="-0.4266550">
        <ele>207.9</ele>
        <time>2022-11-06T09:02:18Z</time>
      </trkpt>
      <trkpt lat="39.6521370" lon="-0.4267050">
        <ele>207.9</ele>
        <time>2022-11-06T09:02:19Z</time>
      </trkpt>
      <trkpt lat="39.6521420" lon="-0.4267550">
        <ele>207.9</ele>
        <time>2022-11-06T09:02:20Z</time>
      </trkpt>
      <trkpt lat="39.6521500" lon="-0.4268100">
        <ele>207.9</ele>
        <time>2022-11-06T09:02:21Z</time>
      </trkpt>
      <trkpt lat="39.6521580" lon="-0.4268730">
        <ele>207.9</ele>
        <time>2022-11-06T09:02:22Z</time>
      </trkpt>
      <trkpt lat="39.6521580" lon="-0.4268730">
        <ele>207.9</ele>
        <time>2022-11-06T09:02:23Z</time>
      </trkpt>
      <trkpt lat="39.6521850" lon="-0.4270380">
        <ele>207.7</ele>
        <time>2022-11-06T09:02:24Z</time>
      </trkpt>
      <trkpt lat="39.6521960" lon="-0.4271050">
        <ele>207.6</ele>
        <time>2022-11-06T09:02:25Z</time>
      </trkpt>
      <trkpt lat="39.6521960" lon="-0.4271050">
        <ele>207.6</ele>
        <time>2022-11-06T09:02:26Z</time>
      </trkpt>
      <trkpt lat="39.6522040" lon="-0.4271620">
        <ele>207.5</ele>
        <time>2022-11-06T09:02:27Z</time>
      </trkpt>
      <trkpt lat="39.6522170" lon="-0.4272170">
        <ele>207.4</ele>
        <time>2022-11-06T09:02:28Z</time>
      </trkpt>
      <trkpt lat="39.6522330" lon="-0.4272780">
        <ele>207.3</ele>
        <time>2022-11-06T09:02:29Z</time>
      </trkpt>
      <trkpt lat="39.6522440" lon="-0.4273350">
        <ele>207.1</ele>
        <time>2022-11-06T09:02:30Z</time>
      </trkpt>
      <trkpt lat="39.6522710" lon="-0.4273850">
        <ele>207.0</ele>
        <time>2022-11-06T09:02:31Z</time>
      </trkpt>
      <trkpt lat="39.6522950" lon="-0.4274320">
        <ele>206.9</ele>
        <time>2022-11-06T09:02:32Z</time>
      </trkpt>
      <trkpt lat="39.6522950" lon="-0.4274320">
        <ele>206.9</ele>
        <time>2022-11-06T09:02:33Z</time>
      </trkpt>
      <trkpt lat="39.6523700" lon="-0.4275250">
        <ele>206.6</ele>
        <time>2022-11-06T09:02:34Z</time>
      </trkpt>
      <trkpt lat="39.6523940" lon="-0.4275520">
        <ele>206.8</ele>
        <time>2022-11-06T09:02:35Z</time>
      </trkpt>
      <trkpt lat="39.6524070" lon="-0.4275720">
        <ele>206.8</ele>
        <time>2022-11-06T09:02:36Z</time>
      </trkpt>
      <trkpt lat="39.6524070" lon="-0.4275720">
        <ele>206.8</ele>
        <time>2022-11-06T09:02:37Z</time>
      </trkpt>
      <trkpt lat="39.6524240" lon="-0.4276030">
        <ele>206.9</ele>
        <time>2022-11-06T09:02:38Z</time>
      </trkpt>
      <trkpt lat="39.6524340" lon="-0.4276250">
        <ele>206.8</ele>
        <time>2022-11-06T09:02:39Z</time>
      </trkpt>
      <trkpt lat="39.6524400" lon="-0.4276480">
        <ele>206.7</ele>
        <time>2022-11-06T09:02:40Z</time>
      </trkpt>
      <trkpt lat="39.6524480" lon="-0.4276730">
        <ele>206.6</ele>
        <time>2022-11-06T09:02:41Z</time>
      </trkpt>
      <trkpt lat="39.6524500" lon="-0.4276950">
        <ele>206.5</ele>
        <time>2022-11-06T09:02:42Z</time>
      </trkpt>
      <trkpt lat="39.6524480" lon="-0.4277220">
        <ele>206.4</ele>
        <time>2022-11-06T09:02:43Z</time>
      </trkpt>
      <trkpt lat="39.6524480" lon="-0.4277220">
        <ele>206.4</ele>
        <time>2022-11-06T09:02:44Z</time>
      </trkpt>
      <trkpt lat="39.6523970" lon="-0.4278080">
        <ele>205.8</ele>
        <time>2022-11-06T09:02:45Z</time>
      </trkpt>
      <trkpt lat="39.6523700" lon="-0.4278330">
        <ele>206.2</ele>
        <time>2022-11-06T09:02:46Z</time>
      </trkpt>
      <trkpt lat="39.6523700" lon="-0.4278330">
        <ele>206.2</ele>
        <time>2022-11-06T09:02:47Z</time>
      </trkpt>
      <trkpt lat="39.6523400" lon="-0.4278580">
        <ele>206.2</ele>
        <time>2022-11-06T09:02:48Z</time>
      </trkpt>
      <trkpt lat="39.6523030" lon="-0.4278770">
        <ele>206.2</ele>
        <time>2022-11-06T09:02:49Z</time>
      </trkpt>
      <trkpt lat="39.6522600" lon="-0.4278880">
        <ele>206.0</ele>
        <time>2022-11-06T09:02:50Z</time>
      </trkpt>
      <trkpt lat="39.6522170" lon="-0.4278980">
        <ele>205.9</ele>
        <time>2022-11-06T09:02:51Z</time>
      </trkpt>
      <trkpt lat="39.6521710" lon="-0.4279100">
        <ele>205.8</ele>
        <time>2022-11-06T09:02:52Z</time>
      </trkpt>
      <trkpt lat="39.6521260" lon="-0.4279220">
        <ele>205.7</ele>
        <time>2022-11-06T09:02:53Z</time>
      </trkpt>
      <trkpt lat="39.6520160" lon="-0.4279430">
        <ele>205.4</ele>
        <time>2022-11-06T09:02:54Z</time>
      </trkpt>
      <trkpt lat="39.6519600" lon="-0.4279520">
        <ele>205.3</ele>
        <time>2022-11-06T09:02:55Z</time>
      </trkpt>
      <trkpt lat="39.6519060" lon="-0.4279620">
        <ele>205.1</ele>
        <time>2022-11-06T09:02:56Z</time>
      </trkpt>
      <trkpt lat="39.6518470" lon="-0.4279730">
        <ele>205.0</ele>
        <time>2022-11-06T09:02:57Z</time>
      </trkpt>
      <trkpt lat="39.6518470" lon="-0.4279730">
        <ele>205.0</ele>
        <time>2022-11-06T09:02:58Z</time>
      </trkpt>
      <trkpt lat="39.6517910" lon="-0.4279820">
        <ele>204.8</ele>
        <time>2022-11-06T09:02:59Z</time>
      </trkpt>
      <trkpt lat="39.6517290" lon="-0.4279920">
        <ele>204.7</ele>
        <time>2022-11-06T09:03:00Z</time>
      </trkpt>
      <trkpt lat="39.6516700" lon="-0.4280020">
        <ele>204.5</ele>
        <time>2022-11-06T09:03:01Z</time>
      </trkpt>
      <trkpt lat="39.6516030" lon="-0.4280100">
        <ele>204.3</ele>
        <time>2022-11-06T09:03:02Z</time>
      </trkpt>
      <trkpt lat="39.6515380" lon="-0.4280200">
        <ele>204.1</ele>
        <time>2022-11-06T09:03:03Z</time>
      </trkpt>
      <trkpt lat="39.6514740" lon="-0.4280320">
        <ele>204.0</ele>
        <time>2022-11-06T09:03:04Z</time>
      </trkpt>
      <trkpt lat="39.6513400" lon="-0.4280580">
        <ele>203.6</ele>
        <time>2022-11-06T09:03:05Z</time>
      </trkpt>
      <trkpt lat="39.6512760" lon="-0.4280730">
        <ele>203.5</ele>
        <time>2022-11-06T09:03:06Z</time>
      </trkpt>
      <trkpt lat="39.6512110" lon="-0.4280850">
        <ele>203.4</ele>
        <time>2022-11-06T09:03:07Z</time>
      </trkpt>
      <trkpt lat="39.6512110" lon="-0.4280850">
        <ele>203.4</ele>
        <time>2022-11-06T09:03:08Z</time>
      </trkpt>
      <trkpt lat="39.6511410" lon="-0.4280980">
        <ele>203.2</ele>
        <time>2022-11-06T09:03:09Z</time>
      </trkpt>
      <trkpt lat="39.6510770" lon="-0.4281100">
        <ele>203.1</ele>
        <time>2022-11-06T09:03:10Z</time>
      </trkpt>
      <trkpt lat="39.6510070" lon="-0.4281230">
        <ele>202.9</ele>
        <time>2022-11-06T09:03:11Z</time>
      </trkpt>
      <trkpt lat="39.6509400" lon="-0.4281350">
        <ele>202.8</ele>
        <time>2022-11-06T09:03:12Z</time>
      </trkpt>
      <trkpt lat="39.6508760" lon="-0.4281450">
        <ele>202.7</ele>
        <time>2022-11-06T09:03:13Z</time>
      </trkpt>
      <trkpt lat="39.6508760" lon="-0.4281450">
        <ele>202.7</ele>
        <time>2022-11-06T09:03:14Z</time>
      </trkpt>
      <trkpt lat="39.6506800" lon="-0.4281800">
        <ele>202.5</ele>
        <time>2022-11-06T09:03:15Z</time>
      </trkpt>
      <trkpt lat="39.6506160" lon="-0.4281920">
        <ele>202.4</ele>
        <time>2022-11-06T09:03:16Z</time>
      </trkpt>
      <trkpt lat="39.6505510" lon="-0.4282020">
        <ele>202.4</ele>
        <time>2022-11-06T09:03:17Z</time>
      </trkpt>
      <trkpt lat="39.6504870" lon="-0.4282120">
        <ele>202.3</ele>
        <time>2022-11-06T09:03:18Z</time>
      </trkpt>
      <trkpt lat="39.6504870" lon="-0.4282120">
        <ele>202.3</ele>
        <time>2022-11-06T09:03:19Z</time>
      </trkpt>
      <trkpt lat="39.6504200" lon="-0.4282230">
        <ele>202.3</ele>
        <time>2022-11-06T09:03:20Z</time>
      </trkpt>
      <trkpt lat="39.6503560" lon="-0.4282370">
        <ele>202.2</ele>
        <time>2022-11-06T09:03:21Z</time>
      </trkpt>
      <trkpt lat="39.6502910" lon="-0.4282480">
        <ele>202.1</ele>
        <time>2022-11-06T09:03:22Z</time>
      </trkpt>
      <trkpt lat="39.6502210" lon="-0.4282570">
        <ele>201.9</ele>
        <time>2022-11-06T09:03:23Z</time>
      </trkpt>
      <trkpt lat="39.6501570" lon="-0.4282670">
        <ele>201.7</ele>
        <time>2022-11-06T09:03:24Z</time>
      </trkpt>
      <trkpt lat="39.6501570" lon="-0.4282670">
        <ele>201.7</ele>
        <time>2022-11-06T09:03:25Z</time>
      </trkpt>
      <trkpt lat="39.6499450" lon="-0.4283020">
        <ele>200.8</ele>
        <time>2022-11-06T09:03:26Z</time>
      </trkpt>
      <trkpt lat="39.6498670" lon="-0.4283150">
        <ele>200.5</ele>
        <time>2022-11-06T09:03:27Z</time>
      </trkpt>
      <trkpt lat="39.6497920" lon="-0.4283320">
        <ele>200.1</ele>
        <time>2022-11-06T09:03:28Z</time>
      </trkpt>
      <trkpt lat="39.6497920" lon="-0.4283320">
        <ele>200.1</ele>
        <time>2022-11-06T09:03:29Z</time>
      </trkpt>
      <trkpt lat="39.6497150" lon="-0.4283430">
        <ele>199.8</ele>
        <time>2022-11-06T09:03:30Z</time>
      </trkpt>
      <trkpt lat="39.6496390" lon="-0.4283570">
        <ele>199.4</ele>
        <time>2022-11-06T09:03:31Z</time>
      </trkpt>
      <trkpt lat="39.6495560" lon="-0.4283700">
        <ele>199.0</ele>
        <time>2022-11-06T09:03:32Z</time>
      </trkpt>
      <trkpt lat="39.6494760" lon="-0.4283850">
        <ele>198.6</ele>
        <time>2022-11-06T09:03:33Z</time>
      </trkpt>
      <trkpt lat="39.6493950" lon="-0.4284020">
        <ele>198.1</ele>
        <time>2022-11-06T09:03:34Z</time>
      </trkpt>
      <trkpt lat="39.6492240" lon="-0.4284330">
        <ele>197.1</ele>
        <time>2022-11-06T09:03:35Z</time>
      </trkpt>
      <trkpt lat="39.6491320" lon="-0.4284500">
        <ele>196.5</ele>
        <time>2022-11-06T09:03:36Z</time>
      </trkpt>
      <trkpt lat="39.6490440" lon="-0.4284680">
        <ele>195.9</ele>
        <time>2022-11-06T09:03:37Z</time>
      </trkpt>
      <trkpt lat="39.6489530" lon="-0.4284850">
        <ele>195.3</ele>
        <time>2022-11-06T09:03:38Z</time>
      </trkpt>
      <trkpt lat="39.6488560" lon="-0.4285050">
        <ele>194.7</ele>
        <time>2022-11-06T09:03:39Z</time>
      </trkpt>
      <trkpt lat="39.6488560" lon="-0.4285050">
        <ele>194.7</ele>
        <time>2022-11-06T09:03:40Z</time>
      </trkpt>
      <trkpt lat="39.6487650" lon="-0.4285250">
        <ele>194.1</ele>
        <time>2022-11-06T09:03:41Z</time>
      </trkpt>
      <trkpt lat="39.6486710" lon="-0.4285480">
        <ele>193.4</ele>
        <time>2022-11-06T09:03:42Z</time>
      </trkpt>
      <trkpt lat="39.6485750" lon="-0.4285730">
        <ele>192.8</ele>
        <time>2022-11-06T09:03:43Z</time>
      </trkpt>
      <trkpt lat="39.6484750" lon="-0.4286020">
        <ele>192.1</ele>
        <time>2022-11-06T09:03:44Z</time>
      </trkpt>
      <trkpt lat="39.6483760" lon="-0.4286330">
        <ele>191.4</ele>
        <time>2022-11-06T09:03:45Z</time>
      </trkpt>
      <trkpt lat="39.6481830" lon="-0.4287030">
        <ele>190.0</ele>
        <time>2022-11-06T09:03:46Z</time>
      </trkpt>
      <trkpt lat="39.6480860" lon="-0.4287430">
        <ele>189.4</ele>
        <time>2022-11-06T09:03:47Z</time>
      </trkpt>
      <trkpt lat="39.6479900" lon="-0.4287820">
        <ele>188.8</ele>
        <time>2022-11-06T09:03:48Z</time>
      </trkpt>
      <trkpt lat="39.6478990" lon="-0.4288200">
        <ele>188.2</ele>
        <time>2022-11-06T09:03:49Z</time>
      </trkpt>
      <trkpt lat="39.6478990" lon="-0.4288200">
        <ele>188.2</ele>
        <time>2022-11-06T09:03:50Z</time>
      </trkpt>
      <trkpt lat="39.6478070" lon="-0.4288600">
        <ele>187.5</ele>
        <time>2022-11-06T09:03:51Z</time>
      </trkpt>
      <trkpt lat="39.6477140" lon="-0.4288950">
        <ele>186.9</ele>
        <time>2022-11-06T09:03:52Z</time>
      </trkpt>
      <trkpt lat="39.6476220" lon="-0.4289330">
        <ele>186.2</ele>
        <time>2022-11-06T09:03:53Z</time>
      </trkpt>
      <trkpt lat="39.6475290" lon="-0.4289730">
        <ele>185.5</ele>
        <time>2022-11-06T09:03:54Z</time>
      </trkpt>
      <trkpt lat="39.6475290" lon="-0.4289730">
        <ele>185.5</ele>
        <time>2022-11-06T09:03:55Z</time>
      </trkpt>
      <trkpt lat="39.6472520" lon="-0.4290930">
        <ele>183.6</ele>
        <time>2022-11-06T09:03:56Z</time>
      </trkpt>
      <trkpt lat="39.6471560" lon="-0.4291330">
        <ele>183.0</ele>
        <time>2022-11-06T09:03:57Z</time>
      </trkpt>
      <trkpt lat="39.6470590" lon="-0.4291730">
        <ele>182.5</ele>
        <time>2022-11-06T09:03:58Z</time>
      </trkpt>
      <trkpt lat="39.6469650" lon="-0.4292120">
        <ele>182.0</ele>
        <time>2022-11-06T09:03:59Z</time>
      </trkpt>
      <trkpt lat="39.6468690" lon="-0.4292500">
        <ele>181.6</ele>
        <time>2022-11-06T09:04:00Z</time>
      </trkpt>
      <trkpt lat="39.6468690" lon="-0.4292500">
        <ele>181.6</ele>
        <time>2022-11-06T09:04:01Z</time>
      </trkpt>
      <trkpt lat="39.6467750" lon="-0.4292900">
        <ele>181.3</ele>
        <time>2022-11-06T09:04:02Z</time>
      </trkpt>
      <trkpt lat="39.6466780" lon="-0.4293300">
        <ele>181.0</ele>
        <time>2022-11-06T09:04:03Z</time>
      </trkpt>
      <trkpt lat="39.6465840" lon="-0.4293670">
        <ele>180.8</ele>
        <time>2022-11-06T09:04:04Z</time>
      </trkpt>
      <trkpt lat="39.6464880" lon="-0.4294030">
        <ele>180.5</ele>
        <time>2022-11-06T09:04:05Z</time>
      </trkpt>
      <trkpt lat="39.6464880" lon="-0.4294030">
        <ele>180.5</ele>
        <time>2022-11-06T09:04:06Z</time>
      </trkpt>
      <trkpt lat="39.6462600" lon="-0.4295870">
        <ele>179.4</ele>
        <time>2022-11-06T09:04:07Z</time>
      </trkpt>
      <trkpt lat="39.6461950" lon="-0.4296700">
        <ele>179.4</ele>
        <time>2022-11-06T09:04:08Z</time>
      </trkpt>
      <trkpt lat="39.6461450" lon="-0.4297570">
        <ele>178.7</ele>
        <time>2022-11-06T09:04:09Z</time>
      </trkpt>
      <trkpt lat="39.6461150" lon="-0.4298430">
        <ele>178.5</ele>
        <time>2022-11-06T09:04:10Z</time>
      </trkpt>
      <trkpt lat="39.6461150" lon="-0.4298430">
        <ele>178.5</ele>
        <time>2022-11-06T09:04:11Z</time>
      </trkpt>
      <trkpt lat="39.6461230" lon="-0.4299330">
        <ele>178.4</ele>
        <time>2022-11-06T09:04:12Z</time>
      </trkpt>
      <trkpt lat="39.6461610" lon="-0.4300030">
        <ele>178.2</ele>
        <time>2022-11-06T09:04:13Z</time>
      </trkpt>
      <trkpt lat="39.6462170" lon="-0.4300520">
        <ele>178.0</ele>
        <time>2022-11-06T09:04:14Z</time>
      </trkpt>
      <trkpt lat="39.6462790" lon="-0.4300770">
        <ele>177.9</ele>
        <time>2022-11-06T09:04:15Z</time>
      </trkpt>
      <trkpt lat="39.6464050" lon="-0.4300830">
        <ele>177.6</ele>
        <time>2022-11-06T09:04:16Z</time>
      </trkpt>
      <trkpt lat="39.6464660" lon="-0.4300820">
        <ele>177.5</ele>
        <time>2022-11-06T09:04:17Z</time>
      </trkpt>
      <trkpt lat="39.6465230" lon="-0.4300920">
        <ele>177.4</ele>
        <time>2022-11-06T09:04:18Z</time>
      </trkpt>
      <trkpt lat="39.6465840" lon="-0.4300850">
        <ele>177.3</ele>
        <time>2022-11-06T09:04:19Z</time>
      </trkpt>
      <trkpt lat="39.6466380" lon="-0.4300820">
        <ele>177.1</ele>
        <time>2022-11-06T09:04:20Z</time>
      </trkpt>
      <trkpt lat="39.6466860" lon="-0.4300800">
        <ele>177.1</ele>
        <time>2022-11-06T09:04:21Z</time>
      </trkpt>
      <trkpt lat="39.6466860" lon="-0.4300800">
        <ele>177.1</ele>
        <time>2022-11-06T09:04:22Z</time>
      </trkpt>
      <trkpt lat="39.6467320" lon="-0.4300770">
        <ele>177.0</ele>
        <time>2022-11-06T09:04:23Z</time>
      </trkpt>
      <trkpt lat="39.6467750" lon="-0.4300750">
        <ele>176.9</ele>
        <time>2022-11-06T09:04:24Z</time>
      </trkpt>
      <trkpt lat="39.6468020" lon="-0.4300870">
        <ele>176.9</ele>
        <time>2022-11-06T09:04:25Z</time>
      </trkpt>
      <trkpt lat="39.6468150" lon="-0.4301100">
        <ele>176.8</ele>
        <time>2022-11-06T09:04:26Z</time>
      </trkpt>
      <trkpt lat="39.6468150" lon="-0.4301100">
        <ele>176.8</ele>
        <time>2022-11-06T09:04:27Z</time>
      </trkpt>
      <trkpt lat="39.6467960" lon="-0.4301220">
        <ele>176.8</ele>
        <time>2022-11-06T09:04:28Z</time>
      </trkpt>
      <trkpt lat="39.6467860" lon="-0.4301250">
        <ele>176.8</ele>
        <time>2022-11-06T09:04:29Z</time>
      </trkpt>
      <trkpt lat="39.6467780" lon="-0.4301250">
        <ele>176.8</ele>
        <time>2022-11-06T09:04:30Z</time>
      </trkpt>
      <trkpt lat="39.6467640" lon="-0.4301250">
        <ele>176.7</ele>
        <time>2022-11-06T09:04:31Z</time>
      </trkpt>
      <trkpt lat="39.6467640" lon="-0.4301250">
        <ele>176.7</ele>
        <time>2022-11-06T09:04:32Z</time>
      </trkpt>
      <trkpt lat="39.6467560" lon="-0.4301150">
        <ele>176.7</ele>
        <time>2022-11-06T09:04:33Z</time>
      </trkpt>
      <trkpt lat="39.6467510" lon="-0.4301050">
        <ele>176.7</ele>
        <time>2022-11-06T09:04:34Z</time>
      </trkpt>
    </trkseg>
  </trk>
</gpx>
